<?xml version="1.0" encoding="UTF-8" standalone="yes"?>
<?xml-stylesheet type="text/xsl" href="details.xsl"?>
<gpx
 version="1.1"
 creator="BackCountry Navigator on Android"
 xmlns:xsi="http://www.w3.org/2001/XMLSchema-instance"
 xmlns="http://www.topografix.com/GPX/1/1"
 xmlns:topografix="http://www.topografix.com/GPX/Private/TopoGrafix/0/1" xsi:schemaLocation="http://www.topografix.com/GPX/1/1 http://www.topografix.com/GPX/1/1/gpx.xsd http://www.topografix.com/GPX/Private/TopoGrafix/0/1 http://www.topografix.com/GPX/Private/TopoGrafix/0/1/topografix.xsd">
<wpt lat="37.04224858" lon="-118.80857715">
<ele>0</ele>
<time>2016-07-28T23:01:27Z</time>
<name><![CDATA[09:01]]></name>
<cmt><![CDATA[]]></cmt>
<desc><![CDATA[]]></desc>
<sym><![CDATA[]]></sym>
</wpt>
<wpt lat="36.73101468" lon="-118.4108228">
<ele>0</ele>
<time>2016-10-08T22:59:41Z</time>
<name><![CDATA[08:59]]></name>
<cmt><![CDATA[]]></cmt>
<desc><![CDATA[]]></desc>
<sym><![CDATA[]]></sym>
</wpt>
<wpt lat="36.75678679" lon="-118.40502311">
<ele>0</ele>
<time>2016-10-09T05:18:49Z</time>
<name><![CDATA[15:18cabin]]></name>
<cmt><![CDATA[]]></cmt>
<desc><![CDATA[]]></desc>
<sym><![CDATA[]]></sym>
</wpt>
<wpt lat="37.05251532" lon="-118.46808086">
<ele>0</ele>
<time>2016-10-11T08:29:24Z</time>
<name><![CDATA[18:29]]></name>
<cmt><![CDATA[]]></cmt>
<desc><![CDATA[]]></desc>
<sym><![CDATA[]]></sym>
</wpt>
<wpt lat="36.93040747" lon="-118.54774069">
<ele>0</ele>
<time>2016-10-22T03:33:39Z</time>
<name><![CDATA[13:33]]></name>
<cmt><![CDATA[]]></cmt>
<desc><![CDATA[]]></desc>
<sym><![CDATA[]]></sym>
</wpt>
<trk>
<name><![CDATA[rein]]></name>
<number>1</number>
<extensions><topografix:color>ff000066</topografix:color></extensions>
<trkseg>
<trkpt lat="36.97413635253906" lon="-118.94270324707031">
<ele>2265</ele>
<time>2016-07-28T08:17:11Z</time>
</trkpt>
<trkpt lat="36.97410202026367" lon="-118.94275665283203">
<ele>2273</ele>
<time>2016-07-28T08:18:08Z</time>
</trkpt>
<trkpt lat="36.9741096496582" lon="-118.94281768798828">
<ele>2284</ele>
<time>2016-07-28T08:18:36Z</time>
</trkpt>
<trkpt lat="36.97410583496094" lon="-118.94287872314453">
<ele>2287</ele>
<time>2016-07-28T08:18:44Z</time>
</trkpt>
<trkpt lat="36.974082946777344" lon="-118.94282531738281">
<ele>2289</ele>
<time>2016-07-28T08:19:00Z</time>
</trkpt>
<trkpt lat="36.97404861450195" lon="-118.94288635253906">
<ele>2292</ele>
<time>2016-07-28T08:19:31Z</time>
</trkpt>
<trkpt lat="36.974037170410156" lon="-118.94282531738281">
<ele>2292</ele>
<time>2016-07-28T08:19:51Z</time>
</trkpt>
<trkpt lat="36.97399139404297" lon="-118.94280242919922">
<ele>2290</ele>
<time>2016-07-28T08:20:11Z</time>
</trkpt>
<trkpt lat="36.97399139404297" lon="-118.94273376464844">
<ele>2290</ele>
<time>2016-07-28T08:20:30Z</time>
</trkpt>
<trkpt lat="36.97401809692383" lon="-118.94268798828125">
<ele>2289</ele>
<time>2016-07-28T08:20:42Z</time>
</trkpt>
<trkpt lat="36.974082946777344" lon="-118.9426040649414">
<ele>2292</ele>
<time>2016-07-28T08:20:52Z</time>
</trkpt>
<trkpt lat="36.974124908447266" lon="-118.94249725341797">
<ele>2300</ele>
<time>2016-07-28T08:21:04Z</time>
</trkpt>
<trkpt lat="36.974159240722656" lon="-118.94245147705078">
<ele>2301</ele>
<time>2016-07-28T08:21:13Z</time>
</trkpt>
<trkpt lat="36.97419357299805" lon="-118.9424057006836">
<ele>2307</ele>
<time>2016-07-28T08:21:32Z</time>
</trkpt>
<trkpt lat="36.97416305541992" lon="-118.94230651855469">
<ele>2309</ele>
<time>2016-07-28T08:21:48Z</time>
</trkpt>
<trkpt lat="36.97412109375" lon="-118.9422836303711">
<ele>2309</ele>
<time>2016-07-28T08:22:04Z</time>
</trkpt>
<trkpt lat="36.97409439086914" lon="-118.94234466552734">
<ele>2306</ele>
<time>2016-07-28T08:22:10Z</time>
</trkpt>
<trkpt lat="36.97406768798828" lon="-118.94242858886719">
<ele>2308</ele>
<time>2016-07-28T08:22:16Z</time>
</trkpt>
<trkpt lat="36.97402572631836" lon="-118.94255065917969">
<ele>2306</ele>
<time>2016-07-28T08:22:23Z</time>
</trkpt>
<trkpt lat="36.973976135253906" lon="-118.9426498413086">
<ele>2302</ele>
<time>2016-07-28T08:22:31Z</time>
</trkpt>
<trkpt lat="36.97397994995117" lon="-118.94281768798828">
<ele>2298</ele>
<time>2016-07-28T08:22:39Z</time>
</trkpt>
<trkpt lat="36.97401809692383" lon="-118.9428482055664">
<ele>2299</ele>
<time>2016-07-28T08:22:58Z</time>
</trkpt>
<trkpt lat="36.974056243896484" lon="-118.94281005859375">
<ele>2298</ele>
<time>2016-07-28T08:24:46Z</time>
</trkpt>
<trkpt lat="36.974090576171875" lon="-118.9427719116211">
<ele>2290</ele>
<time>2016-07-28T08:25:07Z</time>
</trkpt>
<trkpt lat="36.97402572631836" lon="-118.94276428222656">
<ele>2286</ele>
<time>2016-07-28T08:25:39Z</time>
</trkpt>
<trkpt lat="36.9740104675293" lon="-118.94266510009766">
<ele>2293</ele>
<time>2016-07-28T08:25:53Z</time>
</trkpt>
<trkpt lat="36.97404479980469" lon="-118.942626953125">
<ele>2293</ele>
<time>2016-07-28T08:25:59Z</time>
</trkpt>
<trkpt lat="36.97407150268555" lon="-118.94257354736328">
<ele>2292</ele>
<time>2016-07-28T08:26:06Z</time>
</trkpt>
<trkpt lat="36.97407913208008" lon="-118.9424819946289">
<ele>2295</ele>
<time>2016-07-28T08:26:18Z</time>
</trkpt>
<trkpt lat="36.974124908447266" lon="-118.94247436523438">
<ele>2295</ele>
<time>2016-07-28T08:26:24Z</time>
</trkpt>
<trkpt lat="36.97417068481445" lon="-118.94237518310547">
<ele>2295</ele>
<time>2016-07-28T08:26:31Z</time>
</trkpt>
<trkpt lat="36.97418212890625" lon="-118.94231414794922">
<ele>2294</ele>
<time>2016-07-28T08:26:37Z</time>
</trkpt>
<trkpt lat="36.97422409057617" lon="-118.94222259521484">
<ele>2302</ele>
<time>2016-07-28T08:27:17Z</time>
</trkpt>
<trkpt lat="36.97421646118164" lon="-118.94215393066406">
<ele>2305</ele>
<time>2016-07-28T08:27:23Z</time>
</trkpt>
<trkpt lat="36.97415542602539" lon="-118.94204711914063">
<ele>2306</ele>
<time>2016-07-28T08:27:33Z</time>
</trkpt>
<trkpt lat="36.97414016723633" lon="-118.94192504882813">
<ele>2312</ele>
<time>2016-07-28T08:27:42Z</time>
</trkpt>
<trkpt lat="36.974178314208984" lon="-118.94181823730469">
<ele>2316</ele>
<time>2016-07-28T08:27:53Z</time>
</trkpt>
<trkpt lat="36.97422409057617" lon="-118.94178771972656">
<ele>2317</ele>
<time>2016-07-28T08:28:00Z</time>
</trkpt>
<trkpt lat="36.9742431640625" lon="-118.94173431396484">
<ele>2319</ele>
<time>2016-07-28T08:28:10Z</time>
</trkpt>
<trkpt lat="36.97428512573242" lon="-118.94168090820313">
<ele>2320</ele>
<time>2016-07-28T08:28:16Z</time>
</trkpt>
<trkpt lat="36.97425842285156" lon="-118.9416275024414">
<ele>2320</ele>
<time>2016-07-28T08:28:23Z</time>
</trkpt>
<trkpt lat="36.97425079345703" lon="-118.94155883789063">
<ele>2322</ele>
<time>2016-07-28T08:28:47Z</time>
</trkpt>
<trkpt lat="36.974212646484375" lon="-118.94142150878906">
<ele>2321</ele>
<time>2016-07-28T08:28:55Z</time>
</trkpt>
<trkpt lat="36.97414779663086" lon="-118.9413070678711">
<ele>2322</ele>
<time>2016-07-28T08:29:01Z</time>
</trkpt>
<trkpt lat="36.97407913208008" lon="-118.94121551513672">
<ele>2326</ele>
<time>2016-07-28T08:29:07Z</time>
</trkpt>
<trkpt lat="36.97401428222656" lon="-118.94110870361328">
<ele>2331</ele>
<time>2016-07-28T08:29:16Z</time>
</trkpt>
<trkpt lat="36.974021911621094" lon="-118.94104766845703">
<ele>2332</ele>
<time>2016-07-28T08:29:22Z</time>
</trkpt>
<trkpt lat="36.9739875793457" lon="-118.94100952148438">
<ele>2332</ele>
<time>2016-07-28T08:29:28Z</time>
</trkpt>
<trkpt lat="36.97394561767578" lon="-118.94096374511719">
<ele>2334</ele>
<time>2016-07-28T08:29:34Z</time>
</trkpt>
<trkpt lat="36.97386169433594" lon="-118.94090270996094">
<ele>2340</ele>
<time>2016-07-28T08:29:42Z</time>
</trkpt>
<trkpt lat="36.973793029785156" lon="-118.94081115722656">
<ele>2341</ele>
<time>2016-07-28T08:29:54Z</time>
</trkpt>
<trkpt lat="36.97379684448242" lon="-118.94075012207031">
<ele>2344</ele>
<time>2016-07-28T08:30:07Z</time>
</trkpt>
<trkpt lat="36.97376251220703" lon="-118.9406967163086">
<ele>2349</ele>
<time>2016-07-28T08:30:20Z</time>
</trkpt>
<trkpt lat="36.97373580932617" lon="-118.94064331054688">
<ele>2348</ele>
<time>2016-07-28T08:30:26Z</time>
</trkpt>
<trkpt lat="36.973690032958984" lon="-118.94054412841797">
<ele>2349</ele>
<time>2016-07-28T08:30:34Z</time>
</trkpt>
<trkpt lat="36.97364807128906" lon="-118.94043731689453">
<ele>2345</ele>
<time>2016-07-28T08:30:44Z</time>
</trkpt>
<trkpt lat="36.97361373901367" lon="-118.9403076171875">
<ele>2348</ele>
<time>2016-07-28T08:30:51Z</time>
</trkpt>
<trkpt lat="36.973655700683594" lon="-118.94020080566406">
<ele>2352</ele>
<time>2016-07-28T08:31:04Z</time>
</trkpt>
<trkpt lat="36.97367858886719" lon="-118.94013977050781">
<ele>2352</ele>
<time>2016-07-28T08:31:11Z</time>
</trkpt>
<trkpt lat="36.97370910644531" lon="-118.94009399414063">
<ele>2352</ele>
<time>2016-07-28T08:31:17Z</time>
</trkpt>
<trkpt lat="36.973697662353516" lon="-118.9400405883789">
<ele>2354</ele>
<time>2016-07-28T08:31:24Z</time>
</trkpt>
<trkpt lat="36.973724365234375" lon="-118.93992614746094">
<ele>2352</ele>
<time>2016-07-28T08:31:35Z</time>
</trkpt>
<trkpt lat="36.97370529174805" lon="-118.93980407714844">
<ele>2354</ele>
<time>2016-07-28T08:31:45Z</time>
</trkpt>
<trkpt lat="36.97371292114258" lon="-118.93975067138672">
<ele>2354</ele>
<time>2016-07-28T08:31:51Z</time>
</trkpt>
<trkpt lat="36.9737434387207" lon="-118.939697265625">
<ele>2354</ele>
<time>2016-07-28T08:32:00Z</time>
</trkpt>
<trkpt lat="36.9737548828125" lon="-118.93964385986328">
<ele>2357</ele>
<time>2016-07-28T08:32:07Z</time>
</trkpt>
<trkpt lat="36.9737548828125" lon="-118.93954467773438">
<ele>2357</ele>
<time>2016-07-28T08:32:17Z</time>
</trkpt>
<trkpt lat="36.97372817993164" lon="-118.93942260742188">
<ele>2360</ele>
<time>2016-07-28T08:32:27Z</time>
</trkpt>
<trkpt lat="36.97373962402344" lon="-118.93936157226563">
<ele>2358</ele>
<time>2016-07-28T08:32:34Z</time>
</trkpt>
<trkpt lat="36.973751068115234" lon="-118.9393081665039">
<ele>2358</ele>
<time>2016-07-28T08:32:42Z</time>
</trkpt>
<trkpt lat="36.973777770996094" lon="-118.93919372558594">
<ele>2366</ele>
<time>2016-07-28T08:32:54Z</time>
</trkpt>
<trkpt lat="36.973793029785156" lon="-118.93914031982422">
<ele>2365</ele>
<time>2016-07-28T08:33:01Z</time>
</trkpt>
<trkpt lat="36.97373962402344" lon="-118.93904876708984">
<ele>2365</ele>
<time>2016-07-28T08:33:11Z</time>
</trkpt>
<trkpt lat="36.97377395629883" lon="-118.93900299072266">
<ele>2367</ele>
<time>2016-07-28T08:33:19Z</time>
</trkpt>
<trkpt lat="36.973819732666016" lon="-118.93898010253906">
<ele>2371</ele>
<time>2016-07-28T08:33:30Z</time>
</trkpt>
<trkpt lat="36.973812103271484" lon="-118.93891906738281">
<ele>2372</ele>
<time>2016-07-28T08:33:38Z</time>
</trkpt>
<trkpt lat="36.97380828857422" lon="-118.93885040283203">
<ele>2372</ele>
<time>2016-07-28T08:33:45Z</time>
</trkpt>
<trkpt lat="36.973793029785156" lon="-118.93879699707031">
<ele>2373</ele>
<time>2016-07-28T08:33:52Z</time>
</trkpt>
<trkpt lat="36.9737548828125" lon="-118.93875885009766">
<ele>2373</ele>
<time>2016-07-28T08:33:59Z</time>
</trkpt>
<trkpt lat="36.97374725341797" lon="-118.9386978149414">
<ele>2367</ele>
<time>2016-07-28T08:34:42Z</time>
</trkpt>
<trkpt lat="36.97371292114258" lon="-118.93858337402344">
<ele>2365</ele>
<time>2016-07-28T08:34:52Z</time>
</trkpt>
<trkpt lat="36.97367858886719" lon="-118.93846893310547">
<ele>2374</ele>
<time>2016-07-28T08:35:00Z</time>
</trkpt>
<trkpt lat="36.973663330078125" lon="-118.93834686279297">
<ele>2377</ele>
<time>2016-07-28T08:35:06Z</time>
</trkpt>
<trkpt lat="36.973697662353516" lon="-118.938232421875">
<ele>2382</ele>
<time>2016-07-28T08:35:14Z</time>
</trkpt>
<trkpt lat="36.97370147705078" lon="-118.93810272216797">
<ele>2380</ele>
<time>2016-07-28T08:35:20Z</time>
</trkpt>
<trkpt lat="36.97376251220703" lon="-118.93799591064453">
<ele>2377</ele>
<time>2016-07-28T08:35:27Z</time>
</trkpt>
<trkpt lat="36.97384262084961" lon="-118.93790435791016">
<ele>2376</ele>
<time>2016-07-28T08:35:36Z</time>
</trkpt>
<trkpt lat="36.9738655090332" lon="-118.93779754638672">
<ele>2377</ele>
<time>2016-07-28T08:35:44Z</time>
</trkpt>
<trkpt lat="36.97388458251953" lon="-118.93772888183594">
<ele>2378</ele>
<time>2016-07-28T08:35:50Z</time>
</trkpt>
<trkpt lat="36.97389602661133" lon="-118.93759155273438">
<ele>2372</ele>
<time>2016-07-28T08:35:56Z</time>
</trkpt>
<trkpt lat="36.9738883972168" lon="-118.93746948242188">
<ele>2371</ele>
<time>2016-07-28T08:36:03Z</time>
</trkpt>
<trkpt lat="36.97393798828125" lon="-118.93734741210938">
<ele>2373</ele>
<time>2016-07-28T08:36:10Z</time>
</trkpt>
<trkpt lat="36.97404479980469" lon="-118.93726348876953">
<ele>2371</ele>
<time>2016-07-28T08:36:17Z</time>
</trkpt>
<trkpt lat="36.974124908447266" lon="-118.9371566772461">
<ele>2372</ele>
<time>2016-07-28T08:36:24Z</time>
</trkpt>
<trkpt lat="36.97420883178711" lon="-118.93706512451172">
<ele>2368</ele>
<time>2016-07-28T08:36:30Z</time>
</trkpt>
<trkpt lat="36.974266052246094" lon="-118.93697357177734">
<ele>2365</ele>
<time>2016-07-28T08:36:36Z</time>
</trkpt>
<trkpt lat="36.97430419921875" lon="-118.93687438964844">
<ele>2370</ele>
<time>2016-07-28T08:36:47Z</time>
</trkpt>
<trkpt lat="36.97430419921875" lon="-118.93680572509766">
<ele>2367</ele>
<time>2016-07-28T08:36:58Z</time>
</trkpt>
<trkpt lat="36.97422409057617" lon="-118.93672180175781">
<ele>2373</ele>
<time>2016-07-28T08:37:07Z</time>
</trkpt>
<trkpt lat="36.974220275878906" lon="-118.93661499023438">
<ele>2368</ele>
<time>2016-07-28T08:37:17Z</time>
</trkpt>
<trkpt lat="36.97422790527344" lon="-118.9365463256836">
<ele>2371</ele>
<time>2016-07-28T08:37:23Z</time>
</trkpt>
<trkpt lat="36.97416305541992" lon="-118.93646240234375">
<ele>2372</ele>
<time>2016-07-28T08:37:31Z</time>
</trkpt>
<trkpt lat="36.974090576171875" lon="-118.93637084960938">
<ele>2375</ele>
<time>2016-07-28T08:37:38Z</time>
</trkpt>
<trkpt lat="36.97403335571289" lon="-118.93624877929688">
<ele>2372</ele>
<time>2016-07-28T08:37:45Z</time>
</trkpt>
<trkpt lat="36.9740104675293" lon="-118.93619537353516">
<ele>2371</ele>
<time>2016-07-28T08:37:52Z</time>
</trkpt>
<trkpt lat="36.97391891479492" lon="-118.93611907958984">
<ele>2370</ele>
<time>2016-07-28T08:37:58Z</time>
</trkpt>
<trkpt lat="36.973907470703125" lon="-118.93606567382813">
<ele>2371</ele>
<time>2016-07-28T08:38:04Z</time>
</trkpt>
<trkpt lat="36.97380065917969" lon="-118.93595886230469">
<ele>2382</ele>
<time>2016-07-28T08:38:11Z</time>
</trkpt>
<trkpt lat="36.97372817993164" lon="-118.93584442138672">
<ele>2380</ele>
<time>2016-07-28T08:38:17Z</time>
</trkpt>
<trkpt lat="36.97365188598633" lon="-118.93575286865234">
<ele>2377</ele>
<time>2016-07-28T08:38:23Z</time>
</trkpt>
<trkpt lat="36.97360610961914" lon="-118.9356460571289">
<ele>2377</ele>
<time>2016-07-28T08:38:38Z</time>
</trkpt>
<trkpt lat="36.97352600097656" lon="-118.93556213378906">
<ele>2381</ele>
<time>2016-07-28T08:38:44Z</time>
</trkpt>
<trkpt lat="36.973480224609375" lon="-118.93546295166016">
<ele>2384</ele>
<time>2016-07-28T08:38:51Z</time>
</trkpt>
<trkpt lat="36.97345733642578" lon="-118.93540954589844">
<ele>2383</ele>
<time>2016-07-28T08:38:57Z</time>
</trkpt>
<trkpt lat="36.97340774536133" lon="-118.935302734375">
<ele>2387</ele>
<time>2016-07-28T08:39:03Z</time>
</trkpt>
<trkpt lat="36.97333908081055" lon="-118.9352035522461">
<ele>2392</ele>
<time>2016-07-28T08:39:11Z</time>
</trkpt>
<trkpt lat="36.97323989868164" lon="-118.93514251708984">
<ele>2394</ele>
<time>2016-07-28T08:39:19Z</time>
</trkpt>
<trkpt lat="36.97321701049805" lon="-118.93508911132813">
<ele>2394</ele>
<time>2016-07-28T08:39:27Z</time>
</trkpt>
<trkpt lat="36.97318649291992" lon="-118.93496704101563">
<ele>2389</ele>
<time>2016-07-28T08:39:38Z</time>
</trkpt>
<trkpt lat="36.97312545776367" lon="-118.93486785888672">
<ele>2385</ele>
<time>2016-07-28T08:39:46Z</time>
</trkpt>
<trkpt lat="36.97306442260742" lon="-118.93478393554688">
<ele>2387</ele>
<time>2016-07-28T08:39:55Z</time>
</trkpt>
<trkpt lat="36.973026275634766" lon="-118.9346694946289">
<ele>2388</ele>
<time>2016-07-28T08:40:01Z</time>
</trkpt>
<trkpt lat="36.97296905517578" lon="-118.93455505371094">
<ele>2387</ele>
<time>2016-07-28T08:40:10Z</time>
</trkpt>
<trkpt lat="36.97294235229492" lon="-118.9344253540039">
<ele>2390</ele>
<time>2016-07-28T08:40:19Z</time>
</trkpt>
<trkpt lat="36.97294616699219" lon="-118.9343032836914">
<ele>2393</ele>
<time>2016-07-28T08:40:31Z</time>
</trkpt>
<trkpt lat="36.97294616699219" lon="-118.93418884277344">
<ele>2393</ele>
<time>2016-07-28T08:40:39Z</time>
</trkpt>
<trkpt lat="36.97294998168945" lon="-118.9340591430664">
<ele>2394</ele>
<time>2016-07-28T08:40:49Z</time>
</trkpt>
<trkpt lat="36.97294616699219" lon="-118.93392944335938">
<ele>2394</ele>
<time>2016-07-28T08:40:58Z</time>
</trkpt>
<trkpt lat="36.97296905517578" lon="-118.93380737304688">
<ele>2396</ele>
<time>2016-07-28T08:41:06Z</time>
</trkpt>
<trkpt lat="36.972957611083984" lon="-118.93365478515625">
<ele>2397</ele>
<time>2016-07-28T08:41:15Z</time>
</trkpt>
<trkpt lat="36.97296905517578" lon="-118.93352508544922">
<ele>2395</ele>
<time>2016-07-28T08:41:23Z</time>
</trkpt>
<trkpt lat="36.97300720214844" lon="-118.93341827392578">
<ele>2396</ele>
<time>2016-07-28T08:41:31Z</time>
</trkpt>
<trkpt lat="36.97303771972656" lon="-118.93327331542969">
<ele>2398</ele>
<time>2016-07-28T08:41:38Z</time>
</trkpt>
<trkpt lat="36.97308349609375" lon="-118.93316650390625">
<ele>2398</ele>
<time>2016-07-28T08:41:44Z</time>
</trkpt>
<trkpt lat="36.97310256958008" lon="-118.93310546875">
<ele>2397</ele>
<time>2016-07-28T08:41:50Z</time>
</trkpt>
<trkpt lat="36.973121643066406" lon="-118.93304443359375">
<ele>2399</ele>
<time>2016-07-28T08:41:56Z</time>
</trkpt>
<trkpt lat="36.97311782836914" lon="-118.93292236328125">
<ele>2398</ele>
<time>2016-07-28T08:42:04Z</time>
</trkpt>
<trkpt lat="36.973121643066406" lon="-118.93281555175781">
<ele>2398</ele>
<time>2016-07-28T08:42:11Z</time>
</trkpt>
<trkpt lat="36.9730339050293" lon="-118.93273162841797">
<ele>2401</ele>
<time>2016-07-28T08:42:19Z</time>
</trkpt>
<trkpt lat="36.972965240478516" lon="-118.9326400756836">
<ele>2400</ele>
<time>2016-07-28T08:42:27Z</time>
</trkpt>
<trkpt lat="36.97294616699219" lon="-118.9325180053711">
<ele>2399</ele>
<time>2016-07-28T08:42:34Z</time>
</trkpt>
<trkpt lat="36.97293472290039" lon="-118.93245697021484">
<ele>2396</ele>
<time>2016-07-28T08:42:41Z</time>
</trkpt>
<trkpt lat="36.97293472290039" lon="-118.93231964111328">
<ele>2406</ele>
<time>2016-07-28T08:42:48Z</time>
</trkpt>
<trkpt lat="36.972930908203125" lon="-118.93225860595703">
<ele>2407</ele>
<time>2016-07-28T08:42:54Z</time>
</trkpt>
<trkpt lat="36.97293472290039" lon="-118.93219757080078">
<ele>2403</ele>
<time>2016-07-28T08:43:00Z</time>
</trkpt>
<trkpt lat="36.972930908203125" lon="-118.93214416503906">
<ele>2405</ele>
<time>2016-07-28T08:43:06Z</time>
</trkpt>
<trkpt lat="36.972923278808594" lon="-118.93204498291016">
<ele>2403</ele>
<time>2016-07-28T08:43:16Z</time>
</trkpt>
<trkpt lat="36.972869873046875" lon="-118.93193817138672">
<ele>2400</ele>
<time>2016-07-28T08:43:25Z</time>
</trkpt>
<trkpt lat="36.97282028198242" lon="-118.93181610107422">
<ele>2400</ele>
<time>2016-07-28T08:43:33Z</time>
</trkpt>
<trkpt lat="36.972801208496094" lon="-118.93169403076172">
<ele>2403</ele>
<time>2016-07-28T08:43:40Z</time>
</trkpt>
<trkpt lat="36.972801208496094" lon="-118.93155670166016">
<ele>2407</ele>
<time>2016-07-28T08:43:55Z</time>
</trkpt>
<trkpt lat="36.97278594970703" lon="-118.93142700195313">
<ele>2406</ele>
<time>2016-07-28T08:44:03Z</time>
</trkpt>
<trkpt lat="36.972782135009766" lon="-118.93130493164063">
<ele>2406</ele>
<time>2016-07-28T08:44:11Z</time>
</trkpt>
<trkpt lat="36.972801208496094" lon="-118.93118286132813">
<ele>2411</ele>
<time>2016-07-28T08:44:21Z</time>
</trkpt>
<trkpt lat="36.9727897644043" lon="-118.93104553222656">
<ele>2411</ele>
<time>2016-07-28T08:44:32Z</time>
</trkpt>
<trkpt lat="36.97277069091797" lon="-118.93091583251953">
<ele>2411</ele>
<time>2016-07-28T08:44:38Z</time>
</trkpt>
<trkpt lat="36.972713470458984" lon="-118.93079376220703">
<ele>2412</ele>
<time>2016-07-28T08:44:46Z</time>
</trkpt>
<trkpt lat="36.97264099121094" lon="-118.93067169189453">
<ele>2416</ele>
<time>2016-07-28T08:44:53Z</time>
</trkpt>
<trkpt lat="36.972564697265625" lon="-118.93060302734375">
<ele>2415</ele>
<time>2016-07-28T08:45:00Z</time>
</trkpt>
<trkpt lat="36.97248458862305" lon="-118.93051147460938">
<ele>2408</ele>
<time>2016-07-28T08:45:07Z</time>
</trkpt>
<trkpt lat="36.972389221191406" lon="-118.93043518066406">
<ele>2406</ele>
<time>2016-07-28T08:45:15Z</time>
</trkpt>
<trkpt lat="36.97230529785156" lon="-118.93036651611328">
<ele>2408</ele>
<time>2016-07-28T08:45:21Z</time>
</trkpt>
<trkpt lat="36.97221755981445" lon="-118.93030548095703">
<ele>2412</ele>
<time>2016-07-28T08:45:28Z</time>
</trkpt>
<trkpt lat="36.972137451171875" lon="-118.93022918701172">
<ele>2409</ele>
<time>2016-07-28T08:45:34Z</time>
</trkpt>
<trkpt lat="36.97206115722656" lon="-118.93016052246094">
<ele>2407</ele>
<time>2016-07-28T08:45:40Z</time>
</trkpt>
<trkpt lat="36.97196960449219" lon="-118.93006896972656">
<ele>2409</ele>
<time>2016-07-28T08:45:48Z</time>
</trkpt>
<trkpt lat="36.97193908691406" lon="-118.92996215820313">
<ele>2409</ele>
<time>2016-07-28T08:46:11Z</time>
</trkpt>
<trkpt lat="36.97195816040039" lon="-118.9299087524414">
<ele>2412</ele>
<time>2016-07-28T08:46:33Z</time>
</trkpt>
<trkpt lat="36.97199630737305" lon="-118.92986297607422">
<ele>2412</ele>
<time>2016-07-28T08:46:40Z</time>
</trkpt>
<trkpt lat="36.97197723388672" lon="-118.92974090576172">
<ele>2409</ele>
<time>2016-07-28T08:46:48Z</time>
</trkpt>
<trkpt lat="36.971900939941406" lon="-118.92965698242188">
<ele>2401</ele>
<time>2016-07-28T08:46:56Z</time>
</trkpt>
<trkpt lat="36.97183609008789" lon="-118.92955017089844">
<ele>2403</ele>
<time>2016-07-28T08:47:03Z</time>
</trkpt>
<trkpt lat="36.971797943115234" lon="-118.9294204711914">
<ele>2400</ele>
<time>2016-07-28T08:47:11Z</time>
</trkpt>
<trkpt lat="36.971797943115234" lon="-118.92927551269531">
<ele>2398</ele>
<time>2016-07-28T08:47:19Z</time>
</trkpt>
<trkpt lat="36.97182083129883" lon="-118.92915344238281">
<ele>2401</ele>
<time>2016-07-28T08:47:25Z</time>
</trkpt>
<trkpt lat="36.97182083129883" lon="-118.92901611328125">
<ele>2402</ele>
<time>2016-07-28T08:47:32Z</time>
</trkpt>
<trkpt lat="36.97184753417969" lon="-118.92890167236328">
<ele>2400</ele>
<time>2016-07-28T08:47:38Z</time>
</trkpt>
<trkpt lat="36.97188186645508" lon="-118.92879486083984">
<ele>2400</ele>
<time>2016-07-28T08:47:44Z</time>
</trkpt>
<trkpt lat="36.9719123840332" lon="-118.92867279052734">
<ele>2398</ele>
<time>2016-07-28T08:47:52Z</time>
</trkpt>
<trkpt lat="36.971961975097656" lon="-118.92857360839844">
<ele>2398</ele>
<time>2016-07-28T08:48:00Z</time>
</trkpt>
<trkpt lat="36.97205352783203" lon="-118.92849731445313">
<ele>2400</ele>
<time>2016-07-28T08:48:06Z</time>
</trkpt>
<trkpt lat="36.972137451171875" lon="-118.92841339111328">
<ele>2404</ele>
<time>2016-07-28T08:48:16Z</time>
</trkpt>
<trkpt lat="36.97222137451172" lon="-118.92832946777344">
<ele>2408</ele>
<time>2016-07-28T08:48:23Z</time>
</trkpt>
<trkpt lat="36.97230529785156" lon="-118.92826080322266">
<ele>2411</ele>
<time>2016-07-28T08:48:31Z</time>
</trkpt>
<trkpt lat="36.97237014770508" lon="-118.92817687988281">
<ele>2409</ele>
<time>2016-07-28T08:48:41Z</time>
</trkpt>
<trkpt lat="36.972442626953125" lon="-118.92809295654297">
<ele>2405</ele>
<time>2016-07-28T08:48:48Z</time>
</trkpt>
<trkpt lat="36.97250747680664" lon="-118.9280014038086">
<ele>2407</ele>
<time>2016-07-28T08:48:55Z</time>
</trkpt>
<trkpt lat="36.97256851196289" lon="-118.92788696289063">
<ele>2407</ele>
<time>2016-07-28T08:49:04Z</time>
</trkpt>
<trkpt lat="36.97261428833008" lon="-118.92778015136719">
<ele>2406</ele>
<time>2016-07-28T08:49:11Z</time>
</trkpt>
<trkpt lat="36.97267532348633" lon="-118.92766571044922">
<ele>2408</ele>
<time>2016-07-28T08:49:19Z</time>
</trkpt>
<trkpt lat="36.972740173339844" lon="-118.92757415771484">
<ele>2407</ele>
<time>2016-07-28T08:49:25Z</time>
</trkpt>
<trkpt lat="36.972801208496094" lon="-118.92747497558594">
<ele>2406</ele>
<time>2016-07-28T08:49:33Z</time>
</trkpt>
<trkpt lat="36.97285461425781" lon="-118.92736053466797">
<ele>2406</ele>
<time>2016-07-28T08:49:43Z</time>
</trkpt>
<trkpt lat="36.972896575927734" lon="-118.92732238769531">
<ele>2410</ele>
<time>2016-07-28T08:49:49Z</time>
</trkpt>
<trkpt lat="36.97297286987305" lon="-118.9272232055664">
<ele>2412</ele>
<time>2016-07-28T08:49:57Z</time>
</trkpt>
<trkpt lat="36.97301483154297" lon="-118.9271240234375">
<ele>2414</ele>
<time>2016-07-28T08:50:03Z</time>
</trkpt>
<trkpt lat="36.973079681396484" lon="-118.92703247070313">
<ele>2415</ele>
<time>2016-07-28T08:50:11Z</time>
</trkpt>
<trkpt lat="36.97317886352539" lon="-118.92697143554688">
<ele>2415</ele>
<time>2016-07-28T08:50:18Z</time>
</trkpt>
<trkpt lat="36.973262786865234" lon="-118.9268798828125">
<ele>2415</ele>
<time>2016-07-28T08:50:26Z</time>
</trkpt>
<trkpt lat="36.973304748535156" lon="-118.92684936523438">
<ele>2418</ele>
<time>2016-07-28T08:50:32Z</time>
</trkpt>
<trkpt lat="36.97338104248047" lon="-118.92676544189453">
<ele>2420</ele>
<time>2016-07-28T08:50:41Z</time>
</trkpt>
<trkpt lat="36.97346496582031" lon="-118.92667388916016">
<ele>2422</ele>
<time>2016-07-28T08:50:47Z</time>
</trkpt>
<trkpt lat="36.97357940673828" lon="-118.9266357421875">
<ele>2423</ele>
<time>2016-07-28T08:50:54Z</time>
</trkpt>
<trkpt lat="36.97365951538086" lon="-118.92657470703125">
<ele>2421</ele>
<time>2016-07-28T08:51:01Z</time>
</trkpt>
<trkpt lat="36.97373580932617" lon="-118.92649841308594">
<ele>2420</ele>
<time>2016-07-28T08:51:08Z</time>
</trkpt>
<trkpt lat="36.97380828857422" lon="-118.92642211914063">
<ele>2420</ele>
<time>2016-07-28T08:51:14Z</time>
</trkpt>
<trkpt lat="36.9738655090332" lon="-118.92631530761719">
<ele>2425</ele>
<time>2016-07-28T08:51:20Z</time>
</trkpt>
<trkpt lat="36.97390365600586" lon="-118.92618560791016">
<ele>2424</ele>
<time>2016-07-28T08:51:28Z</time>
</trkpt>
<trkpt lat="36.973934173583984" lon="-118.92607116699219">
<ele>2418</ele>
<time>2016-07-28T08:51:35Z</time>
</trkpt>
<trkpt lat="36.9739875793457" lon="-118.92597198486328">
<ele>2419</ele>
<time>2016-07-28T08:51:43Z</time>
</trkpt>
<trkpt lat="36.97402572631836" lon="-118.9259262084961">
<ele>2419</ele>
<time>2016-07-28T08:51:49Z</time>
</trkpt>
<trkpt lat="36.97404861450195" lon="-118.9258041381836">
<ele>2422</ele>
<time>2016-07-28T08:51:58Z</time>
</trkpt>
<trkpt lat="36.97411346435547" lon="-118.92570495605469">
<ele>2422</ele>
<time>2016-07-28T08:52:08Z</time>
</trkpt>
<trkpt lat="36.97414016723633" lon="-118.92560577392578">
<ele>2421</ele>
<time>2016-07-28T08:52:15Z</time>
</trkpt>
<trkpt lat="36.97417068481445" lon="-118.92548370361328">
<ele>2422</ele>
<time>2016-07-28T08:52:24Z</time>
</trkpt>
<trkpt lat="36.9742431640625" lon="-118.92539978027344">
<ele>2425</ele>
<time>2016-07-28T08:52:31Z</time>
</trkpt>
<trkpt lat="36.97431945800781" lon="-118.92529296875">
<ele>2427</ele>
<time>2016-07-28T08:52:37Z</time>
</trkpt>
<trkpt lat="36.97438049316406" lon="-118.92517852783203">
<ele>2427</ele>
<time>2016-07-28T08:52:44Z</time>
</trkpt>
<trkpt lat="36.97444534301758" lon="-118.92507934570313">
<ele>2427</ele>
<time>2016-07-28T08:52:51Z</time>
</trkpt>
<trkpt lat="36.97450256347656" lon="-118.92497253417969">
<ele>2428</ele>
<time>2016-07-28T08:53:00Z</time>
</trkpt>
<trkpt lat="36.97457504272461" lon="-118.92486572265625">
<ele>2428</ele>
<time>2016-07-28T08:53:09Z</time>
</trkpt>
<trkpt lat="36.97461700439453" lon="-118.92479705810547">
<ele>2429</ele>
<time>2016-07-28T08:53:15Z</time>
</trkpt>
<trkpt lat="36.97462463378906" lon="-118.92467498779297">
<ele>2427</ele>
<time>2016-07-28T08:53:23Z</time>
</trkpt>
<trkpt lat="36.97468185424805" lon="-118.92455291748047">
<ele>2426</ele>
<time>2016-07-28T08:53:31Z</time>
</trkpt>
<trkpt lat="36.97473907470703" lon="-118.9244384765625">
<ele>2430</ele>
<time>2016-07-28T08:53:38Z</time>
</trkpt>
<trkpt lat="36.97477340698242" lon="-118.92431640625">
<ele>2433</ele>
<time>2016-07-28T08:53:47Z</time>
</trkpt>
<trkpt lat="36.97483825683594" lon="-118.92420959472656">
<ele>2437</ele>
<time>2016-07-28T08:53:57Z</time>
</trkpt>
<trkpt lat="36.97489929199219" lon="-118.92411804199219">
<ele>2438</ele>
<time>2016-07-28T08:54:05Z</time>
</trkpt>
<trkpt lat="36.974918365478516" lon="-118.92404174804688">
<ele>2435</ele>
<time>2016-07-28T08:54:11Z</time>
</trkpt>
<trkpt lat="36.97494888305664" lon="-118.9239273071289">
<ele>2433</ele>
<time>2016-07-28T08:54:17Z</time>
</trkpt>
<trkpt lat="36.97499465942383" lon="-118.9238052368164">
<ele>2434</ele>
<time>2016-07-28T08:54:24Z</time>
</trkpt>
<trkpt lat="36.97502899169922" lon="-118.92369079589844">
<ele>2436</ele>
<time>2016-07-28T08:54:32Z</time>
</trkpt>
<trkpt lat="36.975093841552734" lon="-118.92359161376953">
<ele>2434</ele>
<time>2016-07-28T08:54:40Z</time>
</trkpt>
<trkpt lat="36.97519302368164" lon="-118.92353820800781">
<ele>2440</ele>
<time>2016-07-28T08:54:49Z</time>
</trkpt>
<trkpt lat="36.97528839111328" lon="-118.92350769042969">
<ele>2443</ele>
<time>2016-07-28T08:55:00Z</time>
</trkpt>
<trkpt lat="36.97538757324219" lon="-118.92347717285156">
<ele>2444</ele>
<time>2016-07-28T08:55:11Z</time>
</trkpt>
<trkpt lat="36.97542953491211" lon="-118.92345428466797">
<ele>2445</ele>
<time>2016-07-28T08:55:17Z</time>
</trkpt>
<trkpt lat="36.975521087646484" lon="-118.92340850830078">
<ele>2446</ele>
<time>2016-07-28T08:55:29Z</time>
</trkpt>
<trkpt lat="36.97563171386719" lon="-118.92340850830078">
<ele>2449</ele>
<time>2016-07-28T08:55:38Z</time>
</trkpt>
<trkpt lat="36.97572708129883" lon="-118.92339324951172">
<ele>2448</ele>
<time>2016-07-28T08:55:45Z</time>
</trkpt>
<trkpt lat="36.97581100463867" lon="-118.92333984375">
<ele>2449</ele>
<time>2016-07-28T08:55:54Z</time>
</trkpt>
<trkpt lat="36.97584915161133" lon="-118.92329406738281">
<ele>2448</ele>
<time>2016-07-28T08:56:02Z</time>
</trkpt>
<trkpt lat="36.97587585449219" lon="-118.9232406616211">
<ele>2450</ele>
<time>2016-07-28T08:56:09Z</time>
</trkpt>
<trkpt lat="36.97597122192383" lon="-118.92314147949219">
<ele>2452</ele>
<time>2016-07-28T08:56:19Z</time>
</trkpt>
<trkpt lat="36.975975036621094" lon="-118.92308044433594">
<ele>2451</ele>
<time>2016-07-28T08:56:26Z</time>
</trkpt>
<trkpt lat="36.97606658935547" lon="-118.92304992675781">
<ele>2457</ele>
<time>2016-07-28T08:56:42Z</time>
</trkpt>
<trkpt lat="36.97611618041992" lon="-118.92305755615234">
<ele>2459</ele>
<time>2016-07-28T08:56:53Z</time>
</trkpt>
<trkpt lat="36.976158142089844" lon="-118.92302703857422">
<ele>2460</ele>
<time>2016-07-28T08:56:59Z</time>
</trkpt>
<trkpt lat="36.97618103027344" lon="-118.9229736328125">
<ele>2459</ele>
<time>2016-07-28T08:57:05Z</time>
</trkpt>
<trkpt lat="36.97621154785156" lon="-118.92291259765625">
<ele>2461</ele>
<time>2016-07-28T08:57:11Z</time>
</trkpt>
<trkpt lat="36.97624969482422" lon="-118.9228744506836">
<ele>2465</ele>
<time>2016-07-28T08:57:26Z</time>
</trkpt>
<trkpt lat="36.976322174072266" lon="-118.92278289794922">
<ele>2464</ele>
<time>2016-07-28T08:57:36Z</time>
</trkpt>
<trkpt lat="36.976356506347656" lon="-118.92267608642578">
<ele>2463</ele>
<time>2016-07-28T08:57:47Z</time>
</trkpt>
<trkpt lat="36.97636413574219" lon="-118.92254638671875">
<ele>2466</ele>
<time>2016-07-28T08:57:57Z</time>
</trkpt>
<trkpt lat="36.976409912109375" lon="-118.92244720458984">
<ele>2468</ele>
<time>2016-07-28T08:58:08Z</time>
</trkpt>
<trkpt lat="36.9764404296875" lon="-118.92236328125">
<ele>2470</ele>
<time>2016-07-28T08:58:16Z</time>
</trkpt>
<trkpt lat="36.97649383544922" lon="-118.9222640991211">
<ele>2470</ele>
<time>2016-07-28T08:58:27Z</time>
</trkpt>
<trkpt lat="36.976524353027344" lon="-118.9222183227539">
<ele>2475</ele>
<time>2016-07-28T08:58:43Z</time>
</trkpt>
<trkpt lat="36.976593017578125" lon="-118.922119140625">
<ele>2476</ele>
<time>2016-07-28T08:58:51Z</time>
</trkpt>
<trkpt lat="36.97666931152344" lon="-118.92204284667969">
<ele>2478</ele>
<time>2016-07-28T08:58:59Z</time>
</trkpt>
<trkpt lat="36.97671890258789" lon="-118.92195129394531">
<ele>2477</ele>
<time>2016-07-28T08:59:08Z</time>
</trkpt>
<trkpt lat="36.9767951965332" lon="-118.92192840576172">
<ele>2477</ele>
<time>2016-07-28T08:59:16Z</time>
</trkpt>
<trkpt lat="36.97688293457031" lon="-118.92186737060547">
<ele>2480</ele>
<time>2016-07-28T08:59:27Z</time>
</trkpt>
<trkpt lat="36.97690963745117" lon="-118.92182159423828">
<ele>2482</ele>
<time>2016-07-28T08:59:33Z</time>
</trkpt>
<trkpt lat="36.976985931396484" lon="-118.92174530029297">
<ele>2481</ele>
<time>2016-07-28T08:59:41Z</time>
</trkpt>
<trkpt lat="36.977054595947266" lon="-118.92166137695313">
<ele>2480</ele>
<time>2016-07-28T08:59:48Z</time>
</trkpt>
<trkpt lat="36.97709655761719" lon="-118.92154693603516">
<ele>2478</ele>
<time>2016-07-28T08:59:59Z</time>
</trkpt>
<trkpt lat="36.9771842956543" lon="-118.9214859008789">
<ele>2480</ele>
<time>2016-07-28T09:00:09Z</time>
</trkpt>
<trkpt lat="36.977237701416016" lon="-118.9214096069336">
<ele>2480</ele>
<time>2016-07-28T09:00:15Z</time>
</trkpt>
<trkpt lat="36.977294921875" lon="-118.92131042480469">
<ele>2480</ele>
<time>2016-07-28T09:00:24Z</time>
</trkpt>
<trkpt lat="36.97737121582031" lon="-118.92123413085938">
<ele>2482</ele>
<time>2016-07-28T09:00:35Z</time>
</trkpt>
<trkpt lat="36.977413177490234" lon="-118.92120361328125">
<ele>2485</ele>
<time>2016-07-28T09:00:41Z</time>
</trkpt>
<trkpt lat="36.97750473022461" lon="-118.9211654663086">
<ele>2484</ele>
<time>2016-07-28T09:00:51Z</time>
</trkpt>
<trkpt lat="36.97755813598633" lon="-118.92113494873047">
<ele>2484</ele>
<time>2016-07-28T09:00:57Z</time>
</trkpt>
<trkpt lat="36.977596282958984" lon="-118.92109680175781">
<ele>2486</ele>
<time>2016-07-28T09:01:03Z</time>
</trkpt>
<trkpt lat="36.9776496887207" lon="-118.92101287841797">
<ele>2483</ele>
<time>2016-07-28T09:01:11Z</time>
</trkpt>
<trkpt lat="36.977630615234375" lon="-118.92088317871094">
<ele>2483</ele>
<time>2016-07-28T09:01:19Z</time>
</trkpt>
<trkpt lat="36.977699279785156" lon="-118.92080688476563">
<ele>2487</ele>
<time>2016-07-28T09:01:29Z</time>
</trkpt>
<trkpt lat="36.97774887084961" lon="-118.9207992553711">
<ele>2489</ele>
<time>2016-07-28T09:01:35Z</time>
</trkpt>
<trkpt lat="36.97779846191406" lon="-118.9207992553711">
<ele>2489</ele>
<time>2016-07-28T09:01:41Z</time>
</trkpt>
<trkpt lat="36.977821350097656" lon="-118.9207534790039">
<ele>2487</ele>
<time>2016-07-28T09:01:48Z</time>
</trkpt>
<trkpt lat="36.97787094116211" lon="-118.92074584960938">
<ele>2492</ele>
<time>2016-07-28T09:01:57Z</time>
</trkpt>
<trkpt lat="36.97795104980469" lon="-118.9206771850586">
<ele>2492</ele>
<time>2016-07-28T09:02:06Z</time>
</trkpt>
<trkpt lat="36.97807693481445" lon="-118.920654296875">
<ele>2494</ele>
<time>2016-07-28T09:02:16Z</time>
</trkpt>
<trkpt lat="36.97817611694336" lon="-118.920654296875">
<ele>2493</ele>
<time>2016-07-28T09:02:24Z</time>
</trkpt>
<trkpt lat="36.97822570800781" lon="-118.92063903808594">
<ele>2494</ele>
<time>2016-07-28T09:02:30Z</time>
</trkpt>
<trkpt lat="36.97831344604492" lon="-118.92057800292969">
<ele>2491</ele>
<time>2016-07-28T09:02:38Z</time>
</trkpt>
<trkpt lat="36.9784049987793" lon="-118.9205093383789">
<ele>2494</ele>
<time>2016-07-28T09:02:47Z</time>
</trkpt>
<trkpt lat="36.9785041809082" lon="-118.92052459716797">
<ele>2495</ele>
<time>2016-07-28T09:02:53Z</time>
</trkpt>
<trkpt lat="36.978614807128906" lon="-118.92058563232422">
<ele>2495</ele>
<time>2016-07-28T09:02:59Z</time>
</trkpt>
<trkpt lat="36.978660583496094" lon="-118.92056274414063">
<ele>2500</ele>
<time>2016-07-28T09:03:07Z</time>
</trkpt>
<trkpt lat="36.97872543334961" lon="-118.92054748535156">
<ele>2502</ele>
<time>2016-07-28T09:03:22Z</time>
</trkpt>
<trkpt lat="36.97876739501953" lon="-118.9205322265625">
<ele>2503</ele>
<time>2016-07-28T09:03:29Z</time>
</trkpt>
<trkpt lat="36.97887420654297" lon="-118.92050170898438">
<ele>2504</ele>
<time>2016-07-28T09:03:37Z</time>
</trkpt>
<trkpt lat="36.97895812988281" lon="-118.92041778564453">
<ele>2502</ele>
<time>2016-07-28T09:03:44Z</time>
</trkpt>
<trkpt lat="36.97909927368164" lon="-118.9203109741211">
<ele>2502</ele>
<time>2016-07-28T09:03:52Z</time>
</trkpt>
<trkpt lat="36.97919464111328" lon="-118.92027282714844">
<ele>2504</ele>
<time>2016-07-28T09:03:58Z</time>
</trkpt>
<trkpt lat="36.97929382324219" lon="-118.92021179199219">
<ele>2509</ele>
<time>2016-07-28T09:04:04Z</time>
</trkpt>
<trkpt lat="36.979393005371094" lon="-118.92015075683594">
<ele>2508</ele>
<time>2016-07-28T09:04:10Z</time>
</trkpt>
<trkpt lat="36.97951889038086" lon="-118.92012023925781">
<ele>2509</ele>
<time>2016-07-28T09:04:20Z</time>
</trkpt>
<trkpt lat="36.9796257019043" lon="-118.92009735107422">
<ele>2513</ele>
<time>2016-07-28T09:04:28Z</time>
</trkpt>
<trkpt lat="36.979671478271484" lon="-118.92012023925781">
<ele>2518</ele>
<time>2016-07-28T09:04:35Z</time>
</trkpt>
<trkpt lat="36.97977066040039" lon="-118.92012023925781">
<ele>2517</ele>
<time>2016-07-28T09:04:41Z</time>
</trkpt>
<trkpt lat="36.97986602783203" lon="-118.92011260986328">
<ele>2516</ele>
<time>2016-07-28T09:04:50Z</time>
</trkpt>
<trkpt lat="36.97995376586914" lon="-118.92008209228516">
<ele>2514</ele>
<time>2016-07-28T09:04:58Z</time>
</trkpt>
<trkpt lat="36.980045318603516" lon="-118.92000579833984">
<ele>2513</ele>
<time>2016-07-28T09:05:07Z</time>
</trkpt>
<trkpt lat="36.98014831542969" lon="-118.91992950439453">
<ele>2513</ele>
<time>2016-07-28T09:05:14Z</time>
</trkpt>
<trkpt lat="36.980255126953125" lon="-118.91993713378906">
<ele>2515</ele>
<time>2016-07-28T09:05:25Z</time>
</trkpt>
<trkpt lat="36.98030471801758" lon="-118.91990661621094">
<ele>2512</ele>
<time>2016-07-28T09:05:32Z</time>
</trkpt>
<trkpt lat="36.98039245605469" lon="-118.91988372802734">
<ele>2514</ele>
<time>2016-07-28T09:05:40Z</time>
</trkpt>
<trkpt lat="36.98050308227539" lon="-118.91981506347656">
<ele>2514</ele>
<time>2016-07-28T09:05:47Z</time>
</trkpt>
<trkpt lat="36.98051834106445" lon="-118.91976165771484">
<ele>2516</ele>
<time>2016-07-28T09:05:53Z</time>
</trkpt>
<trkpt lat="36.98054122924805" lon="-118.91969299316406">
<ele>2515</ele>
<time>2016-07-28T09:06:00Z</time>
</trkpt>
<trkpt lat="36.980682373046875" lon="-118.91957092285156">
<ele>2515</ele>
<time>2016-07-28T09:06:10Z</time>
</trkpt>
<trkpt lat="36.980735778808594" lon="-118.91958618164063">
<ele>2514</ele>
<time>2016-07-28T09:06:20Z</time>
</trkpt>
<trkpt lat="36.9808235168457" lon="-118.91951751708984">
<ele>2516</ele>
<time>2016-07-28T09:06:29Z</time>
</trkpt>
<trkpt lat="36.980899810791016" lon="-118.91944122314453">
<ele>2513</ele>
<time>2016-07-28T09:06:36Z</time>
</trkpt>
<trkpt lat="36.98098373413086" lon="-118.91937255859375">
<ele>2513</ele>
<time>2016-07-28T09:06:43Z</time>
</trkpt>
<trkpt lat="36.98104476928711" lon="-118.9192886352539">
<ele>2516</ele>
<time>2016-07-28T09:06:50Z</time>
</trkpt>
<trkpt lat="36.981040954589844" lon="-118.91915893554688">
<ele>2517</ele>
<time>2016-07-28T09:06:57Z</time>
</trkpt>
<trkpt lat="36.98112106323242" lon="-118.9190673828125">
<ele>2519</ele>
<time>2016-07-28T09:07:05Z</time>
</trkpt>
<trkpt lat="36.98114776611328" lon="-118.91896057128906">
<ele>2519</ele>
<time>2016-07-28T09:07:11Z</time>
</trkpt>
<trkpt lat="36.981201171875" lon="-118.91886138916016">
<ele>2518</ele>
<time>2016-07-28T09:07:18Z</time>
</trkpt>
<trkpt lat="36.98127746582031" lon="-118.91877746582031">
<ele>2519</ele>
<time>2016-07-28T09:07:27Z</time>
</trkpt>
<trkpt lat="36.98134994506836" lon="-118.918701171875">
<ele>2519</ele>
<time>2016-07-28T09:07:37Z</time>
</trkpt>
<trkpt lat="36.98141860961914" lon="-118.91861724853516">
<ele>2521</ele>
<time>2016-07-28T09:07:43Z</time>
</trkpt>
<trkpt lat="36.98146438598633" lon="-118.91848754882813">
<ele>2525</ele>
<time>2016-07-28T09:07:51Z</time>
</trkpt>
<trkpt lat="36.981536865234375" lon="-118.91838836669922">
<ele>2525</ele>
<time>2016-07-28T09:08:00Z</time>
</trkpt>
<trkpt lat="36.9815788269043" lon="-118.91828155517578">
<ele>2526</ele>
<time>2016-07-28T09:08:09Z</time>
</trkpt>
<trkpt lat="36.981590270996094" lon="-118.9181900024414">
<ele>2526</ele>
<time>2016-07-28T09:08:15Z</time>
</trkpt>
<trkpt lat="36.98163986206055" lon="-118.9180908203125">
<ele>2526</ele>
<time>2016-07-28T09:08:21Z</time>
</trkpt>
<trkpt lat="36.98171615600586" lon="-118.91803741455078">
<ele>2523</ele>
<time>2016-07-28T09:08:35Z</time>
</trkpt>
<trkpt lat="36.98182678222656" lon="-118.91807556152344">
<ele>2524</ele>
<time>2016-07-28T09:08:46Z</time>
</trkpt>
<trkpt lat="36.981876373291016" lon="-118.91806030273438">
<ele>2523</ele>
<time>2016-07-28T09:08:52Z</time>
</trkpt>
<trkpt lat="36.981971740722656" lon="-118.91803741455078">
<ele>2521</ele>
<time>2016-07-28T09:09:01Z</time>
</trkpt>
<trkpt lat="36.98207473754883" lon="-118.91797637939453">
<ele>2524</ele>
<time>2016-07-28T09:09:10Z</time>
</trkpt>
<trkpt lat="36.982173919677734" lon="-118.91790771484375">
<ele>2525</ele>
<time>2016-07-28T09:09:19Z</time>
</trkpt>
<trkpt lat="36.98222732543945" lon="-118.91780090332031">
<ele>2524</ele>
<time>2016-07-28T09:09:28Z</time>
</trkpt>
<trkpt lat="36.98228454589844" lon="-118.9177017211914">
<ele>2525</ele>
<time>2016-07-28T09:09:36Z</time>
</trkpt>
<trkpt lat="36.982383728027344" lon="-118.91763305664063">
<ele>2527</ele>
<time>2016-07-28T09:09:48Z</time>
</trkpt>
<trkpt lat="36.982425689697266" lon="-118.91753387451172">
<ele>2524</ele>
<time>2016-07-28T09:09:56Z</time>
</trkpt>
<trkpt lat="36.98249435424805" lon="-118.91742706298828">
<ele>2526</ele>
<time>2016-07-28T09:10:04Z</time>
</trkpt>
<trkpt lat="36.982574462890625" lon="-118.91736602783203">
<ele>2525</ele>
<time>2016-07-28T09:10:11Z</time>
</trkpt>
<trkpt lat="36.98261260986328" lon="-118.91732788085938">
<ele>2523</ele>
<time>2016-07-28T09:10:17Z</time>
</trkpt>
<trkpt lat="36.98268127441406" lon="-118.91724395751953">
<ele>2527</ele>
<time>2016-07-28T09:10:26Z</time>
</trkpt>
<trkpt lat="36.982757568359375" lon="-118.91716003417969">
<ele>2525</ele>
<time>2016-07-28T09:10:36Z</time>
</trkpt>
<trkpt lat="36.982826232910156" lon="-118.91707611083984">
<ele>2527</ele>
<time>2016-07-28T09:10:44Z</time>
</trkpt>
<trkpt lat="36.982879638671875" lon="-118.9169692993164">
<ele>2529</ele>
<time>2016-07-28T09:10:52Z</time>
</trkpt>
<trkpt lat="36.98294448852539" lon="-118.9168701171875">
<ele>2537</ele>
<time>2016-07-28T09:11:03Z</time>
</trkpt>
<trkpt lat="36.98295593261719" lon="-118.91680908203125">
<ele>2534</ele>
<time>2016-07-28T09:11:11Z</time>
</trkpt>
<trkpt lat="36.98299026489258" lon="-118.91669464111328">
<ele>2535</ele>
<time>2016-07-28T09:11:18Z</time>
</trkpt>
<trkpt lat="36.9830436706543" lon="-118.91658020019531">
<ele>2541</ele>
<time>2016-07-28T09:11:24Z</time>
</trkpt>
<trkpt lat="36.98307418823242" lon="-118.91647338867188">
<ele>2540</ele>
<time>2016-07-28T09:11:31Z</time>
</trkpt>
<trkpt lat="36.98310089111328" lon="-118.91641998291016">
<ele>2538</ele>
<time>2016-07-28T09:11:37Z</time>
</trkpt>
<trkpt lat="36.98311233520508" lon="-118.91629791259766">
<ele>2540</ele>
<time>2016-07-28T09:11:45Z</time>
</trkpt>
<trkpt lat="36.98313522338867" lon="-118.91616821289063">
<ele>2539</ele>
<time>2016-07-28T09:11:52Z</time>
</trkpt>
<trkpt lat="36.98316955566406" lon="-118.91603088378906">
<ele>2538</ele>
<time>2016-07-28T09:11:59Z</time>
</trkpt>
<trkpt lat="36.98321533203125" lon="-118.9159164428711">
<ele>2539</ele>
<time>2016-07-28T09:12:08Z</time>
</trkpt>
<trkpt lat="36.9832649230957" lon="-118.91581726074219">
<ele>2537</ele>
<time>2016-07-28T09:12:15Z</time>
</trkpt>
<trkpt lat="36.98331832885742" lon="-118.91569519042969">
<ele>2536</ele>
<time>2016-07-28T09:12:24Z</time>
</trkpt>
<trkpt lat="36.98340606689453" lon="-118.9156265258789">
<ele>2534</ele>
<time>2016-07-28T09:12:31Z</time>
</trkpt>
<trkpt lat="36.98345947265625" lon="-118.91551971435547">
<ele>2537</ele>
<time>2016-07-28T09:12:40Z</time>
</trkpt>
<trkpt lat="36.98347091674805" lon="-118.91545867919922">
<ele>2538</ele>
<time>2016-07-28T09:12:49Z</time>
</trkpt>
<trkpt lat="36.98352813720703" lon="-118.91533660888672">
<ele>2536</ele>
<time>2016-07-28T09:12:59Z</time>
</trkpt>
<trkpt lat="36.98358917236328" lon="-118.91523742675781">
<ele>2540</ele>
<time>2016-07-28T09:13:07Z</time>
</trkpt>
<trkpt lat="36.98365783691406" lon="-118.9151611328125">
<ele>2541</ele>
<time>2016-07-28T09:13:14Z</time>
</trkpt>
<trkpt lat="36.983741760253906" lon="-118.91508483886719">
<ele>2540</ele>
<time>2016-07-28T09:13:23Z</time>
</trkpt>
<trkpt lat="36.983787536621094" lon="-118.9150619506836">
<ele>2542</ele>
<time>2016-07-28T09:13:29Z</time>
</trkpt>
<trkpt lat="36.983863830566406" lon="-118.91497802734375">
<ele>2543</ele>
<time>2016-07-28T09:13:37Z</time>
</trkpt>
<trkpt lat="36.98393630981445" lon="-118.9148941040039">
<ele>2542</ele>
<time>2016-07-28T09:13:44Z</time>
</trkpt>
<trkpt lat="36.98397445678711" lon="-118.9147720336914">
<ele>2538</ele>
<time>2016-07-28T09:13:53Z</time>
</trkpt>
<trkpt lat="36.98403549194336" lon="-118.91466522216797">
<ele>2538</ele>
<time>2016-07-28T09:14:02Z</time>
</trkpt>
<trkpt lat="36.98408126831055" lon="-118.91464233398438">
<ele>2539</ele>
<time>2016-07-28T09:14:11Z</time>
</trkpt>
<trkpt lat="36.984127044677734" lon="-118.91463470458984">
<ele>2540</ele>
<time>2016-07-28T09:14:17Z</time>
</trkpt>
<trkpt lat="36.984214782714844" lon="-118.91455078125">
<ele>2546</ele>
<time>2016-07-28T09:14:25Z</time>
</trkpt>
<trkpt lat="36.984291076660156" lon="-118.91447448730469">
<ele>2549</ele>
<time>2016-07-28T09:14:34Z</time>
</trkpt>
<trkpt lat="36.984310150146484" lon="-118.91441345214844">
<ele>2547</ele>
<time>2016-07-28T09:14:41Z</time>
</trkpt>
<trkpt lat="36.9843635559082" lon="-118.91429138183594">
<ele>2547</ele>
<time>2016-07-28T09:14:48Z</time>
</trkpt>
<trkpt lat="36.98442840576172" lon="-118.91419982910156">
<ele>2550</ele>
<time>2016-07-28T09:14:56Z</time>
</trkpt>
<trkpt lat="36.98448944091797" lon="-118.91410827636719">
<ele>2550</ele>
<time>2016-07-28T09:15:04Z</time>
</trkpt>
<trkpt lat="36.984519958496094" lon="-118.91405487060547">
<ele>2551</ele>
<time>2016-07-28T09:15:10Z</time>
</trkpt>
<trkpt lat="36.98455810546875" lon="-118.91400146484375">
<ele>2553</ele>
<time>2016-07-28T09:15:16Z</time>
</trkpt>
<trkpt lat="36.984619140625" lon="-118.91389465332031">
<ele>2555</ele>
<time>2016-07-28T09:15:25Z</time>
</trkpt>
<trkpt lat="36.98465347290039" lon="-118.91377258300781">
<ele>2553</ele>
<time>2016-07-28T09:15:35Z</time>
</trkpt>
<trkpt lat="36.98468780517578" lon="-118.91365051269531">
<ele>2553</ele>
<time>2016-07-28T09:15:44Z</time>
</trkpt>
<trkpt lat="36.984710693359375" lon="-118.91353607177734">
<ele>2558</ele>
<time>2016-07-28T09:15:52Z</time>
</trkpt>
<trkpt lat="36.98474884033203" lon="-118.91342163085938">
<ele>2556</ele>
<time>2016-07-28T09:16:02Z</time>
</trkpt>
<trkpt lat="36.98482894897461" lon="-118.9133529663086">
<ele>2560</ele>
<time>2016-07-28T09:16:11Z</time>
</trkpt>
<trkpt lat="36.984893798828125" lon="-118.91326141357422">
<ele>2558</ele>
<time>2016-07-28T09:16:27Z</time>
</trkpt>
<trkpt lat="36.98491287231445" lon="-118.91320037841797">
<ele>2560</ele>
<time>2016-07-28T09:16:33Z</time>
</trkpt>
<trkpt lat="36.98493957519531" lon="-118.9130859375">
<ele>2560</ele>
<time>2016-07-28T09:16:42Z</time>
</trkpt>
<trkpt lat="36.984947204589844" lon="-118.9129638671875">
<ele>2558</ele>
<time>2016-07-28T09:16:51Z</time>
</trkpt>
<trkpt lat="36.98495864868164" lon="-118.91290283203125">
<ele>2561</ele>
<time>2016-07-28T09:16:57Z</time>
</trkpt>
<trkpt lat="36.984989166259766" lon="-118.91278839111328">
<ele>2562</ele>
<time>2016-07-28T09:17:05Z</time>
</trkpt>
<trkpt lat="36.985023498535156" lon="-118.91275024414063">
<ele>2562</ele>
<time>2016-07-28T09:17:11Z</time>
</trkpt>
<trkpt lat="36.9850959777832" lon="-118.91268157958984">
<ele>2562</ele>
<time>2016-07-28T09:17:23Z</time>
</trkpt>
<trkpt lat="36.98514175415039" lon="-118.91267395019531">
<ele>2563</ele>
<time>2016-07-28T09:17:32Z</time>
</trkpt>
<trkpt lat="36.98521423339844" lon="-118.91259002685547">
<ele>2567</ele>
<time>2016-07-28T09:17:40Z</time>
</trkpt>
<trkpt lat="36.98531723022461" lon="-118.91256713867188">
<ele>2567</ele>
<time>2016-07-28T09:17:49Z</time>
</trkpt>
<trkpt lat="36.98535919189453" lon="-118.91253662109375">
<ele>2569</ele>
<time>2016-07-28T09:17:56Z</time>
</trkpt>
<trkpt lat="36.985416412353516" lon="-118.91252899169922">
<ele>2570</ele>
<time>2016-07-28T09:18:02Z</time>
</trkpt>
<trkpt lat="36.985450744628906" lon="-118.91258239746094">
<ele>2569</ele>
<time>2016-07-28T09:18:11Z</time>
</trkpt>
<trkpt lat="36.985504150390625" lon="-118.91255187988281">
<ele>2570</ele>
<time>2016-07-28T09:18:23Z</time>
</trkpt>
<trkpt lat="36.985595703125" lon="-118.9124755859375">
<ele>2571</ele>
<time>2016-07-28T09:18:32Z</time>
</trkpt>
<trkpt lat="36.98569107055664" lon="-118.91246032714844">
<ele>2573</ele>
<time>2016-07-28T09:18:46Z</time>
</trkpt>
<trkpt lat="36.98573303222656" lon="-118.91242980957031">
<ele>2573</ele>
<time>2016-07-28T09:18:53Z</time>
</trkpt>
<trkpt lat="36.985782623291016" lon="-118.91241455078125">
<ele>2575</ele>
<time>2016-07-28T09:19:00Z</time>
</trkpt>
<trkpt lat="36.985836029052734" lon="-118.91242980957031">
<ele>2580</ele>
<time>2016-07-28T09:19:06Z</time>
</trkpt>
<trkpt lat="36.985923767089844" lon="-118.91239929199219">
<ele>2579</ele>
<time>2016-07-28T09:19:16Z</time>
</trkpt>
<trkpt lat="36.986000061035156" lon="-118.9123306274414">
<ele>2579</ele>
<time>2016-07-28T09:19:27Z</time>
</trkpt>
<trkpt lat="36.98607635498047" lon="-118.91224670410156">
<ele>2579</ele>
<time>2016-07-28T09:19:37Z</time>
</trkpt>
<trkpt lat="36.98611068725586" lon="-118.9122085571289">
<ele>2579</ele>
<time>2016-07-28T09:19:45Z</time>
</trkpt>
<trkpt lat="36.9860954284668" lon="-118.9121322631836">
<ele>2580</ele>
<time>2016-07-28T09:21:11Z</time>
</trkpt>
<trkpt lat="36.986141204833984" lon="-118.9121322631836">
<ele>2575</ele>
<time>2016-07-28T09:21:54Z</time>
</trkpt>
<trkpt lat="36.9861946105957" lon="-118.91211700439453">
<ele>2574</ele>
<time>2016-07-28T09:22:20Z</time>
</trkpt>
<trkpt lat="36.98621368408203" lon="-118.91206359863281">
<ele>2579</ele>
<time>2016-07-28T09:22:29Z</time>
</trkpt>
<trkpt lat="36.986244201660156" lon="-118.91201782226563">
<ele>2575</ele>
<time>2016-07-28T09:22:39Z</time>
</trkpt>
<trkpt lat="36.986297607421875" lon="-118.91200256347656">
<ele>2578</ele>
<time>2016-07-28T09:22:46Z</time>
</trkpt>
<trkpt lat="36.986351013183594" lon="-118.9119873046875">
<ele>2581</ele>
<time>2016-07-28T09:22:52Z</time>
</trkpt>
<trkpt lat="36.986392974853516" lon="-118.91195678710938">
<ele>2581</ele>
<time>2016-07-28T09:23:00Z</time>
</trkpt>
<trkpt lat="36.98639678955078" lon="-118.9118881225586">
<ele>2583</ele>
<time>2016-07-28T09:23:06Z</time>
</trkpt>
<trkpt lat="36.986358642578125" lon="-118.91180419921875">
<ele>2587</ele>
<time>2016-07-28T09:23:15Z</time>
</trkpt>
<trkpt lat="36.98633575439453" lon="-118.91175079345703">
<ele>2586</ele>
<time>2016-07-28T09:23:21Z</time>
</trkpt>
<trkpt lat="36.986328125" lon="-118.91168212890625">
<ele>2587</ele>
<time>2016-07-28T09:23:28Z</time>
</trkpt>
<trkpt lat="36.98632049560547" lon="-118.91162109375">
<ele>2586</ele>
<time>2016-07-28T09:23:37Z</time>
</trkpt>
<trkpt lat="36.986331939697266" lon="-118.91148376464844">
<ele>2589</ele>
<time>2016-07-28T09:23:46Z</time>
</trkpt>
<trkpt lat="36.98635482788086" lon="-118.9113540649414">
<ele>2589</ele>
<time>2016-07-28T09:23:54Z</time>
</trkpt>
<trkpt lat="36.98637771606445" lon="-118.9112319946289">
<ele>2591</ele>
<time>2016-07-28T09:24:02Z</time>
</trkpt>
<trkpt lat="36.98644256591797" lon="-118.9111328125">
<ele>2590</ele>
<time>2016-07-28T09:24:10Z</time>
</trkpt>
<trkpt lat="36.986473083496094" lon="-118.91105651855469">
<ele>2587</ele>
<time>2016-07-28T09:24:16Z</time>
</trkpt>
<trkpt lat="36.98646545410156" lon="-118.91093444824219">
<ele>2587</ele>
<time>2016-07-28T09:24:23Z</time>
</trkpt>
<trkpt lat="36.98651885986328" lon="-118.91082763671875">
<ele>2587</ele>
<time>2016-07-28T09:24:32Z</time>
</trkpt>
<trkpt lat="36.98658752441406" lon="-118.91073608398438">
<ele>2588</ele>
<time>2016-07-28T09:24:40Z</time>
</trkpt>
<trkpt lat="36.986629486083984" lon="-118.91062927246094">
<ele>2591</ele>
<time>2016-07-28T09:24:49Z</time>
</trkpt>
<trkpt lat="36.986671447753906" lon="-118.91050720214844">
<ele>2590</ele>
<time>2016-07-28T09:24:59Z</time>
</trkpt>
<trkpt lat="36.98674392700195" lon="-118.91040802001953">
<ele>2595</ele>
<time>2016-07-28T09:25:07Z</time>
</trkpt>
<trkpt lat="36.98678970336914" lon="-118.91031646728516">
<ele>2600</ele>
<time>2016-07-28T09:25:17Z</time>
</trkpt>
<trkpt lat="36.98678970336914" lon="-118.9102554321289">
<ele>2594</ele>
<time>2016-07-28T09:25:23Z</time>
</trkpt>
<trkpt lat="36.98678970336914" lon="-118.9101333618164">
<ele>2599</ele>
<time>2016-07-28T09:25:30Z</time>
</trkpt>
<trkpt lat="36.98681640625" lon="-118.91000366210938">
<ele>2599</ele>
<time>2016-07-28T09:25:36Z</time>
</trkpt>
<trkpt lat="36.98681640625" lon="-118.90994262695313">
<ele>2603</ele>
<time>2016-07-28T09:25:42Z</time>
</trkpt>
<trkpt lat="36.9868278503418" lon="-118.90988159179688">
<ele>2602</ele>
<time>2016-07-28T09:25:48Z</time>
</trkpt>
<trkpt lat="36.98683547973633" lon="-118.90975189208984">
<ele>2604</ele>
<time>2016-07-28T09:25:56Z</time>
</trkpt>
<trkpt lat="36.98683547973633" lon="-118.90962982177734">
<ele>2601</ele>
<time>2016-07-28T09:26:05Z</time>
</trkpt>
<trkpt lat="36.9868049621582" lon="-118.90953826904297">
<ele>2602</ele>
<time>2016-07-28T09:26:11Z</time>
</trkpt>
<trkpt lat="36.98680114746094" lon="-118.9094009399414">
<ele>2607</ele>
<time>2016-07-28T09:26:21Z</time>
</trkpt>
<trkpt lat="36.98682403564453" lon="-118.90933990478516">
<ele>2606</ele>
<time>2016-07-28T09:26:27Z</time>
</trkpt>
<trkpt lat="36.9868278503418" lon="-118.9092788696289">
<ele>2607</ele>
<time>2016-07-28T09:26:33Z</time>
</trkpt>
<trkpt lat="36.98682403564453" lon="-118.90921783447266">
<ele>2608</ele>
<time>2016-07-28T09:26:41Z</time>
</trkpt>
<trkpt lat="36.98683547973633" lon="-118.90916442871094">
<ele>2609</ele>
<time>2016-07-28T09:26:48Z</time>
</trkpt>
<trkpt lat="36.98686218261719" lon="-118.90911102294922">
<ele>2612</ele>
<time>2016-07-28T09:26:57Z</time>
</trkpt>
<trkpt lat="36.98689270019531" lon="-118.90898132324219">
<ele>2613</ele>
<time>2016-07-28T09:27:06Z</time>
</trkpt>
<trkpt lat="36.98696517944336" lon="-118.90882873535156">
<ele>2609</ele>
<time>2016-07-28T09:27:15Z</time>
</trkpt>
<trkpt lat="36.9870491027832" lon="-118.90876007080078">
<ele>2610</ele>
<time>2016-07-28T09:27:23Z</time>
</trkpt>
<trkpt lat="36.9870719909668" lon="-118.90869903564453">
<ele>2612</ele>
<time>2016-07-28T09:27:30Z</time>
</trkpt>
<trkpt lat="36.98711013793945" lon="-118.9085922241211">
<ele>2612</ele>
<time>2016-07-28T09:27:38Z</time>
</trkpt>
<trkpt lat="36.98711395263672" lon="-118.90853118896484">
<ele>2612</ele>
<time>2016-07-28T09:27:53Z</time>
</trkpt>
<trkpt lat="36.98719024658203" lon="-118.90843963623047">
<ele>2615</ele>
<time>2016-07-28T09:28:01Z</time>
</trkpt>
<trkpt lat="36.98722457885742" lon="-118.9083251953125">
<ele>2620</ele>
<time>2016-07-28T09:28:08Z</time>
</trkpt>
<trkpt lat="36.98725128173828" lon="-118.90821838378906">
<ele>2620</ele>
<time>2016-07-28T09:28:15Z</time>
</trkpt>
<trkpt lat="36.98725509643555" lon="-118.90809631347656">
<ele>2619</ele>
<time>2016-07-28T09:28:25Z</time>
</trkpt>
<trkpt lat="36.98723220825195" lon="-118.9079818725586">
<ele>2621</ele>
<time>2016-07-28T09:28:33Z</time>
</trkpt>
<trkpt lat="36.98724365234375" lon="-118.90786743164063">
<ele>2620</ele>
<time>2016-07-28T09:28:44Z</time>
</trkpt>
<trkpt lat="36.987247467041016" lon="-118.90776062011719">
<ele>2622</ele>
<time>2016-07-28T09:28:54Z</time>
</trkpt>
<trkpt lat="36.98725128173828" lon="-118.90763092041016">
<ele>2625</ele>
<time>2016-07-28T09:29:04Z</time>
</trkpt>
<trkpt lat="36.987274169921875" lon="-118.90750885009766">
<ele>2630</ele>
<time>2016-07-28T09:29:11Z</time>
</trkpt>
<trkpt lat="36.987266540527344" lon="-118.90744018554688">
<ele>2628</ele>
<time>2016-07-28T09:29:17Z</time>
</trkpt>
<trkpt lat="36.98726272583008" lon="-118.9073257446289">
<ele>2625</ele>
<time>2016-07-28T09:29:25Z</time>
</trkpt>
<trkpt lat="36.98723602294922" lon="-118.90727233886719">
<ele>2625</ele>
<time>2016-07-28T09:29:32Z</time>
</trkpt>
<trkpt lat="36.987247467041016" lon="-118.90714263916016">
<ele>2624</ele>
<time>2016-07-28T09:29:43Z</time>
</trkpt>
<trkpt lat="36.98725128173828" lon="-118.9070816040039">
<ele>2630</ele>
<time>2016-07-28T09:29:49Z</time>
</trkpt>
<trkpt lat="36.987247467041016" lon="-118.9070053100586">
<ele>2629</ele>
<time>2016-07-28T09:29:56Z</time>
</trkpt>
<trkpt lat="36.98725891113281" lon="-118.90687561035156">
<ele>2628</ele>
<time>2016-07-28T09:30:04Z</time>
</trkpt>
<trkpt lat="36.987247467041016" lon="-118.90678405761719">
<ele>2629</ele>
<time>2016-07-28T09:30:11Z</time>
</trkpt>
<trkpt lat="36.98721694946289" lon="-118.90673065185547">
<ele>2632</ele>
<time>2016-07-28T09:30:19Z</time>
</trkpt>
<trkpt lat="36.98722457885742" lon="-118.90666198730469">
<ele>2634</ele>
<time>2016-07-28T09:30:25Z</time>
</trkpt>
<trkpt lat="36.987266540527344" lon="-118.90654754638672">
<ele>2630</ele>
<time>2016-07-28T09:30:37Z</time>
</trkpt>
<trkpt lat="36.987266540527344" lon="-118.90648651123047">
<ele>2632</ele>
<time>2016-07-28T09:30:43Z</time>
</trkpt>
<trkpt lat="36.98725509643555" lon="-118.90642547607422">
<ele>2632</ele>
<time>2016-07-28T09:30:49Z</time>
</trkpt>
<trkpt lat="36.98723602294922" lon="-118.90630340576172">
<ele>2635</ele>
<time>2016-07-28T09:30:59Z</time>
</trkpt>
<trkpt lat="36.98721694946289" lon="-118.90625">
<ele>2635</ele>
<time>2016-07-28T09:31:05Z</time>
</trkpt>
<trkpt lat="36.987220764160156" lon="-118.90615844726563">
<ele>2632</ele>
<time>2016-07-28T09:31:17Z</time>
</trkpt>
<trkpt lat="36.987239837646484" lon="-118.90611267089844">
<ele>2630</ele>
<time>2016-07-28T09:31:23Z</time>
</trkpt>
<trkpt lat="36.98727035522461" lon="-118.90605163574219">
<ele>2634</ele>
<time>2016-07-28T09:31:29Z</time>
</trkpt>
<trkpt lat="36.9873046875" lon="-118.90594482421875">
<ele>2639</ele>
<time>2016-07-28T09:31:39Z</time>
</trkpt>
<trkpt lat="36.98728561401367" lon="-118.90589141845703">
<ele>2639</ele>
<time>2016-07-28T09:31:46Z</time>
</trkpt>
<trkpt lat="36.987281799316406" lon="-118.90583801269531">
<ele>2640</ele>
<time>2016-07-28T09:31:54Z</time>
</trkpt>
<trkpt lat="36.9873161315918" lon="-118.90570831298828">
<ele>2643</ele>
<time>2016-07-28T09:32:04Z</time>
</trkpt>
<trkpt lat="36.987335205078125" lon="-118.90562438964844">
<ele>2646</ele>
<time>2016-07-28T09:32:21Z</time>
</trkpt>
<trkpt lat="36.98732376098633" lon="-118.90555572509766">
<ele>2643</ele>
<time>2016-07-28T09:32:30Z</time>
</trkpt>
<trkpt lat="36.98729705810547" lon="-118.90544128417969">
<ele>2646</ele>
<time>2016-07-28T09:32:40Z</time>
</trkpt>
<trkpt lat="36.98727798461914" lon="-118.90538787841797">
<ele>2645</ele>
<time>2016-07-28T09:32:46Z</time>
</trkpt>
<trkpt lat="36.9872932434082" lon="-118.90531921386719">
<ele>2649</ele>
<time>2016-07-28T09:32:59Z</time>
</trkpt>
<trkpt lat="36.98735427856445" lon="-118.90523529052734">
<ele>2653</ele>
<time>2016-07-28T09:33:08Z</time>
</trkpt>
<trkpt lat="36.98740005493164" lon="-118.90518188476563">
<ele>2658</ele>
<time>2016-07-28T09:33:17Z</time>
</trkpt>
<trkpt lat="36.98743438720703" lon="-118.90506744384766">
<ele>2661</ele>
<time>2016-07-28T09:33:34Z</time>
</trkpt>
<trkpt lat="36.98748016357422" lon="-118.90504455566406">
<ele>2664</ele>
<time>2016-07-28T09:33:40Z</time>
</trkpt>
<trkpt lat="36.98750305175781" lon="-118.90499114990234">
<ele>2665</ele>
<time>2016-07-28T09:33:54Z</time>
</trkpt>
<trkpt lat="36.987545013427734" lon="-118.9048843383789">
<ele>2663</ele>
<time>2016-07-28T09:34:05Z</time>
</trkpt>
<trkpt lat="36.987579345703125" lon="-118.90481567382813">
<ele>2665</ele>
<time>2016-07-28T09:34:17Z</time>
</trkpt>
<trkpt lat="36.98759460449219" lon="-118.90475463867188">
<ele>2667</ele>
<time>2016-07-28T09:34:24Z</time>
</trkpt>
<trkpt lat="36.987613677978516" lon="-118.90470123291016">
<ele>2665</ele>
<time>2016-07-28T09:34:45Z</time>
</trkpt>
<trkpt lat="36.987640380859375" lon="-118.90465545654297">
<ele>2666</ele>
<time>2016-07-28T09:34:57Z</time>
</trkpt>
<trkpt lat="36.9876823425293" lon="-118.90462493896484">
<ele>2666</ele>
<time>2016-07-28T09:35:03Z</time>
</trkpt>
<trkpt lat="36.98770523071289" lon="-118.90457153320313">
<ele>2667</ele>
<time>2016-07-28T09:35:11Z</time>
</trkpt>
<trkpt lat="36.98771667480469" lon="-118.9045181274414">
<ele>2668</ele>
<time>2016-07-28T09:35:21Z</time>
</trkpt>
<trkpt lat="36.987693786621094" lon="-118.90446472167969">
<ele>2667</ele>
<time>2016-07-28T09:35:27Z</time>
</trkpt>
<trkpt lat="36.9876708984375" lon="-118.90441131591797">
<ele>2668</ele>
<time>2016-07-28T09:35:33Z</time>
</trkpt>
<trkpt lat="36.9876823425293" lon="-118.90435028076172">
<ele>2669</ele>
<time>2016-07-28T09:35:39Z</time>
</trkpt>
<trkpt lat="36.98771286010742" lon="-118.90430450439453">
<ele>2671</ele>
<time>2016-07-28T09:35:49Z</time>
</trkpt>
<trkpt lat="36.98773193359375" lon="-118.90424346923828">
<ele>2671</ele>
<time>2016-07-28T09:35:58Z</time>
</trkpt>
<trkpt lat="36.987735748291016" lon="-118.90412139892578">
<ele>2675</ele>
<time>2016-07-28T09:36:09Z</time>
</trkpt>
<trkpt lat="36.98777389526367" lon="-118.904052734375">
<ele>2678</ele>
<time>2016-07-28T09:36:16Z</time>
</trkpt>
<trkpt lat="36.987823486328125" lon="-118.90394592285156">
<ele>2680</ele>
<time>2016-07-28T09:36:27Z</time>
</trkpt>
<trkpt lat="36.98784637451172" lon="-118.90389251708984">
<ele>2677</ele>
<time>2016-07-28T09:36:33Z</time>
</trkpt>
<trkpt lat="36.987911224365234" lon="-118.90380096435547">
<ele>2679</ele>
<time>2016-07-28T09:36:42Z</time>
</trkpt>
<trkpt lat="36.98799133300781" lon="-118.90370178222656">
<ele>2680</ele>
<time>2016-07-28T09:36:51Z</time>
</trkpt>
<trkpt lat="36.98801040649414" lon="-118.9035873413086">
<ele>2684</ele>
<time>2016-07-28T09:36:59Z</time>
</trkpt>
<trkpt lat="36.98799133300781" lon="-118.90353393554688">
<ele>2681</ele>
<time>2016-07-28T09:37:05Z</time>
</trkpt>
<trkpt lat="36.987998962402344" lon="-118.90345764160156">
<ele>2681</ele>
<time>2016-07-28T09:37:11Z</time>
</trkpt>
<trkpt lat="36.98799514770508" lon="-118.9033203125">
<ele>2684</ele>
<time>2016-07-28T09:37:19Z</time>
</trkpt>
<trkpt lat="36.98802185058594" lon="-118.9031982421875">
<ele>2684</ele>
<time>2016-07-28T09:37:26Z</time>
</trkpt>
<trkpt lat="36.9880256652832" lon="-118.90314483642578">
<ele>2688</ele>
<time>2016-07-28T09:37:32Z</time>
</trkpt>
<trkpt lat="36.988075256347656" lon="-118.90312194824219">
<ele>2691</ele>
<time>2016-07-28T09:38:22Z</time>
</trkpt>
<trkpt lat="36.988155364990234" lon="-118.90306091308594">
<ele>2686</ele>
<time>2016-07-28T09:38:33Z</time>
</trkpt>
<trkpt lat="36.98823928833008" lon="-118.90299224853516">
<ele>2685</ele>
<time>2016-07-28T09:38:47Z</time>
</trkpt>
<trkpt lat="36.98832702636719" lon="-118.90292358398438">
<ele>2683</ele>
<time>2016-07-28T09:38:56Z</time>
</trkpt>
<trkpt lat="36.98841857910156" lon="-118.9028549194336">
<ele>2682</ele>
<time>2016-07-28T09:39:05Z</time>
</trkpt>
<trkpt lat="36.988502502441406" lon="-118.9028091430664">
<ele>2680</ele>
<time>2016-07-28T09:39:11Z</time>
</trkpt>
<trkpt lat="36.98859405517578" lon="-118.90275573730469">
<ele>2677</ele>
<time>2016-07-28T09:39:20Z</time>
</trkpt>
<trkpt lat="36.988685607910156" lon="-118.9026870727539">
<ele>2676</ele>
<time>2016-07-28T09:39:27Z</time>
</trkpt>
<trkpt lat="36.9887580871582" lon="-118.90262603759766">
<ele>2673</ele>
<time>2016-07-28T09:39:35Z</time>
</trkpt>
<trkpt lat="36.988826751708984" lon="-118.90254974365234">
<ele>2674</ele>
<time>2016-07-28T09:39:41Z</time>
</trkpt>
<trkpt lat="36.98893737792969" lon="-118.90254974365234">
<ele>2678</ele>
<time>2016-07-28T09:39:49Z</time>
</trkpt>
<trkpt lat="36.98904800415039" lon="-118.90254974365234">
<ele>2678</ele>
<time>2016-07-28T09:39:56Z</time>
</trkpt>
<trkpt lat="36.98914337158203" lon="-118.90259552001953">
<ele>2680</ele>
<time>2016-07-28T09:40:02Z</time>
</trkpt>
<trkpt lat="36.98925018310547" lon="-118.90254974365234">
<ele>2679</ele>
<time>2016-07-28T09:40:10Z</time>
</trkpt>
<trkpt lat="36.98936080932617" lon="-118.90258026123047">
<ele>2679</ele>
<time>2016-07-28T09:40:21Z</time>
</trkpt>
<trkpt lat="36.989463806152344" lon="-118.90260314941406">
<ele>2681</ele>
<time>2016-07-28T09:40:30Z</time>
</trkpt>
<trkpt lat="36.9895133972168" lon="-118.90258026123047">
<ele>2682</ele>
<time>2016-07-28T09:40:39Z</time>
</trkpt>
<trkpt lat="36.98958969116211" lon="-118.90251159667969">
<ele>2682</ele>
<time>2016-07-28T09:40:48Z</time>
</trkpt>
<trkpt lat="36.98964309692383" lon="-118.90250396728516">
<ele>2683</ele>
<time>2016-07-28T09:40:55Z</time>
</trkpt>
<trkpt lat="36.98974609375" lon="-118.90250396728516">
<ele>2684</ele>
<time>2016-07-28T09:41:04Z</time>
</trkpt>
<trkpt lat="36.989837646484375" lon="-118.90254974365234">
<ele>2685</ele>
<time>2016-07-28T09:41:11Z</time>
</trkpt>
<trkpt lat="36.98988723754883" lon="-118.90251922607422">
<ele>2688</ele>
<time>2016-07-28T09:41:38Z</time>
</trkpt>
<trkpt lat="36.98997497558594" lon="-118.90245819091797">
<ele>2685</ele>
<time>2016-07-28T09:41:44Z</time>
</trkpt>
<trkpt lat="36.99006271362305" lon="-118.90238952636719">
<ele>2686</ele>
<time>2016-07-28T09:41:54Z</time>
</trkpt>
<trkpt lat="36.9901008605957" lon="-118.90235137939453">
<ele>2684</ele>
<time>2016-07-28T09:42:03Z</time>
</trkpt>
<trkpt lat="36.990196228027344" lon="-118.90230560302734">
<ele>2683</ele>
<time>2016-07-28T09:42:09Z</time>
</trkpt>
<trkpt lat="36.99026107788086" lon="-118.90228271484375">
<ele>2685</ele>
<time>2016-07-28T09:42:17Z</time>
</trkpt>
<trkpt lat="36.99031066894531" lon="-118.90229797363281">
<ele>2687</ele>
<time>2016-07-28T09:42:23Z</time>
</trkpt>
<trkpt lat="36.99034881591797" lon="-118.90233612060547">
<ele>2687</ele>
<time>2016-07-28T09:42:29Z</time>
</trkpt>
<trkpt lat="36.99039840698242" lon="-118.90235137939453">
<ele>2686</ele>
<time>2016-07-28T09:42:35Z</time>
</trkpt>
<trkpt lat="36.9904899597168" lon="-118.90235137939453">
<ele>2686</ele>
<time>2016-07-28T09:42:44Z</time>
</trkpt>
<trkpt lat="36.9905891418457" lon="-118.90235137939453">
<ele>2685</ele>
<time>2016-07-28T09:42:53Z</time>
</trkpt>
<trkpt lat="36.99067306518555" lon="-118.90242004394531">
<ele>2689</ele>
<time>2016-07-28T09:43:03Z</time>
</trkpt>
<trkpt lat="36.990745544433594" lon="-118.90248107910156">
<ele>2694</ele>
<time>2016-07-28T09:43:15Z</time>
</trkpt>
<trkpt lat="36.9908332824707" lon="-118.90255737304688">
<ele>2691</ele>
<time>2016-07-28T09:43:23Z</time>
</trkpt>
<trkpt lat="36.990909576416016" lon="-118.90262603759766">
<ele>2686</ele>
<time>2016-07-28T09:43:31Z</time>
</trkpt>
<trkpt lat="36.99094772338867" lon="-118.90266418457031">
<ele>2691</ele>
<time>2016-07-28T09:43:37Z</time>
</trkpt>
<trkpt lat="36.99095916748047" lon="-118.90278625488281">
<ele>2692</ele>
<time>2016-07-28T09:43:46Z</time>
</trkpt>
<trkpt lat="36.99098587036133" lon="-118.90283966064453">
<ele>2691</ele>
<time>2016-07-28T09:43:52Z</time>
</trkpt>
<trkpt lat="36.99106979370117" lon="-118.90290069580078">
<ele>2690</ele>
<time>2016-07-28T09:44:02Z</time>
</trkpt>
<trkpt lat="36.991092681884766" lon="-118.9029541015625">
<ele>2691</ele>
<time>2016-07-28T09:44:08Z</time>
</trkpt>
<trkpt lat="36.991127014160156" lon="-118.90304565429688">
<ele>2693</ele>
<time>2016-07-28T09:44:18Z</time>
</trkpt>
<trkpt lat="36.99116134643555" lon="-118.90308380126953">
<ele>2691</ele>
<time>2016-07-28T09:44:25Z</time>
</trkpt>
<trkpt lat="36.99119186401367" lon="-118.90312957763672">
<ele>2696</ele>
<time>2016-07-28T09:44:41Z</time>
</trkpt>
<trkpt lat="36.99123764038086" lon="-118.90316772460938">
<ele>2698</ele>
<time>2016-07-28T09:44:51Z</time>
</trkpt>
<trkpt lat="36.99126434326172" lon="-118.90321350097656">
<ele>2699</ele>
<time>2016-07-28T09:45:00Z</time>
</trkpt>
<trkpt lat="36.99128723144531" lon="-118.90327453613281">
<ele>2702</ele>
<time>2016-07-28T09:45:10Z</time>
</trkpt>
<trkpt lat="36.991397857666016" lon="-118.90332794189453">
<ele>2705</ele>
<time>2016-07-28T09:45:20Z</time>
</trkpt>
<trkpt lat="36.99147033691406" lon="-118.90343475341797">
<ele>2704</ele>
<time>2016-07-28T09:45:30Z</time>
</trkpt>
<trkpt lat="36.991539001464844" lon="-118.90352630615234">
<ele>2697</ele>
<time>2016-07-28T09:45:40Z</time>
</trkpt>
<trkpt lat="36.99161148071289" lon="-118.90362548828125">
<ele>2695</ele>
<time>2016-07-28T09:45:49Z</time>
</trkpt>
<trkpt lat="36.99164962768555" lon="-118.90373992919922">
<ele>2693</ele>
<time>2016-07-28T09:45:58Z</time>
</trkpt>
<trkpt lat="36.991634368896484" lon="-118.90386962890625">
<ele>2698</ele>
<time>2016-07-28T09:46:04Z</time>
</trkpt>
<trkpt lat="36.991661071777344" lon="-118.90393829345703">
<ele>2694</ele>
<time>2016-07-28T09:46:11Z</time>
</trkpt>
<trkpt lat="36.99166488647461" lon="-118.90406036376953">
<ele>2695</ele>
<time>2016-07-28T09:46:19Z</time>
</trkpt>
<trkpt lat="36.99165725708008" lon="-118.90411376953125">
<ele>2696</ele>
<time>2016-07-28T09:46:31Z</time>
</trkpt>
<trkpt lat="36.991695404052734" lon="-118.90415954589844">
<ele>2700</ele>
<time>2016-07-28T09:46:37Z</time>
</trkpt>
<trkpt lat="36.991695404052734" lon="-118.90422058105469">
<ele>2704</ele>
<time>2016-07-28T09:46:51Z</time>
</trkpt>
<trkpt lat="36.99164962768555" lon="-118.90423583984375">
<ele>2703</ele>
<time>2016-07-28T09:46:58Z</time>
</trkpt>
<trkpt lat="36.99155807495117" lon="-118.9041976928711">
<ele>2706</ele>
<time>2016-07-28T09:47:08Z</time>
</trkpt>
<trkpt lat="36.99149703979492" lon="-118.9041976928711">
<ele>2701</ele>
<time>2016-07-28T09:47:48Z</time>
</trkpt>
<trkpt lat="36.99152374267578" lon="-118.90414428710938">
<ele>2699</ele>
<time>2016-07-28T09:47:57Z</time>
</trkpt>
<trkpt lat="36.99156951904297" lon="-118.90404510498047">
<ele>2699</ele>
<time>2016-07-28T09:48:11Z</time>
</trkpt>
<trkpt lat="36.99155807495117" lon="-118.90398406982422">
<ele>2699</ele>
<time>2016-07-28T09:48:19Z</time>
</trkpt>
<trkpt lat="36.99161148071289" lon="-118.90399169921875">
<ele>2704</ele>
<time>2016-07-28T09:48:39Z</time>
</trkpt>
<trkpt lat="36.991695404052734" lon="-118.90402221679688">
<ele>2701</ele>
<time>2016-07-28T09:48:48Z</time>
</trkpt>
<trkpt lat="36.991756439208984" lon="-118.90411376953125">
<ele>2702</ele>
<time>2016-07-28T09:48:57Z</time>
</trkpt>
<trkpt lat="36.991783142089844" lon="-118.90416717529297">
<ele>2703</ele>
<time>2016-07-28T09:49:03Z</time>
</trkpt>
<trkpt lat="36.99181365966797" lon="-118.9042739868164">
<ele>2701</ele>
<time>2016-07-28T09:49:11Z</time>
</trkpt>
<trkpt lat="36.99187088012695" lon="-118.90436553955078">
<ele>2699</ele>
<time>2016-07-28T09:49:20Z</time>
</trkpt>
<trkpt lat="36.991905212402344" lon="-118.90441131591797">
<ele>2702</ele>
<time>2016-07-28T09:49:28Z</time>
</trkpt>
<trkpt lat="36.99199676513672" lon="-118.9044418334961">
<ele>2699</ele>
<time>2016-07-28T09:49:37Z</time>
</trkpt>
<trkpt lat="36.99207305908203" lon="-118.90453338623047">
<ele>2700</ele>
<time>2016-07-28T09:49:45Z</time>
</trkpt>
<trkpt lat="36.99214553833008" lon="-118.90463256835938">
<ele>2704</ele>
<time>2016-07-28T09:49:54Z</time>
</trkpt>
<trkpt lat="36.99217224121094" lon="-118.90467834472656">
<ele>2706</ele>
<time>2016-07-28T09:50:00Z</time>
</trkpt>
<trkpt lat="36.992156982421875" lon="-118.90460968017578">
<ele>2706</ele>
<time>2016-07-28T09:50:27Z</time>
</trkpt>
<trkpt lat="36.99220657348633" lon="-118.90464782714844">
<ele>2709</ele>
<time>2016-07-28T09:50:55Z</time>
</trkpt>
<trkpt lat="36.99230194091797" lon="-118.90465545654297">
<ele>2710</ele>
<time>2016-07-28T09:51:02Z</time>
</trkpt>
<trkpt lat="36.99235916137695" lon="-118.90470123291016">
<ele>2711</ele>
<time>2016-07-28T09:51:11Z</time>
</trkpt>
<trkpt lat="36.99241256713867" lon="-118.90470886230469">
<ele>2706</ele>
<time>2016-07-28T09:51:28Z</time>
</trkpt>
<trkpt lat="36.99250793457031" lon="-118.90473937988281">
<ele>2706</ele>
<time>2016-07-28T09:51:35Z</time>
</trkpt>
<trkpt lat="36.992610931396484" lon="-118.9047622680664">
<ele>2705</ele>
<time>2016-07-28T09:51:51Z</time>
</trkpt>
<trkpt lat="36.992706298828125" lon="-118.90477752685547">
<ele>2707</ele>
<time>2016-07-28T09:51:58Z</time>
</trkpt>
<trkpt lat="36.99281692504883" lon="-118.9048080444336">
<ele>2710</ele>
<time>2016-07-28T09:52:06Z</time>
</trkpt>
<trkpt lat="36.99296188354492" lon="-118.90483856201172">
<ele>2710</ele>
<time>2016-07-28T09:52:15Z</time>
</trkpt>
<trkpt lat="36.99304962158203" lon="-118.90489196777344">
<ele>2710</ele>
<time>2016-07-28T09:52:21Z</time>
</trkpt>
<trkpt lat="36.99312973022461" lon="-118.90497589111328">
<ele>2709</ele>
<time>2016-07-28T09:52:28Z</time>
</trkpt>
<trkpt lat="36.99321365356445" lon="-118.90502166748047">
<ele>2711</ele>
<time>2016-07-28T09:52:36Z</time>
</trkpt>
<trkpt lat="36.99330520629883" lon="-118.90507507324219">
<ele>2712</ele>
<time>2016-07-28T09:52:47Z</time>
</trkpt>
<trkpt lat="36.99339294433594" lon="-118.90510559082031">
<ele>2709</ele>
<time>2016-07-28T09:52:58Z</time>
</trkpt>
<trkpt lat="36.99348068237305" lon="-118.90515899658203">
<ele>2711</ele>
<time>2016-07-28T09:53:06Z</time>
</trkpt>
<trkpt lat="36.993553161621094" lon="-118.9052734375">
<ele>2711</ele>
<time>2016-07-28T09:53:14Z</time>
</trkpt>
<trkpt lat="36.99360275268555" lon="-118.90528869628906">
<ele>2717</ele>
<time>2016-07-28T09:53:21Z</time>
</trkpt>
<trkpt lat="36.99367904663086" lon="-118.90531921386719">
<ele>2717</ele>
<time>2016-07-28T09:53:38Z</time>
</trkpt>
<trkpt lat="36.99376678466797" lon="-118.90536499023438">
<ele>2715</ele>
<time>2016-07-28T09:53:46Z</time>
</trkpt>
<trkpt lat="36.993804931640625" lon="-118.90531921386719">
<ele>2713</ele>
<time>2016-07-28T09:54:00Z</time>
</trkpt>
<trkpt lat="36.99385452270508" lon="-118.90532684326172">
<ele>2714</ele>
<time>2016-07-28T09:54:08Z</time>
</trkpt>
<trkpt lat="36.99391555786133" lon="-118.90531921386719">
<ele>2717</ele>
<time>2016-07-28T09:54:20Z</time>
</trkpt>
<trkpt lat="36.993961334228516" lon="-118.90531158447266">
<ele>2713</ele>
<time>2016-07-28T09:54:26Z</time>
</trkpt>
<trkpt lat="36.9940071105957" lon="-118.90532684326172">
<ele>2713</ele>
<time>2016-07-28T09:54:41Z</time>
</trkpt>
<trkpt lat="36.99403762817383" lon="-118.90538024902344">
<ele>2712</ele>
<time>2016-07-28T09:54:48Z</time>
</trkpt>
<trkpt lat="36.99408721923828" lon="-118.90538024902344">
<ele>2714</ele>
<time>2016-07-28T09:55:05Z</time>
</trkpt>
<trkpt lat="36.99414825439453" lon="-118.90540313720703">
<ele>2714</ele>
<time>2016-07-28T09:55:11Z</time>
</trkpt>
<trkpt lat="36.99424362182617" lon="-118.90547943115234">
<ele>2710</ele>
<time>2016-07-28T09:55:18Z</time>
</trkpt>
<trkpt lat="36.99433135986328" lon="-118.90552520751953">
<ele>2709</ele>
<time>2016-07-28T09:55:27Z</time>
</trkpt>
<trkpt lat="36.99443054199219" lon="-118.90555572509766">
<ele>2712</ele>
<time>2016-07-28T09:55:34Z</time>
</trkpt>
<trkpt lat="36.99453353881836" lon="-118.90554809570313">
<ele>2707</ele>
<time>2016-07-28T09:55:46Z</time>
</trkpt>
<trkpt lat="36.99458694458008" lon="-118.90556335449219">
<ele>2708</ele>
<time>2016-07-28T09:55:53Z</time>
</trkpt>
<trkpt lat="36.99469757080078" lon="-118.90559387207031">
<ele>2712</ele>
<time>2016-07-28T09:56:01Z</time>
</trkpt>
<trkpt lat="36.99480056762695" lon="-118.90563201904297">
<ele>2709</ele>
<time>2016-07-28T09:56:10Z</time>
</trkpt>
<trkpt lat="36.99491882324219" lon="-118.90568542480469">
<ele>2711</ele>
<time>2016-07-28T09:56:20Z</time>
</trkpt>
<trkpt lat="36.99496078491211" lon="-118.90570068359375">
<ele>2715</ele>
<time>2016-07-28T09:56:32Z</time>
</trkpt>
<trkpt lat="36.994991302490234" lon="-118.90565490722656">
<ele>2711</ele>
<time>2016-07-28T09:56:50Z</time>
</trkpt>
<trkpt lat="36.99504470825195" lon="-118.9056625366211">
<ele>2709</ele>
<time>2016-07-28T09:56:57Z</time>
</trkpt>
<trkpt lat="36.99509811401367" lon="-118.90567016601563">
<ele>2710</ele>
<time>2016-07-28T09:57:06Z</time>
</trkpt>
<trkpt lat="36.995201110839844" lon="-118.90567016601563">
<ele>2709</ele>
<time>2016-07-28T09:57:18Z</time>
</trkpt>
<trkpt lat="36.99524688720703" lon="-118.90567779541016">
<ele>2710</ele>
<time>2016-07-28T09:57:25Z</time>
</trkpt>
<trkpt lat="36.995296478271484" lon="-118.90568542480469">
<ele>2708</ele>
<time>2016-07-28T09:57:40Z</time>
</trkpt>
<trkpt lat="36.99534225463867" lon="-118.90570068359375">
<ele>2709</ele>
<time>2016-07-28T09:58:04Z</time>
</trkpt>
<trkpt lat="36.99540710449219" lon="-118.90568542480469">
<ele>2715</ele>
<time>2016-07-28T09:58:21Z</time>
</trkpt>
<trkpt lat="36.99545669555664" lon="-118.90565490722656">
<ele>2711</ele>
<time>2016-07-28T09:58:32Z</time>
</trkpt>
<trkpt lat="36.99550247192383" lon="-118.90567016601563">
<ele>2707</ele>
<time>2016-07-28T09:58:38Z</time>
</trkpt>
<trkpt lat="36.99554443359375" lon="-118.90569305419922">
<ele>2709</ele>
<time>2016-07-28T09:58:45Z</time>
</trkpt>
<trkpt lat="36.99563980102539" lon="-118.9057388305664">
<ele>2711</ele>
<time>2016-07-28T09:58:54Z</time>
</trkpt>
<trkpt lat="36.99568557739258" lon="-118.90576934814453">
<ele>2708</ele>
<time>2016-07-28T09:59:01Z</time>
</trkpt>
<trkpt lat="36.99578857421875" lon="-118.90577697753906">
<ele>2710</ele>
<time>2016-07-28T09:59:09Z</time>
</trkpt>
<trkpt lat="36.995941162109375" lon="-118.90570831298828">
<ele>2703</ele>
<time>2016-07-28T09:59:17Z</time>
</trkpt>
<trkpt lat="36.996036529541016" lon="-118.90567016601563">
<ele>2706</ele>
<time>2016-07-28T09:59:23Z</time>
</trkpt>
<trkpt lat="36.9960823059082" lon="-118.90563201904297">
<ele>2705</ele>
<time>2016-07-28T09:59:30Z</time>
</trkpt>
<trkpt lat="36.996124267578125" lon="-118.90559387207031">
<ele>2712</ele>
<time>2016-07-28T09:59:39Z</time>
</trkpt>
<trkpt lat="36.996238708496094" lon="-118.90557861328125">
<ele>2712</ele>
<time>2016-07-28T09:59:47Z</time>
</trkpt>
<trkpt lat="36.9963493347168" lon="-118.90559387207031">
<ele>2713</ele>
<time>2016-07-28T09:59:54Z</time>
</trkpt>
<trkpt lat="36.9964599609375" lon="-118.90558624267578">
<ele>2713</ele>
<time>2016-07-28T10:00:02Z</time>
</trkpt>
<trkpt lat="36.996559143066406" lon="-118.90555572509766">
<ele>2709</ele>
<time>2016-07-28T10:00:10Z</time>
</trkpt>
<trkpt lat="36.996673583984375" lon="-118.90555572509766">
<ele>2712</ele>
<time>2016-07-28T10:00:18Z</time>
</trkpt>
<trkpt lat="36.99678039550781" lon="-118.90555572509766">
<ele>2716</ele>
<time>2016-07-28T10:00:24Z</time>
</trkpt>
<trkpt lat="36.99687194824219" lon="-118.90553283691406">
<ele>2721</ele>
<time>2016-07-28T10:00:33Z</time>
</trkpt>
<trkpt lat="36.99696350097656" lon="-118.9055404663086">
<ele>2716</ele>
<time>2016-07-28T10:00:47Z</time>
</trkpt>
<trkpt lat="36.99705123901367" lon="-118.905517578125">
<ele>2711</ele>
<time>2016-07-28T10:00:56Z</time>
</trkpt>
<trkpt lat="36.99708938598633" lon="-118.90548706054688">
<ele>2711</ele>
<time>2016-07-28T10:01:04Z</time>
</trkpt>
<trkpt lat="36.99715042114258" lon="-118.90548706054688">
<ele>2710</ele>
<time>2016-07-28T10:01:20Z</time>
</trkpt>
<trkpt lat="36.997196197509766" lon="-118.90545654296875">
<ele>2713</ele>
<time>2016-07-28T10:01:26Z</time>
</trkpt>
<trkpt lat="36.997230529785156" lon="-118.90541076660156">
<ele>2713</ele>
<time>2016-07-28T10:01:34Z</time>
</trkpt>
<trkpt lat="36.99728012084961" lon="-118.9053955078125">
<ele>2709</ele>
<time>2016-07-28T10:01:48Z</time>
</trkpt>
<trkpt lat="36.997371673583984" lon="-118.9053726196289">
<ele>2713</ele>
<time>2016-07-28T10:01:56Z</time>
</trkpt>
<trkpt lat="36.9974250793457" lon="-118.9053726196289">
<ele>2708</ele>
<time>2016-07-28T10:02:06Z</time>
</trkpt>
<trkpt lat="36.99753952026367" lon="-118.90523529052734">
<ele>2701</ele>
<time>2016-07-28T10:02:22Z</time>
</trkpt>
<trkpt lat="36.997623443603516" lon="-118.90518188476563">
<ele>2701</ele>
<time>2016-07-28T10:02:29Z</time>
</trkpt>
<trkpt lat="36.997703552246094" lon="-118.9051284790039">
<ele>2704</ele>
<time>2016-07-28T10:02:44Z</time>
</trkpt>
<trkpt lat="36.9978141784668" lon="-118.90512084960938">
<ele>2704</ele>
<time>2016-07-28T10:02:53Z</time>
</trkpt>
<trkpt lat="36.997894287109375" lon="-118.9050521850586">
<ele>2704</ele>
<time>2016-07-28T10:03:02Z</time>
</trkpt>
<trkpt lat="36.99794387817383" lon="-118.90502166748047">
<ele>2704</ele>
<time>2016-07-28T10:03:08Z</time>
</trkpt>
<trkpt lat="36.99800109863281" lon="-118.90495300292969">
<ele>2705</ele>
<time>2016-07-28T10:03:21Z</time>
</trkpt>
<trkpt lat="36.99803161621094" lon="-118.9049072265625">
<ele>2707</ele>
<time>2016-07-28T10:03:28Z</time>
</trkpt>
<trkpt lat="36.9980583190918" lon="-118.90485382080078">
<ele>2705</ele>
<time>2016-07-28T10:03:34Z</time>
</trkpt>
<trkpt lat="36.998043060302734" lon="-118.90479278564453">
<ele>2707</ele>
<time>2016-07-28T10:03:40Z</time>
</trkpt>
<trkpt lat="36.99800491333008" lon="-118.9047622680664">
<ele>2708</ele>
<time>2016-07-28T10:03:50Z</time>
</trkpt>
<trkpt lat="36.99803161621094" lon="-118.90470886230469">
<ele>2716</ele>
<time>2016-07-28T10:04:01Z</time>
</trkpt>
<trkpt lat="36.99808883666992" lon="-118.90470123291016">
<ele>2717</ele>
<time>2016-07-28T10:04:10Z</time>
</trkpt>
<trkpt lat="36.99821090698242" lon="-118.90469360351563">
<ele>2712</ele>
<time>2016-07-28T10:04:19Z</time>
</trkpt>
<trkpt lat="36.99831008911133" lon="-118.90470886230469">
<ele>2711</ele>
<time>2016-07-28T10:04:28Z</time>
</trkpt>
<trkpt lat="36.998355865478516" lon="-118.90470886230469">
<ele>2714</ele>
<time>2016-07-28T10:04:46Z</time>
</trkpt>
<trkpt lat="36.99840545654297" lon="-118.90470886230469">
<ele>2717</ele>
<time>2016-07-28T10:04:53Z</time>
</trkpt>
<trkpt lat="36.99850845336914" lon="-118.90470886230469">
<ele>2718</ele>
<time>2016-07-28T10:05:03Z</time>
</trkpt>
<trkpt lat="36.99858856201172" lon="-118.90467071533203">
<ele>2718</ele>
<time>2016-07-28T10:05:11Z</time>
</trkpt>
<trkpt lat="36.99863052368164" lon="-118.9046401977539">
<ele>2718</ele>
<time>2016-07-28T10:05:17Z</time>
</trkpt>
<trkpt lat="36.99868392944336" lon="-118.90463256835938">
<ele>2719</ele>
<time>2016-07-28T10:05:27Z</time>
</trkpt>
<trkpt lat="36.998695373535156" lon="-118.90454864501953">
<ele>2724</ele>
<time>2016-07-28T10:06:20Z</time>
</trkpt>
<trkpt lat="36.99871063232422" lon="-118.90442657470703">
<ele>2725</ele>
<time>2016-07-28T10:06:32Z</time>
</trkpt>
<trkpt lat="36.99869918823242" lon="-118.90435791015625">
<ele>2725</ele>
<time>2016-07-28T10:06:39Z</time>
</trkpt>
<trkpt lat="36.998722076416016" lon="-118.90423583984375">
<ele>2726</ele>
<time>2016-07-28T10:06:48Z</time>
</trkpt>
<trkpt lat="36.998714447021484" lon="-118.90411376953125">
<ele>2729</ele>
<time>2016-07-28T10:06:59Z</time>
</trkpt>
<trkpt lat="36.998714447021484" lon="-118.904052734375">
<ele>2729</ele>
<time>2016-07-28T10:07:06Z</time>
</trkpt>
<trkpt lat="36.99870300292969" lon="-118.90394592285156">
<ele>2734</ele>
<time>2016-07-28T10:07:20Z</time>
</trkpt>
<trkpt lat="36.99866485595703" lon="-118.90391540527344">
<ele>2733</ele>
<time>2016-07-28T10:07:26Z</time>
</trkpt>
<trkpt lat="36.99872589111328" lon="-118.90382385253906">
<ele>2732</ele>
<time>2016-07-28T10:07:38Z</time>
</trkpt>
<trkpt lat="36.99875259399414" lon="-118.90377044677734">
<ele>2731</ele>
<time>2016-07-28T10:07:44Z</time>
</trkpt>
<trkpt lat="36.99876403808594" lon="-118.90365600585938">
<ele>2730</ele>
<time>2016-07-28T10:07:56Z</time>
</trkpt>
<trkpt lat="36.998775482177734" lon="-118.90359497070313">
<ele>2735</ele>
<time>2016-07-28T10:08:03Z</time>
</trkpt>
<trkpt lat="36.998802185058594" lon="-118.9035415649414">
<ele>2733</ele>
<time>2016-07-28T10:08:10Z</time>
</trkpt>
<trkpt lat="36.99880599975586" lon="-118.90340423583984">
<ele>2735</ele>
<time>2016-07-28T10:08:20Z</time>
</trkpt>
<trkpt lat="36.99882507324219" lon="-118.90328216552734">
<ele>2736</ele>
<time>2016-07-28T10:08:33Z</time>
</trkpt>
<trkpt lat="36.998897552490234" lon="-118.9031982421875">
<ele>2736</ele>
<time>2016-07-28T10:08:43Z</time>
</trkpt>
<trkpt lat="36.998966217041016" lon="-118.90310668945313">
<ele>2737</ele>
<time>2016-07-28T10:08:51Z</time>
</trkpt>
<trkpt lat="36.99904251098633" lon="-118.90302276611328">
<ele>2737</ele>
<time>2016-07-28T10:08:59Z</time>
</trkpt>
<trkpt lat="36.99907684326172" lon="-118.90296173095703">
<ele>2738</ele>
<time>2016-07-28T10:09:17Z</time>
</trkpt>
<trkpt lat="36.999107360839844" lon="-118.90291595458984">
<ele>2736</ele>
<time>2016-07-28T10:09:25Z</time>
</trkpt>
<trkpt lat="36.99917984008789" lon="-118.90283203125">
<ele>2733</ele>
<time>2016-07-28T10:09:34Z</time>
</trkpt>
<trkpt lat="36.99921798706055" lon="-118.90278625488281">
<ele>2735</ele>
<time>2016-07-28T10:09:40Z</time>
</trkpt>
<trkpt lat="36.999237060546875" lon="-118.90272521972656">
<ele>2737</ele>
<time>2016-07-28T10:09:46Z</time>
</trkpt>
<trkpt lat="36.999290466308594" lon="-118.90261840820313">
<ele>2738</ele>
<time>2016-07-28T10:09:54Z</time>
</trkpt>
<trkpt lat="36.99983215332031" lon="-118.90179443359375">
<ele>2740</ele>
<time>2016-07-28T10:11:25Z</time>
</trkpt>
<trkpt lat="36.999874114990234" lon="-118.90177154541016">
<ele>2740</ele>
<time>2016-07-28T10:11:33Z</time>
</trkpt>
<trkpt lat="36.99991226196289" lon="-118.9017333984375">
<ele>2743</ele>
<time>2016-07-28T10:11:39Z</time>
</trkpt>
<trkpt lat="37.00000762939453" lon="-118.90165710449219">
<ele>2743</ele>
<time>2016-07-28T10:11:48Z</time>
</trkpt>
<trkpt lat="37.00010299682617" lon="-118.90162658691406">
<ele>2743</ele>
<time>2016-07-28T10:12:06Z</time>
</trkpt>
<trkpt lat="37.0001220703125" lon="-118.90151977539063">
<ele>2742</ele>
<time>2016-07-28T10:12:17Z</time>
</trkpt>
<trkpt lat="37.00008773803711" lon="-118.90148162841797">
<ele>2741</ele>
<time>2016-07-28T10:12:24Z</time>
</trkpt>
<trkpt lat="37.00008773803711" lon="-118.90135955810547">
<ele>2745</ele>
<time>2016-07-28T10:12:35Z</time>
</trkpt>
<trkpt lat="37.00014877319336" lon="-118.9012451171875">
<ele>2744</ele>
<time>2016-07-28T10:12:43Z</time>
</trkpt>
<trkpt lat="37.000160217285156" lon="-118.901123046875">
<ele>2745</ele>
<time>2016-07-28T10:12:53Z</time>
</trkpt>
<trkpt lat="37.000160217285156" lon="-118.90106201171875">
<ele>2747</ele>
<time>2016-07-28T10:13:01Z</time>
</trkpt>
<trkpt lat="37.00017547607422" lon="-118.90094757080078">
<ele>2746</ele>
<time>2016-07-28T10:13:11Z</time>
</trkpt>
<trkpt lat="37.000205993652344" lon="-118.90082550048828">
<ele>2749</ele>
<time>2016-07-28T10:13:19Z</time>
</trkpt>
<trkpt lat="37.00027084350586" lon="-118.90072631835938">
<ele>2749</ele>
<time>2016-07-28T10:13:27Z</time>
</trkpt>
<trkpt lat="37.00028991699219" lon="-118.90059661865234">
<ele>2752</ele>
<time>2016-07-28T10:13:36Z</time>
</trkpt>
<trkpt lat="37.000282287597656" lon="-118.90047454833984">
<ele>2753</ele>
<time>2016-07-28T10:13:45Z</time>
</trkpt>
<trkpt lat="37.000282287597656" lon="-118.90040588378906">
<ele>2750</ele>
<time>2016-07-28T10:14:02Z</time>
</trkpt>
<trkpt lat="37.00033187866211" lon="-118.90031433105469">
<ele>2748</ele>
<time>2016-07-28T10:14:11Z</time>
</trkpt>
<trkpt lat="37.000362396240234" lon="-118.90026092529297">
<ele>2749</ele>
<time>2016-07-28T10:14:17Z</time>
</trkpt>
<trkpt lat="37.00041580200195" lon="-118.90025329589844">
<ele>2746</ele>
<time>2016-07-28T10:14:24Z</time>
</trkpt>
<trkpt lat="37.000389099121094" lon="-118.9001235961914">
<ele>2738</ele>
<time>2016-07-28T10:14:34Z</time>
</trkpt>
<trkpt lat="37.00046920776367" lon="-118.89978790283203">
<ele>2737</ele>
<time>2016-07-28T10:14:59Z</time>
</trkpt>
<trkpt lat="37.00046157836914" lon="-118.89972686767578">
<ele>2738</ele>
<time>2016-07-28T10:15:06Z</time>
</trkpt>
<trkpt lat="37.00053024291992" lon="-118.89962768554688">
<ele>2736</ele>
<time>2016-07-28T10:15:15Z</time>
</trkpt>
<trkpt lat="37.00061798095703" lon="-118.89954376220703">
<ele>2735</ele>
<time>2016-07-28T10:15:23Z</time>
</trkpt>
<trkpt lat="37.000633239746094" lon="-118.89949035644531">
<ele>2734</ele>
<time>2016-07-28T10:15:29Z</time>
</trkpt>
<trkpt lat="37.00067138671875" lon="-118.89945220947266">
<ele>2739</ele>
<time>2016-07-28T10:15:36Z</time>
</trkpt>
<trkpt lat="37.00069808959961" lon="-118.89940643310547">
<ele>2744</ele>
<time>2016-07-28T10:15:43Z</time>
</trkpt>
<trkpt lat="37.000694274902344" lon="-118.89934539794922">
<ele>2742</ele>
<time>2016-07-28T10:15:50Z</time>
</trkpt>
<trkpt lat="37.00069808959961" lon="-118.89928436279297">
<ele>2742</ele>
<time>2016-07-28T10:15:58Z</time>
</trkpt>
<trkpt lat="37.000701904296875" lon="-118.89922332763672">
<ele>2745</ele>
<time>2016-07-28T10:16:06Z</time>
</trkpt>
<trkpt lat="37.00071716308594" lon="-118.89913940429688">
<ele>2745</ele>
<time>2016-07-28T10:16:17Z</time>
</trkpt>
<trkpt lat="37.000762939453125" lon="-118.89913177490234">
<ele>2746</ele>
<time>2016-07-28T10:16:26Z</time>
</trkpt>
<trkpt lat="37.00086212158203" lon="-118.89911651611328">
<ele>2738</ele>
<time>2016-07-28T10:16:41Z</time>
</trkpt>
<trkpt lat="37.00093460083008" lon="-118.89903259277344">
<ele>2736</ele>
<time>2016-07-28T10:16:53Z</time>
</trkpt>
<trkpt lat="37.00094985961914" lon="-118.89891815185547">
<ele>2741</ele>
<time>2016-07-28T10:17:03Z</time>
</trkpt>
<trkpt lat="37.00095748901367" lon="-118.89885711669922">
<ele>2741</ele>
<time>2016-07-28T10:17:09Z</time>
</trkpt>
<trkpt lat="37.000938415527344" lon="-118.89877319335938">
<ele>2737</ele>
<time>2016-07-28T10:17:20Z</time>
</trkpt>
<trkpt lat="37.000980377197266" lon="-118.89866638183594">
<ele>2744</ele>
<time>2016-07-28T10:17:29Z</time>
</trkpt>
<trkpt lat="37.00105667114258" lon="-118.89856719970703">
<ele>2743</ele>
<time>2016-07-28T10:17:40Z</time>
</trkpt>
</trkseg>
</trk>
<trk>
<name><![CDATA[07280320]]></name>
<number>2</number>
<extensions><topografix:color>ff000066</topografix:color></extensions>
<trkseg>
<trkpt lat="37.00131607055664" lon="-118.89771270751953">
<ele>2747</ele>
<time>2016-07-28T10:20:41Z</time>
</trkpt>
<trkpt lat="37.00136184692383" lon="-118.897705078125">
<ele>2747</ele>
<time>2016-07-28T10:20:59Z</time>
</trkpt>
<trkpt lat="37.00141143798828" lon="-118.89768981933594">
<ele>2748</ele>
<time>2016-07-28T10:21:09Z</time>
</trkpt>
<trkpt lat="37.001399993896484" lon="-118.89762115478516">
<ele>2744</ele>
<time>2016-07-28T10:21:16Z</time>
</trkpt>
<trkpt lat="37.001407623291016" lon="-118.89756774902344">
<ele>2741</ele>
<time>2016-07-28T10:21:24Z</time>
</trkpt>
<trkpt lat="37.00143051147461" lon="-118.89751434326172">
<ele>2738</ele>
<time>2016-07-28T10:21:30Z</time>
</trkpt>
<trkpt lat="37.001434326171875" lon="-118.89745330810547">
<ele>2739</ele>
<time>2016-07-28T10:21:41Z</time>
</trkpt>
<trkpt lat="37.001434326171875" lon="-118.89738464355469">
<ele>2735</ele>
<time>2016-07-28T10:21:47Z</time>
</trkpt>
<trkpt lat="37.00144577026367" lon="-118.89726257324219">
<ele>2729</ele>
<time>2016-07-28T10:21:56Z</time>
</trkpt>
<trkpt lat="37.00148010253906" lon="-118.897216796875">
<ele>2731</ele>
<time>2016-07-28T10:22:03Z</time>
</trkpt>
<trkpt lat="37.00152587890625" lon="-118.8971939086914">
<ele>2732</ele>
<time>2016-07-28T10:22:10Z</time>
</trkpt>
<trkpt lat="37.001609802246094" lon="-118.89717864990234">
<ele>2733</ele>
<time>2016-07-28T10:22:20Z</time>
</trkpt>
<trkpt lat="37.0016975402832" lon="-118.89717102050781">
<ele>2736</ele>
<time>2016-07-28T10:22:30Z</time>
</trkpt>
<trkpt lat="37.00173568725586" lon="-118.89714050292969">
<ele>2732</ele>
<time>2016-07-28T10:22:37Z</time>
</trkpt>
<trkpt lat="37.00178527832031" lon="-118.8971176147461">
<ele>2728</ele>
<time>2016-07-28T10:22:47Z</time>
</trkpt>
<trkpt lat="37.00188064575195" lon="-118.89708709716797">
<ele>2720</ele>
<time>2016-07-28T10:23:06Z</time>
</trkpt>
<trkpt lat="37.00192642211914" lon="-118.89707946777344">
<ele>2720</ele>
<time>2016-07-28T10:23:12Z</time>
</trkpt>
<trkpt lat="37.001976013183594" lon="-118.8970718383789">
<ele>2722</ele>
<time>2016-07-28T10:23:19Z</time>
</trkpt>
<trkpt lat="37.00206756591797" lon="-118.89703369140625">
<ele>2719</ele>
<time>2016-07-28T10:23:30Z</time>
</trkpt>
<trkpt lat="37.00212860107422" lon="-118.89702606201172">
<ele>2719</ele>
<time>2016-07-28T10:23:36Z</time>
</trkpt>
<trkpt lat="37.00221633911133" lon="-118.89697265625">
<ele>2722</ele>
<time>2016-07-28T10:23:47Z</time>
</trkpt>
<trkpt lat="37.00224685668945" lon="-118.89691925048828">
<ele>2721</ele>
<time>2016-07-28T10:23:53Z</time>
</trkpt>
<trkpt lat="37.00229263305664" lon="-118.89688873291016">
<ele>2718</ele>
<time>2016-07-28T10:23:59Z</time>
</trkpt>
<trkpt lat="37.002384185791016" lon="-118.89682006835938">
<ele>2720</ele>
<time>2016-07-28T10:24:07Z</time>
</trkpt>
<trkpt lat="37.00241470336914" lon="-118.89676666259766">
<ele>2725</ele>
<time>2016-07-28T10:24:13Z</time>
</trkpt>
<trkpt lat="37.002464294433594" lon="-118.89673614501953">
<ele>2721</ele>
<time>2016-07-28T10:24:19Z</time>
</trkpt>
<trkpt lat="37.00257110595703" lon="-118.89671325683594">
<ele>2721</ele>
<time>2016-07-28T10:24:26Z</time>
</trkpt>
<trkpt lat="37.00267028808594" lon="-118.89671325683594">
<ele>2722</ele>
<time>2016-07-28T10:25:03Z</time>
</trkpt>
<trkpt lat="37.00271224975586" lon="-118.89665985107422">
<ele>2724</ele>
<time>2016-07-28T10:25:09Z</time>
</trkpt>
<trkpt lat="37.002803802490234" lon="-118.8966293334961">
<ele>2729</ele>
<time>2016-07-28T10:25:17Z</time>
</trkpt>
<trkpt lat="37.00284957885742" lon="-118.8966293334961">
<ele>2723</ele>
<time>2016-07-28T10:25:24Z</time>
</trkpt>
<trkpt lat="37.002925872802734" lon="-118.89656829833984">
<ele>2724</ele>
<time>2016-07-28T10:25:31Z</time>
</trkpt>
<trkpt lat="37.00301742553711" lon="-118.89649963378906">
<ele>2717</ele>
<time>2016-07-28T10:25:40Z</time>
</trkpt>
<trkpt lat="37.00307846069336" lon="-118.8965072631836">
<ele>2715</ele>
<time>2016-07-28T10:25:46Z</time>
</trkpt>
<trkpt lat="37.00312805175781" lon="-118.89651489257813">
<ele>2713</ele>
<time>2016-07-28T10:25:53Z</time>
</trkpt>
<trkpt lat="37.00316619873047" lon="-118.89647674560547">
<ele>2709</ele>
<time>2016-07-28T10:26:01Z</time>
</trkpt>
<trkpt lat="37.00324249267578" lon="-118.89647674560547">
<ele>2706</ele>
<time>2016-07-28T10:26:22Z</time>
</trkpt>
<trkpt lat="37.003292083740234" lon="-118.8964614868164">
<ele>2702</ele>
<time>2016-07-28T10:26:29Z</time>
</trkpt>
<trkpt lat="37.00333786010742" lon="-118.89646911621094">
<ele>2703</ele>
<time>2016-07-28T10:26:35Z</time>
</trkpt>
<trkpt lat="37.0034294128418" lon="-118.89649963378906">
<ele>2703</ele>
<time>2016-07-28T10:26:47Z</time>
</trkpt>
<trkpt lat="37.00352096557617" lon="-118.89653778076172">
<ele>2700</ele>
<time>2016-07-28T10:26:55Z</time>
</trkpt>
<trkpt lat="37.00361633300781" lon="-118.89656066894531">
<ele>2698</ele>
<time>2016-07-28T10:27:04Z</time>
</trkpt>
<trkpt lat="37.00366973876953" lon="-118.89656829833984">
<ele>2698</ele>
<time>2016-07-28T10:27:10Z</time>
</trkpt>
<trkpt lat="37.0037727355957" lon="-118.89659118652344">
<ele>2692</ele>
<time>2016-07-28T10:27:21Z</time>
</trkpt>
<trkpt lat="37.003822326660156" lon="-118.89659118652344">
<ele>2687</ele>
<time>2016-07-28T10:27:27Z</time>
</trkpt>
<trkpt lat="37.003910064697266" lon="-118.89663696289063">
<ele>2686</ele>
<time>2016-07-28T10:27:38Z</time>
</trkpt>
<trkpt lat="37.00397872924805" lon="-118.89665985107422">
<ele>2689</ele>
<time>2016-07-28T10:27:48Z</time>
</trkpt>
<trkpt lat="37.00402069091797" lon="-118.8966293334961">
<ele>2688</ele>
<time>2016-07-28T10:27:55Z</time>
</trkpt>
<trkpt lat="37.004066467285156" lon="-118.8966064453125">
<ele>2689</ele>
<time>2016-07-28T10:28:01Z</time>
</trkpt>
<trkpt lat="37.00407791137695" lon="-118.89653778076172">
<ele>2684</ele>
<time>2016-07-28T10:28:08Z</time>
</trkpt>
<trkpt lat="37.004146575927734" lon="-118.89644622802734">
<ele>2684</ele>
<time>2016-07-28T10:28:15Z</time>
</trkpt>
<trkpt lat="37.004215240478516" lon="-118.8963623046875">
<ele>2684</ele>
<time>2016-07-28T10:28:23Z</time>
</trkpt>
<trkpt lat="37.0042610168457" lon="-118.89634704589844">
<ele>2691</ele>
<time>2016-07-28T10:28:37Z</time>
</trkpt>
<trkpt lat="37.00434494018555" lon="-118.89634704589844">
<ele>2687</ele>
<time>2016-07-28T10:28:47Z</time>
</trkpt>
<trkpt lat="37.00435256958008" lon="-118.89629364013672">
<ele>2683</ele>
<time>2016-07-28T10:29:00Z</time>
</trkpt>
<trkpt lat="37.004432678222656" lon="-118.89623260498047">
<ele>2682</ele>
<time>2016-07-28T10:29:12Z</time>
</trkpt>
<trkpt lat="37.004478454589844" lon="-118.89620971679688">
<ele>2677</ele>
<time>2016-07-28T10:29:18Z</time>
</trkpt>
<trkpt lat="37.0045051574707" lon="-118.89615631103516">
<ele>2674</ele>
<time>2016-07-28T10:29:24Z</time>
</trkpt>
<trkpt lat="37.004547119140625" lon="-118.89612579345703">
<ele>2677</ele>
<time>2016-07-28T10:29:34Z</time>
</trkpt>
<trkpt lat="37.00462341308594" lon="-118.8961181640625">
<ele>2678</ele>
<time>2016-07-28T10:29:41Z</time>
</trkpt>
<trkpt lat="37.004737854003906" lon="-118.89611053466797">
<ele>2680</ele>
<time>2016-07-28T10:29:50Z</time>
</trkpt>
<trkpt lat="37.004825592041016" lon="-118.89604949951172">
<ele>2671</ele>
<time>2016-07-28T10:30:02Z</time>
</trkpt>
<trkpt lat="37.0048828125" lon="-118.89595031738281">
<ele>2672</ele>
<time>2016-07-28T10:30:10Z</time>
</trkpt>
<trkpt lat="37.004920959472656" lon="-118.89591979980469">
<ele>2673</ele>
<time>2016-07-28T10:30:16Z</time>
</trkpt>
<trkpt lat="37.00496292114258" lon="-118.89588928222656">
<ele>2672</ele>
<time>2016-07-28T10:30:22Z</time>
</trkpt>
<trkpt lat="37.0050048828125" lon="-118.89586639404297">
<ele>2671</ele>
<time>2016-07-28T10:30:28Z</time>
</trkpt>
<trkpt lat="37.005088806152344" lon="-118.89579772949219">
<ele>2668</ele>
<time>2016-07-28T10:30:37Z</time>
</trkpt>
<trkpt lat="37.00517272949219" lon="-118.89572143554688">
<ele>2665</ele>
<time>2016-07-28T10:30:50Z</time>
</trkpt>
<trkpt lat="37.005210876464844" lon="-118.89568328857422">
<ele>2663</ele>
<time>2016-07-28T10:30:56Z</time>
</trkpt>
<trkpt lat="37.00524139404297" lon="-118.89563751220703">
<ele>2660</ele>
<time>2016-07-28T10:31:03Z</time>
</trkpt>
<trkpt lat="37.005313873291016" lon="-118.89554595947266">
<ele>2661</ele>
<time>2016-07-28T10:31:16Z</time>
</trkpt>
<trkpt lat="37.005374908447266" lon="-118.89546203613281">
<ele>2661</ele>
<time>2016-07-28T10:31:28Z</time>
</trkpt>
<trkpt lat="37.005393981933594" lon="-118.8954086303711">
<ele>2663</ele>
<time>2016-07-28T10:31:34Z</time>
</trkpt>
<trkpt lat="37.00544738769531" lon="-118.89534759521484">
<ele>2664</ele>
<time>2016-07-28T10:31:52Z</time>
</trkpt>
<trkpt lat="37.005489349365234" lon="-118.89530944824219">
<ele>2664</ele>
<time>2016-07-28T10:31:58Z</time>
</trkpt>
<trkpt lat="37.00548553466797" lon="-118.89525604248047">
<ele>2661</ele>
<time>2016-07-28T10:32:06Z</time>
</trkpt>
<trkpt lat="37.00548553466797" lon="-118.89518737792969">
<ele>2662</ele>
<time>2016-07-28T10:32:14Z</time>
</trkpt>
<trkpt lat="37.0054931640625" lon="-118.8951187133789">
<ele>2665</ele>
<time>2016-07-28T10:32:20Z</time>
</trkpt>
<trkpt lat="37.00555419921875" lon="-118.89501953125">
<ele>2665</ele>
<time>2016-07-28T10:32:30Z</time>
</trkpt>
<trkpt lat="37.005611419677734" lon="-118.8949203491211">
<ele>2667</ele>
<time>2016-07-28T10:32:41Z</time>
</trkpt>
<trkpt lat="37.00559997558594" lon="-118.8947982788086">
<ele>2667</ele>
<time>2016-07-28T10:32:51Z</time>
</trkpt>
<trkpt lat="37.00560760498047" lon="-118.89473724365234">
<ele>2668</ele>
<time>2016-07-28T10:32:57Z</time>
</trkpt>
<trkpt lat="37.00562286376953" lon="-118.8946762084961">
<ele>2669</ele>
<time>2016-07-28T10:33:05Z</time>
</trkpt>
<trkpt lat="37.005615234375" lon="-118.89462280273438">
<ele>2669</ele>
<time>2016-07-28T10:33:11Z</time>
</trkpt>
<trkpt lat="37.00556182861328" lon="-118.89453125">
<ele>2671</ele>
<time>2016-07-28T10:33:29Z</time>
</trkpt>
<trkpt lat="37.00553512573242" lon="-118.89443969726563">
<ele>2669</ele>
<time>2016-07-28T10:33:47Z</time>
</trkpt>
<trkpt lat="37.005496978759766" lon="-118.89433288574219">
<ele>2665</ele>
<time>2016-07-28T10:33:57Z</time>
</trkpt>
<trkpt lat="37.005558013916016" lon="-118.89424133300781">
<ele>2667</ele>
<time>2016-07-28T10:34:06Z</time>
</trkpt>
<trkpt lat="37.00554275512695" lon="-118.89411926269531">
<ele>2667</ele>
<time>2016-07-28T10:34:17Z</time>
</trkpt>
<trkpt lat="37.005516052246094" lon="-118.89401245117188">
<ele>2666</ele>
<time>2016-07-28T10:34:27Z</time>
</trkpt>
<trkpt lat="37.00550842285156" lon="-118.8938980102539">
<ele>2665</ele>
<time>2016-07-28T10:34:35Z</time>
</trkpt>
<trkpt lat="37.00550842285156" lon="-118.89382934570313">
<ele>2666</ele>
<time>2016-07-28T10:34:41Z</time>
</trkpt>
<trkpt lat="37.00552749633789" lon="-118.8937759399414">
<ele>2670</ele>
<time>2016-07-28T10:34:47Z</time>
</trkpt>
<trkpt lat="37.00558090209961" lon="-118.89368438720703">
<ele>2672</ele>
<time>2016-07-28T10:34:55Z</time>
</trkpt>
<trkpt lat="37.00559616088867" lon="-118.89361572265625">
<ele>2672</ele>
<time>2016-07-28T10:35:01Z</time>
</trkpt>
<trkpt lat="37.005584716796875" lon="-118.89348602294922">
<ele>2669</ele>
<time>2016-07-28T10:35:09Z</time>
</trkpt>
<trkpt lat="37.00558090209961" lon="-118.89334869384766">
<ele>2670</ele>
<time>2016-07-28T10:35:17Z</time>
</trkpt>
<trkpt lat="37.005611419677734" lon="-118.89323425292969">
<ele>2671</ele>
<time>2016-07-28T10:35:26Z</time>
</trkpt>
<trkpt lat="37.00562286376953" lon="-118.89311981201172">
<ele>2674</ele>
<time>2016-07-28T10:35:34Z</time>
</trkpt>
<trkpt lat="37.005615234375" lon="-118.89302825927734">
<ele>2675</ele>
<time>2016-07-28T10:35:41Z</time>
</trkpt>
<trkpt lat="37.005550384521484" lon="-118.89292907714844">
<ele>2678</ele>
<time>2016-07-28T10:35:49Z</time>
</trkpt>
<trkpt lat="37.005496978759766" lon="-118.89280700683594">
<ele>2678</ele>
<time>2016-07-28T10:35:57Z</time>
</trkpt>
<trkpt lat="37.00547409057617" lon="-118.89269256591797">
<ele>2680</ele>
<time>2016-07-28T10:36:05Z</time>
</trkpt>
<trkpt lat="37.00544738769531" lon="-118.892578125">
<ele>2676</ele>
<time>2016-07-28T10:36:18Z</time>
</trkpt>
<trkpt lat="37.00544738769531" lon="-118.89251708984375">
<ele>2676</ele>
<time>2016-07-28T10:36:28Z</time>
</trkpt>
<trkpt lat="37.00546646118164" lon="-118.89239501953125">
<ele>2681</ele>
<time>2016-07-28T10:36:39Z</time>
</trkpt>
<trkpt lat="37.00547409057617" lon="-118.89230346679688">
<ele>2683</ele>
<time>2016-07-28T10:36:47Z</time>
</trkpt>
<trkpt lat="37.0054931640625" lon="-118.89218139648438">
<ele>2678</ele>
<time>2016-07-28T10:36:55Z</time>
</trkpt>
<trkpt lat="37.005516052246094" lon="-118.89205169677734">
<ele>2683</ele>
<time>2016-07-28T10:37:03Z</time>
</trkpt>
<trkpt lat="37.00554656982422" lon="-118.89200592041016">
<ele>2685</ele>
<time>2016-07-28T10:37:09Z</time>
</trkpt>
<trkpt lat="37.005558013916016" lon="-118.8919448852539">
<ele>2685</ele>
<time>2016-07-28T10:37:18Z</time>
</trkpt>
<trkpt lat="37.00556182861328" lon="-118.89188385009766">
<ele>2684</ele>
<time>2016-07-28T10:37:24Z</time>
</trkpt>
<trkpt lat="37.00560760498047" lon="-118.8918685913086">
<ele>2683</ele>
<time>2016-07-28T10:37:31Z</time>
</trkpt>
<trkpt lat="37.00556564331055" lon="-118.89176177978516">
<ele>2684</ele>
<time>2016-07-28T10:37:46Z</time>
</trkpt>
<trkpt lat="37.00554656982422" lon="-118.89170837402344">
<ele>2683</ele>
<time>2016-07-28T10:37:53Z</time>
</trkpt>
<trkpt lat="37.00556564331055" lon="-118.8916015625">
<ele>2686</ele>
<time>2016-07-28T10:38:04Z</time>
</trkpt>
<trkpt lat="37.005577087402344" lon="-118.89154815673828">
<ele>2687</ele>
<time>2016-07-28T10:38:11Z</time>
</trkpt>
<trkpt lat="37.005577087402344" lon="-118.8914794921875">
<ele>2690</ele>
<time>2016-07-28T10:38:18Z</time>
</trkpt>
<trkpt lat="37.00553512573242" lon="-118.89144897460938">
<ele>2691</ele>
<time>2016-07-28T10:38:27Z</time>
</trkpt>
<trkpt lat="37.0054931640625" lon="-118.89141845703125">
<ele>2693</ele>
<time>2016-07-28T10:38:38Z</time>
</trkpt>
<trkpt lat="37.00543975830078" lon="-118.8913803100586">
<ele>2692</ele>
<time>2016-07-28T10:38:50Z</time>
</trkpt>
<trkpt lat="37.005393981933594" lon="-118.89136505126953">
<ele>2693</ele>
<time>2016-07-28T10:38:57Z</time>
</trkpt>
<trkpt lat="37.005374908447266" lon="-118.89131164550781">
<ele>2693</ele>
<time>2016-07-28T10:39:07Z</time>
</trkpt>
<trkpt lat="37.00532150268555" lon="-118.89128875732422">
<ele>2693</ele>
<time>2016-07-28T10:39:23Z</time>
</trkpt>
<trkpt lat="37.005279541015625" lon="-118.89122772216797">
<ele>2691</ele>
<time>2016-07-28T10:39:52Z</time>
</trkpt>
<trkpt lat="37.00527572631836" lon="-118.89117431640625">
<ele>2689</ele>
<time>2016-07-28T10:39:59Z</time>
</trkpt>
<trkpt lat="37.005271911621094" lon="-118.89111328125">
<ele>2692</ele>
<time>2016-07-28T10:40:08Z</time>
</trkpt>
<trkpt lat="37.005252838134766" lon="-118.89105224609375">
<ele>2691</ele>
<time>2016-07-28T10:40:14Z</time>
</trkpt>
<trkpt lat="37.00524139404297" lon="-118.89093780517578">
<ele>2694</ele>
<time>2016-07-28T10:40:24Z</time>
</trkpt>
<trkpt lat="37.00522232055664" lon="-118.89087677001953">
<ele>2694</ele>
<time>2016-07-28T10:40:30Z</time>
</trkpt>
<trkpt lat="37.00522232055664" lon="-118.89076232910156">
<ele>2694</ele>
<time>2016-07-28T10:40:39Z</time>
</trkpt>
<trkpt lat="37.00517654418945" lon="-118.8907241821289">
<ele>2689</ele>
<time>2016-07-28T10:41:25Z</time>
</trkpt>
<trkpt lat="37.005210876464844" lon="-118.89078521728516">
<ele>2689</ele>
<time>2016-07-28T10:42:54Z</time>
</trkpt>
<trkpt lat="37.005218505859375" lon="-118.8907241821289">
<ele>2692</ele>
<time>2016-07-28T10:43:31Z</time>
</trkpt>
<trkpt lat="37.00517272949219" lon="-118.8907699584961">
<ele>2688</ele>
<time>2016-07-28T10:44:41Z</time>
</trkpt>
<trkpt lat="37.005210876464844" lon="-118.8907241821289">
<ele>2698</ele>
<time>2016-07-28T10:46:08Z</time>
</trkpt>
<trkpt lat="37.00526428222656" lon="-118.89070892333984">
<ele>2699</ele>
<time>2016-07-28T10:46:25Z</time>
</trkpt>
<trkpt lat="37.00521469116211" lon="-118.89070892333984">
<ele>2695</ele>
<time>2016-07-28T10:47:41Z</time>
</trkpt>
<trkpt lat="37.005218505859375" lon="-118.89064025878906">
<ele>2691</ele>
<time>2016-07-28T10:48:14Z</time>
</trkpt>
<trkpt lat="37.005218505859375" lon="-118.89057922363281">
<ele>2690</ele>
<time>2016-07-28T10:48:20Z</time>
</trkpt>
<trkpt lat="37.00522232055664" lon="-118.89045715332031">
<ele>2692</ele>
<time>2016-07-28T10:48:30Z</time>
</trkpt>
<trkpt lat="37.005279541015625" lon="-118.8903579711914">
<ele>2691</ele>
<time>2016-07-28T10:48:39Z</time>
</trkpt>
<trkpt lat="37.005279541015625" lon="-118.8902587890625">
<ele>2692</ele>
<time>2016-07-28T10:48:46Z</time>
</trkpt>
<trkpt lat="37.00521469116211" lon="-118.89018249511719">
<ele>2692</ele>
<time>2016-07-28T10:48:57Z</time>
</trkpt>
<trkpt lat="37.00518798828125" lon="-118.89006042480469">
<ele>2694</ele>
<time>2016-07-28T10:49:03Z</time>
</trkpt>
<trkpt lat="37.00517272949219" lon="-118.88993072509766">
<ele>2698</ele>
<time>2016-07-28T10:49:09Z</time>
</trkpt>
<trkpt lat="37.005157470703125" lon="-118.88980102539063">
<ele>2704</ele>
<time>2016-07-28T10:49:17Z</time>
</trkpt>
<trkpt lat="37.005088806152344" lon="-118.88972473144531">
<ele>2706</ele>
<time>2016-07-28T10:49:24Z</time>
</trkpt>
<trkpt lat="37.00499725341797" lon="-118.88966369628906">
<ele>2701</ele>
<time>2016-07-28T10:49:31Z</time>
</trkpt>
<trkpt lat="37.00492858886719" lon="-118.88955688476563">
<ele>2701</ele>
<time>2016-07-28T10:49:38Z</time>
</trkpt>
<trkpt lat="37.0048713684082" lon="-118.88948059082031">
<ele>2701</ele>
<time>2016-07-28T10:49:44Z</time>
</trkpt>
<trkpt lat="37.00479507446289" lon="-118.88941955566406">
<ele>2701</ele>
<time>2016-07-28T10:49:51Z</time>
</trkpt>
<trkpt lat="37.00474548339844" lon="-118.88932037353516">
<ele>2690</ele>
<time>2016-07-28T10:49:59Z</time>
</trkpt>
<trkpt lat="37.0047721862793" lon="-118.88920593261719">
<ele>2689</ele>
<time>2016-07-28T10:50:09Z</time>
</trkpt>
<trkpt lat="37.004756927490234" lon="-118.88914489746094">
<ele>2691</ele>
<time>2016-07-28T10:50:15Z</time>
</trkpt>
<trkpt lat="37.004661560058594" lon="-118.88909149169922">
<ele>2692</ele>
<time>2016-07-28T10:50:24Z</time>
</trkpt>
<trkpt lat="37.004642486572266" lon="-118.88896942138672">
<ele>2692</ele>
<time>2016-07-28T10:50:32Z</time>
</trkpt>
<trkpt lat="37.004661560058594" lon="-118.88883972167969">
<ele>2693</ele>
<time>2016-07-28T10:50:40Z</time>
</trkpt>
<trkpt lat="37.00468826293945" lon="-118.88870239257813">
<ele>2690</ele>
<time>2016-07-28T10:50:49Z</time>
</trkpt>
<trkpt lat="37.0047607421875" lon="-118.88859558105469">
<ele>2690</ele>
<time>2016-07-28T10:50:57Z</time>
</trkpt>
<trkpt lat="37.00484848022461" lon="-118.88853454589844">
<ele>2693</ele>
<time>2016-07-28T10:51:10Z</time>
</trkpt>
<trkpt lat="37.00492858886719" lon="-118.88845825195313">
<ele>2694</ele>
<time>2016-07-28T10:51:22Z</time>
</trkpt>
<trkpt lat="37.00491714477539" lon="-118.8884048461914">
<ele>2692</ele>
<time>2016-07-28T10:51:35Z</time>
</trkpt>
<trkpt lat="37.00496292114258" lon="-118.88835906982422">
<ele>2691</ele>
<time>2016-07-28T10:51:41Z</time>
</trkpt>
<trkpt lat="37.005001068115234" lon="-118.88833618164063">
<ele>2687</ele>
<time>2016-07-28T10:52:11Z</time>
</trkpt>
<trkpt lat="37.00505065917969" lon="-118.88832092285156">
<ele>2686</ele>
<time>2016-07-28T10:52:17Z</time>
</trkpt>
<trkpt lat="37.00509262084961" lon="-118.88829803466797">
<ele>2686</ele>
<time>2016-07-28T10:52:30Z</time>
</trkpt>
<trkpt lat="37.005062103271484" lon="-118.88818359375">
<ele>2688</ele>
<time>2016-07-28T10:52:38Z</time>
</trkpt>
<trkpt lat="37.00503158569336" lon="-118.8880844116211">
<ele>2684</ele>
<time>2016-07-28T10:52:45Z</time>
</trkpt>
<trkpt lat="37.005027770996094" lon="-118.88803100585938">
<ele>2684</ele>
<time>2016-07-28T10:52:51Z</time>
</trkpt>
<trkpt lat="37.00501251220703" lon="-118.88790893554688">
<ele>2685</ele>
<time>2016-07-28T10:52:59Z</time>
</trkpt>
<trkpt lat="37.00497055053711" lon="-118.88777923583984">
<ele>2688</ele>
<time>2016-07-28T10:53:07Z</time>
</trkpt>
<trkpt lat="37.00494384765625" lon="-118.88766479492188">
<ele>2687</ele>
<time>2016-07-28T10:53:15Z</time>
</trkpt>
<trkpt lat="37.00492858886719" lon="-118.88752746582031">
<ele>2690</ele>
<time>2016-07-28T10:53:24Z</time>
</trkpt>
<trkpt lat="37.00489807128906" lon="-118.88741302490234">
<ele>2693</ele>
<time>2016-07-28T10:53:30Z</time>
</trkpt>
<trkpt lat="37.0048828125" lon="-118.88728332519531">
<ele>2691</ele>
<time>2016-07-28T10:53:38Z</time>
</trkpt>
<trkpt lat="37.004886627197266" lon="-118.88716888427734">
<ele>2692</ele>
<time>2016-07-28T10:53:44Z</time>
</trkpt>
<trkpt lat="37.00486373901367" lon="-118.88703918457031">
<ele>2694</ele>
<time>2016-07-28T10:53:51Z</time>
</trkpt>
<trkpt lat="37.00484848022461" lon="-118.88697814941406">
<ele>2693</ele>
<time>2016-07-28T10:53:58Z</time>
</trkpt>
<trkpt lat="37.00480651855469" lon="-118.8868637084961">
<ele>2694</ele>
<time>2016-07-28T10:54:05Z</time>
</trkpt>
<trkpt lat="37.00474166870117" lon="-118.88677215576172">
<ele>2692</ele>
<time>2016-07-28T10:54:12Z</time>
</trkpt>
<trkpt lat="37.00465393066406" lon="-118.88673400878906">
<ele>2693</ele>
<time>2016-07-28T10:54:20Z</time>
</trkpt>
<trkpt lat="37.0046272277832" lon="-118.88662719726563">
<ele>2691</ele>
<time>2016-07-28T10:54:27Z</time>
</trkpt>
<trkpt lat="37.004608154296875" lon="-118.8864974975586">
<ele>2690</ele>
<time>2016-07-28T10:54:35Z</time>
</trkpt>
<trkpt lat="37.00460433959961" lon="-118.88642883300781">
<ele>2693</ele>
<time>2016-07-28T10:54:50Z</time>
</trkpt>
<trkpt lat="37.004608154296875" lon="-118.88648986816406">
<ele>2687</ele>
<time>2016-07-28T10:55:02Z</time>
</trkpt>
<trkpt lat="37.00463104248047" lon="-118.8866195678711">
<ele>2684</ele>
<time>2016-07-28T10:55:13Z</time>
</trkpt>
<trkpt lat="37.00468826293945" lon="-118.88670349121094">
<ele>2685</ele>
<time>2016-07-28T10:55:23Z</time>
</trkpt>
<trkpt lat="37.00477600097656" lon="-118.88676452636719">
<ele>2684</ele>
<time>2016-07-28T10:55:32Z</time>
</trkpt>
<trkpt lat="37.00482177734375" lon="-118.88677978515625">
<ele>2685</ele>
<time>2016-07-28T10:55:38Z</time>
</trkpt>
<trkpt lat="37.00489044189453" lon="-118.88673400878906">
<ele>2687</ele>
<time>2016-07-28T10:55:46Z</time>
</trkpt>
<trkpt lat="37.00492858886719" lon="-118.88668823242188">
<ele>2688</ele>
<time>2016-07-28T10:55:52Z</time>
</trkpt>
<trkpt lat="37.00495529174805" lon="-118.88664245605469">
<ele>2691</ele>
<time>2016-07-28T10:56:03Z</time>
</trkpt>
<trkpt lat="37.00498580932617" lon="-118.8865966796875">
<ele>2692</ele>
<time>2016-07-28T10:56:09Z</time>
</trkpt>
<trkpt lat="37.0049934387207" lon="-118.88653564453125">
<ele>2694</ele>
<time>2016-07-28T10:56:15Z</time>
</trkpt>
<trkpt lat="37.004981994628906" lon="-118.88642120361328">
<ele>2695</ele>
<time>2016-07-28T10:56:23Z</time>
</trkpt>
<trkpt lat="37.00502014160156" lon="-118.88630676269531">
<ele>2694</ele>
<time>2016-07-28T10:56:33Z</time>
</trkpt>
<trkpt lat="37.00508117675781" lon="-118.88623046875">
<ele>2695</ele>
<time>2016-07-28T10:56:41Z</time>
</trkpt>
<trkpt lat="37.00511169433594" lon="-118.88618469238281">
<ele>2692</ele>
<time>2016-07-28T10:56:47Z</time>
</trkpt>
<trkpt lat="37.005165100097656" lon="-118.88607025146484">
<ele>2690</ele>
<time>2016-07-28T10:56:56Z</time>
</trkpt>
<trkpt lat="37.00521469116211" lon="-118.8859634399414">
<ele>2689</ele>
<time>2016-07-28T10:57:10Z</time>
</trkpt>
<trkpt lat="37.005252838134766" lon="-118.88584899902344">
<ele>2688</ele>
<time>2016-07-28T10:57:20Z</time>
</trkpt>
<trkpt lat="37.00527572631836" lon="-118.88572692871094">
<ele>2691</ele>
<time>2016-07-28T10:57:29Z</time>
</trkpt>
<trkpt lat="37.005306243896484" lon="-118.8856201171875">
<ele>2691</ele>
<time>2016-07-28T10:57:37Z</time>
</trkpt>
<trkpt lat="37.00533676147461" lon="-118.88553619384766">
<ele>2695</ele>
<time>2016-07-28T10:57:57Z</time>
</trkpt>
<trkpt lat="37.00535202026367" lon="-118.88548278808594">
<ele>2693</ele>
<time>2016-07-28T10:58:29Z</time>
</trkpt>
<trkpt lat="37.005340576171875" lon="-118.8853530883789">
<ele>2691</ele>
<time>2016-07-28T10:58:37Z</time>
</trkpt>
<trkpt lat="37.005367279052734" lon="-118.88525390625">
<ele>2690</ele>
<time>2016-07-28T10:58:45Z</time>
</trkpt>
<trkpt lat="37.00537872314453" lon="-118.88519287109375">
<ele>2690</ele>
<time>2016-07-28T10:58:52Z</time>
</trkpt>
<trkpt lat="37.00537109375" lon="-118.88506317138672">
<ele>2691</ele>
<time>2016-07-28T10:58:59Z</time>
</trkpt>
<trkpt lat="37.00537109375" lon="-118.88493347167969">
<ele>2690</ele>
<time>2016-07-28T10:59:08Z</time>
</trkpt>
<trkpt lat="37.00537872314453" lon="-118.88487243652344">
<ele>2692</ele>
<time>2016-07-28T10:59:14Z</time>
</trkpt>
<trkpt lat="37.00535583496094" lon="-118.88475036621094">
<ele>2691</ele>
<time>2016-07-28T10:59:29Z</time>
</trkpt>
<trkpt lat="37.005313873291016" lon="-118.88462829589844">
<ele>2694</ele>
<time>2016-07-28T10:59:37Z</time>
</trkpt>
<trkpt lat="37.00527572631836" lon="-118.88455200195313">
<ele>2693</ele>
<time>2016-07-28T10:59:45Z</time>
</trkpt>
<trkpt lat="37.005210876464844" lon="-118.88446044921875">
<ele>2692</ele>
<time>2016-07-28T10:59:53Z</time>
</trkpt>
<trkpt lat="37.00518798828125" lon="-118.8843994140625">
<ele>2693</ele>
<time>2016-07-28T11:00:15Z</time>
</trkpt>
<trkpt lat="37.005104064941406" lon="-118.88436889648438">
<ele>2696</ele>
<time>2016-07-28T11:00:33Z</time>
</trkpt>
<trkpt lat="37.00505828857422" lon="-118.88438415527344">
<ele>2694</ele>
<time>2016-07-28T11:00:39Z</time>
</trkpt>
<trkpt lat="37.0051383972168" lon="-118.8843994140625">
<ele>2687</ele>
<time>2016-07-28T11:00:59Z</time>
</trkpt>
<trkpt lat="37.00518035888672" lon="-118.88436889648438">
<ele>2689</ele>
<time>2016-07-28T11:01:07Z</time>
</trkpt>
<trkpt lat="37.00518798828125" lon="-118.88431549072266">
<ele>2687</ele>
<time>2016-07-28T11:01:13Z</time>
</trkpt>
<trkpt lat="37.00517272949219" lon="-118.88419342041016">
<ele>2686</ele>
<time>2016-07-28T11:01:24Z</time>
</trkpt>
<trkpt lat="37.00519943237305" lon="-118.8842544555664">
<ele>2684</ele>
<time>2016-07-28T11:02:01Z</time>
</trkpt>
<trkpt lat="37.005130767822266" lon="-118.88433074951172">
<ele>2688</ele>
<time>2016-07-28T11:02:09Z</time>
</trkpt>
<trkpt lat="37.005035400390625" lon="-118.8843765258789">
<ele>2690</ele>
<time>2016-07-28T11:02:18Z</time>
</trkpt>
<trkpt lat="37.005001068115234" lon="-118.88441467285156">
<ele>2691</ele>
<time>2016-07-28T11:02:26Z</time>
</trkpt>
<trkpt lat="37.00497817993164" lon="-118.88446807861328">
<ele>2690</ele>
<time>2016-07-28T11:02:34Z</time>
</trkpt>
<trkpt lat="37.00493240356445" lon="-118.88449096679688">
<ele>2689</ele>
<time>2016-07-28T11:02:41Z</time>
</trkpt>
<trkpt lat="37.004878997802734" lon="-118.88447570800781">
<ele>2688</ele>
<time>2016-07-28T11:02:47Z</time>
</trkpt>
<trkpt lat="37.004783630371094" lon="-118.88446807861328">
<ele>2688</ele>
<time>2016-07-28T11:02:57Z</time>
</trkpt>
<trkpt lat="37.00473403930664" lon="-118.88450622558594">
<ele>2688</ele>
<time>2016-07-28T11:03:10Z</time>
</trkpt>
<trkpt lat="37.00468444824219" lon="-118.88451385498047">
<ele>2687</ele>
<time>2016-07-28T11:03:22Z</time>
</trkpt>
<trkpt lat="37.004634857177734" lon="-118.8845443725586">
<ele>2688</ele>
<time>2016-07-28T11:03:32Z</time>
</trkpt>
<trkpt lat="37.00456619262695" lon="-118.88457489013672">
<ele>2689</ele>
<time>2016-07-28T11:03:41Z</time>
</trkpt>
<trkpt lat="37.0045166015625" lon="-118.88459014892578">
<ele>2691</ele>
<time>2016-07-28T11:04:04Z</time>
</trkpt>
<trkpt lat="37.004417419433594" lon="-118.88456726074219">
<ele>2692</ele>
<time>2016-07-28T11:04:15Z</time>
</trkpt>
<trkpt lat="37.00436782836914" lon="-118.88455200195313">
<ele>2692</ele>
<time>2016-07-28T11:04:21Z</time>
</trkpt>
<trkpt lat="37.00432205200195" lon="-118.884521484375">
<ele>2691</ele>
<time>2016-07-28T11:04:35Z</time>
</trkpt>
<trkpt lat="37.00424575805664" lon="-118.88449096679688">
<ele>2692</ele>
<time>2016-07-28T11:04:47Z</time>
</trkpt>
<trkpt lat="37.00419616699219" lon="-118.88450622558594">
<ele>2690</ele>
<time>2016-07-28T11:05:11Z</time>
</trkpt>
<trkpt lat="37.00410079956055" lon="-118.8845443725586">
<ele>2691</ele>
<time>2016-07-28T11:05:21Z</time>
</trkpt>
<trkpt lat="37.004051208496094" lon="-118.88453674316406">
<ele>2687</ele>
<time>2016-07-28T11:05:27Z</time>
</trkpt>
<trkpt lat="37.00400161743164" lon="-118.8844985961914">
<ele>2688</ele>
<time>2016-07-28T11:05:36Z</time>
</trkpt>
<trkpt lat="37.00394821166992" lon="-118.8844223022461">
<ele>2691</ele>
<time>2016-07-28T11:05:53Z</time>
</trkpt>
<trkpt lat="37.003944396972656" lon="-118.88436126708984">
<ele>2693</ele>
<time>2016-07-28T11:06:02Z</time>
</trkpt>
<trkpt lat="37.00394821166992" lon="-118.88430786132813">
<ele>2691</ele>
<time>2016-07-28T11:06:08Z</time>
</trkpt>
<trkpt lat="37.00398635864258" lon="-118.88426971435547">
<ele>2691</ele>
<time>2016-07-28T11:06:14Z</time>
</trkpt>
<trkpt lat="37.00403594970703" lon="-118.88417053222656">
<ele>2687</ele>
<time>2016-07-28T11:06:23Z</time>
</trkpt>
<trkpt lat="37.00411605834961" lon="-118.88407135009766">
<ele>2687</ele>
<time>2016-07-28T11:06:32Z</time>
</trkpt>
<trkpt lat="37.00416564941406" lon="-118.88397979736328">
<ele>2690</ele>
<time>2016-07-28T11:06:46Z</time>
</trkpt>
<trkpt lat="37.004188537597656" lon="-118.88392639160156">
<ele>2688</ele>
<time>2016-07-28T11:06:52Z</time>
</trkpt>
<trkpt lat="37.00426483154297" lon="-118.88384246826172">
<ele>2686</ele>
<time>2016-07-28T11:07:02Z</time>
</trkpt>
<trkpt lat="37.00430679321289" lon="-118.88373565673828">
<ele>2688</ele>
<time>2016-07-28T11:07:17Z</time>
</trkpt>
<trkpt lat="37.00431442260742" lon="-118.88368225097656">
<ele>2689</ele>
<time>2016-07-28T11:07:27Z</time>
</trkpt>
<trkpt lat="37.004276275634766" lon="-118.88365173339844">
<ele>2684</ele>
<time>2016-07-28T11:07:35Z</time>
</trkpt>
<trkpt lat="37.00419998168945" lon="-118.88359069824219">
<ele>2692</ele>
<time>2016-07-28T11:08:01Z</time>
</trkpt>
<trkpt lat="37.00419616699219" lon="-118.88349914550781">
<ele>2690</ele>
<time>2016-07-28T11:08:17Z</time>
</trkpt>
<trkpt lat="37.00417709350586" lon="-118.8834457397461">
<ele>2690</ele>
<time>2016-07-28T11:08:23Z</time>
</trkpt>
<trkpt lat="37.00423049926758" lon="-118.88333892822266">
<ele>2690</ele>
<time>2016-07-28T11:08:33Z</time>
</trkpt>
<trkpt lat="37.004241943359375" lon="-118.88327026367188">
<ele>2694</ele>
<time>2016-07-28T11:08:41Z</time>
</trkpt>
<trkpt lat="37.00425720214844" lon="-118.88321685791016">
<ele>2696</ele>
<time>2016-07-28T11:09:02Z</time>
</trkpt>
<trkpt lat="37.00428009033203" lon="-118.88311004638672">
<ele>2695</ele>
<time>2016-07-28T11:09:14Z</time>
</trkpt>
<trkpt lat="37.00428009033203" lon="-118.88304138183594">
<ele>2695</ele>
<time>2016-07-28T11:09:22Z</time>
</trkpt>
<trkpt lat="37.00432586669922" lon="-118.88301849365234">
<ele>2695</ele>
<time>2016-07-28T11:09:31Z</time>
</trkpt>
<trkpt lat="37.00434875488281" lon="-118.88296508789063">
<ele>2700</ele>
<time>2016-07-28T11:09:41Z</time>
</trkpt>
<trkpt lat="37.00432586669922" lon="-118.8829116821289">
<ele>2699</ele>
<time>2016-07-28T11:09:47Z</time>
</trkpt>
<trkpt lat="37.004310607910156" lon="-118.88285064697266">
<ele>2699</ele>
<time>2016-07-28T11:10:03Z</time>
</trkpt>
<trkpt lat="37.0042610168457" lon="-118.88275146484375">
<ele>2698</ele>
<time>2016-07-28T11:10:15Z</time>
</trkpt>
<trkpt lat="37.00429153442383" lon="-118.88269805908203">
<ele>2704</ele>
<time>2016-07-28T11:10:41Z</time>
</trkpt>
<trkpt lat="37.00430679321289" lon="-118.88264465332031">
<ele>2705</ele>
<time>2016-07-28T11:10:47Z</time>
</trkpt>
<trkpt lat="37.00432586669922" lon="-118.8825912475586">
<ele>2704</ele>
<time>2016-07-28T11:10:54Z</time>
</trkpt>
<trkpt lat="37.00434494018555" lon="-118.88253021240234">
<ele>2703</ele>
<time>2016-07-28T11:11:16Z</time>
</trkpt>
<trkpt lat="37.00437545776367" lon="-118.88248443603516">
<ele>2703</ele>
<time>2016-07-28T11:11:22Z</time>
</trkpt>
<trkpt lat="37.004398345947266" lon="-118.88243103027344">
<ele>2702</ele>
<time>2016-07-28T11:11:28Z</time>
</trkpt>
<trkpt lat="37.004425048828125" lon="-118.88238525390625">
<ele>2705</ele>
<time>2016-07-28T11:11:36Z</time>
</trkpt>
<trkpt lat="37.00446701049805" lon="-118.88230895996094">
<ele>2702</ele>
<time>2016-07-28T11:11:49Z</time>
</trkpt>
<trkpt lat="37.00450134277344" lon="-118.88227081298828">
<ele>2700</ele>
<time>2016-07-28T11:11:56Z</time>
</trkpt>
<trkpt lat="37.004547119140625" lon="-118.88223266601563">
<ele>2701</ele>
<time>2016-07-28T11:12:05Z</time>
</trkpt>
<trkpt lat="37.00456237792969" lon="-118.8821792602539">
<ele>2704</ele>
<time>2016-07-28T11:12:19Z</time>
</trkpt>
<trkpt lat="37.004554748535156" lon="-118.88211059570313">
<ele>2702</ele>
<time>2016-07-28T11:12:26Z</time>
</trkpt>
<trkpt lat="37.00457763671875" lon="-118.88204956054688">
<ele>2702</ele>
<time>2016-07-28T11:12:32Z</time>
</trkpt>
<trkpt lat="37.004581451416016" lon="-118.88198852539063">
<ele>2703</ele>
<time>2016-07-28T11:12:38Z</time>
</trkpt>
<trkpt lat="37.004608154296875" lon="-118.88188934326172">
<ele>2705</ele>
<time>2016-07-28T11:12:46Z</time>
</trkpt>
<trkpt lat="37.004615783691406" lon="-118.88182830810547">
<ele>2704</ele>
<time>2016-07-28T11:12:52Z</time>
</trkpt>
<trkpt lat="37.00463104248047" lon="-118.8817138671875">
<ele>2704</ele>
<time>2016-07-28T11:13:01Z</time>
</trkpt>
<trkpt lat="37.004638671875" lon="-118.881591796875">
<ele>2706</ele>
<time>2016-07-28T11:13:09Z</time>
</trkpt>
<trkpt lat="37.0046501159668" lon="-118.8814697265625">
<ele>2705</ele>
<time>2016-07-28T11:13:19Z</time>
</trkpt>
<trkpt lat="37.004669189453125" lon="-118.88134765625">
<ele>2705</ele>
<time>2016-07-28T11:13:27Z</time>
</trkpt>
<trkpt lat="37.00468826293945" lon="-118.8812255859375">
<ele>2708</ele>
<time>2016-07-28T11:13:38Z</time>
</trkpt>
<trkpt lat="37.00470733642578" lon="-118.88114929199219">
<ele>2711</ele>
<time>2016-07-28T11:13:47Z</time>
</trkpt>
<trkpt lat="37.00465774536133" lon="-118.88114929199219">
<ele>2709</ele>
<time>2016-07-28T11:14:07Z</time>
</trkpt>
<trkpt lat="37.00458526611328" lon="-118.88108825683594">
<ele>2711</ele>
<time>2016-07-28T11:14:14Z</time>
</trkpt>
<trkpt lat="37.00453186035156" lon="-118.88097381591797">
<ele>2713</ele>
<time>2016-07-28T11:14:24Z</time>
</trkpt>
<trkpt lat="37.004486083984375" lon="-118.880859375">
<ele>2714</ele>
<time>2016-07-28T11:14:33Z</time>
</trkpt>
<trkpt lat="37.00448989868164" lon="-118.8807601928711">
<ele>2714</ele>
<time>2016-07-28T11:14:41Z</time>
</trkpt>
<trkpt lat="37.00447082519531" lon="-118.88064575195313">
<ele>2712</ele>
<time>2016-07-28T11:14:51Z</time>
</trkpt>
<trkpt lat="37.00444412231445" lon="-118.8805923461914">
<ele>2709</ele>
<time>2016-07-28T11:14:57Z</time>
</trkpt>
<trkpt lat="37.004425048828125" lon="-118.88053894042969">
<ele>2712</ele>
<time>2016-07-28T11:15:04Z</time>
</trkpt>
<trkpt lat="37.004417419433594" lon="-118.88040924072266">
<ele>2715</ele>
<time>2016-07-28T11:15:14Z</time>
</trkpt>
<trkpt lat="37.00443649291992" lon="-118.8803482055664">
<ele>2713</ele>
<time>2016-07-28T11:15:20Z</time>
</trkpt>
<trkpt lat="37.004432678222656" lon="-118.88021850585938">
<ele>2713</ele>
<time>2016-07-28T11:15:29Z</time>
</trkpt>
<trkpt lat="37.00442123413086" lon="-118.88016510009766">
<ele>2716</ele>
<time>2016-07-28T11:15:36Z</time>
</trkpt>
<trkpt lat="37.004390716552734" lon="-118.88006591796875">
<ele>2718</ele>
<time>2016-07-28T11:15:47Z</time>
</trkpt>
<trkpt lat="37.0043830871582" lon="-118.87994384765625">
<ele>2715</ele>
<time>2016-07-28T11:16:03Z</time>
</trkpt>
<trkpt lat="37.00440216064453" lon="-118.87982177734375">
<ele>2715</ele>
<time>2016-07-28T11:16:13Z</time>
</trkpt>
<trkpt lat="37.004459381103516" lon="-118.87972259521484">
<ele>2714</ele>
<time>2016-07-28T11:16:23Z</time>
</trkpt>
<trkpt lat="37.00454330444336" lon="-118.8796615600586">
<ele>2712</ele>
<time>2016-07-28T11:16:31Z</time>
</trkpt>
<trkpt lat="37.004539489746094" lon="-118.87960052490234">
<ele>2716</ele>
<time>2016-07-28T11:16:37Z</time>
</trkpt>
<trkpt lat="37.00450897216797" lon="-118.8794937133789">
<ele>2714</ele>
<time>2016-07-28T11:16:45Z</time>
</trkpt>
<trkpt lat="37.00447082519531" lon="-118.87937927246094">
<ele>2713</ele>
<time>2016-07-28T11:16:55Z</time>
</trkpt>
<trkpt lat="37.004417419433594" lon="-118.87925720214844">
<ele>2716</ele>
<time>2016-07-28T11:17:03Z</time>
</trkpt>
<trkpt lat="37.004432678222656" lon="-118.87914276123047">
<ele>2720</ele>
<time>2016-07-28T11:17:13Z</time>
</trkpt>
<trkpt lat="37.004425048828125" lon="-118.87908172607422">
<ele>2722</ele>
<time>2016-07-28T11:17:19Z</time>
</trkpt>
<trkpt lat="37.00441360473633" lon="-118.87902069091797">
<ele>2728</ele>
<time>2016-07-28T11:17:25Z</time>
</trkpt>
<trkpt lat="37.00442123413086" lon="-118.87889862060547">
<ele>2724</ele>
<time>2016-07-28T11:17:36Z</time>
</trkpt>
<trkpt lat="37.00450134277344" lon="-118.87882995605469">
<ele>2726</ele>
<time>2016-07-28T11:17:47Z</time>
</trkpt>
<trkpt lat="37.004547119140625" lon="-118.87879943847656">
<ele>2729</ele>
<time>2016-07-28T11:17:53Z</time>
</trkpt>
<trkpt lat="37.00457763671875" lon="-118.8787612915039">
<ele>2732</ele>
<time>2016-07-28T11:17:59Z</time>
</trkpt>
<trkpt lat="37.00463104248047" lon="-118.8787612915039">
<ele>2734</ele>
<time>2016-07-28T11:18:05Z</time>
</trkpt>
<trkpt lat="37.00471878051758" lon="-118.87874603271484">
<ele>2734</ele>
<time>2016-07-28T11:18:22Z</time>
</trkpt>
<trkpt lat="37.0047721862793" lon="-118.8786392211914">
<ele>2731</ele>
<time>2016-07-28T11:18:31Z</time>
</trkpt>
<trkpt lat="37.004791259765625" lon="-118.87858581542969">
<ele>2730</ele>
<time>2016-07-28T11:18:38Z</time>
</trkpt>
<trkpt lat="37.00476837158203" lon="-118.87850189208984">
<ele>2732</ele>
<time>2016-07-28T11:18:48Z</time>
</trkpt>
<trkpt lat="37.00479507446289" lon="-118.87845611572266">
<ele>2734</ele>
<time>2016-07-28T11:18:54Z</time>
</trkpt>
<trkpt lat="37.00478744506836" lon="-118.8783950805664">
<ele>2734</ele>
<time>2016-07-28T11:19:00Z</time>
</trkpt>
<trkpt lat="37.00479507446289" lon="-118.87832641601563">
<ele>2740</ele>
<time>2016-07-28T11:19:06Z</time>
</trkpt>
<trkpt lat="37.00476837158203" lon="-118.87822723388672">
<ele>2736</ele>
<time>2016-07-28T11:19:35Z</time>
</trkpt>
<trkpt lat="37.00478744506836" lon="-118.87814331054688">
<ele>2736</ele>
<time>2016-07-28T11:29:23Z</time>
</trkpt>
<trkpt lat="37.00480270385742" lon="-118.8780746459961">
<ele>2735</ele>
<time>2016-07-28T11:29:29Z</time>
</trkpt>
<trkpt lat="37.004852294921875" lon="-118.87797546386719">
<ele>2734</ele>
<time>2016-07-28T11:29:38Z</time>
</trkpt>
<trkpt lat="37.00482940673828" lon="-118.87789154052734">
<ele>2737</ele>
<time>2016-07-28T11:29:46Z</time>
</trkpt>
<trkpt lat="37.00486373901367" lon="-118.8777847290039">
<ele>2737</ele>
<time>2016-07-28T11:29:57Z</time>
</trkpt>
<trkpt lat="37.00489807128906" lon="-118.87767028808594">
<ele>2741</ele>
<time>2016-07-28T11:30:05Z</time>
</trkpt>
<trkpt lat="37.004920959472656" lon="-118.8775634765625">
<ele>2747</ele>
<time>2016-07-28T11:30:16Z</time>
</trkpt>
<trkpt lat="37.00493240356445" lon="-118.87749481201172">
<ele>2749</ele>
<time>2016-07-28T11:30:23Z</time>
</trkpt>
<trkpt lat="37.00493621826172" lon="-118.87737274169922">
<ele>2748</ele>
<time>2016-07-28T11:30:32Z</time>
</trkpt>
<trkpt lat="37.00493240356445" lon="-118.87723541259766">
<ele>2751</ele>
<time>2016-07-28T11:30:38Z</time>
</trkpt>
<trkpt lat="37.004886627197266" lon="-118.87712097167969">
<ele>2750</ele>
<time>2016-07-28T11:30:45Z</time>
</trkpt>
<trkpt lat="37.004825592041016" lon="-118.87702941894531">
<ele>2755</ele>
<time>2016-07-28T11:30:52Z</time>
</trkpt>
<trkpt lat="37.00480270385742" lon="-118.87690734863281">
<ele>2753</ele>
<time>2016-07-28T11:30:59Z</time>
</trkpt>
<trkpt lat="37.00483322143555" lon="-118.87682342529297">
<ele>2749</ele>
<time>2016-07-28T11:31:09Z</time>
</trkpt>
<trkpt lat="37.00481414794922" lon="-118.87669372558594">
<ele>2745</ele>
<time>2016-07-28T11:31:18Z</time>
</trkpt>
<trkpt lat="37.004791259765625" lon="-118.87657928466797">
<ele>2751</ele>
<time>2016-07-28T11:31:35Z</time>
</trkpt>
<trkpt lat="37.0047721862793" lon="-118.87650299072266">
<ele>2753</ele>
<time>2016-07-28T11:31:41Z</time>
</trkpt>
<trkpt lat="37.00473403930664" lon="-118.87638854980469">
<ele>2754</ele>
<time>2016-07-28T11:31:50Z</time>
</trkpt>
<trkpt lat="37.004676818847656" lon="-118.87628936767578">
<ele>2754</ele>
<time>2016-07-28T11:31:58Z</time>
</trkpt>
<trkpt lat="37.004661560058594" lon="-118.87622833251953">
<ele>2755</ele>
<time>2016-07-28T11:32:04Z</time>
</trkpt>
<trkpt lat="37.0046501159668" lon="-118.8760986328125">
<ele>2756</ele>
<time>2016-07-28T11:32:12Z</time>
</trkpt>
<trkpt lat="37.004642486572266" lon="-118.87603759765625">
<ele>2756</ele>
<time>2016-07-28T11:32:18Z</time>
</trkpt>
<trkpt lat="37.00466537475586" lon="-118.87592315673828">
<ele>2753</ele>
<time>2016-07-28T11:32:29Z</time>
</trkpt>
<trkpt lat="37.00467300415039" lon="-118.87586212158203">
<ele>2752</ele>
<time>2016-07-28T11:32:35Z</time>
</trkpt>
<trkpt lat="37.004661560058594" lon="-118.87580108642578">
<ele>2756</ele>
<time>2016-07-28T11:32:41Z</time>
</trkpt>
<trkpt lat="37.004661560058594" lon="-118.87574005126953">
<ele>2757</ele>
<time>2016-07-28T11:32:48Z</time>
</trkpt>
<trkpt lat="37.00460433959961" lon="-118.87562561035156">
<ele>2758</ele>
<time>2016-07-28T11:32:58Z</time>
</trkpt>
<trkpt lat="37.00458908081055" lon="-118.87549591064453">
<ele>2759</ele>
<time>2016-07-28T11:33:06Z</time>
</trkpt>
<trkpt lat="37.004520416259766" lon="-118.87541198730469">
<ele>2760</ele>
<time>2016-07-28T11:33:12Z</time>
</trkpt>
<trkpt lat="37.00446701049805" lon="-118.87529754638672">
<ele>2757</ele>
<time>2016-07-28T11:33:21Z</time>
</trkpt>
<trkpt lat="37.00444793701172" lon="-118.87517547607422">
<ele>2761</ele>
<time>2016-07-28T11:33:28Z</time>
</trkpt>
<trkpt lat="37.00440979003906" lon="-118.87505340576172">
<ele>2760</ele>
<time>2016-07-28T11:33:36Z</time>
</trkpt>
<trkpt lat="37.004398345947266" lon="-118.87491607666016">
<ele>2768</ele>
<time>2016-07-28T11:33:45Z</time>
</trkpt>
<trkpt lat="37.004356384277344" lon="-118.87479400634766">
<ele>2766</ele>
<time>2016-07-28T11:33:53Z</time>
</trkpt>
<trkpt lat="37.00432205200195" lon="-118.87467956542969">
<ele>2767</ele>
<time>2016-07-28T11:34:01Z</time>
</trkpt>
<trkpt lat="37.004295349121094" lon="-118.87457275390625">
<ele>2771</ele>
<time>2016-07-28T11:34:08Z</time>
</trkpt>
<trkpt lat="37.0042610168457" lon="-118.87445831298828">
<ele>2770</ele>
<time>2016-07-28T11:34:16Z</time>
</trkpt>
<trkpt lat="37.004234313964844" lon="-118.87433624267578">
<ele>2763</ele>
<time>2016-07-28T11:34:29Z</time>
</trkpt>
<trkpt lat="37.00421905517578" lon="-118.87422180175781">
<ele>2767</ele>
<time>2016-07-28T11:34:37Z</time>
</trkpt>
<trkpt lat="37.00423812866211" lon="-118.87408447265625">
<ele>2768</ele>
<time>2016-07-28T11:34:45Z</time>
</trkpt>
<trkpt lat="37.00419235229492" lon="-118.87397766113281">
<ele>2768</ele>
<time>2016-07-28T11:34:51Z</time>
</trkpt>
<trkpt lat="37.00416564941406" lon="-118.87387084960938">
<ele>2768</ele>
<time>2016-07-28T11:34:59Z</time>
</trkpt>
<trkpt lat="37.00418472290039" lon="-118.87374114990234">
<ele>2769</ele>
<time>2016-07-28T11:35:08Z</time>
</trkpt>
<trkpt lat="37.00421905517578" lon="-118.87370300292969">
<ele>2770</ele>
<time>2016-07-28T11:35:14Z</time>
</trkpt>
<trkpt lat="37.00429916381836" lon="-118.87364196777344">
<ele>2770</ele>
<time>2016-07-28T11:35:23Z</time>
</trkpt>
<trkpt lat="37.004302978515625" lon="-118.87355041503906">
<ele>2763</ele>
<time>2016-07-28T11:35:47Z</time>
</trkpt>
<trkpt lat="37.004356384277344" lon="-118.8734359741211">
<ele>2762</ele>
<time>2016-07-28T11:35:56Z</time>
</trkpt>
<trkpt lat="37.00439453125" lon="-118.8733139038086">
<ele>2759</ele>
<time>2016-07-28T11:36:03Z</time>
</trkpt>
<trkpt lat="37.00439453125" lon="-118.87318420410156">
<ele>2755</ele>
<time>2016-07-28T11:36:12Z</time>
</trkpt>
<trkpt lat="37.00444030761719" lon="-118.8730697631836">
<ele>2757</ele>
<time>2016-07-28T11:36:20Z</time>
</trkpt>
<trkpt lat="37.0045051574707" lon="-118.8729476928711">
<ele>2763</ele>
<time>2016-07-28T11:36:26Z</time>
</trkpt>
<trkpt lat="37.004581451416016" lon="-118.87284088134766">
<ele>2768</ele>
<time>2016-07-28T11:36:32Z</time>
</trkpt>
<trkpt lat="37.004615783691406" lon="-118.87279510498047">
<ele>2772</ele>
<time>2016-07-28T11:36:38Z</time>
</trkpt>
<trkpt lat="37.00466537475586" lon="-118.87271881103516">
<ele>2773</ele>
<time>2016-07-28T11:36:46Z</time>
</trkpt>
<trkpt lat="37.00468063354492" lon="-118.8726577758789">
<ele>2772</ele>
<time>2016-07-28T11:36:52Z</time>
</trkpt>
<trkpt lat="37.00474166870117" lon="-118.87255859375">
<ele>2770</ele>
<time>2016-07-28T11:36:59Z</time>
</trkpt>
<trkpt lat="37.0047607421875" lon="-118.87242126464844">
<ele>2767</ele>
<time>2016-07-28T11:37:07Z</time>
</trkpt>
<trkpt lat="37.00483322143555" lon="-118.872314453125">
<ele>2766</ele>
<time>2016-07-28T11:37:15Z</time>
</trkpt>
<trkpt lat="37.00485610961914" lon="-118.8721923828125">
<ele>2766</ele>
<time>2016-07-28T11:37:23Z</time>
</trkpt>
<trkpt lat="37.004886627197266" lon="-118.87208557128906">
<ele>2763</ele>
<time>2016-07-28T11:37:33Z</time>
</trkpt>
<trkpt lat="37.00492858886719" lon="-118.87197875976563">
<ele>2763</ele>
<time>2016-07-28T11:37:41Z</time>
</trkpt>
<trkpt lat="37.00492858886719" lon="-118.87191772460938">
<ele>2762</ele>
<time>2016-07-28T11:37:47Z</time>
</trkpt>
<trkpt lat="37.00492858886719" lon="-118.87179565429688">
<ele>2762</ele>
<time>2016-07-28T11:37:59Z</time>
</trkpt>
<trkpt lat="37.00490188598633" lon="-118.87169647216797">
<ele>2766</ele>
<time>2016-07-28T11:38:14Z</time>
</trkpt>
<trkpt lat="37.00489807128906" lon="-118.87158966064453">
<ele>2776</ele>
<time>2016-07-28T11:38:53Z</time>
</trkpt>
<trkpt lat="37.004905700683594" lon="-118.87152862548828">
<ele>2773</ele>
<time>2016-07-28T11:38:59Z</time>
</trkpt>
<trkpt lat="37.00492477416992" lon="-118.87146759033203">
<ele>2773</ele>
<time>2016-07-28T11:39:05Z</time>
</trkpt>
<trkpt lat="37.00491714477539" lon="-118.87140655517578">
<ele>2773</ele>
<time>2016-07-28T11:39:11Z</time>
</trkpt>
<trkpt lat="37.004966735839844" lon="-118.87129211425781">
<ele>2776</ele>
<time>2016-07-28T11:39:21Z</time>
</trkpt>
<trkpt lat="37.00503158569336" lon="-118.87125396728516">
<ele>2780</ele>
<time>2016-07-28T11:39:41Z</time>
</trkpt>
<trkpt lat="37.00503158569336" lon="-118.8711929321289">
<ele>2780</ele>
<time>2016-07-28T11:39:50Z</time>
</trkpt>
<trkpt lat="37.005043029785156" lon="-118.87112426757813">
<ele>2779</ele>
<time>2016-07-28T11:39:58Z</time>
</trkpt>
<trkpt lat="37.00505828857422" lon="-118.8710708618164">
<ele>2776</ele>
<time>2016-07-28T11:40:05Z</time>
</trkpt>
<trkpt lat="37.005096435546875" lon="-118.87095642089844">
<ele>2775</ele>
<time>2016-07-28T11:40:13Z</time>
</trkpt>
<trkpt lat="37.0051155090332" lon="-118.87084197998047">
<ele>2774</ele>
<time>2016-07-28T11:40:22Z</time>
</trkpt>
<trkpt lat="37.005027770996094" lon="-118.87075805664063">
<ele>2779</ele>
<time>2016-07-28T11:40:31Z</time>
</trkpt>
<trkpt lat="37.00501251220703" lon="-118.87063598632813">
<ele>2781</ele>
<time>2016-07-28T11:40:40Z</time>
</trkpt>
<trkpt lat="37.00503158569336" lon="-118.87056732177734">
<ele>2785</ele>
<time>2016-07-28T11:40:48Z</time>
</trkpt>
<trkpt lat="37.00505447387695" lon="-118.87051391601563">
<ele>2787</ele>
<time>2016-07-28T11:41:02Z</time>
</trkpt>
<trkpt lat="37.00503921508789" lon="-118.87041473388672">
<ele>2793</ele>
<time>2016-07-28T11:41:20Z</time>
</trkpt>
<trkpt lat="37.00505447387695" lon="-118.87028503417969">
<ele>2791</ele>
<time>2016-07-28T11:41:29Z</time>
</trkpt>
<trkpt lat="37.005123138427734" lon="-118.87017822265625">
<ele>2790</ele>
<time>2016-07-28T11:41:39Z</time>
</trkpt>
<trkpt lat="37.00518035888672" lon="-118.87013244628906">
<ele>2793</ele>
<time>2016-07-28T11:41:50Z</time>
</trkpt>
<trkpt lat="37.00518035888672" lon="-118.87006378173828">
<ele>2793</ele>
<time>2016-07-28T11:41:57Z</time>
</trkpt>
<trkpt lat="37.005184173583984" lon="-118.86994934082031">
<ele>2799</ele>
<time>2016-07-28T11:42:07Z</time>
</trkpt>
<trkpt lat="37.005191802978516" lon="-118.86988830566406">
<ele>2803</ele>
<time>2016-07-28T11:42:13Z</time>
</trkpt>
<trkpt lat="37.00518798828125" lon="-118.8697738647461">
<ele>2803</ele>
<time>2016-07-28T11:42:22Z</time>
</trkpt>
<trkpt lat="37.005184173583984" lon="-118.86963653564453">
<ele>2800</ele>
<time>2016-07-28T11:42:33Z</time>
</trkpt>
<trkpt lat="37.005210876464844" lon="-118.86955261230469">
<ele>2801</ele>
<time>2016-07-28T11:42:41Z</time>
</trkpt>
<trkpt lat="37.005191802978516" lon="-118.86949157714844">
<ele>2801</ele>
<time>2016-07-28T11:42:48Z</time>
</trkpt>
<trkpt lat="37.00520706176758" lon="-118.86943817138672">
<ele>2802</ele>
<time>2016-07-28T11:42:56Z</time>
</trkpt>
<trkpt lat="37.00519561767578" lon="-118.86937713623047">
<ele>2802</ele>
<time>2016-07-28T11:43:06Z</time>
</trkpt>
<trkpt lat="37.00517654418945" lon="-118.86930847167969">
<ele>2803</ele>
<time>2016-07-28T11:43:12Z</time>
</trkpt>
<trkpt lat="37.005126953125" lon="-118.86920928955078">
<ele>2802</ele>
<time>2016-07-28T11:43:21Z</time>
</trkpt>
<trkpt lat="37.00509262084961" lon="-118.86908721923828">
<ele>2800</ele>
<time>2016-07-28T11:43:31Z</time>
</trkpt>
<trkpt lat="37.005096435546875" lon="-118.86902618408203">
<ele>2800</ele>
<time>2016-07-28T11:43:37Z</time>
</trkpt>
<trkpt lat="37.005165100097656" lon="-118.86893463134766">
<ele>2803</ele>
<time>2016-07-28T11:43:46Z</time>
</trkpt>
<trkpt lat="37.005252838134766" lon="-118.86886596679688">
<ele>2803</ele>
<time>2016-07-28T11:43:55Z</time>
</trkpt>
<trkpt lat="37.005252838134766" lon="-118.8687515258789">
<ele>2804</ele>
<time>2016-07-28T11:44:04Z</time>
</trkpt>
<trkpt lat="37.00529479980469" lon="-118.86865234375">
<ele>2808</ele>
<time>2016-07-28T11:44:19Z</time>
</trkpt>
<trkpt lat="37.00534439086914" lon="-118.86864471435547">
<ele>2802</ele>
<time>2016-07-28T11:44:26Z</time>
</trkpt>
<trkpt lat="37.00542068481445" lon="-118.86856842041016">
<ele>2805</ele>
<time>2016-07-28T11:44:36Z</time>
</trkpt>
<trkpt lat="37.005516052246094" lon="-118.86852264404297">
<ele>2806</ele>
<time>2016-07-28T11:44:47Z</time>
</trkpt>
<trkpt lat="37.00555419921875" lon="-118.86847686767578">
<ele>2805</ele>
<time>2016-07-28T11:44:54Z</time>
</trkpt>
<trkpt lat="37.00563049316406" lon="-118.868408203125">
<ele>2811</ele>
<time>2016-07-28T11:45:06Z</time>
</trkpt>
<trkpt lat="37.00559997558594" lon="-118.8683090209961">
<ele>2809</ele>
<time>2016-07-28T11:45:16Z</time>
</trkpt>
<trkpt lat="37.00564956665039" lon="-118.86829376220703">
<ele>2810</ele>
<time>2016-07-28T11:45:31Z</time>
</trkpt>
<trkpt lat="37.00572204589844" lon="-118.86821746826172">
<ele>2812</ele>
<time>2016-07-28T11:45:40Z</time>
</trkpt>
<trkpt lat="37.005741119384766" lon="-118.86814880371094">
<ele>2816</ele>
<time>2016-07-28T11:45:47Z</time>
</trkpt>
<trkpt lat="37.00577926635742" lon="-118.8680419921875">
<ele>2818</ele>
<time>2016-07-28T11:45:57Z</time>
</trkpt>
<trkpt lat="37.00581741333008" lon="-118.86793518066406">
<ele>2817</ele>
<time>2016-07-28T11:46:06Z</time>
</trkpt>
<trkpt lat="37.00587463378906" lon="-118.86783599853516">
<ele>2814</ele>
<time>2016-07-28T11:46:15Z</time>
</trkpt>
<trkpt lat="37.005897521972656" lon="-118.86778259277344">
<ele>2811</ele>
<time>2016-07-28T11:46:21Z</time>
</trkpt>
<trkpt lat="37.00598907470703" lon="-118.86773681640625">
<ele>2814</ele>
<time>2016-07-28T11:46:30Z</time>
</trkpt>
<trkpt lat="37.00605010986328" lon="-118.86763000488281">
<ele>2820</ele>
<time>2016-07-28T11:46:40Z</time>
</trkpt>
<trkpt lat="37.006126403808594" lon="-118.86753845214844">
<ele>2818</ele>
<time>2016-07-28T11:46:50Z</time>
</trkpt>
<trkpt lat="37.00615310668945" lon="-118.86748504638672">
<ele>2819</ele>
<time>2016-07-28T11:46:56Z</time>
</trkpt>
<trkpt lat="37.0062370300293" lon="-118.8674087524414">
<ele>2823</ele>
<time>2016-07-28T11:47:04Z</time>
</trkpt>
<trkpt lat="37.006309509277344" lon="-118.86732482910156">
<ele>2821</ele>
<time>2016-07-28T11:47:11Z</time>
</trkpt>
<trkpt lat="37.006343841552734" lon="-118.86727142333984">
<ele>2819</ele>
<time>2016-07-28T11:47:17Z</time>
</trkpt>
<trkpt lat="37.00639343261719" lon="-118.86725616455078">
<ele>2818</ele>
<time>2016-07-28T11:47:23Z</time>
</trkpt>
<trkpt lat="37.006473541259766" lon="-118.8671875">
<ele>2822</ele>
<time>2016-07-28T11:47:32Z</time>
</trkpt>
<trkpt lat="37.00656509399414" lon="-118.86721801757813">
<ele>2823</ele>
<time>2016-07-28T11:47:39Z</time>
</trkpt>
<trkpt lat="37.00664520263672" lon="-118.86723327636719">
<ele>2828</ele>
<time>2016-07-28T11:47:45Z</time>
</trkpt>
<trkpt lat="37.00674819946289" lon="-118.86721801757813">
<ele>2828</ele>
<time>2016-07-28T11:47:59Z</time>
</trkpt>
<trkpt lat="37.00679016113281" lon="-118.86719512939453">
<ele>2826</ele>
<time>2016-07-28T11:48:08Z</time>
</trkpt>
<trkpt lat="37.00682830810547" lon="-118.8671646118164">
<ele>2829</ele>
<time>2016-07-28T11:48:24Z</time>
</trkpt>
<trkpt lat="37.006874084472656" lon="-118.86705017089844">
<ele>2827</ele>
<time>2016-07-28T11:48:30Z</time>
</trkpt>
<trkpt lat="37.00695037841797" lon="-118.8669662475586">
<ele>2830</ele>
<time>2016-07-28T11:48:37Z</time>
</trkpt>
<trkpt lat="37.00701904296875" lon="-118.86688232421875">
<ele>2831</ele>
<time>2016-07-28T11:48:45Z</time>
</trkpt>
<trkpt lat="37.007057189941406" lon="-118.86683654785156">
<ele>2834</ele>
<time>2016-07-28T11:48:51Z</time>
</trkpt>
<trkpt lat="37.00715255737305" lon="-118.8667984008789">
<ele>2833</ele>
<time>2016-07-28T11:48:59Z</time>
</trkpt>
<trkpt lat="37.00721740722656" lon="-118.86669921875">
<ele>2832</ele>
<time>2016-07-28T11:49:09Z</time>
</trkpt>
<trkpt lat="37.0073127746582" lon="-118.86663818359375">
<ele>2831</ele>
<time>2016-07-28T11:49:19Z</time>
</trkpt>
<trkpt lat="37.00740432739258" lon="-118.86656951904297">
<ele>2829</ele>
<time>2016-07-28T11:49:29Z</time>
</trkpt>
<trkpt lat="37.00747299194336" lon="-118.86647033691406">
<ele>2830</ele>
<time>2016-07-28T11:49:37Z</time>
</trkpt>
<trkpt lat="37.00753402709961" lon="-118.86636352539063">
<ele>2829</ele>
<time>2016-07-28T11:49:45Z</time>
</trkpt>
<trkpt lat="37.00753402709961" lon="-118.86624145507813">
<ele>2827</ele>
<time>2016-07-28T11:49:53Z</time>
</trkpt>
<trkpt lat="37.00758743286133" lon="-118.86613464355469">
<ele>2828</ele>
<time>2016-07-28T11:50:00Z</time>
</trkpt>
<trkpt lat="37.00763702392578" lon="-118.86604309082031">
<ele>2828</ele>
<time>2016-07-28T11:50:06Z</time>
</trkpt>
<trkpt lat="37.00770950317383" lon="-118.8659896850586">
<ele>2828</ele>
<time>2016-07-28T11:50:16Z</time>
</trkpt>
<trkpt lat="37.00778579711914" lon="-118.86590576171875">
<ele>2823</ele>
<time>2016-07-28T11:50:25Z</time>
</trkpt>
<trkpt lat="37.00787353515625" lon="-118.8658218383789">
<ele>2820</ele>
<time>2016-07-28T11:50:33Z</time>
</trkpt>
<trkpt lat="37.00791931152344" lon="-118.86570739746094">
<ele>2820</ele>
<time>2016-07-28T11:50:40Z</time>
</trkpt>
<trkpt lat="37.00802993774414" lon="-118.86568450927734">
<ele>2820</ele>
<time>2016-07-28T11:50:48Z</time>
</trkpt>
<trkpt lat="37.008121490478516" lon="-118.86564636230469">
<ele>2818</ele>
<time>2016-07-28T11:50:57Z</time>
</trkpt>
<trkpt lat="37.00811767578125" lon="-118.86558532714844">
<ele>2819</ele>
<time>2016-07-28T11:51:08Z</time>
</trkpt>
<trkpt lat="37.0080451965332" lon="-118.8655014038086">
<ele>2825</ele>
<time>2016-07-28T11:51:15Z</time>
</trkpt>
<trkpt lat="37.00804138183594" lon="-118.86538696289063">
<ele>2823</ele>
<time>2016-07-28T11:51:22Z</time>
</trkpt>
<trkpt lat="37.00807189941406" lon="-118.8652572631836">
<ele>2826</ele>
<time>2016-07-28T11:51:30Z</time>
</trkpt>
<trkpt lat="37.00811767578125" lon="-118.86515045166016">
<ele>2823</ele>
<time>2016-07-28T11:51:38Z</time>
</trkpt>
<trkpt lat="37.00812530517578" lon="-118.86503601074219">
<ele>2824</ele>
<time>2016-07-28T11:51:45Z</time>
</trkpt>
<trkpt lat="37.0081901550293" lon="-118.86492919921875">
<ele>2825</ele>
<time>2016-07-28T11:51:52Z</time>
</trkpt>
<trkpt lat="37.00819778442383" lon="-118.86480712890625">
<ele>2829</ele>
<time>2016-07-28T11:52:00Z</time>
</trkpt>
<trkpt lat="37.00824737548828" lon="-118.8647232055664">
<ele>2832</ele>
<time>2016-07-28T11:52:11Z</time>
</trkpt>
<trkpt lat="37.0082893371582" lon="-118.86470031738281">
<ele>2833</ele>
<time>2016-07-28T11:52:20Z</time>
</trkpt>
<trkpt lat="37.00832748413086" lon="-118.86465454101563">
<ele>2832</ele>
<time>2016-07-28T11:52:27Z</time>
</trkpt>
<trkpt lat="37.00840377807617" lon="-118.86457824707031">
<ele>2831</ele>
<time>2016-07-28T11:52:37Z</time>
</trkpt>
<trkpt lat="37.008487701416016" lon="-118.86454010009766">
<ele>2834</ele>
<time>2016-07-28T11:52:46Z</time>
</trkpt>
<trkpt lat="37.00852966308594" lon="-118.86450958251953">
<ele>2834</ele>
<time>2016-07-28T11:52:53Z</time>
</trkpt>
<trkpt lat="37.008567810058594" lon="-118.86441802978516">
<ele>2835</ele>
<time>2016-07-28T11:53:02Z</time>
</trkpt>
<trkpt lat="37.00857925415039" lon="-118.86429595947266">
<ele>2835</ele>
<time>2016-07-28T11:53:13Z</time>
</trkpt>
<trkpt lat="37.008575439453125" lon="-118.86424255371094">
<ele>2838</ele>
<time>2016-07-28T11:53:19Z</time>
</trkpt>
<trkpt lat="37.00858688354492" lon="-118.86417388916016">
<ele>2838</ele>
<time>2016-07-28T11:53:26Z</time>
</trkpt>
<trkpt lat="37.008628845214844" lon="-118.86415100097656">
<ele>2843</ele>
<time>2016-07-28T11:53:39Z</time>
</trkpt>
<trkpt lat="37.00865936279297" lon="-118.86408233642578">
<ele>2846</ele>
<time>2016-07-28T11:53:46Z</time>
</trkpt>
<trkpt lat="37.00870895385742" lon="-118.86398315429688">
<ele>2844</ele>
<time>2016-07-28T11:53:55Z</time>
</trkpt>
<trkpt lat="37.00873565673828" lon="-118.86393737792969">
<ele>2844</ele>
<time>2016-07-28T11:54:07Z</time>
</trkpt>
<trkpt lat="37.00875473022461" lon="-118.86387634277344">
<ele>2840</ele>
<time>2016-07-28T11:54:33Z</time>
</trkpt>
<trkpt lat="37.00876998901367" lon="-118.86381530761719">
<ele>2843</ele>
<time>2016-07-28T11:54:39Z</time>
</trkpt>
<trkpt lat="37.0087776184082" lon="-118.86373138427734">
<ele>2843</ele>
<time>2016-07-28T11:54:46Z</time>
</trkpt>
<trkpt lat="37.008811950683594" lon="-118.86367797851563">
<ele>2849</ele>
<time>2016-07-28T11:54:52Z</time>
</trkpt>
<trkpt lat="37.00883483886719" lon="-118.8636245727539">
<ele>2850</ele>
<time>2016-07-28T11:54:58Z</time>
</trkpt>
<trkpt lat="37.00886154174805" lon="-118.86357116699219">
<ele>2852</ele>
<time>2016-07-28T11:55:04Z</time>
</trkpt>
<trkpt lat="37.00889587402344" lon="-118.863525390625">
<ele>2852</ele>
<time>2016-07-28T11:55:13Z</time>
</trkpt>
<trkpt lat="37.00889587402344" lon="-118.86346435546875">
<ele>2851</ele>
<time>2016-07-28T11:55:21Z</time>
</trkpt>
<trkpt lat="37.00889205932617" lon="-118.86334228515625">
<ele>2850</ele>
<time>2016-07-28T11:55:31Z</time>
</trkpt>
<trkpt lat="37.008846282958984" lon="-118.86322784423828">
<ele>2850</ele>
<time>2016-07-28T11:55:40Z</time>
</trkpt>
<trkpt lat="37.00880813598633" lon="-118.86317443847656">
<ele>2848</ele>
<time>2016-07-28T11:55:47Z</time>
</trkpt>
<trkpt lat="37.00879669189453" lon="-118.86311340332031">
<ele>2849</ele>
<time>2016-07-28T11:55:55Z</time>
</trkpt>
<trkpt lat="37.00883483886719" lon="-118.86307525634766">
<ele>2847</ele>
<time>2016-07-28T11:56:02Z</time>
</trkpt>
<trkpt lat="37.008880615234375" lon="-118.86309051513672">
<ele>2852</ele>
<time>2016-07-28T11:56:27Z</time>
</trkpt>
<trkpt lat="37.00895690917969" lon="-118.86302185058594">
<ele>2856</ele>
<time>2016-07-28T11:56:38Z</time>
</trkpt>
<trkpt lat="37.008907318115234" lon="-118.86299133300781">
<ele>2852</ele>
<time>2016-07-28T11:56:55Z</time>
</trkpt>
<trkpt lat="37.00885772705078" lon="-118.8628921508789">
<ele>2855</ele>
<time>2016-07-28T11:57:08Z</time>
</trkpt>
<trkpt lat="37.00885009765625" lon="-118.86283111572266">
<ele>2857</ele>
<time>2016-07-28T11:57:15Z</time>
</trkpt>
<trkpt lat="37.008853912353516" lon="-118.86277770996094">
<ele>2855</ele>
<time>2016-07-28T11:57:22Z</time>
</trkpt>
<trkpt lat="37.00885772705078" lon="-118.86271667480469">
<ele>2854</ele>
<time>2016-07-28T11:57:30Z</time>
</trkpt>
<trkpt lat="37.00889587402344" lon="-118.86267852783203">
<ele>2852</ele>
<time>2016-07-28T11:57:40Z</time>
</trkpt>
<trkpt lat="37.008888244628906" lon="-118.86261749267578">
<ele>2859</ele>
<time>2016-07-28T11:57:55Z</time>
</trkpt>
<trkpt lat="37.00886535644531" lon="-118.86250305175781">
<ele>2862</ele>
<time>2016-07-28T11:58:06Z</time>
</trkpt>
<trkpt lat="37.008846282958984" lon="-118.86244201660156">
<ele>2867</ele>
<time>2016-07-28T11:58:26Z</time>
</trkpt>
<trkpt lat="37.00885772705078" lon="-118.8623275756836">
<ele>2866</ele>
<time>2016-07-28T11:58:36Z</time>
</trkpt>
<trkpt lat="37.00885009765625" lon="-118.86222076416016">
<ele>2870</ele>
<time>2016-07-28T11:58:47Z</time>
</trkpt>
<trkpt lat="37.00883483886719" lon="-118.86216735839844">
<ele>2867</ele>
<time>2016-07-28T11:58:56Z</time>
</trkpt>
<trkpt lat="37.00885772705078" lon="-118.86210632324219">
<ele>2869</ele>
<time>2016-07-28T11:59:02Z</time>
</trkpt>
<trkpt lat="37.00883865356445" lon="-118.86204528808594">
<ele>2868</ele>
<time>2016-07-28T11:59:09Z</time>
</trkpt>
<trkpt lat="37.00883865356445" lon="-118.86198425292969">
<ele>2869</ele>
<time>2016-07-28T11:59:15Z</time>
</trkpt>
<trkpt lat="37.00883865356445" lon="-118.86193084716797">
<ele>2870</ele>
<time>2016-07-28T11:59:21Z</time>
</trkpt>
<trkpt lat="37.00884246826172" lon="-118.86186981201172">
<ele>2872</ele>
<time>2016-07-28T11:59:32Z</time>
</trkpt>
<trkpt lat="37.00883865356445" lon="-118.86178588867188">
<ele>2874</ele>
<time>2016-07-28T11:59:59Z</time>
</trkpt>
<trkpt lat="37.00885772705078" lon="-118.86173248291016">
<ele>2876</ele>
<time>2016-07-28T12:00:06Z</time>
</trkpt>
<trkpt lat="37.00886535644531" lon="-118.8616714477539">
<ele>2877</ele>
<time>2016-07-28T12:00:23Z</time>
</trkpt>
<trkpt lat="37.00889205932617" lon="-118.86162567138672">
<ele>2875</ele>
<time>2016-07-28T12:00:41Z</time>
</trkpt>
<trkpt lat="37.008934020996094" lon="-118.86158752441406">
<ele>2875</ele>
<time>2016-07-28T12:00:50Z</time>
</trkpt>
<trkpt lat="37.008975982666016" lon="-118.86155700683594">
<ele>2876</ele>
<time>2016-07-28T12:00:57Z</time>
</trkpt>
<trkpt lat="37.00898742675781" lon="-118.86149597167969">
<ele>2877</ele>
<time>2016-07-28T12:01:06Z</time>
</trkpt>
<trkpt lat="37.00896453857422" lon="-118.86138153076172">
<ele>2884</ele>
<time>2016-07-28T12:01:18Z</time>
</trkpt>
<trkpt lat="37.00893783569336" lon="-118.86132049560547">
<ele>2885</ele>
<time>2016-07-28T12:01:24Z</time>
</trkpt>
<trkpt lat="37.00890350341797" lon="-118.86128234863281">
<ele>2886</ele>
<time>2016-07-28T12:01:30Z</time>
</trkpt>
<trkpt lat="37.008880615234375" lon="-118.86122131347656">
<ele>2886</ele>
<time>2016-07-28T12:01:36Z</time>
</trkpt>
<trkpt lat="37.00888442993164" lon="-118.86109924316406">
<ele>2886</ele>
<time>2016-07-28T12:01:49Z</time>
</trkpt>
<trkpt lat="37.00885009765625" lon="-118.86105346679688">
<ele>2888</ele>
<time>2016-07-28T12:01:56Z</time>
</trkpt>
<trkpt lat="37.008811950683594" lon="-118.86101531982422">
<ele>2885</ele>
<time>2016-07-28T12:02:03Z</time>
</trkpt>
<trkpt lat="37.00883102416992" lon="-118.8609619140625">
<ele>2885</ele>
<time>2016-07-28T12:02:16Z</time>
</trkpt>
<trkpt lat="37.008792877197266" lon="-118.86087036132813">
<ele>2890</ele>
<time>2016-07-28T12:02:52Z</time>
</trkpt>
<trkpt lat="37.00875473022461" lon="-118.86083984375">
<ele>2888</ele>
<time>2016-07-28T12:02:59Z</time>
</trkpt>
<trkpt lat="37.008724212646484" lon="-118.8607177734375">
<ele>2891</ele>
<time>2016-07-28T12:03:09Z</time>
</trkpt>
<trkpt lat="37.00872802734375" lon="-118.86066436767578">
<ele>2893</ele>
<time>2016-07-28T12:03:17Z</time>
</trkpt>
<trkpt lat="37.008705139160156" lon="-118.86061096191406">
<ele>2892</ele>
<time>2016-07-28T12:03:24Z</time>
</trkpt>
<trkpt lat="37.00869369506836" lon="-118.86055755615234">
<ele>2894</ele>
<time>2016-07-28T12:03:32Z</time>
</trkpt>
<trkpt lat="37.008689880371094" lon="-118.8604965209961">
<ele>2895</ele>
<time>2016-07-28T12:03:38Z</time>
</trkpt>
<trkpt lat="37.0086669921875" lon="-118.86039733886719">
<ele>2897</ele>
<time>2016-07-28T12:03:47Z</time>
</trkpt>
<trkpt lat="37.00859451293945" lon="-118.86031341552734">
<ele>2898</ele>
<time>2016-07-28T12:03:58Z</time>
</trkpt>
<trkpt lat="37.008602142333984" lon="-118.86019134521484">
<ele>2894</ele>
<time>2016-07-28T12:04:23Z</time>
</trkpt>
<trkpt lat="37.008541107177734" lon="-118.86009216308594">
<ele>2901</ele>
<time>2016-07-28T12:04:33Z</time>
</trkpt>
<trkpt lat="37.00855255126953" lon="-118.86000061035156">
<ele>2906</ele>
<time>2016-07-28T12:04:57Z</time>
</trkpt>
<trkpt lat="37.008548736572266" lon="-118.85994720458984">
<ele>2906</ele>
<time>2016-07-28T12:05:03Z</time>
</trkpt>
<trkpt lat="37.00851821899414" lon="-118.85989379882813">
<ele>2908</ele>
<time>2016-07-28T12:05:10Z</time>
</trkpt>
<trkpt lat="37.008548736572266" lon="-118.85985565185547">
<ele>2905</ele>
<time>2016-07-28T12:05:27Z</time>
</trkpt>
<trkpt lat="37.00853729248047" lon="-118.85990905761719">
<ele>2900</ele>
<time>2016-07-28T12:07:29Z</time>
</trkpt>
<trkpt lat="37.008575439453125" lon="-118.8598403930664">
<ele>2907</ele>
<time>2016-07-28T12:09:01Z</time>
</trkpt>
</trkseg>
</trk>
<trk>
<name><![CDATA[07280512]]></name>
<number>3</number>
<extensions><topografix:color>ff000066</topografix:color></extensions>
<trkseg>
<trkpt lat="37.00834274291992" lon="-118.8590087890625">
<ele>2903</ele>
<time>2016-07-28T12:12:25Z</time>
</trkpt>
<trkpt lat="37.00835418701172" lon="-118.85895538330078">
<ele>2905</ele>
<time>2016-07-28T12:12:46Z</time>
</trkpt>
<trkpt lat="37.00832748413086" lon="-118.85883331298828">
<ele>2902</ele>
<time>2016-07-28T12:12:54Z</time>
</trkpt>
<trkpt lat="37.00828552246094" lon="-118.85873413085938">
<ele>2898</ele>
<time>2016-07-28T12:13:02Z</time>
</trkpt>
<trkpt lat="37.008262634277344" lon="-118.85861206054688">
<ele>2900</ele>
<time>2016-07-28T12:13:09Z</time>
</trkpt>
<trkpt lat="37.00824737548828" lon="-118.8585433959961">
<ele>2898</ele>
<time>2016-07-28T12:13:17Z</time>
</trkpt>
<trkpt lat="37.0081901550293" lon="-118.85843658447266">
<ele>2893</ele>
<time>2016-07-28T12:13:26Z</time>
</trkpt>
<trkpt lat="37.008155822753906" lon="-118.8582992553711">
<ele>2892</ele>
<time>2016-07-28T12:13:34Z</time>
</trkpt>
<trkpt lat="37.008174896240234" lon="-118.8581771850586">
<ele>2894</ele>
<time>2016-07-28T12:13:40Z</time>
</trkpt>
<trkpt lat="37.00816345214844" lon="-118.85810852050781">
<ele>2892</ele>
<time>2016-07-28T12:13:46Z</time>
</trkpt>
<trkpt lat="37.00809860229492" lon="-118.85803985595703">
<ele>2889</ele>
<time>2016-07-28T12:13:56Z</time>
</trkpt>
<trkpt lat="37.00804901123047" lon="-118.85794067382813">
<ele>2886</ele>
<time>2016-07-28T12:14:04Z</time>
</trkpt>
<trkpt lat="37.00800323486328" lon="-118.85783386230469">
<ele>2888</ele>
<time>2016-07-28T12:14:19Z</time>
</trkpt>
<trkpt lat="37.00797653198242" lon="-118.85778045654297">
<ele>2884</ele>
<time>2016-07-28T12:14:26Z</time>
</trkpt>
<trkpt lat="37.00792694091797" lon="-118.85768127441406">
<ele>2884</ele>
<time>2016-07-28T12:14:33Z</time>
</trkpt>
<trkpt lat="37.00784683227539" lon="-118.85759735107422">
<ele>2882</ele>
<time>2016-07-28T12:14:41Z</time>
</trkpt>
<trkpt lat="37.007774353027344" lon="-118.8575210571289">
<ele>2878</ele>
<time>2016-07-28T12:14:51Z</time>
</trkpt>
<trkpt lat="37.00772476196289" lon="-118.85752868652344">
<ele>2877</ele>
<time>2016-07-28T12:14:57Z</time>
</trkpt>
<trkpt lat="37.00764465332031" lon="-118.85747528076172">
<ele>2879</ele>
<time>2016-07-28T12:15:04Z</time>
</trkpt>
<trkpt lat="37.007591247558594" lon="-118.85736083984375">
<ele>2882</ele>
<time>2016-07-28T12:15:12Z</time>
</trkpt>
<trkpt lat="37.00749969482422" lon="-118.85730743408203">
<ele>2878</ele>
<time>2016-07-28T12:15:51Z</time>
</trkpt>
<trkpt lat="37.00740432739258" lon="-118.8573226928711">
<ele>2877</ele>
<time>2016-07-28T12:15:57Z</time>
</trkpt>
<trkpt lat="37.007293701171875" lon="-118.8573226928711">
<ele>2877</ele>
<time>2016-07-28T12:16:03Z</time>
</trkpt>
<trkpt lat="37.0071907043457" lon="-118.85726928710938">
<ele>2875</ele>
<time>2016-07-28T12:16:09Z</time>
</trkpt>
<trkpt lat="37.0070915222168" lon="-118.85724639892578">
<ele>2875</ele>
<time>2016-07-28T12:16:18Z</time>
</trkpt>
<trkpt lat="37.00703811645508" lon="-118.85723114013672">
<ele>2875</ele>
<time>2016-07-28T12:16:42Z</time>
</trkpt>
<trkpt lat="37.006935119628906" lon="-118.85720825195313">
<ele>2874</ele>
<time>2016-07-28T12:16:49Z</time>
</trkpt>
<trkpt lat="37.0068359375" lon="-118.857177734375">
<ele>2872</ele>
<time>2016-07-28T12:16:58Z</time>
</trkpt>
<trkpt lat="37.00679016113281" lon="-118.85714721679688">
<ele>2875</ele>
<time>2016-07-28T12:17:04Z</time>
</trkpt>
<trkpt lat="37.00669479370117" lon="-118.85709381103516">
<ele>2876</ele>
<time>2016-07-28T12:17:11Z</time>
</trkpt>
<trkpt lat="37.00660705566406" lon="-118.85704803466797">
<ele>2878</ele>
<time>2016-07-28T12:17:18Z</time>
</trkpt>
<trkpt lat="37.00652313232422" lon="-118.85701751708984">
<ele>2879</ele>
<time>2016-07-28T12:17:25Z</time>
</trkpt>
<trkpt lat="37.00642395019531" lon="-118.85697937011719">
<ele>2879</ele>
<time>2016-07-28T12:17:33Z</time>
</trkpt>
<trkpt lat="37.0063362121582" lon="-118.8569107055664">
<ele>2880</ele>
<time>2016-07-28T12:17:39Z</time>
</trkpt>
<trkpt lat="37.00630569458008" lon="-118.85687255859375">
<ele>2881</ele>
<time>2016-07-28T12:17:45Z</time>
</trkpt>
<trkpt lat="37.006263732910156" lon="-118.85684204101563">
<ele>2877</ele>
<time>2016-07-28T12:17:55Z</time>
</trkpt>
<trkpt lat="37.00621795654297" lon="-118.85680389404297">
<ele>2877</ele>
<time>2016-07-28T12:18:01Z</time>
</trkpt>
<trkpt lat="37.006187438964844" lon="-118.85676574707031">
<ele>2873</ele>
<time>2016-07-28T12:18:08Z</time>
</trkpt>
<trkpt lat="37.00615692138672" lon="-118.85662841796875">
<ele>2872</ele>
<time>2016-07-28T12:18:15Z</time>
</trkpt>
<trkpt lat="37.006107330322266" lon="-118.85652160644531">
<ele>2873</ele>
<time>2016-07-28T12:18:25Z</time>
</trkpt>
<trkpt lat="37.00604248046875" lon="-118.8564224243164">
<ele>2872</ele>
<time>2016-07-28T12:18:34Z</time>
</trkpt>
<trkpt lat="37.00594711303711" lon="-118.85637664794922">
<ele>2870</ele>
<time>2016-07-28T12:18:41Z</time>
</trkpt>
<trkpt lat="37.00586700439453" lon="-118.85630798339844">
<ele>2869</ele>
<time>2016-07-28T12:18:48Z</time>
</trkpt>
<trkpt lat="37.005775451660156" lon="-118.85623931884766">
<ele>2868</ele>
<time>2016-07-28T12:18:57Z</time>
</trkpt>
<trkpt lat="37.005699157714844" lon="-118.85614776611328">
<ele>2869</ele>
<time>2016-07-28T12:19:05Z</time>
</trkpt>
<trkpt lat="37.005645751953125" lon="-118.85604095458984">
<ele>2870</ele>
<time>2016-07-28T12:19:12Z</time>
</trkpt>
<trkpt lat="37.00564193725586" lon="-118.85591125488281">
<ele>2869</ele>
<time>2016-07-28T12:19:22Z</time>
</trkpt>
<trkpt lat="37.00559997558594" lon="-118.8558349609375">
<ele>2867</ele>
<time>2016-07-28T12:19:29Z</time>
</trkpt>
<trkpt lat="37.00557327270508" lon="-118.85576629638672">
<ele>2866</ele>
<time>2016-07-28T12:19:35Z</time>
</trkpt>
<trkpt lat="37.00550842285156" lon="-118.85567474365234">
<ele>2865</ele>
<time>2016-07-28T12:19:45Z</time>
</trkpt>
<trkpt lat="37.00545883178711" lon="-118.85557556152344">
<ele>2864</ele>
<time>2016-07-28T12:19:53Z</time>
</trkpt>
<trkpt lat="37.005428314208984" lon="-118.85552978515625">
<ele>2863</ele>
<time>2016-07-28T12:20:05Z</time>
</trkpt>
<trkpt lat="37.00536346435547" lon="-118.85543060302734">
<ele>2860</ele>
<time>2016-07-28T12:20:14Z</time>
</trkpt>
<trkpt lat="37.00529861450195" lon="-118.85537719726563">
<ele>2859</ele>
<time>2016-07-28T12:20:25Z</time>
</trkpt>
<trkpt lat="37.00529479980469" lon="-118.85530853271484">
<ele>2859</ele>
<time>2016-07-28T12:20:55Z</time>
</trkpt>
<trkpt lat="37.00523376464844" lon="-118.855224609375">
<ele>2857</ele>
<time>2016-07-28T12:21:04Z</time>
</trkpt>
<trkpt lat="37.00519943237305" lon="-118.85517883300781">
<ele>2855</ele>
<time>2016-07-28T12:21:10Z</time>
</trkpt>
<trkpt lat="37.00511169433594" lon="-118.85513305664063">
<ele>2854</ele>
<time>2016-07-28T12:21:22Z</time>
</trkpt>
<trkpt lat="37.005035400390625" lon="-118.8550796508789">
<ele>2848</ele>
<time>2016-07-28T12:21:30Z</time>
</trkpt>
<trkpt lat="37.004940032958984" lon="-118.85504913330078">
<ele>2849</ele>
<time>2016-07-28T12:21:36Z</time>
</trkpt>
<trkpt lat="37.004844665527344" lon="-118.85501098632813">
<ele>2845</ele>
<time>2016-07-28T12:21:44Z</time>
</trkpt>
<trkpt lat="37.00481414794922" lon="-118.85488891601563">
<ele>2843</ele>
<time>2016-07-28T12:21:53Z</time>
</trkpt>
<trkpt lat="37.00479507446289" lon="-118.85476684570313">
<ele>2842</ele>
<time>2016-07-28T12:22:00Z</time>
</trkpt>
<trkpt lat="37.00471496582031" lon="-118.85469055175781">
<ele>2841</ele>
<time>2016-07-28T12:22:09Z</time>
</trkpt>
<trkpt lat="37.004642486572266" lon="-118.85459899902344">
<ele>2842</ele>
<time>2016-07-28T12:22:16Z</time>
</trkpt>
<trkpt lat="37.00457000732422" lon="-118.85453033447266">
<ele>2843</ele>
<time>2016-07-28T12:22:23Z</time>
</trkpt>
<trkpt lat="37.00455856323242" lon="-118.85441589355469">
<ele>2843</ele>
<time>2016-07-28T12:22:29Z</time>
</trkpt>
<trkpt lat="37.0045166015625" lon="-118.85430145263672">
<ele>2841</ele>
<time>2016-07-28T12:22:42Z</time>
</trkpt>
<trkpt lat="37.004425048828125" lon="-118.85421752929688">
<ele>2849</ele>
<time>2016-07-28T12:22:48Z</time>
</trkpt>
<trkpt lat="37.00435256958008" lon="-118.85411071777344">
<ele>2850</ele>
<time>2016-07-28T12:22:54Z</time>
</trkpt>
<trkpt lat="37.0042839050293" lon="-118.85403442382813">
<ele>2846</ele>
<time>2016-07-28T12:23:39Z</time>
</trkpt>
<trkpt lat="37.00419998168945" lon="-118.85397338867188">
<ele>2845</ele>
<time>2016-07-28T12:23:45Z</time>
</trkpt>
<trkpt lat="37.00410461425781" lon="-118.85393524169922">
<ele>2847</ele>
<time>2016-07-28T12:23:51Z</time>
</trkpt>
<trkpt lat="37.00401306152344" lon="-118.8538818359375">
<ele>2849</ele>
<time>2016-07-28T12:23:59Z</time>
</trkpt>
<trkpt lat="37.003910064697266" lon="-118.85391235351563">
<ele>2846</ele>
<time>2016-07-28T12:24:07Z</time>
</trkpt>
<trkpt lat="37.003814697265625" lon="-118.85391998291016">
<ele>2846</ele>
<time>2016-07-28T12:24:15Z</time>
</trkpt>
<trkpt lat="37.003719329833984" lon="-118.85389709472656">
<ele>2845</ele>
<time>2016-07-28T12:24:25Z</time>
</trkpt>
<trkpt lat="37.003639221191406" lon="-118.85383605957031">
<ele>2838</ele>
<time>2016-07-28T12:24:34Z</time>
</trkpt>
<trkpt lat="37.00358581542969" lon="-118.85384368896484">
<ele>2836</ele>
<time>2016-07-28T12:24:40Z</time>
</trkpt>
<trkpt lat="37.00349044799805" lon="-118.85379028320313">
<ele>2835</ele>
<time>2016-07-28T12:24:48Z</time>
</trkpt>
<trkpt lat="37.003440856933594" lon="-118.85367584228516">
<ele>2835</ele>
<time>2016-07-28T12:24:55Z</time>
</trkpt>
<trkpt lat="37.003421783447266" lon="-118.85354614257813">
<ele>2833</ele>
<time>2016-07-28T12:25:03Z</time>
</trkpt>
<trkpt lat="37.003360748291016" lon="-118.85346984863281">
<ele>2830</ele>
<time>2016-07-28T12:25:24Z</time>
</trkpt>
<trkpt lat="37.00334167480469" lon="-118.85338592529297">
<ele>2828</ele>
<time>2016-07-28T12:25:30Z</time>
</trkpt>
<trkpt lat="37.00331115722656" lon="-118.85325622558594">
<ele>2832</ele>
<time>2016-07-28T12:25:38Z</time>
</trkpt>
<trkpt lat="37.00324249267578" lon="-118.85317993164063">
<ele>2832</ele>
<time>2016-07-28T12:25:46Z</time>
</trkpt>
<trkpt lat="37.0031852722168" lon="-118.85308074951172">
<ele>2830</ele>
<time>2016-07-28T12:25:55Z</time>
</trkpt>
<trkpt lat="37.00315856933594" lon="-118.85301971435547">
<ele>2827</ele>
<time>2016-07-28T12:26:02Z</time>
</trkpt>
<trkpt lat="37.00312423706055" lon="-118.85289764404297">
<ele>2830</ele>
<time>2016-07-28T12:26:11Z</time>
</trkpt>
<trkpt lat="37.00307846069336" lon="-118.85277557373047">
<ele>2828</ele>
<time>2016-07-28T12:26:19Z</time>
</trkpt>
<trkpt lat="37.0030632019043" lon="-118.85269165039063">
<ele>2827</ele>
<time>2016-07-28T12:26:25Z</time>
</trkpt>
<trkpt lat="37.003013610839844" lon="-118.85257720947266">
<ele>2826</ele>
<time>2016-07-28T12:26:35Z</time>
</trkpt>
<trkpt lat="37.00301742553711" lon="-118.85246276855469">
<ele>2825</ele>
<time>2016-07-28T12:26:42Z</time>
</trkpt>
<trkpt lat="37.002986907958984" lon="-118.85234069824219">
<ele>2824</ele>
<time>2016-07-28T12:26:49Z</time>
</trkpt>
<trkpt lat="37.0029411315918" lon="-118.85221862792969">
<ele>2825</ele>
<time>2016-07-28T12:26:57Z</time>
</trkpt>
<trkpt lat="37.002933502197266" lon="-118.85209655761719">
<ele>2828</ele>
<time>2016-07-28T12:27:04Z</time>
</trkpt>
<trkpt lat="37.00293731689453" lon="-118.85203552246094">
<ele>2823</ele>
<time>2016-07-28T12:27:25Z</time>
</trkpt>
<trkpt lat="37.00291061401367" lon="-118.85198974609375">
<ele>2823</ele>
<time>2016-07-28T12:27:32Z</time>
</trkpt>
<trkpt lat="37.002811431884766" lon="-118.8519515991211">
<ele>2820</ele>
<time>2016-07-28T12:27:41Z</time>
</trkpt>
<trkpt lat="37.00273513793945" lon="-118.85186004638672">
<ele>2820</ele>
<time>2016-07-28T12:27:49Z</time>
</trkpt>
<trkpt lat="37.002655029296875" lon="-118.85179901123047">
<ele>2822</ele>
<time>2016-07-28T12:27:56Z</time>
</trkpt>
<trkpt lat="37.0025749206543" lon="-118.85173034667969">
<ele>2819</ele>
<time>2016-07-28T12:28:03Z</time>
</trkpt>
<trkpt lat="37.00249481201172" lon="-118.85164642333984">
<ele>2821</ele>
<time>2016-07-28T12:28:10Z</time>
</trkpt>
<trkpt lat="37.00239944458008" lon="-118.85163116455078">
<ele>2824</ele>
<time>2016-07-28T12:28:17Z</time>
</trkpt>
<trkpt lat="37.002342224121094" lon="-118.85160064697266">
<ele>2822</ele>
<time>2016-07-28T12:28:25Z</time>
</trkpt>
<trkpt lat="37.00226974487305" lon="-118.85153198242188">
<ele>2823</ele>
<time>2016-07-28T12:28:34Z</time>
</trkpt>
<trkpt lat="37.002166748046875" lon="-118.8514633178711">
<ele>2823</ele>
<time>2016-07-28T12:28:40Z</time>
</trkpt>
<trkpt lat="37.0020637512207" lon="-118.85143280029297">
<ele>2821</ele>
<time>2016-07-28T12:28:46Z</time>
</trkpt>
<trkpt lat="37.00198745727539" lon="-118.8513412475586">
<ele>2822</ele>
<time>2016-07-28T12:28:54Z</time>
</trkpt>
<trkpt lat="37.00191879272461" lon="-118.85123443603516">
<ele>2822</ele>
<time>2016-07-28T12:29:02Z</time>
</trkpt>
<trkpt lat="37.00183868408203" lon="-118.85113525390625">
<ele>2825</ele>
<time>2016-07-28T12:29:10Z</time>
</trkpt>
<trkpt lat="37.001739501953125" lon="-118.85108184814453">
<ele>2821</ele>
<time>2016-07-28T12:29:17Z</time>
</trkpt>
<trkpt lat="37.00165557861328" lon="-118.85101318359375">
<ele>2821</ele>
<time>2016-07-28T12:29:24Z</time>
</trkpt>
<trkpt lat="37.00154113769531" lon="-118.85099029541016">
<ele>2820</ele>
<time>2016-07-28T12:29:32Z</time>
</trkpt>
<trkpt lat="37.0014533996582" lon="-118.85091400146484">
<ele>2818</ele>
<time>2016-07-28T12:29:41Z</time>
</trkpt>
<trkpt lat="37.001380920410156" lon="-118.850830078125">
<ele>2823</ele>
<time>2016-07-28T12:29:50Z</time>
</trkpt>
<trkpt lat="37.00130081176758" lon="-118.85076904296875">
<ele>2820</ele>
<time>2016-07-28T12:29:58Z</time>
</trkpt>
<trkpt lat="37.001224517822266" lon="-118.85067749023438">
<ele>2819</ele>
<time>2016-07-28T12:30:05Z</time>
</trkpt>
<trkpt lat="37.00115966796875" lon="-118.85057067871094">
<ele>2818</ele>
<time>2016-07-28T12:30:13Z</time>
</trkpt>
<trkpt lat="37.001075744628906" lon="-118.85050964355469">
<ele>2818</ele>
<time>2016-07-28T12:30:20Z</time>
</trkpt>
<trkpt lat="37.001007080078125" lon="-118.85039520263672">
<ele>2817</ele>
<time>2016-07-28T12:30:28Z</time>
</trkpt>
<trkpt lat="37.00091552734375" lon="-118.85033416748047">
<ele>2812</ele>
<time>2016-07-28T12:30:37Z</time>
</trkpt>
<trkpt lat="37.000858306884766" lon="-118.8502426147461">
<ele>2812</ele>
<time>2016-07-28T12:30:45Z</time>
</trkpt>
<trkpt lat="37.000762939453125" lon="-118.8501968383789">
<ele>2815</ele>
<time>2016-07-28T12:30:53Z</time>
</trkpt>
<trkpt lat="37.00067901611328" lon="-118.85012817382813">
<ele>2815</ele>
<time>2016-07-28T12:31:02Z</time>
</trkpt>
<trkpt lat="37.00058364868164" lon="-118.85006713867188">
<ele>2815</ele>
<time>2016-07-28T12:31:09Z</time>
</trkpt>
<trkpt lat="37.0004997253418" lon="-118.85001373291016">
<ele>2815</ele>
<time>2016-07-28T12:31:16Z</time>
</trkpt>
<trkpt lat="37.00040817260742" lon="-118.8499526977539">
<ele>2812</ele>
<time>2016-07-28T12:31:25Z</time>
</trkpt>
<trkpt lat="37.00032043457031" lon="-118.84986877441406">
<ele>2814</ele>
<time>2016-07-28T12:31:33Z</time>
</trkpt>
<trkpt lat="37.00022888183594" lon="-118.84980010986328">
<ele>2813</ele>
<time>2016-07-28T12:31:40Z</time>
</trkpt>
<trkpt lat="37.00014114379883" lon="-118.84973907470703">
<ele>2814</ele>
<time>2016-07-28T12:31:48Z</time>
</trkpt>
<trkpt lat="37.00006866455078" lon="-118.84966278076172">
<ele>2817</ele>
<time>2016-07-28T12:31:55Z</time>
</trkpt>
<trkpt lat="37.00003433227539" lon="-118.84954833984375">
<ele>2814</ele>
<time>2016-07-28T12:32:02Z</time>
</trkpt>
<trkpt lat="36.99995422363281" lon="-118.84945678710938">
<ele>2809</ele>
<time>2016-07-28T12:32:11Z</time>
</trkpt>
<trkpt lat="36.99988555908203" lon="-118.84934997558594">
<ele>2808</ele>
<time>2016-07-28T12:32:20Z</time>
</trkpt>
<trkpt lat="36.99980163574219" lon="-118.8492660522461">
<ele>2806</ele>
<time>2016-07-28T12:32:30Z</time>
</trkpt>
<trkpt lat="36.99972915649414" lon="-118.84919738769531">
<ele>2806</ele>
<time>2016-07-28T12:32:38Z</time>
</trkpt>
<trkpt lat="36.99965286254883" lon="-118.84911346435547">
<ele>2811</ele>
<time>2016-07-28T12:32:45Z</time>
</trkpt>
<trkpt lat="36.99956130981445" lon="-118.84905242919922">
<ele>2812</ele>
<time>2016-07-28T12:32:55Z</time>
</trkpt>
<trkpt lat="36.99946594238281" lon="-118.84899139404297">
<ele>2812</ele>
<time>2016-07-28T12:33:04Z</time>
</trkpt>
<trkpt lat="36.99937057495117" lon="-118.84893035888672">
<ele>2812</ele>
<time>2016-07-28T12:33:13Z</time>
</trkpt>
<trkpt lat="36.99927520751953" lon="-118.848876953125">
<ele>2813</ele>
<time>2016-07-28T12:33:21Z</time>
</trkpt>
<trkpt lat="36.99921798706055" lon="-118.84880828857422">
<ele>2815</ele>
<time>2016-07-28T12:34:03Z</time>
</trkpt>
<trkpt lat="36.999122619628906" lon="-118.84878540039063">
<ele>2808</ele>
<time>2016-07-28T12:34:13Z</time>
</trkpt>
<trkpt lat="36.999027252197266" lon="-118.84876251220703">
<ele>2808</ele>
<time>2016-07-28T12:34:21Z</time>
</trkpt>
<trkpt lat="36.998931884765625" lon="-118.84870147705078">
<ele>2809</ele>
<time>2016-07-28T12:34:29Z</time>
</trkpt>
<trkpt lat="36.998836517333984" lon="-118.84867858886719">
<ele>2808</ele>
<time>2016-07-28T12:34:35Z</time>
</trkpt>
<trkpt lat="36.99873733520508" lon="-118.84866333007813">
<ele>2808</ele>
<time>2016-07-28T12:34:41Z</time>
</trkpt>
<trkpt lat="36.99871063232422" lon="-118.84855651855469">
<ele>2806</ele>
<time>2016-07-28T12:34:48Z</time>
</trkpt>
<trkpt lat="36.998626708984375" lon="-118.84848022460938">
<ele>2804</ele>
<time>2016-07-28T12:34:55Z</time>
</trkpt>
<trkpt lat="36.99855041503906" lon="-118.84839630126953">
<ele>2802</ele>
<time>2016-07-28T12:35:04Z</time>
</trkpt>
<trkpt lat="36.99849319458008" lon="-118.84832000732422">
<ele>2804</ele>
<time>2016-07-28T12:35:11Z</time>
</trkpt>
<trkpt lat="36.99839782714844" lon="-118.84825897216797">
<ele>2805</ele>
<time>2016-07-28T12:35:18Z</time>
</trkpt>
<trkpt lat="36.998321533203125" lon="-118.84821319580078">
<ele>2805</ele>
<time>2016-07-28T12:35:25Z</time>
</trkpt>
<trkpt lat="36.99823760986328" lon="-118.84815979003906">
<ele>2805</ele>
<time>2016-07-28T12:35:32Z</time>
</trkpt>
<trkpt lat="36.99818420410156" lon="-118.84806060791016">
<ele>2802</ele>
<time>2016-07-28T12:35:40Z</time>
</trkpt>
<trkpt lat="36.998104095458984" lon="-118.84799194335938">
<ele>2803</ele>
<time>2016-07-28T12:35:47Z</time>
</trkpt>
<trkpt lat="36.998008728027344" lon="-118.84796142578125">
<ele>2802</ele>
<time>2016-07-28T12:35:55Z</time>
</trkpt>
<trkpt lat="36.99793243408203" lon="-118.84785461425781">
<ele>2800</ele>
<time>2016-07-28T12:36:03Z</time>
</trkpt>
<trkpt lat="36.99787139892578" lon="-118.84776306152344">
<ele>2800</ele>
<time>2016-07-28T12:36:09Z</time>
</trkpt>
<trkpt lat="36.997779846191406" lon="-118.84771728515625">
<ele>2801</ele>
<time>2016-07-28T12:36:16Z</time>
</trkpt>
<trkpt lat="36.997684478759766" lon="-118.84767150878906">
<ele>2803</ele>
<time>2016-07-28T12:36:24Z</time>
</trkpt>
<trkpt lat="36.997642517089844" lon="-118.84761047363281">
<ele>2802</ele>
<time>2016-07-28T12:36:30Z</time>
</trkpt>
<trkpt lat="36.99755859375" lon="-118.84752655029297">
<ele>2803</ele>
<time>2016-07-28T12:36:37Z</time>
</trkpt>
<trkpt lat="36.997459411621094" lon="-118.8475112915039">
<ele>2802</ele>
<time>2016-07-28T12:36:44Z</time>
</trkpt>
<trkpt lat="36.997398376464844" lon="-118.84742736816406">
<ele>2799</ele>
<time>2016-07-28T12:36:53Z</time>
</trkpt>
<trkpt lat="36.997398376464844" lon="-118.84730529785156">
<ele>2797</ele>
<time>2016-07-28T12:37:02Z</time>
</trkpt>
<trkpt lat="36.99742126464844" lon="-118.84718322753906">
<ele>2797</ele>
<time>2016-07-28T12:37:10Z</time>
</trkpt>
<trkpt lat="36.99737548828125" lon="-118.84707641601563">
<ele>2798</ele>
<time>2016-07-28T12:37:18Z</time>
</trkpt>
<trkpt lat="36.997318267822266" lon="-118.84703826904297">
<ele>2802</ele>
<time>2016-07-28T12:37:25Z</time>
</trkpt>
<trkpt lat="36.997257232666016" lon="-118.84696197509766">
<ele>2803</ele>
<time>2016-07-28T12:37:34Z</time>
</trkpt>
<trkpt lat="36.99727249145508" lon="-118.84684753417969">
<ele>2805</ele>
<time>2016-07-28T12:37:43Z</time>
</trkpt>
<trkpt lat="36.99724578857422" lon="-118.84673309326172">
<ele>2804</ele>
<time>2016-07-28T12:37:52Z</time>
</trkpt>
<trkpt lat="36.997215270996094" lon="-118.84662628173828">
<ele>2806</ele>
<time>2016-07-28T12:38:01Z</time>
</trkpt>
<trkpt lat="36.99714279174805" lon="-118.84654998779297">
<ele>2805</ele>
<time>2016-07-28T12:38:08Z</time>
</trkpt>
<trkpt lat="36.997074127197266" lon="-118.8464584350586">
<ele>2806</ele>
<time>2016-07-28T12:38:18Z</time>
</trkpt>
<trkpt lat="36.9970703125" lon="-118.84635162353516">
<ele>2807</ele>
<time>2016-07-28T12:38:25Z</time>
</trkpt>
<trkpt lat="36.997093200683594" lon="-118.84622955322266">
<ele>2806</ele>
<time>2016-07-28T12:38:33Z</time>
</trkpt>
<trkpt lat="36.997066497802734" lon="-118.84612274169922">
<ele>2800</ele>
<time>2016-07-28T12:38:44Z</time>
</trkpt>
<trkpt lat="36.997074127197266" lon="-118.84600067138672">
<ele>2805</ele>
<time>2016-07-28T12:38:52Z</time>
</trkpt>
<trkpt lat="36.99708557128906" lon="-118.84593963623047">
<ele>2810</ele>
<time>2016-07-28T12:39:09Z</time>
</trkpt>
<trkpt lat="36.997127532958984" lon="-118.8458251953125">
<ele>2809</ele>
<time>2016-07-28T12:39:18Z</time>
</trkpt>
<trkpt lat="36.99716567993164" lon="-118.84574127197266">
<ele>2808</ele>
<time>2016-07-28T12:39:25Z</time>
</trkpt>
<trkpt lat="36.997196197509766" lon="-118.84564971923828">
<ele>2810</ele>
<time>2016-07-28T12:39:39Z</time>
</trkpt>
<trkpt lat="36.997249603271484" lon="-118.84553527832031">
<ele>2810</ele>
<time>2016-07-28T12:39:48Z</time>
</trkpt>
<trkpt lat="36.99730682373047" lon="-118.84542846679688">
<ele>2811</ele>
<time>2016-07-28T12:39:56Z</time>
</trkpt>
<trkpt lat="36.997344970703125" lon="-118.84532165527344">
<ele>2809</ele>
<time>2016-07-28T12:40:10Z</time>
</trkpt>
<trkpt lat="36.99737548828125" lon="-118.8451919555664">
<ele>2808</ele>
<time>2016-07-28T12:40:19Z</time>
</trkpt>
<trkpt lat="36.99741744995117" lon="-118.8451156616211">
<ele>2807</ele>
<time>2016-07-28T12:40:25Z</time>
</trkpt>
<trkpt lat="36.99747848510742" lon="-118.84500885009766">
<ele>2808</ele>
<time>2016-07-28T12:40:34Z</time>
</trkpt>
<trkpt lat="36.99752426147461" lon="-118.84487915039063">
<ele>2810</ele>
<time>2016-07-28T12:40:42Z</time>
</trkpt>
<trkpt lat="36.997581481933594" lon="-118.84479522705078">
<ele>2810</ele>
<time>2016-07-28T12:40:50Z</time>
</trkpt>
<trkpt lat="36.99765396118164" lon="-118.84468841552734">
<ele>2812</ele>
<time>2016-07-28T12:40:58Z</time>
</trkpt>
<trkpt lat="36.99772262573242" lon="-118.84459686279297">
<ele>2814</ele>
<time>2016-07-28T12:41:05Z</time>
</trkpt>
<trkpt lat="36.99778366088867" lon="-118.84449005126953">
<ele>2814</ele>
<time>2016-07-28T12:41:14Z</time>
</trkpt>
<trkpt lat="36.997833251953125" lon="-118.844482421875">
<ele>2803</ele>
<time>2016-07-28T12:41:23Z</time>
</trkpt>
<trkpt lat="36.997867584228516" lon="-118.84440612792969">
<ele>2803</ele>
<time>2016-07-28T12:41:29Z</time>
</trkpt>
<trkpt lat="36.99793243408203" lon="-118.84429168701172">
<ele>2805</ele>
<time>2016-07-28T12:41:37Z</time>
</trkpt>
<trkpt lat="36.998023986816406" lon="-118.84423065185547">
<ele>2807</ele>
<time>2016-07-28T12:41:44Z</time>
</trkpt>
<trkpt lat="36.998085021972656" lon="-118.84414672851563">
<ele>2804</ele>
<time>2016-07-28T12:41:51Z</time>
</trkpt>
<trkpt lat="36.998146057128906" lon="-118.84404754638672">
<ele>2803</ele>
<time>2016-07-28T12:42:01Z</time>
</trkpt>
<trkpt lat="36.99821090698242" lon="-118.84394073486328">
<ele>2804</ele>
<time>2016-07-28T12:42:09Z</time>
</trkpt>
<trkpt lat="36.99826431274414" lon="-118.84384155273438">
<ele>2803</ele>
<time>2016-07-28T12:42:17Z</time>
</trkpt>
<trkpt lat="36.99833297729492" lon="-118.84376525878906">
<ele>2801</ele>
<time>2016-07-28T12:42:25Z</time>
</trkpt>
<trkpt lat="36.99842071533203" lon="-118.84368896484375">
<ele>2801</ele>
<time>2016-07-28T12:42:35Z</time>
</trkpt>
<trkpt lat="36.99849319458008" lon="-118.84362030029297">
<ele>2798</ele>
<time>2016-07-28T12:42:44Z</time>
</trkpt>
<trkpt lat="36.99853515625" lon="-118.84351348876953">
<ele>2795</ele>
<time>2016-07-28T12:42:54Z</time>
</trkpt>
<trkpt lat="36.9985466003418" lon="-118.84337615966797">
<ele>2793</ele>
<time>2016-07-28T12:43:04Z</time>
</trkpt>
<trkpt lat="36.99858093261719" lon="-118.84326934814453">
<ele>2792</ele>
<time>2016-07-28T12:43:14Z</time>
</trkpt>
<trkpt lat="36.9986686706543" lon="-118.84320068359375">
<ele>2796</ele>
<time>2016-07-28T12:43:23Z</time>
</trkpt>
<trkpt lat="36.99872970581055" lon="-118.84313201904297">
<ele>2796</ele>
<time>2016-07-28T12:43:29Z</time>
</trkpt>
<trkpt lat="36.99880599975586" lon="-118.84305572509766">
<ele>2793</ele>
<time>2016-07-28T12:43:47Z</time>
</trkpt>
<trkpt lat="36.99884033203125" lon="-118.84300994873047">
<ele>2792</ele>
<time>2016-07-28T12:43:53Z</time>
</trkpt>
<trkpt lat="36.99889373779297" lon="-118.84290313720703">
<ele>2791</ele>
<time>2016-07-28T12:44:04Z</time>
</trkpt>
<trkpt lat="36.998924255371094" lon="-118.84284973144531">
<ele>2791</ele>
<time>2016-07-28T12:44:14Z</time>
</trkpt>
<trkpt lat="36.99899673461914" lon="-118.84275817871094">
<ele>2785</ele>
<time>2016-07-28T12:44:21Z</time>
</trkpt>
<trkpt lat="36.99907302856445" lon="-118.84266662597656">
<ele>2783</ele>
<time>2016-07-28T12:44:30Z</time>
</trkpt>
<trkpt lat="36.99909591674805" lon="-118.84254455566406">
<ele>2779</ele>
<time>2016-07-28T12:44:41Z</time>
</trkpt>
<trkpt lat="36.99917221069336" lon="-118.84247589111328">
<ele>2776</ele>
<time>2016-07-28T12:44:49Z</time>
</trkpt>
<trkpt lat="36.99922180175781" lon="-118.84236145019531">
<ele>2769</ele>
<time>2016-07-28T12:45:00Z</time>
</trkpt>
<trkpt lat="36.999271392822266" lon="-118.84223937988281">
<ele>2773</ele>
<time>2016-07-28T12:45:08Z</time>
</trkpt>
<trkpt lat="36.99933624267578" lon="-118.8421401977539">
<ele>2772</ele>
<time>2016-07-28T12:45:17Z</time>
</trkpt>
<trkpt lat="36.99941635131836" lon="-118.84208679199219">
<ele>2779</ele>
<time>2016-07-28T12:45:25Z</time>
</trkpt>
<trkpt lat="36.99947738647461" lon="-118.84207153320313">
<ele>2770</ele>
<time>2016-07-28T12:46:44Z</time>
</trkpt>
<trkpt lat="36.99951934814453" lon="-118.84205627441406">
<ele>2767</ele>
<time>2016-07-28T12:46:51Z</time>
</trkpt>
<trkpt lat="36.999576568603516" lon="-118.8420639038086">
<ele>2765</ele>
<time>2016-07-28T12:47:00Z</time>
</trkpt>
<trkpt lat="36.99965286254883" lon="-118.84210205078125">
<ele>2767</ele>
<time>2016-07-28T12:47:14Z</time>
</trkpt>
<trkpt lat="36.99969482421875" lon="-118.84207153320313">
<ele>2765</ele>
<time>2016-07-28T12:47:24Z</time>
</trkpt>
<trkpt lat="36.99976348876953" lon="-118.84195709228516">
<ele>2762</ele>
<time>2016-07-28T12:47:34Z</time>
</trkpt>
<trkpt lat="36.99980545043945" lon="-118.8419418334961">
<ele>2761</ele>
<time>2016-07-28T12:47:46Z</time>
</trkpt>
<trkpt lat="36.999813079833984" lon="-118.84187316894531">
<ele>2760</ele>
<time>2016-07-28T12:47:58Z</time>
</trkpt>
<trkpt lat="36.99982452392578" lon="-118.84175872802734">
<ele>2759</ele>
<time>2016-07-28T12:48:06Z</time>
</trkpt>
<trkpt lat="36.999874114990234" lon="-118.8416519165039">
<ele>2761</ele>
<time>2016-07-28T12:48:14Z</time>
</trkpt>
<trkpt lat="36.99993133544922" lon="-118.84154510498047">
<ele>2763</ele>
<time>2016-07-28T12:48:24Z</time>
</trkpt>
<trkpt lat="36.99999237060547" lon="-118.84151458740234">
<ele>2764</ele>
<time>2016-07-28T12:48:30Z</time>
</trkpt>
<trkpt lat="37.000038146972656" lon="-118.84150695800781">
<ele>2767</ele>
<time>2016-07-28T12:48:36Z</time>
</trkpt>
<trkpt lat="37.000144958496094" lon="-118.84149932861328">
<ele>2763</ele>
<time>2016-07-28T12:48:45Z</time>
</trkpt>
<trkpt lat="37.000240325927734" lon="-118.84148406982422">
<ele>2765</ele>
<time>2016-07-28T12:48:53Z</time>
</trkpt>
<trkpt lat="37.00028610229492" lon="-118.84147644042969">
<ele>2765</ele>
<time>2016-07-28T12:48:59Z</time>
</trkpt>
<trkpt lat="37.0003776550293" lon="-118.8414077758789">
<ele>2763</ele>
<time>2016-07-28T12:49:08Z</time>
</trkpt>
<trkpt lat="37.00041198730469" lon="-118.84129333496094">
<ele>2758</ele>
<time>2016-07-28T12:49:16Z</time>
</trkpt>
<trkpt lat="37.00040817260742" lon="-118.84117126464844">
<ele>2759</ele>
<time>2016-07-28T12:49:25Z</time>
</trkpt>
<trkpt lat="37.00040817260742" lon="-118.84103393554688">
<ele>2759</ele>
<time>2016-07-28T12:49:33Z</time>
</trkpt>
<trkpt lat="37.00041580200195" lon="-118.84091186523438">
<ele>2756</ele>
<time>2016-07-28T12:49:41Z</time>
</trkpt>
<trkpt lat="37.00043869018555" lon="-118.84078216552734">
<ele>2756</ele>
<time>2016-07-28T12:49:49Z</time>
</trkpt>
<trkpt lat="37.00050354003906" lon="-118.84069061279297">
<ele>2757</ele>
<time>2016-07-28T12:49:57Z</time>
</trkpt>
<trkpt lat="37.00058364868164" lon="-118.84060668945313">
<ele>2758</ele>
<time>2016-07-28T12:50:07Z</time>
</trkpt>
<trkpt lat="37.000675201416016" lon="-118.84054565429688">
<ele>2758</ele>
<time>2016-07-28T12:50:17Z</time>
</trkpt>
<trkpt lat="37.00074005126953" lon="-118.84046173095703">
<ele>2758</ele>
<time>2016-07-28T12:50:30Z</time>
</trkpt>
<trkpt lat="37.00078582763672" lon="-118.84043884277344">
<ele>2759</ele>
<time>2016-07-28T12:50:36Z</time>
</trkpt>
<trkpt lat="37.000877380371094" lon="-118.84037017822266">
<ele>2761</ele>
<time>2016-07-28T12:50:44Z</time>
</trkpt>
<trkpt lat="37.000938415527344" lon="-118.84027099609375">
<ele>2760</ele>
<time>2016-07-28T12:50:53Z</time>
</trkpt>
<trkpt lat="37.00102615356445" lon="-118.84019470214844">
<ele>2761</ele>
<time>2016-07-28T12:51:02Z</time>
</trkpt>
<trkpt lat="37.001094818115234" lon="-118.840087890625">
<ele>2759</ele>
<time>2016-07-28T12:51:11Z</time>
</trkpt>
<trkpt lat="37.00114440917969" lon="-118.83998107910156">
<ele>2759</ele>
<time>2016-07-28T12:51:19Z</time>
</trkpt>
<trkpt lat="37.001182556152344" lon="-118.83988952636719">
<ele>2760</ele>
<time>2016-07-28T12:51:25Z</time>
</trkpt>
<trkpt lat="37.00124740600586" lon="-118.83979034423828">
<ele>2758</ele>
<time>2016-07-28T12:51:33Z</time>
</trkpt>
<trkpt lat="37.00132369995117" lon="-118.83970642089844">
<ele>2762</ele>
<time>2016-07-28T12:51:56Z</time>
</trkpt>
<trkpt lat="37.001365661621094" lon="-118.83966827392578">
<ele>2764</ele>
<time>2016-07-28T12:52:02Z</time>
</trkpt>
<trkpt lat="37.001461029052734" lon="-118.839599609375">
<ele>2762</ele>
<time>2016-07-28T12:52:11Z</time>
</trkpt>
<trkpt lat="37.00155258178711" lon="-118.83955383300781">
<ele>2764</ele>
<time>2016-07-28T12:52:22Z</time>
</trkpt>
<trkpt lat="37.00164031982422" lon="-118.83954620361328">
<ele>2765</ele>
<time>2016-07-28T12:52:30Z</time>
</trkpt>
<trkpt lat="37.00173568725586" lon="-118.83950805664063">
<ele>2768</ele>
<time>2016-07-28T12:52:51Z</time>
</trkpt>
<trkpt lat="37.00182342529297" lon="-118.83944702148438">
<ele>2766</ele>
<time>2016-07-28T12:53:02Z</time>
</trkpt>
<trkpt lat="37.001930236816406" lon="-118.83944702148438">
<ele>2763</ele>
<time>2016-07-28T12:53:10Z</time>
</trkpt>
<trkpt lat="37.00202560424805" lon="-118.83946990966797">
<ele>2758</ele>
<time>2016-07-28T12:53:19Z</time>
</trkpt>
<trkpt lat="37.00210189819336" lon="-118.83946990966797">
<ele>2760</ele>
<time>2016-07-28T12:53:25Z</time>
</trkpt>
<trkpt lat="37.002201080322266" lon="-118.83949279785156">
<ele>2764</ele>
<time>2016-07-28T12:53:33Z</time>
</trkpt>
<trkpt lat="37.002288818359375" lon="-118.83954620361328">
<ele>2765</ele>
<time>2016-07-28T12:53:43Z</time>
</trkpt>
<trkpt lat="37.0023307800293" lon="-118.83956146240234">
<ele>2762</ele>
<time>2016-07-28T12:53:50Z</time>
</trkpt>
<trkpt lat="37.00238037109375" lon="-118.83956909179688">
<ele>2760</ele>
<time>2016-07-28T12:54:02Z</time>
</trkpt>
<trkpt lat="37.002471923828125" lon="-118.83952331542969">
<ele>2762</ele>
<time>2016-07-28T12:54:11Z</time>
</trkpt>
<trkpt lat="37.00257873535156" lon="-118.83951568603516">
<ele>2758</ele>
<time>2016-07-28T12:54:19Z</time>
</trkpt>
<trkpt lat="37.00262451171875" lon="-118.83951568603516">
<ele>2756</ele>
<time>2016-07-28T12:54:25Z</time>
</trkpt>
<trkpt lat="37.00267028808594" lon="-118.83953094482422">
<ele>2754</ele>
<time>2016-07-28T12:54:33Z</time>
</trkpt>
<trkpt lat="37.002769470214844" lon="-118.83952331542969">
<ele>2753</ele>
<time>2016-07-28T12:54:43Z</time>
</trkpt>
<trkpt lat="37.002864837646484" lon="-118.83953094482422">
<ele>2749</ele>
<time>2016-07-28T12:54:52Z</time>
</trkpt>
<trkpt lat="37.00297546386719" lon="-118.8395004272461">
<ele>2746</ele>
<time>2016-07-28T12:55:00Z</time>
</trkpt>
<trkpt lat="37.003082275390625" lon="-118.83949279785156">
<ele>2743</ele>
<time>2016-07-28T12:55:08Z</time>
</trkpt>
<trkpt lat="37.00319290161133" lon="-118.83949279785156">
<ele>2746</ele>
<time>2016-07-28T12:55:14Z</time>
</trkpt>
<trkpt lat="37.003292083740234" lon="-118.83953094482422">
<ele>2745</ele>
<time>2016-07-28T12:55:21Z</time>
</trkpt>
<trkpt lat="37.003395080566406" lon="-118.8394775390625">
<ele>2748</ele>
<time>2016-07-28T12:55:28Z</time>
</trkpt>
<trkpt lat="37.00349807739258" lon="-118.8395004272461">
<ele>2750</ele>
<time>2016-07-28T12:55:37Z</time>
</trkpt>
<trkpt lat="37.003597259521484" lon="-118.8395004272461">
<ele>2755</ele>
<time>2016-07-28T12:55:46Z</time>
</trkpt>
<trkpt lat="37.00369644165039" lon="-118.83948516845703">
<ele>2758</ele>
<time>2016-07-28T12:55:57Z</time>
</trkpt>
<trkpt lat="37.00379943847656" lon="-118.8394775390625">
<ele>2766</ele>
<time>2016-07-28T12:56:07Z</time>
</trkpt>
<trkpt lat="37.003849029541016" lon="-118.83946990966797">
<ele>2769</ele>
<time>2016-07-28T12:56:15Z</time>
</trkpt>
<trkpt lat="37.00393295288086" lon="-118.83954620361328">
<ele>2771</ele>
<time>2016-07-28T12:56:24Z</time>
</trkpt>
<trkpt lat="37.00400924682617" lon="-118.83953857421875">
<ele>2770</ele>
<time>2016-07-28T12:56:30Z</time>
</trkpt>
<trkpt lat="37.00410461425781" lon="-118.83949279785156">
<ele>2767</ele>
<time>2016-07-28T12:56:38Z</time>
</trkpt>
<trkpt lat="37.00420379638672" lon="-118.83951568603516">
<ele>2767</ele>
<time>2016-07-28T12:56:44Z</time>
</trkpt>
<trkpt lat="37.00425720214844" lon="-118.83950805664063">
<ele>2765</ele>
<time>2016-07-28T12:56:50Z</time>
</trkpt>
<trkpt lat="37.004364013671875" lon="-118.83951568603516">
<ele>2765</ele>
<time>2016-07-28T12:56:57Z</time>
</trkpt>
<trkpt lat="37.004459381103516" lon="-118.8394775390625">
<ele>2763</ele>
<time>2016-07-28T12:57:06Z</time>
</trkpt>
<trkpt lat="37.00455093383789" lon="-118.83943176269531">
<ele>2764</ele>
<time>2016-07-28T12:57:16Z</time>
</trkpt>
<trkpt lat="37.00465393066406" lon="-118.83943939208984">
<ele>2768</ele>
<time>2016-07-28T12:57:25Z</time>
</trkpt>
<trkpt lat="37.00475311279297" lon="-118.83944702148438">
<ele>2765</ele>
<time>2016-07-28T12:57:32Z</time>
</trkpt>
<trkpt lat="37.004844665527344" lon="-118.83946228027344">
<ele>2769</ele>
<time>2016-07-28T12:57:38Z</time>
</trkpt>
<trkpt lat="37.00489044189453" lon="-118.8394546508789">
<ele>2771</ele>
<time>2016-07-28T12:57:44Z</time>
</trkpt>
<trkpt lat="37.00493621826172" lon="-118.83948516845703">
<ele>2772</ele>
<time>2016-07-28T12:57:52Z</time>
</trkpt>
<trkpt lat="37.00503921508789" lon="-118.8395004272461">
<ele>2768</ele>
<time>2016-07-28T12:58:01Z</time>
</trkpt>
<trkpt lat="37.005149841308594" lon="-118.83954620361328">
<ele>2774</ele>
<time>2016-07-28T12:58:10Z</time>
</trkpt>
<trkpt lat="37.00530242919922" lon="-118.83961486816406">
<ele>2785</ele>
<time>2016-07-28T12:58:18Z</time>
</trkpt>
<trkpt lat="37.00540542602539" lon="-118.83964538574219">
<ele>2784</ele>
<time>2016-07-28T12:58:24Z</time>
</trkpt>
<trkpt lat="37.005523681640625" lon="-118.83966064453125">
<ele>2775</ele>
<time>2016-07-28T12:58:34Z</time>
</trkpt>
<trkpt lat="37.00562286376953" lon="-118.83963775634766">
<ele>2772</ele>
<time>2016-07-28T12:58:44Z</time>
</trkpt>
<trkpt lat="37.005714416503906" lon="-118.83963775634766">
<ele>2772</ele>
<time>2016-07-28T12:58:55Z</time>
</trkpt>
<trkpt lat="37.00577163696289" lon="-118.83965301513672">
<ele>2770</ele>
<time>2016-07-28T12:59:04Z</time>
</trkpt>
<trkpt lat="37.00581359863281" lon="-118.83967590332031">
<ele>2767</ele>
<time>2016-07-28T12:59:13Z</time>
</trkpt>
<trkpt lat="37.005855560302734" lon="-118.8396987915039">
<ele>2771</ele>
<time>2016-07-28T12:59:22Z</time>
</trkpt>
<trkpt lat="37.00592041015625" lon="-118.83971405029297">
<ele>2771</ele>
<time>2016-07-28T12:59:30Z</time>
</trkpt>
<trkpt lat="37.00596618652344" lon="-118.83969116210938">
<ele>2772</ele>
<time>2016-07-28T12:59:36Z</time>
</trkpt>
<trkpt lat="37.006080627441406" lon="-118.83966064453125">
<ele>2766</ele>
<time>2016-07-28T12:59:43Z</time>
</trkpt>
<trkpt lat="37.006168365478516" lon="-118.8396224975586">
<ele>2764</ele>
<time>2016-07-28T12:59:49Z</time>
</trkpt>
<trkpt lat="37.00626754760742" lon="-118.83958435058594">
<ele>2768</ele>
<time>2016-07-28T12:59:58Z</time>
</trkpt>
<trkpt lat="37.0063591003418" lon="-118.83955383300781">
<ele>2769</ele>
<time>2016-07-28T13:00:09Z</time>
</trkpt>
<trkpt lat="37.0064697265625" lon="-118.83954620361328">
<ele>2770</ele>
<time>2016-07-28T13:00:16Z</time>
</trkpt>
<trkpt lat="37.00658416748047" lon="-118.83951568603516">
<ele>2769</ele>
<time>2016-07-28T13:00:23Z</time>
</trkpt>
<trkpt lat="37.006656646728516" lon="-118.83950805664063">
<ele>2769</ele>
<time>2016-07-28T13:00:29Z</time>
</trkpt>
<trkpt lat="37.00676345825195" lon="-118.8395004272461">
<ele>2772</ele>
<time>2016-07-28T13:00:37Z</time>
</trkpt>
<trkpt lat="37.006813049316406" lon="-118.83951568603516">
<ele>2775</ele>
<time>2016-07-28T13:00:45Z</time>
</trkpt>
<trkpt lat="37.00691604614258" lon="-118.83950805664063">
<ele>2770</ele>
<time>2016-07-28T13:00:54Z</time>
</trkpt>
<trkpt lat="37.00699234008789" lon="-118.83944702148438">
<ele>2764</ele>
<time>2016-07-28T13:01:01Z</time>
</trkpt>
<trkpt lat="37.00703430175781" lon="-118.8394775390625">
<ele>2765</ele>
<time>2016-07-28T13:01:09Z</time>
</trkpt>
<trkpt lat="37.007080078125" lon="-118.8394775390625">
<ele>2765</ele>
<time>2016-07-28T13:01:15Z</time>
</trkpt>
<trkpt lat="37.00712203979492" lon="-118.83950805664063">
<ele>2764</ele>
<time>2016-07-28T13:01:22Z</time>
</trkpt>
<trkpt lat="37.0071907043457" lon="-118.83956146240234">
<ele>2765</ele>
<time>2016-07-28T13:01:34Z</time>
</trkpt>
<trkpt lat="37.007225036621094" lon="-118.839599609375">
<ele>2766</ele>
<time>2016-07-28T13:01:44Z</time>
</trkpt>
<trkpt lat="37.00725173950195" lon="-118.83966064453125">
<ele>2773</ele>
<time>2016-07-28T13:01:57Z</time>
</trkpt>
<trkpt lat="37.00728225708008" lon="-118.8396987915039">
<ele>2771</ele>
<time>2016-07-28T13:02:19Z</time>
</trkpt>
<trkpt lat="37.00733184814453" lon="-118.83976745605469">
<ele>2770</ele>
<time>2016-07-28T13:02:46Z</time>
</trkpt>
<trkpt lat="37.00737380981445" lon="-118.83979034423828">
<ele>2769</ele>
<time>2016-07-28T13:02:57Z</time>
</trkpt>
<trkpt lat="37.00741958618164" lon="-118.83979034423828">
<ele>2770</ele>
<time>2016-07-28T13:03:04Z</time>
</trkpt>
<trkpt lat="37.00751495361328" lon="-118.83972930908203">
<ele>2766</ele>
<time>2016-07-28T13:03:13Z</time>
</trkpt>
<trkpt lat="37.007598876953125" lon="-118.83965301513672">
<ele>2766</ele>
<time>2016-07-28T13:03:20Z</time>
</trkpt>
<trkpt lat="37.007686614990234" lon="-118.8395767211914">
<ele>2765</ele>
<time>2016-07-28T13:03:29Z</time>
</trkpt>
<trkpt lat="37.007755279541016" lon="-118.83948516845703">
<ele>2760</ele>
<time>2016-07-28T13:03:39Z</time>
</trkpt>
<trkpt lat="37.007781982421875" lon="-118.83937072753906">
<ele>2757</ele>
<time>2016-07-28T13:03:49Z</time>
</trkpt>
<trkpt lat="37.007835388183594" lon="-118.8392562866211">
<ele>2755</ele>
<time>2016-07-28T13:03:59Z</time>
</trkpt>
<trkpt lat="37.00788116455078" lon="-118.83921813964844">
<ele>2751</ele>
<time>2016-07-28T13:04:08Z</time>
</trkpt>
<trkpt lat="37.007965087890625" lon="-118.83916473388672">
<ele>2753</ele>
<time>2016-07-28T13:04:14Z</time>
</trkpt>
<trkpt lat="37.008060455322266" lon="-118.83912658691406">
<ele>2757</ele>
<time>2016-07-28T13:04:22Z</time>
</trkpt>
<trkpt lat="37.008113861083984" lon="-118.83908081054688">
<ele>2763</ele>
<time>2016-07-28T13:04:42Z</time>
</trkpt>
<trkpt lat="37.00819396972656" lon="-118.83902740478516">
<ele>2763</ele>
<time>2016-07-28T13:04:50Z</time>
</trkpt>
<trkpt lat="37.00829315185547" lon="-118.8390121459961">
<ele>2765</ele>
<time>2016-07-28T13:04:59Z</time>
</trkpt>
<trkpt lat="37.00839614868164" lon="-118.83899688720703">
<ele>2766</ele>
<time>2016-07-28T13:05:10Z</time>
</trkpt>
<trkpt lat="37.008480072021484" lon="-118.83895874023438">
<ele>2769</ele>
<time>2016-07-28T13:05:23Z</time>
</trkpt>
<trkpt lat="37.00853729248047" lon="-118.83895874023438">
<ele>2770</ele>
<time>2016-07-28T13:05:31Z</time>
</trkpt>
<trkpt lat="37.00863265991211" lon="-118.83892059326172">
<ele>2774</ele>
<time>2016-07-28T13:05:40Z</time>
</trkpt>
<trkpt lat="37.008724212646484" lon="-118.83892059326172">
<ele>2774</ele>
<time>2016-07-28T13:05:49Z</time>
</trkpt>
<trkpt lat="37.00882339477539" lon="-118.83890533447266">
<ele>2775</ele>
<time>2016-07-28T13:05:57Z</time>
</trkpt>
<trkpt lat="37.00893020629883" lon="-118.83893585205078">
<ele>2775</ele>
<time>2016-07-28T13:06:05Z</time>
</trkpt>
<trkpt lat="37.0090446472168" lon="-118.83894348144531">
<ele>2774</ele>
<time>2016-07-28T13:06:14Z</time>
</trkpt>
<trkpt lat="37.00914001464844" lon="-118.83894348144531">
<ele>2776</ele>
<time>2016-07-28T13:06:23Z</time>
</trkpt>
<trkpt lat="37.00921630859375" lon="-118.83894348144531">
<ele>2774</ele>
<time>2016-07-28T13:06:31Z</time>
</trkpt>
<trkpt lat="37.009307861328125" lon="-118.8388900756836">
<ele>2773</ele>
<time>2016-07-28T13:06:41Z</time>
</trkpt>
<trkpt lat="37.009395599365234" lon="-118.83887481689453">
<ele>2768</ele>
<time>2016-07-28T13:06:54Z</time>
</trkpt>
<trkpt lat="37.00944519042969" lon="-118.83885192871094">
<ele>2770</ele>
<time>2016-07-28T13:07:01Z</time>
</trkpt>
<trkpt lat="37.009490966796875" lon="-118.8388442993164">
<ele>2773</ele>
<time>2016-07-28T13:07:10Z</time>
</trkpt>
<trkpt lat="37.009586334228516" lon="-118.83881378173828">
<ele>2775</ele>
<time>2016-07-28T13:07:17Z</time>
</trkpt>
<trkpt lat="37.00966262817383" lon="-118.83875274658203">
<ele>2776</ele>
<time>2016-07-28T13:07:25Z</time>
</trkpt>
<trkpt lat="37.0097541809082" lon="-118.83866119384766">
<ele>2771</ele>
<time>2016-07-28T13:07:31Z</time>
</trkpt>
<trkpt lat="37.009830474853516" lon="-118.83859252929688">
<ele>2772</ele>
<time>2016-07-28T13:07:43Z</time>
</trkpt>
<trkpt lat="37.00988006591797" lon="-118.83858489990234">
<ele>2771</ele>
<time>2016-07-28T13:07:50Z</time>
</trkpt>
<trkpt lat="37.00999450683594" lon="-118.83856964111328">
<ele>2774</ele>
<time>2016-07-28T13:07:56Z</time>
</trkpt>
<trkpt lat="37.01008605957031" lon="-118.8385238647461">
<ele>2778</ele>
<time>2016-07-28T13:08:08Z</time>
</trkpt>
<trkpt lat="37.010169982910156" lon="-118.83846282958984">
<ele>2773</ele>
<time>2016-07-28T13:08:17Z</time>
</trkpt>
<trkpt lat="37.01021957397461" lon="-118.83844757080078">
<ele>2775</ele>
<time>2016-07-28T13:08:23Z</time>
</trkpt>
<trkpt lat="37.01026916503906" lon="-118.83839416503906">
<ele>2780</ele>
<time>2016-07-28T13:08:29Z</time>
</trkpt>
<trkpt lat="37.01036834716797" lon="-118.8383560180664">
<ele>2783</ele>
<time>2016-07-28T13:08:36Z</time>
</trkpt>
<trkpt lat="37.010475158691406" lon="-118.83836364746094">
<ele>2785</ele>
<time>2016-07-28T13:08:45Z</time>
</trkpt>
<trkpt lat="37.01057434082031" lon="-118.83832550048828">
<ele>2788</ele>
<time>2016-07-28T13:08:52Z</time>
</trkpt>
<trkpt lat="37.01067352294922" lon="-118.83830261230469">
<ele>2786</ele>
<time>2016-07-28T13:08:58Z</time>
</trkpt>
<trkpt lat="37.01076889038086" lon="-118.83827209472656">
<ele>2784</ele>
<time>2016-07-28T13:09:04Z</time>
</trkpt>
<trkpt lat="37.010868072509766" lon="-118.83824920654297">
<ele>2783</ele>
<time>2016-07-28T13:09:17Z</time>
</trkpt>
<trkpt lat="37.01093292236328" lon="-118.83821105957031">
<ele>2785</ele>
<time>2016-07-28T13:09:25Z</time>
</trkpt>
<trkpt lat="37.01097869873047" lon="-118.83818054199219">
<ele>2787</ele>
<time>2016-07-28T13:09:32Z</time>
</trkpt>
<trkpt lat="37.01109313964844" lon="-118.83818054199219">
<ele>2789</ele>
<time>2016-07-28T13:09:41Z</time>
</trkpt>
<trkpt lat="37.011207580566406" lon="-118.83819580078125">
<ele>2793</ele>
<time>2016-07-28T13:09:50Z</time>
</trkpt>
<trkpt lat="37.01130294799805" lon="-118.83821105957031">
<ele>2796</ele>
<time>2016-07-28T13:09:57Z</time>
</trkpt>
<trkpt lat="37.011356353759766" lon="-118.83822631835938">
<ele>2795</ele>
<time>2016-07-28T13:10:04Z</time>
</trkpt>
<trkpt lat="37.01145553588867" lon="-118.83818817138672">
<ele>2793</ele>
<time>2016-07-28T13:10:15Z</time>
</trkpt>
<trkpt lat="37.01155471801758" lon="-118.83820343017578">
<ele>2792</ele>
<time>2016-07-28T13:10:23Z</time>
</trkpt>
<trkpt lat="37.011695861816406" lon="-118.83824157714844">
<ele>2790</ele>
<time>2016-07-28T13:10:30Z</time>
</trkpt>
<trkpt lat="37.011817932128906" lon="-118.83827209472656">
<ele>2790</ele>
<time>2016-07-28T13:10:36Z</time>
</trkpt>
<trkpt lat="37.011924743652344" lon="-118.83830261230469">
<ele>2793</ele>
<time>2016-07-28T13:10:43Z</time>
</trkpt>
<trkpt lat="37.0119743347168" lon="-118.83828735351563">
<ele>2797</ele>
<time>2016-07-28T13:11:10Z</time>
</trkpt>
<trkpt lat="37.01206970214844" lon="-118.83831787109375">
<ele>2792</ele>
<time>2016-07-28T13:11:18Z</time>
</trkpt>
<trkpt lat="37.01213455200195" lon="-118.83837890625">
<ele>2791</ele>
<time>2016-07-28T13:11:25Z</time>
</trkpt>
<trkpt lat="37.01222229003906" lon="-118.83843994140625">
<ele>2791</ele>
<time>2016-07-28T13:11:34Z</time>
</trkpt>
<trkpt lat="37.01231002807617" lon="-118.8385238647461">
<ele>2792</ele>
<time>2016-07-28T13:11:42Z</time>
</trkpt>
<trkpt lat="37.012393951416016" lon="-118.83859252929688">
<ele>2792</ele>
<time>2016-07-28T13:11:49Z</time>
</trkpt>
<trkpt lat="37.01250076293945" lon="-118.83861541748047">
<ele>2796</ele>
<time>2016-07-28T13:11:55Z</time>
</trkpt>
<trkpt lat="37.0125732421875" lon="-118.83869934082031">
<ele>2800</ele>
<time>2016-07-28T13:12:02Z</time>
</trkpt>
<trkpt lat="37.01266860961914" lon="-118.8387451171875">
<ele>2797</ele>
<time>2016-07-28T13:12:12Z</time>
</trkpt>
<trkpt lat="37.01274490356445" lon="-118.83881378173828">
<ele>2795</ele>
<time>2016-07-28T13:12:23Z</time>
</trkpt>
<trkpt lat="37.01280975341797" lon="-118.83883666992188">
<ele>2795</ele>
<time>2016-07-28T13:12:33Z</time>
</trkpt>
<trkpt lat="37.012855529785156" lon="-118.8388442993164">
<ele>2798</ele>
<time>2016-07-28T13:12:40Z</time>
</trkpt>
<trkpt lat="37.01290512084961" lon="-118.83882141113281">
<ele>2799</ele>
<time>2016-07-28T13:12:46Z</time>
</trkpt>
<trkpt lat="37.01299285888672" lon="-118.83881378173828">
<ele>2800</ele>
<time>2016-07-28T13:12:53Z</time>
</trkpt>
<trkpt lat="37.013099670410156" lon="-118.83887481689453">
<ele>2799</ele>
<time>2016-07-28T13:13:01Z</time>
</trkpt>
<trkpt lat="37.01313018798828" lon="-118.83892059326172">
<ele>2802</ele>
<time>2016-07-28T13:13:08Z</time>
</trkpt>
<trkpt lat="37.0131721496582" lon="-118.83894348144531">
<ele>2806</ele>
<time>2016-07-28T13:13:15Z</time>
</trkpt>
<trkpt lat="37.01321029663086" lon="-118.83898162841797">
<ele>2811</ele>
<time>2016-07-28T13:13:22Z</time>
</trkpt>
<trkpt lat="37.01329040527344" lon="-118.83897399902344">
<ele>2809</ele>
<time>2016-07-28T13:13:29Z</time>
</trkpt>
<trkpt lat="37.01338195800781" lon="-118.83904266357422">
<ele>2807</ele>
<time>2016-07-28T13:13:40Z</time>
</trkpt>
<trkpt lat="37.01347732543945" lon="-118.83908081054688">
<ele>2805</ele>
<time>2016-07-28T13:14:16Z</time>
</trkpt>
<trkpt lat="37.013519287109375" lon="-118.83914184570313">
<ele>2806</ele>
<time>2016-07-28T13:14:25Z</time>
</trkpt>
<trkpt lat="37.01356887817383" lon="-118.83915710449219">
<ele>2810</ele>
<time>2016-07-28T13:14:35Z</time>
</trkpt>
<trkpt lat="37.01366424560547" lon="-118.83920288085938">
<ele>2812</ele>
<time>2016-07-28T13:14:43Z</time>
</trkpt>
<trkpt lat="37.01369094848633" lon="-118.83924865722656">
<ele>2810</ele>
<time>2016-07-28T13:14:54Z</time>
</trkpt>
<trkpt lat="37.013702392578125" lon="-118.83930206298828">
<ele>2810</ele>
<time>2016-07-28T13:15:23Z</time>
</trkpt>
<trkpt lat="37.013736724853516" lon="-118.8393783569336">
<ele>2808</ele>
<time>2016-07-28T13:15:30Z</time>
</trkpt>
<trkpt lat="37.01375198364258" lon="-118.83943939208984">
<ele>2808</ele>
<time>2016-07-28T13:15:37Z</time>
</trkpt>
<trkpt lat="37.01384353637695" lon="-118.83943939208984">
<ele>2811</ele>
<time>2016-07-28T13:15:45Z</time>
</trkpt>
<trkpt lat="37.013885498046875" lon="-118.8394775390625">
<ele>2812</ele>
<time>2016-07-28T13:15:51Z</time>
</trkpt>
<trkpt lat="37.01396560668945" lon="-118.83956146240234">
<ele>2814</ele>
<time>2016-07-28T13:16:02Z</time>
</trkpt>
<trkpt lat="37.014007568359375" lon="-118.83958435058594">
<ele>2816</ele>
<time>2016-07-28T13:16:12Z</time>
</trkpt>
<trkpt lat="37.014102935791016" lon="-118.83961486816406">
<ele>2818</ele>
<time>2016-07-28T13:16:25Z</time>
</trkpt>
<trkpt lat="37.01419448852539" lon="-118.83967590332031">
<ele>2818</ele>
<time>2016-07-28T13:16:33Z</time>
</trkpt>
<trkpt lat="37.01430130004883" lon="-118.83971405029297">
<ele>2819</ele>
<time>2016-07-28T13:16:40Z</time>
</trkpt>
<trkpt lat="37.0143928527832" lon="-118.83975219726563">
<ele>2814</ele>
<time>2016-07-28T13:16:47Z</time>
</trkpt>
<trkpt lat="37.014495849609375" lon="-118.83979034423828">
<ele>2816</ele>
<time>2016-07-28T13:16:57Z</time>
</trkpt>
<trkpt lat="37.01457595825195" lon="-118.83987426757813">
<ele>2816</ele>
<time>2016-07-28T13:17:03Z</time>
</trkpt>
<trkpt lat="37.0146369934082" lon="-118.8399887084961">
<ele>2817</ele>
<time>2016-07-28T13:17:11Z</time>
</trkpt>
<trkpt lat="37.014705657958984" lon="-118.8400650024414">
<ele>2820</ele>
<time>2016-07-28T13:17:19Z</time>
</trkpt>
<trkpt lat="37.01476287841797" lon="-118.8401107788086">
<ele>2821</ele>
<time>2016-07-28T13:17:25Z</time>
</trkpt>
<trkpt lat="37.01483917236328" lon="-118.8401870727539">
<ele>2822</ele>
<time>2016-07-28T13:17:34Z</time>
</trkpt>
<trkpt lat="37.014896392822266" lon="-118.8401870727539">
<ele>2822</ele>
<time>2016-07-28T13:17:40Z</time>
</trkpt>
<trkpt lat="37.01499938964844" lon="-118.8402099609375">
<ele>2821</ele>
<time>2016-07-28T13:17:49Z</time>
</trkpt>
<trkpt lat="37.01504898071289" lon="-118.8402099609375">
<ele>2818</ele>
<time>2016-07-28T13:17:55Z</time>
</trkpt>
<trkpt lat="37.0151481628418" lon="-118.8401870727539">
<ele>2819</ele>
<time>2016-07-28T13:18:05Z</time>
</trkpt>
<trkpt lat="37.015254974365234" lon="-118.84017181396484">
<ele>2816</ele>
<time>2016-07-28T13:18:15Z</time>
</trkpt>
<trkpt lat="37.015357971191406" lon="-118.84015655517578">
<ele>2812</ele>
<time>2016-07-28T13:18:24Z</time>
</trkpt>
<trkpt lat="37.01542663574219" lon="-118.84014129638672">
<ele>2814</ele>
<time>2016-07-28T13:18:30Z</time>
</trkpt>
<trkpt lat="37.015472412109375" lon="-118.84011840820313">
<ele>2814</ele>
<time>2016-07-28T13:18:36Z</time>
</trkpt>
<trkpt lat="37.01551055908203" lon="-118.84007263183594">
<ele>2813</ele>
<time>2016-07-28T13:18:43Z</time>
</trkpt>
<trkpt lat="37.01553726196289" lon="-118.8399658203125">
<ele>2812</ele>
<time>2016-07-28T13:18:53Z</time>
</trkpt>
<trkpt lat="37.01557922363281" lon="-118.8399429321289">
<ele>2815</ele>
<time>2016-07-28T13:18:59Z</time>
</trkpt>
<trkpt lat="37.015621185302734" lon="-118.83997344970703">
<ele>2814</ele>
<time>2016-07-28T13:19:05Z</time>
</trkpt>
<trkpt lat="37.015647888183594" lon="-118.84001159667969">
<ele>2814</ele>
<time>2016-07-28T13:19:18Z</time>
</trkpt>
<trkpt lat="37.015663146972656" lon="-118.84008026123047">
<ele>2813</ele>
<time>2016-07-28T13:19:24Z</time>
</trkpt>
<trkpt lat="37.01569747924805" lon="-118.84013366699219">
<ele>2817</ele>
<time>2016-07-28T13:19:33Z</time>
</trkpt>
<trkpt lat="37.0157470703125" lon="-118.84014892578125">
<ele>2822</ele>
<time>2016-07-28T13:19:44Z</time>
</trkpt>
<trkpt lat="37.01579666137695" lon="-118.84017944335938">
<ele>2822</ele>
<time>2016-07-28T13:19:50Z</time>
</trkpt>
<trkpt lat="37.01588439941406" lon="-118.84021759033203">
<ele>2822</ele>
<time>2016-07-28T13:20:03Z</time>
</trkpt>
<trkpt lat="37.01593017578125" lon="-118.84019470214844">
<ele>2827</ele>
<time>2016-07-28T13:20:10Z</time>
</trkpt>
<trkpt lat="37.016014099121094" lon="-118.84011840820313">
<ele>2827</ele>
<time>2016-07-28T13:20:21Z</time>
</trkpt>
<trkpt lat="37.01610565185547" lon="-118.84013366699219">
<ele>2828</ele>
<time>2016-07-28T13:20:29Z</time>
</trkpt>
<trkpt lat="37.01620864868164" lon="-118.84012603759766">
<ele>2826</ele>
<time>2016-07-28T13:20:38Z</time>
</trkpt>
<trkpt lat="37.016258239746094" lon="-118.84014129638672">
<ele>2831</ele>
<time>2016-07-28T13:20:44Z</time>
</trkpt>
<trkpt lat="37.01631164550781" lon="-118.84012603759766">
<ele>2838</ele>
<time>2016-07-28T13:20:53Z</time>
</trkpt>
<trkpt lat="37.01639938354492" lon="-118.840087890625">
<ele>2836</ele>
<time>2016-07-28T13:21:00Z</time>
</trkpt>
<trkpt lat="37.0164909362793" lon="-118.84004211425781">
<ele>2836</ele>
<time>2016-07-28T13:21:06Z</time>
</trkpt>
<trkpt lat="37.01659393310547" lon="-118.84004211425781">
<ele>2839</ele>
<time>2016-07-28T13:21:14Z</time>
</trkpt>
<trkpt lat="37.01668167114258" lon="-118.83999633789063">
<ele>2840</ele>
<time>2016-07-28T13:21:22Z</time>
</trkpt>
<trkpt lat="37.016719818115234" lon="-118.83993530273438">
<ele>2842</ele>
<time>2016-07-28T13:21:40Z</time>
</trkpt>
<trkpt lat="37.016780853271484" lon="-118.8399887084961">
<ele>2834</ele>
<time>2016-07-28T13:26:08Z</time>
</trkpt>
<trkpt lat="37.01688003540039" lon="-118.83998107910156">
<ele>2838</ele>
<time>2016-07-28T13:26:18Z</time>
</trkpt>
<trkpt lat="37.01694107055664" lon="-118.84000396728516">
<ele>2836</ele>
<time>2016-07-28T13:26:25Z</time>
</trkpt>
<trkpt lat="37.01698684692383" lon="-118.83999633789063">
<ele>2837</ele>
<time>2016-07-28T13:26:35Z</time>
</trkpt>
<trkpt lat="37.01708221435547" lon="-118.83995819091797">
<ele>2837</ele>
<time>2016-07-28T13:26:43Z</time>
</trkpt>
<trkpt lat="37.01719284057617" lon="-118.8399658203125">
<ele>2837</ele>
<time>2016-07-28T13:26:53Z</time>
</trkpt>
<trkpt lat="37.01729202270508" lon="-118.83999633789063">
<ele>2837</ele>
<time>2016-07-28T13:27:01Z</time>
</trkpt>
<trkpt lat="37.01740264892578" lon="-118.84002685546875">
<ele>2837</ele>
<time>2016-07-28T13:27:09Z</time>
</trkpt>
<trkpt lat="37.017494201660156" lon="-118.84007263183594">
<ele>2835</ele>
<time>2016-07-28T13:27:16Z</time>
</trkpt>
<trkpt lat="37.0175895690918" lon="-118.8401107788086">
<ele>2837</ele>
<time>2016-07-28T13:27:24Z</time>
</trkpt>
<trkpt lat="37.0177001953125" lon="-118.8401870727539">
<ele>2836</ele>
<time>2016-07-28T13:27:33Z</time>
</trkpt>
<trkpt lat="37.01779556274414" lon="-118.84020233154297">
<ele>2837</ele>
<time>2016-07-28T13:27:41Z</time>
</trkpt>
<trkpt lat="37.017887115478516" lon="-118.8402328491211">
<ele>2838</ele>
<time>2016-07-28T13:27:52Z</time>
</trkpt>
<trkpt lat="37.01795959472656" lon="-118.84032440185547">
<ele>2840</ele>
<time>2016-07-28T13:28:02Z</time>
</trkpt>
<trkpt lat="37.0180549621582" lon="-118.84038543701172">
<ele>2841</ele>
<time>2016-07-28T13:28:10Z</time>
</trkpt>
<trkpt lat="37.01812744140625" lon="-118.84046936035156">
<ele>2840</ele>
<time>2016-07-28T13:28:17Z</time>
</trkpt>
<trkpt lat="37.01821517944336" lon="-118.84054565429688">
<ele>2840</ele>
<time>2016-07-28T13:28:25Z</time>
</trkpt>
<trkpt lat="37.01828384399414" lon="-118.84066009521484">
<ele>2838</ele>
<time>2016-07-28T13:28:33Z</time>
</trkpt>
<trkpt lat="37.01835250854492" lon="-118.84075164794922">
<ele>2839</ele>
<time>2016-07-28T13:28:43Z</time>
</trkpt>
<trkpt lat="37.0184326171875" lon="-118.84078979492188">
<ele>2837</ele>
<time>2016-07-28T13:28:53Z</time>
</trkpt>
<trkpt lat="37.018524169921875" lon="-118.84082794189453">
<ele>2838</ele>
<time>2016-07-28T13:29:06Z</time>
</trkpt>
<trkpt lat="37.01859664916992" lon="-118.8409194946289">
<ele>2840</ele>
<time>2016-07-28T13:29:14Z</time>
</trkpt>
<trkpt lat="37.01866912841797" lon="-118.84098052978516">
<ele>2840</ele>
<time>2016-07-28T13:29:24Z</time>
</trkpt>
<trkpt lat="37.01871109008789" lon="-118.8410415649414">
<ele>2841</ele>
<time>2016-07-28T13:29:31Z</time>
</trkpt>
<trkpt lat="37.018775939941406" lon="-118.84114074707031">
<ele>2846</ele>
<time>2016-07-28T13:29:41Z</time>
</trkpt>
<trkpt lat="37.018798828125" lon="-118.8411865234375">
<ele>2845</ele>
<time>2016-07-28T13:29:47Z</time>
</trkpt>
<trkpt lat="37.01880645751953" lon="-118.84124755859375">
<ele>2846</ele>
<time>2016-07-28T13:29:53Z</time>
</trkpt>
<trkpt lat="37.018829345703125" lon="-118.84130096435547">
<ele>2844</ele>
<time>2016-07-28T13:29:59Z</time>
</trkpt>
<trkpt lat="37.018856048583984" lon="-118.84135437011719">
<ele>2843</ele>
<time>2016-07-28T13:30:05Z</time>
</trkpt>
<trkpt lat="37.018882751464844" lon="-118.84140014648438">
<ele>2845</ele>
<time>2016-07-28T13:30:11Z</time>
</trkpt>
<trkpt lat="37.0189323425293" lon="-118.84150695800781">
<ele>2846</ele>
<time>2016-07-28T13:30:20Z</time>
</trkpt>
<trkpt lat="37.018978118896484" lon="-118.84162902832031">
<ele>2851</ele>
<time>2016-07-28T13:30:30Z</time>
</trkpt>
<trkpt lat="37.01899337768555" lon="-118.84169006347656">
<ele>2854</ele>
<time>2016-07-28T13:30:38Z</time>
</trkpt>
<trkpt lat="37.01902389526367" lon="-118.84173583984375">
<ele>2852</ele>
<time>2016-07-28T13:30:44Z</time>
</trkpt>
<trkpt lat="37.019073486328125" lon="-118.84183502197266">
<ele>2848</ele>
<time>2016-07-28T13:30:52Z</time>
</trkpt>
<trkpt lat="37.019126892089844" lon="-118.8419418334961">
<ele>2852</ele>
<time>2016-07-28T13:31:01Z</time>
</trkpt>
<trkpt lat="37.01919174194336" lon="-118.84204864501953">
<ele>2855</ele>
<time>2016-07-28T13:31:11Z</time>
</trkpt>
<trkpt lat="37.01927185058594" lon="-118.84210968017578">
<ele>2855</ele>
<time>2016-07-28T13:31:20Z</time>
</trkpt>
<trkpt lat="37.019351959228516" lon="-118.84217834472656">
<ele>2853</ele>
<time>2016-07-28T13:31:30Z</time>
</trkpt>
<trkpt lat="37.01944351196289" lon="-118.84217834472656">
<ele>2855</ele>
<time>2016-07-28T13:31:40Z</time>
</trkpt>
<trkpt lat="37.01948928833008" lon="-118.84217071533203">
<ele>2858</ele>
<time>2016-07-28T13:32:10Z</time>
</trkpt>
<trkpt lat="37.01953125" lon="-118.84221649169922">
<ele>2860</ele>
<time>2016-07-28T13:32:16Z</time>
</trkpt>
<trkpt lat="37.01957702636719" lon="-118.84223175048828">
<ele>2862</ele>
<time>2016-07-28T13:32:22Z</time>
</trkpt>
<trkpt lat="37.01963424682617" lon="-118.84229278564453">
<ele>2861</ele>
<time>2016-07-28T13:32:31Z</time>
</trkpt>
<trkpt lat="37.0196647644043" lon="-118.84233856201172">
<ele>2860</ele>
<time>2016-07-28T13:32:41Z</time>
</trkpt>
<trkpt lat="37.0197639465332" lon="-118.84235382080078">
<ele>2855</ele>
<time>2016-07-28T13:32:51Z</time>
</trkpt>
<trkpt lat="37.01980209350586" lon="-118.8424072265625">
<ele>2855</ele>
<time>2016-07-28T13:32:58Z</time>
</trkpt>
<trkpt lat="37.019859313964844" lon="-118.84251403808594">
<ele>2853</ele>
<time>2016-07-28T13:33:08Z</time>
</trkpt>
<trkpt lat="37.01992416381836" lon="-118.84260559082031">
<ele>2848</ele>
<time>2016-07-28T13:33:17Z</time>
</trkpt>
<trkpt lat="37.01994705200195" lon="-118.84272003173828">
<ele>2849</ele>
<time>2016-07-28T13:33:25Z</time>
</trkpt>
<trkpt lat="37.020042419433594" lon="-118.84278869628906">
<ele>2849</ele>
<time>2016-07-28T13:33:34Z</time>
</trkpt>
<trkpt lat="37.020111083984375" lon="-118.84288024902344">
<ele>2849</ele>
<time>2016-07-28T13:33:42Z</time>
</trkpt>
<trkpt lat="37.020179748535156" lon="-118.84297943115234">
<ele>2856</ele>
<time>2016-07-28T13:33:52Z</time>
</trkpt>
<trkpt lat="37.02021026611328" lon="-118.84302520751953">
<ele>2859</ele>
<time>2016-07-28T13:33:58Z</time>
</trkpt>
<trkpt lat="37.0202751159668" lon="-118.8431167602539">
<ele>2860</ele>
<time>2016-07-28T13:34:09Z</time>
</trkpt>
<trkpt lat="37.02035140991211" lon="-118.84317779541016">
<ele>2863</ele>
<time>2016-07-28T13:34:20Z</time>
</trkpt>
<trkpt lat="37.020408630371094" lon="-118.84325408935547">
<ele>2869</ele>
<time>2016-07-28T13:34:38Z</time>
</trkpt>
<trkpt lat="37.02046203613281" lon="-118.84327697753906">
<ele>2868</ele>
<time>2016-07-28T13:34:58Z</time>
</trkpt>
<trkpt lat="37.02050018310547" lon="-118.84331512451172">
<ele>2869</ele>
<time>2016-07-28T13:35:04Z</time>
</trkpt>
<trkpt lat="37.020538330078125" lon="-118.84334564208984">
<ele>2869</ele>
<time>2016-07-28T13:35:11Z</time>
</trkpt>
<trkpt lat="37.02058792114258" lon="-118.84339141845703">
<ele>2867</ele>
<time>2016-07-28T13:35:18Z</time>
</trkpt>
<trkpt lat="37.020652770996094" lon="-118.84346771240234">
<ele>2867</ele>
<time>2016-07-28T13:35:25Z</time>
</trkpt>
<trkpt lat="37.02069854736328" lon="-118.8434829711914">
<ele>2867</ele>
<time>2016-07-28T13:35:31Z</time>
</trkpt>
<trkpt lat="37.020748138427734" lon="-118.84349822998047">
<ele>2871</ele>
<time>2016-07-28T13:35:39Z</time>
</trkpt>
<trkpt lat="37.02079391479492" lon="-118.84349060058594">
<ele>2876</ele>
<time>2016-07-28T13:35:54Z</time>
</trkpt>
<trkpt lat="37.02083206176758" lon="-118.84344482421875">
<ele>2874</ele>
<time>2016-07-28T13:36:00Z</time>
</trkpt>
<trkpt lat="37.020931243896484" lon="-118.84342193603516">
<ele>2874</ele>
<time>2016-07-28T13:36:10Z</time>
</trkpt>
<trkpt lat="37.02098083496094" lon="-118.84339904785156">
<ele>2877</ele>
<time>2016-07-28T13:36:16Z</time>
</trkpt>
<trkpt lat="37.02104949951172" lon="-118.84335327148438">
<ele>2875</ele>
<time>2016-07-28T13:36:25Z</time>
</trkpt>
<trkpt lat="37.02108383178711" lon="-118.84331512451172">
<ele>2870</ele>
<time>2016-07-28T13:36:39Z</time>
</trkpt>
<trkpt lat="37.021114349365234" lon="-118.84326934814453">
<ele>2871</ele>
<time>2016-07-28T13:36:49Z</time>
</trkpt>
<trkpt lat="37.02116012573242" lon="-118.84324645996094">
<ele>2870</ele>
<time>2016-07-28T13:36:55Z</time>
</trkpt>
<trkpt lat="37.02119064331055" lon="-118.84320068359375">
<ele>2872</ele>
<time>2016-07-28T13:37:01Z</time>
</trkpt>
<trkpt lat="37.021236419677734" lon="-118.84317016601563">
<ele>2871</ele>
<time>2016-07-28T13:37:07Z</time>
</trkpt>
<trkpt lat="37.02125549316406" lon="-118.8431167602539">
<ele>2869</ele>
<time>2016-07-28T13:37:13Z</time>
</trkpt>
<trkpt lat="37.02127456665039" lon="-118.84305572509766">
<ele>2869</ele>
<time>2016-07-28T13:37:21Z</time>
</trkpt>
<trkpt lat="37.021366119384766" lon="-118.84302520751953">
<ele>2870</ele>
<time>2016-07-28T13:37:31Z</time>
</trkpt>
<trkpt lat="37.02140426635742" lon="-118.84298706054688">
<ele>2868</ele>
<time>2016-07-28T13:37:37Z</time>
</trkpt>
<trkpt lat="37.02145004272461" lon="-118.84294891357422">
<ele>2867</ele>
<time>2016-07-28T13:37:44Z</time>
</trkpt>
<trkpt lat="37.021549224853516" lon="-118.84291076660156">
<ele>2872</ele>
<time>2016-07-28T13:38:00Z</time>
</trkpt>
<trkpt lat="37.02159881591797" lon="-118.84290313720703">
<ele>2871</ele>
<time>2016-07-28T13:38:17Z</time>
</trkpt>
<trkpt lat="37.02165985107422" lon="-118.84288787841797">
<ele>2864</ele>
<time>2016-07-28T13:38:25Z</time>
</trkpt>
<trkpt lat="37.02171325683594" lon="-118.84290313720703">
<ele>2869</ele>
<time>2016-07-28T13:38:35Z</time>
</trkpt>
<trkpt lat="37.021751403808594" lon="-118.84292602539063">
<ele>2869</ele>
<time>2016-07-28T13:38:46Z</time>
</trkpt>
<trkpt lat="37.02179718017578" lon="-118.84292602539063">
<ele>2872</ele>
<time>2016-07-28T13:39:07Z</time>
</trkpt>
<trkpt lat="37.02184295654297" lon="-118.84293365478516">
<ele>2874</ele>
<time>2016-07-28T13:39:14Z</time>
</trkpt>
<trkpt lat="37.021888732910156" lon="-118.84291076660156">
<ele>2876</ele>
<time>2016-07-28T13:39:20Z</time>
</trkpt>
<trkpt lat="37.0219612121582" lon="-118.8428955078125">
<ele>2875</ele>
<time>2016-07-28T13:39:31Z</time>
</trkpt>
<trkpt lat="37.02200698852539" lon="-118.84288024902344">
<ele>2871</ele>
<time>2016-07-28T13:39:41Z</time>
</trkpt>
<trkpt lat="37.02204513549805" lon="-118.84284973144531">
<ele>2869</ele>
<time>2016-07-28T13:39:53Z</time>
</trkpt>
<trkpt lat="37.02207565307617" lon="-118.8427963256836">
<ele>2869</ele>
<time>2016-07-28T13:40:02Z</time>
</trkpt>
<trkpt lat="37.022098541259766" lon="-118.84274291992188">
<ele>2871</ele>
<time>2016-07-28T13:40:09Z</time>
</trkpt>
<trkpt lat="37.0220947265625" lon="-118.84268188476563">
<ele>2867</ele>
<time>2016-07-28T13:40:17Z</time>
</trkpt>
<trkpt lat="37.022071838378906" lon="-118.84258270263672">
<ele>2868</ele>
<time>2016-07-28T13:40:34Z</time>
</trkpt>
<trkpt lat="37.022098541259766" lon="-118.84246826171875">
<ele>2864</ele>
<time>2016-07-28T13:40:50Z</time>
</trkpt>
<trkpt lat="37.0220947265625" lon="-118.8424072265625">
<ele>2862</ele>
<time>2016-07-28T13:40:59Z</time>
</trkpt>
<trkpt lat="37.02204895019531" lon="-118.84229278564453">
<ele>2862</ele>
<time>2016-07-28T13:41:14Z</time>
</trkpt>
<trkpt lat="37.02208709716797" lon="-118.84221649169922">
<ele>2864</ele>
<time>2016-07-28T13:41:25Z</time>
</trkpt>
<trkpt lat="37.02208709716797" lon="-118.84215545654297">
<ele>2864</ele>
<time>2016-07-28T13:41:38Z</time>
</trkpt>
<trkpt lat="37.022071838378906" lon="-118.84201049804688">
<ele>2864</ele>
<time>2016-07-28T13:41:48Z</time>
</trkpt>
<trkpt lat="37.0221061706543" lon="-118.84190368652344">
<ele>2865</ele>
<time>2016-07-28T13:42:03Z</time>
</trkpt>
<trkpt lat="37.02210998535156" lon="-118.84184265136719">
<ele>2864</ele>
<time>2016-07-28T13:42:09Z</time>
</trkpt>
<trkpt lat="37.02214050292969" lon="-118.84173583984375">
<ele>2866</ele>
<time>2016-07-28T13:42:24Z</time>
</trkpt>
<trkpt lat="37.022132873535156" lon="-118.84166717529297">
<ele>2864</ele>
<time>2016-07-28T13:42:33Z</time>
</trkpt>
<trkpt lat="37.02212142944336" lon="-118.84160614013672">
<ele>2862</ele>
<time>2016-07-28T13:42:39Z</time>
</trkpt>
<trkpt lat="37.022132873535156" lon="-118.84154510498047">
<ele>2863</ele>
<time>2016-07-28T13:42:45Z</time>
</trkpt>
<trkpt lat="37.02212905883789" lon="-118.84148406982422">
<ele>2863</ele>
<time>2016-07-28T13:42:51Z</time>
</trkpt>
<trkpt lat="37.022186279296875" lon="-118.84138488769531">
<ele>2866</ele>
<time>2016-07-28T13:43:02Z</time>
</trkpt>
<trkpt lat="37.02223205566406" lon="-118.84137725830078">
<ele>2863</ele>
<time>2016-07-28T13:43:19Z</time>
</trkpt>
<trkpt lat="37.02228546142578" lon="-118.8412857055664">
<ele>2864</ele>
<time>2016-07-28T13:43:43Z</time>
</trkpt>
<trkpt lat="37.02232360839844" lon="-118.84125518798828">
<ele>2866</ele>
<time>2016-07-28T13:43:54Z</time>
</trkpt>
<trkpt lat="37.022315979003906" lon="-118.84119415283203">
<ele>2864</ele>
<time>2016-07-28T13:44:10Z</time>
</trkpt>
<trkpt lat="37.02229309082031" lon="-118.84114074707031">
<ele>2858</ele>
<time>2016-07-28T13:44:22Z</time>
</trkpt>
<trkpt lat="37.022239685058594" lon="-118.84107208251953">
<ele>2857</ele>
<time>2016-07-28T13:44:31Z</time>
</trkpt>
<trkpt lat="37.02220153808594" lon="-118.84097290039063">
<ele>2859</ele>
<time>2016-07-28T13:44:47Z</time>
</trkpt>
<trkpt lat="37.02220153808594" lon="-118.84091186523438">
<ele>2859</ele>
<time>2016-07-28T13:44:57Z</time>
</trkpt>
<trkpt lat="37.022220611572266" lon="-118.84085845947266">
<ele>2858</ele>
<time>2016-07-28T13:45:07Z</time>
</trkpt>
<trkpt lat="37.022216796875" lon="-118.84078979492188">
<ele>2860</ele>
<time>2016-07-28T13:45:13Z</time>
</trkpt>
<trkpt lat="37.022216796875" lon="-118.84069061279297">
<ele>2861</ele>
<time>2016-07-28T13:45:25Z</time>
</trkpt>
<trkpt lat="37.022193908691406" lon="-118.84064483642578">
<ele>2859</ele>
<time>2016-07-28T13:45:58Z</time>
</trkpt>
<trkpt lat="37.02223587036133" lon="-118.84052276611328">
<ele>2859</ele>
<time>2016-07-28T13:46:08Z</time>
</trkpt>
<trkpt lat="37.02226638793945" lon="-118.84048461914063">
<ele>2859</ele>
<time>2016-07-28T13:46:18Z</time>
</trkpt>
<trkpt lat="37.022335052490234" lon="-118.84043884277344">
<ele>2858</ele>
<time>2016-07-28T13:46:25Z</time>
</trkpt>
<trkpt lat="37.02237319946289" lon="-118.84040069580078">
<ele>2859</ele>
<time>2016-07-28T13:46:34Z</time>
</trkpt>
<trkpt lat="37.02240753173828" lon="-118.8403549194336">
<ele>2862</ele>
<time>2016-07-28T13:46:43Z</time>
</trkpt>
<trkpt lat="37.022430419921875" lon="-118.84030151367188">
<ele>2865</ele>
<time>2016-07-28T13:46:52Z</time>
</trkpt>
<trkpt lat="37.02244567871094" lon="-118.8402099609375">
<ele>2870</ele>
<time>2016-07-28T13:47:04Z</time>
</trkpt>
<trkpt lat="37.0224609375" lon="-118.84015655517578">
<ele>2873</ele>
<time>2016-07-28T13:47:19Z</time>
</trkpt>
<trkpt lat="37.02246856689453" lon="-118.84004974365234">
<ele>2872</ele>
<time>2016-07-28T13:47:31Z</time>
</trkpt>
<trkpt lat="37.02249526977539" lon="-118.83999633789063">
<ele>2872</ele>
<time>2016-07-28T13:47:38Z</time>
</trkpt>
<trkpt lat="37.02251052856445" lon="-118.8399429321289">
<ele>2875</ele>
<time>2016-07-28T13:47:44Z</time>
</trkpt>
<trkpt lat="37.02252960205078" lon="-118.83988189697266">
<ele>2874</ele>
<time>2016-07-28T13:47:54Z</time>
</trkpt>
<trkpt lat="37.02256393432617" lon="-118.83983612060547">
<ele>2873</ele>
<time>2016-07-28T13:48:02Z</time>
</trkpt>
<trkpt lat="37.02257537841797" lon="-118.83976745605469">
<ele>2872</ele>
<time>2016-07-28T13:48:08Z</time>
</trkpt>
<trkpt lat="37.02260208129883" lon="-118.83971405029297">
<ele>2874</ele>
<time>2016-07-28T13:48:14Z</time>
</trkpt>
<trkpt lat="37.02261734008789" lon="-118.83965301513672">
<ele>2877</ele>
<time>2016-07-28T13:48:20Z</time>
</trkpt>
<trkpt lat="37.022605895996094" lon="-118.8395767211914">
<ele>2876</ele>
<time>2016-07-28T13:48:34Z</time>
</trkpt>
<trkpt lat="37.02260971069336" lon="-118.83951568603516">
<ele>2875</ele>
<time>2016-07-28T13:48:40Z</time>
</trkpt>
<trkpt lat="37.022647857666016" lon="-118.83940887451172">
<ele>2878</ele>
<time>2016-07-28T13:48:52Z</time>
</trkpt>
<trkpt lat="37.022708892822266" lon="-118.83930969238281">
<ele>2876</ele>
<time>2016-07-28T13:49:03Z</time>
</trkpt>
<trkpt lat="37.02275848388672" lon="-118.83920288085938">
<ele>2876</ele>
<time>2016-07-28T13:49:13Z</time>
</trkpt>
<trkpt lat="37.02281188964844" lon="-118.83909606933594">
<ele>2877</ele>
<time>2016-07-28T13:49:23Z</time>
</trkpt>
<trkpt lat="37.02283477783203" lon="-118.83899688720703">
<ele>2873</ele>
<time>2016-07-28T13:49:31Z</time>
</trkpt>
<trkpt lat="37.022911071777344" lon="-118.83890533447266">
<ele>2872</ele>
<time>2016-07-28T13:49:41Z</time>
</trkpt>
<trkpt lat="37.023006439208984" lon="-118.8388442993164">
<ele>2870</ele>
<time>2016-07-28T13:49:51Z</time>
</trkpt>
<trkpt lat="37.023048400878906" lon="-118.83881378173828">
<ele>2874</ele>
<time>2016-07-28T13:49:57Z</time>
</trkpt>
<trkpt lat="37.023094177246094" lon="-118.83882141113281">
<ele>2874</ele>
<time>2016-07-28T13:50:09Z</time>
</trkpt>
<trkpt lat="37.02318572998047" lon="-118.8388671875">
<ele>2877</ele>
<time>2016-07-28T13:50:18Z</time>
</trkpt>
<trkpt lat="37.02326583862305" lon="-118.83893585205078">
<ele>2868</ele>
<time>2016-07-28T13:50:26Z</time>
</trkpt>
<trkpt lat="37.023372650146484" lon="-118.83892822265625">
<ele>2867</ele>
<time>2016-07-28T13:50:34Z</time>
</trkpt>
<trkpt lat="37.02346420288086" lon="-118.83894348144531">
<ele>2869</ele>
<time>2016-07-28T13:50:44Z</time>
</trkpt>
<trkpt lat="37.023563385009766" lon="-118.83897399902344">
<ele>2872</ele>
<time>2016-07-28T13:50:53Z</time>
</trkpt>
<trkpt lat="37.02365493774414" lon="-118.83892059326172">
<ele>2877</ele>
<time>2016-07-28T13:51:04Z</time>
</trkpt>
<trkpt lat="37.02375030517578" lon="-118.83891296386719">
<ele>2883</ele>
<time>2016-07-28T13:51:19Z</time>
</trkpt>
<trkpt lat="37.0238151550293" lon="-118.83891296386719">
<ele>2881</ele>
<time>2016-07-28T13:51:26Z</time>
</trkpt>
<trkpt lat="37.02390670776367" lon="-118.83892059326172">
<ele>2879</ele>
<time>2016-07-28T13:51:37Z</time>
</trkpt>
<trkpt lat="37.024009704589844" lon="-118.83891296386719">
<ele>2885</ele>
<time>2016-07-28T13:51:49Z</time>
</trkpt>
<trkpt lat="37.02410125732422" lon="-118.83887481689453">
<ele>2879</ele>
<time>2016-07-28T13:52:08Z</time>
</trkpt>
<trkpt lat="37.02418518066406" lon="-118.83883666992188">
<ele>2878</ele>
<time>2016-07-28T13:52:16Z</time>
</trkpt>
<trkpt lat="37.02423095703125" lon="-118.83883666992188">
<ele>2876</ele>
<time>2016-07-28T13:52:22Z</time>
</trkpt>
<trkpt lat="37.02431869506836" lon="-118.83879089355469">
<ele>2878</ele>
<time>2016-07-28T13:52:31Z</time>
</trkpt>
<trkpt lat="37.0244140625" lon="-118.83878326416016">
<ele>2880</ele>
<time>2016-07-28T13:52:43Z</time>
</trkpt>
<trkpt lat="37.02445983886719" lon="-118.83879089355469">
<ele>2878</ele>
<time>2016-07-28T13:52:53Z</time>
</trkpt>
<trkpt lat="37.024505615234375" lon="-118.83878326416016">
<ele>2878</ele>
<time>2016-07-28T13:53:00Z</time>
</trkpt>
<trkpt lat="37.02460861206055" lon="-118.83876037597656">
<ele>2878</ele>
<time>2016-07-28T13:53:10Z</time>
</trkpt>
<trkpt lat="37.024654388427734" lon="-118.8387680053711">
<ele>2879</ele>
<time>2016-07-28T13:53:19Z</time>
</trkpt>
<trkpt lat="37.02471160888672" lon="-118.83876037597656">
<ele>2883</ele>
<time>2016-07-28T13:53:25Z</time>
</trkpt>
<trkpt lat="37.02476501464844" lon="-118.83872985839844">
<ele>2882</ele>
<time>2016-07-28T13:53:31Z</time>
</trkpt>
<trkpt lat="37.02481460571289" lon="-118.83870697021484">
<ele>2883</ele>
<time>2016-07-28T13:53:37Z</time>
</trkpt>
<trkpt lat="37.02485656738281" lon="-118.83869171142578">
<ele>2883</ele>
<time>2016-07-28T13:53:43Z</time>
</trkpt>
<trkpt lat="37.02490997314453" lon="-118.83867645263672">
<ele>2882</ele>
<time>2016-07-28T13:53:49Z</time>
</trkpt>
<trkpt lat="37.02499771118164" lon="-118.83863067626953">
<ele>2883</ele>
<time>2016-07-28T13:53:58Z</time>
</trkpt>
<trkpt lat="37.02505111694336" lon="-118.83863067626953">
<ele>2884</ele>
<time>2016-07-28T13:54:05Z</time>
</trkpt>
<trkpt lat="37.02515411376953" lon="-118.838623046875">
<ele>2890</ele>
<time>2016-07-28T13:54:19Z</time>
</trkpt>
<trkpt lat="37.02524948120117" lon="-118.83861541748047">
<ele>2892</ele>
<time>2016-07-28T13:54:26Z</time>
</trkpt>
<trkpt lat="37.02535629272461" lon="-118.8386001586914">
<ele>2892</ele>
<time>2016-07-28T13:54:33Z</time>
</trkpt>
<trkpt lat="37.02543258666992" lon="-118.83851623535156">
<ele>2895</ele>
<time>2016-07-28T13:54:43Z</time>
</trkpt>
<trkpt lat="37.025516510009766" lon="-118.83846282958984">
<ele>2896</ele>
<time>2016-07-28T13:54:51Z</time>
</trkpt>
<trkpt lat="37.025611877441406" lon="-118.83847045898438">
<ele>2896</ele>
<time>2016-07-28T13:54:58Z</time>
</trkpt>
<trkpt lat="37.02570724487305" lon="-118.8384780883789">
<ele>2894</ele>
<time>2016-07-28T13:55:06Z</time>
</trkpt>
<trkpt lat="37.02579879760742" lon="-118.83846282958984">
<ele>2887</ele>
<time>2016-07-28T13:55:23Z</time>
</trkpt>
<trkpt lat="37.02584457397461" lon="-118.8384017944336">
<ele>2887</ele>
<time>2016-07-28T13:55:32Z</time>
</trkpt>
<trkpt lat="37.02590560913086" lon="-118.83831024169922">
<ele>2887</ele>
<time>2016-07-28T13:55:46Z</time>
</trkpt>
<trkpt lat="37.025997161865234" lon="-118.8382797241211">
<ele>2883</ele>
<time>2016-07-28T13:55:56Z</time>
</trkpt>
<trkpt lat="37.02610778808594" lon="-118.83826446533203">
<ele>2883</ele>
<time>2016-07-28T13:56:06Z</time>
</trkpt>
<trkpt lat="37.02620315551758" lon="-118.83824920654297">
<ele>2882</ele>
<time>2016-07-28T13:56:14Z</time>
</trkpt>
<trkpt lat="37.02629089355469" lon="-118.83817291259766">
<ele>2882</ele>
<time>2016-07-28T13:56:23Z</time>
</trkpt>
<trkpt lat="37.02634048461914" lon="-118.83811950683594">
<ele>2885</ele>
<time>2016-07-28T13:56:30Z</time>
</trkpt>
<trkpt lat="37.0263786315918" lon="-118.83808898925781">
<ele>2885</ele>
<time>2016-07-28T13:56:36Z</time>
</trkpt>
<trkpt lat="37.02646255493164" lon="-118.83802795410156">
<ele>2886</ele>
<time>2016-07-28T13:56:45Z</time>
</trkpt>
<trkpt lat="37.026554107666016" lon="-118.83805084228516">
<ele>2886</ele>
<time>2016-07-28T13:56:58Z</time>
</trkpt>
<trkpt lat="37.02652359008789" lon="-118.83809661865234">
<ele>2884</ele>
<time>2016-07-28T13:57:11Z</time>
</trkpt>
<trkpt lat="37.02656173706055" lon="-118.838134765625">
<ele>2885</ele>
<time>2016-07-28T13:57:18Z</time>
</trkpt>
<trkpt lat="37.0265998840332" lon="-118.83816528320313">
<ele>2885</ele>
<time>2016-07-28T13:57:25Z</time>
</trkpt>
<trkpt lat="37.026634216308594" lon="-118.8382339477539">
<ele>2885</ele>
<time>2016-07-28T13:57:35Z</time>
</trkpt>
<trkpt lat="37.02667236328125" lon="-118.83834075927734">
<ele>2884</ele>
<time>2016-07-28T13:57:47Z</time>
</trkpt>
<trkpt lat="37.02671432495117" lon="-118.83836364746094">
<ele>2884</ele>
<time>2016-07-28T13:57:55Z</time>
</trkpt>
<trkpt lat="37.02675247192383" lon="-118.83831787109375">
<ele>2887</ele>
<time>2016-07-28T13:58:02Z</time>
</trkpt>
<trkpt lat="37.026798248291016" lon="-118.83831787109375">
<ele>2886</ele>
<time>2016-07-28T13:58:08Z</time>
</trkpt>
<trkpt lat="37.026893615722656" lon="-118.83828735351563">
<ele>2888</ele>
<time>2016-07-28T13:58:19Z</time>
</trkpt>
<trkpt lat="37.02696228027344" lon="-118.83824157714844">
<ele>2888</ele>
<time>2016-07-28T13:58:26Z</time>
</trkpt>
<trkpt lat="37.02705001831055" lon="-118.83815002441406">
<ele>2888</ele>
<time>2016-07-28T13:58:36Z</time>
</trkpt>
<trkpt lat="37.027156829833984" lon="-118.8381118774414">
<ele>2891</ele>
<time>2016-07-28T13:58:42Z</time>
</trkpt>
<trkpt lat="37.02724075317383" lon="-118.8380355834961">
<ele>2889</ele>
<time>2016-07-28T13:58:50Z</time>
</trkpt>
<trkpt lat="37.0273323059082" lon="-118.8379898071289">
<ele>2889</ele>
<time>2016-07-28T13:58:59Z</time>
</trkpt>
<trkpt lat="37.02742004394531" lon="-118.83792877197266">
<ele>2893</ele>
<time>2016-07-28T13:59:08Z</time>
</trkpt>
<trkpt lat="37.02751159667969" lon="-118.83788299560547">
<ele>2896</ele>
<time>2016-07-28T13:59:15Z</time>
</trkpt>
<trkpt lat="37.0275993347168" lon="-118.83781433105469">
<ele>2898</ele>
<time>2016-07-28T13:59:23Z</time>
</trkpt>
<trkpt lat="37.02766799926758" lon="-118.83775329589844">
<ele>2898</ele>
<time>2016-07-28T13:59:30Z</time>
</trkpt>
<trkpt lat="37.02775955200195" lon="-118.83772277832031">
<ele>2897</ele>
<time>2016-07-28T13:59:40Z</time>
</trkpt>
<trkpt lat="37.02785110473633" lon="-118.83776092529297">
<ele>2893</ele>
<time>2016-07-28T13:59:49Z</time>
</trkpt>
<trkpt lat="37.02790069580078" lon="-118.83777618408203">
<ele>2893</ele>
<time>2016-07-28T13:59:55Z</time>
</trkpt>
<trkpt lat="37.02799606323242" lon="-118.83777618408203">
<ele>2893</ele>
<time>2016-07-28T14:00:04Z</time>
</trkpt>
<trkpt lat="37.02808380126953" lon="-118.83781433105469">
<ele>2898</ele>
<time>2016-07-28T14:00:14Z</time>
</trkpt>
<trkpt lat="37.02818298339844" lon="-118.83788299560547">
<ele>2894</ele>
<time>2016-07-28T14:00:22Z</time>
</trkpt>
<trkpt lat="37.02826690673828" lon="-118.83792877197266">
<ele>2897</ele>
<time>2016-07-28T14:00:30Z</time>
</trkpt>
<trkpt lat="37.0283203125" lon="-118.8379135131836">
<ele>2888</ele>
<time>2016-07-28T14:00:42Z</time>
</trkpt>
<trkpt lat="37.02842330932617" lon="-118.83790588378906">
<ele>2892</ele>
<time>2016-07-28T14:00:49Z</time>
</trkpt>
<trkpt lat="37.028472900390625" lon="-118.83789825439453">
<ele>2892</ele>
<time>2016-07-28T14:00:56Z</time>
</trkpt>
<trkpt lat="37.028568267822266" lon="-118.83788299560547">
<ele>2892</ele>
<time>2016-07-28T14:01:07Z</time>
</trkpt>
<trkpt lat="37.02865982055664" lon="-118.83788299560547">
<ele>2899</ele>
<time>2016-07-28T14:01:17Z</time>
</trkpt>
<trkpt lat="37.028751373291016" lon="-118.83784484863281">
<ele>2901</ele>
<time>2016-07-28T14:01:25Z</time>
</trkpt>
<trkpt lat="37.028804779052734" lon="-118.83782196044922">
<ele>2908</ele>
<time>2016-07-28T14:01:31Z</time>
</trkpt>
<trkpt lat="37.028892517089844" lon="-118.8377685546875">
<ele>2908</ele>
<time>2016-07-28T14:01:41Z</time>
</trkpt>
<trkpt lat="37.0289306640625" lon="-118.83773803710938">
<ele>2907</ele>
<time>2016-07-28T14:01:49Z</time>
</trkpt>
<trkpt lat="37.02898025512695" lon="-118.83771514892578">
<ele>2905</ele>
<time>2016-07-28T14:01:56Z</time>
</trkpt>
<trkpt lat="37.029075622558594" lon="-118.83772277832031">
<ele>2906</ele>
<time>2016-07-28T14:02:04Z</time>
</trkpt>
<trkpt lat="37.02912139892578" lon="-118.83773040771484">
<ele>2908</ele>
<time>2016-07-28T14:02:10Z</time>
</trkpt>
<trkpt lat="37.02914810180664" lon="-118.8377685546875">
<ele>2917</ele>
<time>2016-07-28T14:02:26Z</time>
</trkpt>
<trkpt lat="37.0291862487793" lon="-118.83780670166016">
<ele>2913</ele>
<time>2016-07-28T14:02:37Z</time>
</trkpt>
<trkpt lat="37.029239654541016" lon="-118.83780670166016">
<ele>2913</ele>
<time>2016-07-28T14:02:44Z</time>
</trkpt>
<trkpt lat="37.02933120727539" lon="-118.83782958984375">
<ele>2911</ele>
<time>2016-07-28T14:02:53Z</time>
</trkpt>
<trkpt lat="37.0294303894043" lon="-118.83780670166016">
<ele>2914</ele>
<time>2016-07-28T14:03:00Z</time>
</trkpt>
<trkpt lat="37.029476165771484" lon="-118.83779907226563">
<ele>2915</ele>
<time>2016-07-28T14:03:06Z</time>
</trkpt>
<trkpt lat="37.02952194213867" lon="-118.8377914428711">
<ele>2919</ele>
<time>2016-07-28T14:03:17Z</time>
</trkpt>
<trkpt lat="37.029598236083984" lon="-118.83773803710938">
<ele>2920</ele>
<time>2016-07-28T14:03:33Z</time>
</trkpt>
<trkpt lat="37.029632568359375" lon="-118.83769989013672">
<ele>2924</ele>
<time>2016-07-28T14:03:39Z</time>
</trkpt>
<trkpt lat="37.0296630859375" lon="-118.83765411376953">
<ele>2923</ele>
<time>2016-07-28T14:03:45Z</time>
</trkpt>
<trkpt lat="37.02970504760742" lon="-118.83755493164063">
<ele>2925</ele>
<time>2016-07-28T14:03:53Z</time>
</trkpt>
<trkpt lat="37.0297966003418" lon="-118.8375015258789">
<ele>2925</ele>
<time>2016-07-28T14:04:01Z</time>
</trkpt>
<trkpt lat="37.0298957824707" lon="-118.83748626708984">
<ele>2926</ele>
<time>2016-07-28T14:04:11Z</time>
</trkpt>
<trkpt lat="37.02994918823242" lon="-118.83748626708984">
<ele>2926</ele>
<time>2016-07-28T14:04:17Z</time>
</trkpt>
<trkpt lat="37.03002166748047" lon="-118.83743286132813">
<ele>2923</ele>
<time>2016-07-28T14:04:26Z</time>
</trkpt>
<trkpt lat="37.03007125854492" lon="-118.83741760253906">
<ele>2920</ele>
<time>2016-07-28T14:04:37Z</time>
</trkpt>
<trkpt lat="37.030113220214844" lon="-118.83738708496094">
<ele>2919</ele>
<time>2016-07-28T14:04:43Z</time>
</trkpt>
<trkpt lat="37.030189514160156" lon="-118.83732604980469">
<ele>2917</ele>
<time>2016-07-28T14:04:53Z</time>
</trkpt>
<trkpt lat="37.0302848815918" lon="-118.83732604980469">
<ele>2917</ele>
<time>2016-07-28T14:05:01Z</time>
</trkpt>
<trkpt lat="37.0303840637207" lon="-118.83735656738281">
<ele>2920</ele>
<time>2016-07-28T14:05:10Z</time>
</trkpt>
<trkpt lat="37.030426025390625" lon="-118.83737182617188">
<ele>2918</ele>
<time>2016-07-28T14:05:16Z</time>
</trkpt>
<trkpt lat="37.030479431152344" lon="-118.83738708496094">
<ele>2922</ele>
<time>2016-07-28T14:05:23Z</time>
</trkpt>
<trkpt lat="37.03068923950195" lon="-118.83734130859375">
<ele>2922</ele>
<time>2016-07-28T14:05:30Z</time>
</trkpt>
<trkpt lat="37.03084182739258" lon="-118.83731842041016">
<ele>2920</ele>
<time>2016-07-28T14:05:41Z</time>
</trkpt>
<trkpt lat="37.03093338012695" lon="-118.83727264404297">
<ele>2920</ele>
<time>2016-07-28T14:05:49Z</time>
</trkpt>
<trkpt lat="37.03102493286133" lon="-118.83726501464844">
<ele>2917</ele>
<time>2016-07-28T14:05:57Z</time>
</trkpt>
<trkpt lat="37.03112030029297" lon="-118.8372573852539">
<ele>2916</ele>
<time>2016-07-28T14:06:05Z</time>
</trkpt>
<trkpt lat="37.03120422363281" lon="-118.83720397949219">
<ele>2915</ele>
<time>2016-07-28T14:06:20Z</time>
</trkpt>
<trkpt lat="37.03123092651367" lon="-118.8371353149414">
<ele>2915</ele>
<time>2016-07-28T14:06:31Z</time>
</trkpt>
<trkpt lat="37.031314849853516" lon="-118.83705139160156">
<ele>2914</ele>
<time>2016-07-28T14:06:43Z</time>
</trkpt>
<trkpt lat="37.03136444091797" lon="-118.83695983886719">
<ele>2912</ele>
<time>2016-07-28T14:06:55Z</time>
</trkpt>
<trkpt lat="37.03141403198242" lon="-118.83692932128906">
<ele>2911</ele>
<time>2016-07-28T14:07:02Z</time>
</trkpt>
<trkpt lat="37.03150939941406" lon="-118.8368911743164">
<ele>2913</ele>
<time>2016-07-28T14:07:18Z</time>
</trkpt>
<trkpt lat="37.03159713745117" lon="-118.83690643310547">
<ele>2913</ele>
<time>2016-07-28T14:07:26Z</time>
</trkpt>
<trkpt lat="37.03169631958008" lon="-118.83686065673828">
<ele>2913</ele>
<time>2016-07-28T14:07:36Z</time>
</trkpt>
<trkpt lat="37.03177261352539" lon="-118.83678436279297">
<ele>2912</ele>
<time>2016-07-28T14:07:46Z</time>
</trkpt>
<trkpt lat="37.03179168701172" lon="-118.83672332763672">
<ele>2912</ele>
<time>2016-07-28T14:07:52Z</time>
</trkpt>
<trkpt lat="37.03187561035156" lon="-118.83666229248047">
<ele>2912</ele>
<time>2016-07-28T14:08:02Z</time>
</trkpt>
<trkpt lat="37.03312683105469" lon="-118.83558654785156">
<ele>2907</ele>
<time>2016-07-28T14:10:49Z</time>
</trkpt>
</trkseg>
</trk>
<trk>
<name><![CDATA[07280741]]></name>
<number>4</number>
<extensions><topografix:color>ff000066</topografix:color></extensions>
<trkseg>
<trkpt lat="37.035091400146484" lon="-118.83445739746094">
<ele>2955</ele>
<time>2016-07-28T14:41:52Z</time>
</trkpt>
<trkpt lat="37.03506088256836" lon="-118.83434295654297">
<ele>2971</ele>
<time>2016-07-28T14:42:05Z</time>
</trkpt>
<trkpt lat="37.03510284423828" lon="-118.83436584472656">
<ele>2965</ele>
<time>2016-07-28T14:42:26Z</time>
</trkpt>
<trkpt lat="37.035133361816406" lon="-118.83432006835938">
<ele>2963</ele>
<time>2016-07-28T14:42:36Z</time>
</trkpt>
<trkpt lat="37.03523635864258" lon="-118.83426666259766">
<ele>2965</ele>
<time>2016-07-28T14:42:45Z</time>
</trkpt>
<trkpt lat="37.035335540771484" lon="-118.8342514038086">
<ele>2960</ele>
<time>2016-07-28T14:42:51Z</time>
</trkpt>
<trkpt lat="37.035430908203125" lon="-118.83424377441406">
<ele>2957</ele>
<time>2016-07-28T14:42:59Z</time>
</trkpt>
<trkpt lat="37.03548049926758" lon="-118.83422088623047">
<ele>2964</ele>
<time>2016-07-28T14:43:05Z</time>
</trkpt>
<trkpt lat="37.03557205200195" lon="-118.83417510986328">
<ele>2965</ele>
<time>2016-07-28T14:43:16Z</time>
</trkpt>
<trkpt lat="37.035614013671875" lon="-118.83415222167969">
<ele>2967</ele>
<time>2016-07-28T14:43:24Z</time>
</trkpt>
<trkpt lat="37.03572082519531" lon="-118.83412170410156">
<ele>2968</ele>
<time>2016-07-28T14:43:33Z</time>
</trkpt>
<trkpt lat="37.03581619262695" lon="-118.8341064453125">
<ele>2972</ele>
<time>2016-07-28T14:43:44Z</time>
</trkpt>
<trkpt lat="37.03591537475586" lon="-118.8340835571289">
<ele>2972</ele>
<time>2016-07-28T14:43:51Z</time>
</trkpt>
<trkpt lat="37.03601837158203" lon="-118.83406829833984">
<ele>2971</ele>
<time>2016-07-28T14:44:01Z</time>
</trkpt>
<trkpt lat="37.03611373901367" lon="-118.83403778076172">
<ele>2971</ele>
<time>2016-07-28T14:44:11Z</time>
</trkpt>
<trkpt lat="37.036163330078125" lon="-118.83403778076172">
<ele>2973</ele>
<time>2016-07-28T14:44:17Z</time>
</trkpt>
<trkpt lat="37.0362663269043" lon="-118.83403778076172">
<ele>2973</ele>
<time>2016-07-28T14:44:26Z</time>
</trkpt>
<trkpt lat="37.03638458251953" lon="-118.83402252197266">
<ele>2976</ele>
<time>2016-07-28T14:44:37Z</time>
</trkpt>
<trkpt lat="37.03647232055664" lon="-118.83403015136719">
<ele>2978</ele>
<time>2016-07-28T14:44:46Z</time>
</trkpt>
<trkpt lat="37.03651809692383" lon="-118.83404541015625">
<ele>2976</ele>
<time>2016-07-28T14:45:13Z</time>
</trkpt>
<trkpt lat="37.036617279052734" lon="-118.83404541015625">
<ele>2973</ele>
<time>2016-07-28T14:45:19Z</time>
</trkpt>
<trkpt lat="37.036712646484375" lon="-118.83397674560547">
<ele>2973</ele>
<time>2016-07-28T14:45:27Z</time>
</trkpt>
<trkpt lat="37.03680419921875" lon="-118.83393859863281">
<ele>2973</ele>
<time>2016-07-28T14:45:35Z</time>
</trkpt>
<trkpt lat="37.0368537902832" lon="-118.83390045166016">
<ele>2974</ele>
<time>2016-07-28T14:45:41Z</time>
</trkpt>
<trkpt lat="37.03693389892578" lon="-118.83385467529297">
<ele>2973</ele>
<time>2016-07-28T14:45:48Z</time>
</trkpt>
<trkpt lat="37.03703689575195" lon="-118.83383178710938">
<ele>2971</ele>
<time>2016-07-28T14:45:56Z</time>
</trkpt>
<trkpt lat="37.03714370727539" lon="-118.83382415771484">
<ele>2975</ele>
<time>2016-07-28T14:46:05Z</time>
</trkpt>
<trkpt lat="37.0372428894043" lon="-118.83381652832031">
<ele>2970</ele>
<time>2016-07-28T14:46:15Z</time>
</trkpt>
<trkpt lat="37.03728485107422" lon="-118.8338394165039">
<ele>2969</ele>
<time>2016-07-28T14:46:25Z</time>
</trkpt>
<trkpt lat="37.03738784790039" lon="-118.83377838134766">
<ele>2968</ele>
<time>2016-07-28T14:46:35Z</time>
</trkpt>
<trkpt lat="37.0374870300293" lon="-118.83372497558594">
<ele>2969</ele>
<time>2016-07-28T14:46:42Z</time>
</trkpt>
<trkpt lat="37.03759002685547" lon="-118.83367919921875">
<ele>2969</ele>
<time>2016-07-28T14:46:49Z</time>
</trkpt>
<trkpt lat="37.03765869140625" lon="-118.83362579345703">
<ele>2969</ele>
<time>2016-07-28T14:46:56Z</time>
</trkpt>
<trkpt lat="37.037750244140625" lon="-118.83357238769531">
<ele>2971</ele>
<time>2016-07-28T14:47:06Z</time>
</trkpt>
<trkpt lat="37.03779983520508" lon="-118.83355712890625">
<ele>2967</ele>
<time>2016-07-28T14:47:34Z</time>
</trkpt>
<trkpt lat="37.03789520263672" lon="-118.83353424072266">
<ele>2966</ele>
<time>2016-07-28T14:47:43Z</time>
</trkpt>
<trkpt lat="37.03799057006836" lon="-118.8335189819336">
<ele>2969</ele>
<time>2016-07-28T14:47:51Z</time>
</trkpt>
<trkpt lat="37.038055419921875" lon="-118.83351135253906">
<ele>2969</ele>
<time>2016-07-28T14:47:57Z</time>
</trkpt>
<trkpt lat="37.03815460205078" lon="-118.83348083496094">
<ele>2969</ele>
<time>2016-07-28T14:48:05Z</time>
</trkpt>
<trkpt lat="37.03825378417969" lon="-118.83343505859375">
<ele>2970</ele>
<time>2016-07-28T14:48:13Z</time>
</trkpt>
<trkpt lat="37.03828811645508" lon="-118.83338928222656">
<ele>2968</ele>
<time>2016-07-28T14:48:19Z</time>
</trkpt>
<trkpt lat="37.038330078125" lon="-118.83343505859375">
<ele>2968</ele>
<time>2016-07-28T14:49:13Z</time>
</trkpt>
<trkpt lat="37.03842544555664" lon="-118.83345794677734">
<ele>2969</ele>
<time>2016-07-28T14:49:22Z</time>
</trkpt>
<trkpt lat="37.038482666015625" lon="-118.83345794677734">
<ele>2967</ele>
<time>2016-07-28T14:49:42Z</time>
</trkpt>
<trkpt lat="37.038578033447266" lon="-118.83349609375">
<ele>2967</ele>
<time>2016-07-28T14:49:51Z</time>
</trkpt>
<trkpt lat="37.03867721557617" lon="-118.83356475830078">
<ele>2969</ele>
<time>2016-07-28T14:50:00Z</time>
</trkpt>
<trkpt lat="37.03872299194336" lon="-118.83367156982422">
<ele>2965</ele>
<time>2016-07-28T14:50:10Z</time>
</trkpt>
<trkpt lat="37.038818359375" lon="-118.83373260498047">
<ele>2962</ele>
<time>2016-07-28T14:50:20Z</time>
</trkpt>
<trkpt lat="37.03890609741211" lon="-118.83377075195313">
<ele>2962</ele>
<time>2016-07-28T14:50:33Z</time>
</trkpt>
<trkpt lat="37.03901290893555" lon="-118.83382415771484">
<ele>2964</ele>
<time>2016-07-28T14:50:40Z</time>
</trkpt>
<trkpt lat="37.03910827636719" lon="-118.83384704589844">
<ele>2965</ele>
<time>2016-07-28T14:50:47Z</time>
</trkpt>
<trkpt lat="37.03917694091797" lon="-118.83391571044922">
<ele>2963</ele>
<time>2016-07-28T14:51:08Z</time>
</trkpt>
<trkpt lat="37.039268493652344" lon="-118.83396911621094">
<ele>2961</ele>
<time>2016-07-28T14:51:17Z</time>
</trkpt>
<trkpt lat="37.03935241699219" lon="-118.83403015136719">
<ele>2960</ele>
<time>2016-07-28T14:51:26Z</time>
</trkpt>
<trkpt lat="37.03940200805664" lon="-118.83404541015625">
<ele>2963</ele>
<time>2016-07-28T14:51:32Z</time>
</trkpt>
<trkpt lat="37.03944778442383" lon="-118.83406066894531">
<ele>2962</ele>
<time>2016-07-28T14:51:38Z</time>
</trkpt>
<trkpt lat="37.0395393371582" lon="-118.8341064453125">
<ele>2967</ele>
<time>2016-07-28T14:51:45Z</time>
</trkpt>
<trkpt lat="37.039634704589844" lon="-118.83413696289063">
<ele>2963</ele>
<time>2016-07-28T14:51:52Z</time>
</trkpt>
<trkpt lat="37.03973388671875" lon="-118.83414459228516">
<ele>2967</ele>
<time>2016-07-28T14:52:02Z</time>
</trkpt>
<trkpt lat="37.039833068847656" lon="-118.83412170410156">
<ele>2966</ele>
<time>2016-07-28T14:52:09Z</time>
</trkpt>
<trkpt lat="37.03993606567383" lon="-118.8341293334961">
<ele>2968</ele>
<time>2016-07-28T14:52:17Z</time>
</trkpt>
<trkpt lat="37.0400390625" lon="-118.83416748046875">
<ele>2968</ele>
<time>2016-07-28T14:52:25Z</time>
</trkpt>
<trkpt lat="37.04008483886719" lon="-118.83418273925781">
<ele>2966</ele>
<time>2016-07-28T14:52:31Z</time>
</trkpt>
<trkpt lat="37.04013442993164" lon="-118.83419036865234">
<ele>2968</ele>
<time>2016-07-28T14:52:44Z</time>
</trkpt>
<trkpt lat="37.0401725769043" lon="-118.83414459228516">
<ele>2971</ele>
<time>2016-07-28T14:52:50Z</time>
</trkpt>
<trkpt lat="37.040245056152344" lon="-118.8341293334961">
<ele>2973</ele>
<time>2016-07-28T14:52:57Z</time>
</trkpt>
<trkpt lat="37.04034423828125" lon="-118.8340835571289">
<ele>2972</ele>
<time>2016-07-28T14:53:05Z</time>
</trkpt>
<trkpt lat="37.040435791015625" lon="-118.83403778076172">
<ele>2973</ele>
<time>2016-07-28T14:53:15Z</time>
</trkpt>
<trkpt lat="37.04051971435547" lon="-118.83406829833984">
<ele>2972</ele>
<time>2016-07-28T14:53:28Z</time>
</trkpt>
<trkpt lat="37.040557861328125" lon="-118.83411407470703">
<ele>2972</ele>
<time>2016-07-28T14:53:34Z</time>
</trkpt>
<trkpt lat="37.04064178466797" lon="-118.83417510986328">
<ele>2976</ele>
<time>2016-07-28T14:53:45Z</time>
</trkpt>
<trkpt lat="37.04073715209961" lon="-118.83414459228516">
<ele>2977</ele>
<time>2016-07-28T14:53:52Z</time>
</trkpt>
<trkpt lat="37.04079055786133" lon="-118.83412170410156">
<ele>2975</ele>
<time>2016-07-28T14:54:00Z</time>
</trkpt>
<trkpt lat="37.04082107543945" lon="-118.8340072631836">
<ele>2973</ele>
<time>2016-07-28T14:54:24Z</time>
</trkpt>
<trkpt lat="37.040897369384766" lon="-118.83392333984375">
<ele>2973</ele>
<time>2016-07-28T14:54:32Z</time>
</trkpt>
<trkpt lat="37.04098129272461" lon="-118.83384704589844">
<ele>2973</ele>
<time>2016-07-28T14:54:38Z</time>
</trkpt>
<trkpt lat="37.04105758666992" lon="-118.8337631225586">
<ele>2975</ele>
<time>2016-07-28T14:54:46Z</time>
</trkpt>
<trkpt lat="37.04106521606445" lon="-118.83370208740234">
<ele>2970</ele>
<time>2016-07-28T14:54:52Z</time>
</trkpt>
<trkpt lat="37.04109191894531" lon="-118.83358001708984">
<ele>2969</ele>
<time>2016-07-28T14:55:00Z</time>
</trkpt>
<trkpt lat="37.04113006591797" lon="-118.83345794677734">
<ele>2969</ele>
<time>2016-07-28T14:55:10Z</time>
</trkpt>
<trkpt lat="37.04114532470703" lon="-118.83338928222656">
<ele>2971</ele>
<time>2016-07-28T14:55:16Z</time>
</trkpt>
<trkpt lat="37.04120635986328" lon="-118.83329010009766">
<ele>2968</ele>
<time>2016-07-28T14:55:26Z</time>
</trkpt>
<trkpt lat="37.04126739501953" lon="-118.83319091796875">
<ele>2968</ele>
<time>2016-07-28T14:55:36Z</time>
</trkpt>
<trkpt lat="37.041324615478516" lon="-118.83308410644531">
<ele>2967</ele>
<time>2016-07-28T14:55:44Z</time>
</trkpt>
<trkpt lat="37.04135513305664" lon="-118.83296966552734">
<ele>2969</ele>
<time>2016-07-28T14:55:52Z</time>
</trkpt>
<trkpt lat="37.041385650634766" lon="-118.83292388916016">
<ele>2967</ele>
<time>2016-07-28T14:56:01Z</time>
</trkpt>
<trkpt lat="37.04142379760742" lon="-118.83289337158203">
<ele>2966</ele>
<time>2016-07-28T14:56:08Z</time>
</trkpt>
<trkpt lat="37.04145812988281" lon="-118.83284759521484">
<ele>2965</ele>
<time>2016-07-28T14:56:20Z</time>
</trkpt>
<trkpt lat="37.04145431518555" lon="-118.8327865600586">
<ele>2963</ele>
<time>2016-07-28T14:56:26Z</time>
</trkpt>
<trkpt lat="37.041534423828125" lon="-118.83272552490234">
<ele>2971</ele>
<time>2016-07-28T14:56:34Z</time>
</trkpt>
<trkpt lat="37.04155349731445" lon="-118.8326644897461">
<ele>2972</ele>
<time>2016-07-28T14:56:40Z</time>
</trkpt>
<trkpt lat="37.04161071777344" lon="-118.83256530761719">
<ele>2973</ele>
<time>2016-07-28T14:56:51Z</time>
</trkpt>
<trkpt lat="37.04163360595703" lon="-118.83248901367188">
<ele>2978</ele>
<time>2016-07-28T14:56:59Z</time>
</trkpt>
<trkpt lat="37.041664123535156" lon="-118.83244323730469">
<ele>2978</ele>
<time>2016-07-28T14:57:06Z</time>
</trkpt>
<trkpt lat="37.04170608520508" lon="-118.83240509033203">
<ele>2975</ele>
<time>2016-07-28T14:57:14Z</time>
</trkpt>
<trkpt lat="37.041748046875" lon="-118.83238220214844">
<ele>2979</ele>
<time>2016-07-28T14:57:24Z</time>
</trkpt>
<trkpt lat="37.0417366027832" lon="-118.83232116699219">
<ele>2983</ele>
<time>2016-07-28T14:57:39Z</time>
</trkpt>
<trkpt lat="37.04176330566406" lon="-118.83222198486328">
<ele>2988</ele>
<time>2016-07-28T14:57:50Z</time>
</trkpt>
<trkpt lat="37.04179382324219" lon="-118.8321304321289">
<ele>2987</ele>
<time>2016-07-28T14:57:59Z</time>
</trkpt>
<trkpt lat="37.041812896728516" lon="-118.83207702636719">
<ele>2987</ele>
<time>2016-07-28T14:58:05Z</time>
</trkpt>
<trkpt lat="37.04183578491211" lon="-118.83203125">
<ele>2988</ele>
<time>2016-07-28T14:58:17Z</time>
</trkpt>
<trkpt lat="37.04186248779297" lon="-118.83197784423828">
<ele>2988</ele>
<time>2016-07-28T14:58:23Z</time>
</trkpt>
<trkpt lat="37.041900634765625" lon="-118.83194732666016">
<ele>2989</ele>
<time>2016-07-28T14:58:30Z</time>
</trkpt>
<trkpt lat="37.04190444946289" lon="-118.8318862915039">
<ele>2993</ele>
<time>2016-07-28T14:58:41Z</time>
</trkpt>
<trkpt lat="37.04193115234375" lon="-118.83184051513672">
<ele>2997</ele>
<time>2016-07-28T14:58:49Z</time>
</trkpt>
<trkpt lat="37.041908264160156" lon="-118.83177185058594">
<ele>2997</ele>
<time>2016-07-28T14:59:02Z</time>
</trkpt>
<trkpt lat="37.04191589355469" lon="-118.83171081542969">
<ele>3002</ele>
<time>2016-07-28T14:59:16Z</time>
</trkpt>
<trkpt lat="37.041954040527344" lon="-118.8316650390625">
<ele>2999</ele>
<time>2016-07-28T14:59:23Z</time>
</trkpt>
<trkpt lat="37.04198455810547" lon="-118.83161926269531">
<ele>3001</ele>
<time>2016-07-28T14:59:32Z</time>
</trkpt>
<trkpt lat="37.04202651977539" lon="-118.83158874511719">
<ele>3002</ele>
<time>2016-07-28T14:59:44Z</time>
</trkpt>
<trkpt lat="37.04204559326172" lon="-118.83152770996094">
<ele>3006</ele>
<time>2016-07-28T15:00:04Z</time>
</trkpt>
<trkpt lat="37.04205322265625" lon="-118.83147430419922">
<ele>3009</ele>
<time>2016-07-28T15:00:15Z</time>
</trkpt>
<trkpt lat="37.04206466674805" lon="-118.8314208984375">
<ele>3009</ele>
<time>2016-07-28T15:00:23Z</time>
</trkpt>
<trkpt lat="37.04207992553711" lon="-118.83135986328125">
<ele>3010</ele>
<time>2016-07-28T15:00:29Z</time>
</trkpt>
<trkpt lat="37.04212188720703" lon="-118.8313217163086">
<ele>3011</ele>
<time>2016-07-28T15:00:41Z</time>
</trkpt>
<trkpt lat="37.04215621948242" lon="-118.8312759399414">
<ele>3014</ele>
<time>2016-07-28T15:00:47Z</time>
</trkpt>
<trkpt lat="37.0422248840332" lon="-118.83121490478516">
<ele>3019</ele>
<time>2016-07-28T15:01:00Z</time>
</trkpt>
<trkpt lat="37.0422477722168" lon="-118.83116149902344">
<ele>3020</ele>
<time>2016-07-28T15:01:06Z</time>
</trkpt>
<trkpt lat="37.042274475097656" lon="-118.83110809326172">
<ele>3021</ele>
<time>2016-07-28T15:01:15Z</time>
</trkpt>
<trkpt lat="37.04230880737305" lon="-118.83106994628906">
<ele>3021</ele>
<time>2016-07-28T15:01:22Z</time>
</trkpt>
<trkpt lat="37.0423469543457" lon="-118.83102416992188">
<ele>3021</ele>
<time>2016-07-28T15:01:31Z</time>
</trkpt>
<trkpt lat="37.042381286621094" lon="-118.83098602294922">
<ele>3024</ele>
<time>2016-07-28T15:01:42Z</time>
</trkpt>
<trkpt lat="37.04241943359375" lon="-118.83094787597656">
<ele>3023</ele>
<time>2016-07-28T15:01:53Z</time>
</trkpt>
<trkpt lat="37.042442321777344" lon="-118.83089447021484">
<ele>3023</ele>
<time>2016-07-28T15:01:59Z</time>
</trkpt>
<trkpt lat="37.04246520996094" lon="-118.83078002929688">
<ele>3027</ele>
<time>2016-07-28T15:02:12Z</time>
</trkpt>
<trkpt lat="37.04248809814453" lon="-118.83072662353516">
<ele>3028</ele>
<time>2016-07-28T15:02:18Z</time>
</trkpt>
<trkpt lat="37.04248809814453" lon="-118.8306655883789">
<ele>3028</ele>
<time>2016-07-28T15:02:24Z</time>
</trkpt>
<trkpt lat="37.04251480102539" lon="-118.83055114746094">
<ele>3030</ele>
<time>2016-07-28T15:02:36Z</time>
</trkpt>
<trkpt lat="37.04255294799805" lon="-118.83050537109375">
<ele>3029</ele>
<time>2016-07-28T15:02:48Z</time>
</trkpt>
<trkpt lat="37.04258346557617" lon="-118.83040618896484">
<ele>3026</ele>
<time>2016-07-28T15:03:04Z</time>
</trkpt>
<trkpt lat="37.04261779785156" lon="-118.83036041259766">
<ele>3028</ele>
<time>2016-07-28T15:03:11Z</time>
</trkpt>
<trkpt lat="37.04265213012695" lon="-118.83030700683594">
<ele>3030</ele>
<time>2016-07-28T15:03:21Z</time>
</trkpt>
<trkpt lat="37.042728424072266" lon="-118.83023834228516">
<ele>3030</ele>
<time>2016-07-28T15:03:32Z</time>
</trkpt>
<trkpt lat="37.042728424072266" lon="-118.8301773071289">
<ele>3032</ele>
<time>2016-07-28T15:03:38Z</time>
</trkpt>
<trkpt lat="37.04275131225586" lon="-118.83011627197266">
<ele>3035</ele>
<time>2016-07-28T15:03:45Z</time>
</trkpt>
<trkpt lat="37.04281234741211" lon="-118.83004760742188">
<ele>3040</ele>
<time>2016-07-28T15:04:02Z</time>
</trkpt>
<trkpt lat="37.04281997680664" lon="-118.82999420166016">
<ele>3043</ele>
<time>2016-07-28T15:04:12Z</time>
</trkpt>
<trkpt lat="37.04281997680664" lon="-118.82992553710938">
<ele>3043</ele>
<time>2016-07-28T15:04:18Z</time>
</trkpt>
<trkpt lat="37.0428352355957" lon="-118.82987213134766">
<ele>3043</ele>
<time>2016-07-28T15:04:29Z</time>
</trkpt>
<trkpt lat="37.04286575317383" lon="-118.82982635498047">
<ele>3043</ele>
<time>2016-07-28T15:04:38Z</time>
</trkpt>
<trkpt lat="37.04290771484375" lon="-118.82974243164063">
<ele>3051</ele>
<time>2016-07-28T15:04:53Z</time>
</trkpt>
<trkpt lat="37.0429801940918" lon="-118.82966613769531">
<ele>3049</ele>
<time>2016-07-28T15:05:05Z</time>
</trkpt>
<trkpt lat="37.042991638183594" lon="-118.82960510253906">
<ele>3051</ele>
<time>2016-07-28T15:05:17Z</time>
</trkpt>
<trkpt lat="37.043006896972656" lon="-118.82955169677734">
<ele>3055</ele>
<time>2016-07-28T15:05:33Z</time>
</trkpt>
<trkpt lat="37.04304122924805" lon="-118.82951354980469">
<ele>3055</ele>
<time>2016-07-28T15:05:44Z</time>
</trkpt>
<trkpt lat="37.043067932128906" lon="-118.8294677734375">
<ele>3054</ele>
<time>2016-07-28T15:05:50Z</time>
</trkpt>
<trkpt lat="37.04310607910156" lon="-118.82938385009766">
<ele>3053</ele>
<time>2016-07-28T15:06:00Z</time>
</trkpt>
<trkpt lat="37.04314041137695" lon="-118.829345703125">
<ele>3057</ele>
<time>2016-07-28T15:06:08Z</time>
</trkpt>
<trkpt lat="37.04317092895508" lon="-118.82929992675781">
<ele>3059</ele>
<time>2016-07-28T15:06:19Z</time>
</trkpt>
<trkpt lat="37.04320526123047" lon="-118.82925415039063">
<ele>3061</ele>
<time>2016-07-28T15:06:27Z</time>
</trkpt>
<trkpt lat="37.043270111083984" lon="-118.82918548583984">
<ele>3065</ele>
<time>2016-07-28T15:07:07Z</time>
</trkpt>
<trkpt lat="37.04331588745117" lon="-118.82918548583984">
<ele>3068</ele>
<time>2016-07-28T15:07:14Z</time>
</trkpt>
<trkpt lat="37.04336166381836" lon="-118.82919311523438">
<ele>3068</ele>
<time>2016-07-28T15:07:20Z</time>
</trkpt>
<trkpt lat="37.04340744018555" lon="-118.82917022705078">
<ele>3068</ele>
<time>2016-07-28T15:07:27Z</time>
</trkpt>
<trkpt lat="37.04345703125" lon="-118.82914733886719">
<ele>3069</ele>
<time>2016-07-28T15:07:35Z</time>
</trkpt>
<trkpt lat="37.043556213378906" lon="-118.82913970947266">
<ele>3070</ele>
<time>2016-07-28T15:07:46Z</time>
</trkpt>
<trkpt lat="37.043601989746094" lon="-118.82910919189453">
<ele>3070</ele>
<time>2016-07-28T15:07:52Z</time>
</trkpt>
<trkpt lat="37.04365158081055" lon="-118.82909393310547">
<ele>3072</ele>
<time>2016-07-28T15:08:00Z</time>
</trkpt>
<trkpt lat="37.04369354248047" lon="-118.8290786743164">
<ele>3073</ele>
<time>2016-07-28T15:08:07Z</time>
</trkpt>
<trkpt lat="37.043739318847656" lon="-118.82905578613281">
<ele>3075</ele>
<time>2016-07-28T15:08:16Z</time>
</trkpt>
<trkpt lat="37.043785095214844" lon="-118.82903289794922">
<ele>3076</ele>
<time>2016-07-28T15:08:24Z</time>
</trkpt>
<trkpt lat="37.04387283325195" lon="-118.82898712158203">
<ele>3079</ele>
<time>2016-07-28T15:08:34Z</time>
</trkpt>
<trkpt lat="37.043922424316406" lon="-118.82899475097656">
<ele>3079</ele>
<time>2016-07-28T15:08:42Z</time>
</trkpt>
<trkpt lat="37.043968200683594" lon="-118.8289794921875">
<ele>3080</ele>
<time>2016-07-28T15:08:52Z</time>
</trkpt>
<trkpt lat="37.04400634765625" lon="-118.82893371582031">
<ele>3079</ele>
<time>2016-07-28T15:08:59Z</time>
</trkpt>
<trkpt lat="37.044105529785156" lon="-118.82887268066406">
<ele>3079</ele>
<time>2016-07-28T15:09:09Z</time>
</trkpt>
<trkpt lat="37.044193267822266" lon="-118.82881927490234">
<ele>3083</ele>
<time>2016-07-28T15:09:18Z</time>
</trkpt>
<trkpt lat="37.044288635253906" lon="-118.82881164550781">
<ele>3085</ele>
<time>2016-07-28T15:09:27Z</time>
</trkpt>
<trkpt lat="37.044342041015625" lon="-118.82884216308594">
<ele>3082</ele>
<time>2016-07-28T15:09:35Z</time>
</trkpt>
<trkpt lat="37.04439926147461" lon="-118.82878112792969">
<ele>3085</ele>
<time>2016-07-28T15:09:58Z</time>
</trkpt>
<trkpt lat="37.044490814208984" lon="-118.8287582397461">
<ele>3081</ele>
<time>2016-07-28T15:10:16Z</time>
</trkpt>
<trkpt lat="37.04458236694336" lon="-118.82875061035156">
<ele>3078</ele>
<time>2016-07-28T15:10:27Z</time>
</trkpt>
<trkpt lat="37.04462814331055" lon="-118.82872772216797">
<ele>3077</ele>
<time>2016-07-28T15:10:44Z</time>
</trkpt>
<trkpt lat="37.04465866088867" lon="-118.82867431640625">
<ele>3077</ele>
<time>2016-07-28T15:10:53Z</time>
</trkpt>
<trkpt lat="37.04469680786133" lon="-118.82870483398438">
<ele>3073</ele>
<time>2016-07-28T15:11:28Z</time>
</trkpt>
<trkpt lat="37.044742584228516" lon="-118.82874298095703">
<ele>3070</ele>
<time>2016-07-28T15:11:41Z</time>
</trkpt>
<trkpt lat="37.04477310180664" lon="-118.82878112792969">
<ele>3067</ele>
<time>2016-07-28T15:11:49Z</time>
</trkpt>
<trkpt lat="37.04472351074219" lon="-118.8287353515625">
<ele>3072</ele>
<time>2016-07-28T15:12:40Z</time>
</trkpt>
<trkpt lat="37.04473876953125" lon="-118.82865905761719">
<ele>3068</ele>
<time>2016-07-28T15:13:29Z</time>
</trkpt>
<trkpt lat="37.04478073120117" lon="-118.82864379882813">
<ele>3067</ele>
<time>2016-07-28T15:13:38Z</time>
</trkpt>
<trkpt lat="37.04481887817383" lon="-118.82867431640625">
<ele>3065</ele>
<time>2016-07-28T15:13:48Z</time>
</trkpt>
<trkpt lat="37.044883728027344" lon="-118.82869720458984">
<ele>3063</ele>
<time>2016-07-28T15:14:34Z</time>
</trkpt>
<trkpt lat="37.044918060302734" lon="-118.82865905761719">
<ele>3062</ele>
<time>2016-07-28T15:14:51Z</time>
</trkpt>
<trkpt lat="37.04496383666992" lon="-118.8286361694336">
<ele>3061</ele>
<time>2016-07-28T15:15:12Z</time>
</trkpt>
<trkpt lat="37.045040130615234" lon="-118.82867431640625">
<ele>3047</ele>
<time>2016-07-28T15:16:11Z</time>
</trkpt>
<trkpt lat="37.045066833496094" lon="-118.82862854003906">
<ele>3047</ele>
<time>2016-07-28T15:16:20Z</time>
</trkpt>
<trkpt lat="37.045074462890625" lon="-118.82868957519531">
<ele>3046</ele>
<time>2016-07-28T15:16:37Z</time>
</trkpt>
<trkpt lat="37.045143127441406" lon="-118.82865905761719">
<ele>3040</ele>
<time>2016-07-28T15:17:26Z</time>
</trkpt>
<trkpt lat="37.045188903808594" lon="-118.82867431640625">
<ele>3040</ele>
<time>2016-07-28T15:17:42Z</time>
</trkpt>
<trkpt lat="37.045230865478516" lon="-118.8287124633789">
<ele>3035</ele>
<time>2016-07-28T15:17:51Z</time>
</trkpt>
<trkpt lat="37.045169830322266" lon="-118.8287124633789">
<ele>3029</ele>
<time>2016-07-28T15:17:58Z</time>
</trkpt>
<trkpt lat="37.04522705078125" lon="-118.82869720458984">
<ele>3031</ele>
<time>2016-07-28T15:18:26Z</time>
</trkpt>
<trkpt lat="37.0451545715332" lon="-118.82865142822266">
<ele>3022</ele>
<time>2016-07-28T15:19:18Z</time>
</trkpt>
<trkpt lat="37.045196533203125" lon="-118.82868194580078">
<ele>3018</ele>
<time>2016-07-28T15:19:41Z</time>
</trkpt>
<trkpt lat="37.04524612426758" lon="-118.82868957519531">
<ele>3018</ele>
<time>2016-07-28T15:19:50Z</time>
</trkpt>
<trkpt lat="37.04526138305664" lon="-118.8286361694336">
<ele>3017</ele>
<time>2016-07-28T15:20:06Z</time>
</trkpt>
<trkpt lat="37.0452880859375" lon="-118.82857513427734">
<ele>3014</ele>
<time>2016-07-28T15:20:18Z</time>
</trkpt>
<trkpt lat="37.04534149169922" lon="-118.82855987548828">
<ele>3012</ele>
<time>2016-07-28T15:20:25Z</time>
</trkpt>
<trkpt lat="37.045387268066406" lon="-118.82852935791016">
<ele>3006</ele>
<time>2016-07-28T15:20:43Z</time>
</trkpt>
<trkpt lat="37.04542541503906" lon="-118.82849884033203">
<ele>3005</ele>
<time>2016-07-28T15:20:51Z</time>
</trkpt>
<trkpt lat="37.04547882080078" lon="-118.82850646972656">
<ele>2999</ele>
<time>2016-07-28T15:21:02Z</time>
</trkpt>
<trkpt lat="37.04552459716797" lon="-118.82850646972656">
<ele>2998</ele>
<time>2016-07-28T15:21:09Z</time>
</trkpt>
<trkpt lat="37.04557418823242" lon="-118.8285140991211">
<ele>2996</ele>
<time>2016-07-28T15:21:27Z</time>
</trkpt>
<trkpt lat="37.04561996459961" lon="-118.8285140991211">
<ele>2993</ele>
<time>2016-07-28T15:21:37Z</time>
</trkpt>
<trkpt lat="37.04566955566406" lon="-118.8285140991211">
<ele>2991</ele>
<time>2016-07-28T15:21:46Z</time>
</trkpt>
<trkpt lat="37.04574203491211" lon="-118.82849884033203">
<ele>2989</ele>
<time>2016-07-28T15:21:59Z</time>
</trkpt>
<trkpt lat="37.045833587646484" lon="-118.82843780517578">
<ele>2985</ele>
<time>2016-07-28T15:22:23Z</time>
</trkpt>
<trkpt lat="37.04585647583008" lon="-118.82837677001953">
<ele>2978</ele>
<time>2016-07-28T15:23:06Z</time>
</trkpt>
<trkpt lat="37.04588317871094" lon="-118.82832336425781">
<ele>2976</ele>
<time>2016-07-28T15:23:12Z</time>
</trkpt>
<trkpt lat="37.045867919921875" lon="-118.82837677001953">
<ele>2970</ele>
<time>2016-07-28T15:23:53Z</time>
</trkpt>
<trkpt lat="37.04591369628906" lon="-118.82836151123047">
<ele>2971</ele>
<time>2016-07-28T15:24:28Z</time>
</trkpt>
<trkpt lat="37.04596710205078" lon="-118.828369140625">
<ele>2967</ele>
<time>2016-07-28T15:24:41Z</time>
</trkpt>
<trkpt lat="37.0460205078125" lon="-118.82830047607422">
<ele>2964</ele>
<time>2016-07-28T15:25:10Z</time>
</trkpt>
<trkpt lat="37.04603576660156" lon="-118.8282470703125">
<ele>2961</ele>
<time>2016-07-28T15:25:21Z</time>
</trkpt>
<trkpt lat="37.04601287841797" lon="-118.82820129394531">
<ele>2955</ele>
<time>2016-07-28T15:25:33Z</time>
</trkpt>
<trkpt lat="37.04606628417969" lon="-118.82819366455078">
<ele>2953</ele>
<time>2016-07-28T15:26:03Z</time>
</trkpt>
<trkpt lat="37.04607009887695" lon="-118.82813262939453">
<ele>2954</ele>
<time>2016-07-28T15:26:11Z</time>
</trkpt>
<trkpt lat="37.04609680175781" lon="-118.82817840576172">
<ele>2947</ele>
<time>2016-07-28T15:26:20Z</time>
</trkpt>
<trkpt lat="37.046146392822266" lon="-118.82818603515625">
<ele>2944</ele>
<time>2016-07-28T15:26:33Z</time>
</trkpt>
<trkpt lat="37.04618835449219" lon="-118.82817840576172">
<ele>2942</ele>
<time>2016-07-28T15:26:45Z</time>
</trkpt>
<trkpt lat="37.04624938964844" lon="-118.82817840576172">
<ele>2936</ele>
<time>2016-07-28T15:27:08Z</time>
</trkpt>
<trkpt lat="37.046302795410156" lon="-118.82817840576172">
<ele>2932</ele>
<time>2016-07-28T15:27:17Z</time>
</trkpt>
<trkpt lat="37.0462646484375" lon="-118.82813262939453">
<ele>2929</ele>
<time>2016-07-28T15:27:44Z</time>
</trkpt>
<trkpt lat="37.046321868896484" lon="-118.82808685302734">
<ele>2926</ele>
<time>2016-07-28T15:28:16Z</time>
</trkpt>
<trkpt lat="37.046348571777344" lon="-118.82804107666016">
<ele>2913</ele>
<time>2016-07-28T15:28:53Z</time>
</trkpt>
<trkpt lat="37.04639434814453" lon="-118.82801818847656">
<ele>2917</ele>
<time>2016-07-28T15:29:28Z</time>
</trkpt>
<trkpt lat="37.04644012451172" lon="-118.82803344726563">
<ele>2919</ele>
<time>2016-07-28T15:29:35Z</time>
</trkpt>
<trkpt lat="37.04645538330078" lon="-118.82794952392578">
<ele>2906</ele>
<time>2016-07-28T15:30:04Z</time>
</trkpt>
<trkpt lat="37.04645919799805" lon="-118.82789611816406">
<ele>2905</ele>
<time>2016-07-28T15:30:28Z</time>
</trkpt>
<trkpt lat="37.04650115966797" lon="-118.82786560058594">
<ele>2902</ele>
<time>2016-07-28T15:30:44Z</time>
</trkpt>
<trkpt lat="37.046566009521484" lon="-118.82788848876953">
<ele>2902</ele>
<time>2016-07-28T15:30:53Z</time>
</trkpt>
<trkpt lat="37.04657745361328" lon="-118.82782745361328">
<ele>2900</ele>
<time>2016-07-28T15:31:03Z</time>
</trkpt>
<trkpt lat="37.046627044677734" lon="-118.82782745361328">
<ele>2897</ele>
<time>2016-07-28T15:31:11Z</time>
</trkpt>
<trkpt lat="37.04667282104492" lon="-118.82782745361328">
<ele>2894</ele>
<time>2016-07-28T15:31:21Z</time>
</trkpt>
<trkpt lat="37.04676818847656" lon="-118.82782745361328">
<ele>2890</ele>
<time>2016-07-28T15:31:31Z</time>
</trkpt>
<trkpt lat="37.04681396484375" lon="-118.82779693603516">
<ele>2888</ele>
<time>2016-07-28T15:31:40Z</time>
</trkpt>
<trkpt lat="37.046852111816406" lon="-118.82782745361328">
<ele>2883</ele>
<time>2016-07-28T15:31:47Z</time>
</trkpt>
<trkpt lat="37.04692459106445" lon="-118.82779693603516">
<ele>2878</ele>
<time>2016-07-28T15:32:01Z</time>
</trkpt>
<trkpt lat="37.046974182128906" lon="-118.82776641845703">
<ele>2876</ele>
<time>2016-07-28T15:32:08Z</time>
</trkpt>
<trkpt lat="37.04703903198242" lon="-118.82767486572266">
<ele>2871</ele>
<time>2016-07-28T15:32:17Z</time>
</trkpt>
<trkpt lat="37.04708480834961" lon="-118.82769012451172">
<ele>2871</ele>
<time>2016-07-28T15:33:17Z</time>
</trkpt>
<trkpt lat="37.0471305847168" lon="-118.82769775390625">
<ele>2870</ele>
<time>2016-07-28T15:33:23Z</time>
</trkpt>
<trkpt lat="37.04716491699219" lon="-118.82765197753906">
<ele>2867</ele>
<time>2016-07-28T15:33:29Z</time>
</trkpt>
<trkpt lat="37.047176361083984" lon="-118.82759094238281">
<ele>2863</ele>
<time>2016-07-28T15:33:37Z</time>
</trkpt>
<trkpt lat="37.04720687866211" lon="-118.82752990722656">
<ele>2859</ele>
<time>2016-07-28T15:33:43Z</time>
</trkpt>
<trkpt lat="37.04723358154297" lon="-118.82740783691406">
<ele>2858</ele>
<time>2016-07-28T15:33:53Z</time>
</trkpt>
<trkpt lat="37.047271728515625" lon="-118.8273696899414">
<ele>2858</ele>
<time>2016-07-28T15:34:00Z</time>
</trkpt>
<trkpt lat="37.04734802246094" lon="-118.82728576660156">
<ele>2855</ele>
<time>2016-07-28T15:34:09Z</time>
</trkpt>
<trkpt lat="37.04734802246094" lon="-118.82717895507813">
<ele>2851</ele>
<time>2016-07-28T15:34:21Z</time>
</trkpt>
<trkpt lat="37.04736328125" lon="-118.8271255493164">
<ele>2846</ele>
<time>2016-07-28T15:34:37Z</time>
</trkpt>
<trkpt lat="37.047367095947266" lon="-118.82705688476563">
<ele>2846</ele>
<time>2016-07-28T15:34:43Z</time>
</trkpt>
<trkpt lat="37.04743194580078" lon="-118.82695770263672">
<ele>2845</ele>
<time>2016-07-28T15:34:52Z</time>
</trkpt>
<trkpt lat="37.047489166259766" lon="-118.82685852050781">
<ele>2838</ele>
<time>2016-07-28T15:35:03Z</time>
</trkpt>
<trkpt lat="37.04753494262695" lon="-118.82684326171875">
<ele>2834</ele>
<time>2016-07-28T15:35:10Z</time>
</trkpt>
<trkpt lat="37.04756546020508" lon="-118.82679748535156">
<ele>2832</ele>
<time>2016-07-28T15:35:17Z</time>
</trkpt>
<trkpt lat="37.04758834838867" lon="-118.82674407958984">
<ele>2831</ele>
<time>2016-07-28T15:35:24Z</time>
</trkpt>
<trkpt lat="37.047611236572266" lon="-118.82662963867188">
<ele>2827</ele>
<time>2016-07-28T15:35:36Z</time>
</trkpt>
<trkpt lat="37.04763412475586" lon="-118.82658386230469">
<ele>2826</ele>
<time>2016-07-28T15:35:43Z</time>
</trkpt>
<trkpt lat="37.04767608642578" lon="-118.82646179199219">
<ele>2825</ele>
<time>2016-07-28T15:35:51Z</time>
</trkpt>
<trkpt lat="37.047691345214844" lon="-118.82637023925781">
<ele>2819</ele>
<time>2016-07-28T15:35:59Z</time>
</trkpt>
<trkpt lat="37.047691345214844" lon="-118.82622528076172">
<ele>2820</ele>
<time>2016-07-28T15:36:07Z</time>
</trkpt>
<trkpt lat="37.04773712158203" lon="-118.82612609863281">
<ele>2818</ele>
<time>2016-07-28T15:36:13Z</time>
</trkpt>
<trkpt lat="37.047760009765625" lon="-118.82600402832031">
<ele>2816</ele>
<time>2016-07-28T15:36:20Z</time>
</trkpt>
<trkpt lat="37.047752380371094" lon="-118.82594299316406">
<ele>2813</ele>
<time>2016-07-28T15:36:26Z</time>
</trkpt>
<trkpt lat="37.047813415527344" lon="-118.82584381103516">
<ele>2812</ele>
<time>2016-07-28T15:36:35Z</time>
</trkpt>
<trkpt lat="37.04788589477539" lon="-118.82577514648438">
<ele>2810</ele>
<time>2016-07-28T15:36:43Z</time>
</trkpt>
<trkpt lat="37.04790115356445" lon="-118.8257064819336">
<ele>2811</ele>
<time>2016-07-28T15:36:51Z</time>
</trkpt>
<trkpt lat="37.047882080078125" lon="-118.82561492919922">
<ele>2810</ele>
<time>2016-07-28T15:36:57Z</time>
</trkpt>
<trkpt lat="37.0478401184082" lon="-118.82549285888672">
<ele>2809</ele>
<time>2016-07-28T15:37:11Z</time>
</trkpt>
<trkpt lat="37.04784393310547" lon="-118.825439453125">
<ele>2806</ele>
<time>2016-07-28T15:37:19Z</time>
</trkpt>
<trkpt lat="37.047821044921875" lon="-118.82537841796875">
<ele>2806</ele>
<time>2016-07-28T15:37:31Z</time>
</trkpt>
<trkpt lat="37.04779815673828" lon="-118.82525634765625">
<ele>2804</ele>
<time>2016-07-28T15:37:40Z</time>
</trkpt>
<trkpt lat="37.047752380371094" lon="-118.82513427734375">
<ele>2803</ele>
<time>2016-07-28T15:37:48Z</time>
</trkpt>
<trkpt lat="37.04764175415039" lon="-118.82506561279297">
<ele>2803</ele>
<time>2016-07-28T15:37:57Z</time>
</trkpt>
<trkpt lat="37.04753112792969" lon="-118.82506561279297">
<ele>2803</ele>
<time>2016-07-28T15:38:05Z</time>
</trkpt>
<trkpt lat="37.04743576049805" lon="-118.82505798339844">
<ele>2804</ele>
<time>2016-07-28T15:38:14Z</time>
</trkpt>
<trkpt lat="37.0473747253418" lon="-118.824951171875">
<ele>2808</ele>
<time>2016-07-28T15:38:22Z</time>
</trkpt>
<trkpt lat="37.04731750488281" lon="-118.82484436035156">
<ele>2806</ele>
<time>2016-07-28T15:38:30Z</time>
</trkpt>
<trkpt lat="37.04726028442383" lon="-118.8247299194336">
<ele>2801</ele>
<time>2016-07-28T15:38:39Z</time>
</trkpt>
<trkpt lat="37.047210693359375" lon="-118.82463073730469">
<ele>2801</ele>
<time>2016-07-28T15:38:47Z</time>
</trkpt>
<trkpt lat="37.047183990478516" lon="-118.82453918457031">
<ele>2802</ele>
<time>2016-07-28T15:38:53Z</time>
</trkpt>
<trkpt lat="37.04711151123047" lon="-118.82445526123047">
<ele>2801</ele>
<time>2016-07-28T15:39:03Z</time>
</trkpt>
<trkpt lat="37.047035217285156" lon="-118.82437133789063">
<ele>2800</ele>
<time>2016-07-28T15:39:12Z</time>
</trkpt>
<trkpt lat="37.04698181152344" lon="-118.82424926757813">
<ele>2806</ele>
<time>2016-07-28T15:39:19Z</time>
</trkpt>
<trkpt lat="37.046913146972656" lon="-118.82413482666016">
<ele>2806</ele>
<time>2016-07-28T15:39:27Z</time>
</trkpt>
<trkpt lat="37.046817779541016" lon="-118.82411193847656">
<ele>2805</ele>
<time>2016-07-28T15:39:35Z</time>
</trkpt>
<trkpt lat="37.046749114990234" lon="-118.82404327392578">
<ele>2805</ele>
<time>2016-07-28T15:39:43Z</time>
</trkpt>
<trkpt lat="37.04669952392578" lon="-118.82394409179688">
<ele>2805</ele>
<time>2016-07-28T15:39:49Z</time>
</trkpt>
<trkpt lat="37.0466194152832" lon="-118.82386016845703">
<ele>2805</ele>
<time>2016-07-28T15:39:57Z</time>
</trkpt>
<trkpt lat="37.04655075073242" lon="-118.82374572753906">
<ele>2805</ele>
<time>2016-07-28T15:40:07Z</time>
</trkpt>
<trkpt lat="37.046470642089844" lon="-118.82366180419922">
<ele>2804</ele>
<time>2016-07-28T15:40:14Z</time>
</trkpt>
<trkpt lat="37.0463752746582" lon="-118.82366180419922">
<ele>2802</ele>
<time>2016-07-28T15:40:20Z</time>
</trkpt>
<trkpt lat="37.04627990722656" lon="-118.82365417480469">
<ele>2801</ele>
<time>2016-07-28T15:40:27Z</time>
</trkpt>
<trkpt lat="37.04621124267578" lon="-118.82356262207031">
<ele>2800</ele>
<time>2016-07-28T15:40:33Z</time>
</trkpt>
<trkpt lat="37.046146392822266" lon="-118.82347869873047">
<ele>2801</ele>
<time>2016-07-28T15:40:42Z</time>
</trkpt>
<trkpt lat="37.04605484008789" lon="-118.82341766357422">
<ele>2799</ele>
<time>2016-07-28T15:40:52Z</time>
</trkpt>
<trkpt lat="37.04600143432617" lon="-118.8233871459961">
<ele>2802</ele>
<time>2016-07-28T15:40:58Z</time>
</trkpt>
<trkpt lat="37.04594039916992" lon="-118.82327270507813">
<ele>2802</ele>
<time>2016-07-28T15:41:05Z</time>
</trkpt>
<trkpt lat="37.04589080810547" lon="-118.82316589355469">
<ele>2802</ele>
<time>2016-07-28T15:41:12Z</time>
</trkpt>
<trkpt lat="37.04582214355469" lon="-118.82305908203125">
<ele>2805</ele>
<time>2016-07-28T15:41:21Z</time>
</trkpt>
<trkpt lat="37.045772552490234" lon="-118.82295227050781">
<ele>2805</ele>
<time>2016-07-28T15:41:28Z</time>
</trkpt>
<trkpt lat="37.04573440551758" lon="-118.82282257080078">
<ele>2807</ele>
<time>2016-07-28T15:41:36Z</time>
</trkpt>
<trkpt lat="37.04570388793945" lon="-118.82270812988281">
<ele>2801</ele>
<time>2016-07-28T15:41:46Z</time>
</trkpt>
<trkpt lat="37.04566192626953" lon="-118.82260131835938">
<ele>2800</ele>
<time>2016-07-28T15:41:53Z</time>
</trkpt>
<trkpt lat="37.045658111572266" lon="-118.82247924804688">
<ele>2803</ele>
<time>2016-07-28T15:42:03Z</time>
</trkpt>
<trkpt lat="37.04566192626953" lon="-118.82234954833984">
<ele>2804</ele>
<time>2016-07-28T15:42:12Z</time>
</trkpt>
<trkpt lat="37.045711517333984" lon="-118.8222427368164">
<ele>2805</ele>
<time>2016-07-28T15:42:18Z</time>
</trkpt>
<trkpt lat="37.045745849609375" lon="-118.82212829589844">
<ele>2805</ele>
<time>2016-07-28T15:42:27Z</time>
</trkpt>
<trkpt lat="37.045745849609375" lon="-118.8219985961914">
<ele>2805</ele>
<time>2016-07-28T15:42:34Z</time>
</trkpt>
<trkpt lat="37.045738220214844" lon="-118.82188415527344">
<ele>2804</ele>
<time>2016-07-28T15:42:40Z</time>
</trkpt>
<trkpt lat="37.04570770263672" lon="-118.82176971435547">
<ele>2804</ele>
<time>2016-07-28T15:42:47Z</time>
</trkpt>
<trkpt lat="37.04567337036133" lon="-118.8216781616211">
<ele>2804</ele>
<time>2016-07-28T15:42:58Z</time>
</trkpt>
<trkpt lat="37.04559326171875" lon="-118.82159423828125">
<ele>2804</ele>
<time>2016-07-28T15:43:06Z</time>
</trkpt>
<trkpt lat="37.04556655883789" lon="-118.82147216796875">
<ele>2809</ele>
<time>2016-07-28T15:43:13Z</time>
</trkpt>
<trkpt lat="37.045536041259766" lon="-118.82135009765625">
<ele>2810</ele>
<time>2016-07-28T15:43:20Z</time>
</trkpt>
<trkpt lat="37.045467376708984" lon="-118.82124328613281">
<ele>2807</ele>
<time>2016-07-28T15:43:31Z</time>
</trkpt>
<trkpt lat="37.0454216003418" lon="-118.82112884521484">
<ele>2806</ele>
<time>2016-07-28T15:43:40Z</time>
</trkpt>
<trkpt lat="37.04533004760742" lon="-118.82107543945313">
<ele>2805</ele>
<time>2016-07-28T15:43:49Z</time>
</trkpt>
<trkpt lat="37.04526138305664" lon="-118.82098388671875">
<ele>2804</ele>
<time>2016-07-28T15:43:57Z</time>
</trkpt>
<trkpt lat="37.04523849487305" lon="-118.82085418701172">
<ele>2806</ele>
<time>2016-07-28T15:44:04Z</time>
</trkpt>
<trkpt lat="37.04521560668945" lon="-118.82073211669922">
<ele>2806</ele>
<time>2016-07-28T15:44:12Z</time>
</trkpt>
<trkpt lat="37.04521179199219" lon="-118.82060241699219">
<ele>2811</ele>
<time>2016-07-28T15:44:20Z</time>
</trkpt>
<trkpt lat="37.04519271850586" lon="-118.82047271728516">
<ele>2811</ele>
<time>2016-07-28T15:44:28Z</time>
</trkpt>
<trkpt lat="37.04520034790039" lon="-118.82034301757813">
<ele>2817</ele>
<time>2016-07-28T15:44:36Z</time>
</trkpt>
<trkpt lat="37.0452766418457" lon="-118.82025146484375">
<ele>2818</ele>
<time>2016-07-28T15:44:46Z</time>
</trkpt>
<trkpt lat="37.045284271240234" lon="-118.8201904296875">
<ele>2816</ele>
<time>2016-07-28T15:44:52Z</time>
</trkpt>
<trkpt lat="37.04527282714844" lon="-118.8200454711914">
<ele>2817</ele>
<time>2016-07-28T15:45:02Z</time>
</trkpt>
<trkpt lat="37.04533767700195" lon="-118.81995391845703">
<ele>2818</ele>
<time>2016-07-28T15:45:10Z</time>
</trkpt>
<trkpt lat="37.045345306396484" lon="-118.81981658935547">
<ele>2818</ele>
<time>2016-07-28T15:45:19Z</time>
</trkpt>
<trkpt lat="37.04535675048828" lon="-118.81968688964844">
<ele>2817</ele>
<time>2016-07-28T15:45:27Z</time>
</trkpt>
<trkpt lat="37.045318603515625" lon="-118.81957244873047">
<ele>2816</ele>
<time>2016-07-28T15:45:36Z</time>
</trkpt>
<trkpt lat="37.045326232910156" lon="-118.81945037841797">
<ele>2813</ele>
<time>2016-07-28T15:45:46Z</time>
</trkpt>
<trkpt lat="37.04525375366211" lon="-118.81938171386719">
<ele>2812</ele>
<time>2016-07-28T15:45:53Z</time>
</trkpt>
<trkpt lat="37.045204162597656" lon="-118.81927490234375">
<ele>2813</ele>
<time>2016-07-28T15:46:00Z</time>
</trkpt>
<trkpt lat="37.04520034790039" lon="-118.81915283203125">
<ele>2814</ele>
<time>2016-07-28T15:46:07Z</time>
</trkpt>
<trkpt lat="37.045135498046875" lon="-118.81906127929688">
<ele>2812</ele>
<time>2016-07-28T15:46:16Z</time>
</trkpt>
<trkpt lat="37.04508972167969" lon="-118.81893157958984">
<ele>2812</ele>
<time>2016-07-28T15:46:24Z</time>
</trkpt>
<trkpt lat="37.04505157470703" lon="-118.81880950927734">
<ele>2810</ele>
<time>2016-07-28T15:46:30Z</time>
</trkpt>
<trkpt lat="37.04497146606445" lon="-118.81874084472656">
<ele>2808</ele>
<time>2016-07-28T15:46:38Z</time>
</trkpt>
<trkpt lat="37.04493713378906" lon="-118.81861877441406">
<ele>2809</ele>
<time>2016-07-28T15:46:47Z</time>
</trkpt>
<trkpt lat="37.044918060302734" lon="-118.81853485107422">
<ele>2809</ele>
<time>2016-07-28T15:46:53Z</time>
</trkpt>
<trkpt lat="37.04489517211914" lon="-118.81839752197266">
<ele>2811</ele>
<time>2016-07-28T15:47:01Z</time>
</trkpt>
<trkpt lat="37.044883728027344" lon="-118.8182601928711">
<ele>2814</ele>
<time>2016-07-28T15:47:07Z</time>
</trkpt>
<trkpt lat="37.04487228393555" lon="-118.81812286376953">
<ele>2817</ele>
<time>2016-07-28T15:47:15Z</time>
</trkpt>
<trkpt lat="37.04487609863281" lon="-118.8179702758789">
<ele>2818</ele>
<time>2016-07-28T15:47:24Z</time>
</trkpt>
<trkpt lat="37.04486083984375" lon="-118.81785583496094">
<ele>2817</ele>
<time>2016-07-28T15:47:30Z</time>
</trkpt>
<trkpt lat="37.04480743408203" lon="-118.8177490234375">
<ele>2813</ele>
<time>2016-07-28T15:47:39Z</time>
</trkpt>
<trkpt lat="37.044769287109375" lon="-118.8176498413086">
<ele>2813</ele>
<time>2016-07-28T15:47:46Z</time>
</trkpt>
<trkpt lat="37.044715881347656" lon="-118.81757354736328">
<ele>2813</ele>
<time>2016-07-28T15:47:53Z</time>
</trkpt>
<trkpt lat="37.04467010498047" lon="-118.81745910644531">
<ele>2811</ele>
<time>2016-07-28T15:48:03Z</time>
</trkpt>
<trkpt lat="37.04460144042969" lon="-118.81737518310547">
<ele>2811</ele>
<time>2016-07-28T15:48:12Z</time>
</trkpt>
<trkpt lat="37.04456329345703" lon="-118.81725311279297">
<ele>2810</ele>
<time>2016-07-28T15:48:19Z</time>
</trkpt>
<trkpt lat="37.04452896118164" lon="-118.81713104248047">
<ele>2810</ele>
<time>2016-07-28T15:48:25Z</time>
</trkpt>
<trkpt lat="37.04448699951172" lon="-118.81702423095703">
<ele>2811</ele>
<time>2016-07-28T15:48:33Z</time>
</trkpt>
<trkpt lat="37.0444221496582" lon="-118.81689453125">
<ele>2813</ele>
<time>2016-07-28T15:48:39Z</time>
</trkpt>
<trkpt lat="37.044395446777344" lon="-118.8167724609375">
<ele>2813</ele>
<time>2016-07-28T15:48:46Z</time>
</trkpt>
<trkpt lat="37.04433822631836" lon="-118.81665802001953">
<ele>2810</ele>
<time>2016-07-28T15:48:53Z</time>
</trkpt>
<trkpt lat="37.044307708740234" lon="-118.81654357910156">
<ele>2814</ele>
<time>2016-07-28T15:49:00Z</time>
</trkpt>
<trkpt lat="37.044288635253906" lon="-118.81641387939453">
<ele>2813</ele>
<time>2016-07-28T15:49:07Z</time>
</trkpt>
<trkpt lat="37.044254302978516" lon="-118.81629943847656">
<ele>2817</ele>
<time>2016-07-28T15:49:15Z</time>
</trkpt>
<trkpt lat="37.04425811767578" lon="-118.81623840332031">
<ele>2819</ele>
<time>2016-07-28T15:49:21Z</time>
</trkpt>
<trkpt lat="37.04421615600586" lon="-118.81611633300781">
<ele>2815</ele>
<time>2016-07-28T15:49:28Z</time>
</trkpt>
<trkpt lat="37.04420471191406" lon="-118.81598663330078">
<ele>2817</ele>
<time>2016-07-28T15:49:35Z</time>
</trkpt>
<trkpt lat="37.044158935546875" lon="-118.81585693359375">
<ele>2816</ele>
<time>2016-07-28T15:49:43Z</time>
</trkpt>
<trkpt lat="37.04408645629883" lon="-118.81578826904297">
<ele>2813</ele>
<time>2016-07-28T15:49:50Z</time>
</trkpt>
<trkpt lat="37.04403305053711" lon="-118.81570434570313">
<ele>2812</ele>
<time>2016-07-28T15:49:59Z</time>
</trkpt>
<trkpt lat="37.043941497802734" lon="-118.81563568115234">
<ele>2811</ele>
<time>2016-07-28T15:50:05Z</time>
</trkpt>
<trkpt lat="37.04384994506836" lon="-118.81559753417969">
<ele>2810</ele>
<time>2016-07-28T15:50:12Z</time>
</trkpt>
<trkpt lat="37.04376220703125" lon="-118.8155288696289">
<ele>2811</ele>
<time>2016-07-28T15:50:21Z</time>
</trkpt>
<trkpt lat="37.043701171875" lon="-118.8154067993164">
<ele>2810</ele>
<time>2016-07-28T15:50:29Z</time>
</trkpt>
<trkpt lat="37.04364013671875" lon="-118.81531524658203">
<ele>2807</ele>
<time>2016-07-28T15:50:36Z</time>
</trkpt>
<trkpt lat="37.04359817504883" lon="-118.81519317626953">
<ele>2806</ele>
<time>2016-07-28T15:50:43Z</time>
</trkpt>
<trkpt lat="37.04350280761719" lon="-118.81519317626953">
<ele>2807</ele>
<time>2016-07-28T15:50:51Z</time>
</trkpt>
<trkpt lat="37.04338836669922" lon="-118.81512451171875">
<ele>2810</ele>
<time>2016-07-28T15:51:00Z</time>
</trkpt>
<trkpt lat="37.0433349609375" lon="-118.81503295898438">
<ele>2810</ele>
<time>2016-07-28T15:51:08Z</time>
</trkpt>
<trkpt lat="37.04330062866211" lon="-118.8149185180664">
<ele>2807</ele>
<time>2016-07-28T15:51:16Z</time>
</trkpt>
<trkpt lat="37.04329299926758" lon="-118.8147964477539">
<ele>2813</ele>
<time>2016-07-28T15:51:24Z</time>
</trkpt>
<trkpt lat="37.043304443359375" lon="-118.81465148925781">
<ele>2809</ele>
<time>2016-07-28T15:51:32Z</time>
</trkpt>
<trkpt lat="37.043277740478516" lon="-118.81453704833984">
<ele>2801</ele>
<time>2016-07-28T15:51:41Z</time>
</trkpt>
<trkpt lat="37.043216705322266" lon="-118.8144302368164">
<ele>2802</ele>
<time>2016-07-28T15:51:47Z</time>
</trkpt>
<trkpt lat="37.04318618774414" lon="-118.8143310546875">
<ele>2802</ele>
<time>2016-07-28T15:51:53Z</time>
</trkpt>
<trkpt lat="37.043148040771484" lon="-118.81421661376953">
<ele>2799</ele>
<time>2016-07-28T15:52:03Z</time>
</trkpt>
<trkpt lat="37.04313278198242" lon="-118.8140869140625">
<ele>2795</ele>
<time>2016-07-28T15:52:10Z</time>
</trkpt>
<trkpt lat="37.04311752319336" lon="-118.81395721435547">
<ele>2799</ele>
<time>2016-07-28T15:52:18Z</time>
</trkpt>
<trkpt lat="37.04314422607422" lon="-118.8138198852539">
<ele>2803</ele>
<time>2016-07-28T15:52:24Z</time>
</trkpt>
<trkpt lat="37.043148040771484" lon="-118.8136978149414">
<ele>2802</ele>
<time>2016-07-28T15:52:31Z</time>
</trkpt>
<trkpt lat="37.04312515258789" lon="-118.81356811523438">
<ele>2799</ele>
<time>2016-07-28T15:52:39Z</time>
</trkpt>
<trkpt lat="37.043094635009766" lon="-118.81343841552734">
<ele>2799</ele>
<time>2016-07-28T15:52:47Z</time>
</trkpt>
<trkpt lat="37.043128967285156" lon="-118.81336975097656">
<ele>2797</ele>
<time>2016-07-28T15:52:53Z</time>
</trkpt>
<trkpt lat="37.04310989379883" lon="-118.81326293945313">
<ele>2796</ele>
<time>2016-07-28T15:53:02Z</time>
</trkpt>
<trkpt lat="37.043060302734375" lon="-118.81314849853516">
<ele>2792</ele>
<time>2016-07-28T15:53:11Z</time>
</trkpt>
<trkpt lat="37.04304122924805" lon="-118.8130111694336">
<ele>2794</ele>
<time>2016-07-28T15:53:20Z</time>
</trkpt>
<trkpt lat="37.043006896972656" lon="-118.81290435791016">
<ele>2795</ele>
<time>2016-07-28T15:53:26Z</time>
</trkpt>
<trkpt lat="37.04300308227539" lon="-118.8128433227539">
<ele>2798</ele>
<time>2016-07-28T15:53:32Z</time>
</trkpt>
<trkpt lat="37.04293441772461" lon="-118.81275939941406">
<ele>2791</ele>
<time>2016-07-28T15:53:40Z</time>
</trkpt>
<trkpt lat="37.04292678833008" lon="-118.81269836425781">
<ele>2791</ele>
<time>2016-07-28T15:53:47Z</time>
</trkpt>
<trkpt lat="37.04288101196289" lon="-118.81259155273438">
<ele>2792</ele>
<time>2016-07-28T15:53:53Z</time>
</trkpt>
<trkpt lat="37.04280471801758" lon="-118.81249237060547">
<ele>2793</ele>
<time>2016-07-28T15:53:59Z</time>
</trkpt>
<trkpt lat="37.042747497558594" lon="-118.8123779296875">
<ele>2795</ele>
<time>2016-07-28T15:54:06Z</time>
</trkpt>
<trkpt lat="37.042667388916016" lon="-118.81229400634766">
<ele>2795</ele>
<time>2016-07-28T15:54:14Z</time>
</trkpt>
<trkpt lat="37.04262161254883" lon="-118.81217956542969">
<ele>2797</ele>
<time>2016-07-28T15:54:25Z</time>
</trkpt>
<trkpt lat="37.04264831542969" lon="-118.81206512451172">
<ele>2801</ele>
<time>2016-07-28T15:54:36Z</time>
</trkpt>
<trkpt lat="37.04266357421875" lon="-118.81199645996094">
<ele>2802</ele>
<time>2016-07-28T15:54:47Z</time>
</trkpt>
<trkpt lat="37.042659759521484" lon="-118.81190490722656">
<ele>2801</ele>
<time>2016-07-28T15:54:53Z</time>
</trkpt>
<trkpt lat="37.04267120361328" lon="-118.81184387207031">
<ele>2800</ele>
<time>2016-07-28T15:54:59Z</time>
</trkpt>
<trkpt lat="37.04264831542969" lon="-118.81172180175781">
<ele>2791</ele>
<time>2016-07-28T15:55:09Z</time>
</trkpt>
<trkpt lat="37.042640686035156" lon="-118.81160736083984">
<ele>2791</ele>
<time>2016-07-28T15:55:18Z</time>
</trkpt>
<trkpt lat="37.04262161254883" lon="-118.81153869628906">
<ele>2788</ele>
<time>2016-07-28T15:55:24Z</time>
</trkpt>
<trkpt lat="37.042579650878906" lon="-118.8114242553711">
<ele>2786</ele>
<time>2016-07-28T15:55:34Z</time>
</trkpt>
<trkpt lat="37.042510986328125" lon="-118.81131744384766">
<ele>2787</ele>
<time>2016-07-28T15:55:44Z</time>
</trkpt>
<trkpt lat="37.04248046875" lon="-118.81119537353516">
<ele>2787</ele>
<time>2016-07-28T15:55:50Z</time>
</trkpt>
<trkpt lat="37.042423248291016" lon="-118.81108093261719">
<ele>2786</ele>
<time>2016-07-28T15:55:56Z</time>
</trkpt>
<trkpt lat="37.0423698425293" lon="-118.81094360351563">
<ele>2787</ele>
<time>2016-07-28T15:56:04Z</time>
</trkpt>
<trkpt lat="37.04232406616211" lon="-118.81082153320313">
<ele>2783</ele>
<time>2016-07-28T15:56:11Z</time>
</trkpt>
<trkpt lat="37.04227066040039" lon="-118.81070709228516">
<ele>2784</ele>
<time>2016-07-28T15:56:18Z</time>
</trkpt>
<trkpt lat="37.0422477722168" lon="-118.81065368652344">
<ele>2783</ele>
<time>2016-07-28T15:56:24Z</time>
</trkpt>
<trkpt lat="37.04222106933594" lon="-118.81049346923828">
<ele>2783</ele>
<time>2016-07-28T15:56:30Z</time>
</trkpt>
<trkpt lat="37.04220962524414" lon="-118.81037139892578">
<ele>2783</ele>
<time>2016-07-28T15:56:40Z</time>
</trkpt>
<trkpt lat="37.04229736328125" lon="-118.81029510498047">
<ele>2782</ele>
<time>2016-07-28T15:56:48Z</time>
</trkpt>
<trkpt lat="37.0423469543457" lon="-118.81016540527344">
<ele>2783</ele>
<time>2016-07-28T15:56:57Z</time>
</trkpt>
<trkpt lat="37.042396545410156" lon="-118.81006622314453">
<ele>2782</ele>
<time>2016-07-28T15:57:19Z</time>
</trkpt>
<trkpt lat="37.042423248291016" lon="-118.80995178222656">
<ele>2782</ele>
<time>2016-07-28T15:57:31Z</time>
</trkpt>
<trkpt lat="37.04241943359375" lon="-118.80989837646484">
<ele>2779</ele>
<time>2016-07-28T15:57:40Z</time>
</trkpt>
<trkpt lat="37.042362213134766" lon="-118.80980682373047">
<ele>2773</ele>
<time>2016-07-28T15:57:49Z</time>
</trkpt>
<trkpt lat="37.04228973388672" lon="-118.80970001220703">
<ele>2772</ele>
<time>2016-07-28T15:57:57Z</time>
</trkpt>
<trkpt lat="37.04230499267578" lon="-118.8095703125">
<ele>2772</ele>
<time>2016-07-28T15:58:05Z</time>
</trkpt>
<trkpt lat="37.042301177978516" lon="-118.8094482421875">
<ele>2773</ele>
<time>2016-07-28T15:58:12Z</time>
</trkpt>
<trkpt lat="37.04236602783203" lon="-118.8093490600586">
<ele>2777</ele>
<time>2016-07-28T15:58:19Z</time>
</trkpt>
<trkpt lat="37.04244613647461" lon="-118.80925750732422">
<ele>2775</ele>
<time>2016-07-28T15:58:29Z</time>
</trkpt>
<trkpt lat="37.04243469238281" lon="-118.80915069580078">
<ele>2770</ele>
<time>2016-07-28T15:58:39Z</time>
</trkpt>
<trkpt lat="37.04240417480469" lon="-118.8091049194336">
<ele>2770</ele>
<time>2016-07-28T15:58:45Z</time>
</trkpt>
<trkpt lat="37.0423698425293" lon="-118.80899810791016">
<ele>2767</ele>
<time>2016-07-28T15:58:53Z</time>
</trkpt>
<trkpt lat="37.0423583984375" lon="-118.80894470214844">
<ele>2767</ele>
<time>2016-07-28T15:59:00Z</time>
</trkpt>
<trkpt lat="37.04233169555664" lon="-118.80889892578125">
<ele>2767</ele>
<time>2016-07-28T15:59:13Z</time>
</trkpt>
<trkpt lat="37.04227828979492" lon="-118.80887603759766">
<ele>2764</ele>
<time>2016-07-28T15:59:25Z</time>
</trkpt>
<trkpt lat="37.04231643676758" lon="-118.80879974365234">
<ele>2764</ele>
<time>2016-07-28T16:00:49Z</time>
</trkpt>
<trkpt lat="37.0422477722168" lon="-118.80872344970703">
<ele>2762</ele>
<time>2016-07-28T16:00:59Z</time>
</trkpt>
<trkpt lat="37.04220199584961" lon="-118.80870819091797">
<ele>2763</ele>
<time>2016-07-28T16:01:07Z</time>
</trkpt>
<trkpt lat="37.042213439941406" lon="-118.80863952636719">
<ele>2766</ele>
<time>2016-07-28T16:01:17Z</time>
</trkpt>
<trkpt lat="37.042236328125" lon="-118.80858612060547">
<ele>2768</ele>
<time>2016-07-28T16:01:23Z</time>
</trkpt>
<trkpt lat="37.04224395751953" lon="-118.80852508544922">
<ele>2773</ele>
<time>2016-07-28T16:01:45Z</time>
</trkpt>
<trkpt lat="37.042213439941406" lon="-118.80844116210938">
<ele>2768</ele>
<time>2016-07-28T16:01:53Z</time>
</trkpt>
<trkpt lat="37.04216384887695" lon="-118.80834197998047">
<ele>2765</ele>
<time>2016-07-28T16:02:04Z</time>
</trkpt>
<trkpt lat="37.0421257019043" lon="-118.80821990966797">
<ele>2769</ele>
<time>2016-07-28T16:02:15Z</time>
</trkpt>
<trkpt lat="37.042137145996094" lon="-118.80809783935547">
<ele>2764</ele>
<time>2016-07-28T16:02:22Z</time>
</trkpt>
<trkpt lat="37.0421142578125" lon="-118.80799102783203">
<ele>2759</ele>
<time>2016-07-28T16:02:29Z</time>
</trkpt>
<trkpt lat="37.042083740234375" lon="-118.80786895751953">
<ele>2762</ele>
<time>2016-07-28T16:02:38Z</time>
</trkpt>
<trkpt lat="37.042091369628906" lon="-118.8077392578125">
<ele>2759</ele>
<time>2016-07-28T16:02:46Z</time>
</trkpt>
<trkpt lat="37.04207992553711" lon="-118.80763244628906">
<ele>2760</ele>
<time>2016-07-28T16:02:53Z</time>
</trkpt>
<trkpt lat="37.042076110839844" lon="-118.8074951171875">
<ele>2764</ele>
<time>2016-07-28T16:03:00Z</time>
</trkpt>
<trkpt lat="37.04207992553711" lon="-118.807373046875">
<ele>2761</ele>
<time>2016-07-28T16:03:07Z</time>
</trkpt>
<trkpt lat="37.04208755493164" lon="-118.80724334716797">
<ele>2763</ele>
<time>2016-07-28T16:03:14Z</time>
</trkpt>
<trkpt lat="37.04205322265625" lon="-118.80712890625">
<ele>2763</ele>
<time>2016-07-28T16:03:21Z</time>
</trkpt>
<trkpt lat="37.04207229614258" lon="-118.80699920654297">
<ele>2761</ele>
<time>2016-07-28T16:03:31Z</time>
</trkpt>
<trkpt lat="37.04209518432617" lon="-118.8068618774414">
<ele>2763</ele>
<time>2016-07-28T16:03:41Z</time>
</trkpt>
<trkpt lat="37.042110443115234" lon="-118.80673217773438">
<ele>2761</ele>
<time>2016-07-28T16:03:47Z</time>
</trkpt>
<trkpt lat="37.0421028137207" lon="-118.80661010742188">
<ele>2765</ele>
<time>2016-07-28T16:03:53Z</time>
</trkpt>
<trkpt lat="37.042091369628906" lon="-118.80648040771484">
<ele>2767</ele>
<time>2016-07-28T16:03:59Z</time>
</trkpt>
<trkpt lat="37.042110443115234" lon="-118.80635833740234">
<ele>2762</ele>
<time>2016-07-28T16:04:07Z</time>
</trkpt>
<trkpt lat="37.042091369628906" lon="-118.80622100830078">
<ele>2764</ele>
<time>2016-07-28T16:04:16Z</time>
</trkpt>
<trkpt lat="37.0421142578125" lon="-118.80609130859375">
<ele>2766</ele>
<time>2016-07-28T16:04:22Z</time>
</trkpt>
<trkpt lat="37.04209518432617" lon="-118.80596923828125">
<ele>2767</ele>
<time>2016-07-28T16:04:28Z</time>
</trkpt>
<trkpt lat="37.04209899902344" lon="-118.80583953857422">
<ele>2764</ele>
<time>2016-07-28T16:04:37Z</time>
</trkpt>
<trkpt lat="37.0421028137207" lon="-118.80572509765625">
<ele>2765</ele>
<time>2016-07-28T16:04:44Z</time>
</trkpt>
<trkpt lat="37.042083740234375" lon="-118.80561065673828">
<ele>2763</ele>
<time>2016-07-28T16:04:53Z</time>
</trkpt>
<trkpt lat="37.04207992553711" lon="-118.80547332763672">
<ele>2763</ele>
<time>2016-07-28T16:05:02Z</time>
</trkpt>
<trkpt lat="37.04205322265625" lon="-118.80535125732422">
<ele>2763</ele>
<time>2016-07-28T16:05:09Z</time>
</trkpt>
<trkpt lat="37.04203414916992" lon="-118.80521392822266">
<ele>2764</ele>
<time>2016-07-28T16:05:16Z</time>
</trkpt>
<trkpt lat="37.04201889038086" lon="-118.80509185791016">
<ele>2765</ele>
<time>2016-07-28T16:05:25Z</time>
</trkpt>
<trkpt lat="37.04201889038086" lon="-118.80497741699219">
<ele>2764</ele>
<time>2016-07-28T16:05:46Z</time>
</trkpt>
<trkpt lat="37.0420036315918" lon="-118.80489349365234">
<ele>2765</ele>
<time>2016-07-28T16:05:57Z</time>
</trkpt>
<trkpt lat="37.04196548461914" lon="-118.80475616455078">
<ele>2762</ele>
<time>2016-07-28T16:06:04Z</time>
</trkpt>
<trkpt lat="37.04196548461914" lon="-118.80462646484375">
<ele>2765</ele>
<time>2016-07-28T16:06:11Z</time>
</trkpt>
<trkpt lat="37.04191207885742" lon="-118.80450439453125">
<ele>2763</ele>
<time>2016-07-28T16:06:20Z</time>
</trkpt>
<trkpt lat="37.04191589355469" lon="-118.80438232421875">
<ele>2762</ele>
<time>2016-07-28T16:06:27Z</time>
</trkpt>
<trkpt lat="37.04191207885742" lon="-118.80431365966797">
<ele>2760</ele>
<time>2016-07-28T16:06:33Z</time>
</trkpt>
<trkpt lat="37.041866302490234" lon="-118.80420684814453">
<ele>2762</ele>
<time>2016-07-28T16:06:40Z</time>
</trkpt>
<trkpt lat="37.041805267333984" lon="-118.8041000366211">
<ele>2761</ele>
<time>2016-07-28T16:06:47Z</time>
</trkpt>
<trkpt lat="37.04176330566406" lon="-118.80400848388672">
<ele>2760</ele>
<time>2016-07-28T16:06:53Z</time>
</trkpt>
<trkpt lat="37.041744232177734" lon="-118.80388641357422">
<ele>2764</ele>
<time>2016-07-28T16:07:00Z</time>
</trkpt>
<trkpt lat="37.04172134399414" lon="-118.80375671386719">
<ele>2767</ele>
<time>2016-07-28T16:07:07Z</time>
</trkpt>
<trkpt lat="37.041664123535156" lon="-118.80366516113281">
<ele>2767</ele>
<time>2016-07-28T16:07:15Z</time>
</trkpt>
<trkpt lat="37.04163360595703" lon="-118.80353546142578">
<ele>2770</ele>
<time>2016-07-28T16:07:23Z</time>
</trkpt>
<trkpt lat="37.04163360595703" lon="-118.80341339111328">
<ele>2770</ele>
<time>2016-07-28T16:07:35Z</time>
</trkpt>
<trkpt lat="37.04158401489258" lon="-118.80331420898438">
<ele>2765</ele>
<time>2016-07-28T16:07:44Z</time>
</trkpt>
<trkpt lat="37.04150390625" lon="-118.80323028564453">
<ele>2765</ele>
<time>2016-07-28T16:07:52Z</time>
</trkpt>
<trkpt lat="37.04145050048828" lon="-118.8031005859375">
<ele>2769</ele>
<time>2016-07-28T16:08:01Z</time>
</trkpt>
<trkpt lat="37.041385650634766" lon="-118.80300903320313">
<ele>2767</ele>
<time>2016-07-28T16:08:09Z</time>
</trkpt>
<trkpt lat="37.04136657714844" lon="-118.80289459228516">
<ele>2772</ele>
<time>2016-07-28T16:08:18Z</time>
</trkpt>
<trkpt lat="37.04139709472656" lon="-118.80278015136719">
<ele>2778</ele>
<time>2016-07-28T16:08:26Z</time>
</trkpt>
<trkpt lat="37.041358947753906" lon="-118.80265808105469">
<ele>2773</ele>
<time>2016-07-28T16:08:38Z</time>
</trkpt>
<trkpt lat="37.04137420654297" lon="-118.80259704589844">
<ele>2774</ele>
<time>2016-07-28T16:08:45Z</time>
</trkpt>
<trkpt lat="37.041378021240234" lon="-118.80253601074219">
<ele>2774</ele>
<time>2016-07-28T16:08:52Z</time>
</trkpt>
<trkpt lat="37.041404724121094" lon="-118.8024673461914">
<ele>2776</ele>
<time>2016-07-28T16:08:59Z</time>
</trkpt>
<trkpt lat="37.0413932800293" lon="-118.80241394042969">
<ele>2778</ele>
<time>2016-07-28T16:09:05Z</time>
</trkpt>
<trkpt lat="37.0413703918457" lon="-118.80236053466797">
<ele>2777</ele>
<time>2016-07-28T16:09:11Z</time>
</trkpt>
<trkpt lat="37.04132080078125" lon="-118.80236053466797">
<ele>2778</ele>
<time>2016-07-28T16:09:18Z</time>
</trkpt>
<trkpt lat="37.04128646850586" lon="-118.80230712890625">
<ele>2779</ele>
<time>2016-07-28T16:09:24Z</time>
</trkpt>
<trkpt lat="37.04130935668945" lon="-118.80218505859375">
<ele>2782</ele>
<time>2016-07-28T16:09:34Z</time>
</trkpt>
<trkpt lat="37.041297912597656" lon="-118.80206298828125">
<ele>2785</ele>
<time>2016-07-28T16:09:44Z</time>
</trkpt>
<trkpt lat="37.041290283203125" lon="-118.80199432373047">
<ele>2784</ele>
<time>2016-07-28T16:09:50Z</time>
</trkpt>
<trkpt lat="37.04125213623047" lon="-118.8019027709961">
<ele>2782</ele>
<time>2016-07-28T16:09:56Z</time>
</trkpt>
<trkpt lat="37.04121780395508" lon="-118.80177307128906">
<ele>2781</ele>
<time>2016-07-28T16:10:04Z</time>
</trkpt>
<trkpt lat="37.04119110107422" lon="-118.80165100097656">
<ele>2783</ele>
<time>2016-07-28T16:10:12Z</time>
</trkpt>
<trkpt lat="37.04117965698242" lon="-118.80152893066406">
<ele>2786</ele>
<time>2016-07-28T16:10:21Z</time>
</trkpt>
<trkpt lat="37.041168212890625" lon="-118.80140686035156">
<ele>2786</ele>
<time>2016-07-28T16:10:28Z</time>
</trkpt>
<trkpt lat="37.0411376953125" lon="-118.8012924194336">
<ele>2787</ele>
<time>2016-07-28T16:10:37Z</time>
</trkpt>
<trkpt lat="37.04109191894531" lon="-118.8011703491211">
<ele>2785</ele>
<time>2016-07-28T16:10:49Z</time>
</trkpt>
<trkpt lat="37.04104232788086" lon="-118.80107116699219">
<ele>2786</ele>
<time>2016-07-28T16:10:58Z</time>
</trkpt>
<trkpt lat="37.04098892211914" lon="-118.80097198486328">
<ele>2787</ele>
<time>2016-07-28T16:11:08Z</time>
</trkpt>
<trkpt lat="37.04096221923828" lon="-118.80091857910156">
<ele>2788</ele>
<time>2016-07-28T16:11:15Z</time>
</trkpt>
<trkpt lat="37.04097366333008" lon="-118.80085754394531">
<ele>2791</ele>
<time>2016-07-28T16:11:21Z</time>
</trkpt>
<trkpt lat="37.04093933105469" lon="-118.80074310302734">
<ele>2790</ele>
<time>2016-07-28T16:11:31Z</time>
</trkpt>
<trkpt lat="37.04091262817383" lon="-118.80069732666016">
<ele>2791</ele>
<time>2016-07-28T16:11:51Z</time>
</trkpt>
<trkpt lat="37.0409049987793" lon="-118.80060577392578">
<ele>2791</ele>
<time>2016-07-28T16:11:58Z</time>
</trkpt>
<trkpt lat="37.04083251953125" lon="-118.8005142211914">
<ele>2792</ele>
<time>2016-07-28T16:12:07Z</time>
</trkpt>
<trkpt lat="37.04079055786133" lon="-118.80040740966797">
<ele>2791</ele>
<time>2016-07-28T16:12:16Z</time>
</trkpt>
<trkpt lat="37.040775299072266" lon="-118.80029296875">
<ele>2793</ele>
<time>2016-07-28T16:12:22Z</time>
</trkpt>
<trkpt lat="37.0407829284668" lon="-118.8001708984375">
<ele>2794</ele>
<time>2016-07-28T16:12:30Z</time>
</trkpt>
<trkpt lat="37.04082107543945" lon="-118.80006408691406">
<ele>2791</ele>
<time>2016-07-28T16:12:40Z</time>
</trkpt>
<trkpt lat="37.040836334228516" lon="-118.79995727539063">
<ele>2793</ele>
<time>2016-07-28T16:12:48Z</time>
</trkpt>
<trkpt lat="37.040889739990234" lon="-118.79984283447266">
<ele>2794</ele>
<time>2016-07-28T16:12:57Z</time>
</trkpt>
<trkpt lat="37.04093551635742" lon="-118.79974365234375">
<ele>2800</ele>
<time>2016-07-28T16:13:07Z</time>
</trkpt>
<trkpt lat="37.0410270690918" lon="-118.79969024658203">
<ele>2798</ele>
<time>2016-07-28T16:13:16Z</time>
</trkpt>
<trkpt lat="37.04104232788086" lon="-118.79962158203125">
<ele>2797</ele>
<time>2016-07-28T16:13:23Z</time>
</trkpt>
<trkpt lat="37.04104232788086" lon="-118.79949188232422">
<ele>2796</ele>
<time>2016-07-28T16:13:33Z</time>
</trkpt>
<trkpt lat="37.04106903076172" lon="-118.79943084716797">
<ele>2796</ele>
<time>2016-07-28T16:13:40Z</time>
</trkpt>
<trkpt lat="37.0411262512207" lon="-118.79933166503906">
<ele>2799</ele>
<time>2016-07-28T16:13:48Z</time>
</trkpt>
<trkpt lat="37.04117202758789" lon="-118.79923248291016">
<ele>2806</ele>
<time>2016-07-28T16:14:00Z</time>
</trkpt>
<trkpt lat="37.04121017456055" lon="-118.79911041259766">
<ele>2803</ele>
<time>2016-07-28T16:14:07Z</time>
</trkpt>
<trkpt lat="37.041221618652344" lon="-118.79898834228516">
<ele>2803</ele>
<time>2016-07-28T16:14:16Z</time>
</trkpt>
<trkpt lat="37.0412712097168" lon="-118.79885864257813">
<ele>2799</ele>
<time>2016-07-28T16:14:24Z</time>
</trkpt>
<trkpt lat="37.041290283203125" lon="-118.79873657226563">
<ele>2798</ele>
<time>2016-07-28T16:14:32Z</time>
</trkpt>
<trkpt lat="37.04128646850586" lon="-118.79867553710938">
<ele>2798</ele>
<time>2016-07-28T16:14:38Z</time>
</trkpt>
<trkpt lat="37.041358947753906" lon="-118.79857635498047">
<ele>2800</ele>
<time>2016-07-28T16:14:45Z</time>
</trkpt>
<trkpt lat="37.0413932800293" lon="-118.79846954345703">
<ele>2798</ele>
<time>2016-07-28T16:14:51Z</time>
</trkpt>
<trkpt lat="37.04139709472656" lon="-118.79837799072266">
<ele>2802</ele>
<time>2016-07-28T16:14:58Z</time>
</trkpt>
<trkpt lat="37.0413932800293" lon="-118.79825592041016">
<ele>2800</ele>
<time>2016-07-28T16:15:08Z</time>
</trkpt>
<trkpt lat="37.0413703918457" lon="-118.79813385009766">
<ele>2806</ele>
<time>2016-07-28T16:15:18Z</time>
</trkpt>
<trkpt lat="37.04138946533203" lon="-118.7980728149414">
<ele>2809</ele>
<time>2016-07-28T16:15:24Z</time>
</trkpt>
<trkpt lat="37.04146957397461" lon="-118.7979965209961">
<ele>2810</ele>
<time>2016-07-28T16:15:33Z</time>
</trkpt>
<trkpt lat="37.04152297973633" lon="-118.79789733886719">
<ele>2809</ele>
<time>2016-07-28T16:15:42Z</time>
</trkpt>
<trkpt lat="37.04158020019531" lon="-118.79779815673828">
<ele>2810</ele>
<time>2016-07-28T16:15:49Z</time>
</trkpt>
<trkpt lat="37.04158401489258" lon="-118.79767608642578">
<ele>2809</ele>
<time>2016-07-28T16:15:57Z</time>
</trkpt>
<trkpt lat="37.04155349731445" lon="-118.79762268066406">
<ele>2806</ele>
<time>2016-07-28T16:16:03Z</time>
</trkpt>
<trkpt lat="37.041473388671875" lon="-118.79754638671875">
<ele>2807</ele>
<time>2016-07-28T16:16:13Z</time>
</trkpt>
<trkpt lat="37.04141616821289" lon="-118.79742431640625">
<ele>2810</ele>
<time>2016-07-28T16:16:22Z</time>
</trkpt>
<trkpt lat="37.041358947753906" lon="-118.79732513427734">
<ele>2811</ele>
<time>2016-07-28T16:16:31Z</time>
</trkpt>
<trkpt lat="37.04132843017578" lon="-118.79720306396484">
<ele>2809</ele>
<time>2016-07-28T16:16:39Z</time>
</trkpt>
<trkpt lat="37.04134750366211" lon="-118.79705810546875">
<ele>2813</ele>
<time>2016-07-28T16:16:48Z</time>
</trkpt>
<trkpt lat="37.041404724121094" lon="-118.79693603515625">
<ele>2810</ele>
<time>2016-07-28T16:16:57Z</time>
</trkpt>
<trkpt lat="37.04149627685547" lon="-118.79690551757813">
<ele>2811</ele>
<time>2016-07-28T16:17:03Z</time>
</trkpt>
<trkpt lat="37.04157257080078" lon="-118.79684448242188">
<ele>2809</ele>
<time>2016-07-28T16:17:11Z</time>
</trkpt>
<trkpt lat="37.04161071777344" lon="-118.79671478271484">
<ele>2807</ele>
<time>2016-07-28T16:17:19Z</time>
</trkpt>
<trkpt lat="37.04163360595703" lon="-118.79658508300781">
<ele>2809</ele>
<time>2016-07-28T16:17:26Z</time>
</trkpt>
<trkpt lat="37.04167938232422" lon="-118.79646301269531">
<ele>2812</ele>
<time>2016-07-28T16:17:32Z</time>
</trkpt>
<trkpt lat="37.04168701171875" lon="-118.79633331298828">
<ele>2809</ele>
<time>2016-07-28T16:17:39Z</time>
</trkpt>
<trkpt lat="37.041717529296875" lon="-118.79627227783203">
<ele>2810</ele>
<time>2016-07-28T16:18:32Z</time>
</trkpt>
<trkpt lat="37.04173278808594" lon="-118.79620361328125">
<ele>2810</ele>
<time>2016-07-28T16:18:38Z</time>
</trkpt>
<trkpt lat="37.04176330566406" lon="-118.79607391357422">
<ele>2809</ele>
<time>2016-07-28T16:18:46Z</time>
</trkpt>
<trkpt lat="37.04179000854492" lon="-118.79598236083984">
<ele>2808</ele>
<time>2016-07-28T16:18:53Z</time>
</trkpt>
<trkpt lat="37.041786193847656" lon="-118.79585266113281">
<ele>2806</ele>
<time>2016-07-28T16:19:03Z</time>
</trkpt>
<trkpt lat="37.04174041748047" lon="-118.79576110839844">
<ele>2803</ele>
<time>2016-07-28T16:19:13Z</time>
</trkpt>
<trkpt lat="37.04169464111328" lon="-118.79564666748047">
<ele>2803</ele>
<time>2016-07-28T16:19:23Z</time>
</trkpt>
<trkpt lat="37.041709899902344" lon="-118.79551696777344">
<ele>2804</ele>
<time>2016-07-28T16:19:31Z</time>
</trkpt>
<trkpt lat="37.04172134399414" lon="-118.7953872680664">
<ele>2801</ele>
<time>2016-07-28T16:19:39Z</time>
</trkpt>
<trkpt lat="37.04174041748047" lon="-118.7952651977539">
<ele>2806</ele>
<time>2016-07-28T16:19:49Z</time>
</trkpt>
<trkpt lat="37.041748046875" lon="-118.79513549804688">
<ele>2809</ele>
<time>2016-07-28T16:19:57Z</time>
</trkpt>
<trkpt lat="37.041744232177734" lon="-118.7950210571289">
<ele>2811</ele>
<time>2016-07-28T16:20:05Z</time>
</trkpt>
<trkpt lat="37.041725158691406" lon="-118.79489135742188">
<ele>2809</ele>
<time>2016-07-28T16:20:14Z</time>
</trkpt>
<trkpt lat="37.04169464111328" lon="-118.7947769165039">
<ele>2804</ele>
<time>2016-07-28T16:20:24Z</time>
</trkpt>
<trkpt lat="37.04170227050781" lon="-118.7946548461914">
<ele>2807</ele>
<time>2016-07-28T16:20:32Z</time>
</trkpt>
<trkpt lat="37.04172897338867" lon="-118.79454803466797">
<ele>2807</ele>
<time>2016-07-28T16:20:39Z</time>
</trkpt>
<trkpt lat="37.0417594909668" lon="-118.79442596435547">
<ele>2809</ele>
<time>2016-07-28T16:20:47Z</time>
</trkpt>
<trkpt lat="37.04178237915039" lon="-118.7943344116211">
<ele>2812</ele>
<time>2016-07-28T16:20:53Z</time>
</trkpt>
<trkpt lat="37.04182052612305" lon="-118.79422760009766">
<ele>2813</ele>
<time>2016-07-28T16:20:59Z</time>
</trkpt>
<trkpt lat="37.04186248779297" lon="-118.79410552978516">
<ele>2812</ele>
<time>2016-07-28T16:21:07Z</time>
</trkpt>
<trkpt lat="37.04190444946289" lon="-118.79399108886719">
<ele>2814</ele>
<time>2016-07-28T16:21:14Z</time>
</trkpt>
<trkpt lat="37.04194641113281" lon="-118.79388427734375">
<ele>2814</ele>
<time>2016-07-28T16:21:23Z</time>
</trkpt>
<trkpt lat="37.041954040527344" lon="-118.79375457763672">
<ele>2812</ele>
<time>2016-07-28T16:21:33Z</time>
</trkpt>
<trkpt lat="37.04193878173828" lon="-118.79363250732422">
<ele>2813</ele>
<time>2016-07-28T16:21:41Z</time>
</trkpt>
<trkpt lat="37.04195785522461" lon="-118.79350280761719">
<ele>2813</ele>
<time>2016-07-28T16:21:49Z</time>
</trkpt>
<trkpt lat="37.041961669921875" lon="-118.79338836669922">
<ele>2815</ele>
<time>2016-07-28T16:21:57Z</time>
</trkpt>
<trkpt lat="37.04199981689453" lon="-118.79327392578125">
<ele>2816</ele>
<time>2016-07-28T16:22:11Z</time>
</trkpt>
<trkpt lat="37.0419921875" lon="-118.79315185546875">
<ele>2813</ele>
<time>2016-07-28T16:22:20Z</time>
</trkpt>
<trkpt lat="37.04197311401367" lon="-118.79309844970703">
<ele>2813</ele>
<time>2016-07-28T16:22:26Z</time>
</trkpt>
<trkpt lat="37.04196548461914" lon="-118.79296112060547">
<ele>2811</ele>
<time>2016-07-28T16:22:34Z</time>
</trkpt>
<trkpt lat="37.04194641113281" lon="-118.7928466796875">
<ele>2812</ele>
<time>2016-07-28T16:22:42Z</time>
</trkpt>
<trkpt lat="37.04193878173828" lon="-118.792724609375">
<ele>2814</ele>
<time>2016-07-28T16:22:51Z</time>
</trkpt>
<trkpt lat="37.041934967041016" lon="-118.79263305664063">
<ele>2816</ele>
<time>2016-07-28T16:22:58Z</time>
</trkpt>
<trkpt lat="37.04197692871094" lon="-118.79252624511719">
<ele>2816</ele>
<time>2016-07-28T16:23:06Z</time>
</trkpt>
<trkpt lat="37.041988372802734" lon="-118.79240417480469">
<ele>2816</ele>
<time>2016-07-28T16:23:15Z</time>
</trkpt>
<trkpt lat="37.04203796386719" lon="-118.79228973388672">
<ele>2816</ele>
<time>2016-07-28T16:23:23Z</time>
</trkpt>
<trkpt lat="37.0421028137207" lon="-118.79217529296875">
<ele>2817</ele>
<time>2016-07-28T16:23:32Z</time>
</trkpt>
<trkpt lat="37.04213333129883" lon="-118.79205322265625">
<ele>2816</ele>
<time>2016-07-28T16:23:40Z</time>
</trkpt>
<trkpt lat="37.042144775390625" lon="-118.79193115234375">
<ele>2818</ele>
<time>2016-07-28T16:23:47Z</time>
</trkpt>
<trkpt lat="37.04218292236328" lon="-118.79183197021484">
<ele>2818</ele>
<time>2016-07-28T16:23:53Z</time>
</trkpt>
<trkpt lat="37.04218292236328" lon="-118.79170227050781">
<ele>2816</ele>
<time>2016-07-28T16:24:01Z</time>
</trkpt>
<trkpt lat="37.042179107666016" lon="-118.79158020019531">
<ele>2817</ele>
<time>2016-07-28T16:24:10Z</time>
</trkpt>
<trkpt lat="37.04214096069336" lon="-118.79147338867188">
<ele>2819</ele>
<time>2016-07-28T16:24:19Z</time>
</trkpt>
<trkpt lat="37.04206466674805" lon="-118.7914047241211">
<ele>2817</ele>
<time>2016-07-28T16:24:31Z</time>
</trkpt>
<trkpt lat="37.042049407958984" lon="-118.7912826538086">
<ele>2817</ele>
<time>2016-07-28T16:24:41Z</time>
</trkpt>
<trkpt lat="37.042076110839844" lon="-118.79116821289063">
<ele>2819</ele>
<time>2016-07-28T16:24:53Z</time>
</trkpt>
<trkpt lat="37.04207992553711" lon="-118.79110717773438">
<ele>2820</ele>
<time>2016-07-28T16:25:00Z</time>
</trkpt>
<trkpt lat="37.04207992553711" lon="-118.79104614257813">
<ele>2823</ele>
<time>2016-07-28T16:25:08Z</time>
</trkpt>
<trkpt lat="37.042110443115234" lon="-118.79093170166016">
<ele>2822</ele>
<time>2016-07-28T16:25:17Z</time>
</trkpt>
<trkpt lat="37.04212188720703" lon="-118.7908706665039">
<ele>2823</ele>
<time>2016-07-28T16:25:23Z</time>
</trkpt>
<trkpt lat="37.04212951660156" lon="-118.7907485961914">
<ele>2821</ele>
<time>2016-07-28T16:25:34Z</time>
</trkpt>
<trkpt lat="37.04217529296875" lon="-118.7906494140625">
<ele>2824</ele>
<time>2016-07-28T16:25:45Z</time>
</trkpt>
<trkpt lat="37.04220962524414" lon="-118.7905502319336">
<ele>2829</ele>
<time>2016-07-28T16:25:53Z</time>
</trkpt>
<trkpt lat="37.042232513427734" lon="-118.79049682617188">
<ele>2834</ele>
<time>2016-07-28T16:25:59Z</time>
</trkpt>
<trkpt lat="37.042293548583984" lon="-118.7904052734375">
<ele>2825</ele>
<time>2016-07-28T16:26:08Z</time>
</trkpt>
<trkpt lat="37.04232406616211" lon="-118.79029846191406">
<ele>2825</ele>
<time>2016-07-28T16:26:16Z</time>
</trkpt>
<trkpt lat="37.042362213134766" lon="-118.79017639160156">
<ele>2826</ele>
<time>2016-07-28T16:26:25Z</time>
</trkpt>
<trkpt lat="37.042423248291016" lon="-118.79009246826172">
<ele>2827</ele>
<time>2016-07-28T16:26:35Z</time>
</trkpt>
<trkpt lat="37.04251480102539" lon="-118.79003143310547">
<ele>2830</ele>
<time>2016-07-28T16:26:42Z</time>
</trkpt>
<trkpt lat="37.042572021484375" lon="-118.78992462158203">
<ele>2838</ele>
<time>2016-07-28T16:26:49Z</time>
</trkpt>
<trkpt lat="37.04267883300781" lon="-118.78987884521484">
<ele>2837</ele>
<time>2016-07-28T16:26:57Z</time>
</trkpt>
<trkpt lat="37.042762756347656" lon="-118.78982543945313">
<ele>2835</ele>
<time>2016-07-28T16:27:03Z</time>
</trkpt>
<trkpt lat="37.042842864990234" lon="-118.78976440429688">
<ele>2834</ele>
<time>2016-07-28T16:27:11Z</time>
</trkpt>
<trkpt lat="37.04293441772461" lon="-118.78970336914063">
<ele>2834</ele>
<time>2016-07-28T16:27:18Z</time>
</trkpt>
<trkpt lat="37.0429801940918" lon="-118.78960418701172">
<ele>2833</ele>
<time>2016-07-28T16:27:26Z</time>
</trkpt>
<trkpt lat="37.04306411743164" lon="-118.78951263427734">
<ele>2830</ele>
<time>2016-07-28T16:27:34Z</time>
</trkpt>
<trkpt lat="37.043121337890625" lon="-118.78942108154297">
<ele>2831</ele>
<time>2016-07-28T16:27:42Z</time>
</trkpt>
<trkpt lat="37.04316711425781" lon="-118.78931427001953">
<ele>2833</ele>
<time>2016-07-28T16:27:52Z</time>
</trkpt>
<trkpt lat="37.04326629638672" lon="-118.78926849365234">
<ele>2830</ele>
<time>2016-07-28T16:28:01Z</time>
</trkpt>
<trkpt lat="37.04335021972656" lon="-118.78919982910156">
<ele>2826</ele>
<time>2016-07-28T16:28:08Z</time>
</trkpt>
<trkpt lat="37.043392181396484" lon="-118.7891616821289">
<ele>2832</ele>
<time>2016-07-28T16:28:15Z</time>
</trkpt>
<trkpt lat="37.04341506958008" lon="-118.78910827636719">
<ele>2835</ele>
<time>2016-07-28T16:28:27Z</time>
</trkpt>
<trkpt lat="37.04344177246094" lon="-118.7890625">
<ele>2839</ele>
<time>2016-07-28T16:28:36Z</time>
</trkpt>
<trkpt lat="37.04351043701172" lon="-118.78897857666016">
<ele>2840</ele>
<time>2016-07-28T16:28:45Z</time>
</trkpt>
<trkpt lat="37.04359436035156" lon="-118.78892517089844">
<ele>2840</ele>
<time>2016-07-28T16:28:52Z</time>
</trkpt>
<trkpt lat="37.04368209838867" lon="-118.7888412475586">
<ele>2838</ele>
<time>2016-07-28T16:29:01Z</time>
</trkpt>
<trkpt lat="37.04371643066406" lon="-118.7887191772461">
<ele>2839</ele>
<time>2016-07-28T16:29:11Z</time>
</trkpt>
<trkpt lat="37.04373550415039" lon="-118.78858947753906">
<ele>2838</ele>
<time>2016-07-28T16:29:20Z</time>
</trkpt>
<trkpt lat="37.043739318847656" lon="-118.78846740722656">
<ele>2841</ele>
<time>2016-07-28T16:29:29Z</time>
</trkpt>
<trkpt lat="37.04372787475586" lon="-118.7883529663086">
<ele>2840</ele>
<time>2016-07-28T16:29:41Z</time>
</trkpt>
<trkpt lat="37.04375076293945" lon="-118.78829193115234">
<ele>2842</ele>
<time>2016-07-28T16:29:48Z</time>
</trkpt>
<trkpt lat="37.043731689453125" lon="-118.78816223144531">
<ele>2842</ele>
<time>2016-07-28T16:29:58Z</time>
</trkpt>
<trkpt lat="37.04372787475586" lon="-118.78803253173828">
<ele>2843</ele>
<time>2016-07-28T16:30:07Z</time>
</trkpt>
<trkpt lat="37.04377746582031" lon="-118.78793334960938">
<ele>2845</ele>
<time>2016-07-28T16:30:15Z</time>
</trkpt>
<trkpt lat="37.04386901855469" lon="-118.78784942626953">
<ele>2848</ele>
<time>2016-07-28T16:30:24Z</time>
</trkpt>
<trkpt lat="37.04397201538086" lon="-118.78778839111328">
<ele>2850</ele>
<time>2016-07-28T16:30:32Z</time>
</trkpt>
<trkpt lat="37.04405212402344" lon="-118.78773498535156">
<ele>2850</ele>
<time>2016-07-28T16:30:40Z</time>
</trkpt>
<trkpt lat="37.04399108886719" lon="-118.7876205444336">
<ele>2844</ele>
<time>2016-07-28T16:30:50Z</time>
</trkpt>
<trkpt lat="37.04396438598633" lon="-118.78751373291016">
<ele>2843</ele>
<time>2016-07-28T16:30:57Z</time>
</trkpt>
<trkpt lat="37.043968200683594" lon="-118.78738403320313">
<ele>2846</ele>
<time>2016-07-28T16:31:06Z</time>
</trkpt>
<trkpt lat="37.044029235839844" lon="-118.78726959228516">
<ele>2852</ele>
<time>2016-07-28T16:31:14Z</time>
</trkpt>
<trkpt lat="37.044071197509766" lon="-118.78714752197266">
<ele>2853</ele>
<time>2016-07-28T16:31:22Z</time>
</trkpt>
<trkpt lat="37.044105529785156" lon="-118.78701782226563">
<ele>2853</ele>
<time>2016-07-28T16:31:30Z</time>
</trkpt>
<trkpt lat="37.04414749145508" lon="-118.78690338134766">
<ele>2854</ele>
<time>2016-07-28T16:31:38Z</time>
</trkpt>
<trkpt lat="37.04417419433594" lon="-118.78678131103516">
<ele>2857</ele>
<time>2016-07-28T16:31:47Z</time>
</trkpt>
<trkpt lat="37.044219970703125" lon="-118.78672790527344">
<ele>2858</ele>
<time>2016-07-28T16:31:53Z</time>
</trkpt>
<trkpt lat="37.044227600097656" lon="-118.78665924072266">
<ele>2858</ele>
<time>2016-07-28T16:31:59Z</time>
</trkpt>
<trkpt lat="37.04420471191406" lon="-118.7865219116211">
<ele>2856</ele>
<time>2016-07-28T16:32:09Z</time>
</trkpt>
<trkpt lat="37.044246673583984" lon="-118.78639221191406">
<ele>2857</ele>
<time>2016-07-28T16:32:17Z</time>
</trkpt>
<trkpt lat="37.04431915283203" lon="-118.78629302978516">
<ele>2854</ele>
<time>2016-07-28T16:32:26Z</time>
</trkpt>
<trkpt lat="37.044395446777344" lon="-118.78620910644531">
<ele>2854</ele>
<time>2016-07-28T16:32:34Z</time>
</trkpt>
<trkpt lat="37.04444885253906" lon="-118.7861099243164">
<ele>2856</ele>
<time>2016-07-28T16:32:42Z</time>
</trkpt>
<trkpt lat="37.04448318481445" lon="-118.78605651855469">
<ele>2854</ele>
<time>2016-07-28T16:32:48Z</time>
</trkpt>
<trkpt lat="37.0445442199707" lon="-118.78596496582031">
<ele>2857</ele>
<time>2016-07-28T16:32:57Z</time>
</trkpt>
<trkpt lat="37.04457092285156" lon="-118.78585052490234">
<ele>2860</ele>
<time>2016-07-28T16:33:05Z</time>
</trkpt>
<trkpt lat="37.044586181640625" lon="-118.7857894897461">
<ele>2856</ele>
<time>2016-07-28T16:33:18Z</time>
</trkpt>
<trkpt lat="37.04457092285156" lon="-118.78565979003906">
<ele>2856</ele>
<time>2016-07-28T16:33:26Z</time>
</trkpt>
<trkpt lat="37.044593811035156" lon="-118.78553009033203">
<ele>2858</ele>
<time>2016-07-28T16:33:34Z</time>
</trkpt>
<trkpt lat="37.044586181640625" lon="-118.78540802001953">
<ele>2852</ele>
<time>2016-07-28T16:33:44Z</time>
</trkpt>
<trkpt lat="37.04454803466797" lon="-118.7853012084961">
<ele>2849</ele>
<time>2016-07-28T16:33:53Z</time>
</trkpt>
<trkpt lat="37.04451370239258" lon="-118.78526306152344">
<ele>2849</ele>
<time>2016-07-28T16:33:59Z</time>
</trkpt>
<trkpt lat="37.044532775878906" lon="-118.78514862060547">
<ele>2851</ele>
<time>2016-07-28T16:34:08Z</time>
</trkpt>
<trkpt lat="37.04458236694336" lon="-118.7850570678711">
<ele>2852</ele>
<time>2016-07-28T16:34:16Z</time>
</trkpt>
<trkpt lat="37.044647216796875" lon="-118.78495788574219">
<ele>2853</ele>
<time>2016-07-28T16:34:23Z</time>
</trkpt>
<trkpt lat="37.044734954833984" lon="-118.784912109375">
<ele>2853</ele>
<time>2016-07-28T16:34:30Z</time>
</trkpt>
<trkpt lat="37.044830322265625" lon="-118.78486633300781">
<ele>2856</ele>
<time>2016-07-28T16:34:39Z</time>
</trkpt>
<trkpt lat="37.044883728027344" lon="-118.78475189208984">
<ele>2852</ele>
<time>2016-07-28T16:34:49Z</time>
</trkpt>
<trkpt lat="37.044883728027344" lon="-118.78465270996094">
<ele>2854</ele>
<time>2016-07-28T16:35:20Z</time>
</trkpt>
<trkpt lat="37.044918060302734" lon="-118.78456115722656">
<ele>2854</ele>
<time>2016-07-28T16:35:27Z</time>
</trkpt>
<trkpt lat="37.04501724243164" lon="-118.7845230102539">
<ele>2857</ele>
<time>2016-07-28T16:35:33Z</time>
</trkpt>
<trkpt lat="37.04508590698242" lon="-118.78443908691406">
<ele>2856</ele>
<time>2016-07-28T16:35:41Z</time>
</trkpt>
<trkpt lat="37.04511642456055" lon="-118.7843246459961">
<ele>2854</ele>
<time>2016-07-28T16:35:52Z</time>
</trkpt>
<trkpt lat="37.045135498046875" lon="-118.78424835205078">
<ele>2857</ele>
<time>2016-07-28T16:35:58Z</time>
</trkpt>
<trkpt lat="37.04514694213867" lon="-118.7841796875">
<ele>2856</ele>
<time>2016-07-28T16:36:04Z</time>
</trkpt>
<trkpt lat="37.04514694213867" lon="-118.78411865234375">
<ele>2855</ele>
<time>2016-07-28T16:36:10Z</time>
</trkpt>
<trkpt lat="37.04515838623047" lon="-118.78399658203125">
<ele>2857</ele>
<time>2016-07-28T16:36:19Z</time>
</trkpt>
<trkpt lat="37.04518127441406" lon="-118.78387451171875">
<ele>2860</ele>
<time>2016-07-28T16:36:27Z</time>
</trkpt>
<trkpt lat="37.04521179199219" lon="-118.78376770019531">
<ele>2859</ele>
<time>2016-07-28T16:36:35Z</time>
</trkpt>
<trkpt lat="37.04593276977539" lon="-118.7810287475586">
<ele>2868</ele>
<time>2016-07-28T16:40:13Z</time>
</trkpt>
<trkpt lat="37.04590606689453" lon="-118.78097534179688">
<ele>2870</ele>
<time>2016-07-28T16:40:23Z</time>
</trkpt>
</trkseg>
</trk>
<trk>
<name><![CDATA[07280944]]></name>
<number>5</number>
<extensions><topografix:color>ff000066</topografix:color></extensions>
<trkseg>
<trkpt lat="37.04690933227539" lon="-118.7794189453125">
<ele>2885</ele>
<time>2016-07-28T16:44:42Z</time>
</trkpt>
<trkpt lat="37.04685974121094" lon="-118.7793960571289">
<ele>2881</ele>
<time>2016-07-28T16:45:06Z</time>
</trkpt>
<trkpt lat="37.04680252075195" lon="-118.779296875">
<ele>2881</ele>
<time>2016-07-28T16:45:16Z</time>
</trkpt>
<trkpt lat="37.046756744384766" lon="-118.77918243408203">
<ele>2878</ele>
<time>2016-07-28T16:45:25Z</time>
</trkpt>
<trkpt lat="37.04678726196289" lon="-118.779052734375">
<ele>2886</ele>
<time>2016-07-28T16:45:34Z</time>
</trkpt>
<trkpt lat="37.046783447265625" lon="-118.77892303466797">
<ele>2886</ele>
<time>2016-07-28T16:45:42Z</time>
</trkpt>
<trkpt lat="37.04684829711914" lon="-118.77882385253906">
<ele>2884</ele>
<time>2016-07-28T16:45:51Z</time>
</trkpt>
<trkpt lat="37.04689407348633" lon="-118.77872467041016">
<ele>2886</ele>
<time>2016-07-28T16:46:00Z</time>
</trkpt>
<trkpt lat="37.04692840576172" lon="-118.7785873413086">
<ele>2882</ele>
<time>2016-07-28T16:46:08Z</time>
</trkpt>
<trkpt lat="37.04697799682617" lon="-118.77847290039063">
<ele>2885</ele>
<time>2016-07-28T16:46:15Z</time>
</trkpt>
<trkpt lat="37.04701614379883" lon="-118.7783432006836">
<ele>2887</ele>
<time>2016-07-28T16:46:22Z</time>
</trkpt>
<trkpt lat="37.047080993652344" lon="-118.77825164794922">
<ele>2889</ele>
<time>2016-07-28T16:46:30Z</time>
</trkpt>
<trkpt lat="37.047061920166016" lon="-118.7781982421875">
<ele>2893</ele>
<time>2016-07-28T16:47:17Z</time>
</trkpt>
<trkpt lat="37.04705047607422" lon="-118.77814483642578">
<ele>2899</ele>
<time>2016-07-28T16:47:32Z</time>
</trkpt>
<trkpt lat="37.04701614379883" lon="-118.77818298339844">
<ele>2898</ele>
<time>2016-07-28T16:48:06Z</time>
</trkpt>
<trkpt lat="37.0469970703125" lon="-118.77812957763672">
<ele>2896</ele>
<time>2016-07-28T16:49:13Z</time>
</trkpt>
<trkpt lat="37.04704666137695" lon="-118.77810668945313">
<ele>2894</ele>
<time>2016-07-28T16:50:36Z</time>
</trkpt>
<trkpt lat="37.04706954956055" lon="-118.77806091308594">
<ele>2891</ele>
<time>2016-07-28T16:50:53Z</time>
</trkpt>
<trkpt lat="37.04717254638672" lon="-118.77802276611328">
<ele>2894</ele>
<time>2016-07-28T16:51:02Z</time>
</trkpt>
<trkpt lat="37.047218322753906" lon="-118.77791595458984">
<ele>2894</ele>
<time>2016-07-28T16:51:09Z</time>
</trkpt>
<trkpt lat="37.04725646972656" lon="-118.7778091430664">
<ele>2890</ele>
<time>2016-07-28T16:51:17Z</time>
</trkpt>
<trkpt lat="37.04731750488281" lon="-118.77772521972656">
<ele>2889</ele>
<time>2016-07-28T16:51:27Z</time>
</trkpt>
<trkpt lat="37.047359466552734" lon="-118.77767944335938">
<ele>2887</ele>
<time>2016-07-28T16:51:36Z</time>
</trkpt>
<trkpt lat="37.04740524291992" lon="-118.77759552001953">
<ele>2883</ele>
<time>2016-07-28T16:51:42Z</time>
</trkpt>
<trkpt lat="37.04750061035156" lon="-118.77760314941406">
<ele>2882</ele>
<time>2016-07-28T16:51:48Z</time>
</trkpt>
<trkpt lat="37.047454833984375" lon="-118.77762603759766">
<ele>2886</ele>
<time>2016-07-28T16:52:08Z</time>
</trkpt>
<trkpt lat="37.0474967956543" lon="-118.77764892578125">
<ele>2886</ele>
<time>2016-07-28T16:52:14Z</time>
</trkpt>
<trkpt lat="37.04759216308594" lon="-118.77761840820313">
<ele>2890</ele>
<time>2016-07-28T16:52:23Z</time>
</trkpt>
<trkpt lat="37.047698974609375" lon="-118.77761840820313">
<ele>2888</ele>
<time>2016-07-28T16:52:30Z</time>
</trkpt>
<trkpt lat="37.047794342041016" lon="-118.77758026123047">
<ele>2890</ele>
<time>2016-07-28T16:52:39Z</time>
</trkpt>
<trkpt lat="37.0478515625" lon="-118.7774887084961">
<ele>2885</ele>
<time>2016-07-28T16:52:48Z</time>
</trkpt>
<trkpt lat="37.04794692993164" lon="-118.77749633789063">
<ele>2889</ele>
<time>2016-07-28T16:52:58Z</time>
</trkpt>
<trkpt lat="37.04800033569336" lon="-118.77738189697266">
<ele>2892</ele>
<time>2016-07-28T16:53:09Z</time>
</trkpt>
<trkpt lat="37.04803466796875" lon="-118.77725982666016">
<ele>2883</ele>
<time>2016-07-28T16:53:17Z</time>
</trkpt>
<trkpt lat="37.04804229736328" lon="-118.77713012695313">
<ele>2879</ele>
<time>2016-07-28T16:53:26Z</time>
</trkpt>
<trkpt lat="37.04804229736328" lon="-118.77698516845703">
<ele>2879</ele>
<time>2016-07-28T16:53:34Z</time>
</trkpt>
<trkpt lat="37.04808807373047" lon="-118.77685546875">
<ele>2886</ele>
<time>2016-07-28T16:53:41Z</time>
</trkpt>
<trkpt lat="37.048118591308594" lon="-118.77677917480469">
<ele>2887</ele>
<time>2016-07-28T16:53:47Z</time>
</trkpt>
<trkpt lat="37.04816818237305" lon="-118.77664947509766">
<ele>2888</ele>
<time>2016-07-28T16:53:55Z</time>
</trkpt>
<trkpt lat="37.04820251464844" lon="-118.77651977539063">
<ele>2888</ele>
<time>2016-07-28T16:54:03Z</time>
</trkpt>
<trkpt lat="37.0482177734375" lon="-118.77645874023438">
<ele>2888</ele>
<time>2016-07-28T16:54:09Z</time>
</trkpt>
<trkpt lat="37.048194885253906" lon="-118.77639770507813">
<ele>2890</ele>
<time>2016-07-28T16:54:15Z</time>
</trkpt>
<trkpt lat="37.04812240600586" lon="-118.77632904052734">
<ele>2892</ele>
<time>2016-07-28T16:54:27Z</time>
</trkpt>
<trkpt lat="37.0480842590332" lon="-118.77629852294922">
<ele>2893</ele>
<time>2016-07-28T16:54:34Z</time>
</trkpt>
<trkpt lat="37.0481071472168" lon="-118.77619171142578">
<ele>2897</ele>
<time>2016-07-28T16:54:46Z</time>
</trkpt>
<trkpt lat="37.04814147949219" lon="-118.7761459350586">
<ele>2898</ele>
<time>2016-07-28T16:54:52Z</time>
</trkpt>
<trkpt lat="37.04816436767578" lon="-118.77607727050781">
<ele>2899</ele>
<time>2016-07-28T16:55:00Z</time>
</trkpt>
<trkpt lat="37.04816818237305" lon="-118.7760238647461">
<ele>2900</ele>
<time>2016-07-28T16:55:07Z</time>
</trkpt>
<trkpt lat="37.0482063293457" lon="-118.77598571777344">
<ele>2899</ele>
<time>2016-07-28T16:55:13Z</time>
</trkpt>
<trkpt lat="37.04826736450195" lon="-118.7759017944336">
<ele>2904</ele>
<time>2016-07-28T16:55:26Z</time>
</trkpt>
<trkpt lat="37.048301696777344" lon="-118.77584838867188">
<ele>2906</ele>
<time>2016-07-28T16:55:36Z</time>
</trkpt>
<trkpt lat="37.048336029052734" lon="-118.77579498291016">
<ele>2905</ele>
<time>2016-07-28T16:55:42Z</time>
</trkpt>
<trkpt lat="37.04841232299805" lon="-118.77571105957031">
<ele>2908</ele>
<time>2016-07-28T16:55:51Z</time>
</trkpt>
<trkpt lat="37.04850387573242" lon="-118.77562713623047">
<ele>2911</ele>
<time>2016-07-28T16:55:58Z</time>
</trkpt>
<trkpt lat="37.04859161376953" lon="-118.77555084228516">
<ele>2909</ele>
<time>2016-07-28T16:56:04Z</time>
</trkpt>
<trkpt lat="37.048606872558594" lon="-118.77543640136719">
<ele>2906</ele>
<time>2016-07-28T16:56:14Z</time>
</trkpt>
<trkpt lat="37.04866409301758" lon="-118.77531433105469">
<ele>2905</ele>
<time>2016-07-28T16:56:23Z</time>
</trkpt>
<trkpt lat="37.04868698120117" lon="-118.77518463134766">
<ele>2903</ele>
<time>2016-07-28T16:56:31Z</time>
</trkpt>
<trkpt lat="37.04875183105469" lon="-118.77508544921875">
<ele>2904</ele>
<time>2016-07-28T16:56:39Z</time>
</trkpt>
<trkpt lat="37.04876708984375" lon="-118.77497863769531">
<ele>2902</ele>
<time>2016-07-28T16:56:49Z</time>
</trkpt>
<trkpt lat="37.048831939697266" lon="-118.77489471435547">
<ele>2904</ele>
<time>2016-07-28T16:56:56Z</time>
</trkpt>
<trkpt lat="37.048805236816406" lon="-118.77483367919922">
<ele>2905</ele>
<time>2016-07-28T16:57:04Z</time>
</trkpt>
<trkpt lat="37.04879379272461" lon="-118.77477264404297">
<ele>2908</ele>
<time>2016-07-28T16:57:11Z</time>
</trkpt>
<trkpt lat="37.04885482788086" lon="-118.77467346191406">
<ele>2909</ele>
<time>2016-07-28T16:57:19Z</time>
</trkpt>
<trkpt lat="37.04892349243164" lon="-118.77457427978516">
<ele>2909</ele>
<time>2016-07-28T16:57:27Z</time>
</trkpt>
<trkpt lat="37.0489501953125" lon="-118.77447509765625">
<ele>2908</ele>
<time>2016-07-28T16:57:36Z</time>
</trkpt>
<trkpt lat="37.04894256591797" lon="-118.7744140625">
<ele>2908</ele>
<time>2016-07-28T16:57:42Z</time>
</trkpt>
<trkpt lat="37.0489387512207" lon="-118.77429962158203">
<ele>2911</ele>
<time>2016-07-28T16:57:53Z</time>
</trkpt>
<trkpt lat="37.0489501953125" lon="-118.77423095703125">
<ele>2913</ele>
<time>2016-07-28T16:58:00Z</time>
</trkpt>
<trkpt lat="37.048973083496094" lon="-118.774169921875">
<ele>2912</ele>
<time>2016-07-28T16:58:06Z</time>
</trkpt>
<trkpt lat="37.04900360107422" lon="-118.77411651611328">
<ele>2912</ele>
<time>2016-07-28T16:58:13Z</time>
</trkpt>
<trkpt lat="37.04902267456055" lon="-118.77400970458984">
<ele>2910</ele>
<time>2016-07-28T16:58:20Z</time>
</trkpt>
<trkpt lat="37.04905319213867" lon="-118.77388763427734">
<ele>2910</ele>
<time>2016-07-28T16:58:27Z</time>
</trkpt>
<trkpt lat="37.04907989501953" lon="-118.77378845214844">
<ele>2910</ele>
<time>2016-07-28T16:58:33Z</time>
</trkpt>
<trkpt lat="37.04914093017578" lon="-118.77369689941406">
<ele>2913</ele>
<time>2016-07-28T16:58:39Z</time>
</trkpt>
<trkpt lat="37.049171447753906" lon="-118.77356719970703">
<ele>2913</ele>
<time>2016-07-28T16:58:46Z</time>
</trkpt>
<trkpt lat="37.0492057800293" lon="-118.77345275878906">
<ele>2915</ele>
<time>2016-07-28T16:58:55Z</time>
</trkpt>
<trkpt lat="37.04924011230469" lon="-118.7733154296875">
<ele>2914</ele>
<time>2016-07-28T16:59:03Z</time>
</trkpt>
<trkpt lat="37.04927062988281" lon="-118.77320098876953">
<ele>2917</ele>
<time>2016-07-28T16:59:10Z</time>
</trkpt>
<trkpt lat="37.0493278503418" lon="-118.77307891845703">
<ele>2919</ele>
<time>2016-07-28T16:59:17Z</time>
</trkpt>
<trkpt lat="37.04941940307617" lon="-118.77302551269531">
<ele>2920</ele>
<time>2016-07-28T16:59:23Z</time>
</trkpt>
<trkpt lat="37.04951858520508" lon="-118.77295684814453">
<ele>2924</ele>
<time>2016-07-28T16:59:30Z</time>
</trkpt>
<trkpt lat="37.04960250854492" lon="-118.77288055419922">
<ele>2922</ele>
<time>2016-07-28T16:59:37Z</time>
</trkpt>
<trkpt lat="37.0496940612793" lon="-118.77277374267578">
<ele>2922</ele>
<time>2016-07-28T16:59:46Z</time>
</trkpt>
<trkpt lat="37.049766540527344" lon="-118.77267456054688">
<ele>2923</ele>
<time>2016-07-28T16:59:54Z</time>
</trkpt>
<trkpt lat="37.04975891113281" lon="-118.77261352539063">
<ele>2920</ele>
<time>2016-07-28T17:00:00Z</time>
</trkpt>
<trkpt lat="37.04977798461914" lon="-118.7724838256836">
<ele>2920</ele>
<time>2016-07-28T17:00:19Z</time>
</trkpt>
<trkpt lat="37.0498046875" lon="-118.7724380493164">
<ele>2929</ele>
<time>2016-07-28T17:00:39Z</time>
</trkpt>
<trkpt lat="37.04987335205078" lon="-118.77239227294922">
<ele>2930</ele>
<time>2016-07-28T17:00:57Z</time>
</trkpt>
<trkpt lat="37.04984664916992" lon="-118.77229309082031">
<ele>2928</ele>
<time>2016-07-28T17:01:05Z</time>
</trkpt>
<trkpt lat="37.04985427856445" lon="-118.77218627929688">
<ele>2929</ele>
<time>2016-07-28T17:01:21Z</time>
</trkpt>
<trkpt lat="37.04988098144531" lon="-118.77213287353516">
<ele>2928</ele>
<time>2016-07-28T17:01:27Z</time>
</trkpt>
<trkpt lat="37.04991912841797" lon="-118.77207946777344">
<ele>2931</ele>
<time>2016-07-28T17:01:35Z</time>
</trkpt>
<trkpt lat="37.049949645996094" lon="-118.77200317382813">
<ele>2929</ele>
<time>2016-07-28T17:01:42Z</time>
</trkpt>
<trkpt lat="37.049957275390625" lon="-118.77188110351563">
<ele>2928</ele>
<time>2016-07-28T17:01:54Z</time>
</trkpt>
<trkpt lat="37.04995346069336" lon="-118.77182006835938">
<ele>2927</ele>
<time>2016-07-28T17:02:01Z</time>
</trkpt>
<trkpt lat="37.04998016357422" lon="-118.77169799804688">
<ele>2928</ele>
<time>2016-07-28T17:02:09Z</time>
</trkpt>
<trkpt lat="37.05001449584961" lon="-118.7715835571289">
<ele>2929</ele>
<time>2016-07-28T17:02:16Z</time>
</trkpt>
<trkpt lat="37.04997253417969" lon="-118.77147674560547">
<ele>2925</ele>
<time>2016-07-28T17:02:25Z</time>
</trkpt>
<trkpt lat="37.04994583129883" lon="-118.77143096923828">
<ele>2920</ele>
<time>2016-07-28T17:02:32Z</time>
</trkpt>
<trkpt lat="37.049930572509766" lon="-118.77130126953125">
<ele>2917</ele>
<time>2016-07-28T17:02:42Z</time>
</trkpt>
<trkpt lat="37.04991149902344" lon="-118.771240234375">
<ele>2919</ele>
<time>2016-07-28T17:02:49Z</time>
</trkpt>
<trkpt lat="37.049903869628906" lon="-118.77111053466797">
<ele>2927</ele>
<time>2016-07-28T17:02:58Z</time>
</trkpt>
<trkpt lat="37.04990005493164" lon="-118.77104949951172">
<ele>2932</ele>
<time>2016-07-28T17:03:08Z</time>
</trkpt>
<trkpt lat="37.04997253417969" lon="-118.77096557617188">
<ele>2936</ele>
<time>2016-07-28T17:03:16Z</time>
</trkpt>
<trkpt lat="37.05002975463867" lon="-118.77088165283203">
<ele>2934</ele>
<time>2016-07-28T17:03:26Z</time>
</trkpt>
<trkpt lat="37.05003356933594" lon="-118.77082061767578">
<ele>2933</ele>
<time>2016-07-28T17:03:32Z</time>
</trkpt>
<trkpt lat="37.05002975463867" lon="-118.7707290649414">
<ele>2941</ele>
<time>2016-07-28T17:03:52Z</time>
</trkpt>
<trkpt lat="37.050071716308594" lon="-118.77068328857422">
<ele>2947</ele>
<time>2016-07-28T17:03:59Z</time>
</trkpt>
<trkpt lat="37.050132751464844" lon="-118.77061462402344">
<ele>2943</ele>
<time>2016-07-28T17:04:17Z</time>
</trkpt>
<trkpt lat="37.05009460449219" lon="-118.77056884765625">
<ele>2940</ele>
<time>2016-07-28T17:04:26Z</time>
</trkpt>
<trkpt lat="37.05006408691406" lon="-118.77052307128906">
<ele>2936</ele>
<time>2016-07-28T17:04:33Z</time>
</trkpt>
<trkpt lat="37.05002212524414" lon="-118.77049255371094">
<ele>2937</ele>
<time>2016-07-28T17:04:40Z</time>
</trkpt>
<trkpt lat="37.04998016357422" lon="-118.77042388916016">
<ele>2944</ele>
<time>2016-07-28T17:04:46Z</time>
</trkpt>
<trkpt lat="37.04994201660156" lon="-118.7703857421875">
<ele>2946</ele>
<time>2016-07-28T17:04:52Z</time>
</trkpt>
<trkpt lat="37.04994201660156" lon="-118.77033233642578">
<ele>2945</ele>
<time>2016-07-28T17:04:59Z</time>
</trkpt>
<trkpt lat="37.0499267578125" lon="-118.77027130126953">
<ele>2945</ele>
<time>2016-07-28T17:05:10Z</time>
</trkpt>
<trkpt lat="37.049949645996094" lon="-118.77021789550781">
<ele>2947</ele>
<time>2016-07-28T17:05:17Z</time>
</trkpt>
<trkpt lat="37.0500373840332" lon="-118.77015686035156">
<ele>2953</ele>
<time>2016-07-28T17:05:25Z</time>
</trkpt>
<trkpt lat="37.050079345703125" lon="-118.77005767822266">
<ele>2956</ele>
<time>2016-07-28T17:05:34Z</time>
</trkpt>
<trkpt lat="37.050113677978516" lon="-118.77001190185547">
<ele>2955</ele>
<time>2016-07-28T17:05:40Z</time>
</trkpt>
<trkpt lat="37.05010986328125" lon="-118.76994323730469">
<ele>2953</ele>
<time>2016-07-28T17:05:47Z</time>
</trkpt>
<trkpt lat="37.05013656616211" lon="-118.76983642578125">
<ele>2957</ele>
<time>2016-07-28T17:05:55Z</time>
</trkpt>
<trkpt lat="37.05018997192383" lon="-118.76972198486328">
<ele>2957</ele>
<time>2016-07-28T17:06:05Z</time>
</trkpt>
<trkpt lat="37.05015563964844" lon="-118.7696762084961">
<ele>2956</ele>
<time>2016-07-28T17:06:12Z</time>
</trkpt>
<trkpt lat="37.05011749267578" lon="-118.76964569091797">
<ele>2957</ele>
<time>2016-07-28T17:06:26Z</time>
</trkpt>
<trkpt lat="37.050025939941406" lon="-118.76962280273438">
<ele>2960</ele>
<time>2016-07-28T17:06:37Z</time>
</trkpt>
<trkpt lat="37.049991607666016" lon="-118.76956176757813">
<ele>2958</ele>
<time>2016-07-28T17:06:48Z</time>
</trkpt>
<trkpt lat="37.049991607666016" lon="-118.76950073242188">
<ele>2959</ele>
<time>2016-07-28T17:06:58Z</time>
</trkpt>
<trkpt lat="37.050018310546875" lon="-118.76945495605469">
<ele>2961</ele>
<time>2016-07-28T17:07:06Z</time>
</trkpt>
<trkpt lat="37.05009460449219" lon="-118.76935577392578">
<ele>2969</ele>
<time>2016-07-28T17:07:16Z</time>
</trkpt>
<trkpt lat="37.050140380859375" lon="-118.7692642211914">
<ele>2970</ele>
<time>2016-07-28T17:07:28Z</time>
</trkpt>
<trkpt lat="37.050106048583984" lon="-118.76921844482422">
<ele>2967</ele>
<time>2016-07-28T17:07:37Z</time>
</trkpt>
<trkpt lat="37.050045013427734" lon="-118.76913452148438">
<ele>2964</ele>
<time>2016-07-28T17:07:52Z</time>
</trkpt>
<trkpt lat="37.0500373840332" lon="-118.76907348632813">
<ele>2965</ele>
<time>2016-07-28T17:07:58Z</time>
</trkpt>
<trkpt lat="37.050052642822266" lon="-118.7690200805664">
<ele>2965</ele>
<time>2016-07-28T17:08:06Z</time>
</trkpt>
<trkpt lat="37.05007553100586" lon="-118.76887512207031">
<ele>2964</ele>
<time>2016-07-28T17:08:15Z</time>
</trkpt>
<trkpt lat="37.050086975097656" lon="-118.76876831054688">
<ele>2965</ele>
<time>2016-07-28T17:08:25Z</time>
</trkpt>
<trkpt lat="37.050106048583984" lon="-118.76871490478516">
<ele>2960</ele>
<time>2016-07-28T17:08:34Z</time>
</trkpt>
<trkpt lat="37.050132751464844" lon="-118.76862335205078">
<ele>2966</ele>
<time>2016-07-28T17:08:42Z</time>
</trkpt>
<trkpt lat="37.050148010253906" lon="-118.76850128173828">
<ele>2968</ele>
<time>2016-07-28T17:08:50Z</time>
</trkpt>
<trkpt lat="37.0501708984375" lon="-118.7684326171875">
<ele>2966</ele>
<time>2016-07-28T17:08:57Z</time>
</trkpt>
<trkpt lat="37.05021667480469" lon="-118.76832580566406">
<ele>2963</ele>
<time>2016-07-28T17:09:10Z</time>
</trkpt>
<trkpt lat="37.05014419555664" lon="-118.76824951171875">
<ele>2967</ele>
<time>2016-07-28T17:09:23Z</time>
</trkpt>
<trkpt lat="37.05006790161133" lon="-118.76817321777344">
<ele>2971</ele>
<time>2016-07-28T17:09:31Z</time>
</trkpt>
<trkpt lat="37.05004119873047" lon="-118.76812744140625">
<ele>2975</ele>
<time>2016-07-28T17:09:37Z</time>
</trkpt>
<trkpt lat="37.04999542236328" lon="-118.76801300048828">
<ele>2975</ele>
<time>2016-07-28T17:09:47Z</time>
</trkpt>
<trkpt lat="37.04999542236328" lon="-118.76795959472656">
<ele>2980</ele>
<time>2016-07-28T17:09:54Z</time>
</trkpt>
<trkpt lat="37.05003356933594" lon="-118.7679214477539">
<ele>2985</ele>
<time>2016-07-28T17:10:00Z</time>
</trkpt>
<trkpt lat="37.05002212524414" lon="-118.76786041259766">
<ele>2985</ele>
<time>2016-07-28T17:10:06Z</time>
</trkpt>
<trkpt lat="37.050010681152344" lon="-118.7677993774414">
<ele>2985</ele>
<time>2016-07-28T17:10:14Z</time>
</trkpt>
<trkpt lat="37.050025939941406" lon="-118.76774597167969">
<ele>2986</ele>
<time>2016-07-28T17:10:20Z</time>
</trkpt>
<trkpt lat="37.05003356933594" lon="-118.76765441894531">
<ele>2988</ele>
<time>2016-07-28T17:10:51Z</time>
</trkpt>
<trkpt lat="37.05012130737305" lon="-118.7676010131836">
<ele>2992</ele>
<time>2016-07-28T17:11:00Z</time>
</trkpt>
<trkpt lat="37.0501594543457" lon="-118.7675552368164">
<ele>2994</ele>
<time>2016-07-28T17:11:06Z</time>
</trkpt>
<trkpt lat="37.05016326904297" lon="-118.76749420166016">
<ele>2995</ele>
<time>2016-07-28T17:11:25Z</time>
</trkpt>
<trkpt lat="37.05022430419922" lon="-118.76741027832031">
<ele>3000</ele>
<time>2016-07-28T17:11:34Z</time>
</trkpt>
<trkpt lat="37.05030822753906" lon="-118.76736450195313">
<ele>2998</ele>
<time>2016-07-28T17:11:42Z</time>
</trkpt>
<trkpt lat="37.05039978027344" lon="-118.76728057861328">
<ele>2999</ele>
<time>2016-07-28T17:11:51Z</time>
</trkpt>
<trkpt lat="37.050418853759766" lon="-118.76715087890625">
<ele>3001</ele>
<time>2016-07-28T17:12:03Z</time>
</trkpt>
<trkpt lat="37.05043411254883" lon="-118.76703643798828">
<ele>3000</ele>
<time>2016-07-28T17:12:13Z</time>
</trkpt>
<trkpt lat="37.05044174194336" lon="-118.76690673828125">
<ele>3000</ele>
<time>2016-07-28T17:12:23Z</time>
</trkpt>
<trkpt lat="37.05038070678711" lon="-118.76681518554688">
<ele>2998</ele>
<time>2016-07-28T17:12:31Z</time>
</trkpt>
<trkpt lat="37.05038833618164" lon="-118.76675415039063">
<ele>2999</ele>
<time>2016-07-28T17:12:37Z</time>
</trkpt>
<trkpt lat="37.050437927246094" lon="-118.76667022705078">
<ele>3004</ele>
<time>2016-07-28T17:12:48Z</time>
</trkpt>
<trkpt lat="37.050437927246094" lon="-118.7666015625">
<ele>3005</ele>
<time>2016-07-28T17:12:54Z</time>
</trkpt>
<trkpt lat="37.05043411254883" lon="-118.76654815673828">
<ele>3002</ele>
<time>2016-07-28T17:13:00Z</time>
</trkpt>
<trkpt lat="37.050437927246094" lon="-118.76648712158203">
<ele>3001</ele>
<time>2016-07-28T17:13:11Z</time>
</trkpt>
<trkpt lat="37.050445556640625" lon="-118.76642608642578">
<ele>3000</ele>
<time>2016-07-28T17:13:18Z</time>
</trkpt>
<trkpt lat="37.05042266845703" lon="-118.76631164550781">
<ele>2996</ele>
<time>2016-07-28T17:13:28Z</time>
</trkpt>
<trkpt lat="37.0504035949707" lon="-118.76619720458984">
<ele>3001</ele>
<time>2016-07-28T17:13:36Z</time>
</trkpt>
<trkpt lat="37.05042266845703" lon="-118.7660903930664">
<ele>3003</ele>
<time>2016-07-28T17:13:42Z</time>
</trkpt>
<trkpt lat="37.050418853759766" lon="-118.76596069335938">
<ele>3003</ele>
<time>2016-07-28T17:13:50Z</time>
</trkpt>
<trkpt lat="37.050418853759766" lon="-118.76589965820313">
<ele>3004</ele>
<time>2016-07-28T17:13:56Z</time>
</trkpt>
<trkpt lat="37.05044174194336" lon="-118.76583862304688">
<ele>3011</ele>
<time>2016-07-28T17:14:02Z</time>
</trkpt>
<trkpt lat="37.05046844482422" lon="-118.7657241821289">
<ele>3009</ele>
<time>2016-07-28T17:14:09Z</time>
</trkpt>
<trkpt lat="37.050445556640625" lon="-118.7656021118164">
<ele>3013</ele>
<time>2016-07-28T17:14:17Z</time>
</trkpt>
<trkpt lat="37.05049514770508" lon="-118.76549530029297">
<ele>3017</ele>
<time>2016-07-28T17:14:23Z</time>
</trkpt>
<trkpt lat="37.0505256652832" lon="-118.76537322998047">
<ele>3020</ele>
<time>2016-07-28T17:14:30Z</time>
</trkpt>
<trkpt lat="37.05054473876953" lon="-118.7652587890625">
<ele>3025</ele>
<time>2016-07-28T17:14:40Z</time>
</trkpt>
<trkpt lat="37.050533294677734" lon="-118.76517486572266">
<ele>3025</ele>
<time>2016-07-28T17:14:47Z</time>
</trkpt>
<trkpt lat="37.050533294677734" lon="-118.76512145996094">
<ele>3022</ele>
<time>2016-07-28T17:14:53Z</time>
</trkpt>
<trkpt lat="37.05048751831055" lon="-118.7649917602539">
<ele>3022</ele>
<time>2016-07-28T17:15:01Z</time>
</trkpt>
<trkpt lat="37.050479888916016" lon="-118.7648696899414">
<ele>3020</ele>
<time>2016-07-28T17:15:12Z</time>
</trkpt>
<trkpt lat="37.050498962402344" lon="-118.76481628417969">
<ele>3020</ele>
<time>2016-07-28T17:15:18Z</time>
</trkpt>
<trkpt lat="37.05045700073242" lon="-118.7647705078125">
<ele>3019</ele>
<time>2016-07-28T17:15:27Z</time>
</trkpt>
<trkpt lat="37.050384521484375" lon="-118.76468658447266">
<ele>3022</ele>
<time>2016-07-28T17:15:38Z</time>
</trkpt>
<trkpt lat="37.050357818603516" lon="-118.76461029052734">
<ele>3023</ele>
<time>2016-07-28T17:15:46Z</time>
</trkpt>
<trkpt lat="37.0502815246582" lon="-118.76453399658203">
<ele>3026</ele>
<time>2016-07-28T17:15:55Z</time>
</trkpt>
<trkpt lat="37.05024719238281" lon="-118.76449584960938">
<ele>3027</ele>
<time>2016-07-28T17:16:03Z</time>
</trkpt>
<trkpt lat="37.05021667480469" lon="-118.76445770263672">
<ele>3027</ele>
<time>2016-07-28T17:16:15Z</time>
</trkpt>
<trkpt lat="37.0501594543457" lon="-118.76445007324219">
<ele>3030</ele>
<time>2016-07-28T17:16:33Z</time>
</trkpt>
<trkpt lat="37.050079345703125" lon="-118.76443481445313">
<ele>3033</ele>
<time>2016-07-28T17:16:42Z</time>
</trkpt>
<trkpt lat="37.049991607666016" lon="-118.7643814086914">
<ele>3036</ele>
<time>2016-07-28T17:16:52Z</time>
</trkpt>
<trkpt lat="37.049964904785156" lon="-118.76432800292969">
<ele>3038</ele>
<time>2016-07-28T17:17:00Z</time>
</trkpt>
<trkpt lat="37.04988479614258" lon="-118.76427459716797">
<ele>3041</ele>
<time>2016-07-28T17:17:11Z</time>
</trkpt>
<trkpt lat="37.049842834472656" lon="-118.76422882080078">
<ele>3040</ele>
<time>2016-07-28T17:17:17Z</time>
</trkpt>
<trkpt lat="37.04981231689453" lon="-118.76412200927734">
<ele>3039</ele>
<time>2016-07-28T17:17:26Z</time>
</trkpt>
<trkpt lat="37.0498046875" lon="-118.76405334472656">
<ele>3043</ele>
<time>2016-07-28T17:17:35Z</time>
</trkpt>
<trkpt lat="37.04978942871094" lon="-118.76399993896484">
<ele>3043</ele>
<time>2016-07-28T17:17:41Z</time>
</trkpt>
<trkpt lat="37.049739837646484" lon="-118.76388549804688">
<ele>3037</ele>
<time>2016-07-28T17:17:51Z</time>
</trkpt>
<trkpt lat="37.04972457885742" lon="-118.76382446289063">
<ele>3036</ele>
<time>2016-07-28T17:17:57Z</time>
</trkpt>
<trkpt lat="37.049705505371094" lon="-118.76376342773438">
<ele>3036</ele>
<time>2016-07-28T17:18:03Z</time>
</trkpt>
<trkpt lat="37.04969787597656" lon="-118.7636947631836">
<ele>3038</ele>
<time>2016-07-28T17:18:26Z</time>
</trkpt>
<trkpt lat="37.04969787597656" lon="-118.76363372802734">
<ele>3040</ele>
<time>2016-07-28T17:18:33Z</time>
</trkpt>
<trkpt lat="37.04965591430664" lon="-118.76356506347656">
<ele>3043</ele>
<time>2016-07-28T17:18:42Z</time>
</trkpt>
<trkpt lat="37.049617767333984" lon="-118.7635269165039">
<ele>3044</ele>
<time>2016-07-28T17:18:51Z</time>
</trkpt>
<trkpt lat="37.04956817626953" lon="-118.76349639892578">
<ele>3046</ele>
<time>2016-07-28T17:18:57Z</time>
</trkpt>
<trkpt lat="37.04948043823242" lon="-118.76344299316406">
<ele>3047</ele>
<time>2016-07-28T17:19:06Z</time>
</trkpt>
<trkpt lat="37.04939651489258" lon="-118.76338958740234">
<ele>3049</ele>
<time>2016-07-28T17:19:14Z</time>
</trkpt>
<trkpt lat="37.049354553222656" lon="-118.76335144042969">
<ele>3049</ele>
<time>2016-07-28T17:19:20Z</time>
</trkpt>
<trkpt lat="37.04924392700195" lon="-118.76335906982422">
<ele>3049</ele>
<time>2016-07-28T17:19:29Z</time>
</trkpt>
<trkpt lat="37.04914474487305" lon="-118.76336669921875">
<ele>3054</ele>
<time>2016-07-28T17:19:40Z</time>
</trkpt>
<trkpt lat="37.04907989501953" lon="-118.76335144042969">
<ele>3054</ele>
<time>2016-07-28T17:19:48Z</time>
</trkpt>
<trkpt lat="37.04903793334961" lon="-118.76331329345703">
<ele>3055</ele>
<time>2016-07-28T17:19:57Z</time>
</trkpt>
<trkpt lat="37.04898452758789" lon="-118.7632827758789">
<ele>3056</ele>
<time>2016-07-28T17:20:06Z</time>
</trkpt>
<trkpt lat="37.048885345458984" lon="-118.76324462890625">
<ele>3054</ele>
<time>2016-07-28T17:20:15Z</time>
</trkpt>
<trkpt lat="37.04878616333008" lon="-118.76322174072266">
<ele>3060</ele>
<time>2016-07-28T17:20:27Z</time>
</trkpt>
<trkpt lat="37.04868698120117" lon="-118.7632064819336">
<ele>3061</ele>
<time>2016-07-28T17:20:37Z</time>
</trkpt>
<trkpt lat="37.0485954284668" lon="-118.76317596435547">
<ele>3062</ele>
<time>2016-07-28T17:20:49Z</time>
</trkpt>
<trkpt lat="37.048500061035156" lon="-118.76319122314453">
<ele>3062</ele>
<time>2016-07-28T17:20:59Z</time>
</trkpt>
<trkpt lat="37.048404693603516" lon="-118.76317596435547">
<ele>3064</ele>
<time>2016-07-28T17:21:09Z</time>
</trkpt>
<trkpt lat="37.048362731933594" lon="-118.76319122314453">
<ele>3065</ele>
<time>2016-07-28T17:21:15Z</time>
</trkpt>
<trkpt lat="37.048316955566406" lon="-118.7632064819336">
<ele>3066</ele>
<time>2016-07-28T17:21:21Z</time>
</trkpt>
<trkpt lat="37.04822540283203" lon="-118.76319122314453">
<ele>3069</ele>
<time>2016-07-28T17:21:32Z</time>
</trkpt>
<trkpt lat="37.048179626464844" lon="-118.76319885253906">
<ele>3070</ele>
<time>2016-07-28T17:21:39Z</time>
</trkpt>
<trkpt lat="37.04811477661133" lon="-118.76322174072266">
<ele>3072</ele>
<time>2016-07-28T17:21:49Z</time>
</trkpt>
<trkpt lat="37.04806900024414" lon="-118.76319885253906">
<ele>3069</ele>
<time>2016-07-28T17:21:55Z</time>
</trkpt>
<trkpt lat="37.04798126220703" lon="-118.76312255859375">
<ele>3070</ele>
<time>2016-07-28T17:22:07Z</time>
</trkpt>
<trkpt lat="37.047908782958984" lon="-118.76304626464844">
<ele>3072</ele>
<time>2016-07-28T17:22:16Z</time>
</trkpt>
<trkpt lat="37.04782485961914" lon="-118.76297760009766">
<ele>3073</ele>
<time>2016-07-28T17:22:32Z</time>
</trkpt>
<trkpt lat="37.047794342041016" lon="-118.76292419433594">
<ele>3073</ele>
<time>2016-07-28T17:22:42Z</time>
</trkpt>
<trkpt lat="37.04780960083008" lon="-118.76298522949219">
<ele>3076</ele>
<time>2016-07-28T17:23:25Z</time>
</trkpt>
<trkpt lat="37.047725677490234" lon="-118.76297760009766">
<ele>3075</ele>
<time>2016-07-28T17:23:48Z</time>
</trkpt>
<trkpt lat="37.04766845703125" lon="-118.76297760009766">
<ele>3068</ele>
<time>2016-07-28T17:24:25Z</time>
</trkpt>
<trkpt lat="37.047576904296875" lon="-118.76302337646484">
<ele>3072</ele>
<time>2016-07-28T17:24:33Z</time>
</trkpt>
<trkpt lat="37.047523498535156" lon="-118.76301574707031">
<ele>3072</ele>
<time>2016-07-28T17:24:41Z</time>
</trkpt>
<trkpt lat="37.0474739074707" lon="-118.76305389404297">
<ele>3072</ele>
<time>2016-07-28T17:24:47Z</time>
</trkpt>
<trkpt lat="37.047428131103516" lon="-118.76305389404297">
<ele>3073</ele>
<time>2016-07-28T17:24:53Z</time>
</trkpt>
<trkpt lat="37.04738998413086" lon="-118.76309204101563">
<ele>3074</ele>
<time>2016-07-28T17:25:37Z</time>
</trkpt>
<trkpt lat="37.04730987548828" lon="-118.76319122314453">
<ele>3074</ele>
<time>2016-07-28T17:25:47Z</time>
</trkpt>
<trkpt lat="37.047325134277344" lon="-118.76324462890625">
<ele>3073</ele>
<time>2016-07-28T17:27:30Z</time>
</trkpt>
<trkpt lat="37.04728317260742" lon="-118.76327514648438">
<ele>3074</ele>
<time>2016-07-28T17:27:42Z</time>
</trkpt>
<trkpt lat="37.04725646972656" lon="-118.76331329345703">
<ele>3076</ele>
<time>2016-07-28T17:27:54Z</time>
</trkpt>
<trkpt lat="37.04721450805664" lon="-118.76336669921875">
<ele>3079</ele>
<time>2016-07-28T17:28:04Z</time>
</trkpt>
<trkpt lat="37.04716873168945" lon="-118.76335144042969">
<ele>3076</ele>
<time>2016-07-28T17:28:11Z</time>
</trkpt>
<trkpt lat="37.04707336425781" lon="-118.76332092285156">
<ele>3077</ele>
<time>2016-07-28T17:28:21Z</time>
</trkpt>
<trkpt lat="37.04703140258789" lon="-118.7632827758789">
<ele>3072</ele>
<time>2016-07-28T17:28:27Z</time>
</trkpt>
<trkpt lat="37.04695510864258" lon="-118.76321411132813">
<ele>3073</ele>
<time>2016-07-28T17:28:38Z</time>
</trkpt>
<trkpt lat="37.04692077636719" lon="-118.76316833496094">
<ele>3079</ele>
<time>2016-07-28T17:28:51Z</time>
</trkpt>
<trkpt lat="37.04683303833008" lon="-118.76309967041016">
<ele>3079</ele>
<time>2016-07-28T17:28:57Z</time>
</trkpt>
<trkpt lat="37.04673767089844" lon="-118.76307678222656">
<ele>3078</ele>
<time>2016-07-28T17:29:04Z</time>
</trkpt>
<trkpt lat="37.04664611816406" lon="-118.76300811767578">
<ele>3072</ele>
<time>2016-07-28T17:29:14Z</time>
</trkpt>
<trkpt lat="37.04655456542969" lon="-118.76295471191406">
<ele>3070</ele>
<time>2016-07-28T17:29:22Z</time>
</trkpt>
<trkpt lat="37.0465087890625" lon="-118.76293182373047">
<ele>3071</ele>
<time>2016-07-28T17:29:30Z</time>
</trkpt>
<trkpt lat="37.04642105102539" lon="-118.76287078857422">
<ele>3072</ele>
<time>2016-07-28T17:29:41Z</time>
</trkpt>
<trkpt lat="37.04633331298828" lon="-118.7628173828125">
<ele>3072</ele>
<time>2016-07-28T17:29:51Z</time>
</trkpt>
<trkpt lat="37.04629898071289" lon="-118.76270294189453">
<ele>3075</ele>
<time>2016-07-28T17:29:57Z</time>
</trkpt>
<trkpt lat="37.046302795410156" lon="-118.76264190673828">
<ele>3078</ele>
<time>2016-07-28T17:30:03Z</time>
</trkpt>
<trkpt lat="37.04623794555664" lon="-118.76254272460938">
<ele>3075</ele>
<time>2016-07-28T17:30:09Z</time>
</trkpt>
<trkpt lat="37.046180725097656" lon="-118.76244354248047">
<ele>3074</ele>
<time>2016-07-28T17:30:17Z</time>
</trkpt>
<trkpt lat="37.04610824584961" lon="-118.76232147216797">
<ele>3073</ele>
<time>2016-07-28T17:30:26Z</time>
</trkpt>
<trkpt lat="37.04603576660156" lon="-118.76223754882813">
<ele>3071</ele>
<time>2016-07-28T17:30:33Z</time>
</trkpt>
<trkpt lat="37.0460090637207" lon="-118.76213073730469">
<ele>3073</ele>
<time>2016-07-28T17:30:40Z</time>
</trkpt>
<trkpt lat="37.04600524902344" lon="-118.76205444335938">
<ele>3072</ele>
<time>2016-07-28T17:30:53Z</time>
</trkpt>
<trkpt lat="37.0460205078125" lon="-118.76199340820313">
<ele>3075</ele>
<time>2016-07-28T17:31:06Z</time>
</trkpt>
<trkpt lat="37.04603958129883" lon="-118.76187133789063">
<ele>3076</ele>
<time>2016-07-28T17:31:15Z</time>
</trkpt>
<trkpt lat="37.046077728271484" lon="-118.76174926757813">
<ele>3075</ele>
<time>2016-07-28T17:31:24Z</time>
</trkpt>
<trkpt lat="37.046104431152344" lon="-118.76162719726563">
<ele>3076</ele>
<time>2016-07-28T17:31:30Z</time>
</trkpt>
<trkpt lat="37.04613494873047" lon="-118.76150512695313">
<ele>3077</ele>
<time>2016-07-28T17:31:37Z</time>
</trkpt>
<trkpt lat="37.046180725097656" lon="-118.76136016845703">
<ele>3079</ele>
<time>2016-07-28T17:31:46Z</time>
</trkpt>
<trkpt lat="37.04620361328125" lon="-118.76124572753906">
<ele>3080</ele>
<time>2016-07-28T17:31:53Z</time>
</trkpt>
<trkpt lat="37.046234130859375" lon="-118.76113891601563">
<ele>3081</ele>
<time>2016-07-28T17:32:01Z</time>
</trkpt>
<trkpt lat="37.04623794555664" lon="-118.76107788085938">
<ele>3084</ele>
<time>2016-07-28T17:32:11Z</time>
</trkpt>
<trkpt lat="37.04627227783203" lon="-118.76103210449219">
<ele>3084</ele>
<time>2016-07-28T17:32:17Z</time>
</trkpt>
<trkpt lat="37.046268463134766" lon="-118.76097106933594">
<ele>3084</ele>
<time>2016-07-28T17:32:23Z</time>
</trkpt>
<trkpt lat="37.04624557495117" lon="-118.76085662841797">
<ele>3082</ele>
<time>2016-07-28T17:32:34Z</time>
</trkpt>
<trkpt lat="37.04625701904297" lon="-118.76080322265625">
<ele>3082</ele>
<time>2016-07-28T17:32:41Z</time>
</trkpt>
<trkpt lat="37.046321868896484" lon="-118.76068115234375">
<ele>3086</ele>
<time>2016-07-28T17:32:53Z</time>
</trkpt>
<trkpt lat="37.046356201171875" lon="-118.76062774658203">
<ele>3089</ele>
<time>2016-07-28T17:33:00Z</time>
</trkpt>
<trkpt lat="37.0463752746582" lon="-118.76050567626953">
<ele>3089</ele>
<time>2016-07-28T17:33:10Z</time>
</trkpt>
<trkpt lat="37.04640197753906" lon="-118.76044464111328">
<ele>3090</ele>
<time>2016-07-28T17:33:17Z</time>
</trkpt>
<trkpt lat="37.04640197753906" lon="-118.76039123535156">
<ele>3090</ele>
<time>2016-07-28T17:33:23Z</time>
</trkpt>
<trkpt lat="37.046478271484375" lon="-118.76031494140625">
<ele>3090</ele>
<time>2016-07-28T17:33:33Z</time>
</trkpt>
<trkpt lat="37.04650115966797" lon="-118.76026916503906">
<ele>3092</ele>
<time>2016-07-28T17:33:41Z</time>
</trkpt>
<trkpt lat="37.0465087890625" lon="-118.76014709472656">
<ele>3092</ele>
<time>2016-07-28T17:33:51Z</time>
</trkpt>
<trkpt lat="37.046539306640625" lon="-118.76002502441406">
<ele>3092</ele>
<time>2016-07-28T17:34:01Z</time>
</trkpt>
<trkpt lat="37.046607971191406" lon="-118.75995635986328">
<ele>3098</ele>
<time>2016-07-28T17:34:09Z</time>
</trkpt>
<trkpt lat="37.04661178588867" lon="-118.75989532470703">
<ele>3099</ele>
<time>2016-07-28T17:34:16Z</time>
</trkpt>
<trkpt lat="37.04663848876953" lon="-118.7597885131836">
<ele>3097</ele>
<time>2016-07-28T17:34:25Z</time>
</trkpt>
<trkpt lat="37.0466423034668" lon="-118.75971984863281">
<ele>3097</ele>
<time>2016-07-28T17:34:31Z</time>
</trkpt>
<trkpt lat="37.046634674072266" lon="-118.7596664428711">
<ele>3094</ele>
<time>2016-07-28T17:34:41Z</time>
</trkpt>
<trkpt lat="37.046566009521484" lon="-118.7596435546875">
<ele>3091</ele>
<time>2016-07-28T17:36:06Z</time>
</trkpt>
<trkpt lat="37.04660415649414" lon="-118.75960540771484">
<ele>3094</ele>
<time>2016-07-28T17:37:06Z</time>
</trkpt>
<trkpt lat="37.04662322998047" lon="-118.75965881347656">
<ele>3099</ele>
<time>2016-07-28T17:37:39Z</time>
</trkpt>
<trkpt lat="37.04665756225586" lon="-118.7596206665039">
<ele>3099</ele>
<time>2016-07-28T17:38:00Z</time>
</trkpt>
<trkpt lat="37.046714782714844" lon="-118.7596206665039">
<ele>3102</ele>
<time>2016-07-28T17:38:07Z</time>
</trkpt>
<trkpt lat="37.04673385620117" lon="-118.75950622558594">
<ele>3103</ele>
<time>2016-07-28T17:38:18Z</time>
</trkpt>
<trkpt lat="37.04676055908203" lon="-118.75945281982422">
<ele>3103</ele>
<time>2016-07-28T17:38:28Z</time>
</trkpt>
<trkpt lat="37.04680252075195" lon="-118.75938415527344">
<ele>3106</ele>
<time>2016-07-28T17:38:42Z</time>
</trkpt>
<trkpt lat="37.04682159423828" lon="-118.75933074951172">
<ele>3108</ele>
<time>2016-07-28T17:38:50Z</time>
</trkpt>
<trkpt lat="37.046852111816406" lon="-118.75928497314453">
<ele>3106</ele>
<time>2016-07-28T17:38:58Z</time>
</trkpt>
<trkpt lat="37.04690933227539" lon="-118.75918579101563">
<ele>3113</ele>
<time>2016-07-28T17:39:09Z</time>
</trkpt>
<trkpt lat="37.046932220458984" lon="-118.75914001464844">
<ele>3111</ele>
<time>2016-07-28T17:39:17Z</time>
</trkpt>
<trkpt lat="37.04692840576172" lon="-118.75901794433594">
<ele>3113</ele>
<time>2016-07-28T17:39:32Z</time>
</trkpt>
<trkpt lat="37.04690170288086" lon="-118.75897216796875">
<ele>3116</ele>
<time>2016-07-28T17:39:39Z</time>
</trkpt>
<trkpt lat="37.04690933227539" lon="-118.7588882446289">
<ele>3117</ele>
<time>2016-07-28T17:39:54Z</time>
</trkpt>
<trkpt lat="37.046878814697266" lon="-118.75883483886719">
<ele>3117</ele>
<time>2016-07-28T17:40:00Z</time>
</trkpt>
<trkpt lat="37.04682922363281" lon="-118.75872802734375">
<ele>3116</ele>
<time>2016-07-28T17:40:14Z</time>
</trkpt>
<trkpt lat="37.04681396484375" lon="-118.75867462158203">
<ele>3118</ele>
<time>2016-07-28T17:40:27Z</time>
</trkpt>
<trkpt lat="37.046810150146484" lon="-118.75861358642578">
<ele>3120</ele>
<time>2016-07-28T17:40:37Z</time>
</trkpt>
<trkpt lat="37.04682540893555" lon="-118.75851440429688">
<ele>3123</ele>
<time>2016-07-28T17:40:58Z</time>
</trkpt>
<trkpt lat="37.04685974121094" lon="-118.75846862792969">
<ele>3125</ele>
<time>2016-07-28T17:41:05Z</time>
</trkpt>
<trkpt lat="37.046878814697266" lon="-118.75840759277344">
<ele>3122</ele>
<time>2016-07-28T17:41:13Z</time>
</trkpt>
<trkpt lat="37.046871185302734" lon="-118.75834655761719">
<ele>3121</ele>
<time>2016-07-28T17:41:26Z</time>
</trkpt>
<trkpt lat="37.046932220458984" lon="-118.75824737548828">
<ele>3123</ele>
<time>2016-07-28T17:41:36Z</time>
</trkpt>
<trkpt lat="37.04692459106445" lon="-118.7581558227539">
<ele>3131</ele>
<time>2016-07-28T17:41:47Z</time>
</trkpt>
<trkpt lat="37.046913146972656" lon="-118.75809478759766">
<ele>3132</ele>
<time>2016-07-28T17:41:53Z</time>
</trkpt>
<trkpt lat="37.04693603515625" lon="-118.75804138183594">
<ele>3136</ele>
<time>2016-07-28T17:42:01Z</time>
</trkpt>
<trkpt lat="37.04695129394531" lon="-118.75798034667969">
<ele>3136</ele>
<time>2016-07-28T17:42:07Z</time>
</trkpt>
<trkpt lat="37.046993255615234" lon="-118.7579345703125">
<ele>3132</ele>
<time>2016-07-28T17:42:17Z</time>
</trkpt>
<trkpt lat="37.04704284667969" lon="-118.75780487060547">
<ele>3134</ele>
<time>2016-07-28T17:42:28Z</time>
</trkpt>
<trkpt lat="37.04705810546875" lon="-118.75773620605469">
<ele>3136</ele>
<time>2016-07-28T17:42:35Z</time>
</trkpt>
<trkpt lat="37.04708480834961" lon="-118.75764465332031">
<ele>3134</ele>
<time>2016-07-28T17:42:42Z</time>
</trkpt>
<trkpt lat="37.047122955322266" lon="-118.75753784179688">
<ele>3136</ele>
<time>2016-07-28T17:42:57Z</time>
</trkpt>
<trkpt lat="37.04718017578125" lon="-118.7574234008789">
<ele>3136</ele>
<time>2016-07-28T17:43:05Z</time>
</trkpt>
<trkpt lat="37.04721450805664" lon="-118.7573013305664">
<ele>3137</ele>
<time>2016-07-28T17:43:13Z</time>
</trkpt>
<trkpt lat="37.047203063964844" lon="-118.75717163085938">
<ele>3139</ele>
<time>2016-07-28T17:43:20Z</time>
</trkpt>
<trkpt lat="37.047237396240234" lon="-118.7570571899414">
<ele>3141</ele>
<time>2016-07-28T17:43:29Z</time>
</trkpt>
<trkpt lat="37.047271728515625" lon="-118.75694274902344">
<ele>3142</ele>
<time>2016-07-28T17:43:38Z</time>
</trkpt>
<trkpt lat="37.04732894897461" lon="-118.75685119628906">
<ele>3143</ele>
<time>2016-07-28T17:43:45Z</time>
</trkpt>
<trkpt lat="37.047359466552734" lon="-118.75674438476563">
<ele>3147</ele>
<time>2016-07-28T17:43:59Z</time>
</trkpt>
<trkpt lat="37.04738235473633" lon="-118.75668334960938">
<ele>3145</ele>
<time>2016-07-28T17:44:05Z</time>
</trkpt>
<trkpt lat="37.04742431640625" lon="-118.75657653808594">
<ele>3145</ele>
<time>2016-07-28T17:44:16Z</time>
</trkpt>
<trkpt lat="37.04744338989258" lon="-118.75651550292969">
<ele>3145</ele>
<time>2016-07-28T17:44:23Z</time>
</trkpt>
<trkpt lat="37.04746627807617" lon="-118.75640869140625">
<ele>3147</ele>
<time>2016-07-28T17:46:19Z</time>
</trkpt>
<trkpt lat="37.04747009277344" lon="-118.75634765625">
<ele>3148</ele>
<time>2016-07-28T17:46:25Z</time>
</trkpt>
<trkpt lat="37.04747009277344" lon="-118.75628662109375">
<ele>3148</ele>
<time>2016-07-28T17:46:32Z</time>
</trkpt>
<trkpt lat="37.047515869140625" lon="-118.75624084472656">
<ele>3154</ele>
<time>2016-07-28T17:49:42Z</time>
</trkpt>
<trkpt lat="37.047576904296875" lon="-118.75618743896484">
<ele>3150</ele>
<time>2016-07-28T17:55:47Z</time>
</trkpt>
<trkpt lat="37.04762268066406" lon="-118.7561264038086">
<ele>3148</ele>
<time>2016-07-28T17:56:46Z</time>
</trkpt>
<trkpt lat="37.04767608642578" lon="-118.75611877441406">
<ele>3143</ele>
<time>2016-07-28T17:57:42Z</time>
</trkpt>
<trkpt lat="37.047603607177734" lon="-118.7561264038086">
<ele>3149</ele>
<time>2016-07-28T17:59:16Z</time>
</trkpt>
<trkpt lat="37.04756164550781" lon="-118.75614929199219">
<ele>3149</ele>
<time>2016-07-28T17:59:28Z</time>
</trkpt>
<trkpt lat="37.0474853515625" lon="-118.75611114501953">
<ele>3149</ele>
<time>2016-07-28T17:59:42Z</time>
</trkpt>
<trkpt lat="37.04745101928711" lon="-118.75607299804688">
<ele>3147</ele>
<time>2016-07-28T17:59:48Z</time>
</trkpt>
<trkpt lat="37.04740524291992" lon="-118.75605010986328">
<ele>3149</ele>
<time>2016-07-28T17:59:54Z</time>
</trkpt>
<trkpt lat="37.04730987548828" lon="-118.75602722167969">
<ele>3151</ele>
<time>2016-07-28T18:00:03Z</time>
</trkpt>
<trkpt lat="37.047218322753906" lon="-118.75596618652344">
<ele>3150</ele>
<time>2016-07-28T18:00:12Z</time>
</trkpt>
<trkpt lat="37.0471305847168" lon="-118.75592041015625">
<ele>3148</ele>
<time>2016-07-28T18:00:20Z</time>
</trkpt>
<trkpt lat="37.04708480834961" lon="-118.75589752197266">
<ele>3148</ele>
<time>2016-07-28T18:00:26Z</time>
</trkpt>
<trkpt lat="37.0469856262207" lon="-118.75592041015625">
<ele>3150</ele>
<time>2016-07-28T18:00:34Z</time>
</trkpt>
<trkpt lat="37.046878814697266" lon="-118.75591278076172">
<ele>3148</ele>
<time>2016-07-28T18:00:42Z</time>
</trkpt>
<trkpt lat="37.04678726196289" lon="-118.75584411621094">
<ele>3149</ele>
<time>2016-07-28T18:00:50Z</time>
</trkpt>
<trkpt lat="37.04667663574219" lon="-118.75580596923828">
<ele>3148</ele>
<time>2016-07-28T18:00:58Z</time>
</trkpt>
<trkpt lat="37.046573638916016" lon="-118.7557373046875">
<ele>3150</ele>
<time>2016-07-28T18:01:06Z</time>
</trkpt>
<trkpt lat="37.04648971557617" lon="-118.75568389892578">
<ele>3149</ele>
<time>2016-07-28T18:01:12Z</time>
</trkpt>
<trkpt lat="37.04638671875" lon="-118.7556381225586">
<ele>3150</ele>
<time>2016-07-28T18:01:20Z</time>
</trkpt>
<trkpt lat="37.046287536621094" lon="-118.755615234375">
<ele>3149</ele>
<time>2016-07-28T18:01:28Z</time>
</trkpt>
<trkpt lat="37.046241760253906" lon="-118.7555160522461">
<ele>3147</ele>
<time>2016-07-28T18:01:36Z</time>
</trkpt>
<trkpt lat="37.046180725097656" lon="-118.75546264648438">
<ele>3143</ele>
<time>2016-07-28T18:01:42Z</time>
</trkpt>
<trkpt lat="37.046077728271484" lon="-118.75543212890625">
<ele>3140</ele>
<time>2016-07-28T18:01:50Z</time>
</trkpt>
<trkpt lat="37.04598617553711" lon="-118.7553939819336">
<ele>3146</ele>
<time>2016-07-28T18:02:02Z</time>
</trkpt>
<trkpt lat="37.045928955078125" lon="-118.7553939819336">
<ele>3145</ele>
<time>2016-07-28T18:02:12Z</time>
</trkpt>
<trkpt lat="37.04582595825195" lon="-118.75535583496094">
<ele>3145</ele>
<time>2016-07-28T18:02:20Z</time>
</trkpt>
<trkpt lat="37.045719146728516" lon="-118.75533294677734">
<ele>3145</ele>
<time>2016-07-28T18:02:28Z</time>
</trkpt>
<trkpt lat="37.045623779296875" lon="-118.75531768798828">
<ele>3145</ele>
<time>2016-07-28T18:02:36Z</time>
</trkpt>
<trkpt lat="37.04555892944336" lon="-118.75531768798828">
<ele>3144</ele>
<time>2016-07-28T18:02:42Z</time>
</trkpt>
<trkpt lat="37.04550552368164" lon="-118.75532531738281">
<ele>3145</ele>
<time>2016-07-28T18:02:52Z</time>
</trkpt>
<trkpt lat="37.04541015625" lon="-118.75538635253906">
<ele>3145</ele>
<time>2016-07-28T18:02:59Z</time>
</trkpt>
<trkpt lat="37.045372009277344" lon="-118.75542449951172">
<ele>3143</ele>
<time>2016-07-28T18:03:05Z</time>
</trkpt>
<trkpt lat="37.04533386230469" lon="-118.75555419921875">
<ele>3140</ele>
<time>2016-07-28T18:03:17Z</time>
</trkpt>
<trkpt lat="37.04528045654297" lon="-118.75567626953125">
<ele>3141</ele>
<time>2016-07-28T18:03:24Z</time>
</trkpt>
<trkpt lat="37.04527282714844" lon="-118.75579833984375">
<ele>3140</ele>
<time>2016-07-28T18:03:31Z</time>
</trkpt>
<trkpt lat="37.04521560668945" lon="-118.75591278076172">
<ele>3139</ele>
<time>2016-07-28T18:03:37Z</time>
</trkpt>
<trkpt lat="37.04510498046875" lon="-118.7559814453125">
<ele>3137</ele>
<time>2016-07-28T18:03:46Z</time>
</trkpt>
<trkpt lat="37.045005798339844" lon="-118.7559814453125">
<ele>3137</ele>
<time>2016-07-28T18:03:56Z</time>
</trkpt>
<trkpt lat="37.044918060302734" lon="-118.75592041015625">
<ele>3135</ele>
<time>2016-07-28T18:04:03Z</time>
</trkpt>
<trkpt lat="37.044830322265625" lon="-118.75586700439453">
<ele>3133</ele>
<time>2016-07-28T18:04:12Z</time>
</trkpt>
<trkpt lat="37.04474639892578" lon="-118.75580596923828">
<ele>3134</ele>
<time>2016-07-28T18:04:20Z</time>
</trkpt>
<trkpt lat="37.044647216796875" lon="-118.75577545166016">
<ele>3134</ele>
<time>2016-07-28T18:04:29Z</time>
</trkpt>
<trkpt lat="37.044593811035156" lon="-118.75568389892578">
<ele>3132</ele>
<time>2016-07-28T18:04:37Z</time>
</trkpt>
<trkpt lat="37.044517517089844" lon="-118.75563049316406">
<ele>3132</ele>
<time>2016-07-28T18:04:46Z</time>
</trkpt>
<trkpt lat="37.044429779052734" lon="-118.75558471679688">
<ele>3133</ele>
<time>2016-07-28T18:04:54Z</time>
</trkpt>
<trkpt lat="37.044376373291016" lon="-118.75546264648438">
<ele>3133</ele>
<time>2016-07-28T18:05:04Z</time>
</trkpt>
<trkpt lat="37.044288635253906" lon="-118.75538635253906">
<ele>3134</ele>
<time>2016-07-28T18:05:14Z</time>
</trkpt>
<trkpt lat="37.04423141479492" lon="-118.75540161132813">
<ele>3140</ele>
<time>2016-07-28T18:05:36Z</time>
</trkpt>
<trkpt lat="37.044158935546875" lon="-118.75538635253906">
<ele>3140</ele>
<time>2016-07-28T18:05:42Z</time>
</trkpt>
<trkpt lat="37.04410934448242" lon="-118.75538635253906">
<ele>3140</ele>
<time>2016-07-28T18:05:50Z</time>
</trkpt>
<trkpt lat="37.044063568115234" lon="-118.75536346435547">
<ele>3138</ele>
<time>2016-07-28T18:06:06Z</time>
</trkpt>
<trkpt lat="37.04396438598633" lon="-118.75536346435547">
<ele>3137</ele>
<time>2016-07-28T18:06:14Z</time>
</trkpt>
<trkpt lat="37.043922424316406" lon="-118.75534057617188">
<ele>3137</ele>
<time>2016-07-28T18:06:24Z</time>
</trkpt>
<trkpt lat="37.04387664794922" lon="-118.75537872314453">
<ele>3134</ele>
<time>2016-07-28T18:06:30Z</time>
</trkpt>
<trkpt lat="37.043819427490234" lon="-118.75537872314453">
<ele>3135</ele>
<time>2016-07-28T18:06:49Z</time>
</trkpt>
<trkpt lat="37.04372024536133" lon="-118.75536346435547">
<ele>3131</ele>
<time>2016-07-28T18:06:56Z</time>
</trkpt>
<trkpt lat="37.04363250732422" lon="-118.7553939819336">
<ele>3129</ele>
<time>2016-07-28T18:07:05Z</time>
</trkpt>
<trkpt lat="37.04353713989258" lon="-118.75541687011719">
<ele>3130</ele>
<time>2016-07-28T18:07:16Z</time>
</trkpt>
<trkpt lat="37.04352569580078" lon="-118.75530242919922">
<ele>3131</ele>
<time>2016-07-28T18:07:27Z</time>
</trkpt>
<trkpt lat="37.04348373413086" lon="-118.75521087646484">
<ele>3132</ele>
<time>2016-07-28T18:07:38Z</time>
</trkpt>
<trkpt lat="37.043392181396484" lon="-118.7552490234375">
<ele>3133</ele>
<time>2016-07-28T18:07:46Z</time>
</trkpt>
<trkpt lat="37.04328918457031" lon="-118.7552719116211">
<ele>3133</ele>
<time>2016-07-28T18:07:54Z</time>
</trkpt>
<trkpt lat="37.04325485229492" lon="-118.75531005859375">
<ele>3137</ele>
<time>2016-07-28T18:08:01Z</time>
</trkpt>
<trkpt lat="37.04318618774414" lon="-118.7553939819336">
<ele>3137</ele>
<time>2016-07-28T18:08:07Z</time>
</trkpt>
<trkpt lat="37.043155670166016" lon="-118.75550842285156">
<ele>3133</ele>
<time>2016-07-28T18:08:15Z</time>
</trkpt>
<trkpt lat="37.04306411743164" lon="-118.75556945800781">
<ele>3132</ele>
<time>2016-07-28T18:08:23Z</time>
</trkpt>
<trkpt lat="37.04296112060547" lon="-118.75557708740234">
<ele>3131</ele>
<time>2016-07-28T18:08:31Z</time>
</trkpt>
<trkpt lat="37.042877197265625" lon="-118.7556381225586">
<ele>3133</ele>
<time>2016-07-28T18:08:40Z</time>
</trkpt>
<trkpt lat="37.04283142089844" lon="-118.75569915771484">
<ele>3135</ele>
<time>2016-07-28T18:08:47Z</time>
</trkpt>
<trkpt lat="37.04279708862305" lon="-118.75582122802734">
<ele>3134</ele>
<time>2016-07-28T18:08:55Z</time>
</trkpt>
<trkpt lat="37.04277801513672" lon="-118.75595092773438">
<ele>3134</ele>
<time>2016-07-28T18:09:03Z</time>
</trkpt>
<trkpt lat="37.04273223876953" lon="-118.7559814453125">
<ele>3134</ele>
<time>2016-07-28T18:09:11Z</time>
</trkpt>
<trkpt lat="37.04262924194336" lon="-118.75602722167969">
<ele>3136</ele>
<time>2016-07-28T18:09:20Z</time>
</trkpt>
<trkpt lat="37.04258346557617" lon="-118.75605010986328">
<ele>3134</ele>
<time>2016-07-28T18:09:30Z</time>
</trkpt>
<trkpt lat="37.04264450073242" lon="-118.75605773925781">
<ele>3133</ele>
<time>2016-07-28T18:09:48Z</time>
</trkpt>
<trkpt lat="37.04269027709961" lon="-118.75608825683594">
<ele>3131</ele>
<time>2016-07-28T18:09:54Z</time>
</trkpt>
<trkpt lat="37.04267120361328" lon="-118.75619506835938">
<ele>3130</ele>
<time>2016-07-28T18:10:02Z</time>
</trkpt>
<trkpt lat="37.04258346557617" lon="-118.75625610351563">
<ele>3129</ele>
<time>2016-07-28T18:10:10Z</time>
</trkpt>
<trkpt lat="37.04256057739258" lon="-118.75630950927734">
<ele>3129</ele>
<time>2016-07-28T18:10:17Z</time>
</trkpt>
<trkpt lat="37.042564392089844" lon="-118.7563705444336">
<ele>3129</ele>
<time>2016-07-28T18:10:24Z</time>
</trkpt>
<trkpt lat="37.0424690246582" lon="-118.75641632080078">
<ele>3129</ele>
<time>2016-07-28T18:10:35Z</time>
</trkpt>
<trkpt lat="37.04240798950195" lon="-118.7564697265625">
<ele>3127</ele>
<time>2016-07-28T18:10:42Z</time>
</trkpt>
<trkpt lat="37.04233169555664" lon="-118.75653076171875">
<ele>3125</ele>
<time>2016-07-28T18:10:52Z</time>
</trkpt>
<trkpt lat="37.04228591918945" lon="-118.7565689086914">
<ele>3129</ele>
<time>2016-07-28T18:11:14Z</time>
</trkpt>
<trkpt lat="37.042213439941406" lon="-118.75663757324219">
<ele>3130</ele>
<time>2016-07-28T18:11:22Z</time>
</trkpt>
<trkpt lat="37.04217529296875" lon="-118.75668334960938">
<ele>3131</ele>
<time>2016-07-28T18:11:28Z</time>
</trkpt>
<trkpt lat="37.0421257019043" lon="-118.75670623779297">
<ele>3131</ele>
<time>2016-07-28T18:11:34Z</time>
</trkpt>
<trkpt lat="37.042049407958984" lon="-118.75679779052734">
<ele>3133</ele>
<time>2016-07-28T18:11:42Z</time>
</trkpt>
<trkpt lat="37.042015075683594" lon="-118.75685119628906">
<ele>3134</ele>
<time>2016-07-28T18:11:49Z</time>
</trkpt>
<trkpt lat="37.04196548461914" lon="-118.75685119628906">
<ele>3132</ele>
<time>2016-07-28T18:12:15Z</time>
</trkpt>
<trkpt lat="37.0418701171875" lon="-118.75691986083984">
<ele>3133</ele>
<time>2016-07-28T18:12:26Z</time>
</trkpt>
<trkpt lat="37.04179000854492" lon="-118.75698852539063">
<ele>3134</ele>
<time>2016-07-28T18:12:34Z</time>
</trkpt>
<trkpt lat="37.041725158691406" lon="-118.75702667236328">
<ele>3133</ele>
<time>2016-07-28T18:12:42Z</time>
</trkpt>
<trkpt lat="37.04167938232422" lon="-118.75703430175781">
<ele>3134</ele>
<time>2016-07-28T18:12:48Z</time>
</trkpt>
<trkpt lat="37.041629791259766" lon="-118.75703430175781">
<ele>3134</ele>
<time>2016-07-28T18:12:55Z</time>
</trkpt>
<trkpt lat="37.041587829589844" lon="-118.7570571899414">
<ele>3132</ele>
<time>2016-07-28T18:13:03Z</time>
</trkpt>
<trkpt lat="37.041542053222656" lon="-118.75704193115234">
<ele>3135</ele>
<time>2016-07-28T18:13:11Z</time>
</trkpt>
<trkpt lat="37.04149627685547" lon="-118.75704193115234">
<ele>3137</ele>
<time>2016-07-28T18:13:41Z</time>
</trkpt>
<trkpt lat="37.04144287109375" lon="-118.75704193115234">
<ele>3141</ele>
<time>2016-07-28T18:13:47Z</time>
</trkpt>
<trkpt lat="37.04139709472656" lon="-118.75703430175781">
<ele>3142</ele>
<time>2016-07-28T18:13:53Z</time>
</trkpt>
<trkpt lat="37.04134750366211" lon="-118.75704956054688">
<ele>3148</ele>
<time>2016-07-28T18:14:00Z</time>
</trkpt>
<trkpt lat="37.041297912597656" lon="-118.7570571899414">
<ele>3148</ele>
<time>2016-07-28T18:14:07Z</time>
</trkpt>
<trkpt lat="37.04125213623047" lon="-118.75704956054688">
<ele>3147</ele>
<time>2016-07-28T18:14:15Z</time>
</trkpt>
<trkpt lat="37.04121398925781" lon="-118.75709533691406">
<ele>3150</ele>
<time>2016-07-28T18:14:21Z</time>
</trkpt>
<trkpt lat="37.0411376953125" lon="-118.75717163085938">
<ele>3151</ele>
<time>2016-07-28T18:14:29Z</time>
</trkpt>
<trkpt lat="37.04104232788086" lon="-118.75720977783203">
<ele>3154</ele>
<time>2016-07-28T18:14:39Z</time>
</trkpt>
<trkpt lat="37.04096984863281" lon="-118.75720977783203">
<ele>3156</ele>
<time>2016-07-28T18:14:48Z</time>
</trkpt>
<trkpt lat="37.04087829589844" lon="-118.75718688964844">
<ele>3155</ele>
<time>2016-07-28T18:14:57Z</time>
</trkpt>
<trkpt lat="37.0407829284668" lon="-118.7572250366211">
<ele>3156</ele>
<time>2016-07-28T18:15:04Z</time>
</trkpt>
<trkpt lat="37.04073715209961" lon="-118.75720977783203">
<ele>3159</ele>
<time>2016-07-28T18:15:11Z</time>
</trkpt>
<trkpt lat="37.04064178466797" lon="-118.75715637207031">
<ele>3154</ele>
<time>2016-07-28T18:15:18Z</time>
</trkpt>
<trkpt lat="37.0405387878418" lon="-118.75716400146484">
<ele>3153</ele>
<time>2016-07-28T18:15:24Z</time>
</trkpt>
<trkpt lat="37.04044723510742" lon="-118.75717163085938">
<ele>3158</ele>
<time>2016-07-28T18:15:38Z</time>
</trkpt>
<trkpt lat="37.04035949707031" lon="-118.75720977783203">
<ele>3158</ele>
<time>2016-07-28T18:15:47Z</time>
</trkpt>
<trkpt lat="37.040260314941406" lon="-118.7572250366211">
<ele>3157</ele>
<time>2016-07-28T18:15:55Z</time>
</trkpt>
<trkpt lat="37.0401611328125" lon="-118.75725555419922">
<ele>3160</ele>
<time>2016-07-28T18:16:04Z</time>
</trkpt>
<trkpt lat="37.040130615234375" lon="-118.7572021484375">
<ele>3157</ele>
<time>2016-07-28T18:16:12Z</time>
</trkpt>
<trkpt lat="37.040035247802734" lon="-118.75717163085938">
<ele>3160</ele>
<time>2016-07-28T18:16:23Z</time>
</trkpt>
<trkpt lat="37.03993606567383" lon="-118.75714111328125">
<ele>3159</ele>
<time>2016-07-28T18:16:34Z</time>
</trkpt>
<trkpt lat="37.039833068847656" lon="-118.75712585449219">
<ele>3164</ele>
<time>2016-07-28T18:16:42Z</time>
</trkpt>
<trkpt lat="37.039791107177734" lon="-118.7571029663086">
<ele>3158</ele>
<time>2016-07-28T18:16:48Z</time>
</trkpt>
<trkpt lat="37.03972625732422" lon="-118.75701904296875">
<ele>3156</ele>
<time>2016-07-28T18:16:58Z</time>
</trkpt>
<trkpt lat="37.039676666259766" lon="-118.75701904296875">
<ele>3161</ele>
<time>2016-07-28T18:17:04Z</time>
</trkpt>
<trkpt lat="37.03963851928711" lon="-118.75698852539063">
<ele>3161</ele>
<time>2016-07-28T18:17:17Z</time>
</trkpt>
<trkpt lat="37.03956604003906" lon="-118.75689697265625">
<ele>3158</ele>
<time>2016-07-28T18:17:26Z</time>
</trkpt>
<trkpt lat="37.039512634277344" lon="-118.75679016113281">
<ele>3159</ele>
<time>2016-07-28T18:17:37Z</time>
</trkpt>
<trkpt lat="37.03945541381836" lon="-118.7567138671875">
<ele>3162</ele>
<time>2016-07-28T18:17:49Z</time>
</trkpt>
<trkpt lat="37.03938674926758" lon="-118.75662231445313">
<ele>3158</ele>
<time>2016-07-28T18:18:09Z</time>
</trkpt>
<trkpt lat="37.03929901123047" lon="-118.75660705566406">
<ele>3162</ele>
<time>2016-07-28T18:18:17Z</time>
</trkpt>
<trkpt lat="37.03921127319336" lon="-118.75665283203125">
<ele>3166</ele>
<time>2016-07-28T18:18:25Z</time>
</trkpt>
<trkpt lat="37.03911209106445" lon="-118.75662994384766">
<ele>3165</ele>
<time>2016-07-28T18:18:33Z</time>
</trkpt>
<trkpt lat="37.039031982421875" lon="-118.75662231445313">
<ele>3165</ele>
<time>2016-07-28T18:18:42Z</time>
</trkpt>
<trkpt lat="37.03895950317383" lon="-118.75653839111328">
<ele>3165</ele>
<time>2016-07-28T18:18:51Z</time>
</trkpt>
<trkpt lat="37.03886795043945" lon="-118.75646209716797">
<ele>3168</ele>
<time>2016-07-28T18:18:59Z</time>
</trkpt>
<trkpt lat="37.03879928588867" lon="-118.7563705444336">
<ele>3165</ele>
<time>2016-07-28T18:19:06Z</time>
</trkpt>
<trkpt lat="37.0386962890625" lon="-118.75635528564453">
<ele>3162</ele>
<time>2016-07-28T18:19:39Z</time>
</trkpt>
<trkpt lat="37.03860855102539" lon="-118.75625610351563">
<ele>3161</ele>
<time>2016-07-28T18:19:45Z</time>
</trkpt>
<trkpt lat="37.038570404052734" lon="-118.75621795654297">
<ele>3157</ele>
<time>2016-07-28T18:19:53Z</time>
</trkpt>
<trkpt lat="37.03847122192383" lon="-118.75618743896484">
<ele>3162</ele>
<time>2016-07-28T18:20:03Z</time>
</trkpt>
<trkpt lat="37.03837585449219" lon="-118.75614929199219">
<ele>3156</ele>
<time>2016-07-28T18:20:14Z</time>
</trkpt>
<trkpt lat="37.03828811645508" lon="-118.75609588623047">
<ele>3155</ele>
<time>2016-07-28T18:20:22Z</time>
</trkpt>
<trkpt lat="37.03819274902344" lon="-118.75606536865234">
<ele>3153</ele>
<time>2016-07-28T18:20:29Z</time>
</trkpt>
<trkpt lat="37.038108825683594" lon="-118.75598907470703">
<ele>3153</ele>
<time>2016-07-28T18:20:38Z</time>
</trkpt>
<trkpt lat="37.038063049316406" lon="-118.75589752197266">
<ele>3156</ele>
<time>2016-07-28T18:20:47Z</time>
</trkpt>
<trkpt lat="37.037986755371094" lon="-118.75582122802734">
<ele>3156</ele>
<time>2016-07-28T18:20:54Z</time>
</trkpt>
<trkpt lat="37.03788375854492" lon="-118.75575256347656">
<ele>3157</ele>
<time>2016-07-28T18:21:00Z</time>
</trkpt>
<trkpt lat="37.03774642944336" lon="-118.75569152832031">
<ele>3161</ele>
<time>2016-07-28T18:21:10Z</time>
</trkpt>
<trkpt lat="37.037723541259766" lon="-118.75564575195313">
<ele>3162</ele>
<time>2016-07-28T18:21:16Z</time>
</trkpt>
<trkpt lat="37.03763961791992" lon="-118.75556945800781">
<ele>3163</ele>
<time>2016-07-28T18:21:22Z</time>
</trkpt>
<trkpt lat="37.0376091003418" lon="-118.7555160522461">
<ele>3162</ele>
<time>2016-07-28T18:21:29Z</time>
</trkpt>
<trkpt lat="37.037513732910156" lon="-118.75548553466797">
<ele>3157</ele>
<time>2016-07-28T18:21:38Z</time>
</trkpt>
<trkpt lat="37.03743362426758" lon="-118.75542449951172">
<ele>3157</ele>
<time>2016-07-28T18:21:46Z</time>
</trkpt>
<trkpt lat="37.037353515625" lon="-118.75534057617188">
<ele>3159</ele>
<time>2016-07-28T18:22:00Z</time>
</trkpt>
<trkpt lat="37.03726577758789" lon="-118.7552719116211">
<ele>3160</ele>
<time>2016-07-28T18:22:11Z</time>
</trkpt>
<trkpt lat="37.03721618652344" lon="-118.7552490234375">
<ele>3159</ele>
<time>2016-07-28T18:22:17Z</time>
</trkpt>
<trkpt lat="37.037147521972656" lon="-118.75521850585938">
<ele>3171</ele>
<time>2016-07-28T18:22:31Z</time>
</trkpt>
<trkpt lat="37.03706741333008" lon="-118.75515747070313">
<ele>3171</ele>
<time>2016-07-28T18:22:40Z</time>
</trkpt>
<trkpt lat="37.03702926635742" lon="-118.75508880615234">
<ele>3169</ele>
<time>2016-07-28T18:22:48Z</time>
</trkpt>
<trkpt lat="37.0369758605957" lon="-118.75499725341797">
<ele>3167</ele>
<time>2016-07-28T18:22:58Z</time>
</trkpt>
<trkpt lat="37.036956787109375" lon="-118.75494384765625">
<ele>3167</ele>
<time>2016-07-28T18:23:06Z</time>
</trkpt>
<trkpt lat="37.03689956665039" lon="-118.75484466552734">
<ele>3168</ele>
<time>2016-07-28T18:23:18Z</time>
</trkpt>
<trkpt lat="37.036834716796875" lon="-118.75475311279297">
<ele>3165</ele>
<time>2016-07-28T18:23:30Z</time>
</trkpt>
<trkpt lat="37.03678512573242" lon="-118.75474548339844">
<ele>3167</ele>
<time>2016-07-28T18:23:37Z</time>
</trkpt>
<trkpt lat="37.036739349365234" lon="-118.75467681884766">
<ele>3171</ele>
<time>2016-07-28T18:23:47Z</time>
</trkpt>
<trkpt lat="37.03669738769531" lon="-118.754638671875">
<ele>3172</ele>
<time>2016-07-28T18:23:55Z</time>
</trkpt>
<trkpt lat="37.03668975830078" lon="-118.75457763671875">
<ele>3172</ele>
<time>2016-07-28T18:24:04Z</time>
</trkpt>
<trkpt lat="37.036712646484375" lon="-118.75452423095703">
<ele>3172</ele>
<time>2016-07-28T18:24:10Z</time>
</trkpt>
<trkpt lat="37.03672409057617" lon="-118.75447082519531">
<ele>3173</ele>
<time>2016-07-28T18:24:16Z</time>
</trkpt>
<trkpt lat="37.03666305541992" lon="-118.75437927246094">
<ele>3177</ele>
<time>2016-07-28T18:24:32Z</time>
</trkpt>
<trkpt lat="37.03661346435547" lon="-118.75434875488281">
<ele>3177</ele>
<time>2016-07-28T18:24:40Z</time>
</trkpt>
<trkpt lat="37.03656768798828" lon="-118.75432586669922">
<ele>3180</ele>
<time>2016-07-28T18:24:47Z</time>
</trkpt>
<trkpt lat="37.03647994995117" lon="-118.7542724609375">
<ele>3179</ele>
<time>2016-07-28T18:24:58Z</time>
</trkpt>
<trkpt lat="37.03639602661133" lon="-118.75420379638672">
<ele>3184</ele>
<time>2016-07-28T18:25:12Z</time>
</trkpt>
<trkpt lat="37.03635787963867" lon="-118.7541732788086">
<ele>3183</ele>
<time>2016-07-28T18:25:18Z</time>
</trkpt>
<trkpt lat="37.03633117675781" lon="-118.7541275024414">
<ele>3183</ele>
<time>2016-07-28T18:25:24Z</time>
</trkpt>
<trkpt lat="37.03623962402344" lon="-118.75411224365234">
<ele>3188</ele>
<time>2016-07-28T18:25:34Z</time>
</trkpt>
<trkpt lat="37.036190032958984" lon="-118.7541275024414">
<ele>3187</ele>
<time>2016-07-28T18:25:41Z</time>
</trkpt>
<trkpt lat="37.036136627197266" lon="-118.75410461425781">
<ele>3187</ele>
<time>2016-07-28T18:25:47Z</time>
</trkpt>
<trkpt lat="37.036067962646484" lon="-118.7540283203125">
<ele>3190</ele>
<time>2016-07-28T18:26:00Z</time>
</trkpt>
<trkpt lat="37.036048889160156" lon="-118.75397491455078">
<ele>3191</ele>
<time>2016-07-28T18:26:16Z</time>
</trkpt>
<trkpt lat="37.036048889160156" lon="-118.75390625">
<ele>3191</ele>
<time>2016-07-28T18:26:22Z</time>
</trkpt>
<trkpt lat="37.03600311279297" lon="-118.75389862060547">
<ele>3192</ele>
<time>2016-07-28T18:26:30Z</time>
</trkpt>
</trkseg>
</trk>
<trk>
<name><![CDATA[07281150]]></name>
<number>6</number>
<extensions><topografix:color>ff000066</topografix:color></extensions>
<trkseg>
<trkpt lat="37.03462600708008" lon="-118.74893951416016">
<ele>3282</ele>
<time>2016-07-28T18:51:01Z</time>
</trkpt>
<trkpt lat="37.034637451171875" lon="-118.7488784790039">
<ele>3284</ele>
<time>2016-07-28T18:51:21Z</time>
</trkpt>
<trkpt lat="37.034671783447266" lon="-118.74884033203125">
<ele>3283</ele>
<time>2016-07-28T18:51:35Z</time>
</trkpt>
<trkpt lat="37.03465270996094" lon="-118.74869537353516">
<ele>3287</ele>
<time>2016-07-28T18:51:45Z</time>
</trkpt>
<trkpt lat="37.0346565246582" lon="-118.7486343383789">
<ele>3290</ele>
<time>2016-07-28T18:51:52Z</time>
</trkpt>
<trkpt lat="37.03461837768555" lon="-118.74861145019531">
<ele>3286</ele>
<time>2016-07-28T18:51:59Z</time>
</trkpt>
<trkpt lat="37.034576416015625" lon="-118.74858856201172">
<ele>3287</ele>
<time>2016-07-28T18:52:06Z</time>
</trkpt>
<trkpt lat="37.03456115722656" lon="-118.74852752685547">
<ele>3284</ele>
<time>2016-07-28T18:52:18Z</time>
</trkpt>
<trkpt lat="37.03458786010742" lon="-118.74847412109375">
<ele>3285</ele>
<time>2016-07-28T18:52:25Z</time>
</trkpt>
<trkpt lat="37.03462219238281" lon="-118.7484359741211">
<ele>3289</ele>
<time>2016-07-28T18:52:36Z</time>
</trkpt>
<trkpt lat="37.034610748291016" lon="-118.74838256835938">
<ele>3293</ele>
<time>2016-07-28T18:52:51Z</time>
</trkpt>
<trkpt lat="37.03465270996094" lon="-118.74834442138672">
<ele>3298</ele>
<time>2016-07-28T18:53:02Z</time>
</trkpt>
<trkpt lat="37.03466796875" lon="-118.748291015625">
<ele>3299</ele>
<time>2016-07-28T18:53:18Z</time>
</trkpt>
<trkpt lat="37.03471374511719" lon="-118.7482681274414">
<ele>3303</ele>
<time>2016-07-28T18:53:29Z</time>
</trkpt>
<trkpt lat="37.034725189208984" lon="-118.74820709228516">
<ele>3303</ele>
<time>2016-07-28T18:53:38Z</time>
</trkpt>
<trkpt lat="37.03474044799805" lon="-118.7481460571289">
<ele>3306</ele>
<time>2016-07-28T18:53:51Z</time>
</trkpt>
<trkpt lat="37.03477096557617" lon="-118.74810028076172">
<ele>3307</ele>
<time>2016-07-28T18:54:01Z</time>
</trkpt>
<trkpt lat="37.034793853759766" lon="-118.748046875">
<ele>3307</ele>
<time>2016-07-28T18:54:07Z</time>
</trkpt>
<trkpt lat="37.034793853759766" lon="-118.74798583984375">
<ele>3307</ele>
<time>2016-07-28T18:54:15Z</time>
</trkpt>
<trkpt lat="37.034828186035156" lon="-118.74794006347656">
<ele>3313</ele>
<time>2016-07-28T18:54:32Z</time>
</trkpt>
<trkpt lat="37.03483963012695" lon="-118.74788665771484">
<ele>3314</ele>
<time>2016-07-28T18:54:54Z</time>
</trkpt>
<trkpt lat="37.03486251831055" lon="-118.74783325195313">
<ele>3314</ele>
<time>2016-07-28T18:55:15Z</time>
</trkpt>
<trkpt lat="37.03484344482422" lon="-118.7477798461914">
<ele>3315</ele>
<time>2016-07-28T18:55:22Z</time>
</trkpt>
<trkpt lat="37.03486251831055" lon="-118.74773406982422">
<ele>3317</ele>
<time>2016-07-28T18:55:29Z</time>
</trkpt>
<trkpt lat="37.03486251831055" lon="-118.74766540527344">
<ele>3318</ele>
<time>2016-07-28T18:55:49Z</time>
</trkpt>
<trkpt lat="37.034793853759766" lon="-118.7475814819336">
<ele>3320</ele>
<time>2016-07-28T18:55:57Z</time>
</trkpt>
<trkpt lat="37.03475570678711" lon="-118.74749755859375">
<ele>3323</ele>
<time>2016-07-28T18:56:13Z</time>
</trkpt>
<trkpt lat="37.03475570678711" lon="-118.74744415283203">
<ele>3326</ele>
<time>2016-07-28T18:56:23Z</time>
</trkpt>
<trkpt lat="37.03477096557617" lon="-118.74738311767578">
<ele>3325</ele>
<time>2016-07-28T18:56:33Z</time>
</trkpt>
<trkpt lat="37.034751892089844" lon="-118.74732971191406">
<ele>3325</ele>
<time>2016-07-28T18:56:44Z</time>
</trkpt>
<trkpt lat="37.03471755981445" lon="-118.74728393554688">
<ele>3326</ele>
<time>2016-07-28T18:56:54Z</time>
</trkpt>
<trkpt lat="37.03472137451172" lon="-118.74723052978516">
<ele>3327</ele>
<time>2016-07-28T18:57:01Z</time>
</trkpt>
<trkpt lat="37.034725189208984" lon="-118.7471694946289">
<ele>3327</ele>
<time>2016-07-28T18:57:08Z</time>
</trkpt>
<trkpt lat="37.034698486328125" lon="-118.74712371826172">
<ele>3329</ele>
<time>2016-07-28T18:57:18Z</time>
</trkpt>
<trkpt lat="37.03468704223633" lon="-118.7470703125">
<ele>3331</ele>
<time>2016-07-28T18:57:28Z</time>
</trkpt>
<trkpt lat="37.03466033935547" lon="-118.74701690673828">
<ele>3332</ele>
<time>2016-07-28T18:57:38Z</time>
</trkpt>
<trkpt lat="37.03469467163086" lon="-118.74697875976563">
<ele>3333</ele>
<time>2016-07-28T18:57:46Z</time>
</trkpt>
<trkpt lat="37.034690856933594" lon="-118.74691772460938">
<ele>3333</ele>
<time>2016-07-28T18:57:52Z</time>
</trkpt>
<trkpt lat="37.03474807739258" lon="-118.74689483642578">
<ele>3339</ele>
<time>2016-07-28T18:58:14Z</time>
</trkpt>
<trkpt lat="37.03470230102539" lon="-118.74687194824219">
<ele>3341</ele>
<time>2016-07-28T18:58:21Z</time>
</trkpt>
<trkpt lat="37.03466033935547" lon="-118.74683380126953">
<ele>3341</ele>
<time>2016-07-28T18:58:27Z</time>
</trkpt>
<trkpt lat="37.0346565246582" lon="-118.74678039550781">
<ele>3341</ele>
<time>2016-07-28T18:58:41Z</time>
</trkpt>
<trkpt lat="37.03466796875" lon="-118.74671936035156">
<ele>3347</ele>
<time>2016-07-28T18:59:00Z</time>
</trkpt>
<trkpt lat="37.03465270996094" lon="-118.74666595458984">
<ele>3349</ele>
<time>2016-07-28T18:59:15Z</time>
</trkpt>
<trkpt lat="37.03459930419922" lon="-118.74665069580078">
<ele>3351</ele>
<time>2016-07-28T18:59:21Z</time>
</trkpt>
<trkpt lat="37.034568786621094" lon="-118.74661254882813">
<ele>3357</ele>
<time>2016-07-28T18:59:32Z</time>
</trkpt>
<trkpt lat="37.0345344543457" lon="-118.74650573730469">
<ele>3354</ele>
<time>2016-07-28T18:59:46Z</time>
</trkpt>
<trkpt lat="37.03449630737305" lon="-118.74645233154297">
<ele>3357</ele>
<time>2016-07-28T18:59:52Z</time>
</trkpt>
<trkpt lat="37.034488677978516" lon="-118.746337890625">
<ele>3355</ele>
<time>2016-07-28T19:00:26Z</time>
</trkpt>
<trkpt lat="37.03449249267578" lon="-118.74627685546875">
<ele>3355</ele>
<time>2016-07-28T19:00:33Z</time>
</trkpt>
<trkpt lat="37.034488677978516" lon="-118.74620056152344">
<ele>3355</ele>
<time>2016-07-28T19:01:14Z</time>
</trkpt>
<trkpt lat="37.03445816040039" lon="-118.74615478515625">
<ele>3354</ele>
<time>2016-07-28T19:01:20Z</time>
</trkpt>
<trkpt lat="37.03438949584961" lon="-118.74606323242188">
<ele>3353</ele>
<time>2016-07-28T19:01:31Z</time>
</trkpt>
<trkpt lat="37.034358978271484" lon="-118.74601745605469">
<ele>3352</ele>
<time>2016-07-28T19:01:42Z</time>
</trkpt>
<trkpt lat="37.03435516357422" lon="-118.74595642089844">
<ele>3356</ele>
<time>2016-07-28T19:01:57Z</time>
</trkpt>
<trkpt lat="37.03435134887695" lon="-118.74586486816406">
<ele>3356</ele>
<time>2016-07-28T19:02:09Z</time>
</trkpt>
<trkpt lat="37.034339904785156" lon="-118.74580383300781">
<ele>3359</ele>
<time>2016-07-28T19:02:25Z</time>
</trkpt>
<trkpt lat="37.0343017578125" lon="-118.74575805664063">
<ele>3355</ele>
<time>2016-07-28T19:02:35Z</time>
</trkpt>
<trkpt lat="37.03429412841797" lon="-118.74569702148438">
<ele>3356</ele>
<time>2016-07-28T19:02:54Z</time>
</trkpt>
<trkpt lat="37.03427505493164" lon="-118.74559783935547">
<ele>3355</ele>
<time>2016-07-28T19:03:18Z</time>
</trkpt>
<trkpt lat="37.03424835205078" lon="-118.74555206298828">
<ele>3353</ele>
<time>2016-07-28T19:03:28Z</time>
</trkpt>
<trkpt lat="37.034210205078125" lon="-118.7455062866211">
<ele>3354</ele>
<time>2016-07-28T19:03:36Z</time>
</trkpt>
<trkpt lat="37.03420639038086" lon="-118.74544525146484">
<ele>3358</ele>
<time>2016-07-28T19:03:54Z</time>
</trkpt>
<trkpt lat="37.034141540527344" lon="-118.74535369873047">
<ele>3363</ele>
<time>2016-07-28T19:04:30Z</time>
</trkpt>
<trkpt lat="37.034149169921875" lon="-118.74529266357422">
<ele>3365</ele>
<time>2016-07-28T19:04:54Z</time>
</trkpt>
<trkpt lat="37.0341682434082" lon="-118.74522399902344">
<ele>3371</ele>
<time>2016-07-28T19:05:01Z</time>
</trkpt>
<trkpt lat="37.0341682434082" lon="-118.74517059326172">
<ele>3373</ele>
<time>2016-07-28T19:05:16Z</time>
</trkpt>
<trkpt lat="37.03416442871094" lon="-118.74510955810547">
<ele>3370</ele>
<time>2016-07-28T19:05:25Z</time>
</trkpt>
<trkpt lat="37.034088134765625" lon="-118.7450180053711">
<ele>3367</ele>
<time>2016-07-28T19:05:37Z</time>
</trkpt>
<trkpt lat="37.0340461730957" lon="-118.74498748779297">
<ele>3367</ele>
<time>2016-07-28T19:05:44Z</time>
</trkpt>
<trkpt lat="37.03400802612305" lon="-118.74495697021484">
<ele>3365</ele>
<time>2016-07-28T19:05:57Z</time>
</trkpt>
<trkpt lat="37.03398513793945" lon="-118.74488830566406">
<ele>3373</ele>
<time>2016-07-28T19:06:16Z</time>
</trkpt>
<trkpt lat="37.034000396728516" lon="-118.74483489990234">
<ele>3373</ele>
<time>2016-07-28T19:06:27Z</time>
</trkpt>
<trkpt lat="37.033966064453125" lon="-118.74479675292969">
<ele>3373</ele>
<time>2016-07-28T19:06:40Z</time>
</trkpt>
<trkpt lat="37.033912658691406" lon="-118.74476623535156">
<ele>3375</ele>
<time>2016-07-28T19:06:59Z</time>
</trkpt>
<trkpt lat="37.033851623535156" lon="-118.74472045898438">
<ele>3377</ele>
<time>2016-07-28T19:07:12Z</time>
</trkpt>
<trkpt lat="37.03386306762695" lon="-118.74466705322266">
<ele>3379</ele>
<time>2016-07-28T19:07:21Z</time>
</trkpt>
<trkpt lat="37.033836364746094" lon="-118.74461364746094">
<ele>3378</ele>
<time>2016-07-28T19:07:31Z</time>
</trkpt>
<trkpt lat="37.03385543823242" lon="-118.74456024169922">
<ele>3381</ele>
<time>2016-07-28T19:07:41Z</time>
</trkpt>
<trkpt lat="37.033790588378906" lon="-118.74451446533203">
<ele>3386</ele>
<time>2016-07-28T19:08:37Z</time>
</trkpt>
<trkpt lat="37.03378677368164" lon="-118.74446105957031">
<ele>3386</ele>
<time>2016-07-28T19:08:52Z</time>
</trkpt>
<trkpt lat="37.03373718261719" lon="-118.74440002441406">
<ele>3389</ele>
<time>2016-07-28T19:09:30Z</time>
</trkpt>
<trkpt lat="37.033756256103516" lon="-118.74434661865234">
<ele>3391</ele>
<time>2016-07-28T19:09:50Z</time>
</trkpt>
<trkpt lat="37.03377914428711" lon="-118.74430084228516">
<ele>3399</ele>
<time>2016-07-28T19:10:01Z</time>
</trkpt>
<trkpt lat="37.033756256103516" lon="-118.74424743652344">
<ele>3399</ele>
<time>2016-07-28T19:10:41Z</time>
</trkpt>
<trkpt lat="37.03372573852539" lon="-118.74414825439453">
<ele>3406</ele>
<time>2016-07-28T19:11:16Z</time>
</trkpt>
<trkpt lat="37.033695220947266" lon="-118.74410247802734">
<ele>3408</ele>
<time>2016-07-28T19:11:34Z</time>
</trkpt>
<trkpt lat="37.033660888671875" lon="-118.74406433105469">
<ele>3411</ele>
<time>2016-07-28T19:11:50Z</time>
</trkpt>
<trkpt lat="37.03364944458008" lon="-118.74400329589844">
<ele>3412</ele>
<time>2016-07-28T19:12:01Z</time>
</trkpt>
<trkpt lat="37.03361129760742" lon="-118.74398040771484">
<ele>3417</ele>
<time>2016-07-28T19:12:30Z</time>
</trkpt>
<trkpt lat="37.033607482910156" lon="-118.74391174316406">
<ele>3413</ele>
<time>2016-07-28T19:12:39Z</time>
</trkpt>
<trkpt lat="37.03361892700195" lon="-118.74385833740234">
<ele>3417</ele>
<time>2016-07-28T19:12:54Z</time>
</trkpt>
<trkpt lat="37.033599853515625" lon="-118.74378204345703">
<ele>3426</ele>
<time>2016-07-28T19:13:18Z</time>
</trkpt>
<trkpt lat="37.033592224121094" lon="-118.74372100830078">
<ele>3422</ele>
<time>2016-07-28T19:13:42Z</time>
</trkpt>
<trkpt lat="37.03361892700195" lon="-118.7436752319336">
<ele>3423</ele>
<time>2016-07-28T19:13:52Z</time>
</trkpt>
<trkpt lat="37.03364181518555" lon="-118.7436294555664">
<ele>3436</ele>
<time>2016-07-28T19:14:16Z</time>
</trkpt>
<trkpt lat="37.0337028503418" lon="-118.74356842041016">
<ele>3445</ele>
<time>2016-07-28T19:15:57Z</time>
</trkpt>
<trkpt lat="37.033668518066406" lon="-118.74351501464844">
<ele>3441</ele>
<time>2016-07-28T19:16:13Z</time>
</trkpt>
<trkpt lat="37.033634185791016" lon="-118.74347686767578">
<ele>3439</ele>
<time>2016-07-28T19:16:21Z</time>
</trkpt>
<trkpt lat="37.03368377685547" lon="-118.74349212646484">
<ele>3445</ele>
<time>2016-07-28T19:16:38Z</time>
</trkpt>
<trkpt lat="37.033714294433594" lon="-118.74341583251953">
<ele>3447</ele>
<time>2016-07-28T19:17:39Z</time>
</trkpt>
<trkpt lat="37.033790588378906" lon="-118.74339294433594">
<ele>3451</ele>
<time>2016-07-28T19:18:13Z</time>
</trkpt>
<trkpt lat="37.03384017944336" lon="-118.7433853149414">
<ele>3455</ele>
<time>2016-07-28T19:18:26Z</time>
</trkpt>
<trkpt lat="37.0338134765625" lon="-118.74333953857422">
<ele>3468</ele>
<time>2016-07-28T19:18:49Z</time>
</trkpt>
<trkpt lat="37.033756256103516" lon="-118.7432861328125">
<ele>3462</ele>
<time>2016-07-28T19:19:46Z</time>
</trkpt>
<trkpt lat="37.0336799621582" lon="-118.74327087402344">
<ele>3462</ele>
<time>2016-07-28T19:20:26Z</time>
</trkpt>
<trkpt lat="37.03364181518555" lon="-118.74324798583984">
<ele>3462</ele>
<time>2016-07-28T19:20:42Z</time>
</trkpt>
<trkpt lat="37.033573150634766" lon="-118.74320983886719">
<ele>3467</ele>
<time>2016-07-28T19:21:36Z</time>
</trkpt>
<trkpt lat="37.03352355957031" lon="-118.74320983886719">
<ele>3474</ele>
<time>2016-07-28T19:21:50Z</time>
</trkpt>
<trkpt lat="37.033477783203125" lon="-118.74320983886719">
<ele>3476</ele>
<time>2016-07-28T19:22:32Z</time>
</trkpt>
<trkpt lat="37.033443450927734" lon="-118.74317169189453">
<ele>3477</ele>
<time>2016-07-28T19:22:41Z</time>
</trkpt>
<trkpt lat="37.03339767456055" lon="-118.7431411743164">
<ele>3481</ele>
<time>2016-07-28T19:22:59Z</time>
</trkpt>
<trkpt lat="37.033355712890625" lon="-118.74310302734375">
<ele>3488</ele>
<time>2016-07-28T19:23:46Z</time>
</trkpt>
<trkpt lat="37.03330993652344" lon="-118.74308013916016">
<ele>3487</ele>
<time>2016-07-28T19:23:57Z</time>
</trkpt>
<trkpt lat="37.03326416015625" lon="-118.74302673339844">
<ele>3491</ele>
<time>2016-07-28T19:24:44Z</time>
</trkpt>
<trkpt lat="37.03322219848633" lon="-118.74301147460938">
<ele>3493</ele>
<time>2016-07-28T19:24:53Z</time>
</trkpt>
<trkpt lat="37.03317642211914" lon="-118.74298858642578">
<ele>3497</ele>
<time>2016-07-28T19:25:01Z</time>
</trkpt>
<trkpt lat="37.03312683105469" lon="-118.74299621582031">
<ele>3495</ele>
<time>2016-07-28T19:25:40Z</time>
</trkpt>
<trkpt lat="37.033084869384766" lon="-118.74288940429688">
<ele>3500</ele>
<time>2016-07-28T19:25:49Z</time>
</trkpt>
<trkpt lat="37.03302764892578" lon="-118.74278259277344">
<ele>3499</ele>
<time>2016-07-28T19:26:00Z</time>
</trkpt>
<trkpt lat="37.03300094604492" lon="-118.74272155761719">
<ele>3500</ele>
<time>2016-07-28T19:26:06Z</time>
</trkpt>
<trkpt lat="37.032936096191406" lon="-118.74263763427734">
<ele>3499</ele>
<time>2016-07-28T19:26:15Z</time>
</trkpt>
<trkpt lat="37.03287124633789" lon="-118.7425308227539">
<ele>3498</ele>
<time>2016-07-28T19:26:25Z</time>
</trkpt>
<trkpt lat="37.03281021118164" lon="-118.742431640625">
<ele>3498</ele>
<time>2016-07-28T19:26:35Z</time>
</trkpt>
<trkpt lat="37.032779693603516" lon="-118.74239349365234">
<ele>3499</ele>
<time>2016-07-28T19:26:41Z</time>
</trkpt>
<trkpt lat="37.032745361328125" lon="-118.74234771728516">
<ele>3499</ele>
<time>2016-07-28T19:26:47Z</time>
</trkpt>
<trkpt lat="37.03270721435547" lon="-118.74231719970703">
<ele>3500</ele>
<time>2016-07-28T19:26:54Z</time>
</trkpt>
<trkpt lat="37.03264617919922" lon="-118.74227905273438">
<ele>3502</ele>
<time>2016-07-28T19:27:01Z</time>
</trkpt>
<trkpt lat="37.03260803222656" lon="-118.74223327636719">
<ele>3502</ele>
<time>2016-07-28T19:27:07Z</time>
</trkpt>
<trkpt lat="37.0325813293457" lon="-118.74217987060547">
<ele>3503</ele>
<time>2016-07-28T19:27:14Z</time>
</trkpt>
<trkpt lat="37.03251647949219" lon="-118.74209594726563">
<ele>3502</ele>
<time>2016-07-28T19:27:25Z</time>
</trkpt>
<trkpt lat="37.03245544433594" lon="-118.74198913574219">
<ele>3502</ele>
<time>2016-07-28T19:27:35Z</time>
</trkpt>
<trkpt lat="37.03242874145508" lon="-118.74192810058594">
<ele>3501</ele>
<time>2016-07-28T19:27:41Z</time>
</trkpt>
<trkpt lat="37.03237533569336" lon="-118.74189758300781">
<ele>3500</ele>
<time>2016-07-28T19:27:59Z</time>
</trkpt>
<trkpt lat="37.032325744628906" lon="-118.74191284179688">
<ele>3498</ele>
<time>2016-07-28T19:28:26Z</time>
</trkpt>
<trkpt lat="37.03232192993164" lon="-118.7417984008789">
<ele>3496</ele>
<time>2016-07-28T19:28:36Z</time>
</trkpt>
<trkpt lat="37.03233337402344" lon="-118.74168395996094">
<ele>3499</ele>
<time>2016-07-28T19:28:48Z</time>
</trkpt>
<trkpt lat="37.032291412353516" lon="-118.74170684814453">
<ele>3491</ele>
<time>2016-07-28T19:28:59Z</time>
</trkpt>
<trkpt lat="37.03235626220703" lon="-118.74163055419922">
<ele>3497</ele>
<time>2016-07-28T19:29:56Z</time>
</trkpt>
<trkpt lat="37.03240966796875" lon="-118.74156188964844">
<ele>3504</ele>
<time>2016-07-28T19:30:15Z</time>
</trkpt>
<trkpt lat="37.0324592590332" lon="-118.74156188964844">
<ele>3506</ele>
<time>2016-07-28T19:30:21Z</time>
</trkpt>
<trkpt lat="37.03250503540039" lon="-118.74154663085938">
<ele>3508</ele>
<time>2016-07-28T19:30:27Z</time>
</trkpt>
<trkpt lat="37.032554626464844" lon="-118.74153137207031">
<ele>3509</ele>
<time>2016-07-28T19:30:37Z</time>
</trkpt>
<trkpt lat="37.032588958740234" lon="-118.74148559570313">
<ele>3512</ele>
<time>2016-07-28T19:30:44Z</time>
</trkpt>
<trkpt lat="37.03264617919922" lon="-118.74143981933594">
<ele>3512</ele>
<time>2016-07-28T19:31:09Z</time>
</trkpt>
<trkpt lat="37.032691955566406" lon="-118.74143981933594">
<ele>3513</ele>
<time>2016-07-28T19:31:15Z</time>
</trkpt>
<trkpt lat="37.03272247314453" lon="-118.74139404296875">
<ele>3513</ele>
<time>2016-07-28T19:31:22Z</time>
</trkpt>
<trkpt lat="37.032772064208984" lon="-118.74136352539063">
<ele>3511</ele>
<time>2016-07-28T19:31:31Z</time>
</trkpt>
<trkpt lat="37.03281784057617" lon="-118.74134063720703">
<ele>3514</ele>
<time>2016-07-28T19:31:38Z</time>
</trkpt>
<trkpt lat="37.03287887573242" lon="-118.74128723144531">
<ele>3515</ele>
<time>2016-07-28T19:32:07Z</time>
</trkpt>
<trkpt lat="37.03292465209961" lon="-118.74125671386719">
<ele>3520</ele>
<time>2016-07-28T19:32:14Z</time>
</trkpt>
<trkpt lat="37.03294372558594" lon="-118.74120330810547">
<ele>3524</ele>
<time>2016-07-28T19:32:21Z</time>
</trkpt>
<trkpt lat="37.03295135498047" lon="-118.74114990234375">
<ele>3526</ele>
<time>2016-07-28T19:32:28Z</time>
</trkpt>
<trkpt lat="37.03299331665039" lon="-118.74111938476563">
<ele>3527</ele>
<time>2016-07-28T19:32:36Z</time>
</trkpt>
<trkpt lat="37.033042907714844" lon="-118.7410888671875">
<ele>3527</ele>
<time>2016-07-28T19:32:47Z</time>
</trkpt>
<trkpt lat="37.0330924987793" lon="-118.74110412597656">
<ele>3528</ele>
<time>2016-07-28T19:32:57Z</time>
</trkpt>
<trkpt lat="37.033164978027344" lon="-118.7410659790039">
<ele>3529</ele>
<time>2016-07-28T19:33:08Z</time>
</trkpt>
<trkpt lat="37.03316879272461" lon="-118.74101257324219">
<ele>3530</ele>
<time>2016-07-28T19:33:16Z</time>
</trkpt>
<trkpt lat="37.033164978027344" lon="-118.74095153808594">
<ele>3529</ele>
<time>2016-07-28T19:33:26Z</time>
</trkpt>
<trkpt lat="37.03316879272461" lon="-118.74089050292969">
<ele>3530</ele>
<time>2016-07-28T19:33:37Z</time>
</trkpt>
<trkpt lat="37.033180236816406" lon="-118.74078369140625">
<ele>3535</ele>
<time>2016-07-28T19:33:50Z</time>
</trkpt>
<trkpt lat="37.03318405151367" lon="-118.74066162109375">
<ele>3534</ele>
<time>2016-07-28T19:34:01Z</time>
</trkpt>
<trkpt lat="37.03318786621094" lon="-118.74059295654297">
<ele>3534</ele>
<time>2016-07-28T19:34:09Z</time>
</trkpt>
<trkpt lat="37.033199310302734" lon="-118.740478515625">
<ele>3533</ele>
<time>2016-07-28T19:34:21Z</time>
</trkpt>
<trkpt lat="37.03318786621094" lon="-118.74041748046875">
<ele>3533</ele>
<time>2016-07-28T19:34:37Z</time>
</trkpt>
<trkpt lat="37.03315353393555" lon="-118.74030303955078">
<ele>3534</ele>
<time>2016-07-28T19:34:47Z</time>
</trkpt>
<trkpt lat="37.03314971923828" lon="-118.74024200439453">
<ele>3537</ele>
<time>2016-07-28T19:34:55Z</time>
</trkpt>
<trkpt lat="37.03314971923828" lon="-118.74017333984375">
<ele>3538</ele>
<time>2016-07-28T19:35:01Z</time>
</trkpt>
<trkpt lat="37.033164978027344" lon="-118.7401123046875">
<ele>3538</ele>
<time>2016-07-28T19:35:07Z</time>
</trkpt>
<trkpt lat="37.03314208984375" lon="-118.74005889892578">
<ele>3539</ele>
<time>2016-07-28T19:35:14Z</time>
</trkpt>
<trkpt lat="37.03312683105469" lon="-118.74000549316406">
<ele>3541</ele>
<time>2016-07-28T19:35:27Z</time>
</trkpt>
<trkpt lat="37.033145904541016" lon="-118.73995208740234">
<ele>3540</ele>
<time>2016-07-28T19:35:40Z</time>
</trkpt>
<trkpt lat="37.03313446044922" lon="-118.73989868164063">
<ele>3541</ele>
<time>2016-07-28T19:35:49Z</time>
</trkpt>
<trkpt lat="37.03309631347656" lon="-118.73979949951172">
<ele>3541</ele>
<time>2016-07-28T19:36:17Z</time>
</trkpt>
<trkpt lat="37.033050537109375" lon="-118.7397689819336">
<ele>3544</ele>
<time>2016-07-28T19:36:24Z</time>
</trkpt>
<trkpt lat="37.03300476074219" lon="-118.73975372314453">
<ele>3546</ele>
<time>2016-07-28T19:36:34Z</time>
</trkpt>
<trkpt lat="37.03299331665039" lon="-118.73969268798828">
<ele>3546</ele>
<time>2016-07-28T19:36:44Z</time>
</trkpt>
<trkpt lat="37.0329704284668" lon="-118.7396469116211">
<ele>3549</ele>
<time>2016-07-28T19:36:53Z</time>
</trkpt>
<trkpt lat="37.03295135498047" lon="-118.73959350585938">
<ele>3549</ele>
<time>2016-07-28T19:37:00Z</time>
</trkpt>
<trkpt lat="37.03291702270508" lon="-118.73954010009766">
<ele>3549</ele>
<time>2016-07-28T19:37:11Z</time>
</trkpt>
<trkpt lat="37.03288269042969" lon="-118.73949432373047">
<ele>3550</ele>
<time>2016-07-28T19:37:28Z</time>
</trkpt>
<trkpt lat="37.0328483581543" lon="-118.73946380615234">
<ele>3549</ele>
<time>2016-07-28T19:37:35Z</time>
</trkpt>
<trkpt lat="37.03282165527344" lon="-118.73941040039063">
<ele>3547</ele>
<time>2016-07-28T19:37:41Z</time>
</trkpt>
<trkpt lat="37.03281021118164" lon="-118.7393569946289">
<ele>3548</ele>
<time>2016-07-28T19:37:53Z</time>
</trkpt>
<trkpt lat="37.032779693603516" lon="-118.73929595947266">
<ele>3552</ele>
<time>2016-07-28T19:38:21Z</time>
</trkpt>
<trkpt lat="37.032737731933594" lon="-118.7392578125">
<ele>3551</ele>
<time>2016-07-28T19:38:28Z</time>
</trkpt>
<trkpt lat="37.032691955566406" lon="-118.73924255371094">
<ele>3548</ele>
<time>2016-07-28T19:38:40Z</time>
</trkpt>
<trkpt lat="37.0327033996582" lon="-118.73916625976563">
<ele>3546</ele>
<time>2016-07-28T19:39:22Z</time>
</trkpt>
<trkpt lat="37.03266143798828" lon="-118.73912811279297">
<ele>3544</ele>
<time>2016-07-28T19:39:37Z</time>
</trkpt>
<trkpt lat="37.032649993896484" lon="-118.73907470703125">
<ele>3547</ele>
<time>2016-07-28T19:39:49Z</time>
</trkpt>
<trkpt lat="37.03264236450195" lon="-118.73900604248047">
<ele>3547</ele>
<time>2016-07-28T19:39:59Z</time>
</trkpt>
<trkpt lat="37.03266906738281" lon="-118.73896026611328">
<ele>3554</ele>
<time>2016-07-28T19:40:29Z</time>
</trkpt>
<trkpt lat="37.03264617919922" lon="-118.7389144897461">
<ele>3557</ele>
<time>2016-07-28T19:40:38Z</time>
</trkpt>
<trkpt lat="37.03260040283203" lon="-118.73889923095703">
<ele>3556</ele>
<time>2016-07-28T19:40:50Z</time>
</trkpt>
<trkpt lat="37.03258514404297" lon="-118.73884582519531">
<ele>3557</ele>
<time>2016-07-28T19:40:57Z</time>
</trkpt>
<trkpt lat="37.0326042175293" lon="-118.7387924194336">
<ele>3559</ele>
<time>2016-07-28T19:41:15Z</time>
</trkpt>
<trkpt lat="37.032588958740234" lon="-118.73873901367188">
<ele>3562</ele>
<time>2016-07-28T19:41:35Z</time>
</trkpt>
<trkpt lat="37.03255844116211" lon="-118.73869323730469">
<ele>3562</ele>
<time>2016-07-28T19:41:45Z</time>
</trkpt>
<trkpt lat="37.03251647949219" lon="-118.73865509033203">
<ele>3556</ele>
<time>2016-07-28T19:42:08Z</time>
</trkpt>
<trkpt lat="37.032474517822266" lon="-118.73861694335938">
<ele>3558</ele>
<time>2016-07-28T19:42:23Z</time>
</trkpt>
<trkpt lat="37.03243637084961" lon="-118.7385482788086">
<ele>3564</ele>
<time>2016-07-28T19:42:54Z</time>
</trkpt>
<trkpt lat="37.03239440917969" lon="-118.7385025024414">
<ele>3567</ele>
<time>2016-07-28T19:43:27Z</time>
</trkpt>
<trkpt lat="37.03237533569336" lon="-118.73844909667969">
<ele>3572</ele>
<time>2016-07-28T19:43:48Z</time>
</trkpt>
<trkpt lat="37.0323371887207" lon="-118.73835754394531">
<ele>3576</ele>
<time>2016-07-28T19:44:16Z</time>
</trkpt>
<trkpt lat="37.03229522705078" lon="-118.73833465576172">
<ele>3576</ele>
<time>2016-07-28T19:44:39Z</time>
</trkpt>
<trkpt lat="37.03227996826172" lon="-118.73828125">
<ele>3578</ele>
<time>2016-07-28T19:44:54Z</time>
</trkpt>
<trkpt lat="37.03224182128906" lon="-118.73824310302734">
<ele>3582</ele>
<time>2016-07-28T19:45:35Z</time>
</trkpt>
<trkpt lat="37.0322151184082" lon="-118.73818969726563">
<ele>3581</ele>
<time>2016-07-28T19:45:59Z</time>
</trkpt>
<trkpt lat="37.0322380065918" lon="-118.73812866210938">
<ele>3581</ele>
<time>2016-07-28T19:46:15Z</time>
</trkpt>
<trkpt lat="37.03227615356445" lon="-118.73809051513672">
<ele>3586</ele>
<time>2016-07-28T19:46:46Z</time>
</trkpt>
<trkpt lat="37.03232955932617" lon="-118.73804473876953">
<ele>3593</ele>
<time>2016-07-28T19:47:16Z</time>
</trkpt>
<trkpt lat="37.03236770629883" lon="-118.7380142211914">
<ele>3593</ele>
<time>2016-07-28T19:47:30Z</time>
</trkpt>
<trkpt lat="37.032379150390625" lon="-118.73795318603516">
<ele>3596</ele>
<time>2016-07-28T19:47:49Z</time>
</trkpt>
<trkpt lat="37.03239440917969" lon="-118.7378921508789">
<ele>3600</ele>
<time>2016-07-28T19:48:17Z</time>
</trkpt>
<trkpt lat="37.032440185546875" lon="-118.73788452148438">
<ele>3602</ele>
<time>2016-07-28T19:48:36Z</time>
</trkpt>
<trkpt lat="37.03240203857422" lon="-118.73785400390625">
<ele>3604</ele>
<time>2016-07-28T19:48:56Z</time>
</trkpt>
<trkpt lat="37.032344818115234" lon="-118.73780059814453">
<ele>3607</ele>
<time>2016-07-28T19:49:09Z</time>
</trkpt>
<trkpt lat="37.03229522705078" lon="-118.73779296875">
<ele>3605</ele>
<time>2016-07-28T19:49:38Z</time>
</trkpt>
<trkpt lat="37.032249450683594" lon="-118.73774719238281">
<ele>3611</ele>
<time>2016-07-28T19:50:01Z</time>
</trkpt>
<trkpt lat="37.032222747802734" lon="-118.73770141601563">
<ele>3613</ele>
<time>2016-07-28T19:50:11Z</time>
</trkpt>
<trkpt lat="37.03218460083008" lon="-118.7376708984375">
<ele>3612</ele>
<time>2016-07-28T19:50:28Z</time>
</trkpt>
<trkpt lat="37.03214645385742" lon="-118.73763275146484">
<ele>3615</ele>
<time>2016-07-28T19:50:46Z</time>
</trkpt>
<trkpt lat="37.0320930480957" lon="-118.73760986328125">
<ele>3628</ele>
<time>2016-07-28T19:52:01Z</time>
</trkpt>
<trkpt lat="37.032108306884766" lon="-118.73755645751953">
<ele>3628</ele>
<time>2016-07-28T19:52:15Z</time>
</trkpt>
<trkpt lat="37.03211975097656" lon="-118.73750305175781">
<ele>3627</ele>
<time>2016-07-28T19:52:30Z</time>
</trkpt>
<trkpt lat="37.03206253051758" lon="-118.73748016357422">
<ele>3626</ele>
<time>2016-07-28T19:52:36Z</time>
</trkpt>
<trkpt lat="37.03208541870117" lon="-118.7374267578125">
<ele>3631</ele>
<time>2016-07-28T19:52:59Z</time>
</trkpt>
<trkpt lat="37.03202819824219" lon="-118.73738861083984">
<ele>3627</ele>
<time>2016-07-28T19:53:06Z</time>
</trkpt>
<trkpt lat="37.031982421875" lon="-118.73738098144531">
<ele>3631</ele>
<time>2016-07-28T19:53:26Z</time>
</trkpt>
<trkpt lat="37.03194808959961" lon="-118.73734283447266">
<ele>3633</ele>
<time>2016-07-28T19:53:56Z</time>
</trkpt>
<trkpt lat="37.03187942504883" lon="-118.7372817993164">
<ele>3634</ele>
<time>2016-07-28T19:54:11Z</time>
</trkpt>
<trkpt lat="37.031837463378906" lon="-118.73724365234375">
<ele>3633</ele>
<time>2016-07-28T19:54:20Z</time>
</trkpt>
<trkpt lat="37.03179931640625" lon="-118.7372055053711">
<ele>3633</ele>
<time>2016-07-28T19:54:32Z</time>
</trkpt>
<trkpt lat="37.031761169433594" lon="-118.7371597290039">
<ele>3634</ele>
<time>2016-07-28T19:54:39Z</time>
</trkpt>
<trkpt lat="37.031742095947266" lon="-118.73703002929688">
<ele>3639</ele>
<time>2016-07-28T19:55:07Z</time>
</trkpt>
<trkpt lat="37.03173065185547" lon="-118.73697662353516">
<ele>3638</ele>
<time>2016-07-28T19:55:41Z</time>
</trkpt>
<trkpt lat="37.031742095947266" lon="-118.73690795898438">
<ele>3636</ele>
<time>2016-07-28T19:55:53Z</time>
</trkpt>
<trkpt lat="37.03181838989258" lon="-118.73684692382813">
<ele>3644</ele>
<time>2016-07-28T19:56:07Z</time>
</trkpt>
<trkpt lat="37.03185272216797" lon="-118.73680877685547">
<ele>3643</ele>
<time>2016-07-28T19:56:13Z</time>
</trkpt>
<trkpt lat="37.031829833984375" lon="-118.73675537109375">
<ele>3640</ele>
<time>2016-07-28T19:56:25Z</time>
</trkpt>
<trkpt lat="37.031837463378906" lon="-118.7366943359375">
<ele>3640</ele>
<time>2016-07-28T19:56:34Z</time>
</trkpt>
<trkpt lat="37.031803131103516" lon="-118.73664855957031">
<ele>3636</ele>
<time>2016-07-28T19:56:42Z</time>
</trkpt>
<trkpt lat="37.03180694580078" lon="-118.7365951538086">
<ele>3632</ele>
<time>2016-07-28T19:56:51Z</time>
</trkpt>
<trkpt lat="37.03183364868164" lon="-118.73651123046875">
<ele>3632</ele>
<time>2016-07-28T19:57:05Z</time>
</trkpt>
<trkpt lat="37.03181457519531" lon="-118.73645782470703">
<ele>3630</ele>
<time>2016-07-28T19:57:14Z</time>
</trkpt>
<trkpt lat="37.03181838989258" lon="-118.73639678955078">
<ele>3629</ele>
<time>2016-07-28T19:58:00Z</time>
</trkpt>
<trkpt lat="37.03181076049805" lon="-118.73632049560547">
<ele>3628</ele>
<time>2016-07-28T19:58:19Z</time>
</trkpt>
<trkpt lat="37.03181076049805" lon="-118.73626708984375">
<ele>3627</ele>
<time>2016-07-28T19:58:25Z</time>
</trkpt>
<trkpt lat="37.03181838989258" lon="-118.7362060546875">
<ele>3627</ele>
<time>2016-07-28T19:58:31Z</time>
</trkpt>
<trkpt lat="37.03179168701172" lon="-118.73616027832031">
<ele>3623</ele>
<time>2016-07-28T19:58:47Z</time>
</trkpt>
<trkpt lat="37.03181457519531" lon="-118.73609924316406">
<ele>3629</ele>
<time>2016-07-28T19:58:57Z</time>
</trkpt>
<trkpt lat="37.03181838989258" lon="-118.73600006103516">
<ele>3628</ele>
<time>2016-07-28T19:59:09Z</time>
</trkpt>
<trkpt lat="37.03179168701172" lon="-118.73594665527344">
<ele>3625</ele>
<time>2016-07-28T19:59:15Z</time>
</trkpt>
<trkpt lat="37.031795501708984" lon="-118.73589324951172">
<ele>3625</ele>
<time>2016-07-28T19:59:27Z</time>
</trkpt>
<trkpt lat="37.0317497253418" lon="-118.73580169677734">
<ele>3623</ele>
<time>2016-07-28T19:59:48Z</time>
</trkpt>
<trkpt lat="37.03173065185547" lon="-118.7357406616211">
<ele>3623</ele>
<time>2016-07-28T19:59:54Z</time>
</trkpt>
<trkpt lat="37.03169250488281" lon="-118.73566436767578">
<ele>3624</ele>
<time>2016-07-28T20:00:01Z</time>
</trkpt>
<trkpt lat="37.031700134277344" lon="-118.73560333251953">
<ele>3626</ele>
<time>2016-07-28T20:00:07Z</time>
</trkpt>
<trkpt lat="37.031700134277344" lon="-118.73553466796875">
<ele>3626</ele>
<time>2016-07-28T20:00:14Z</time>
</trkpt>
<trkpt lat="37.031681060791016" lon="-118.73542022705078">
<ele>3627</ele>
<time>2016-07-28T20:00:35Z</time>
</trkpt>
<trkpt lat="37.03165054321289" lon="-118.73530578613281">
<ele>3626</ele>
<time>2016-07-28T20:00:45Z</time>
</trkpt>
<trkpt lat="37.031639099121094" lon="-118.7352523803711">
<ele>3627</ele>
<time>2016-07-28T20:00:51Z</time>
</trkpt>
<trkpt lat="37.031620025634766" lon="-118.73519134521484">
<ele>3628</ele>
<time>2016-07-28T20:00:57Z</time>
</trkpt>
<trkpt lat="37.03158187866211" lon="-118.73509216308594">
<ele>3628</ele>
<time>2016-07-28T20:01:07Z</time>
</trkpt>
<trkpt lat="37.03156280517578" lon="-118.73503875732422">
<ele>3628</ele>
<time>2016-07-28T20:01:13Z</time>
</trkpt>
<trkpt lat="37.03153991699219" lon="-118.7349853515625">
<ele>3629</ele>
<time>2016-07-28T20:01:21Z</time>
</trkpt>
<trkpt lat="37.031517028808594" lon="-118.73492431640625">
<ele>3629</ele>
<time>2016-07-28T20:01:27Z</time>
</trkpt>
<trkpt lat="37.031497955322266" lon="-118.73487091064453">
<ele>3629</ele>
<time>2016-07-28T20:01:39Z</time>
</trkpt>
<trkpt lat="37.03148651123047" lon="-118.73480987548828">
<ele>3630</ele>
<time>2016-07-28T20:01:48Z</time>
</trkpt>
<trkpt lat="37.031463623046875" lon="-118.73471069335938">
<ele>3635</ele>
<time>2016-07-28T20:02:14Z</time>
</trkpt>
<trkpt lat="37.03144073486328" lon="-118.73465728759766">
<ele>3635</ele>
<time>2016-07-28T20:02:30Z</time>
</trkpt>
<trkpt lat="37.031410217285156" lon="-118.73461151123047">
<ele>3636</ele>
<time>2016-07-28T20:02:40Z</time>
</trkpt>
<trkpt lat="37.03134536743164" lon="-118.73453521728516">
<ele>3638</ele>
<time>2016-07-28T20:03:11Z</time>
</trkpt>
<trkpt lat="37.031314849853516" lon="-118.73448944091797">
<ele>3639</ele>
<time>2016-07-28T20:03:17Z</time>
</trkpt>
<trkpt lat="37.031288146972656" lon="-118.73444366455078">
<ele>3639</ele>
<time>2016-07-28T20:03:33Z</time>
</trkpt>
<trkpt lat="37.03126525878906" lon="-118.73438262939453">
<ele>3639</ele>
<time>2016-07-28T20:03:41Z</time>
</trkpt>
<trkpt lat="37.031253814697266" lon="-118.73429870605469">
<ele>3643</ele>
<time>2016-07-28T20:04:10Z</time>
</trkpt>
<trkpt lat="37.031227111816406" lon="-118.7342529296875">
<ele>3643</ele>
<time>2016-07-28T20:04:18Z</time>
</trkpt>
<trkpt lat="37.03120803833008" lon="-118.73419189453125">
<ele>3646</ele>
<time>2016-07-28T20:04:38Z</time>
</trkpt>
<trkpt lat="37.03117370605469" lon="-118.7341537475586">
<ele>3647</ele>
<time>2016-07-28T20:04:53Z</time>
</trkpt>
<trkpt lat="37.03114700317383" lon="-118.7341079711914">
<ele>3648</ele>
<time>2016-07-28T20:05:01Z</time>
</trkpt>
<trkpt lat="37.031124114990234" lon="-118.73405456542969">
<ele>3650</ele>
<time>2016-07-28T20:05:39Z</time>
</trkpt>
<trkpt lat="37.031097412109375" lon="-118.73400115966797">
<ele>3653</ele>
<time>2016-07-28T20:05:51Z</time>
</trkpt>
<trkpt lat="37.03107452392578" lon="-118.7339096069336">
<ele>3655</ele>
<time>2016-07-28T20:06:15Z</time>
</trkpt>
<trkpt lat="37.03104019165039" lon="-118.73387145996094">
<ele>3655</ele>
<time>2016-07-28T20:06:23Z</time>
</trkpt>
<trkpt lat="37.031005859375" lon="-118.73382568359375">
<ele>3655</ele>
<time>2016-07-28T20:06:29Z</time>
</trkpt>
<trkpt lat="37.03099060058594" lon="-118.73377227783203">
<ele>3656</ele>
<time>2016-07-28T20:06:42Z</time>
</trkpt>
<trkpt lat="37.03095245361328" lon="-118.7337417602539">
<ele>3656</ele>
<time>2016-07-28T20:06:49Z</time>
</trkpt>
<trkpt lat="37.03091049194336" lon="-118.7336654663086">
<ele>3660</ele>
<time>2016-07-28T20:07:43Z</time>
</trkpt>
<trkpt lat="37.03089904785156" lon="-118.73359680175781">
<ele>3662</ele>
<time>2016-07-28T20:08:22Z</time>
</trkpt>
<trkpt lat="37.03090286254883" lon="-118.73353576660156">
<ele>3664</ele>
<time>2016-07-28T20:08:31Z</time>
</trkpt>
<trkpt lat="37.030941009521484" lon="-118.73343658447266">
<ele>3670</ele>
<time>2016-07-28T20:09:16Z</time>
</trkpt>
<trkpt lat="37.03093719482422" lon="-118.7333755493164">
<ele>3672</ele>
<time>2016-07-28T20:09:36Z</time>
</trkpt>
<trkpt lat="37.03092575073242" lon="-118.73332214355469">
<ele>3673</ele>
<time>2016-07-28T20:09:42Z</time>
</trkpt>
<trkpt lat="37.03090286254883" lon="-118.73326110839844">
<ele>3676</ele>
<time>2016-07-28T20:10:23Z</time>
</trkpt>
<trkpt lat="37.03086853027344" lon="-118.73321533203125">
<ele>3677</ele>
<time>2016-07-28T20:10:30Z</time>
</trkpt>
<trkpt lat="37.030887603759766" lon="-118.73316192626953">
<ele>3678</ele>
<time>2016-07-28T20:10:49Z</time>
</trkpt>
<trkpt lat="37.03084945678711" lon="-118.73312377929688">
<ele>3680</ele>
<time>2016-07-28T20:11:00Z</time>
</trkpt>
<trkpt lat="37.03084945678711" lon="-118.73306274414063">
<ele>3684</ele>
<time>2016-07-28T20:11:13Z</time>
</trkpt>
<trkpt lat="37.030818939208984" lon="-118.73302459716797">
<ele>3681</ele>
<time>2016-07-28T20:11:35Z</time>
</trkpt>
<trkpt lat="37.0307731628418" lon="-118.73300170898438">
<ele>3685</ele>
<time>2016-07-28T20:11:42Z</time>
</trkpt>
<trkpt lat="37.03076171875" lon="-118.73294067382813">
<ele>3684</ele>
<time>2016-07-28T20:11:55Z</time>
</trkpt>
<trkpt lat="37.03071212768555" lon="-118.73289489746094">
<ele>3685</ele>
<time>2016-07-28T20:12:20Z</time>
</trkpt>
<trkpt lat="37.03070068359375" lon="-118.73283386230469">
<ele>3688</ele>
<time>2016-07-28T20:12:44Z</time>
</trkpt>
<trkpt lat="37.030757904052734" lon="-118.7327880859375">
<ele>3690</ele>
<time>2016-07-28T20:13:39Z</time>
</trkpt>
<trkpt lat="37.0307502746582" lon="-118.73272705078125">
<ele>3692</ele>
<time>2016-07-28T20:13:46Z</time>
</trkpt>
<trkpt lat="37.030723571777344" lon="-118.73265838623047">
<ele>3693</ele>
<time>2016-07-28T20:14:24Z</time>
</trkpt>
<trkpt lat="37.030723571777344" lon="-118.73259735107422">
<ele>3699</ele>
<time>2016-07-28T20:14:57Z</time>
</trkpt>
<trkpt lat="37.03070831298828" lon="-118.7325210571289">
<ele>3699</ele>
<time>2016-07-28T20:15:13Z</time>
</trkpt>
<trkpt lat="37.03071975708008" lon="-118.73246002197266">
<ele>3702</ele>
<time>2016-07-28T20:15:33Z</time>
</trkpt>
<trkpt lat="37.030723571777344" lon="-118.73240661621094">
<ele>3706</ele>
<time>2016-07-28T20:15:51Z</time>
</trkpt>
<trkpt lat="37.03070068359375" lon="-118.73233795166016">
<ele>3707</ele>
<time>2016-07-28T20:16:20Z</time>
</trkpt>
<trkpt lat="37.03066635131836" lon="-118.7322998046875">
<ele>3709</ele>
<time>2016-07-28T20:16:26Z</time>
</trkpt>
<trkpt lat="37.030616760253906" lon="-118.7322998046875">
<ele>3706</ele>
<time>2016-07-28T20:17:40Z</time>
</trkpt>
<trkpt lat="37.03059768676758" lon="-118.73237609863281">
<ele>3709</ele>
<time>2016-07-28T20:18:38Z</time>
</trkpt>
<trkpt lat="37.03060531616211" lon="-118.73242950439453">
<ele>3703</ele>
<time>2016-07-28T20:18:55Z</time>
</trkpt>
<trkpt lat="37.0306396484375" lon="-118.73250579833984">
<ele>3699</ele>
<time>2016-07-28T20:20:32Z</time>
</trkpt>
<trkpt lat="37.030677795410156" lon="-118.7325439453125">
<ele>3698</ele>
<time>2016-07-28T20:20:50Z</time>
</trkpt>
<trkpt lat="37.03071975708008" lon="-118.73257446289063">
<ele>3697</ele>
<time>2016-07-28T20:20:57Z</time>
</trkpt>
<trkpt lat="37.03072738647461" lon="-118.73265838623047">
<ele>3695</ele>
<time>2016-07-28T20:21:14Z</time>
</trkpt>
<trkpt lat="37.030677795410156" lon="-118.73265075683594">
<ele>3690</ele>
<time>2016-07-28T20:21:36Z</time>
</trkpt>
<trkpt lat="37.03063201904297" lon="-118.73263549804688">
<ele>3688</ele>
<time>2016-07-28T20:21:47Z</time>
</trkpt>
<trkpt lat="37.03060531616211" lon="-118.73268127441406">
<ele>3687</ele>
<time>2016-07-28T20:22:43Z</time>
</trkpt>
<trkpt lat="37.030574798583984" lon="-118.73262786865234">
<ele>3678</ele>
<time>2016-07-28T20:23:19Z</time>
</trkpt>
<trkpt lat="37.030574798583984" lon="-118.73257446289063">
<ele>3676</ele>
<time>2016-07-28T20:23:25Z</time>
</trkpt>
<trkpt lat="37.0305290222168" lon="-118.73255920410156">
<ele>3682</ele>
<time>2016-07-28T20:23:31Z</time>
</trkpt>
<trkpt lat="37.03053665161133" lon="-118.73249816894531">
<ele>3681</ele>
<time>2016-07-28T20:23:55Z</time>
</trkpt>
<trkpt lat="37.030513763427734" lon="-118.73242950439453">
<ele>3685</ele>
<time>2016-07-28T20:24:51Z</time>
</trkpt>
<trkpt lat="37.03048324584961" lon="-118.73235321044922">
<ele>3693</ele>
<time>2016-07-28T20:25:48Z</time>
</trkpt>
<trkpt lat="37.0305061340332" lon="-118.73225402832031">
<ele>3691</ele>
<time>2016-07-28T20:26:26Z</time>
</trkpt>
<trkpt lat="37.030479431152344" lon="-118.7322006225586">
<ele>3693</ele>
<time>2016-07-28T20:26:35Z</time>
</trkpt>
<trkpt lat="37.030487060546875" lon="-118.73213958740234">
<ele>3686</ele>
<time>2016-07-28T20:26:50Z</time>
</trkpt>
<trkpt lat="37.03048324584961" lon="-118.7320785522461">
<ele>3682</ele>
<time>2016-07-28T20:27:00Z</time>
</trkpt>
<trkpt lat="37.03043746948242" lon="-118.73206329345703">
<ele>3683</ele>
<time>2016-07-28T20:27:21Z</time>
</trkpt>
<trkpt lat="37.030433654785156" lon="-118.73200225830078">
<ele>3691</ele>
<time>2016-07-28T20:27:44Z</time>
</trkpt>
<trkpt lat="37.030399322509766" lon="-118.7319564819336">
<ele>3692</ele>
<time>2016-07-28T20:27:56Z</time>
</trkpt>
<trkpt lat="37.03034973144531" lon="-118.73189544677734">
<ele>3689</ele>
<time>2016-07-28T20:28:58Z</time>
</trkpt>
<trkpt lat="37.03029251098633" lon="-118.73187255859375">
<ele>3691</ele>
<time>2016-07-28T20:29:12Z</time>
</trkpt>
<trkpt lat="37.030277252197266" lon="-118.73181915283203">
<ele>3689</ele>
<time>2016-07-28T20:29:45Z</time>
</trkpt>
<trkpt lat="37.03026580810547" lon="-118.73175811767578">
<ele>3690</ele>
<time>2016-07-28T20:30:51Z</time>
</trkpt>
<trkpt lat="37.030277252197266" lon="-118.73169708251953">
<ele>3689</ele>
<time>2016-07-28T20:30:58Z</time>
</trkpt>
<trkpt lat="37.030208587646484" lon="-118.73163604736328">
<ele>3687</ele>
<time>2016-07-28T20:31:33Z</time>
</trkpt>
<trkpt lat="37.03017807006836" lon="-118.7315902709961">
<ele>3686</ele>
<time>2016-07-28T20:31:50Z</time>
</trkpt>
<trkpt lat="37.03014373779297" lon="-118.73152923583984">
<ele>3688</ele>
<time>2016-07-28T20:32:10Z</time>
</trkpt>
<trkpt lat="37.03010940551758" lon="-118.73148345947266">
<ele>3688</ele>
<time>2016-07-28T20:32:26Z</time>
</trkpt>
<trkpt lat="37.030067443847656" lon="-118.73145294189453">
<ele>3688</ele>
<time>2016-07-28T20:32:43Z</time>
</trkpt>
<trkpt lat="37.030029296875" lon="-118.7314224243164">
<ele>3691</ele>
<time>2016-07-28T20:32:56Z</time>
</trkpt>
<trkpt lat="37.03004837036133" lon="-118.73131561279297">
<ele>3691</ele>
<time>2016-07-28T20:33:54Z</time>
</trkpt>
<trkpt lat="37.03000259399414" lon="-118.73126220703125">
<ele>3691</ele>
<time>2016-07-28T20:34:24Z</time>
</trkpt>
<trkpt lat="37.02995300292969" lon="-118.73125457763672">
<ele>3693</ele>
<time>2016-07-28T20:34:32Z</time>
</trkpt>
<trkpt lat="37.02994155883789" lon="-118.73119354248047">
<ele>3692</ele>
<time>2016-07-28T20:34:39Z</time>
</trkpt>
<trkpt lat="37.0298957824707" lon="-118.73117065429688">
<ele>3692</ele>
<time>2016-07-28T20:35:01Z</time>
</trkpt>
<trkpt lat="37.02986526489258" lon="-118.73112487792969">
<ele>3692</ele>
<time>2016-07-28T20:35:12Z</time>
</trkpt>
<trkpt lat="37.02981948852539" lon="-118.73115539550781">
<ele>3693</ele>
<time>2016-07-28T20:35:24Z</time>
</trkpt>
<trkpt lat="37.02981185913086" lon="-118.73109436035156">
<ele>3701</ele>
<time>2016-07-28T20:36:01Z</time>
</trkpt>
<trkpt lat="37.029808044433594" lon="-118.7309799194336">
<ele>3694</ele>
<time>2016-07-28T20:36:26Z</time>
</trkpt>
<trkpt lat="37.02983856201172" lon="-118.7309341430664">
<ele>3695</ele>
<time>2016-07-28T20:36:36Z</time>
</trkpt>
<trkpt lat="37.029884338378906" lon="-118.73091888427734">
<ele>3700</ele>
<time>2016-07-28T20:36:50Z</time>
</trkpt>
<trkpt lat="37.02983474731445" lon="-118.73088836669922">
<ele>3703</ele>
<time>2016-07-28T20:37:19Z</time>
</trkpt>
<trkpt lat="37.029884338378906" lon="-118.73089599609375">
<ele>3717</ele>
<time>2016-07-28T20:38:16Z</time>
</trkpt>
<trkpt lat="37.029911041259766" lon="-118.73084259033203">
<ele>3714</ele>
<time>2016-07-28T20:38:22Z</time>
</trkpt>
<trkpt lat="37.0298957824707" lon="-118.73078155517578">
<ele>3716</ele>
<time>2016-07-28T20:38:44Z</time>
</trkpt>
<trkpt lat="37.029869079589844" lon="-118.7307357788086">
<ele>3710</ele>
<time>2016-07-28T20:38:57Z</time>
</trkpt>
<trkpt lat="37.02983093261719" lon="-118.73064422607422">
<ele>3702</ele>
<time>2016-07-28T20:39:14Z</time>
</trkpt>
<trkpt lat="37.029876708984375" lon="-118.73067474365234">
<ele>3707</ele>
<time>2016-07-28T20:39:34Z</time>
</trkpt>
<trkpt lat="37.02989196777344" lon="-118.7307357788086">
<ele>3717</ele>
<time>2016-07-28T20:39:48Z</time>
</trkpt>
<trkpt lat="37.02995681762695" lon="-118.73078918457031">
<ele>3728</ele>
<time>2016-07-28T20:40:13Z</time>
</trkpt>
<trkpt lat="37.03001403808594" lon="-118.7307357788086">
<ele>3721</ele>
<time>2016-07-28T20:40:41Z</time>
</trkpt>
<trkpt lat="37.03001022338867" lon="-118.73067474365234">
<ele>3723</ele>
<time>2016-07-28T20:40:49Z</time>
</trkpt>
<trkpt lat="37.02997970581055" lon="-118.7306137084961">
<ele>3724</ele>
<time>2016-07-28T20:41:22Z</time>
</trkpt>
<trkpt lat="37.02997970581055" lon="-118.73053741455078">
<ele>3731</ele>
<time>2016-07-28T20:42:34Z</time>
</trkpt>
<trkpt lat="37.02999496459961" lon="-118.7305908203125">
<ele>3734</ele>
<time>2016-07-28T20:42:52Z</time>
</trkpt>
<trkpt lat="37.02995300292969" lon="-118.73064422607422">
<ele>3744</ele>
<time>2016-07-28T20:43:42Z</time>
</trkpt>
<trkpt lat="37.02998352050781" lon="-118.73059844970703">
<ele>3739</ele>
<time>2016-07-28T20:43:59Z</time>
</trkpt>
<trkpt lat="37.030033111572266" lon="-118.73057556152344">
<ele>3744</ele>
<time>2016-07-28T20:44:19Z</time>
</trkpt>
<trkpt lat="37.030025482177734" lon="-118.73051452636719">
<ele>3747</ele>
<time>2016-07-28T20:45:48Z</time>
</trkpt>
<trkpt lat="37.02999496459961" lon="-118.73046112060547">
<ele>3748</ele>
<time>2016-07-28T20:46:23Z</time>
</trkpt>
</trkseg>
</trk>
<trk>
<name><![CDATA[07281505]]></name>
<number>7</number>
<extensions><topografix:color>ff000066</topografix:color></extensions>
<trkseg>
<trkpt lat="37.03015899658203" lon="-118.73963165283203">
<ele>3474</ele>
<time>2016-07-28T22:05:46Z</time>
</trkpt>
<trkpt lat="37.03021240234375" lon="-118.73963165283203">
<ele>3473</ele>
<time>2016-07-28T22:05:57Z</time>
</trkpt>
<trkpt lat="37.0302848815918" lon="-118.73973083496094">
<ele>3476</ele>
<time>2016-07-28T22:06:07Z</time>
</trkpt>
<trkpt lat="37.030372619628906" lon="-118.73978424072266">
<ele>3477</ele>
<time>2016-07-28T22:06:17Z</time>
</trkpt>
<trkpt lat="37.030460357666016" lon="-118.7398452758789">
<ele>3475</ele>
<time>2016-07-28T22:06:25Z</time>
</trkpt>
<trkpt lat="37.03049850463867" lon="-118.73987579345703">
<ele>3475</ele>
<time>2016-07-28T22:06:31Z</time>
</trkpt>
<trkpt lat="37.03059768676758" lon="-118.73992919921875">
<ele>3479</ele>
<time>2016-07-28T22:06:39Z</time>
</trkpt>
<trkpt lat="37.030670166015625" lon="-118.74002075195313">
<ele>3476</ele>
<time>2016-07-28T22:06:48Z</time>
</trkpt>
<trkpt lat="37.03074264526367" lon="-118.7400894165039">
<ele>3470</ele>
<time>2016-07-28T22:06:57Z</time>
</trkpt>
<trkpt lat="37.03078079223633" lon="-118.7401351928711">
<ele>3473</ele>
<time>2016-07-28T22:07:03Z</time>
</trkpt>
<trkpt lat="37.030765533447266" lon="-118.74018859863281">
<ele>3471</ele>
<time>2016-07-28T22:07:10Z</time>
</trkpt>
<trkpt lat="37.030792236328125" lon="-118.74024963378906">
<ele>3465</ele>
<time>2016-07-28T22:07:17Z</time>
</trkpt>
<trkpt lat="37.03087615966797" lon="-118.74031829833984">
<ele>3467</ele>
<time>2016-07-28T22:07:29Z</time>
</trkpt>
<trkpt lat="37.030948638916016" lon="-118.74038696289063">
<ele>3465</ele>
<time>2016-07-28T22:07:38Z</time>
</trkpt>
<trkpt lat="37.030982971191406" lon="-118.74049377441406">
<ele>3462</ele>
<time>2016-07-28T22:07:49Z</time>
</trkpt>
<trkpt lat="37.03102111816406" lon="-118.74053955078125">
<ele>3464</ele>
<time>2016-07-28T22:07:57Z</time>
</trkpt>
<trkpt lat="37.03108596801758" lon="-118.74061584472656">
<ele>3460</ele>
<time>2016-07-28T22:08:05Z</time>
</trkpt>
<trkpt lat="37.031192779541016" lon="-118.74066925048828">
<ele>3456</ele>
<time>2016-07-28T22:08:13Z</time>
</trkpt>
<trkpt lat="37.03126907348633" lon="-118.74077606201172">
<ele>3455</ele>
<time>2016-07-28T22:08:21Z</time>
</trkpt>
<trkpt lat="37.03131866455078" lon="-118.74089050292969">
<ele>3459</ele>
<time>2016-07-28T22:08:28Z</time>
</trkpt>
<trkpt lat="37.031375885009766" lon="-118.7409896850586">
<ele>3464</ele>
<time>2016-07-28T22:08:36Z</time>
</trkpt>
<trkpt lat="37.03140640258789" lon="-118.74103546142578">
<ele>3465</ele>
<time>2016-07-28T22:08:42Z</time>
</trkpt>
<trkpt lat="37.03147888183594" lon="-118.74113464355469">
<ele>3465</ele>
<time>2016-07-28T22:08:51Z</time>
</trkpt>
<trkpt lat="37.03150177001953" lon="-118.74119567871094">
<ele>3467</ele>
<time>2016-07-28T22:08:57Z</time>
</trkpt>
<trkpt lat="37.031532287597656" lon="-118.7413101196289">
<ele>3474</ele>
<time>2016-07-28T22:09:52Z</time>
</trkpt>
<trkpt lat="37.03152847290039" lon="-118.7414321899414">
<ele>3472</ele>
<time>2016-07-28T22:10:05Z</time>
</trkpt>
<trkpt lat="37.03157043457031" lon="-118.74146270751953">
<ele>3471</ele>
<time>2016-07-28T22:10:11Z</time>
</trkpt>
<trkpt lat="37.03160095214844" lon="-118.74151611328125">
<ele>3472</ele>
<time>2016-07-28T22:10:18Z</time>
</trkpt>
<trkpt lat="37.0316162109375" lon="-118.74156951904297">
<ele>3471</ele>
<time>2016-07-28T22:10:24Z</time>
</trkpt>
<trkpt lat="37.031639099121094" lon="-118.74163055419922">
<ele>3475</ele>
<time>2016-07-28T22:10:30Z</time>
</trkpt>
<trkpt lat="37.03167724609375" lon="-118.74166870117188">
<ele>3479</ele>
<time>2016-07-28T22:10:41Z</time>
</trkpt>
<trkpt lat="37.03168487548828" lon="-118.74176025390625">
<ele>3478</ele>
<time>2016-07-28T22:10:58Z</time>
</trkpt>
<trkpt lat="37.03169250488281" lon="-118.74182891845703">
<ele>3480</ele>
<time>2016-07-28T22:11:05Z</time>
</trkpt>
<trkpt lat="37.03168869018555" lon="-118.74188995361328">
<ele>3479</ele>
<time>2016-07-28T22:11:12Z</time>
</trkpt>
<trkpt lat="37.03168869018555" lon="-118.741943359375">
<ele>3481</ele>
<time>2016-07-28T22:11:18Z</time>
</trkpt>
<trkpt lat="37.031715393066406" lon="-118.74199676513672">
<ele>3482</ele>
<time>2016-07-28T22:11:26Z</time>
</trkpt>
<trkpt lat="37.03175354003906" lon="-118.7420425415039">
<ele>3485</ele>
<time>2016-07-28T22:11:33Z</time>
</trkpt>
<trkpt lat="37.03181838989258" lon="-118.74212646484375">
<ele>3484</ele>
<time>2016-07-28T22:11:52Z</time>
</trkpt>
<trkpt lat="37.03181457519531" lon="-118.7421875">
<ele>3485</ele>
<time>2016-07-28T22:11:58Z</time>
</trkpt>
<trkpt lat="37.03178405761719" lon="-118.7423095703125">
<ele>3487</ele>
<time>2016-07-28T22:12:08Z</time>
</trkpt>
<trkpt lat="37.031776428222656" lon="-118.742431640625">
<ele>3483</ele>
<time>2016-07-28T22:12:20Z</time>
</trkpt>
<trkpt lat="37.03184127807617" lon="-118.74251556396484">
<ele>3487</ele>
<time>2016-07-28T22:12:28Z</time>
</trkpt>
<trkpt lat="37.031925201416016" lon="-118.74256896972656">
<ele>3489</ele>
<time>2016-07-28T22:12:38Z</time>
</trkpt>
<trkpt lat="37.032012939453125" lon="-118.74262237548828">
<ele>3489</ele>
<time>2016-07-28T22:12:46Z</time>
</trkpt>
<trkpt lat="37.03206253051758" lon="-118.7426528930664">
<ele>3489</ele>
<time>2016-07-28T22:12:52Z</time>
</trkpt>
<trkpt lat="37.03213882446289" lon="-118.74270629882813">
<ele>3486</ele>
<time>2016-07-28T22:12:58Z</time>
</trkpt>
<trkpt lat="37.0322380065918" lon="-118.7427749633789">
<ele>3486</ele>
<time>2016-07-28T22:13:06Z</time>
</trkpt>
<trkpt lat="37.032283782958984" lon="-118.74280548095703">
<ele>3488</ele>
<time>2016-07-28T22:13:15Z</time>
</trkpt>
<trkpt lat="37.03232955932617" lon="-118.74282836914063">
<ele>3484</ele>
<time>2016-07-28T22:13:21Z</time>
</trkpt>
<trkpt lat="37.03237533569336" lon="-118.74284362792969">
<ele>3485</ele>
<time>2016-07-28T22:13:34Z</time>
</trkpt>
<trkpt lat="37.032466888427734" lon="-118.74288177490234">
<ele>3486</ele>
<time>2016-07-28T22:13:42Z</time>
</trkpt>
<trkpt lat="37.03255081176758" lon="-118.742919921875">
<ele>3487</ele>
<time>2016-07-28T22:13:50Z</time>
</trkpt>
<trkpt lat="37.03264236450195" lon="-118.74293518066406">
<ele>3491</ele>
<time>2016-07-28T22:14:04Z</time>
</trkpt>
<trkpt lat="37.032684326171875" lon="-118.74295806884766">
<ele>3493</ele>
<time>2016-07-28T22:14:13Z</time>
</trkpt>
<trkpt lat="37.03273391723633" lon="-118.74296569824219">
<ele>3490</ele>
<time>2016-07-28T22:14:19Z</time>
</trkpt>
<trkpt lat="37.0328254699707" lon="-118.74299621582031">
<ele>3492</ele>
<time>2016-07-28T22:14:29Z</time>
</trkpt>
<trkpt lat="37.032875061035156" lon="-118.74302673339844">
<ele>3492</ele>
<time>2016-07-28T22:14:35Z</time>
</trkpt>
<trkpt lat="37.032928466796875" lon="-118.74304962158203">
<ele>3496</ele>
<time>2016-07-28T22:14:45Z</time>
</trkpt>
<trkpt lat="37.032989501953125" lon="-118.74304962158203">
<ele>3498</ele>
<time>2016-07-28T22:14:55Z</time>
</trkpt>
<trkpt lat="37.03303146362305" lon="-118.7430648803711">
<ele>3499</ele>
<time>2016-07-28T22:15:04Z</time>
</trkpt>
<trkpt lat="37.03313446044922" lon="-118.7430648803711">
<ele>3499</ele>
<time>2016-07-28T22:15:15Z</time>
</trkpt>
</trkseg>
</trk>
<trk>
<name><![CDATA[07281517]]></name>
<number>8</number>
<extensions><topografix:color>ff000066</topografix:color></extensions>
<trkseg>
<trkpt lat="37.03360366821289" lon="-118.74307250976563">
<ele>3474</ele>
<time>2016-07-28T22:17:06Z</time>
</trkpt>
<trkpt lat="37.03364181518555" lon="-118.7431640625">
<ele>3475</ele>
<time>2016-07-28T22:17:45Z</time>
</trkpt>
<trkpt lat="37.033687591552734" lon="-118.74317169189453">
<ele>3471</ele>
<time>2016-07-28T22:17:54Z</time>
</trkpt>
<trkpt lat="37.033721923828125" lon="-118.74320983886719">
<ele>3468</ele>
<time>2016-07-28T22:18:05Z</time>
</trkpt>
<trkpt lat="37.03374099731445" lon="-118.7432632446289">
<ele>3465</ele>
<time>2016-07-28T22:18:33Z</time>
</trkpt>
<trkpt lat="37.03378677368164" lon="-118.74324798583984">
<ele>3463</ele>
<time>2016-07-28T22:18:39Z</time>
</trkpt>
<trkpt lat="37.03382873535156" lon="-118.74327850341797">
<ele>3460</ele>
<time>2016-07-28T22:18:48Z</time>
</trkpt>
<trkpt lat="37.033870697021484" lon="-118.7433090209961">
<ele>3458</ele>
<time>2016-07-28T22:19:01Z</time>
</trkpt>
<trkpt lat="37.033912658691406" lon="-118.74333953857422">
<ele>3455</ele>
<time>2016-07-28T22:19:12Z</time>
</trkpt>
<trkpt lat="37.033905029296875" lon="-118.74339294433594">
<ele>3453</ele>
<time>2016-07-28T22:19:25Z</time>
</trkpt>
<trkpt lat="37.03386306762695" lon="-118.7434310913086">
<ele>3453</ele>
<time>2016-07-28T22:19:38Z</time>
</trkpt>
<trkpt lat="37.033817291259766" lon="-118.74346160888672">
<ele>3450</ele>
<time>2016-07-28T22:20:08Z</time>
</trkpt>
<trkpt lat="37.0338020324707" lon="-118.74352264404297">
<ele>3449</ele>
<time>2016-07-28T22:20:20Z</time>
</trkpt>
<trkpt lat="37.03376007080078" lon="-118.74356079101563">
<ele>3442</ele>
<time>2016-07-28T22:20:34Z</time>
</trkpt>
<trkpt lat="37.033721923828125" lon="-118.74359130859375">
<ele>3438</ele>
<time>2016-07-28T22:20:43Z</time>
</trkpt>
<trkpt lat="37.03369140625" lon="-118.74363708496094">
<ele>3435</ele>
<time>2016-07-28T22:20:49Z</time>
</trkpt>
<trkpt lat="37.033653259277344" lon="-118.74366760253906">
<ele>3431</ele>
<time>2016-07-28T22:21:00Z</time>
</trkpt>
<trkpt lat="37.033668518066406" lon="-118.74372100830078">
<ele>3427</ele>
<time>2016-07-28T22:21:12Z</time>
</trkpt>
<trkpt lat="37.033653259277344" lon="-118.74382019042969">
<ele>3427</ele>
<time>2016-07-28T22:21:25Z</time>
</trkpt>
<trkpt lat="37.03364181518555" lon="-118.74388885498047">
<ele>3424</ele>
<time>2016-07-28T22:21:31Z</time>
</trkpt>
<trkpt lat="37.0336799621582" lon="-118.74394226074219">
<ele>3417</ele>
<time>2016-07-28T22:22:17Z</time>
</trkpt>
<trkpt lat="37.033714294433594" lon="-118.74398803710938">
<ele>3411</ele>
<time>2016-07-28T22:22:27Z</time>
</trkpt>
<trkpt lat="37.03373336791992" lon="-118.7440414428711">
<ele>3410</ele>
<time>2016-07-28T22:22:38Z</time>
</trkpt>
<trkpt lat="37.03370666503906" lon="-118.74410247802734">
<ele>3407</ele>
<time>2016-07-28T22:22:49Z</time>
</trkpt>
<trkpt lat="37.03374099731445" lon="-118.744140625">
<ele>3405</ele>
<time>2016-07-28T22:22:57Z</time>
</trkpt>
<trkpt lat="37.03369903564453" lon="-118.7442398071289">
<ele>3403</ele>
<time>2016-07-28T22:23:14Z</time>
</trkpt>
<trkpt lat="37.03369903564453" lon="-118.74430084228516">
<ele>3400</ele>
<time>2016-07-28T22:23:25Z</time>
</trkpt>
<trkpt lat="37.0337028503418" lon="-118.7443618774414">
<ele>3392</ele>
<time>2016-07-28T22:23:40Z</time>
</trkpt>
<trkpt lat="37.03374099731445" lon="-118.74439239501953">
<ele>3395</ele>
<time>2016-07-28T22:23:47Z</time>
</trkpt>
<trkpt lat="37.033775329589844" lon="-118.74447631835938">
<ele>3390</ele>
<time>2016-07-28T22:24:53Z</time>
</trkpt>
<trkpt lat="37.03385925292969" lon="-118.74452209472656">
<ele>3386</ele>
<time>2016-07-28T22:25:12Z</time>
</trkpt>
<trkpt lat="37.033905029296875" lon="-118.74453735351563">
<ele>3391</ele>
<time>2016-07-28T22:25:22Z</time>
</trkpt>
<trkpt lat="37.03395080566406" lon="-118.74455261230469">
<ele>3392</ele>
<time>2016-07-28T22:25:31Z</time>
</trkpt>
<trkpt lat="37.03397750854492" lon="-118.7446060180664">
<ele>3390</ele>
<time>2016-07-28T22:25:41Z</time>
</trkpt>
<trkpt lat="37.034027099609375" lon="-118.74463653564453">
<ele>3390</ele>
<time>2016-07-28T22:25:51Z</time>
</trkpt>
<trkpt lat="37.03406524658203" lon="-118.74468994140625">
<ele>3383</ele>
<time>2016-07-28T22:26:00Z</time>
</trkpt>
<trkpt lat="37.03411865234375" lon="-118.7447738647461">
<ele>3383</ele>
<time>2016-07-28T22:26:11Z</time>
</trkpt>
<trkpt lat="37.034202575683594" lon="-118.74484252929688">
<ele>3382</ele>
<time>2016-07-28T22:26:24Z</time>
</trkpt>
<trkpt lat="37.03424835205078" lon="-118.74485778808594">
<ele>3377</ele>
<time>2016-07-28T22:26:38Z</time>
</trkpt>
<trkpt lat="37.03427505493164" lon="-118.74491882324219">
<ele>3382</ele>
<time>2016-07-28T22:26:53Z</time>
</trkpt>
<trkpt lat="37.0343017578125" lon="-118.7449722290039">
<ele>3382</ele>
<time>2016-07-28T22:27:01Z</time>
</trkpt>
<trkpt lat="37.03437423706055" lon="-118.74503326416016">
<ele>3377</ele>
<time>2016-07-28T22:27:16Z</time>
</trkpt>
<trkpt lat="37.03437423706055" lon="-118.7450942993164">
<ele>3374</ele>
<time>2016-07-28T22:27:25Z</time>
</trkpt>
<trkpt lat="37.034420013427734" lon="-118.74520111083984">
<ele>3378</ele>
<time>2016-07-28T22:27:35Z</time>
</trkpt>
<trkpt lat="37.034454345703125" lon="-118.7452392578125">
<ele>3373</ele>
<time>2016-07-28T22:27:46Z</time>
</trkpt>
<trkpt lat="37.034488677978516" lon="-118.74528503417969">
<ele>3370</ele>
<time>2016-07-28T22:28:00Z</time>
</trkpt>
<trkpt lat="37.034507751464844" lon="-118.74534606933594">
<ele>3374</ele>
<time>2016-07-28T22:28:06Z</time>
</trkpt>
<trkpt lat="37.034515380859375" lon="-118.74540710449219">
<ele>3370</ele>
<time>2016-07-28T22:28:17Z</time>
</trkpt>
<trkpt lat="37.034549713134766" lon="-118.74544525146484">
<ele>3366</ele>
<time>2016-07-28T22:28:25Z</time>
</trkpt>
<trkpt lat="37.03459548950195" lon="-118.7454605102539">
<ele>3368</ele>
<time>2016-07-28T22:28:40Z</time>
</trkpt>
<trkpt lat="37.03462600708008" lon="-118.74551391601563">
<ele>3372</ele>
<time>2016-07-28T22:28:54Z</time>
</trkpt>
<trkpt lat="37.03464889526367" lon="-118.74556732177734">
<ele>3370</ele>
<time>2016-07-28T22:29:05Z</time>
</trkpt>
<trkpt lat="37.0346794128418" lon="-118.7456283569336">
<ele>3367</ele>
<time>2016-07-28T22:29:22Z</time>
</trkpt>
<trkpt lat="37.03470993041992" lon="-118.74567413330078">
<ele>3365</ele>
<time>2016-07-28T22:29:31Z</time>
</trkpt>
<trkpt lat="37.03474426269531" lon="-118.7457275390625">
<ele>3365</ele>
<time>2016-07-28T22:29:40Z</time>
</trkpt>
<trkpt lat="37.03477096557617" lon="-118.74584197998047">
<ele>3367</ele>
<time>2016-07-28T22:29:50Z</time>
</trkpt>
<trkpt lat="37.034786224365234" lon="-118.74590301513672">
<ele>3366</ele>
<time>2016-07-28T22:29:56Z</time>
</trkpt>
<trkpt lat="37.03483200073242" lon="-118.74601745605469">
<ele>3368</ele>
<time>2016-07-28T22:30:04Z</time>
</trkpt>
<trkpt lat="37.03486251831055" lon="-118.74610137939453">
<ele>3370</ele>
<time>2016-07-28T22:30:11Z</time>
</trkpt>
<trkpt lat="37.034889221191406" lon="-118.74615478515625">
<ele>3372</ele>
<time>2016-07-28T22:30:18Z</time>
</trkpt>
<trkpt lat="37.0349235534668" lon="-118.7461929321289">
<ele>3371</ele>
<time>2016-07-28T22:30:24Z</time>
</trkpt>
<trkpt lat="37.03498840332031" lon="-118.74628448486328">
<ele>3373</ele>
<time>2016-07-28T22:30:35Z</time>
</trkpt>
<trkpt lat="37.035030364990234" lon="-118.7463150024414">
<ele>3374</ele>
<time>2016-07-28T22:30:43Z</time>
</trkpt>
<trkpt lat="37.035064697265625" lon="-118.7463607788086">
<ele>3373</ele>
<time>2016-07-28T22:30:49Z</time>
</trkpt>
<trkpt lat="37.03508758544922" lon="-118.7464370727539">
<ele>3371</ele>
<time>2016-07-28T22:32:01Z</time>
</trkpt>
<trkpt lat="37.035091400146484" lon="-118.74652862548828">
<ele>3363</ele>
<time>2016-07-28T22:32:21Z</time>
</trkpt>
<trkpt lat="37.03508377075195" lon="-118.74658966064453">
<ele>3359</ele>
<time>2016-07-28T22:32:29Z</time>
</trkpt>
<trkpt lat="37.03512954711914" lon="-118.74669647216797">
<ele>3359</ele>
<time>2016-07-28T22:32:38Z</time>
</trkpt>
<trkpt lat="37.03516387939453" lon="-118.74674224853516">
<ele>3353</ele>
<time>2016-07-28T22:32:52Z</time>
</trkpt>
<trkpt lat="37.03519058227539" lon="-118.74679565429688">
<ele>3353</ele>
<time>2016-07-28T22:33:00Z</time>
</trkpt>
<trkpt lat="37.035160064697266" lon="-118.74685668945313">
<ele>3349</ele>
<time>2016-07-28T22:33:24Z</time>
</trkpt>
<trkpt lat="37.035160064697266" lon="-118.74696350097656">
<ele>3344</ele>
<time>2016-07-28T22:33:36Z</time>
</trkpt>
<trkpt lat="37.035152435302734" lon="-118.74702453613281">
<ele>3338</ele>
<time>2016-07-28T22:33:44Z</time>
</trkpt>
<trkpt lat="37.035152435302734" lon="-118.7470932006836">
<ele>3340</ele>
<time>2016-07-28T22:33:50Z</time>
</trkpt>
<trkpt lat="37.03519058227539" lon="-118.74713134765625">
<ele>3333</ele>
<time>2016-07-28T22:33:58Z</time>
</trkpt>
<trkpt lat="37.035125732421875" lon="-118.74718475341797">
<ele>3332</ele>
<time>2016-07-28T22:34:06Z</time>
</trkpt>
<trkpt lat="37.03512191772461" lon="-118.74724578857422">
<ele>3332</ele>
<time>2016-07-28T22:34:13Z</time>
</trkpt>
<trkpt lat="37.03515625" lon="-118.74728393554688">
<ele>3330</ele>
<time>2016-07-28T22:34:21Z</time>
</trkpt>
<trkpt lat="37.03514099121094" lon="-118.74735260009766">
<ele>3329</ele>
<time>2016-07-28T22:34:39Z</time>
</trkpt>
<trkpt lat="37.035125732421875" lon="-118.74740600585938">
<ele>3328</ele>
<time>2016-07-28T22:34:46Z</time>
</trkpt>
<trkpt lat="37.035194396972656" lon="-118.74747467041016">
<ele>3323</ele>
<time>2016-07-28T22:35:03Z</time>
</trkpt>
<trkpt lat="37.035213470458984" lon="-118.74755859375">
<ele>3325</ele>
<time>2016-07-28T22:35:18Z</time>
</trkpt>
<trkpt lat="37.035213470458984" lon="-118.7476806640625">
<ele>3318</ele>
<time>2016-07-28T22:35:35Z</time>
</trkpt>
<trkpt lat="37.03523635864258" lon="-118.74773406982422">
<ele>3317</ele>
<time>2016-07-28T22:35:49Z</time>
</trkpt>
<trkpt lat="37.035240173339844" lon="-118.74779510498047">
<ele>3317</ele>
<time>2016-07-28T22:35:57Z</time>
</trkpt>
<trkpt lat="37.0352897644043" lon="-118.74787902832031">
<ele>3324</ele>
<time>2016-07-28T22:36:11Z</time>
</trkpt>
<trkpt lat="37.03532791137695" lon="-118.74797821044922">
<ele>3326</ele>
<time>2016-07-28T22:36:22Z</time>
</trkpt>
<trkpt lat="37.0352897644043" lon="-118.7480239868164">
<ele>3321</ele>
<time>2016-07-28T22:36:41Z</time>
</trkpt>
<trkpt lat="37.03529357910156" lon="-118.74809265136719">
<ele>3311</ele>
<time>2016-07-28T22:36:53Z</time>
</trkpt>
<trkpt lat="37.03525161743164" lon="-118.74811553955078">
<ele>3311</ele>
<time>2016-07-28T22:36:59Z</time>
</trkpt>
<trkpt lat="37.0352668762207" lon="-118.74820709228516">
<ele>3308</ele>
<time>2016-07-28T22:37:16Z</time>
</trkpt>
<trkpt lat="37.03525924682617" lon="-118.7482681274414">
<ele>3309</ele>
<time>2016-07-28T22:37:34Z</time>
</trkpt>
<trkpt lat="37.035240173339844" lon="-118.74832153320313">
<ele>3307</ele>
<time>2016-07-28T22:37:48Z</time>
</trkpt>
<trkpt lat="37.035274505615234" lon="-118.74835205078125">
<ele>3308</ele>
<time>2016-07-28T22:37:55Z</time>
</trkpt>
<trkpt lat="37.03525924682617" lon="-118.74845886230469">
<ele>3297</ele>
<time>2016-07-28T22:38:25Z</time>
</trkpt>
<trkpt lat="37.035282135009766" lon="-118.7485122680664">
<ele>3296</ele>
<time>2016-07-28T22:38:48Z</time>
</trkpt>
<trkpt lat="37.03527069091797" lon="-118.74858093261719">
<ele>3296</ele>
<time>2016-07-28T22:38:58Z</time>
</trkpt>
<trkpt lat="37.03526306152344" lon="-118.74870300292969">
<ele>3293</ele>
<time>2016-07-28T22:39:05Z</time>
</trkpt>
<trkpt lat="37.035301208496094" lon="-118.74880981445313">
<ele>3287</ele>
<time>2016-07-28T22:39:15Z</time>
</trkpt>
<trkpt lat="37.035301208496094" lon="-118.7488784790039">
<ele>3289</ele>
<time>2016-07-28T22:39:21Z</time>
</trkpt>
<trkpt lat="37.03534698486328" lon="-118.7489013671875">
<ele>3290</ele>
<time>2016-07-28T22:39:38Z</time>
</trkpt>
<trkpt lat="37.03541946411133" lon="-118.7490005493164">
<ele>3291</ele>
<time>2016-07-28T22:39:47Z</time>
</trkpt>
<trkpt lat="37.035465240478516" lon="-118.7490234375">
<ele>3290</ele>
<time>2016-07-28T22:39:56Z</time>
</trkpt>
<trkpt lat="37.0355224609375" lon="-118.74909973144531">
<ele>3284</ele>
<time>2016-07-28T22:40:11Z</time>
</trkpt>
<trkpt lat="37.0355339050293" lon="-118.74915313720703">
<ele>3283</ele>
<time>2016-07-28T22:40:20Z</time>
</trkpt>
<trkpt lat="37.035552978515625" lon="-118.74921417236328">
<ele>3289</ele>
<time>2016-07-28T22:40:32Z</time>
</trkpt>
<trkpt lat="37.035640716552734" lon="-118.7492446899414">
<ele>3292</ele>
<time>2016-07-28T22:40:41Z</time>
</trkpt>
<trkpt lat="37.03567886352539" lon="-118.7492904663086">
<ele>3295</ele>
<time>2016-07-28T22:41:01Z</time>
</trkpt>
<trkpt lat="37.0357666015625" lon="-118.74930572509766">
<ele>3292</ele>
<time>2016-07-28T22:41:09Z</time>
</trkpt>
<trkpt lat="37.035858154296875" lon="-118.74931335449219">
<ele>3292</ele>
<time>2016-07-28T22:41:20Z</time>
</trkpt>
<trkpt lat="37.0359001159668" lon="-118.74934387207031">
<ele>3295</ele>
<time>2016-07-28T22:41:28Z</time>
</trkpt>
<trkpt lat="37.03600311279297" lon="-118.74934387207031">
<ele>3298</ele>
<time>2016-07-28T22:41:38Z</time>
</trkpt>
<trkpt lat="37.03611373901367" lon="-118.74932861328125">
<ele>3293</ele>
<time>2016-07-28T22:42:00Z</time>
</trkpt>
<trkpt lat="37.03618621826172" lon="-118.74934387207031">
<ele>3294</ele>
<time>2016-07-28T22:42:11Z</time>
</trkpt>
<trkpt lat="37.03623580932617" lon="-118.74932098388672">
<ele>3291</ele>
<time>2016-07-28T22:42:19Z</time>
</trkpt>
<trkpt lat="37.03632354736328" lon="-118.74934387207031">
<ele>3297</ele>
<time>2016-07-28T22:42:28Z</time>
</trkpt>
<trkpt lat="37.0363655090332" lon="-118.74932098388672">
<ele>3296</ele>
<time>2016-07-28T22:42:42Z</time>
</trkpt>
<trkpt lat="37.03638458251953" lon="-118.74937438964844">
<ele>3290</ele>
<time>2016-07-28T22:42:53Z</time>
</trkpt>
<trkpt lat="37.03645324707031" lon="-118.74935150146484">
<ele>3285</ele>
<time>2016-07-28T22:43:11Z</time>
</trkpt>
<trkpt lat="37.03647994995117" lon="-118.74940490722656">
<ele>3286</ele>
<time>2016-07-28T22:43:23Z</time>
</trkpt>
<trkpt lat="37.0365104675293" lon="-118.74945831298828">
<ele>3283</ele>
<time>2016-07-28T22:43:34Z</time>
</trkpt>
<trkpt lat="37.036537170410156" lon="-118.74951171875">
<ele>3279</ele>
<time>2016-07-28T22:43:42Z</time>
</trkpt>
<trkpt lat="37.03653335571289" lon="-118.74957275390625">
<ele>3276</ele>
<time>2016-07-28T22:43:54Z</time>
</trkpt>
<trkpt lat="37.036590576171875" lon="-118.74964141845703">
<ele>3267</ele>
<time>2016-07-28T22:44:06Z</time>
</trkpt>
<trkpt lat="37.03657150268555" lon="-118.74969482421875">
<ele>3264</ele>
<time>2016-07-28T22:44:12Z</time>
</trkpt>
<trkpt lat="37.036624908447266" lon="-118.74980926513672">
<ele>3259</ele>
<time>2016-07-28T22:44:22Z</time>
</trkpt>
<trkpt lat="37.0367317199707" lon="-118.74983978271484">
<ele>3257</ele>
<time>2016-07-28T22:44:30Z</time>
</trkpt>
<trkpt lat="37.036834716796875" lon="-118.74983978271484">
<ele>3255</ele>
<time>2016-07-28T22:44:37Z</time>
</trkpt>
<trkpt lat="37.03687286376953" lon="-118.7498779296875">
<ele>3256</ele>
<time>2016-07-28T22:44:55Z</time>
</trkpt>
<trkpt lat="37.036888122558594" lon="-118.74993896484375">
<ele>3256</ele>
<time>2016-07-28T22:46:11Z</time>
</trkpt>
<trkpt lat="37.036922454833984" lon="-118.7499771118164">
<ele>3257</ele>
<time>2016-07-28T22:46:18Z</time>
</trkpt>
<trkpt lat="37.03693771362305" lon="-118.75003814697266">
<ele>3253</ele>
<time>2016-07-28T22:46:25Z</time>
</trkpt>
<trkpt lat="37.036930084228516" lon="-118.75015258789063">
<ele>3252</ele>
<time>2016-07-28T22:46:33Z</time>
</trkpt>
<trkpt lat="37.03694534301758" lon="-118.7502670288086">
<ele>3248</ele>
<time>2016-07-28T22:46:44Z</time>
</trkpt>
<trkpt lat="37.03694534301758" lon="-118.75033569335938">
<ele>3250</ele>
<time>2016-07-28T22:46:50Z</time>
</trkpt>
<trkpt lat="37.036922454833984" lon="-118.75045776367188">
<ele>3247</ele>
<time>2016-07-28T22:47:02Z</time>
</trkpt>
<trkpt lat="37.03692626953125" lon="-118.7505874633789">
<ele>3241</ele>
<time>2016-07-28T22:47:11Z</time>
</trkpt>
<trkpt lat="37.03688430786133" lon="-118.7507095336914">
<ele>3245</ele>
<time>2016-07-28T22:47:19Z</time>
</trkpt>
<trkpt lat="37.0368537902832" lon="-118.75084686279297">
<ele>3248</ele>
<time>2016-07-28T22:47:25Z</time>
</trkpt>
<trkpt lat="37.03680419921875" lon="-118.7509536743164">
<ele>3245</ele>
<time>2016-07-28T22:47:40Z</time>
</trkpt>
<trkpt lat="37.03676223754883" lon="-118.75105285644531">
<ele>3239</ele>
<time>2016-07-28T22:47:51Z</time>
</trkpt>
<trkpt lat="37.036766052246094" lon="-118.7511215209961">
<ele>3234</ele>
<time>2016-07-28T22:47:57Z</time>
</trkpt>
<trkpt lat="37.03676986694336" lon="-118.75126647949219">
<ele>3236</ele>
<time>2016-07-28T22:48:04Z</time>
</trkpt>
<trkpt lat="37.03672790527344" lon="-118.7513656616211">
<ele>3234</ele>
<time>2016-07-28T22:48:13Z</time>
</trkpt>
<trkpt lat="37.03672790527344" lon="-118.75142669677734">
<ele>3234</ele>
<time>2016-07-28T22:48:19Z</time>
</trkpt>
<trkpt lat="37.03670883178711" lon="-118.75154113769531">
<ele>3231</ele>
<time>2016-07-28T22:48:27Z</time>
</trkpt>
<trkpt lat="37.03671646118164" lon="-118.7516860961914">
<ele>3229</ele>
<time>2016-07-28T22:48:33Z</time>
</trkpt>
<trkpt lat="37.03667068481445" lon="-118.75172424316406">
<ele>3232</ele>
<time>2016-07-28T22:48:39Z</time>
</trkpt>
<trkpt lat="37.03669357299805" lon="-118.75178527832031">
<ele>3234</ele>
<time>2016-07-28T22:48:52Z</time>
</trkpt>
<trkpt lat="37.03667449951172" lon="-118.75189971923828">
<ele>3235</ele>
<time>2016-07-28T22:48:59Z</time>
</trkpt>
<trkpt lat="37.036659240722656" lon="-118.75196075439453">
<ele>3237</ele>
<time>2016-07-28T22:49:24Z</time>
</trkpt>
<trkpt lat="37.0366325378418" lon="-118.75208282470703">
<ele>3230</ele>
<time>2016-07-28T22:49:33Z</time>
</trkpt>
<trkpt lat="37.0366096496582" lon="-118.752197265625">
<ele>3232</ele>
<time>2016-07-28T22:49:46Z</time>
</trkpt>
<trkpt lat="37.036521911621094" lon="-118.75225067138672">
<ele>3229</ele>
<time>2016-07-28T22:49:58Z</time>
</trkpt>
<trkpt lat="37.0364875793457" lon="-118.75233459472656">
<ele>3228</ele>
<time>2016-07-28T22:50:06Z</time>
</trkpt>
<trkpt lat="37.0364990234375" lon="-118.75245666503906">
<ele>3225</ele>
<time>2016-07-28T22:50:16Z</time>
</trkpt>
<trkpt lat="37.0364990234375" lon="-118.75259399414063">
<ele>3222</ele>
<time>2016-07-28T22:50:24Z</time>
</trkpt>
<trkpt lat="37.03646469116211" lon="-118.75271606445313">
<ele>3223</ele>
<time>2016-07-28T22:50:31Z</time>
</trkpt>
<trkpt lat="37.03648376464844" lon="-118.7528305053711">
<ele>3223</ele>
<time>2016-07-28T22:50:39Z</time>
</trkpt>
<trkpt lat="37.036476135253906" lon="-118.7529067993164">
<ele>3223</ele>
<time>2016-07-28T22:50:45Z</time>
</trkpt>
<trkpt lat="37.03647994995117" lon="-118.7530288696289">
<ele>3218</ele>
<time>2016-07-28T22:50:56Z</time>
</trkpt>
<trkpt lat="37.036441802978516" lon="-118.75309753417969">
<ele>3208</ele>
<time>2016-07-28T22:51:26Z</time>
</trkpt>
<trkpt lat="37.03644943237305" lon="-118.75315856933594">
<ele>3205</ele>
<time>2016-07-28T22:51:34Z</time>
</trkpt>
<trkpt lat="37.036434173583984" lon="-118.75321960449219">
<ele>3206</ele>
<time>2016-07-28T22:51:42Z</time>
</trkpt>
<trkpt lat="37.03641128540039" lon="-118.75326538085938">
<ele>3204</ele>
<time>2016-07-28T22:51:50Z</time>
</trkpt>
<trkpt lat="37.03642272949219" lon="-118.75332641601563">
<ele>3204</ele>
<time>2016-07-28T22:51:56Z</time>
</trkpt>
<trkpt lat="37.036441802978516" lon="-118.75338745117188">
<ele>3203</ele>
<time>2016-07-28T22:52:06Z</time>
</trkpt>
<trkpt lat="37.03642272949219" lon="-118.7534408569336">
<ele>3202</ele>
<time>2016-07-28T22:52:23Z</time>
</trkpt>
<trkpt lat="37.03641891479492" lon="-118.75349426269531">
<ele>3197</ele>
<time>2016-07-28T22:52:36Z</time>
</trkpt>
<trkpt lat="37.03641128540039" lon="-118.7535629272461">
<ele>3197</ele>
<time>2016-07-28T22:52:44Z</time>
</trkpt>
<trkpt lat="37.03639602661133" lon="-118.75366973876953">
<ele>3193</ele>
<time>2016-07-28T22:52:57Z</time>
</trkpt>
<trkpt lat="37.03641891479492" lon="-118.75372314453125">
<ele>3192</ele>
<time>2016-07-28T22:53:04Z</time>
</trkpt>
<trkpt lat="37.03642654418945" lon="-118.75379180908203">
<ele>3189</ele>
<time>2016-07-28T22:53:15Z</time>
</trkpt>
<trkpt lat="37.03645706176758" lon="-118.75383758544922">
<ele>3186</ele>
<time>2016-07-28T22:53:21Z</time>
</trkpt>
<trkpt lat="37.03645706176758" lon="-118.75389862060547">
<ele>3183</ele>
<time>2016-07-28T22:53:29Z</time>
</trkpt>
<trkpt lat="37.036495208740234" lon="-118.75393676757813">
<ele>3180</ele>
<time>2016-07-28T22:53:36Z</time>
</trkpt>
<trkpt lat="37.03651809692383" lon="-118.75399780273438">
<ele>3179</ele>
<time>2016-07-28T22:53:45Z</time>
</trkpt>
<trkpt lat="37.0366096496582" lon="-118.75405883789063">
<ele>3179</ele>
<time>2016-07-28T22:53:53Z</time>
</trkpt>
<trkpt lat="37.03668212890625" lon="-118.75415802001953">
<ele>3180</ele>
<time>2016-07-28T22:54:02Z</time>
</trkpt>
<trkpt lat="37.0367317199707" lon="-118.75426483154297">
<ele>3177</ele>
<time>2016-07-28T22:54:11Z</time>
</trkpt>
<trkpt lat="37.036746978759766" lon="-118.75438690185547">
<ele>3175</ele>
<time>2016-07-28T22:54:19Z</time>
</trkpt>
<trkpt lat="37.036834716796875" lon="-118.75446319580078">
<ele>3169</ele>
<time>2016-07-28T22:54:28Z</time>
</trkpt>
<trkpt lat="37.03691101074219" lon="-118.75455474853516">
<ele>3166</ele>
<time>2016-07-28T22:54:38Z</time>
</trkpt>
<trkpt lat="37.03699493408203" lon="-118.75459289550781">
<ele>3166</ele>
<time>2016-07-28T22:54:45Z</time>
</trkpt>
<trkpt lat="37.03704071044922" lon="-118.7546157836914">
<ele>3167</ele>
<time>2016-07-28T22:54:52Z</time>
</trkpt>
<trkpt lat="37.03712844848633" lon="-118.7546615600586">
<ele>3167</ele>
<time>2016-07-28T22:55:00Z</time>
</trkpt>
<trkpt lat="37.03719711303711" lon="-118.75469207763672">
<ele>3164</ele>
<time>2016-07-28T22:55:06Z</time>
</trkpt>
<trkpt lat="37.037261962890625" lon="-118.75479888916016">
<ele>3160</ele>
<time>2016-07-28T22:55:17Z</time>
</trkpt>
<trkpt lat="37.0373649597168" lon="-118.75482940673828">
<ele>3161</ele>
<time>2016-07-28T22:55:26Z</time>
</trkpt>
<trkpt lat="37.0374641418457" lon="-118.75486755371094">
<ele>3158</ele>
<time>2016-07-28T22:55:36Z</time>
</trkpt>
<trkpt lat="37.037567138671875" lon="-118.75492095947266">
<ele>3160</ele>
<time>2016-07-28T22:55:44Z</time>
</trkpt>
<trkpt lat="37.03759765625" lon="-118.75496673583984">
<ele>3162</ele>
<time>2016-07-28T22:55:54Z</time>
</trkpt>
<trkpt lat="37.03763198852539" lon="-118.7550048828125">
<ele>3162</ele>
<time>2016-07-28T22:56:00Z</time>
</trkpt>
<trkpt lat="37.03767013549805" lon="-118.75503540039063">
<ele>3159</ele>
<time>2016-07-28T22:56:06Z</time>
</trkpt>
<trkpt lat="37.037723541259766" lon="-118.75511932373047">
<ele>3156</ele>
<time>2016-07-28T22:56:16Z</time>
</trkpt>
<trkpt lat="37.037750244140625" lon="-118.75518035888672">
<ele>3152</ele>
<time>2016-07-28T22:56:22Z</time>
</trkpt>
<trkpt lat="37.03779983520508" lon="-118.75528717041016">
<ele>3155</ele>
<time>2016-07-28T22:56:31Z</time>
</trkpt>
<trkpt lat="37.03788375854492" lon="-118.75534057617188">
<ele>3155</ele>
<time>2016-07-28T22:56:38Z</time>
</trkpt>
<trkpt lat="37.03797912597656" lon="-118.7553482055664">
<ele>3156</ele>
<time>2016-07-28T22:56:45Z</time>
</trkpt>
<trkpt lat="37.03805923461914" lon="-118.75545501708984">
<ele>3155</ele>
<time>2016-07-28T22:56:52Z</time>
</trkpt>
<trkpt lat="37.038108825683594" lon="-118.75556945800781">
<ele>3151</ele>
<time>2016-07-28T22:57:01Z</time>
</trkpt>
<trkpt lat="37.038204193115234" lon="-118.75564575195313">
<ele>3150</ele>
<time>2016-07-28T22:57:10Z</time>
</trkpt>
<trkpt lat="37.038265228271484" lon="-118.7557373046875">
<ele>3154</ele>
<time>2016-07-28T22:57:17Z</time>
</trkpt>
<trkpt lat="37.038333892822266" lon="-118.75582885742188">
<ele>3155</ele>
<time>2016-07-28T22:57:26Z</time>
</trkpt>
<trkpt lat="37.03842544555664" lon="-118.7558822631836">
<ele>3154</ele>
<time>2016-07-28T22:57:37Z</time>
</trkpt>
<trkpt lat="37.03849411010742" lon="-118.75596618652344">
<ele>3153</ele>
<time>2016-07-28T22:57:44Z</time>
</trkpt>
<trkpt lat="37.0385856628418" lon="-118.75605010986328">
<ele>3152</ele>
<time>2016-07-28T22:57:52Z</time>
</trkpt>
<trkpt lat="37.03862762451172" lon="-118.75616455078125">
<ele>3152</ele>
<time>2016-07-28T22:57:59Z</time>
</trkpt>
<trkpt lat="37.03867721557617" lon="-118.75621795654297">
<ele>3150</ele>
<time>2016-07-28T22:58:06Z</time>
</trkpt>
<trkpt lat="37.03872299194336" lon="-118.75624084472656">
<ele>3146</ele>
<time>2016-07-28T22:58:12Z</time>
</trkpt>
<trkpt lat="37.03876876831055" lon="-118.75624084472656">
<ele>3140</ele>
<time>2016-07-28T22:58:18Z</time>
</trkpt>
<trkpt lat="37.038848876953125" lon="-118.75633239746094">
<ele>3139</ele>
<time>2016-07-28T22:58:25Z</time>
</trkpt>
<trkpt lat="37.03890609741211" lon="-118.75643157958984">
<ele>3141</ele>
<time>2016-07-28T22:58:33Z</time>
</trkpt>
<trkpt lat="37.0389289855957" lon="-118.75656127929688">
<ele>3141</ele>
<time>2016-07-28T22:58:43Z</time>
</trkpt>
<trkpt lat="37.03899383544922" lon="-118.75665283203125">
<ele>3138</ele>
<time>2016-07-28T22:58:51Z</time>
</trkpt>
<trkpt lat="37.039066314697266" lon="-118.75674438476563">
<ele>3143</ele>
<time>2016-07-28T22:59:00Z</time>
</trkpt>
<trkpt lat="37.03914260864258" lon="-118.75682067871094">
<ele>3146</ele>
<time>2016-07-28T22:59:06Z</time>
</trkpt>
<trkpt lat="37.039222717285156" lon="-118.75691223144531">
<ele>3145</ele>
<time>2016-07-28T22:59:13Z</time>
</trkpt>
<trkpt lat="37.039302825927734" lon="-118.7569808959961">
<ele>3140</ele>
<time>2016-07-28T22:59:22Z</time>
</trkpt>
<trkpt lat="37.03940200805664" lon="-118.75703430175781">
<ele>3142</ele>
<time>2016-07-28T22:59:30Z</time>
</trkpt>
<trkpt lat="37.03949737548828" lon="-118.75708770751953">
<ele>3136</ele>
<time>2016-07-28T22:59:36Z</time>
</trkpt>
<trkpt lat="37.039554595947266" lon="-118.75719451904297">
<ele>3136</ele>
<time>2016-07-28T22:59:42Z</time>
</trkpt>
<trkpt lat="37.03960418701172" lon="-118.75729370117188">
<ele>3134</ele>
<time>2016-07-28T22:59:48Z</time>
</trkpt>
<trkpt lat="37.039703369140625" lon="-118.75730895996094">
<ele>3133</ele>
<time>2016-07-28T22:59:54Z</time>
</trkpt>
<trkpt lat="37.039794921875" lon="-118.75733184814453">
<ele>3139</ele>
<time>2016-07-28T23:00:02Z</time>
</trkpt>
<trkpt lat="37.03982162475586" lon="-118.75743103027344">
<ele>3139</ele>
<time>2016-07-28T23:00:17Z</time>
</trkpt>
<trkpt lat="37.0399055480957" lon="-118.75750732421875">
<ele>3139</ele>
<time>2016-07-28T23:00:26Z</time>
</trkpt>
<trkpt lat="37.03998947143555" lon="-118.75758361816406">
<ele>3138</ele>
<time>2016-07-28T23:00:33Z</time>
</trkpt>
<trkpt lat="37.040096282958984" lon="-118.75755310058594">
<ele>3138</ele>
<time>2016-07-28T23:00:42Z</time>
</trkpt>
<trkpt lat="37.040191650390625" lon="-118.75753784179688">
<ele>3138</ele>
<time>2016-07-28T23:00:50Z</time>
</trkpt>
<trkpt lat="37.040287017822266" lon="-118.75750732421875">
<ele>3137</ele>
<time>2016-07-28T23:00:58Z</time>
</trkpt>
<trkpt lat="37.04037857055664" lon="-118.75753784179688">
<ele>3137</ele>
<time>2016-07-28T23:01:05Z</time>
</trkpt>
<trkpt lat="37.04047775268555" lon="-118.75760650634766">
<ele>3135</ele>
<time>2016-07-28T23:01:13Z</time>
</trkpt>
<trkpt lat="37.04058074951172" lon="-118.75762176513672">
<ele>3137</ele>
<time>2016-07-28T23:01:20Z</time>
</trkpt>
<trkpt lat="37.04069519042969" lon="-118.75762176513672">
<ele>3135</ele>
<time>2016-07-28T23:01:31Z</time>
</trkpt>
<trkpt lat="37.0407829284668" lon="-118.75758361816406">
<ele>3134</ele>
<time>2016-07-28T23:01:39Z</time>
</trkpt>
<trkpt lat="37.040889739990234" lon="-118.75756072998047">
<ele>3135</ele>
<time>2016-07-28T23:01:45Z</time>
</trkpt>
<trkpt lat="37.040985107421875" lon="-118.75756072998047">
<ele>3135</ele>
<time>2016-07-28T23:01:52Z</time>
</trkpt>
<trkpt lat="37.04108810424805" lon="-118.75756072998047">
<ele>3135</ele>
<time>2016-07-28T23:02:00Z</time>
</trkpt>
<trkpt lat="37.041168212890625" lon="-118.75753784179688">
<ele>3134</ele>
<time>2016-07-28T23:02:06Z</time>
</trkpt>
<trkpt lat="37.041259765625" lon="-118.75753021240234">
<ele>3134</ele>
<time>2016-07-28T23:02:14Z</time>
</trkpt>
<trkpt lat="37.041351318359375" lon="-118.75749206542969">
<ele>3132</ele>
<time>2016-07-28T23:02:23Z</time>
</trkpt>
<trkpt lat="37.0413818359375" lon="-118.7574462890625">
<ele>3131</ele>
<time>2016-07-28T23:02:30Z</time>
</trkpt>
<trkpt lat="37.04142761230469" lon="-118.75743103027344">
<ele>3129</ele>
<time>2016-07-28T23:02:49Z</time>
</trkpt>
<trkpt lat="37.04153823852539" lon="-118.75743103027344">
<ele>3130</ele>
<time>2016-07-28T23:02:57Z</time>
</trkpt>
<trkpt lat="37.041622161865234" lon="-118.75747680664063">
<ele>3126</ele>
<time>2016-07-28T23:03:06Z</time>
</trkpt>
<trkpt lat="37.04169464111328" lon="-118.75755310058594">
<ele>3127</ele>
<time>2016-07-28T23:03:13Z</time>
</trkpt>
<trkpt lat="37.04176330566406" lon="-118.75765228271484">
<ele>3126</ele>
<time>2016-07-28T23:03:20Z</time>
</trkpt>
<trkpt lat="37.0418586730957" lon="-118.7576904296875">
<ele>3121</ele>
<time>2016-07-28T23:03:31Z</time>
</trkpt>
<trkpt lat="37.04190444946289" lon="-118.75769805908203">
<ele>3121</ele>
<time>2016-07-28T23:03:37Z</time>
</trkpt>
<trkpt lat="37.0419921875" lon="-118.75775909423828">
<ele>3122</ele>
<time>2016-07-28T23:03:46Z</time>
</trkpt>
<trkpt lat="37.04208755493164" lon="-118.75779724121094">
<ele>3122</ele>
<time>2016-07-28T23:03:55Z</time>
</trkpt>
<trkpt lat="37.0421142578125" lon="-118.75790405273438">
<ele>3124</ele>
<time>2016-07-28T23:04:02Z</time>
</trkpt>
<trkpt lat="37.04214859008789" lon="-118.75801086425781">
<ele>3125</ele>
<time>2016-07-28T23:04:10Z</time>
</trkpt>
<trkpt lat="37.04218292236328" lon="-118.75811004638672">
<ele>3124</ele>
<time>2016-07-28T23:04:18Z</time>
</trkpt>
<trkpt lat="37.04222869873047" lon="-118.7581558227539">
<ele>3123</ele>
<time>2016-07-28T23:04:24Z</time>
</trkpt>
<trkpt lat="37.04228973388672" lon="-118.75824737548828">
<ele>3122</ele>
<time>2016-07-28T23:04:36Z</time>
</trkpt>
<trkpt lat="37.042335510253906" lon="-118.75827026367188">
<ele>3121</ele>
<time>2016-07-28T23:04:44Z</time>
</trkpt>
<trkpt lat="37.04238510131836" lon="-118.7582778930664">
<ele>3118</ele>
<time>2016-07-28T23:04:53Z</time>
</trkpt>
<trkpt lat="37.042484283447266" lon="-118.75827026367188">
<ele>3119</ele>
<time>2016-07-28T23:05:02Z</time>
</trkpt>
<trkpt lat="37.04256820678711" lon="-118.75833892822266">
<ele>3119</ele>
<time>2016-07-28T23:05:21Z</time>
</trkpt>
<trkpt lat="37.04265213012695" lon="-118.75843048095703">
<ele>3119</ele>
<time>2016-07-28T23:05:29Z</time>
</trkpt>
<trkpt lat="37.042724609375" lon="-118.75849914550781">
<ele>3118</ele>
<time>2016-07-28T23:05:38Z</time>
</trkpt>
<trkpt lat="37.0428352355957" lon="-118.75851440429688">
<ele>3116</ele>
<time>2016-07-28T23:05:48Z</time>
</trkpt>
<trkpt lat="37.04291534423828" lon="-118.75858306884766">
<ele>3115</ele>
<time>2016-07-28T23:05:58Z</time>
</trkpt>
<trkpt lat="37.042964935302734" lon="-118.75857543945313">
<ele>3115</ele>
<time>2016-07-28T23:06:05Z</time>
</trkpt>
<trkpt lat="37.04307556152344" lon="-118.7585678100586">
<ele>3119</ele>
<time>2016-07-28T23:06:15Z</time>
</trkpt>
<trkpt lat="37.04317855834961" lon="-118.75852966308594">
<ele>3117</ele>
<time>2016-07-28T23:06:23Z</time>
</trkpt>
<trkpt lat="37.04326629638672" lon="-118.75848388671875">
<ele>3114</ele>
<time>2016-07-28T23:06:33Z</time>
</trkpt>
<trkpt lat="37.043365478515625" lon="-118.75843048095703">
<ele>3117</ele>
<time>2016-07-28T23:06:42Z</time>
</trkpt>
<trkpt lat="37.0434455871582" lon="-118.75836181640625">
<ele>3116</ele>
<time>2016-07-28T23:06:50Z</time>
</trkpt>
<trkpt lat="37.043487548828125" lon="-118.75825500488281">
<ele>3117</ele>
<time>2016-07-28T23:07:01Z</time>
</trkpt>
<trkpt lat="37.04355239868164" lon="-118.75828552246094">
<ele>3109</ele>
<time>2016-07-28T23:07:41Z</time>
</trkpt>
<trkpt lat="37.0435905456543" lon="-118.7583236694336">
<ele>3112</ele>
<time>2016-07-28T23:07:47Z</time>
</trkpt>
<trkpt lat="37.043663024902344" lon="-118.75838470458984">
<ele>3104</ele>
<time>2016-07-28T23:07:58Z</time>
</trkpt>
<trkpt lat="37.043704986572266" lon="-118.75833892822266">
<ele>3100</ele>
<time>2016-07-28T23:08:25Z</time>
</trkpt>
<trkpt lat="37.043758392333984" lon="-118.75831604003906">
<ele>3092</ele>
<time>2016-07-28T23:08:51Z</time>
</trkpt>
<trkpt lat="37.04380798339844" lon="-118.75831604003906">
<ele>3095</ele>
<time>2016-07-28T23:08:57Z</time>
</trkpt>
<trkpt lat="37.043907165527344" lon="-118.75839233398438">
<ele>3094</ele>
<time>2016-07-28T23:09:05Z</time>
</trkpt>
<trkpt lat="37.044002532958984" lon="-118.75847625732422">
<ele>3093</ele>
<time>2016-07-28T23:09:13Z</time>
</trkpt>
<trkpt lat="37.044044494628906" lon="-118.75849151611328">
<ele>3096</ele>
<time>2016-07-28T23:09:20Z</time>
</trkpt>
<trkpt lat="37.04405975341797" lon="-118.75857543945313">
<ele>3097</ele>
<time>2016-07-28T23:09:34Z</time>
</trkpt>
<trkpt lat="37.04410171508789" lon="-118.75860595703125">
<ele>3095</ele>
<time>2016-07-28T23:09:42Z</time>
</trkpt>
<trkpt lat="37.044151306152344" lon="-118.75859832763672">
<ele>3095</ele>
<time>2016-07-28T23:10:05Z</time>
</trkpt>
<trkpt lat="37.044193267822266" lon="-118.75856018066406">
<ele>3094</ele>
<time>2016-07-28T23:10:42Z</time>
</trkpt>
<trkpt lat="37.0443000793457" lon="-118.75858306884766">
<ele>3094</ele>
<time>2016-07-28T23:10:50Z</time>
</trkpt>
<trkpt lat="37.04439163208008" lon="-118.75862884521484">
<ele>3096</ele>
<time>2016-07-28T23:11:03Z</time>
</trkpt>
<trkpt lat="37.044464111328125" lon="-118.75861358642578">
<ele>3098</ele>
<time>2016-07-28T23:11:13Z</time>
</trkpt>
<trkpt lat="37.04450988769531" lon="-118.75862121582031">
<ele>3101</ele>
<time>2016-07-28T23:11:24Z</time>
</trkpt>
<trkpt lat="37.04456329345703" lon="-118.75862121582031">
<ele>3100</ele>
<time>2016-07-28T23:11:30Z</time>
</trkpt>
<trkpt lat="37.04465866088867" lon="-118.7586669921875">
<ele>3096</ele>
<time>2016-07-28T23:11:39Z</time>
</trkpt>
<trkpt lat="37.04475402832031" lon="-118.75871276855469">
<ele>3096</ele>
<time>2016-07-28T23:11:47Z</time>
</trkpt>
<trkpt lat="37.0448112487793" lon="-118.75880432128906">
<ele>3094</ele>
<time>2016-07-28T23:11:56Z</time>
</trkpt>
<trkpt lat="37.04487228393555" lon="-118.75889587402344">
<ele>3091</ele>
<time>2016-07-28T23:12:05Z</time>
</trkpt>
<trkpt lat="37.044918060302734" lon="-118.75895690917969">
<ele>3090</ele>
<time>2016-07-28T23:12:17Z</time>
</trkpt>
<trkpt lat="37.04497528076172" lon="-118.7590560913086">
<ele>3090</ele>
<time>2016-07-28T23:12:25Z</time>
</trkpt>
<trkpt lat="37.04501724243164" lon="-118.75917053222656">
<ele>3088</ele>
<time>2016-07-28T23:12:33Z</time>
</trkpt>
<trkpt lat="37.0450325012207" lon="-118.75927734375">
<ele>3088</ele>
<time>2016-07-28T23:12:51Z</time>
</trkpt>
<trkpt lat="37.044986724853516" lon="-118.75931549072266">
<ele>3088</ele>
<time>2016-07-28T23:12:57Z</time>
</trkpt>
<trkpt lat="37.04498291015625" lon="-118.7594223022461">
<ele>3086</ele>
<time>2016-07-28T23:13:06Z</time>
</trkpt>
<trkpt lat="37.045005798339844" lon="-118.75955200195313">
<ele>3085</ele>
<time>2016-07-28T23:13:15Z</time>
</trkpt>
<trkpt lat="37.044986724853516" lon="-118.75960540771484">
<ele>3084</ele>
<time>2016-07-28T23:13:23Z</time>
</trkpt>
<trkpt lat="37.04495620727539" lon="-118.75965118408203">
<ele>3084</ele>
<time>2016-07-28T23:13:29Z</time>
</trkpt>
<trkpt lat="37.04493713378906" lon="-118.75975799560547">
<ele>3083</ele>
<time>2016-07-28T23:13:37Z</time>
</trkpt>
<trkpt lat="37.04495620727539" lon="-118.75982666015625">
<ele>3081</ele>
<time>2016-07-28T23:13:43Z</time>
</trkpt>
<trkpt lat="37.044986724853516" lon="-118.75987243652344">
<ele>3079</ele>
<time>2016-07-28T23:13:49Z</time>
</trkpt>
<trkpt lat="37.04499053955078" lon="-118.75992584228516">
<ele>3086</ele>
<time>2016-07-28T23:16:06Z</time>
</trkpt>
<trkpt lat="37.045040130615234" lon="-118.75988006591797">
<ele>3077</ele>
<time>2016-07-28T23:17:22Z</time>
</trkpt>
<trkpt lat="37.04507827758789" lon="-118.75991821289063">
<ele>3075</ele>
<time>2016-07-28T23:18:01Z</time>
</trkpt>
<trkpt lat="37.045162200927734" lon="-118.76000213623047">
<ele>3070</ele>
<time>2016-07-28T23:18:13Z</time>
</trkpt>
<trkpt lat="37.045223236083984" lon="-118.76010131835938">
<ele>3066</ele>
<time>2016-07-28T23:18:21Z</time>
</trkpt>
<trkpt lat="37.045249938964844" lon="-118.7602310180664">
<ele>3065</ele>
<time>2016-07-28T23:18:28Z</time>
</trkpt>
<trkpt lat="37.04529571533203" lon="-118.76032257080078">
<ele>3067</ele>
<time>2016-07-28T23:18:37Z</time>
</trkpt>
<trkpt lat="37.04533004760742" lon="-118.76044464111328">
<ele>3064</ele>
<time>2016-07-28T23:18:43Z</time>
</trkpt>
<trkpt lat="37.0453987121582" lon="-118.76056671142578">
<ele>3062</ele>
<time>2016-07-28T23:18:49Z</time>
</trkpt>
<trkpt lat="37.04540252685547" lon="-118.76068115234375">
<ele>3063</ele>
<time>2016-07-28T23:18:57Z</time>
</trkpt>
<trkpt lat="37.04545593261719" lon="-118.76078033447266">
<ele>3066</ele>
<time>2016-07-28T23:19:04Z</time>
</trkpt>
<trkpt lat="37.04549026489258" lon="-118.76087951660156">
<ele>3067</ele>
<time>2016-07-28T23:19:13Z</time>
</trkpt>
<trkpt lat="37.04551696777344" lon="-118.76093292236328">
<ele>3067</ele>
<time>2016-07-28T23:19:34Z</time>
</trkpt>
<trkpt lat="37.045562744140625" lon="-118.7609634399414">
<ele>3068</ele>
<time>2016-07-28T23:19:40Z</time>
</trkpt>
<trkpt lat="37.04563903808594" lon="-118.76103973388672">
<ele>3069</ele>
<time>2016-07-28T23:19:49Z</time>
</trkpt>
<trkpt lat="37.04569625854492" lon="-118.76113891601563">
<ele>3068</ele>
<time>2016-07-28T23:19:57Z</time>
</trkpt>
<trkpt lat="37.04575729370117" lon="-118.7612075805664">
<ele>3069</ele>
<time>2016-07-28T23:20:06Z</time>
</trkpt>
<trkpt lat="37.04581069946289" lon="-118.76132202148438">
<ele>3068</ele>
<time>2016-07-28T23:20:14Z</time>
</trkpt>
<trkpt lat="37.04587173461914" lon="-118.76142883300781">
<ele>3068</ele>
<time>2016-07-28T23:20:21Z</time>
</trkpt>
<trkpt lat="37.04593276977539" lon="-118.76152801513672">
<ele>3068</ele>
<time>2016-07-28T23:20:34Z</time>
</trkpt>
<trkpt lat="37.045963287353516" lon="-118.7615737915039">
<ele>3066</ele>
<time>2016-07-28T23:20:41Z</time>
</trkpt>
<trkpt lat="37.046024322509766" lon="-118.76168060302734">
<ele>3069</ele>
<time>2016-07-28T23:20:49Z</time>
</trkpt>
<trkpt lat="37.04603576660156" lon="-118.76173400878906">
<ele>3071</ele>
<time>2016-07-28T23:20:57Z</time>
</trkpt>
<trkpt lat="37.04605484008789" lon="-118.76181030273438">
<ele>3069</ele>
<time>2016-07-28T23:21:11Z</time>
</trkpt>
<trkpt lat="37.04606246948242" lon="-118.76188659667969">
<ele>3075</ele>
<time>2016-07-28T23:21:34Z</time>
</trkpt>
<trkpt lat="37.046051025390625" lon="-118.76194763183594">
<ele>3073</ele>
<time>2016-07-28T23:21:43Z</time>
</trkpt>
<trkpt lat="37.04605484008789" lon="-118.76205444335938">
<ele>3071</ele>
<time>2016-07-28T23:21:52Z</time>
</trkpt>
<trkpt lat="37.04606628417969" lon="-118.76212310791016">
<ele>3069</ele>
<time>2016-07-28T23:21:58Z</time>
</trkpt>
<trkpt lat="37.04610824584961" lon="-118.76220703125">
<ele>3066</ele>
<time>2016-07-28T23:22:06Z</time>
</trkpt>
<trkpt lat="37.046146392822266" lon="-118.7623291015625">
<ele>3067</ele>
<time>2016-07-28T23:22:13Z</time>
</trkpt>
<trkpt lat="37.046180725097656" lon="-118.76244354248047">
<ele>3068</ele>
<time>2016-07-28T23:22:20Z</time>
</trkpt>
<trkpt lat="37.04622268676758" lon="-118.7625503540039">
<ele>3070</ele>
<time>2016-07-28T23:22:26Z</time>
</trkpt>
<trkpt lat="37.0462760925293" lon="-118.7626724243164">
<ele>3071</ele>
<time>2016-07-28T23:22:34Z</time>
</trkpt>
<trkpt lat="37.04634094238281" lon="-118.76277923583984">
<ele>3074</ele>
<time>2016-07-28T23:22:42Z</time>
</trkpt>
<trkpt lat="37.04642105102539" lon="-118.76284790039063">
<ele>3074</ele>
<time>2016-07-28T23:22:50Z</time>
</trkpt>
<trkpt lat="37.0464973449707" lon="-118.76292419433594">
<ele>3069</ele>
<time>2016-07-28T23:22:57Z</time>
</trkpt>
<trkpt lat="37.04658508300781" lon="-118.762939453125">
<ele>3067</ele>
<time>2016-07-28T23:23:06Z</time>
</trkpt>
<trkpt lat="37.046695709228516" lon="-118.76297760009766">
<ele>3065</ele>
<time>2016-07-28T23:23:13Z</time>
</trkpt>
<trkpt lat="37.046775817871094" lon="-118.7630386352539">
<ele>3068</ele>
<time>2016-07-28T23:23:22Z</time>
</trkpt>
<trkpt lat="37.04686737060547" lon="-118.76309967041016">
<ele>3070</ele>
<time>2016-07-28T23:23:29Z</time>
</trkpt>
<trkpt lat="37.04694747924805" lon="-118.76319885253906">
<ele>3073</ele>
<time>2016-07-28T23:23:35Z</time>
</trkpt>
<trkpt lat="37.04703903198242" lon="-118.76329803466797">
<ele>3067</ele>
<time>2016-07-28T23:23:42Z</time>
</trkpt>
<trkpt lat="37.04714584350586" lon="-118.7633056640625">
<ele>3065</ele>
<time>2016-07-28T23:23:48Z</time>
</trkpt>
<trkpt lat="37.047203063964844" lon="-118.76331329345703">
<ele>3066</ele>
<time>2016-07-28T23:23:54Z</time>
</trkpt>
<trkpt lat="37.04728698730469" lon="-118.76323699951172">
<ele>3066</ele>
<time>2016-07-28T23:24:01Z</time>
</trkpt>
<trkpt lat="37.047298431396484" lon="-118.76309204101563">
<ele>3066</ele>
<time>2016-07-28T23:24:12Z</time>
</trkpt>
<trkpt lat="37.04732894897461" lon="-118.76304626464844">
<ele>3063</ele>
<time>2016-07-28T23:24:18Z</time>
</trkpt>
<trkpt lat="37.04738998413086" lon="-118.76299285888672">
<ele>3066</ele>
<time>2016-07-28T23:24:44Z</time>
</trkpt>
<trkpt lat="37.047489166259766" lon="-118.76294708251953">
<ele>3064</ele>
<time>2016-07-28T23:24:50Z</time>
</trkpt>
<trkpt lat="37.0475959777832" lon="-118.76296997070313">
<ele>3060</ele>
<time>2016-07-28T23:24:59Z</time>
</trkpt>
<trkpt lat="37.04764938354492" lon="-118.76296997070313">
<ele>3061</ele>
<time>2016-07-28T23:25:06Z</time>
</trkpt>
<trkpt lat="37.0477409362793" lon="-118.7629623413086">
<ele>3061</ele>
<time>2016-07-28T23:25:17Z</time>
</trkpt>
<trkpt lat="37.04783248901367" lon="-118.76302337646484">
<ele>3058</ele>
<time>2016-07-28T23:25:25Z</time>
</trkpt>
<trkpt lat="37.04792022705078" lon="-118.76309204101563">
<ele>3053</ele>
<time>2016-07-28T23:25:33Z</time>
</trkpt>
<trkpt lat="37.047996520996094" lon="-118.76316833496094">
<ele>3055</ele>
<time>2016-07-28T23:25:39Z</time>
</trkpt>
<trkpt lat="37.0480842590332" lon="-118.76319122314453">
<ele>3052</ele>
<time>2016-07-28T23:25:47Z</time>
</trkpt>
<trkpt lat="37.048179626464844" lon="-118.76315307617188">
<ele>3046</ele>
<time>2016-07-28T23:25:56Z</time>
</trkpt>
<trkpt lat="37.04828643798828" lon="-118.76314544677734">
<ele>3051</ele>
<time>2016-07-28T23:26:04Z</time>
</trkpt>
<trkpt lat="37.048362731933594" lon="-118.76315307617188">
<ele>3046</ele>
<time>2016-07-28T23:26:10Z</time>
</trkpt>
<trkpt lat="37.04841613769531" lon="-118.76316833496094">
<ele>3045</ele>
<time>2016-07-28T23:26:16Z</time>
</trkpt>
<trkpt lat="37.048519134521484" lon="-118.76322174072266">
<ele>3042</ele>
<time>2016-07-28T23:26:25Z</time>
</trkpt>
<trkpt lat="37.048580169677734" lon="-118.7633056640625">
<ele>3040</ele>
<time>2016-07-28T23:26:32Z</time>
</trkpt>
<trkpt lat="37.04862976074219" lon="-118.76336669921875">
<ele>3047</ele>
<time>2016-07-28T23:27:19Z</time>
</trkpt>
<trkpt lat="37.048675537109375" lon="-118.76335144042969">
<ele>3047</ele>
<time>2016-07-28T23:27:26Z</time>
</trkpt>
<trkpt lat="37.0486946105957" lon="-118.76329040527344">
<ele>3050</ele>
<time>2016-07-28T23:27:32Z</time>
</trkpt>
<trkpt lat="37.04878234863281" lon="-118.76321411132813">
<ele>3048</ele>
<time>2016-07-28T23:27:40Z</time>
</trkpt>
<trkpt lat="37.04888153076172" lon="-118.76324462890625">
<ele>3042</ele>
<time>2016-07-28T23:27:47Z</time>
</trkpt>
<trkpt lat="37.04896545410156" lon="-118.7632827758789">
<ele>3044</ele>
<time>2016-07-28T23:27:53Z</time>
</trkpt>
<trkpt lat="37.049072265625" lon="-118.76329803466797">
<ele>3042</ele>
<time>2016-07-28T23:27:59Z</time>
</trkpt>
<trkpt lat="37.0491828918457" lon="-118.76335144042969">
<ele>3042</ele>
<time>2016-07-28T23:28:06Z</time>
</trkpt>
<trkpt lat="37.04928970336914" lon="-118.76331329345703">
<ele>3039</ele>
<time>2016-07-28T23:28:13Z</time>
</trkpt>
<trkpt lat="37.049381256103516" lon="-118.7633285522461">
<ele>3037</ele>
<time>2016-07-28T23:28:23Z</time>
</trkpt>
<trkpt lat="37.049415588378906" lon="-118.76338195800781">
<ele>3042</ele>
<time>2016-07-28T23:28:30Z</time>
</trkpt>
<trkpt lat="37.04951095581055" lon="-118.763427734375">
<ele>3042</ele>
<time>2016-07-28T23:28:38Z</time>
</trkpt>
<trkpt lat="37.04961013793945" lon="-118.76348114013672">
<ele>3034</ele>
<time>2016-07-28T23:28:48Z</time>
</trkpt>
<trkpt lat="37.0496940612793" lon="-118.7635498046875">
<ele>3032</ele>
<time>2016-07-28T23:28:54Z</time>
</trkpt>
<trkpt lat="37.04973602294922" lon="-118.76366424560547">
<ele>3024</ele>
<time>2016-07-28T23:29:06Z</time>
</trkpt>
<trkpt lat="37.049774169921875" lon="-118.76377868652344">
<ele>3020</ele>
<time>2016-07-28T23:29:13Z</time>
</trkpt>
<trkpt lat="37.049774169921875" lon="-118.7638931274414">
<ele>3026</ele>
<time>2016-07-28T23:29:25Z</time>
</trkpt>
<trkpt lat="37.049800872802734" lon="-118.76394653320313">
<ele>3024</ele>
<time>2016-07-28T23:29:32Z</time>
</trkpt>
<trkpt lat="37.04978942871094" lon="-118.76407623291016">
<ele>3029</ele>
<time>2016-07-28T23:29:41Z</time>
</trkpt>
<trkpt lat="37.04983901977539" lon="-118.76417541503906">
<ele>3026</ele>
<time>2016-07-28T23:29:50Z</time>
</trkpt>
<trkpt lat="37.04991149902344" lon="-118.76426696777344">
<ele>3020</ele>
<time>2016-07-28T23:30:00Z</time>
</trkpt>
<trkpt lat="37.04998779296875" lon="-118.76431274414063">
<ele>3023</ele>
<time>2016-07-28T23:30:06Z</time>
</trkpt>
<trkpt lat="37.050079345703125" lon="-118.76435852050781">
<ele>3022</ele>
<time>2016-07-28T23:30:13Z</time>
</trkpt>
<trkpt lat="37.0501708984375" lon="-118.76439666748047">
<ele>3022</ele>
<time>2016-07-28T23:30:19Z</time>
</trkpt>
<trkpt lat="37.05024719238281" lon="-118.76446533203125">
<ele>3017</ele>
<time>2016-07-28T23:30:27Z</time>
</trkpt>
<trkpt lat="37.050331115722656" lon="-118.76455688476563">
<ele>3016</ele>
<time>2016-07-28T23:30:35Z</time>
</trkpt>
<trkpt lat="37.050392150878906" lon="-118.76466369628906">
<ele>3014</ele>
<time>2016-07-28T23:30:43Z</time>
</trkpt>
<trkpt lat="37.050453186035156" lon="-118.7647476196289">
<ele>3016</ele>
<time>2016-07-28T23:30:53Z</time>
</trkpt>
<trkpt lat="37.05046081542969" lon="-118.76487731933594">
<ele>3015</ele>
<time>2016-07-28T23:31:01Z</time>
</trkpt>
<trkpt lat="37.05046081542969" lon="-118.76502227783203">
<ele>3015</ele>
<time>2016-07-28T23:31:10Z</time>
</trkpt>
<trkpt lat="37.05046081542969" lon="-118.76514434814453">
<ele>3013</ele>
<time>2016-07-28T23:31:19Z</time>
</trkpt>
<trkpt lat="37.05046844482422" lon="-118.76526641845703">
<ele>3014</ele>
<time>2016-07-28T23:31:27Z</time>
</trkpt>
<trkpt lat="37.050437927246094" lon="-118.7654037475586">
<ele>3012</ele>
<time>2016-07-28T23:31:34Z</time>
</trkpt>
<trkpt lat="37.05043411254883" lon="-118.76553344726563">
<ele>3009</ele>
<time>2016-07-28T23:31:43Z</time>
</trkpt>
<trkpt lat="37.0504264831543" lon="-118.76566314697266">
<ele>3010</ele>
<time>2016-07-28T23:31:50Z</time>
</trkpt>
<trkpt lat="37.05039978027344" lon="-118.76578521728516">
<ele>3009</ele>
<time>2016-07-28T23:31:59Z</time>
</trkpt>
<trkpt lat="37.05038070678711" lon="-118.76589965820313">
<ele>3008</ele>
<time>2016-07-28T23:32:06Z</time>
</trkpt>
<trkpt lat="37.05037307739258" lon="-118.76602935791016">
<ele>3005</ele>
<time>2016-07-28T23:32:12Z</time>
</trkpt>
<trkpt lat="37.05038070678711" lon="-118.76615905761719">
<ele>3003</ele>
<time>2016-07-28T23:32:18Z</time>
</trkpt>
<trkpt lat="37.05038070678711" lon="-118.76628112792969">
<ele>3000</ele>
<time>2016-07-28T23:32:25Z</time>
</trkpt>
<trkpt lat="37.05039978027344" lon="-118.76641845703125">
<ele>3001</ele>
<time>2016-07-28T23:32:34Z</time>
</trkpt>
<trkpt lat="37.05042266845703" lon="-118.76654052734375">
<ele>2999</ele>
<time>2016-07-28T23:32:41Z</time>
</trkpt>
<trkpt lat="37.050357818603516" lon="-118.76663970947266">
<ele>3001</ele>
<time>2016-07-28T23:32:50Z</time>
</trkpt>
<trkpt lat="37.050357818603516" lon="-118.7667465209961">
<ele>2997</ele>
<time>2016-07-28T23:33:01Z</time>
</trkpt>
<trkpt lat="37.050384521484375" lon="-118.76689147949219">
<ele>2993</ele>
<time>2016-07-28T23:33:10Z</time>
</trkpt>
<trkpt lat="37.0504035949707" lon="-118.76702880859375">
<ele>2988</ele>
<time>2016-07-28T23:33:18Z</time>
</trkpt>
<trkpt lat="37.05036926269531" lon="-118.76716613769531">
<ele>2989</ele>
<time>2016-07-28T23:33:26Z</time>
</trkpt>
<trkpt lat="37.05029296875" lon="-118.76726531982422">
<ele>2991</ele>
<time>2016-07-28T23:33:33Z</time>
</trkpt>
<trkpt lat="37.05020523071289" lon="-118.76734161376953">
<ele>2994</ele>
<time>2016-07-28T23:33:40Z</time>
</trkpt>
<trkpt lat="37.05012512207031" lon="-118.76741790771484">
<ele>2994</ele>
<time>2016-07-28T23:33:48Z</time>
</trkpt>
<trkpt lat="37.05010986328125" lon="-118.76754760742188">
<ele>2992</ele>
<time>2016-07-28T23:33:58Z</time>
</trkpt>
<trkpt lat="37.05005645751953" lon="-118.76762390136719">
<ele>2992</ele>
<time>2016-07-28T23:34:06Z</time>
</trkpt>
<trkpt lat="37.04997634887695" lon="-118.76773071289063">
<ele>2991</ele>
<time>2016-07-28T23:34:14Z</time>
</trkpt>
<trkpt lat="37.04997253417969" lon="-118.7678451538086">
<ele>2988</ele>
<time>2016-07-28T23:34:22Z</time>
</trkpt>
<trkpt lat="37.049930572509766" lon="-118.76795959472656">
<ele>2985</ele>
<time>2016-07-28T23:34:30Z</time>
</trkpt>
<trkpt lat="37.05000305175781" lon="-118.76805114746094">
<ele>2979</ele>
<time>2016-07-28T23:34:39Z</time>
</trkpt>
<trkpt lat="37.05008316040039" lon="-118.76813507080078">
<ele>2977</ele>
<time>2016-07-28T23:34:46Z</time>
</trkpt>
<trkpt lat="37.05012893676758" lon="-118.76823425292969">
<ele>2975</ele>
<time>2016-07-28T23:35:00Z</time>
</trkpt>
<trkpt lat="37.050106048583984" lon="-118.768310546875">
<ele>2976</ele>
<time>2016-07-28T23:35:06Z</time>
</trkpt>
<trkpt lat="37.050086975097656" lon="-118.7684326171875">
<ele>2976</ele>
<time>2016-07-28T23:35:13Z</time>
</trkpt>
<trkpt lat="37.0500602722168" lon="-118.7685546875">
<ele>2973</ele>
<time>2016-07-28T23:35:21Z</time>
</trkpt>
<trkpt lat="37.05006408691406" lon="-118.7686767578125">
<ele>2973</ele>
<time>2016-07-28T23:35:28Z</time>
</trkpt>
<trkpt lat="37.05006790161133" lon="-118.768798828125">
<ele>2972</ele>
<time>2016-07-28T23:35:37Z</time>
</trkpt>
<trkpt lat="37.04999923706055" lon="-118.76890563964844">
<ele>2972</ele>
<time>2016-07-28T23:35:46Z</time>
</trkpt>
<trkpt lat="37.04999542236328" lon="-118.76903533935547">
<ele>2970</ele>
<time>2016-07-28T23:35:56Z</time>
</trkpt>
<trkpt lat="37.050018310546875" lon="-118.76908874511719">
<ele>2967</ele>
<time>2016-07-28T23:36:02Z</time>
</trkpt>
<trkpt lat="37.050045013427734" lon="-118.76919555664063">
<ele>2967</ele>
<time>2016-07-28T23:36:10Z</time>
</trkpt>
<trkpt lat="37.050052642822266" lon="-118.76925659179688">
<ele>2965</ele>
<time>2016-07-28T23:36:16Z</time>
</trkpt>
<trkpt lat="37.04998016357422" lon="-118.76934814453125">
<ele>2961</ele>
<time>2016-07-28T23:36:27Z</time>
</trkpt>
<trkpt lat="37.04994201660156" lon="-118.7693862915039">
<ele>2960</ele>
<time>2016-07-28T23:36:34Z</time>
</trkpt>
<trkpt lat="37.0499382019043" lon="-118.7695083618164">
<ele>2959</ele>
<time>2016-07-28T23:36:49Z</time>
</trkpt>
<trkpt lat="37.05000686645508" lon="-118.76960754394531">
<ele>2956</ele>
<time>2016-07-28T23:36:58Z</time>
</trkpt>
<trkpt lat="37.05009460449219" lon="-118.7696304321289">
<ele>2954</ele>
<time>2016-07-28T23:37:06Z</time>
</trkpt>
<trkpt lat="37.0501594543457" lon="-118.76971435546875">
<ele>2951</ele>
<time>2016-07-28T23:37:14Z</time>
</trkpt>
<trkpt lat="37.05009841918945" lon="-118.76982116699219">
<ele>2953</ele>
<time>2016-07-28T23:37:23Z</time>
</trkpt>
<trkpt lat="37.05006790161133" lon="-118.76993560791016">
<ele>2950</ele>
<time>2016-07-28T23:37:32Z</time>
</trkpt>
<trkpt lat="37.049991607666016" lon="-118.77001953125">
<ele>2947</ele>
<time>2016-07-28T23:37:41Z</time>
</trkpt>
<trkpt lat="37.0499153137207" lon="-118.77010345458984">
<ele>2951</ele>
<time>2016-07-28T23:37:49Z</time>
</trkpt>
<trkpt lat="37.0499382019043" lon="-118.77022552490234">
<ele>2948</ele>
<time>2016-07-28T23:37:58Z</time>
</trkpt>
<trkpt lat="37.0499267578125" lon="-118.77030944824219">
<ele>2945</ele>
<time>2016-07-28T23:38:06Z</time>
</trkpt>
<trkpt lat="37.04993438720703" lon="-118.77037048339844">
<ele>2942</ele>
<time>2016-07-28T23:38:14Z</time>
</trkpt>
<trkpt lat="37.049983978271484" lon="-118.77034759521484">
<ele>2941</ele>
<time>2016-07-28T23:38:21Z</time>
</trkpt>
<trkpt lat="37.05005645751953" lon="-118.77043914794922">
<ele>2934</ele>
<time>2016-07-28T23:38:31Z</time>
</trkpt>
<trkpt lat="37.05009841918945" lon="-118.77047729492188">
<ele>2932</ele>
<time>2016-07-28T23:38:37Z</time>
</trkpt>
<trkpt lat="37.05009078979492" lon="-118.7705307006836">
<ele>2927</ele>
<time>2016-07-28T23:38:44Z</time>
</trkpt>
<trkpt lat="37.050018310546875" lon="-118.77059936523438">
<ele>2924</ele>
<time>2016-07-28T23:38:55Z</time>
</trkpt>
<trkpt lat="37.049991607666016" lon="-118.77071380615234">
<ele>2923</ele>
<time>2016-07-28T23:39:05Z</time>
</trkpt>
<trkpt lat="37.04994201660156" lon="-118.77084350585938">
<ele>2924</ele>
<time>2016-07-28T23:39:12Z</time>
</trkpt>
<trkpt lat="37.049861907958984" lon="-118.77093505859375">
<ele>2926</ele>
<time>2016-07-28T23:39:19Z</time>
</trkpt>
<trkpt lat="37.049861907958984" lon="-118.77099609375">
<ele>2927</ele>
<time>2016-07-28T23:39:25Z</time>
</trkpt>
<trkpt lat="37.049888610839844" lon="-118.7711181640625">
<ele>2923</ele>
<time>2016-07-28T23:39:34Z</time>
</trkpt>
<trkpt lat="37.0499153137207" lon="-118.77124786376953">
<ele>2921</ele>
<time>2016-07-28T23:39:42Z</time>
</trkpt>
<trkpt lat="37.049930572509766" lon="-118.77137756347656">
<ele>2919</ele>
<time>2016-07-28T23:39:48Z</time>
</trkpt>
<trkpt lat="37.049896240234375" lon="-118.77149200439453">
<ele>2917</ele>
<time>2016-07-28T23:39:56Z</time>
</trkpt>
<trkpt lat="37.04985809326172" lon="-118.77159881591797">
<ele>2918</ele>
<time>2016-07-28T23:40:02Z</time>
</trkpt>
<trkpt lat="37.04990768432617" lon="-118.771728515625">
<ele>2920</ele>
<time>2016-07-28T23:40:10Z</time>
</trkpt>
<trkpt lat="37.04990005493164" lon="-118.7718505859375">
<ele>2919</ele>
<time>2016-07-28T23:40:19Z</time>
</trkpt>
<trkpt lat="37.049861907958984" lon="-118.77195739746094">
<ele>2911</ele>
<time>2016-07-28T23:40:27Z</time>
</trkpt>
<trkpt lat="37.049835205078125" lon="-118.7720718383789">
<ele>2911</ele>
<time>2016-07-28T23:40:35Z</time>
</trkpt>
<trkpt lat="37.04978561401367" lon="-118.77217864990234">
<ele>2914</ele>
<time>2016-07-28T23:40:44Z</time>
</trkpt>
<trkpt lat="37.049827575683594" lon="-118.77230834960938">
<ele>2916</ele>
<time>2016-07-28T23:40:52Z</time>
</trkpt>
<trkpt lat="37.04977035522461" lon="-118.77234649658203">
<ele>2916</ele>
<time>2016-07-28T23:41:17Z</time>
</trkpt>
<trkpt lat="37.049739837646484" lon="-118.77239227294922">
<ele>2917</ele>
<time>2016-07-28T23:41:29Z</time>
</trkpt>
<trkpt lat="37.04971694946289" lon="-118.77244567871094">
<ele>2915</ele>
<time>2016-07-28T23:41:35Z</time>
</trkpt>
<trkpt lat="37.04969024658203" lon="-118.7725601196289">
<ele>2909</ele>
<time>2016-07-28T23:41:43Z</time>
</trkpt>
<trkpt lat="37.04960632324219" lon="-118.77264404296875">
<ele>2916</ele>
<time>2016-07-28T23:41:50Z</time>
</trkpt>
<trkpt lat="37.049537658691406" lon="-118.77272033691406">
<ele>2916</ele>
<time>2016-07-28T23:41:56Z</time>
</trkpt>
<trkpt lat="37.04947280883789" lon="-118.77281188964844">
<ele>2914</ele>
<time>2016-07-28T23:42:03Z</time>
</trkpt>
<trkpt lat="37.04938888549805" lon="-118.77286529541016">
<ele>2914</ele>
<time>2016-07-28T23:42:10Z</time>
</trkpt>
<trkpt lat="37.0493049621582" lon="-118.77294921875">
<ele>2922</ele>
<time>2016-07-28T23:42:17Z</time>
</trkpt>
<trkpt lat="37.04923629760742" lon="-118.77303314208984">
<ele>2921</ele>
<time>2016-07-28T23:42:23Z</time>
</trkpt>
<trkpt lat="37.0491828918457" lon="-118.77314758300781">
<ele>2920</ele>
<time>2016-07-28T23:42:31Z</time>
</trkpt>
<trkpt lat="37.04912185668945" lon="-118.77326202392578">
<ele>2916</ele>
<time>2016-07-28T23:42:38Z</time>
</trkpt>
<trkpt lat="37.04909133911133" lon="-118.77338409423828">
<ele>2915</ele>
<time>2016-07-28T23:42:44Z</time>
</trkpt>
<trkpt lat="37.049049377441406" lon="-118.77349853515625">
<ele>2918</ele>
<time>2016-07-28T23:42:52Z</time>
</trkpt>
<trkpt lat="37.04898452758789" lon="-118.77360534667969">
<ele>2914</ele>
<time>2016-07-28T23:43:00Z</time>
</trkpt>
<trkpt lat="37.04898452758789" lon="-118.7737045288086">
<ele>2912</ele>
<time>2016-07-28T23:43:06Z</time>
</trkpt>
<trkpt lat="37.048927307128906" lon="-118.7738037109375">
<ele>2907</ele>
<time>2016-07-28T23:43:14Z</time>
</trkpt>
<trkpt lat="37.04891586303711" lon="-118.77394104003906">
<ele>2909</ele>
<time>2016-07-28T23:43:20Z</time>
</trkpt>
<trkpt lat="37.04890441894531" lon="-118.77405548095703">
<ele>2908</ele>
<time>2016-07-28T23:43:29Z</time>
</trkpt>
<trkpt lat="37.04890441894531" lon="-118.77420043945313">
<ele>2905</ele>
<time>2016-07-28T23:43:38Z</time>
</trkpt>
<trkpt lat="37.04890441894531" lon="-118.77432250976563">
<ele>2900</ele>
<time>2016-07-28T23:43:47Z</time>
</trkpt>
<trkpt lat="37.048851013183594" lon="-118.77442932128906">
<ele>2899</ele>
<time>2016-07-28T23:43:55Z</time>
</trkpt>
<trkpt lat="37.04878234863281" lon="-118.77454376220703">
<ele>2898</ele>
<time>2016-07-28T23:44:02Z</time>
</trkpt>
<trkpt lat="37.04874801635742" lon="-118.77468872070313">
<ele>2900</ele>
<time>2016-07-28T23:44:09Z</time>
</trkpt>
<trkpt lat="37.048797607421875" lon="-118.77479553222656">
<ele>2900</ele>
<time>2016-07-28T23:44:18Z</time>
</trkpt>
<trkpt lat="37.04873275756836" lon="-118.77487182617188">
<ele>2901</ele>
<time>2016-07-28T23:44:26Z</time>
</trkpt>
<trkpt lat="37.04872512817383" lon="-118.77500915527344">
<ele>2898</ele>
<time>2016-07-28T23:44:36Z</time>
</trkpt>
<trkpt lat="37.04865646362305" lon="-118.7751235961914">
<ele>2895</ele>
<time>2016-07-28T23:44:45Z</time>
</trkpt>
<trkpt lat="37.048614501953125" lon="-118.77523040771484">
<ele>2897</ele>
<time>2016-07-28T23:44:54Z</time>
</trkpt>
<trkpt lat="37.04857635498047" lon="-118.77534484863281">
<ele>2898</ele>
<time>2016-07-28T23:45:02Z</time>
</trkpt>
<trkpt lat="37.048500061035156" lon="-118.77542114257813">
<ele>2898</ele>
<time>2016-07-28T23:45:09Z</time>
</trkpt>
<trkpt lat="37.04840087890625" lon="-118.77547454833984">
<ele>2901</ele>
<time>2016-07-28T23:45:18Z</time>
</trkpt>
<trkpt lat="37.048336029052734" lon="-118.77558898925781">
<ele>2901</ele>
<time>2016-07-28T23:45:27Z</time>
</trkpt>
<trkpt lat="37.048255920410156" lon="-118.77568054199219">
<ele>2902</ele>
<time>2016-07-28T23:45:35Z</time>
</trkpt>
<trkpt lat="37.0482292175293" lon="-118.77579498291016">
<ele>2902</ele>
<time>2016-07-28T23:45:43Z</time>
</trkpt>
<trkpt lat="37.04817199707031" lon="-118.77590942382813">
<ele>2908</ele>
<time>2016-07-28T23:45:51Z</time>
</trkpt>
<trkpt lat="37.048133850097656" lon="-118.77601623535156">
<ele>2907</ele>
<time>2016-07-28T23:46:00Z</time>
</trkpt>
<trkpt lat="37.04808807373047" lon="-118.77611541748047">
<ele>2903</ele>
<time>2016-07-28T23:46:11Z</time>
</trkpt>
<trkpt lat="37.048099517822266" lon="-118.77622985839844">
<ele>2899</ele>
<time>2016-07-28T23:46:22Z</time>
</trkpt>
<trkpt lat="37.048133850097656" lon="-118.77627563476563">
<ele>2895</ele>
<time>2016-07-28T23:46:29Z</time>
</trkpt>
<trkpt lat="37.04813766479492" lon="-118.77639770507813">
<ele>2896</ele>
<time>2016-07-28T23:46:40Z</time>
</trkpt>
<trkpt lat="37.04810333251953" lon="-118.7765121459961">
<ele>2895</ele>
<time>2016-07-28T23:46:50Z</time>
</trkpt>
<trkpt lat="37.048099517822266" lon="-118.77664947509766">
<ele>2896</ele>
<time>2016-07-28T23:46:59Z</time>
</trkpt>
<trkpt lat="37.04804992675781" lon="-118.7767562866211">
<ele>2894</ele>
<time>2016-07-28T23:47:06Z</time>
</trkpt>
<trkpt lat="37.04804611206055" lon="-118.77690124511719">
<ele>2894</ele>
<time>2016-07-28T23:47:13Z</time>
</trkpt>
<trkpt lat="37.04801559448242" lon="-118.77702331542969">
<ele>2895</ele>
<time>2016-07-28T23:47:20Z</time>
</trkpt>
<trkpt lat="37.048011779785156" lon="-118.77715301513672">
<ele>2897</ele>
<time>2016-07-28T23:47:28Z</time>
</trkpt>
<trkpt lat="37.047969818115234" lon="-118.77726745605469">
<ele>2894</ele>
<time>2016-07-28T23:47:36Z</time>
</trkpt>
<trkpt lat="37.04789352416992" lon="-118.77734375">
<ele>2887</ele>
<time>2016-07-28T23:47:45Z</time>
</trkpt>
<trkpt lat="37.04779815673828" lon="-118.77738952636719">
<ele>2887</ele>
<time>2016-07-28T23:47:51Z</time>
</trkpt>
<trkpt lat="37.04768371582031" lon="-118.77739715576172">
<ele>2884</ele>
<time>2016-07-28T23:47:59Z</time>
</trkpt>
<trkpt lat="37.047603607177734" lon="-118.77747344970703">
<ele>2883</ele>
<time>2016-07-28T23:48:06Z</time>
</trkpt>
<trkpt lat="37.04752731323242" lon="-118.77757263183594">
<ele>2883</ele>
<time>2016-07-28T23:48:14Z</time>
</trkpt>
<trkpt lat="37.047428131103516" lon="-118.77758026123047">
<ele>2886</ele>
<time>2016-07-28T23:48:24Z</time>
</trkpt>
<trkpt lat="37.047332763671875" lon="-118.777587890625">
<ele>2886</ele>
<time>2016-07-28T23:48:33Z</time>
</trkpt>
<trkpt lat="37.04726028442383" lon="-118.77766418457031">
<ele>2883</ele>
<time>2016-07-28T23:48:41Z</time>
</trkpt>
<trkpt lat="37.04720687866211" lon="-118.77777862548828">
<ele>2878</ele>
<time>2016-07-28T23:48:51Z</time>
</trkpt>
<trkpt lat="37.04718780517578" lon="-118.77790069580078">
<ele>2875</ele>
<time>2016-07-28T23:48:59Z</time>
</trkpt>
<trkpt lat="37.047122955322266" lon="-118.7779769897461">
<ele>2877</ele>
<time>2016-07-28T23:49:06Z</time>
</trkpt>
<trkpt lat="37.04706573486328" lon="-118.778076171875">
<ele>2876</ele>
<time>2016-07-28T23:49:14Z</time>
</trkpt>
<trkpt lat="37.0469970703125" lon="-118.77816772460938">
<ele>2874</ele>
<time>2016-07-28T23:49:23Z</time>
</trkpt>
<trkpt lat="37.046958923339844" lon="-118.77828979492188">
<ele>2875</ele>
<time>2016-07-28T23:49:30Z</time>
</trkpt>
<trkpt lat="37.04694366455078" lon="-118.77841186523438">
<ele>2867</ele>
<time>2016-07-28T23:49:38Z</time>
</trkpt>
<trkpt lat="37.04692459106445" lon="-118.77852630615234">
<ele>2862</ele>
<time>2016-07-28T23:49:47Z</time>
</trkpt>
<trkpt lat="37.046871185302734" lon="-118.77863311767578">
<ele>2860</ele>
<time>2016-07-28T23:49:54Z</time>
</trkpt>
<trkpt lat="37.046844482421875" lon="-118.77875518798828">
<ele>2859</ele>
<time>2016-07-28T23:50:01Z</time>
</trkpt>
<trkpt lat="37.04681396484375" lon="-118.77888488769531">
<ele>2857</ele>
<time>2016-07-28T23:50:11Z</time>
</trkpt>
<trkpt lat="37.046810150146484" lon="-118.77901458740234">
<ele>2858</ele>
<time>2016-07-28T23:50:19Z</time>
</trkpt>
<trkpt lat="37.04686737060547" lon="-118.77912902832031">
<ele>2862</ele>
<time>2016-07-28T23:50:27Z</time>
</trkpt>
<trkpt lat="37.04689407348633" lon="-118.77926635742188">
<ele>2866</ele>
<time>2016-07-28T23:50:36Z</time>
</trkpt>
<trkpt lat="37.04689407348633" lon="-118.77936553955078">
<ele>2867</ele>
<time>2016-07-28T23:50:46Z</time>
</trkpt>
<trkpt lat="37.04698181152344" lon="-118.7794418334961">
<ele>2870</ele>
<time>2016-07-28T23:50:56Z</time>
</trkpt>
<trkpt lat="37.0469856262207" lon="-118.77954864501953">
<ele>2871</ele>
<time>2016-07-28T23:51:06Z</time>
</trkpt>
<trkpt lat="37.046905517578125" lon="-118.77949523925781">
<ele>2876</ele>
<time>2016-07-28T23:52:26Z</time>
</trkpt>
<trkpt lat="37.04685974121094" lon="-118.77948760986328">
<ele>2872</ele>
<time>2016-07-28T23:52:35Z</time>
</trkpt>
<trkpt lat="37.0467529296875" lon="-118.77952575683594">
<ele>2876</ele>
<time>2016-07-28T23:52:44Z</time>
</trkpt>
<trkpt lat="37.04669952392578" lon="-118.77950286865234">
<ele>2877</ele>
<time>2016-07-28T23:52:50Z</time>
</trkpt>
<trkpt lat="37.04661560058594" lon="-118.77943420410156">
<ele>2879</ele>
<time>2016-07-28T23:52:57Z</time>
</trkpt>
<trkpt lat="37.04657745361328" lon="-118.77947235107422">
<ele>2878</ele>
<time>2016-07-28T23:53:03Z</time>
</trkpt>
<trkpt lat="37.046566009521484" lon="-118.7795639038086">
<ele>2875</ele>
<time>2016-07-28T23:53:10Z</time>
</trkpt>
<trkpt lat="37.04652786254883" lon="-118.77967071533203">
<ele>2877</ele>
<time>2016-07-28T23:53:20Z</time>
</trkpt>
<trkpt lat="37.04648971557617" lon="-118.77979278564453">
<ele>2875</ele>
<time>2016-07-28T23:53:29Z</time>
</trkpt>
<trkpt lat="37.04645538330078" lon="-118.77989196777344">
<ele>2875</ele>
<time>2016-07-28T23:53:36Z</time>
</trkpt>
<trkpt lat="37.04643249511719" lon="-118.78002166748047">
<ele>2873</ele>
<time>2016-07-28T23:53:43Z</time>
</trkpt>
<trkpt lat="37.04642105102539" lon="-118.78014373779297">
<ele>2875</ele>
<time>2016-07-28T23:53:50Z</time>
</trkpt>
<trkpt lat="37.04636001586914" lon="-118.78023529052734">
<ele>2875</ele>
<time>2016-07-28T23:53:56Z</time>
</trkpt>
<trkpt lat="37.046287536621094" lon="-118.78030395507813">
<ele>2882</ele>
<time>2016-07-28T23:54:03Z</time>
</trkpt>
<trkpt lat="37.04629135131836" lon="-118.7804183959961">
<ele>2879</ele>
<time>2016-07-28T23:54:09Z</time>
</trkpt>
<trkpt lat="37.046268463134766" lon="-118.78054809570313">
<ele>2878</ele>
<time>2016-07-28T23:54:17Z</time>
</trkpt>
<trkpt lat="37.04623794555664" lon="-118.78067016601563">
<ele>2880</ele>
<time>2016-07-28T23:54:24Z</time>
</trkpt>
<trkpt lat="37.046165466308594" lon="-118.78074645996094">
<ele>2878</ele>
<time>2016-07-28T23:54:32Z</time>
</trkpt>
<trkpt lat="37.04607391357422" lon="-118.78077697753906">
<ele>2874</ele>
<time>2016-07-28T23:54:45Z</time>
</trkpt>
<trkpt lat="37.04603576660156" lon="-118.78081512451172">
<ele>2876</ele>
<time>2016-07-28T23:54:51Z</time>
</trkpt>
<trkpt lat="37.04599380493164" lon="-118.78083038330078">
<ele>2876</ele>
<time>2016-07-28T23:54:57Z</time>
</trkpt>
<trkpt lat="37.045997619628906" lon="-118.78092956542969">
<ele>2865</ele>
<time>2016-07-28T23:55:13Z</time>
</trkpt>
<trkpt lat="37.045963287353516" lon="-118.78097534179688">
<ele>2859</ele>
<time>2016-07-28T23:55:22Z</time>
</trkpt>
<trkpt lat="37.04591369628906" lon="-118.78107452392578">
<ele>2854</ele>
<time>2016-07-28T23:55:29Z</time>
</trkpt>
<trkpt lat="37.045867919921875" lon="-118.78116607666016">
<ele>2853</ele>
<time>2016-07-28T23:55:37Z</time>
</trkpt>
<trkpt lat="37.045806884765625" lon="-118.78128051757813">
<ele>2853</ele>
<time>2016-07-28T23:55:45Z</time>
</trkpt>
<trkpt lat="37.04573440551758" lon="-118.7813720703125">
<ele>2854</ele>
<time>2016-07-28T23:55:52Z</time>
</trkpt>
<trkpt lat="37.045692443847656" lon="-118.78147888183594">
<ele>2855</ele>
<time>2016-07-28T23:56:00Z</time>
</trkpt>
<trkpt lat="37.045684814453125" lon="-118.78160095214844">
<ele>2854</ele>
<time>2016-07-28T23:56:06Z</time>
</trkpt>
<trkpt lat="37.04567337036133" lon="-118.78172302246094">
<ele>2860</ele>
<time>2016-07-28T23:56:19Z</time>
</trkpt>
<trkpt lat="37.045650482177734" lon="-118.78177642822266">
<ele>2867</ele>
<time>2016-07-28T23:56:26Z</time>
</trkpt>
<trkpt lat="37.045616149902344" lon="-118.78182220458984">
<ele>2865</ele>
<time>2016-07-28T23:56:33Z</time>
</trkpt>
<trkpt lat="37.04552459716797" lon="-118.78189086914063">
<ele>2867</ele>
<time>2016-07-28T23:56:43Z</time>
</trkpt>
<trkpt lat="37.045494079589844" lon="-118.7820053100586">
<ele>2866</ele>
<time>2016-07-28T23:56:50Z</time>
</trkpt>
<trkpt lat="37.04549789428711" lon="-118.78214263916016">
<ele>2862</ele>
<time>2016-07-28T23:56:57Z</time>
</trkpt>
<trkpt lat="37.04545593261719" lon="-118.78225708007813">
<ele>2862</ele>
<time>2016-07-28T23:57:06Z</time>
</trkpt>
<trkpt lat="37.04542922973633" lon="-118.78238677978516">
<ele>2863</ele>
<time>2016-07-28T23:57:14Z</time>
</trkpt>
<trkpt lat="37.04537582397461" lon="-118.78250122070313">
<ele>2861</ele>
<time>2016-07-28T23:57:22Z</time>
</trkpt>
<trkpt lat="37.04534149169922" lon="-118.78262329101563">
<ele>2860</ele>
<time>2016-07-28T23:57:31Z</time>
</trkpt>
<trkpt lat="37.045345306396484" lon="-118.78274536132813">
<ele>2858</ele>
<time>2016-07-28T23:57:39Z</time>
</trkpt>
<trkpt lat="37.045379638671875" lon="-118.78286743164063">
<ele>2859</ele>
<time>2016-07-28T23:57:48Z</time>
</trkpt>
<trkpt lat="37.045387268066406" lon="-118.78298950195313">
<ele>2854</ele>
<time>2016-07-28T23:57:54Z</time>
</trkpt>
<trkpt lat="37.045379638671875" lon="-118.78311157226563">
<ele>2855</ele>
<time>2016-07-28T23:58:01Z</time>
</trkpt>
<trkpt lat="37.04536056518555" lon="-118.78324127197266">
<ele>2851</ele>
<time>2016-07-28T23:58:10Z</time>
</trkpt>
<trkpt lat="37.04531478881836" lon="-118.78336334228516">
<ele>2853</ele>
<time>2016-07-28T23:58:18Z</time>
</trkpt>
<trkpt lat="37.04524612426758" lon="-118.7834701538086">
<ele>2856</ele>
<time>2016-07-28T23:58:26Z</time>
</trkpt>
<trkpt lat="37.04519271850586" lon="-118.78357696533203">
<ele>2857</ele>
<time>2016-07-28T23:58:32Z</time>
</trkpt>
<trkpt lat="37.04520034790039" lon="-118.78369903564453">
<ele>2854</ele>
<time>2016-07-28T23:58:40Z</time>
</trkpt>
<trkpt lat="37.04518508911133" lon="-118.78382873535156">
<ele>2849</ele>
<time>2016-07-28T23:58:47Z</time>
</trkpt>
<trkpt lat="37.04515838623047" lon="-118.7839584350586">
<ele>2848</ele>
<time>2016-07-28T23:58:56Z</time>
</trkpt>
<trkpt lat="37.04513931274414" lon="-118.7840805053711">
<ele>2851</ele>
<time>2016-07-28T23:59:05Z</time>
</trkpt>
<trkpt lat="37.04508972167969" lon="-118.78421020507813">
<ele>2850</ele>
<time>2016-07-28T23:59:16Z</time>
</trkpt>
<trkpt lat="37.04506301879883" lon="-118.78431701660156">
<ele>2852</ele>
<time>2016-07-28T23:59:23Z</time>
</trkpt>
<trkpt lat="37.04499053955078" lon="-118.78441619873047">
<ele>2853</ele>
<time>2016-07-28T23:59:31Z</time>
</trkpt>
<trkpt lat="37.04490661621094" lon="-118.78449249267578">
<ele>2857</ele>
<time>2016-07-28T23:59:40Z</time>
</trkpt>
<trkpt lat="37.044891357421875" lon="-118.78461456298828">
<ele>2853</ele>
<time>2016-07-28T23:59:48Z</time>
</trkpt>
<trkpt lat="37.04484558105469" lon="-118.78474426269531">
<ele>2855</ele>
<time>2016-07-28T23:59:56Z</time>
</trkpt>
<trkpt lat="37.044822692871094" lon="-118.78485107421875">
<ele>2850</ele>
<time>2016-07-29T00:00:13Z</time>
</trkpt>
<trkpt lat="37.04471969604492" lon="-118.78489685058594">
<ele>2850</ele>
<time>2016-07-29T00:00:21Z</time>
</trkpt>
<trkpt lat="37.04462814331055" lon="-118.78492736816406">
<ele>2852</ele>
<time>2016-07-29T00:00:29Z</time>
</trkpt>
<trkpt lat="37.044586181640625" lon="-118.78495788574219">
<ele>2850</ele>
<time>2016-07-29T00:00:48Z</time>
</trkpt>
<trkpt lat="37.044525146484375" lon="-118.78499603271484">
<ele>2853</ele>
<time>2016-07-29T00:01:11Z</time>
</trkpt>
<trkpt lat="37.04450988769531" lon="-118.7850570678711">
<ele>2853</ele>
<time>2016-07-29T00:01:20Z</time>
</trkpt>
<trkpt lat="37.044517517089844" lon="-118.7851791381836">
<ele>2854</ele>
<time>2016-07-29T00:01:28Z</time>
</trkpt>
<trkpt lat="37.044532775878906" lon="-118.78523254394531">
<ele>2855</ele>
<time>2016-07-29T00:01:49Z</time>
</trkpt>
<trkpt lat="37.0445442199707" lon="-118.78529357910156">
<ele>2851</ele>
<time>2016-07-29T00:01:55Z</time>
</trkpt>
<trkpt lat="37.0445671081543" lon="-118.78541564941406">
<ele>2851</ele>
<time>2016-07-29T00:02:04Z</time>
</trkpt>
<trkpt lat="37.0445556640625" lon="-118.78558349609375">
<ele>2851</ele>
<time>2016-07-29T00:02:12Z</time>
</trkpt>
<trkpt lat="37.0445556640625" lon="-118.78570556640625">
<ele>2852</ele>
<time>2016-07-29T00:02:20Z</time>
</trkpt>
<trkpt lat="37.044551849365234" lon="-118.78582763671875">
<ele>2853</ele>
<time>2016-07-29T00:02:27Z</time>
</trkpt>
<trkpt lat="37.044517517089844" lon="-118.78593444824219">
<ele>2850</ele>
<time>2016-07-29T00:02:36Z</time>
</trkpt>
<trkpt lat="37.044464111328125" lon="-118.78604888916016">
<ele>2846</ele>
<time>2016-07-29T00:02:48Z</time>
</trkpt>
<trkpt lat="37.04441452026367" lon="-118.78616333007813">
<ele>2841</ele>
<time>2016-07-29T00:02:58Z</time>
</trkpt>
<trkpt lat="37.044334411621094" lon="-118.7862319946289">
<ele>2843</ele>
<time>2016-07-29T00:03:06Z</time>
</trkpt>
<trkpt lat="37.04426956176758" lon="-118.78633880615234">
<ele>2843</ele>
<time>2016-07-29T00:03:13Z</time>
</trkpt>
<trkpt lat="37.044219970703125" lon="-118.78644561767578">
<ele>2845</ele>
<time>2016-07-29T00:03:19Z</time>
</trkpt>
<trkpt lat="37.04423904418945" lon="-118.78658294677734">
<ele>2845</ele>
<time>2016-07-29T00:03:28Z</time>
</trkpt>
<trkpt lat="37.044193267822266" lon="-118.78669738769531">
<ele>2847</ele>
<time>2016-07-29T00:03:37Z</time>
</trkpt>
<trkpt lat="37.044132232666016" lon="-118.78681182861328">
<ele>2846</ele>
<time>2016-07-29T00:03:44Z</time>
</trkpt>
<trkpt lat="37.044105529785156" lon="-118.78694915771484">
<ele>2847</ele>
<time>2016-07-29T00:03:51Z</time>
</trkpt>
<trkpt lat="37.04407501220703" lon="-118.78707885742188">
<ele>2848</ele>
<time>2016-07-29T00:03:58Z</time>
</trkpt>
<trkpt lat="37.04403305053711" lon="-118.78720092773438">
<ele>2848</ele>
<time>2016-07-29T00:04:05Z</time>
</trkpt>
<trkpt lat="37.04397201538086" lon="-118.78731536865234">
<ele>2840</ele>
<time>2016-07-29T00:04:15Z</time>
</trkpt>
<trkpt lat="37.04397964477539" lon="-118.7873764038086">
<ele>2836</ele>
<time>2016-07-29T00:04:21Z</time>
</trkpt>
<trkpt lat="37.04399490356445" lon="-118.78749084472656">
<ele>2836</ele>
<time>2016-07-29T00:04:29Z</time>
</trkpt>
<trkpt lat="37.044036865234375" lon="-118.78761291503906">
<ele>2840</ele>
<time>2016-07-29T00:04:37Z</time>
</trkpt>
<trkpt lat="37.04397201538086" lon="-118.7876968383789">
<ele>2842</ele>
<time>2016-07-29T00:04:45Z</time>
</trkpt>
<trkpt lat="37.04387664794922" lon="-118.78775787353516">
<ele>2843</ele>
<time>2016-07-29T00:04:54Z</time>
</trkpt>
<trkpt lat="37.043792724609375" lon="-118.78783416748047">
<ele>2840</ele>
<time>2016-07-29T00:05:04Z</time>
</trkpt>
<trkpt lat="37.04374694824219" lon="-118.78789520263672">
<ele>2843</ele>
<time>2016-07-29T00:05:11Z</time>
</trkpt>
<trkpt lat="37.043724060058594" lon="-118.78801727294922">
<ele>2844</ele>
<time>2016-07-29T00:05:21Z</time>
</trkpt>
<trkpt lat="37.043701171875" lon="-118.78813171386719">
<ele>2845</ele>
<time>2016-07-29T00:05:29Z</time>
</trkpt>
<trkpt lat="37.043701171875" lon="-118.78826141357422">
<ele>2845</ele>
<time>2016-07-29T00:05:36Z</time>
</trkpt>
<trkpt lat="37.043739318847656" lon="-118.78836059570313">
<ele>2842</ele>
<time>2016-07-29T00:05:44Z</time>
</trkpt>
<trkpt lat="37.043731689453125" lon="-118.7884292602539">
<ele>2839</ele>
<time>2016-07-29T00:05:50Z</time>
</trkpt>
<trkpt lat="37.043724060058594" lon="-118.78852844238281">
<ele>2836</ele>
<time>2016-07-29T00:05:59Z</time>
</trkpt>
<trkpt lat="37.04372024536133" lon="-118.78861236572266">
<ele>2833</ele>
<time>2016-07-29T00:06:06Z</time>
</trkpt>
<trkpt lat="37.04365921020508" lon="-118.7887191772461">
<ele>2833</ele>
<time>2016-07-29T00:06:14Z</time>
</trkpt>
<trkpt lat="37.0435791015625" lon="-118.78878021240234">
<ele>2838</ele>
<time>2016-07-29T00:06:21Z</time>
</trkpt>
<trkpt lat="37.04349899291992" lon="-118.78885650634766">
<ele>2836</ele>
<time>2016-07-29T00:06:29Z</time>
</trkpt>
<trkpt lat="37.043426513671875" lon="-118.7889404296875">
<ele>2832</ele>
<time>2016-07-29T00:06:38Z</time>
</trkpt>
<trkpt lat="37.04341125488281" lon="-118.78907012939453">
<ele>2836</ele>
<time>2016-07-29T00:06:47Z</time>
</trkpt>
<trkpt lat="37.04335021972656" lon="-118.7891845703125">
<ele>2834</ele>
<time>2016-07-29T00:06:54Z</time>
</trkpt>
<trkpt lat="37.043243408203125" lon="-118.78922271728516">
<ele>2833</ele>
<time>2016-07-29T00:07:03Z</time>
</trkpt>
<trkpt lat="37.04318618774414" lon="-118.7892837524414">
<ele>2831</ele>
<time>2016-07-29T00:07:10Z</time>
</trkpt>
<trkpt lat="37.04313278198242" lon="-118.78938293457031">
<ele>2830</ele>
<time>2016-07-29T00:07:19Z</time>
</trkpt>
<trkpt lat="37.04304504394531" lon="-118.78947448730469">
<ele>2828</ele>
<time>2016-07-29T00:07:27Z</time>
</trkpt>
<trkpt lat="37.04294967651367" lon="-118.78953552246094">
<ele>2825</ele>
<time>2016-07-29T00:07:35Z</time>
</trkpt>
<trkpt lat="37.042903900146484" lon="-118.78963470458984">
<ele>2827</ele>
<time>2016-07-29T00:07:41Z</time>
</trkpt>
<trkpt lat="37.0428466796875" lon="-118.78972625732422">
<ele>2825</ele>
<time>2016-07-29T00:07:48Z</time>
</trkpt>
<trkpt lat="37.042755126953125" lon="-118.78980255126953">
<ele>2825</ele>
<time>2016-07-29T00:07:56Z</time>
</trkpt>
<trkpt lat="37.04266357421875" lon="-118.78985595703125">
<ele>2826</ele>
<time>2016-07-29T00:08:03Z</time>
</trkpt>
<trkpt lat="37.04256820678711" lon="-118.78988647460938">
<ele>2828</ele>
<time>2016-07-29T00:08:11Z</time>
</trkpt>
<trkpt lat="37.04246520996094" lon="-118.7899398803711">
<ele>2831</ele>
<time>2016-07-29T00:08:18Z</time>
</trkpt>
<trkpt lat="37.042396545410156" lon="-118.79002380371094">
<ele>2830</ele>
<time>2016-07-29T00:08:26Z</time>
</trkpt>
<trkpt lat="37.04235076904297" lon="-118.7901382446289">
<ele>2826</ele>
<time>2016-07-29T00:08:36Z</time>
</trkpt>
<trkpt lat="37.04231262207031" lon="-118.79024505615234">
<ele>2825</ele>
<time>2016-07-29T00:08:45Z</time>
</trkpt>
<trkpt lat="37.04224395751953" lon="-118.79032135009766">
<ele>2825</ele>
<time>2016-07-29T00:08:54Z</time>
</trkpt>
<trkpt lat="37.04220199584961" lon="-118.79043579101563">
<ele>2823</ele>
<time>2016-07-29T00:09:01Z</time>
</trkpt>
<trkpt lat="37.04216384887695" lon="-118.79058074951172">
<ele>2817</ele>
<time>2016-07-29T00:09:11Z</time>
</trkpt>
<trkpt lat="37.04216384887695" lon="-118.79070281982422">
<ele>2812</ele>
<time>2016-07-29T00:09:18Z</time>
</trkpt>
<trkpt lat="37.04215621948242" lon="-118.79083251953125">
<ele>2817</ele>
<time>2016-07-29T00:09:26Z</time>
</trkpt>
<trkpt lat="37.042110443115234" lon="-118.79094696044922">
<ele>2818</ele>
<time>2016-07-29T00:09:33Z</time>
</trkpt>
<trkpt lat="37.04207229614258" lon="-118.79104614257813">
<ele>2821</ele>
<time>2016-07-29T00:09:39Z</time>
</trkpt>
<trkpt lat="37.04207992553711" lon="-118.79117584228516">
<ele>2817</ele>
<time>2016-07-29T00:09:50Z</time>
</trkpt>
<trkpt lat="37.04205322265625" lon="-118.79129028320313">
<ele>2816</ele>
<time>2016-07-29T00:09:59Z</time>
</trkpt>
<trkpt lat="37.04207992553711" lon="-118.7914047241211">
<ele>2818</ele>
<time>2016-07-29T00:10:06Z</time>
</trkpt>
<trkpt lat="37.04216003417969" lon="-118.79148864746094">
<ele>2814</ele>
<time>2016-07-29T00:10:16Z</time>
</trkpt>
<trkpt lat="37.04216766357422" lon="-118.79161834716797">
<ele>2813</ele>
<time>2016-07-29T00:10:25Z</time>
</trkpt>
<trkpt lat="37.04219055175781" lon="-118.79173278808594">
<ele>2810</ele>
<time>2016-07-29T00:10:32Z</time>
</trkpt>
<trkpt lat="37.04216003417969" lon="-118.7918701171875">
<ele>2807</ele>
<time>2016-07-29T00:10:42Z</time>
</trkpt>
<trkpt lat="37.04213333129883" lon="-118.7919921875">
<ele>2806</ele>
<time>2016-07-29T00:10:51Z</time>
</trkpt>
<trkpt lat="37.0421028137207" lon="-118.79212188720703">
<ele>2806</ele>
<time>2016-07-29T00:10:59Z</time>
</trkpt>
<trkpt lat="37.042057037353516" lon="-118.7922134399414">
<ele>2805</ele>
<time>2016-07-29T00:11:06Z</time>
</trkpt>
<trkpt lat="37.04202651977539" lon="-118.79232788085938">
<ele>2804</ele>
<time>2016-07-29T00:11:14Z</time>
</trkpt>
<trkpt lat="37.04200744628906" lon="-118.79244995117188">
<ele>2804</ele>
<time>2016-07-29T00:11:24Z</time>
</trkpt>
<trkpt lat="37.04197311401367" lon="-118.79255676269531">
<ele>2800</ele>
<time>2016-07-29T00:11:32Z</time>
</trkpt>
<trkpt lat="37.0419807434082" lon="-118.79268646240234">
<ele>2800</ele>
<time>2016-07-29T00:11:42Z</time>
</trkpt>
<trkpt lat="37.04198455810547" lon="-118.7928237915039">
<ele>2803</ele>
<time>2016-07-29T00:11:50Z</time>
</trkpt>
<trkpt lat="37.041969299316406" lon="-118.79296112060547">
<ele>2806</ele>
<time>2016-07-29T00:11:58Z</time>
</trkpt>
<trkpt lat="37.04200744628906" lon="-118.79306030273438">
<ele>2806</ele>
<time>2016-07-29T00:12:06Z</time>
</trkpt>
<trkpt lat="37.04200744628906" lon="-118.79313659667969">
<ele>2809</ele>
<time>2016-07-29T00:12:12Z</time>
</trkpt>
<trkpt lat="37.041996002197266" lon="-118.79325866699219">
<ele>2808</ele>
<time>2016-07-29T00:12:20Z</time>
</trkpt>
<trkpt lat="37.041961669921875" lon="-118.79338836669922">
<ele>2808</ele>
<time>2016-07-29T00:12:28Z</time>
</trkpt>
<trkpt lat="37.04197311401367" lon="-118.79351806640625">
<ele>2804</ele>
<time>2016-07-29T00:12:37Z</time>
</trkpt>
<trkpt lat="37.041988372802734" lon="-118.79364013671875">
<ele>2801</ele>
<time>2016-07-29T00:12:47Z</time>
</trkpt>
<trkpt lat="37.04198455810547" lon="-118.79370880126953">
<ele>2798</ele>
<time>2016-07-29T00:12:54Z</time>
</trkpt>
<trkpt lat="37.04195022583008" lon="-118.79383850097656">
<ele>2800</ele>
<time>2016-07-29T00:13:01Z</time>
</trkpt>
<trkpt lat="37.04188919067383" lon="-118.7939682006836">
<ele>2798</ele>
<time>2016-07-29T00:13:10Z</time>
</trkpt>
<trkpt lat="37.04185104370117" lon="-118.7940902709961">
<ele>2802</ele>
<time>2016-07-29T00:13:19Z</time>
</trkpt>
<trkpt lat="37.041805267333984" lon="-118.7942123413086">
<ele>2801</ele>
<time>2016-07-29T00:13:28Z</time>
</trkpt>
<trkpt lat="37.04175567626953" lon="-118.79432678222656">
<ele>2805</ele>
<time>2016-07-29T00:13:37Z</time>
</trkpt>
<trkpt lat="37.04174041748047" lon="-118.7944564819336">
<ele>2805</ele>
<time>2016-07-29T00:13:45Z</time>
</trkpt>
<trkpt lat="37.041709899902344" lon="-118.7945785522461">
<ele>2807</ele>
<time>2016-07-29T00:13:51Z</time>
</trkpt>
<trkpt lat="37.041717529296875" lon="-118.79470825195313">
<ele>2809</ele>
<time>2016-07-29T00:13:57Z</time>
</trkpt>
<trkpt lat="37.04172134399414" lon="-118.7948226928711">
<ele>2809</ele>
<time>2016-07-29T00:14:04Z</time>
</trkpt>
<trkpt lat="37.04176330566406" lon="-118.79496765136719">
<ele>2806</ele>
<time>2016-07-29T00:14:13Z</time>
</trkpt>
<trkpt lat="37.041778564453125" lon="-118.79509735107422">
<ele>2801</ele>
<time>2016-07-29T00:14:20Z</time>
</trkpt>
<trkpt lat="37.04175567626953" lon="-118.79521942138672">
<ele>2807</ele>
<time>2016-07-29T00:14:26Z</time>
</trkpt>
<trkpt lat="37.041709899902344" lon="-118.79532623291016">
<ele>2805</ele>
<time>2016-07-29T00:14:34Z</time>
</trkpt>
<trkpt lat="37.04170227050781" lon="-118.79545593261719">
<ele>2802</ele>
<time>2016-07-29T00:14:42Z</time>
</trkpt>
<trkpt lat="37.04168701171875" lon="-118.79557037353516">
<ele>2799</ele>
<time>2016-07-29T00:14:49Z</time>
</trkpt>
<trkpt lat="37.04172897338867" lon="-118.7956771850586">
<ele>2799</ele>
<time>2016-07-29T00:14:58Z</time>
</trkpt>
<trkpt lat="37.04179382324219" lon="-118.7957763671875">
<ele>2799</ele>
<time>2016-07-29T00:15:06Z</time>
</trkpt>
<trkpt lat="37.04179000854492" lon="-118.79591369628906">
<ele>2799</ele>
<time>2016-07-29T00:15:14Z</time>
</trkpt>
<trkpt lat="37.0417594909668" lon="-118.79602813720703">
<ele>2803</ele>
<time>2016-07-29T00:15:21Z</time>
</trkpt>
<trkpt lat="37.04171371459961" lon="-118.79615020751953">
<ele>2802</ele>
<time>2016-07-29T00:15:28Z</time>
</trkpt>
<trkpt lat="37.04166793823242" lon="-118.79625701904297">
<ele>2798</ele>
<time>2016-07-29T00:15:37Z</time>
</trkpt>
<trkpt lat="37.04166793823242" lon="-118.79631805419922">
<ele>2800</ele>
<time>2016-07-29T00:15:50Z</time>
</trkpt>
</trkseg>
</trk>
<trk>
<name><![CDATA[07281716]]></name>
<number>9</number>
<extensions><topografix:color>ff000066</topografix:color></extensions>
<trkseg>
<trkpt lat="37.04158401489258" lon="-118.79684448242188">
<ele>2809</ele>
<time>2016-07-29T00:16:26Z</time>
</trkpt>
<trkpt lat="37.0414924621582" lon="-118.79685974121094">
<ele>2808</ele>
<time>2016-07-29T00:16:34Z</time>
</trkpt>
<trkpt lat="37.04144287109375" lon="-118.79688262939453">
<ele>2805</ele>
<time>2016-07-29T00:16:53Z</time>
</trkpt>
<trkpt lat="37.04140853881836" lon="-118.79693603515625">
<ele>2804</ele>
<time>2016-07-29T00:16:59Z</time>
</trkpt>
<trkpt lat="37.04136657714844" lon="-118.79705047607422">
<ele>2799</ele>
<time>2016-07-29T00:17:11Z</time>
</trkpt>
<trkpt lat="37.0413703918457" lon="-118.79715728759766">
<ele>2804</ele>
<time>2016-07-29T00:17:19Z</time>
</trkpt>
<trkpt lat="37.041412353515625" lon="-118.79729461669922">
<ele>2806</ele>
<time>2016-07-29T00:17:27Z</time>
</trkpt>
<trkpt lat="37.041439056396484" lon="-118.79742431640625">
<ele>2805</ele>
<time>2016-07-29T00:17:34Z</time>
</trkpt>
<trkpt lat="37.04152297973633" lon="-118.79749298095703">
<ele>2806</ele>
<time>2016-07-29T00:17:42Z</time>
</trkpt>
<trkpt lat="37.041568756103516" lon="-118.79759979248047">
<ele>2808</ele>
<time>2016-07-29T00:17:49Z</time>
</trkpt>
<trkpt lat="37.04157638549805" lon="-118.7977294921875">
<ele>2806</ele>
<time>2016-07-29T00:17:57Z</time>
</trkpt>
<trkpt lat="37.041507720947266" lon="-118.7978286743164">
<ele>2801</ele>
<time>2016-07-29T00:18:07Z</time>
</trkpt>
<trkpt lat="37.041439056396484" lon="-118.79792022705078">
<ele>2800</ele>
<time>2016-07-29T00:18:17Z</time>
</trkpt>
<trkpt lat="37.041378021240234" lon="-118.79801940917969">
<ele>2798</ele>
<time>2016-07-29T00:18:25Z</time>
</trkpt>
<trkpt lat="37.04139709472656" lon="-118.79813385009766">
<ele>2802</ele>
<time>2016-07-29T00:18:33Z</time>
</trkpt>
<trkpt lat="37.0413932800293" lon="-118.79825592041016">
<ele>2802</ele>
<time>2016-07-29T00:18:42Z</time>
</trkpt>
<trkpt lat="37.04138946533203" lon="-118.79837799072266">
<ele>2804</ele>
<time>2016-07-29T00:18:49Z</time>
</trkpt>
<trkpt lat="37.04132843017578" lon="-118.79850006103516">
<ele>2805</ele>
<time>2016-07-29T00:18:56Z</time>
</trkpt>
<trkpt lat="37.04130554199219" lon="-118.79861450195313">
<ele>2800</ele>
<time>2016-07-29T00:19:03Z</time>
</trkpt>
<trkpt lat="37.041282653808594" lon="-118.79875183105469">
<ele>2796</ele>
<time>2016-07-29T00:19:12Z</time>
</trkpt>
<trkpt lat="37.04123306274414" lon="-118.79886627197266">
<ele>2796</ele>
<time>2016-07-29T00:19:19Z</time>
</trkpt>
<trkpt lat="37.041229248046875" lon="-118.79898834228516">
<ele>2794</ele>
<time>2016-07-29T00:19:28Z</time>
</trkpt>
<trkpt lat="37.04117202758789" lon="-118.79907989501953">
<ele>2798</ele>
<time>2016-07-29T00:19:35Z</time>
</trkpt>
<trkpt lat="37.04109573364258" lon="-118.79912567138672">
<ele>2795</ele>
<time>2016-07-29T00:19:44Z</time>
</trkpt>
<trkpt lat="37.041046142578125" lon="-118.79927062988281">
<ele>2795</ele>
<time>2016-07-29T00:19:50Z</time>
</trkpt>
<trkpt lat="37.04104995727539" lon="-118.79940032958984">
<ele>2798</ele>
<time>2016-07-29T00:19:57Z</time>
</trkpt>
<trkpt lat="37.04105758666992" lon="-118.79953002929688">
<ele>2796</ele>
<time>2016-07-29T00:20:06Z</time>
</trkpt>
<trkpt lat="37.04098892211914" lon="-118.79963684082031">
<ele>2792</ele>
<time>2016-07-29T00:20:16Z</time>
</trkpt>
<trkpt lat="37.04096603393555" lon="-118.79969024658203">
<ele>2796</ele>
<time>2016-07-29T00:20:22Z</time>
</trkpt>
<trkpt lat="37.04090881347656" lon="-118.7998046875">
<ele>2794</ele>
<time>2016-07-29T00:20:30Z</time>
</trkpt>
<trkpt lat="37.04085922241211" lon="-118.79991149902344">
<ele>2795</ele>
<time>2016-07-29T00:20:37Z</time>
</trkpt>
<trkpt lat="37.04081344604492" lon="-118.8000259399414">
<ele>2796</ele>
<time>2016-07-29T00:20:44Z</time>
</trkpt>
<trkpt lat="37.04076385498047" lon="-118.80014038085938">
<ele>2793</ele>
<time>2016-07-29T00:20:52Z</time>
</trkpt>
<trkpt lat="37.04075241088867" lon="-118.80027770996094">
<ele>2797</ele>
<time>2016-07-29T00:20:59Z</time>
</trkpt>
<trkpt lat="37.04075241088867" lon="-118.8003921508789">
<ele>2797</ele>
<time>2016-07-29T00:21:06Z</time>
</trkpt>
<trkpt lat="37.040794372558594" lon="-118.80052185058594">
<ele>2797</ele>
<time>2016-07-29T00:21:14Z</time>
</trkpt>
<trkpt lat="37.04086685180664" lon="-118.80059051513672">
<ele>2796</ele>
<time>2016-07-29T00:21:21Z</time>
</trkpt>
<trkpt lat="37.040916442871094" lon="-118.80071258544922">
<ele>2790</ele>
<time>2016-07-29T00:21:31Z</time>
</trkpt>
<trkpt lat="37.04095458984375" lon="-118.80074310302734">
<ele>2793</ele>
<time>2016-07-29T00:21:42Z</time>
</trkpt>
<trkpt lat="37.040958404541016" lon="-118.80081176757813">
<ele>2789</ele>
<time>2016-07-29T00:22:23Z</time>
</trkpt>
<trkpt lat="37.04096603393555" lon="-118.8009033203125">
<ele>2787</ele>
<time>2016-07-29T00:22:30Z</time>
</trkpt>
<trkpt lat="37.04100799560547" lon="-118.80101013183594">
<ele>2786</ele>
<time>2016-07-29T00:22:41Z</time>
</trkpt>
<trkpt lat="37.04106521606445" lon="-118.80113220214844">
<ele>2779</ele>
<time>2016-07-29T00:22:50Z</time>
</trkpt>
<trkpt lat="37.041099548339844" lon="-118.80117797851563">
<ele>2775</ele>
<time>2016-07-29T00:22:56Z</time>
</trkpt>
<trkpt lat="37.041160583496094" lon="-118.80127716064453">
<ele>2776</ele>
<time>2016-07-29T00:23:06Z</time>
</trkpt>
<trkpt lat="37.041194915771484" lon="-118.80140686035156">
<ele>2775</ele>
<time>2016-07-29T00:23:14Z</time>
</trkpt>
<trkpt lat="37.04117965698242" lon="-118.80154418945313">
<ele>2778</ele>
<time>2016-07-29T00:23:21Z</time>
</trkpt>
<trkpt lat="37.04121780395508" lon="-118.80168914794922">
<ele>2779</ele>
<time>2016-07-29T00:23:30Z</time>
</trkpt>
<trkpt lat="37.0412483215332" lon="-118.80181884765625">
<ele>2779</ele>
<time>2016-07-29T00:23:38Z</time>
</trkpt>
<trkpt lat="37.041282653808594" lon="-118.80192565917969">
<ele>2781</ele>
<time>2016-07-29T00:23:46Z</time>
</trkpt>
<trkpt lat="37.04130935668945" lon="-118.80205535888672">
<ele>2781</ele>
<time>2016-07-29T00:23:55Z</time>
</trkpt>
<trkpt lat="37.04129409790039" lon="-118.80218505859375">
<ele>2783</ele>
<time>2016-07-29T00:24:01Z</time>
</trkpt>
<trkpt lat="37.041255950927734" lon="-118.80229187011719">
<ele>2782</ele>
<time>2016-07-29T00:24:08Z</time>
</trkpt>
<trkpt lat="37.04128646850586" lon="-118.80233764648438">
<ele>2779</ele>
<time>2016-07-29T00:24:15Z</time>
</trkpt>
<trkpt lat="37.041358947753906" lon="-118.80239868164063">
<ele>2774</ele>
<time>2016-07-29T00:24:24Z</time>
</trkpt>
<trkpt lat="37.04134750366211" lon="-118.80253601074219">
<ele>2773</ele>
<time>2016-07-29T00:24:34Z</time>
</trkpt>
<trkpt lat="37.04136276245117" lon="-118.80259704589844">
<ele>2772</ele>
<time>2016-07-29T00:24:40Z</time>
</trkpt>
<trkpt lat="37.04135513305664" lon="-118.80274200439453">
<ele>2775</ele>
<time>2016-07-29T00:24:48Z</time>
</trkpt>
<trkpt lat="37.041316986083984" lon="-118.80286407470703">
<ele>2777</ele>
<time>2016-07-29T00:24:57Z</time>
</trkpt>
<trkpt lat="37.04136276245117" lon="-118.80298614501953">
<ele>2777</ele>
<time>2016-07-29T00:25:05Z</time>
</trkpt>
<trkpt lat="37.041439056396484" lon="-118.8030776977539">
<ele>2774</ele>
<time>2016-07-29T00:25:14Z</time>
</trkpt>
<trkpt lat="37.041507720947266" lon="-118.80318450927734">
<ele>2776</ele>
<time>2016-07-29T00:25:22Z</time>
</trkpt>
<trkpt lat="37.04154968261719" lon="-118.80331420898438">
<ele>2777</ele>
<time>2016-07-29T00:25:30Z</time>
</trkpt>
<trkpt lat="37.04158401489258" lon="-118.80343627929688">
<ele>2775</ele>
<time>2016-07-29T00:25:38Z</time>
</trkpt>
<trkpt lat="37.04158020019531" lon="-118.80355834960938">
<ele>2777</ele>
<time>2016-07-29T00:25:46Z</time>
</trkpt>
<trkpt lat="37.0416374206543" lon="-118.80365753173828">
<ele>2772</ele>
<time>2016-07-29T00:25:52Z</time>
</trkpt>
<trkpt lat="37.04169464111328" lon="-118.80377197265625">
<ele>2768</ele>
<time>2016-07-29T00:26:00Z</time>
</trkpt>
<trkpt lat="37.041709899902344" lon="-118.80390167236328">
<ele>2766</ele>
<time>2016-07-29T00:26:09Z</time>
</trkpt>
<trkpt lat="37.041744232177734" lon="-118.80402374267578">
<ele>2765</ele>
<time>2016-07-29T00:26:18Z</time>
</trkpt>
<trkpt lat="37.04179000854492" lon="-118.80414581298828">
<ele>2766</ele>
<time>2016-07-29T00:26:26Z</time>
</trkpt>
<trkpt lat="37.041839599609375" lon="-118.80426025390625">
<ele>2765</ele>
<time>2016-07-29T00:26:36Z</time>
</trkpt>
<trkpt lat="37.04188919067383" lon="-118.80437469482422">
<ele>2762</ele>
<time>2016-07-29T00:26:43Z</time>
</trkpt>
<trkpt lat="37.04188919067383" lon="-118.80448913574219">
<ele>2760</ele>
<time>2016-07-29T00:26:50Z</time>
</trkpt>
<trkpt lat="37.04191970825195" lon="-118.80461120605469">
<ele>2756</ele>
<time>2016-07-29T00:27:00Z</time>
</trkpt>
<trkpt lat="37.04195022583008" lon="-118.80473327636719">
<ele>2759</ele>
<time>2016-07-29T00:27:08Z</time>
</trkpt>
<trkpt lat="37.041988372802734" lon="-118.80486297607422">
<ele>2755</ele>
<time>2016-07-29T00:27:17Z</time>
</trkpt>
<trkpt lat="37.04202651977539" lon="-118.804931640625">
<ele>2757</ele>
<time>2016-07-29T00:27:26Z</time>
</trkpt>
<trkpt lat="37.04201889038086" lon="-118.80500030517578">
<ele>2758</ele>
<time>2016-07-29T00:27:48Z</time>
</trkpt>
<trkpt lat="37.04203796386719" lon="-118.80512237548828">
<ele>2759</ele>
<time>2016-07-29T00:27:58Z</time>
</trkpt>
<trkpt lat="37.04206848144531" lon="-118.80524444580078">
<ele>2756</ele>
<time>2016-07-29T00:28:08Z</time>
</trkpt>
<trkpt lat="37.042091369628906" lon="-118.80536651611328">
<ele>2755</ele>
<time>2016-07-29T00:28:18Z</time>
</trkpt>
<trkpt lat="37.04210662841797" lon="-118.80548095703125">
<ele>2755</ele>
<time>2016-07-29T00:28:26Z</time>
</trkpt>
<trkpt lat="37.0421257019043" lon="-118.80560302734375">
<ele>2754</ele>
<time>2016-07-29T00:28:35Z</time>
</trkpt>
<trkpt lat="37.04209899902344" lon="-118.80573272705078">
<ele>2754</ele>
<time>2016-07-29T00:28:43Z</time>
</trkpt>
<trkpt lat="37.04207229614258" lon="-118.80584716796875">
<ele>2755</ele>
<time>2016-07-29T00:28:49Z</time>
</trkpt>
<trkpt lat="37.04208755493164" lon="-118.80596923828125">
<ele>2754</ele>
<time>2016-07-29T00:28:56Z</time>
</trkpt>
<trkpt lat="37.042091369628906" lon="-118.80608367919922">
<ele>2753</ele>
<time>2016-07-29T00:29:03Z</time>
</trkpt>
<trkpt lat="37.042110443115234" lon="-118.80621337890625">
<ele>2752</ele>
<time>2016-07-29T00:29:11Z</time>
</trkpt>
<trkpt lat="37.042110443115234" lon="-118.80635070800781">
<ele>2754</ele>
<time>2016-07-29T00:29:19Z</time>
</trkpt>
<trkpt lat="37.04209518432617" lon="-118.80643463134766">
<ele>2755</ele>
<time>2016-07-29T00:29:26Z</time>
</trkpt>
<trkpt lat="37.04212951660156" lon="-118.8065414428711">
<ele>2754</ele>
<time>2016-07-29T00:29:35Z</time>
</trkpt>
<trkpt lat="37.042144775390625" lon="-118.80667877197266">
<ele>2751</ele>
<time>2016-07-29T00:29:43Z</time>
</trkpt>
<trkpt lat="37.04210662841797" lon="-118.80680084228516">
<ele>2751</ele>
<time>2016-07-29T00:29:51Z</time>
</trkpt>
<trkpt lat="37.04207992553711" lon="-118.80693054199219">
<ele>2755</ele>
<time>2016-07-29T00:29:59Z</time>
</trkpt>
<trkpt lat="37.0421028137207" lon="-118.80704498291016">
<ele>2755</ele>
<time>2016-07-29T00:30:05Z</time>
</trkpt>
<trkpt lat="37.04210662841797" lon="-118.80718231201172">
<ele>2753</ele>
<time>2016-07-29T00:30:13Z</time>
</trkpt>
<trkpt lat="37.04209518432617" lon="-118.80731201171875">
<ele>2752</ele>
<time>2016-07-29T00:30:20Z</time>
</trkpt>
<trkpt lat="37.042083740234375" lon="-118.80741119384766">
<ele>2752</ele>
<time>2016-07-29T00:30:26Z</time>
</trkpt>
<trkpt lat="37.04208755493164" lon="-118.80752563476563">
<ele>2750</ele>
<time>2016-07-29T00:30:34Z</time>
</trkpt>
<trkpt lat="37.0421257019043" lon="-118.80766296386719">
<ele>2750</ele>
<time>2016-07-29T00:30:40Z</time>
</trkpt>
<trkpt lat="37.042152404785156" lon="-118.80779266357422">
<ele>2755</ele>
<time>2016-07-29T00:30:48Z</time>
</trkpt>
<trkpt lat="37.04212951660156" lon="-118.80791473388672">
<ele>2758</ele>
<time>2016-07-29T00:30:56Z</time>
</trkpt>
<trkpt lat="37.04212188720703" lon="-118.80803680419922">
<ele>2760</ele>
<time>2016-07-29T00:31:04Z</time>
</trkpt>
<trkpt lat="37.042118072509766" lon="-118.80815887451172">
<ele>2762</ele>
<time>2016-07-29T00:31:12Z</time>
</trkpt>
<trkpt lat="37.04209899902344" lon="-118.80821990966797">
<ele>2768</ele>
<time>2016-07-29T00:31:18Z</time>
</trkpt>
<trkpt lat="37.04212188720703" lon="-118.80827331542969">
<ele>2770</ele>
<time>2016-07-29T00:31:24Z</time>
</trkpt>
<trkpt lat="37.04214859008789" lon="-118.808349609375">
<ele>2773</ele>
<time>2016-07-29T00:31:32Z</time>
</trkpt>
<trkpt lat="37.042144775390625" lon="-118.80841064453125">
<ele>2770</ele>
<time>2016-07-29T00:31:40Z</time>
</trkpt>
<trkpt lat="37.042179107666016" lon="-118.80845642089844">
<ele>2773</ele>
<time>2016-07-29T00:31:46Z</time>
</trkpt>
<trkpt lat="37.04220199584961" lon="-118.80851745605469">
<ele>2772</ele>
<time>2016-07-29T00:31:53Z</time>
</trkpt>
<trkpt lat="37.04222869873047" lon="-118.80863952636719">
<ele>2770</ele>
<time>2016-07-29T00:32:05Z</time>
</trkpt>
<trkpt lat="37.04226303100586" lon="-118.80868530273438">
<ele>2767</ele>
<time>2016-07-29T00:32:13Z</time>
</trkpt>
<trkpt lat="37.04230499267578" lon="-118.80879211425781">
<ele>2769</ele>
<time>2016-07-29T00:32:21Z</time>
</trkpt>
<trkpt lat="37.04230499267578" lon="-118.80889129638672">
<ele>2769</ele>
<time>2016-07-29T00:32:42Z</time>
</trkpt>
<trkpt lat="37.04222106933594" lon="-118.80883026123047">
<ele>2767</ele>
<time>2016-07-29T00:32:51Z</time>
</trkpt>
<trkpt lat="37.04227066040039" lon="-118.808837890625">
<ele>2769</ele>
<time>2016-07-29T00:33:01Z</time>
</trkpt>
<trkpt lat="37.042320251464844" lon="-118.80884552001953">
<ele>2769</ele>
<time>2016-07-29T00:33:13Z</time>
</trkpt>
<trkpt lat="37.042354583740234" lon="-118.80895233154297">
<ele>2766</ele>
<time>2016-07-29T00:33:36Z</time>
</trkpt>
<trkpt lat="37.04237365722656" lon="-118.80900573730469">
<ele>2770</ele>
<time>2016-07-29T00:33:44Z</time>
</trkpt>
<trkpt lat="37.042388916015625" lon="-118.8090591430664">
<ele>2768</ele>
<time>2016-07-29T00:33:51Z</time>
</trkpt>
<trkpt lat="37.042442321777344" lon="-118.80915832519531">
<ele>2772</ele>
<time>2016-07-29T00:34:01Z</time>
</trkpt>
<trkpt lat="37.042415618896484" lon="-118.80921173095703">
<ele>2775</ele>
<time>2016-07-29T00:34:14Z</time>
</trkpt>
<trkpt lat="37.04234313964844" lon="-118.80928039550781">
<ele>2773</ele>
<time>2016-07-29T00:34:26Z</time>
</trkpt>
<trkpt lat="37.04230880737305" lon="-118.809326171875">
<ele>2773</ele>
<time>2016-07-29T00:34:32Z</time>
</trkpt>
<trkpt lat="37.04229736328125" lon="-118.80938720703125">
<ele>2775</ele>
<time>2016-07-29T00:34:42Z</time>
</trkpt>
<trkpt lat="37.04230499267578" lon="-118.80944061279297">
<ele>2778</ele>
<time>2016-07-29T00:34:52Z</time>
</trkpt>
<trkpt lat="37.04228973388672" lon="-118.8095703125">
<ele>2778</ele>
<time>2016-07-29T00:34:59Z</time>
</trkpt>
<trkpt lat="37.04231262207031" lon="-118.80968475341797">
<ele>2773</ele>
<time>2016-07-29T00:35:07Z</time>
</trkpt>
<trkpt lat="37.042388916015625" lon="-118.80976104736328">
<ele>2770</ele>
<time>2016-07-29T00:35:17Z</time>
</trkpt>
<trkpt lat="37.04240798950195" lon="-118.80985260009766">
<ele>2774</ele>
<time>2016-07-29T00:35:26Z</time>
</trkpt>
<trkpt lat="37.04241943359375" lon="-118.8099136352539">
<ele>2772</ele>
<time>2016-07-29T00:35:32Z</time>
</trkpt>
<trkpt lat="37.04241943359375" lon="-118.80997467041016">
<ele>2774</ele>
<time>2016-07-29T00:35:39Z</time>
</trkpt>
<trkpt lat="37.04241943359375" lon="-118.8100357055664">
<ele>2772</ele>
<time>2016-07-29T00:35:45Z</time>
</trkpt>
<trkpt lat="37.042381286621094" lon="-118.8101577758789">
<ele>2779</ele>
<time>2016-07-29T00:35:55Z</time>
</trkpt>
<trkpt lat="37.04231262207031" lon="-118.81024932861328">
<ele>2785</ele>
<time>2016-07-29T00:36:03Z</time>
</trkpt>
<trkpt lat="37.04228591918945" lon="-118.81029510498047">
<ele>2785</ele>
<time>2016-07-29T00:36:10Z</time>
</trkpt>
<trkpt lat="37.042236328125" lon="-118.810302734375">
<ele>2786</ele>
<time>2016-07-29T00:36:18Z</time>
</trkpt>
<trkpt lat="37.04218673706055" lon="-118.81035614013672">
<ele>2784</ele>
<time>2016-07-29T00:36:32Z</time>
</trkpt>
<trkpt lat="37.042198181152344" lon="-118.81040954589844">
<ele>2786</ele>
<time>2016-07-29T00:36:41Z</time>
</trkpt>
<trkpt lat="37.04219055175781" lon="-118.81053161621094">
<ele>2784</ele>
<time>2016-07-29T00:36:51Z</time>
</trkpt>
<trkpt lat="37.04224395751953" lon="-118.81063079833984">
<ele>2785</ele>
<time>2016-07-29T00:37:00Z</time>
</trkpt>
<trkpt lat="37.04231643676758" lon="-118.81072998046875">
<ele>2786</ele>
<time>2016-07-29T00:37:09Z</time>
</trkpt>
<trkpt lat="37.0423583984375" lon="-118.81083679199219">
<ele>2784</ele>
<time>2016-07-29T00:37:19Z</time>
</trkpt>
<trkpt lat="37.04239273071289" lon="-118.81089782714844">
<ele>2785</ele>
<time>2016-07-29T00:37:26Z</time>
</trkpt>
<trkpt lat="37.04243469238281" lon="-118.81102752685547">
<ele>2784</ele>
<time>2016-07-29T00:37:35Z</time>
</trkpt>
<trkpt lat="37.04246139526367" lon="-118.8111572265625">
<ele>2783</ele>
<time>2016-07-29T00:37:43Z</time>
</trkpt>
<trkpt lat="37.042510986328125" lon="-118.8112564086914">
<ele>2786</ele>
<time>2016-07-29T00:37:52Z</time>
</trkpt>
<trkpt lat="37.04256057739258" lon="-118.8113784790039">
<ele>2788</ele>
<time>2016-07-29T00:38:02Z</time>
</trkpt>
<trkpt lat="37.04258728027344" lon="-118.81150817871094">
<ele>2791</ele>
<time>2016-07-29T00:38:13Z</time>
</trkpt>
<trkpt lat="37.0425910949707" lon="-118.81156921386719">
<ele>2791</ele>
<time>2016-07-29T00:38:24Z</time>
</trkpt>
<trkpt lat="37.042633056640625" lon="-118.81166076660156">
<ele>2791</ele>
<time>2016-07-29T00:38:30Z</time>
</trkpt>
<trkpt lat="37.04263687133789" lon="-118.81172180175781">
<ele>2793</ele>
<time>2016-07-29T00:38:39Z</time>
</trkpt>
<trkpt lat="37.042598724365234" lon="-118.81182861328125">
<ele>2796</ele>
<time>2016-07-29T00:38:49Z</time>
</trkpt>
<trkpt lat="37.04259490966797" lon="-118.8118896484375">
<ele>2796</ele>
<time>2016-07-29T00:39:01Z</time>
</trkpt>
<trkpt lat="37.04259490966797" lon="-118.81201934814453">
<ele>2797</ele>
<time>2016-07-29T00:39:10Z</time>
</trkpt>
<trkpt lat="37.04259490966797" lon="-118.8121337890625">
<ele>2794</ele>
<time>2016-07-29T00:39:21Z</time>
</trkpt>
<trkpt lat="37.04264450073242" lon="-118.81220245361328">
<ele>2791</ele>
<time>2016-07-29T00:39:30Z</time>
</trkpt>
<trkpt lat="37.04269790649414" lon="-118.81230163574219">
<ele>2791</ele>
<time>2016-07-29T00:39:36Z</time>
</trkpt>
<trkpt lat="37.04274368286133" lon="-118.81240844726563">
<ele>2791</ele>
<time>2016-07-29T00:39:44Z</time>
</trkpt>
<trkpt lat="37.042816162109375" lon="-118.81249237060547">
<ele>2791</ele>
<time>2016-07-29T00:39:52Z</time>
</trkpt>
<trkpt lat="37.04286193847656" lon="-118.81260681152344">
<ele>2787</ele>
<time>2016-07-29T00:40:02Z</time>
</trkpt>
<trkpt lat="37.042938232421875" lon="-118.81269836425781">
<ele>2788</ele>
<time>2016-07-29T00:40:09Z</time>
</trkpt>
<trkpt lat="37.042999267578125" lon="-118.81280517578125">
<ele>2786</ele>
<time>2016-07-29T00:40:18Z</time>
</trkpt>
<trkpt lat="37.04303741455078" lon="-118.81291198730469">
<ele>2785</ele>
<time>2016-07-29T00:40:26Z</time>
</trkpt>
<trkpt lat="37.04305648803711" lon="-118.81303405761719">
<ele>2787</ele>
<time>2016-07-29T00:40:34Z</time>
</trkpt>
<trkpt lat="37.04310607910156" lon="-118.81315612792969">
<ele>2792</ele>
<time>2016-07-29T00:40:43Z</time>
</trkpt>
<trkpt lat="37.043155670166016" lon="-118.8132553100586">
<ele>2793</ele>
<time>2016-07-29T00:40:53Z</time>
</trkpt>
<trkpt lat="37.04312515258789" lon="-118.81330871582031">
<ele>2792</ele>
<time>2016-07-29T00:41:00Z</time>
</trkpt>
<trkpt lat="37.043113708496094" lon="-118.81340789794922">
<ele>2796</ele>
<time>2016-07-29T00:41:10Z</time>
</trkpt>
<trkpt lat="37.043148040771484" lon="-118.81351470947266">
<ele>2799</ele>
<time>2016-07-29T00:42:08Z</time>
</trkpt>
<trkpt lat="37.043155670166016" lon="-118.81364440917969">
<ele>2796</ele>
<time>2016-07-29T00:42:18Z</time>
</trkpt>
<trkpt lat="37.043155670166016" lon="-118.8137435913086">
<ele>2798</ele>
<time>2016-07-29T00:42:26Z</time>
</trkpt>
<trkpt lat="37.04312515258789" lon="-118.81387329101563">
<ele>2799</ele>
<time>2016-07-29T00:42:35Z</time>
</trkpt>
<trkpt lat="37.04315185546875" lon="-118.8139877319336">
<ele>2802</ele>
<time>2016-07-29T00:42:44Z</time>
</trkpt>
<trkpt lat="37.043174743652344" lon="-118.8141098022461">
<ele>2801</ele>
<time>2016-07-29T00:42:53Z</time>
</trkpt>
<trkpt lat="37.04316329956055" lon="-118.81423950195313">
<ele>2801</ele>
<time>2016-07-29T00:43:01Z</time>
</trkpt>
<trkpt lat="37.04319381713867" lon="-118.81436157226563">
<ele>2801</ele>
<time>2016-07-29T00:43:09Z</time>
</trkpt>
<trkpt lat="37.04325485229492" lon="-118.8144760131836">
<ele>2805</ele>
<time>2016-07-29T00:43:17Z</time>
</trkpt>
<trkpt lat="37.04328918457031" lon="-118.81460571289063">
<ele>2802</ele>
<time>2016-07-29T00:43:26Z</time>
</trkpt>
<trkpt lat="37.043251037597656" lon="-118.81472778320313">
<ele>2802</ele>
<time>2016-07-29T00:43:38Z</time>
</trkpt>
<trkpt lat="37.043243408203125" lon="-118.8148422241211">
<ele>2802</ele>
<time>2016-07-29T00:43:48Z</time>
</trkpt>
<trkpt lat="37.043296813964844" lon="-118.81494140625">
<ele>2797</ele>
<time>2016-07-29T00:43:56Z</time>
</trkpt>
<trkpt lat="37.043312072753906" lon="-118.81507110595703">
<ele>2797</ele>
<time>2016-07-29T00:44:04Z</time>
</trkpt>
<trkpt lat="37.043277740478516" lon="-118.815185546875">
<ele>2798</ele>
<time>2016-07-29T00:44:17Z</time>
</trkpt>
<trkpt lat="37.043357849121094" lon="-118.81521606445313">
<ele>2804</ele>
<time>2016-07-29T00:44:33Z</time>
</trkpt>
<trkpt lat="37.04340744018555" lon="-118.81522369384766">
<ele>2806</ele>
<time>2016-07-29T00:44:43Z</time>
</trkpt>
<trkpt lat="37.0434455871582" lon="-118.815185546875">
<ele>2808</ele>
<time>2016-07-29T00:44:49Z</time>
</trkpt>
<trkpt lat="37.04354476928711" lon="-118.815185546875">
<ele>2807</ele>
<time>2016-07-29T00:44:57Z</time>
</trkpt>
<trkpt lat="37.0435676574707" lon="-118.81523895263672">
<ele>2807</ele>
<time>2016-07-29T00:45:03Z</time>
</trkpt>
<trkpt lat="37.04364013671875" lon="-118.81533813476563">
<ele>2808</ele>
<time>2016-07-29T00:45:12Z</time>
</trkpt>
<trkpt lat="37.04370880126953" lon="-118.8154296875">
<ele>2809</ele>
<time>2016-07-29T00:45:22Z</time>
</trkpt>
<trkpt lat="37.04379653930664" lon="-118.81552124023438">
<ele>2811</ele>
<time>2016-07-29T00:45:30Z</time>
</trkpt>
<trkpt lat="37.043880462646484" lon="-118.81556701660156">
<ele>2817</ele>
<time>2016-07-29T00:45:40Z</time>
</trkpt>
<trkpt lat="37.043983459472656" lon="-118.81560516357422">
<ele>2815</ele>
<time>2016-07-29T00:45:49Z</time>
</trkpt>
<trkpt lat="37.04404830932617" lon="-118.81568908691406">
<ele>2816</ele>
<time>2016-07-29T00:45:57Z</time>
</trkpt>
<trkpt lat="37.04410934448242" lon="-118.81578063964844">
<ele>2811</ele>
<time>2016-07-29T00:46:07Z</time>
</trkpt>
<trkpt lat="37.044185638427734" lon="-118.81586456298828">
<ele>2815</ele>
<time>2016-07-29T00:46:22Z</time>
</trkpt>
<trkpt lat="37.044189453125" lon="-118.81595611572266">
<ele>2813</ele>
<time>2016-07-29T00:46:51Z</time>
</trkpt>
<trkpt lat="37.04420852661133" lon="-118.81607818603516">
<ele>2815</ele>
<time>2016-07-29T00:47:01Z</time>
</trkpt>
<trkpt lat="37.044219970703125" lon="-118.81620788574219">
<ele>2816</ele>
<time>2016-07-29T00:47:10Z</time>
</trkpt>
<trkpt lat="37.04426193237305" lon="-118.81632995605469">
<ele>2817</ele>
<time>2016-07-29T00:47:18Z</time>
</trkpt>
<trkpt lat="37.044307708740234" lon="-118.81643676757813">
<ele>2817</ele>
<time>2016-07-29T00:47:26Z</time>
</trkpt>
<trkpt lat="37.04433059692383" lon="-118.8165512084961">
<ele>2814</ele>
<time>2016-07-29T00:47:35Z</time>
</trkpt>
<trkpt lat="37.04437255859375" lon="-118.81668090820313">
<ele>2814</ele>
<time>2016-07-29T00:47:44Z</time>
</trkpt>
<trkpt lat="37.04441452026367" lon="-118.81678009033203">
<ele>2816</ele>
<time>2016-07-29T00:47:53Z</time>
</trkpt>
<trkpt lat="37.04446792602539" lon="-118.81690216064453">
<ele>2814</ele>
<time>2016-07-29T00:48:03Z</time>
</trkpt>
<trkpt lat="37.04450988769531" lon="-118.8169937133789">
<ele>2813</ele>
<time>2016-07-29T00:48:10Z</time>
</trkpt>
<trkpt lat="37.044517517089844" lon="-118.81712341308594">
<ele>2817</ele>
<time>2016-07-29T00:48:16Z</time>
</trkpt>
<trkpt lat="37.044559478759766" lon="-118.81721496582031">
<ele>2821</ele>
<time>2016-07-29T00:48:26Z</time>
</trkpt>
<trkpt lat="37.04457473754883" lon="-118.81726837158203">
<ele>2819</ele>
<time>2016-07-29T00:48:32Z</time>
</trkpt>
<trkpt lat="37.044647216796875" lon="-118.81735229492188">
<ele>2816</ele>
<time>2016-07-29T00:48:41Z</time>
</trkpt>
<trkpt lat="37.04471206665039" lon="-118.81744384765625">
<ele>2818</ele>
<time>2016-07-29T00:48:49Z</time>
</trkpt>
<trkpt lat="37.044769287109375" lon="-118.81755828857422">
<ele>2816</ele>
<time>2016-07-29T00:48:56Z</time>
</trkpt>
<trkpt lat="37.04480743408203" lon="-118.81768798828125">
<ele>2819</ele>
<time>2016-07-29T00:49:03Z</time>
</trkpt>
<trkpt lat="37.044837951660156" lon="-118.81779479980469">
<ele>2821</ele>
<time>2016-07-29T00:49:10Z</time>
</trkpt>
<trkpt lat="37.04486083984375" lon="-118.81791687011719">
<ele>2821</ele>
<time>2016-07-29T00:49:18Z</time>
</trkpt>
<trkpt lat="37.04484176635742" lon="-118.81804656982422">
<ele>2821</ele>
<time>2016-07-29T00:49:25Z</time>
</trkpt>
<trkpt lat="37.04485321044922" lon="-118.81819152832031">
<ele>2817</ele>
<time>2016-07-29T00:49:32Z</time>
</trkpt>
<trkpt lat="37.04487228393555" lon="-118.81832122802734">
<ele>2818</ele>
<time>2016-07-29T00:49:40Z</time>
</trkpt>
<trkpt lat="37.04484939575195" lon="-118.81845092773438">
<ele>2820</ele>
<time>2016-07-29T00:49:48Z</time>
</trkpt>
<trkpt lat="37.04485321044922" lon="-118.81852722167969">
<ele>2820</ele>
<time>2016-07-29T00:49:54Z</time>
</trkpt>
<trkpt lat="37.044891357421875" lon="-118.81864929199219">
<ele>2819</ele>
<time>2016-07-29T00:50:02Z</time>
</trkpt>
<trkpt lat="37.044979095458984" lon="-118.81871795654297">
<ele>2821</ele>
<time>2016-07-29T00:50:09Z</time>
</trkpt>
<trkpt lat="37.0450439453125" lon="-118.8188247680664">
<ele>2816</ele>
<time>2016-07-29T00:50:17Z</time>
</trkpt>
<trkpt lat="37.045066833496094" lon="-118.81895446777344">
<ele>2820</ele>
<time>2016-07-29T00:50:25Z</time>
</trkpt>
<trkpt lat="37.04515838623047" lon="-118.81905364990234">
<ele>2822</ele>
<time>2016-07-29T00:50:36Z</time>
</trkpt>
<trkpt lat="37.04517364501953" lon="-118.81918334960938">
<ele>2822</ele>
<time>2016-07-29T00:50:44Z</time>
</trkpt>
<trkpt lat="37.04519271850586" lon="-118.8193130493164">
<ele>2820</ele>
<time>2016-07-29T00:50:54Z</time>
</trkpt>
<trkpt lat="37.04526901245117" lon="-118.81938934326172">
<ele>2823</ele>
<time>2016-07-29T00:51:02Z</time>
</trkpt>
<trkpt lat="37.045326232910156" lon="-118.81949615478516">
<ele>2825</ele>
<time>2016-07-29T00:51:10Z</time>
</trkpt>
<trkpt lat="37.045326232910156" lon="-118.81961059570313">
<ele>2827</ele>
<time>2016-07-29T00:51:19Z</time>
</trkpt>
<trkpt lat="37.04533767700195" lon="-118.81971740722656">
<ele>2826</ele>
<time>2016-07-29T00:51:26Z</time>
</trkpt>
<trkpt lat="37.04531478881836" lon="-118.81986236572266">
<ele>2824</ele>
<time>2016-07-29T00:51:34Z</time>
</trkpt>
<trkpt lat="37.04528045654297" lon="-118.81997680664063">
<ele>2822</ele>
<time>2016-07-29T00:51:41Z</time>
</trkpt>
<trkpt lat="37.04521560668945" lon="-118.82007598876953">
<ele>2821</ele>
<time>2016-07-29T00:51:49Z</time>
</trkpt>
<trkpt lat="37.045223236083984" lon="-118.8201904296875">
<ele>2819</ele>
<time>2016-07-29T00:51:57Z</time>
</trkpt>
<trkpt lat="37.045196533203125" lon="-118.8202896118164">
<ele>2818</ele>
<time>2016-07-29T00:52:06Z</time>
</trkpt>
<trkpt lat="37.045162200927734" lon="-118.82040405273438">
<ele>2815</ele>
<time>2016-07-29T00:52:18Z</time>
</trkpt>
<trkpt lat="37.0451545715332" lon="-118.82049560546875">
<ele>2812</ele>
<time>2016-07-29T00:52:26Z</time>
</trkpt>
<trkpt lat="37.045166015625" lon="-118.82063293457031">
<ele>2812</ele>
<time>2016-07-29T00:52:34Z</time>
</trkpt>
<trkpt lat="37.045162200927734" lon="-118.82075500488281">
<ele>2812</ele>
<time>2016-07-29T00:52:42Z</time>
</trkpt>
<trkpt lat="37.04517364501953" lon="-118.82088470458984">
<ele>2814</ele>
<time>2016-07-29T00:52:49Z</time>
</trkpt>
<trkpt lat="37.04524612426758" lon="-118.82096862792969">
<ele>2814</ele>
<time>2016-07-29T00:52:57Z</time>
</trkpt>
<trkpt lat="37.045345306396484" lon="-118.82102966308594">
<ele>2817</ele>
<time>2016-07-29T00:53:05Z</time>
</trkpt>
<trkpt lat="37.04539489746094" lon="-118.8211441040039">
<ele>2816</ele>
<time>2016-07-29T00:53:13Z</time>
</trkpt>
<trkpt lat="37.04547119140625" lon="-118.82123565673828">
<ele>2812</ele>
<time>2016-07-29T00:53:22Z</time>
</trkpt>
<trkpt lat="37.04549789428711" lon="-118.82134246826172">
<ele>2810</ele>
<time>2016-07-29T00:53:31Z</time>
</trkpt>
<trkpt lat="37.04551696777344" lon="-118.82147216796875">
<ele>2814</ele>
<time>2016-07-29T00:53:39Z</time>
</trkpt>
<trkpt lat="37.045570373535156" lon="-118.82158660888672">
<ele>2820</ele>
<time>2016-07-29T00:53:48Z</time>
</trkpt>
<trkpt lat="37.045650482177734" lon="-118.8216781616211">
<ele>2814</ele>
<time>2016-07-29T00:53:56Z</time>
</trkpt>
<trkpt lat="37.04569625854492" lon="-118.82179260253906">
<ele>2814</ele>
<time>2016-07-29T00:54:04Z</time>
</trkpt>
<trkpt lat="37.04572677612305" lon="-118.82190704345703">
<ele>2815</ele>
<time>2016-07-29T00:54:10Z</time>
</trkpt>
<trkpt lat="37.04572677612305" lon="-118.82202911376953">
<ele>2814</ele>
<time>2016-07-29T00:54:21Z</time>
</trkpt>
<trkpt lat="37.04568099975586" lon="-118.82215118408203">
<ele>2815</ele>
<time>2016-07-29T00:54:30Z</time>
</trkpt>
<trkpt lat="37.04561996459961" lon="-118.82225799560547">
<ele>2812</ele>
<time>2016-07-29T00:54:37Z</time>
</trkpt>
<trkpt lat="37.04558181762695" lon="-118.82238006591797">
<ele>2807</ele>
<time>2016-07-29T00:54:47Z</time>
</trkpt>
<trkpt lat="37.045555114746094" lon="-118.82249450683594">
<ele>2809</ele>
<time>2016-07-29T00:54:58Z</time>
</trkpt>
<trkpt lat="37.045589447021484" lon="-118.82254791259766">
<ele>2811</ele>
<time>2016-07-29T00:55:04Z</time>
</trkpt>
<trkpt lat="37.045589447021484" lon="-118.8226089477539">
<ele>2810</ele>
<time>2016-07-29T00:55:12Z</time>
</trkpt>
<trkpt lat="37.045631408691406" lon="-118.82271575927734">
<ele>2814</ele>
<time>2016-07-29T00:55:22Z</time>
</trkpt>
<trkpt lat="37.045658111572266" lon="-118.82282257080078">
<ele>2815</ele>
<time>2016-07-29T00:55:30Z</time>
</trkpt>
<trkpt lat="37.04570388793945" lon="-118.82292938232422">
<ele>2816</ele>
<time>2016-07-29T00:55:36Z</time>
</trkpt>
<trkpt lat="37.0457649230957" lon="-118.82304382324219">
<ele>2816</ele>
<time>2016-07-29T00:55:44Z</time>
</trkpt>
<trkpt lat="37.045833587646484" lon="-118.82313537597656">
<ele>2813</ele>
<time>2016-07-29T00:55:52Z</time>
</trkpt>
<trkpt lat="37.04589080810547" lon="-118.82322692871094">
<ele>2814</ele>
<time>2016-07-29T00:55:58Z</time>
</trkpt>
<trkpt lat="37.04595947265625" lon="-118.82331848144531">
<ele>2814</ele>
<time>2016-07-29T00:56:05Z</time>
</trkpt>
<trkpt lat="37.046051025390625" lon="-118.82337188720703">
<ele>2811</ele>
<time>2016-07-29T00:56:12Z</time>
</trkpt>
<trkpt lat="37.046142578125" lon="-118.82343292236328">
<ele>2810</ele>
<time>2016-07-29T00:56:19Z</time>
</trkpt>
<trkpt lat="37.04616165161133" lon="-118.82353973388672">
<ele>2809</ele>
<time>2016-07-29T00:56:25Z</time>
</trkpt>
<trkpt lat="37.046241760253906" lon="-118.82365417480469">
<ele>2808</ele>
<time>2016-07-29T00:56:34Z</time>
</trkpt>
<trkpt lat="37.04635238647461" lon="-118.82366180419922">
<ele>2807</ele>
<time>2016-07-29T00:56:40Z</time>
</trkpt>
<trkpt lat="37.04644775390625" lon="-118.82369232177734">
<ele>2807</ele>
<time>2016-07-29T00:56:48Z</time>
</trkpt>
<trkpt lat="37.046478271484375" lon="-118.82374572753906">
<ele>2809</ele>
<time>2016-07-29T00:56:56Z</time>
</trkpt>
<trkpt lat="37.04655075073242" lon="-118.8238296508789">
<ele>2807</ele>
<time>2016-07-29T00:57:04Z</time>
</trkpt>
<trkpt lat="37.046607971191406" lon="-118.82392883300781">
<ele>2808</ele>
<time>2016-07-29T00:57:13Z</time>
</trkpt>
<trkpt lat="37.046669006347656" lon="-118.82401275634766">
<ele>2808</ele>
<time>2016-07-29T00:57:21Z</time>
</trkpt>
<trkpt lat="37.0467643737793" lon="-118.82408905029297">
<ele>2809</ele>
<time>2016-07-29T00:57:29Z</time>
</trkpt>
<trkpt lat="37.04684829711914" lon="-118.82414245605469">
<ele>2809</ele>
<time>2016-07-29T00:57:36Z</time>
</trkpt>
<trkpt lat="37.04695129394531" lon="-118.82416534423828">
<ele>2806</ele>
<time>2016-07-29T00:57:43Z</time>
</trkpt>
<trkpt lat="37.047000885009766" lon="-118.8242416381836">
<ele>2807</ele>
<time>2016-07-29T00:57:49Z</time>
</trkpt>
<trkpt lat="37.04705810546875" lon="-118.82434844970703">
<ele>2805</ele>
<time>2016-07-29T00:57:57Z</time>
</trkpt>
<trkpt lat="37.04712677001953" lon="-118.82444763183594">
<ele>2808</ele>
<time>2016-07-29T00:58:07Z</time>
</trkpt>
<trkpt lat="37.047183990478516" lon="-118.82453918457031">
<ele>2810</ele>
<time>2016-07-29T00:58:17Z</time>
</trkpt>
<trkpt lat="37.047245025634766" lon="-118.82465362548828">
<ele>2811</ele>
<time>2016-07-29T00:58:24Z</time>
</trkpt>
<trkpt lat="37.04728317260742" lon="-118.82474517822266">
<ele>2811</ele>
<time>2016-07-29T00:58:30Z</time>
</trkpt>
<trkpt lat="37.04730987548828" lon="-118.8248519897461">
<ele>2811</ele>
<time>2016-07-29T00:58:36Z</time>
</trkpt>
<trkpt lat="37.047325134277344" lon="-118.8249740600586">
<ele>2807</ele>
<time>2016-07-29T00:58:44Z</time>
</trkpt>
<trkpt lat="37.04740905761719" lon="-118.8250503540039">
<ele>2806</ele>
<time>2016-07-29T00:58:52Z</time>
</trkpt>
<trkpt lat="37.047489166259766" lon="-118.82511138916016">
<ele>2806</ele>
<time>2016-07-29T00:59:04Z</time>
</trkpt>
<trkpt lat="37.047584533691406" lon="-118.82512664794922">
<ele>2806</ele>
<time>2016-07-29T00:59:11Z</time>
</trkpt>
<trkpt lat="37.04766845703125" lon="-118.8252182006836">
<ele>2803</ele>
<time>2016-07-29T00:59:19Z</time>
</trkpt>
<trkpt lat="37.0477180480957" lon="-118.82530975341797">
<ele>2801</ele>
<time>2016-07-29T00:59:26Z</time>
</trkpt>
<trkpt lat="37.047767639160156" lon="-118.82542419433594">
<ele>2801</ele>
<time>2016-07-29T00:59:36Z</time>
</trkpt>
<trkpt lat="37.04782485961914" lon="-118.8255386352539">
<ele>2805</ele>
<time>2016-07-29T00:59:46Z</time>
</trkpt>
<trkpt lat="37.04789352416992" lon="-118.82561492919922">
<ele>2808</ele>
<time>2016-07-29T00:59:52Z</time>
</trkpt>
<trkpt lat="37.04796600341797" lon="-118.8257064819336">
<ele>2808</ele>
<time>2016-07-29T01:00:00Z</time>
</trkpt>
<trkpt lat="37.04801940917969" lon="-118.82581329345703">
<ele>2808</ele>
<time>2016-07-29T01:00:07Z</time>
</trkpt>
<trkpt lat="37.04808044433594" lon="-118.82589721679688">
<ele>2807</ele>
<time>2016-07-29T01:00:16Z</time>
</trkpt>
<trkpt lat="37.04815673828125" lon="-118.82598876953125">
<ele>2810</ele>
<time>2016-07-29T01:00:26Z</time>
</trkpt>
<trkpt lat="37.04823684692383" lon="-118.8260726928711">
<ele>2809</ele>
<time>2016-07-29T01:00:33Z</time>
</trkpt>
<trkpt lat="37.048316955566406" lon="-118.82613372802734">
<ele>2811</ele>
<time>2016-07-29T01:00:40Z</time>
</trkpt>
<trkpt lat="37.04841232299805" lon="-118.82617950439453">
<ele>2812</ele>
<time>2016-07-29T01:00:47Z</time>
</trkpt>
<trkpt lat="37.04850769042969" lon="-118.82623291015625">
<ele>2807</ele>
<time>2016-07-29T01:00:55Z</time>
</trkpt>
<trkpt lat="37.048587799072266" lon="-118.8262939453125">
<ele>2809</ele>
<time>2016-07-29T01:01:03Z</time>
</trkpt>
<trkpt lat="37.04866027832031" lon="-118.82637023925781">
<ele>2806</ele>
<time>2016-07-29T01:01:11Z</time>
</trkpt>
<trkpt lat="37.048728942871094" lon="-118.82645416259766">
<ele>2809</ele>
<time>2016-07-29T01:01:19Z</time>
</trkpt>
<trkpt lat="37.04879379272461" lon="-118.8265380859375">
<ele>2812</ele>
<time>2016-07-29T01:01:26Z</time>
</trkpt>
<trkpt lat="37.04887771606445" lon="-118.82660675048828">
<ele>2813</ele>
<time>2016-07-29T01:01:33Z</time>
</trkpt>
<trkpt lat="37.04896545410156" lon="-118.82666778564453">
<ele>2810</ele>
<time>2016-07-29T01:01:43Z</time>
</trkpt>
<trkpt lat="37.04905319213867" lon="-118.82673645019531">
<ele>2808</ele>
<time>2016-07-29T01:01:54Z</time>
</trkpt>
<trkpt lat="37.04911804199219" lon="-118.82676696777344">
<ele>2808</ele>
<time>2016-07-29T01:03:12Z</time>
</trkpt>
<trkpt lat="37.0492057800293" lon="-118.82682800292969">
<ele>2806</ele>
<time>2016-07-29T01:03:21Z</time>
</trkpt>
<trkpt lat="37.04931640625" lon="-118.826904296875">
<ele>2807</ele>
<time>2016-07-29T01:03:30Z</time>
</trkpt>
<trkpt lat="37.049373626708984" lon="-118.826904296875">
<ele>2810</ele>
<time>2016-07-29T01:03:42Z</time>
</trkpt>
<trkpt lat="37.049468994140625" lon="-118.82695770263672">
<ele>2807</ele>
<time>2016-07-29T01:03:51Z</time>
</trkpt>
<trkpt lat="37.04951095581055" lon="-118.82698059082031">
<ele>2804</ele>
<time>2016-07-29T01:03:57Z</time>
</trkpt>
<trkpt lat="37.04956817626953" lon="-118.82706451416016">
<ele>2805</ele>
<time>2016-07-29T01:04:06Z</time>
</trkpt>
<trkpt lat="37.049644470214844" lon="-118.82713317871094">
<ele>2806</ele>
<time>2016-07-29T01:04:16Z</time>
</trkpt>
<trkpt lat="37.04973220825195" lon="-118.82720184326172">
<ele>2810</ele>
<time>2016-07-29T01:04:23Z</time>
</trkpt>
<trkpt lat="37.04983139038086" lon="-118.82725524902344">
<ele>2810</ele>
<time>2016-07-29T01:04:30Z</time>
</trkpt>
<trkpt lat="37.049903869628906" lon="-118.82733154296875">
<ele>2811</ele>
<time>2016-07-29T01:04:36Z</time>
</trkpt>
<trkpt lat="37.04997634887695" lon="-118.82740783691406">
<ele>2814</ele>
<time>2016-07-29T01:04:43Z</time>
</trkpt>
<trkpt lat="37.05003356933594" lon="-118.8275146484375">
<ele>2812</ele>
<time>2016-07-29T01:04:53Z</time>
</trkpt>
<trkpt lat="37.05009460449219" lon="-118.82760620117188">
<ele>2811</ele>
<time>2016-07-29T01:05:02Z</time>
</trkpt>
<trkpt lat="37.050174713134766" lon="-118.82765197753906">
<ele>2808</ele>
<time>2016-07-29T01:05:10Z</time>
</trkpt>
<trkpt lat="37.050262451171875" lon="-118.82772064208984">
<ele>2809</ele>
<time>2016-07-29T01:05:18Z</time>
</trkpt>
<trkpt lat="37.0502815246582" lon="-118.82780456542969">
<ele>2809</ele>
<time>2016-07-29T01:05:26Z</time>
</trkpt>
<trkpt lat="37.050289154052734" lon="-118.82786560058594">
<ele>2806</ele>
<time>2016-07-29T01:05:33Z</time>
</trkpt>
<trkpt lat="37.05026626586914" lon="-118.82798767089844">
<ele>2809</ele>
<time>2016-07-29T01:05:41Z</time>
</trkpt>
<trkpt lat="37.05029296875" lon="-118.8281021118164">
<ele>2807</ele>
<time>2016-07-29T01:05:51Z</time>
</trkpt>
<trkpt lat="37.05024719238281" lon="-118.82810974121094">
<ele>2810</ele>
<time>2016-07-29T01:06:01Z</time>
</trkpt>
<trkpt lat="37.05026626586914" lon="-118.82816314697266">
<ele>2808</ele>
<time>2016-07-29T01:06:15Z</time>
</trkpt>
<trkpt lat="37.05035400390625" lon="-118.82823944091797">
<ele>2811</ele>
<time>2016-07-29T01:06:24Z</time>
</trkpt>
<trkpt lat="37.05042266845703" lon="-118.82823944091797">
<ele>2811</ele>
<time>2016-07-29T01:06:31Z</time>
</trkpt>
<trkpt lat="37.050514221191406" lon="-118.8282470703125">
<ele>2808</ele>
<time>2016-07-29T01:06:40Z</time>
</trkpt>
<trkpt lat="37.05057144165039" lon="-118.8283462524414">
<ele>2813</ele>
<time>2016-07-29T01:06:48Z</time>
</trkpt>
<trkpt lat="37.05059051513672" lon="-118.82845306396484">
<ele>2816</ele>
<time>2016-07-29T01:07:02Z</time>
</trkpt>
<trkpt lat="37.05067825317383" lon="-118.8285140991211">
<ele>2820</ele>
<time>2016-07-29T01:07:11Z</time>
</trkpt>
<trkpt lat="37.050758361816406" lon="-118.82861328125">
<ele>2819</ele>
<time>2016-07-29T01:07:19Z</time>
</trkpt>
<trkpt lat="37.050811767578125" lon="-118.82872772216797">
<ele>2819</ele>
<time>2016-07-29T01:07:26Z</time>
</trkpt>
<trkpt lat="37.050872802734375" lon="-118.82884216308594">
<ele>2820</ele>
<time>2016-07-29T01:07:36Z</time>
</trkpt>
<trkpt lat="37.05096435546875" lon="-118.82890319824219">
<ele>2819</ele>
<time>2016-07-29T01:07:44Z</time>
</trkpt>
<trkpt lat="37.05106735229492" lon="-118.82893371582031">
<ele>2826</ele>
<time>2016-07-29T01:07:52Z</time>
</trkpt>
<trkpt lat="37.05112838745117" lon="-118.8290023803711">
<ele>2829</ele>
<time>2016-07-29T01:08:01Z</time>
</trkpt>
<trkpt lat="37.05118942260742" lon="-118.8291015625">
<ele>2827</ele>
<time>2016-07-29T01:08:11Z</time>
</trkpt>
<trkpt lat="37.051231384277344" lon="-118.8291244506836">
<ele>2826</ele>
<time>2016-07-29T01:08:18Z</time>
</trkpt>
<trkpt lat="37.05131912231445" lon="-118.8291244506836">
<ele>2822</ele>
<time>2016-07-29T01:08:45Z</time>
</trkpt>
<trkpt lat="37.051422119140625" lon="-118.82913970947266">
<ele>2820</ele>
<time>2016-07-29T01:08:53Z</time>
</trkpt>
<trkpt lat="37.051509857177734" lon="-118.82918548583984">
<ele>2816</ele>
<time>2016-07-29T01:09:01Z</time>
</trkpt>
<trkpt lat="37.05158996582031" lon="-118.82926177978516">
<ele>2813</ele>
<time>2016-07-29T01:09:09Z</time>
</trkpt>
<trkpt lat="37.05165481567383" lon="-118.82935333251953">
<ele>2814</ele>
<time>2016-07-29T01:09:16Z</time>
</trkpt>
<trkpt lat="37.051727294921875" lon="-118.82943725585938">
<ele>2814</ele>
<time>2016-07-29T01:09:22Z</time>
</trkpt>
<trkpt lat="37.05179214477539" lon="-118.82949829101563">
<ele>2821</ele>
<time>2016-07-29T01:09:36Z</time>
</trkpt>
<trkpt lat="37.051815032958984" lon="-118.82955169677734">
<ele>2824</ele>
<time>2016-07-29T01:09:46Z</time>
</trkpt>
<trkpt lat="37.05184555053711" lon="-118.82959747314453">
<ele>2825</ele>
<time>2016-07-29T01:09:54Z</time>
</trkpt>
<trkpt lat="37.051856994628906" lon="-118.82965087890625">
<ele>2828</ele>
<time>2016-07-29T01:10:02Z</time>
</trkpt>
<trkpt lat="37.05182647705078" lon="-118.82969665527344">
<ele>2827</ele>
<time>2016-07-29T01:10:19Z</time>
</trkpt>
<trkpt lat="37.051849365234375" lon="-118.82978057861328">
<ele>2828</ele>
<time>2016-07-29T01:10:36Z</time>
</trkpt>
<trkpt lat="37.05190658569336" lon="-118.82987213134766">
<ele>2832</ele>
<time>2016-07-29T01:10:49Z</time>
</trkpt>
<trkpt lat="37.051963806152344" lon="-118.82997131347656">
<ele>2835</ele>
<time>2016-07-29T01:11:00Z</time>
</trkpt>
<trkpt lat="37.051944732666016" lon="-118.83003234863281">
<ele>2836</ele>
<time>2016-07-29T01:11:06Z</time>
</trkpt>
<trkpt lat="37.051876068115234" lon="-118.83011627197266">
<ele>2835</ele>
<time>2016-07-29T01:11:17Z</time>
</trkpt>
<trkpt lat="37.051849365234375" lon="-118.83016204833984">
<ele>2837</ele>
<time>2016-07-29T01:11:24Z</time>
</trkpt>
<trkpt lat="37.051841735839844" lon="-118.83023834228516">
<ele>2835</ele>
<time>2016-07-29T01:11:31Z</time>
</trkpt>
<trkpt lat="37.051841735839844" lon="-118.83029174804688">
<ele>2835</ele>
<time>2016-07-29T01:11:39Z</time>
</trkpt>
<trkpt lat="37.05183029174805" lon="-118.83036041259766">
<ele>2841</ele>
<time>2016-07-29T01:11:49Z</time>
</trkpt>
<trkpt lat="37.051815032958984" lon="-118.83041381835938">
<ele>2840</ele>
<time>2016-07-29T01:11:56Z</time>
</trkpt>
<trkpt lat="37.051822662353516" lon="-118.83047485351563">
<ele>2835</ele>
<time>2016-07-29T01:12:02Z</time>
</trkpt>
<trkpt lat="37.05180740356445" lon="-118.83053588867188">
<ele>2838</ele>
<time>2016-07-29T01:12:12Z</time>
</trkpt>
<trkpt lat="37.05181884765625" lon="-118.8305892944336">
<ele>2837</ele>
<time>2016-07-29T01:12:19Z</time>
</trkpt>
<trkpt lat="37.05182647705078" lon="-118.83069610595703">
<ele>2850</ele>
<time>2016-07-29T01:12:36Z</time>
</trkpt>
<trkpt lat="37.05180358886719" lon="-118.83074188232422">
<ele>2852</ele>
<time>2016-07-29T01:13:05Z</time>
</trkpt>
<trkpt lat="37.05177307128906" lon="-118.8307876586914">
<ele>2848</ele>
<time>2016-07-29T01:13:14Z</time>
</trkpt>
<trkpt lat="37.05172348022461" lon="-118.83088684082031">
<ele>2849</ele>
<time>2016-07-29T01:13:25Z</time>
</trkpt>
<trkpt lat="37.05168914794922" lon="-118.83094787597656">
<ele>2849</ele>
<time>2016-07-29T01:13:32Z</time>
</trkpt>
<trkpt lat="37.05160903930664" lon="-118.83101654052734">
<ele>2849</ele>
<time>2016-07-29T01:13:41Z</time>
</trkpt>
<trkpt lat="37.05152893066406" lon="-118.8310546875">
<ele>2851</ele>
<time>2016-07-29T01:14:06Z</time>
</trkpt>
<trkpt lat="37.05149841308594" lon="-118.83111572265625">
<ele>2852</ele>
<time>2016-07-29T01:14:17Z</time>
</trkpt>
<trkpt lat="37.05147171020508" lon="-118.83116149902344">
<ele>2852</ele>
<time>2016-07-29T01:14:24Z</time>
</trkpt>
<trkpt lat="37.05143356323242" lon="-118.83120727539063">
<ele>2853</ele>
<time>2016-07-29T01:14:35Z</time>
</trkpt>
<trkpt lat="37.05141830444336" lon="-118.8312759399414">
<ele>2851</ele>
<time>2016-07-29T01:14:43Z</time>
</trkpt>
<trkpt lat="37.05139923095703" lon="-118.83132934570313">
<ele>2852</ele>
<time>2016-07-29T01:14:49Z</time>
</trkpt>
<trkpt lat="37.05139923095703" lon="-118.83139038085938">
<ele>2856</ele>
<time>2016-07-29T01:15:00Z</time>
</trkpt>
<trkpt lat="37.05138397216797" lon="-118.83145141601563">
<ele>2857</ele>
<time>2016-07-29T01:15:07Z</time>
</trkpt>
<trkpt lat="37.051414489746094" lon="-118.83149719238281">
<ele>2859</ele>
<time>2016-07-29T01:15:14Z</time>
</trkpt>
<trkpt lat="37.05140686035156" lon="-118.83155822753906">
<ele>2858</ele>
<time>2016-07-29T01:15:25Z</time>
</trkpt>
<trkpt lat="37.05137252807617" lon="-118.83161163330078">
<ele>2864</ele>
<time>2016-07-29T01:15:33Z</time>
</trkpt>
<trkpt lat="37.051334381103516" lon="-118.8316421508789">
<ele>2865</ele>
<time>2016-07-29T01:15:41Z</time>
</trkpt>
<trkpt lat="37.05129623413086" lon="-118.8316879272461">
<ele>2873</ele>
<time>2016-07-29T01:15:57Z</time>
</trkpt>
<trkpt lat="37.05126953125" lon="-118.83173370361328">
<ele>2871</ele>
<time>2016-07-29T01:16:03Z</time>
</trkpt>
<trkpt lat="37.05122756958008" lon="-118.83177947998047">
<ele>2868</ele>
<time>2016-07-29T01:16:16Z</time>
</trkpt>
<trkpt lat="37.051185607910156" lon="-118.8318099975586">
<ele>2870</ele>
<time>2016-07-29T01:16:22Z</time>
</trkpt>
<trkpt lat="37.051116943359375" lon="-118.83187103271484">
<ele>2870</ele>
<time>2016-07-29T01:16:31Z</time>
</trkpt>
<trkpt lat="37.051048278808594" lon="-118.83193969726563">
<ele>2875</ele>
<time>2016-07-29T01:16:44Z</time>
</trkpt>
<trkpt lat="37.051029205322266" lon="-118.83199310302734">
<ele>2877</ele>
<time>2016-07-29T01:16:55Z</time>
</trkpt>
<trkpt lat="37.05099868774414" lon="-118.83203887939453">
<ele>2876</ele>
<time>2016-07-29T01:17:03Z</time>
</trkpt>
<trkpt lat="37.05097961425781" lon="-118.83209991455078">
<ele>2877</ele>
<time>2016-07-29T01:17:12Z</time>
</trkpt>
<trkpt lat="37.050899505615234" lon="-118.83216857910156">
<ele>2879</ele>
<time>2016-07-29T01:17:24Z</time>
</trkpt>
<trkpt lat="37.05087661743164" lon="-118.83224487304688">
<ele>2880</ele>
<time>2016-07-29T01:17:35Z</time>
</trkpt>
<trkpt lat="37.050846099853516" lon="-118.83228302001953">
<ele>2882</ele>
<time>2016-07-29T01:17:43Z</time>
</trkpt>
<trkpt lat="37.05085372924805" lon="-118.83234405517578">
<ele>2881</ele>
<time>2016-07-29T01:17:49Z</time>
</trkpt>
<trkpt lat="37.05083084106445" lon="-118.83238983154297">
<ele>2884</ele>
<time>2016-07-29T01:18:01Z</time>
</trkpt>
<trkpt lat="37.050846099853516" lon="-118.83245086669922">
<ele>2880</ele>
<time>2016-07-29T01:18:07Z</time>
</trkpt>
<trkpt lat="37.05083084106445" lon="-118.83251190185547">
<ele>2880</ele>
<time>2016-07-29T01:18:13Z</time>
</trkpt>
<trkpt lat="37.05086135864258" lon="-118.83255767822266">
<ele>2881</ele>
<time>2016-07-29T01:18:19Z</time>
</trkpt>
<trkpt lat="37.050899505615234" lon="-118.8326187133789">
<ele>2885</ele>
<time>2016-07-29T01:18:26Z</time>
</trkpt>
<trkpt lat="37.05088424682617" lon="-118.83267974853516">
<ele>2884</ele>
<time>2016-07-29T01:18:34Z</time>
</trkpt>
<trkpt lat="37.05086135864258" lon="-118.83273315429688">
<ele>2888</ele>
<time>2016-07-29T01:18:42Z</time>
</trkpt>
<trkpt lat="37.050846099853516" lon="-118.83279418945313">
<ele>2888</ele>
<time>2016-07-29T01:18:49Z</time>
</trkpt>
<trkpt lat="37.05081558227539" lon="-118.83283996582031">
<ele>2890</ele>
<time>2016-07-29T01:19:09Z</time>
</trkpt>
<trkpt lat="37.05080032348633" lon="-118.83295440673828">
<ele>2887</ele>
<time>2016-07-29T01:19:23Z</time>
</trkpt>
<trkpt lat="37.050743103027344" lon="-118.8329849243164">
<ele>2890</ele>
<time>2016-07-29T01:19:34Z</time>
</trkpt>
<trkpt lat="37.05070877075195" lon="-118.8330307006836">
<ele>2890</ele>
<time>2016-07-29T01:19:43Z</time>
</trkpt>
<trkpt lat="37.0506591796875" lon="-118.83305358886719">
<ele>2892</ele>
<time>2016-07-29T01:19:51Z</time>
</trkpt>
<trkpt lat="37.050621032714844" lon="-118.83308410644531">
<ele>2895</ele>
<time>2016-07-29T01:20:03Z</time>
</trkpt>
<trkpt lat="37.050621032714844" lon="-118.83314514160156">
<ele>2899</ele>
<time>2016-07-29T01:20:26Z</time>
</trkpt>
<trkpt lat="37.05061340332031" lon="-118.83320617675781">
<ele>2896</ele>
<time>2016-07-29T01:20:32Z</time>
</trkpt>
<trkpt lat="37.05061340332031" lon="-118.83326721191406">
<ele>2897</ele>
<time>2016-07-29T01:20:40Z</time>
</trkpt>
<trkpt lat="37.05058288574219" lon="-118.83331298828125">
<ele>2899</ele>
<time>2016-07-29T01:20:51Z</time>
</trkpt>
<trkpt lat="37.050559997558594" lon="-118.83336639404297">
<ele>2898</ele>
<time>2016-07-29T01:21:00Z</time>
</trkpt>
<trkpt lat="37.05051803588867" lon="-118.83338928222656">
<ele>2900</ele>
<time>2016-07-29T01:21:10Z</time>
</trkpt>
<trkpt lat="37.05049133300781" lon="-118.83343505859375">
<ele>2901</ele>
<time>2016-07-29T01:21:21Z</time>
</trkpt>
<trkpt lat="37.05050277709961" lon="-118.83350372314453">
<ele>2905</ele>
<time>2016-07-29T01:21:56Z</time>
</trkpt>
<trkpt lat="37.05050277709961" lon="-118.83357238769531">
<ele>2911</ele>
<time>2016-07-29T01:22:12Z</time>
</trkpt>
<trkpt lat="37.050506591796875" lon="-118.83362579345703">
<ele>2911</ele>
<time>2016-07-29T01:22:21Z</time>
</trkpt>
<trkpt lat="37.05046844482422" lon="-118.83369445800781">
<ele>2918</ele>
<time>2016-07-29T01:22:40Z</time>
</trkpt>
<trkpt lat="37.050418853759766" lon="-118.83370208740234">
<ele>2919</ele>
<time>2016-07-29T01:22:49Z</time>
</trkpt>
<trkpt lat="37.050376892089844" lon="-118.83372497558594">
<ele>2922</ele>
<time>2016-07-29T01:23:00Z</time>
</trkpt>
<trkpt lat="37.05032730102539" lon="-118.83374786376953">
<ele>2924</ele>
<time>2016-07-29T01:23:09Z</time>
</trkpt>
<trkpt lat="37.05027770996094" lon="-118.83375549316406">
<ele>2926</ele>
<time>2016-07-29T01:23:18Z</time>
</trkpt>
<trkpt lat="37.05025863647461" lon="-118.83382415771484">
<ele>2926</ele>
<time>2016-07-29T01:23:38Z</time>
</trkpt>
<trkpt lat="37.05021667480469" lon="-118.8338394165039">
<ele>2927</ele>
<time>2016-07-29T01:23:47Z</time>
</trkpt>
<trkpt lat="37.05017852783203" lon="-118.8338623046875">
<ele>2928</ele>
<time>2016-07-29T01:24:25Z</time>
</trkpt>
<trkpt lat="37.05011749267578" lon="-118.8338623046875">
<ele>2929</ele>
<time>2016-07-29T01:24:32Z</time>
</trkpt>
<trkpt lat="37.05006790161133" lon="-118.8338623046875">
<ele>2929</ele>
<time>2016-07-29T01:24:41Z</time>
</trkpt>
<trkpt lat="37.049991607666016" lon="-118.83380889892578">
<ele>2932</ele>
<time>2016-07-29T01:24:50Z</time>
</trkpt>
<trkpt lat="37.04994201660156" lon="-118.83380889892578">
<ele>2931</ele>
<time>2016-07-29T01:24:57Z</time>
</trkpt>
<trkpt lat="37.04989242553711" lon="-118.83380889892578">
<ele>2931</ele>
<time>2016-07-29T01:25:04Z</time>
</trkpt>
<trkpt lat="37.04984664916992" lon="-118.83380889892578">
<ele>2931</ele>
<time>2016-07-29T01:25:12Z</time>
</trkpt>
<trkpt lat="37.04979705810547" lon="-118.83382415771484">
<ele>2932</ele>
<time>2016-07-29T01:25:23Z</time>
</trkpt>
<trkpt lat="37.04973602294922" lon="-118.8338623046875">
<ele>2936</ele>
<time>2016-07-29T01:25:33Z</time>
</trkpt>
<trkpt lat="37.04969024658203" lon="-118.83384704589844">
<ele>2940</ele>
<time>2016-07-29T01:25:42Z</time>
</trkpt>
<trkpt lat="37.04964828491211" lon="-118.83386993408203">
<ele>2939</ele>
<time>2016-07-29T01:25:54Z</time>
</trkpt>
<trkpt lat="37.04960250854492" lon="-118.83386993408203">
<ele>2940</ele>
<time>2016-07-29T01:26:06Z</time>
</trkpt>
<trkpt lat="37.049560546875" lon="-118.8338394165039">
<ele>2945</ele>
<time>2016-07-29T01:26:20Z</time>
</trkpt>
<trkpt lat="37.04948806762695" lon="-118.83386993408203">
<ele>2955</ele>
<time>2016-07-29T01:26:43Z</time>
</trkpt>
<trkpt lat="37.0494384765625" lon="-118.83387756347656">
<ele>2957</ele>
<time>2016-07-29T01:26:58Z</time>
</trkpt>
<trkpt lat="37.049373626708984" lon="-118.8338623046875">
<ele>2959</ele>
<time>2016-07-29T01:27:33Z</time>
</trkpt>
<trkpt lat="37.0493278503418" lon="-118.8338394165039">
<ele>2961</ele>
<time>2016-07-29T01:27:40Z</time>
</trkpt>
<trkpt lat="37.04923629760742" lon="-118.83380889892578">
<ele>2962</ele>
<time>2016-07-29T01:27:52Z</time>
</trkpt>
<trkpt lat="37.04918670654297" lon="-118.83380889892578">
<ele>2963</ele>
<time>2016-07-29T01:27:59Z</time>
</trkpt>
<trkpt lat="37.049137115478516" lon="-118.83379364013672">
<ele>2966</ele>
<time>2016-07-29T01:28:06Z</time>
</trkpt>
<trkpt lat="37.04909133911133" lon="-118.83380889892578">
<ele>2967</ele>
<time>2016-07-29T01:28:14Z</time>
</trkpt>
<trkpt lat="37.049015045166016" lon="-118.8338394165039">
<ele>2972</ele>
<time>2016-07-29T01:28:41Z</time>
</trkpt>
<trkpt lat="37.04896545410156" lon="-118.83384704589844">
<ele>2974</ele>
<time>2016-07-29T01:28:48Z</time>
</trkpt>
<trkpt lat="37.048919677734375" lon="-118.83385467529297">
<ele>2974</ele>
<time>2016-07-29T01:28:58Z</time>
</trkpt>
<trkpt lat="37.04887771606445" lon="-118.8338394165039">
<ele>2976</ele>
<time>2016-07-29T01:29:16Z</time>
</trkpt>
<trkpt lat="37.048789978027344" lon="-118.83381652832031">
<ele>2980</ele>
<time>2016-07-29T01:29:39Z</time>
</trkpt>
<trkpt lat="37.048744201660156" lon="-118.83383178710938">
<ele>2980</ele>
<time>2016-07-29T01:30:07Z</time>
</trkpt>
<trkpt lat="37.0487174987793" lon="-118.83387756347656">
<ele>2981</ele>
<time>2016-07-29T01:30:18Z</time>
</trkpt>
<trkpt lat="37.048667907714844" lon="-118.83394622802734">
<ele>2980</ele>
<time>2016-07-29T01:30:36Z</time>
</trkpt>
<trkpt lat="37.04863739013672" lon="-118.83390045166016">
<ele>2987</ele>
<time>2016-07-29T01:30:45Z</time>
</trkpt>
<trkpt lat="37.04859161376953" lon="-118.83392333984375">
<ele>2988</ele>
<time>2016-07-29T01:30:54Z</time>
</trkpt>
<trkpt lat="37.048553466796875" lon="-118.83395385742188">
<ele>2986</ele>
<time>2016-07-29T01:31:06Z</time>
</trkpt>
<trkpt lat="37.04850769042969" lon="-118.83399200439453">
<ele>2994</ele>
<time>2016-07-29T01:31:59Z</time>
</trkpt>
<trkpt lat="37.048465728759766" lon="-118.83397674560547">
<ele>2998</ele>
<time>2016-07-29T01:32:13Z</time>
</trkpt>
<trkpt lat="37.048423767089844" lon="-118.8340072631836">
<ele>3001</ele>
<time>2016-07-29T01:32:25Z</time>
</trkpt>
<trkpt lat="37.04838562011719" lon="-118.83404541015625">
<ele>3003</ele>
<time>2016-07-29T01:32:38Z</time>
</trkpt>
<trkpt lat="37.04838180541992" lon="-118.8341064453125">
<ele>3004</ele>
<time>2016-07-29T01:32:51Z</time>
</trkpt>
<trkpt lat="37.0483512878418" lon="-118.83415222167969">
<ele>3004</ele>
<time>2016-07-29T01:33:03Z</time>
</trkpt>
<trkpt lat="37.04826354980469" lon="-118.83421325683594">
<ele>3009</ele>
<time>2016-07-29T01:33:17Z</time>
</trkpt>
<trkpt lat="37.048194885253906" lon="-118.83423614501953">
<ele>3012</ele>
<time>2016-07-29T01:33:32Z</time>
</trkpt>
<trkpt lat="37.048152923583984" lon="-118.83426666259766">
<ele>3012</ele>
<time>2016-07-29T01:33:38Z</time>
</trkpt>
<trkpt lat="37.048065185546875" lon="-118.83432006835938">
<ele>3014</ele>
<time>2016-07-29T01:33:49Z</time>
</trkpt>
<trkpt lat="37.047969818115234" lon="-118.8343505859375">
<ele>3015</ele>
<time>2016-07-29T01:34:00Z</time>
</trkpt>
<trkpt lat="37.047916412353516" lon="-118.83435821533203">
<ele>3014</ele>
<time>2016-07-29T01:34:12Z</time>
</trkpt>
<trkpt lat="37.047828674316406" lon="-118.83441925048828">
<ele>3014</ele>
<time>2016-07-29T01:34:24Z</time>
</trkpt>
<trkpt lat="37.04776382446289" lon="-118.83444213867188">
<ele>3015</ele>
<time>2016-07-29T01:34:36Z</time>
</trkpt>
<trkpt lat="37.04767990112305" lon="-118.83448028564453">
<ele>3015</ele>
<time>2016-07-29T01:34:47Z</time>
</trkpt>
<trkpt lat="37.04758834838867" lon="-118.8344955444336">
<ele>3017</ele>
<time>2016-07-29T01:34:59Z</time>
</trkpt>
<trkpt lat="37.04755401611328" lon="-118.83454132080078">
<ele>3020</ele>
<time>2016-07-29T01:35:07Z</time>
</trkpt>
<trkpt lat="37.047462463378906" lon="-118.83460235595703">
<ele>3019</ele>
<time>2016-07-29T01:35:18Z</time>
</trkpt>
<trkpt lat="37.04738235473633" lon="-118.83463287353516">
<ele>3021</ele>
<time>2016-07-29T01:35:26Z</time>
</trkpt>
<trkpt lat="37.04733657836914" lon="-118.8346176147461">
<ele>3022</ele>
<time>2016-07-29T01:35:33Z</time>
</trkpt>
<trkpt lat="37.04728698730469" lon="-118.8345947265625">
<ele>3021</ele>
<time>2016-07-29T01:35:39Z</time>
</trkpt>
<trkpt lat="37.04721450805664" lon="-118.83453369140625">
<ele>3025</ele>
<time>2016-07-29T01:35:47Z</time>
</trkpt>
<trkpt lat="37.047237396240234" lon="-118.83447265625">
<ele>3025</ele>
<time>2016-07-29T01:35:57Z</time>
</trkpt>
<trkpt lat="37.04720687866211" lon="-118.83442687988281">
<ele>3023</ele>
<time>2016-07-29T01:36:26Z</time>
</trkpt>
<trkpt lat="37.047176361083984" lon="-118.83438110351563">
<ele>3022</ele>
<time>2016-07-29T01:36:40Z</time>
</trkpt>
<trkpt lat="37.047088623046875" lon="-118.83432006835938">
<ele>3021</ele>
<time>2016-07-29T01:36:50Z</time>
</trkpt>
<trkpt lat="37.046993255615234" lon="-118.83428192138672">
<ele>3022</ele>
<time>2016-07-29T01:36:58Z</time>
</trkpt>
<trkpt lat="37.046897888183594" lon="-118.83423614501953">
<ele>3022</ele>
<time>2016-07-29T01:37:06Z</time>
</trkpt>
<trkpt lat="37.04679489135742" lon="-118.83418273925781">
<ele>3021</ele>
<time>2016-07-29T01:37:14Z</time>
</trkpt>
<trkpt lat="37.04671096801758" lon="-118.83413696289063">
<ele>3021</ele>
<time>2016-07-29T01:37:20Z</time>
</trkpt>
<trkpt lat="37.0466194152832" lon="-118.83413696289063">
<ele>3020</ele>
<time>2016-07-29T01:37:26Z</time>
</trkpt>
<trkpt lat="37.0465202331543" lon="-118.83415222167969">
<ele>3018</ele>
<time>2016-07-29T01:37:33Z</time>
</trkpt>
<trkpt lat="37.046409606933594" lon="-118.83415985107422">
<ele>3019</ele>
<time>2016-07-29T01:37:40Z</time>
</trkpt>
<trkpt lat="37.04631042480469" lon="-118.83415222167969">
<ele>3020</ele>
<time>2016-07-29T01:37:47Z</time>
</trkpt>
<trkpt lat="37.04620361328125" lon="-118.83415222167969">
<ele>3020</ele>
<time>2016-07-29T01:37:56Z</time>
</trkpt>
<trkpt lat="37.04610061645508" lon="-118.83417510986328">
<ele>3019</ele>
<time>2016-07-29T01:38:04Z</time>
</trkpt>
<trkpt lat="37.04600524902344" lon="-118.83416748046875">
<ele>3018</ele>
<time>2016-07-29T01:38:12Z</time>
</trkpt>
<trkpt lat="37.0459098815918" lon="-118.83418273925781">
<ele>3016</ele>
<time>2016-07-29T01:38:20Z</time>
</trkpt>
<trkpt lat="37.04584503173828" lon="-118.8341293334961">
<ele>3016</ele>
<time>2016-07-29T01:38:26Z</time>
</trkpt>
<trkpt lat="37.04576873779297" lon="-118.83406066894531">
<ele>3017</ele>
<time>2016-07-29T01:38:35Z</time>
</trkpt>
<trkpt lat="37.045658111572266" lon="-118.83403778076172">
<ele>3019</ele>
<time>2016-07-29T01:38:44Z</time>
</trkpt>
<trkpt lat="37.04555130004883" lon="-118.8340072631836">
<ele>3019</ele>
<time>2016-07-29T01:38:52Z</time>
</trkpt>
<trkpt lat="37.04545211791992" lon="-118.83396911621094">
<ele>3017</ele>
<time>2016-07-29T01:39:00Z</time>
</trkpt>
<trkpt lat="37.04534912109375" lon="-118.83393859863281">
<ele>3015</ele>
<time>2016-07-29T01:39:08Z</time>
</trkpt>
<trkpt lat="37.04524230957031" lon="-118.83391571044922">
<ele>3015</ele>
<time>2016-07-29T01:39:16Z</time>
</trkpt>
<trkpt lat="37.045143127441406" lon="-118.8338851928711">
<ele>3013</ele>
<time>2016-07-29T01:39:23Z</time>
</trkpt>
<trkpt lat="37.0450553894043" lon="-118.8338623046875">
<ele>3012</ele>
<time>2016-07-29T01:39:30Z</time>
</trkpt>
<trkpt lat="37.044952392578125" lon="-118.83382415771484">
<ele>3014</ele>
<time>2016-07-29T01:39:38Z</time>
</trkpt>
<trkpt lat="37.04485321044922" lon="-118.83377838134766">
<ele>3013</ele>
<time>2016-07-29T01:39:46Z</time>
</trkpt>
<trkpt lat="37.04475402832031" lon="-118.83380889892578">
<ele>3009</ele>
<time>2016-07-29T01:40:00Z</time>
</trkpt>
<trkpt lat="37.044769287109375" lon="-118.83392333984375">
<ele>3006</ele>
<time>2016-07-29T01:40:10Z</time>
</trkpt>
<trkpt lat="37.044708251953125" lon="-118.8340072631836">
<ele>3008</ele>
<time>2016-07-29T01:40:20Z</time>
</trkpt>
<trkpt lat="37.04466247558594" lon="-118.83403778076172">
<ele>3010</ele>
<time>2016-07-29T01:40:26Z</time>
</trkpt>
<trkpt lat="37.0445671081543" lon="-118.83403015136719">
<ele>3008</ele>
<time>2016-07-29T01:40:34Z</time>
</trkpt>
<trkpt lat="37.044525146484375" lon="-118.83404541015625">
<ele>3008</ele>
<time>2016-07-29T01:40:40Z</time>
</trkpt>
<trkpt lat="37.04442596435547" lon="-118.83399963378906">
<ele>3005</ele>
<time>2016-07-29T01:40:49Z</time>
</trkpt>
<trkpt lat="37.04433059692383" lon="-118.83399200439453">
<ele>3002</ele>
<time>2016-07-29T01:40:58Z</time>
</trkpt>
<trkpt lat="37.044227600097656" lon="-118.8340072631836">
<ele>3003</ele>
<time>2016-07-29T01:41:06Z</time>
</trkpt>
<trkpt lat="37.044124603271484" lon="-118.83401489257813">
<ele>3004</ele>
<time>2016-07-29T01:41:14Z</time>
</trkpt>
<trkpt lat="37.0440788269043" lon="-118.83401489257813">
<ele>3001</ele>
<time>2016-07-29T01:41:20Z</time>
</trkpt>
<trkpt lat="37.04401779174805" lon="-118.83402252197266">
<ele>2997</ele>
<time>2016-07-29T01:41:26Z</time>
</trkpt>
<trkpt lat="37.04392623901367" lon="-118.83399200439453">
<ele>2998</ele>
<time>2016-07-29T01:41:34Z</time>
</trkpt>
<trkpt lat="37.043827056884766" lon="-118.83397674560547">
<ele>2998</ele>
<time>2016-07-29T01:41:43Z</time>
</trkpt>
<trkpt lat="37.043731689453125" lon="-118.83399200439453">
<ele>2998</ele>
<time>2016-07-29T01:41:51Z</time>
</trkpt>
<trkpt lat="37.04363250732422" lon="-118.8340072631836">
<ele>3000</ele>
<time>2016-07-29T01:41:59Z</time>
</trkpt>
<trkpt lat="37.043582916259766" lon="-118.8340072631836">
<ele>2999</ele>
<time>2016-07-29T01:42:05Z</time>
</trkpt>
<trkpt lat="37.043487548828125" lon="-118.83405303955078">
<ele>2997</ele>
<time>2016-07-29T01:42:14Z</time>
</trkpt>
<trkpt lat="37.04338836669922" lon="-118.83407592773438">
<ele>2994</ele>
<time>2016-07-29T01:42:23Z</time>
</trkpt>
<trkpt lat="37.043296813964844" lon="-118.8340835571289">
<ele>2992</ele>
<time>2016-07-29T01:42:30Z</time>
</trkpt>
<trkpt lat="37.043190002441406" lon="-118.83404541015625">
<ele>2989</ele>
<time>2016-07-29T01:42:38Z</time>
</trkpt>
<trkpt lat="37.04309844970703" lon="-118.8340072631836">
<ele>2989</ele>
<time>2016-07-29T01:42:46Z</time>
</trkpt>
<trkpt lat="37.043006896972656" lon="-118.83401489257813">
<ele>2987</ele>
<time>2016-07-29T01:42:53Z</time>
</trkpt>
<trkpt lat="37.04290771484375" lon="-118.83404541015625">
<ele>2984</ele>
<time>2016-07-29T01:43:01Z</time>
</trkpt>
<trkpt lat="37.04281234741211" lon="-118.83406829833984">
<ele>2984</ele>
<time>2016-07-29T01:43:11Z</time>
</trkpt>
<trkpt lat="37.042701721191406" lon="-118.83406829833984">
<ele>2985</ele>
<time>2016-07-29T01:43:19Z</time>
</trkpt>
<trkpt lat="37.042625427246094" lon="-118.83407592773438">
<ele>2986</ele>
<time>2016-07-29T01:43:26Z</time>
</trkpt>
<trkpt lat="37.04254150390625" lon="-118.8341064453125">
<ele>2984</ele>
<time>2016-07-29T01:43:36Z</time>
</trkpt>
<trkpt lat="37.04243469238281" lon="-118.83409881591797">
<ele>2981</ele>
<time>2016-07-29T01:43:45Z</time>
</trkpt>
<trkpt lat="37.04232406616211" lon="-118.83409118652344">
<ele>2980</ele>
<time>2016-07-29T01:43:53Z</time>
</trkpt>
<trkpt lat="37.042232513427734" lon="-118.83406829833984">
<ele>2978</ele>
<time>2016-07-29T01:44:00Z</time>
</trkpt>
<trkpt lat="37.04212951660156" lon="-118.83406829833984">
<ele>2978</ele>
<time>2016-07-29T01:44:08Z</time>
</trkpt>
<trkpt lat="37.04203414916992" lon="-118.83404541015625">
<ele>2976</ele>
<time>2016-07-29T01:44:16Z</time>
</trkpt>
<trkpt lat="37.041988372802734" lon="-118.83406829833984">
<ele>2976</ele>
<time>2016-07-29T01:44:22Z</time>
</trkpt>
<trkpt lat="37.04188919067383" lon="-118.83405303955078">
<ele>2979</ele>
<time>2016-07-29T01:44:34Z</time>
</trkpt>
<trkpt lat="37.04179763793945" lon="-118.83404541015625">
<ele>2977</ele>
<time>2016-07-29T01:44:42Z</time>
</trkpt>
<trkpt lat="37.04171371459961" lon="-118.83399200439453">
<ele>2974</ele>
<time>2016-07-29T01:44:51Z</time>
</trkpt>
<trkpt lat="37.04161071777344" lon="-118.8340072631836">
<ele>2974</ele>
<time>2016-07-29T01:45:00Z</time>
</trkpt>
<trkpt lat="37.04151153564453" lon="-118.83399963378906">
<ele>2974</ele>
<time>2016-07-29T01:45:09Z</time>
</trkpt>
<trkpt lat="37.04141616821289" lon="-118.83403778076172">
<ele>2970</ele>
<time>2016-07-29T01:45:19Z</time>
</trkpt>
<trkpt lat="37.041378021240234" lon="-118.8341293334961">
<ele>2972</ele>
<time>2016-07-29T01:45:26Z</time>
</trkpt>
<trkpt lat="37.04131317138672" lon="-118.83422088623047">
<ele>2966</ele>
<time>2016-07-29T01:45:35Z</time>
</trkpt>
<trkpt lat="37.04121017456055" lon="-118.834228515625">
<ele>2969</ele>
<time>2016-07-29T01:45:43Z</time>
</trkpt>
<trkpt lat="37.0411262512207" lon="-118.83428955078125">
<ele>2969</ele>
<time>2016-07-29T01:45:51Z</time>
</trkpt>
<trkpt lat="37.04103088378906" lon="-118.83428955078125">
<ele>2971</ele>
<time>2016-07-29T01:45:59Z</time>
</trkpt>
<trkpt lat="37.04093551635742" lon="-118.83432006835938">
<ele>2973</ele>
<time>2016-07-29T01:46:07Z</time>
</trkpt>
<trkpt lat="37.040836334228516" lon="-118.83434295654297">
<ele>2974</ele>
<time>2016-07-29T01:46:15Z</time>
</trkpt>
<trkpt lat="37.04074478149414" lon="-118.83438110351563">
<ele>2972</ele>
<time>2016-07-29T01:46:23Z</time>
</trkpt>
<trkpt lat="37.040645599365234" lon="-118.83439636230469">
<ele>2969</ele>
<time>2016-07-29T01:46:30Z</time>
</trkpt>
<trkpt lat="37.04054260253906" lon="-118.83440399169922">
<ele>2969</ele>
<time>2016-07-29T01:46:37Z</time>
</trkpt>
<trkpt lat="37.040443420410156" lon="-118.83442687988281">
<ele>2971</ele>
<time>2016-07-29T01:46:45Z</time>
</trkpt>
<trkpt lat="37.04034423828125" lon="-118.83441162109375">
<ele>2971</ele>
<time>2016-07-29T01:46:53Z</time>
</trkpt>
<trkpt lat="37.04024124145508" lon="-118.83442687988281">
<ele>2973</ele>
<time>2016-07-29T01:47:02Z</time>
</trkpt>
<trkpt lat="37.0401496887207" lon="-118.83440399169922">
<ele>2971</ele>
<time>2016-07-29T01:47:10Z</time>
</trkpt>
<trkpt lat="37.04006576538086" lon="-118.83433532714844">
<ele>2971</ele>
<time>2016-07-29T01:47:18Z</time>
</trkpt>
<trkpt lat="37.04001235961914" lon="-118.83427429199219">
<ele>2969</ele>
<time>2016-07-29T01:47:26Z</time>
</trkpt>
<trkpt lat="37.039920806884766" lon="-118.83422088623047">
<ele>2968</ele>
<time>2016-07-29T01:47:35Z</time>
</trkpt>
<trkpt lat="37.03987121582031" lon="-118.83419036865234">
<ele>2967</ele>
<time>2016-07-29T01:47:41Z</time>
</trkpt>
<trkpt lat="37.039772033691406" lon="-118.83416748046875">
<ele>2966</ele>
<time>2016-07-29T01:47:48Z</time>
</trkpt>
<trkpt lat="37.039669036865234" lon="-118.83414459228516">
<ele>2967</ele>
<time>2016-07-29T01:47:55Z</time>
</trkpt>
<trkpt lat="37.03955841064453" lon="-118.8341293334961">
<ele>2966</ele>
<time>2016-07-29T01:48:03Z</time>
</trkpt>
<trkpt lat="37.03944396972656" lon="-118.8341293334961">
<ele>2966</ele>
<time>2016-07-29T01:48:11Z</time>
</trkpt>
<trkpt lat="37.039337158203125" lon="-118.8341064453125">
<ele>2967</ele>
<time>2016-07-29T01:48:19Z</time>
</trkpt>
<trkpt lat="37.039249420166016" lon="-118.83406066894531">
<ele>2965</ele>
<time>2016-07-29T01:48:26Z</time>
</trkpt>
<trkpt lat="37.039154052734375" lon="-118.83401489257813">
<ele>2964</ele>
<time>2016-07-29T01:48:35Z</time>
</trkpt>
<trkpt lat="37.03908157348633" lon="-118.83391571044922">
<ele>2962</ele>
<time>2016-07-29T01:48:43Z</time>
</trkpt>
<trkpt lat="37.038978576660156" lon="-118.83393859863281">
<ele>2968</ele>
<time>2016-07-29T01:48:59Z</time>
</trkpt>
<trkpt lat="37.03887939453125" lon="-118.83391571044922">
<ele>2966</ele>
<time>2016-07-29T01:49:07Z</time>
</trkpt>
<trkpt lat="37.03877639770508" lon="-118.83391571044922">
<ele>2964</ele>
<time>2016-07-29T01:49:15Z</time>
</trkpt>
<trkpt lat="37.038673400878906" lon="-118.83390045166016">
<ele>2964</ele>
<time>2016-07-29T01:49:23Z</time>
</trkpt>
<trkpt lat="37.03858947753906" lon="-118.8338851928711">
<ele>2963</ele>
<time>2016-07-29T01:49:30Z</time>
</trkpt>
<trkpt lat="37.03849792480469" lon="-118.83384704589844">
<ele>2963</ele>
<time>2016-07-29T01:49:37Z</time>
</trkpt>
<trkpt lat="37.03838348388672" lon="-118.83382415771484">
<ele>2963</ele>
<time>2016-07-29T01:49:45Z</time>
</trkpt>
<trkpt lat="37.03828048706055" lon="-118.83380889892578">
<ele>2964</ele>
<time>2016-07-29T01:49:53Z</time>
</trkpt>
<trkpt lat="37.03818130493164" lon="-118.83375549316406">
<ele>2963</ele>
<time>2016-07-29T01:50:01Z</time>
</trkpt>
<trkpt lat="37.038089752197266" lon="-118.83369445800781">
<ele>2962</ele>
<time>2016-07-29T01:50:08Z</time>
</trkpt>
<trkpt lat="37.037986755371094" lon="-118.83367156982422">
<ele>2961</ele>
<time>2016-07-29T01:50:16Z</time>
</trkpt>
<trkpt lat="37.03787612915039" lon="-118.83364868164063">
<ele>2961</ele>
<time>2016-07-29T01:50:24Z</time>
</trkpt>
<trkpt lat="37.03778839111328" lon="-118.8336410522461">
<ele>2960</ele>
<time>2016-07-29T01:50:30Z</time>
</trkpt>
<trkpt lat="37.03767776489258" lon="-118.83361053466797">
<ele>2959</ele>
<time>2016-07-29T01:50:38Z</time>
</trkpt>
<trkpt lat="37.03757095336914" lon="-118.83361053466797">
<ele>2957</ele>
<time>2016-07-29T01:50:45Z</time>
</trkpt>
<trkpt lat="37.0374755859375" lon="-118.8335952758789">
<ele>2956</ele>
<time>2016-07-29T01:50:52Z</time>
</trkpt>
<trkpt lat="37.037376403808594" lon="-118.8335952758789">
<ele>2958</ele>
<time>2016-07-29T01:50:58Z</time>
</trkpt>
<trkpt lat="37.037261962890625" lon="-118.83358764648438">
<ele>2956</ele>
<time>2016-07-29T01:51:06Z</time>
</trkpt>
<trkpt lat="37.03715896606445" lon="-118.83357238769531">
<ele>2957</ele>
<time>2016-07-29T01:51:13Z</time>
</trkpt>
<trkpt lat="37.03704833984375" lon="-118.83358001708984">
<ele>2956</ele>
<time>2016-07-29T01:51:21Z</time>
</trkpt>
<trkpt lat="37.03694152832031" lon="-118.8335952758789">
<ele>2956</ele>
<time>2016-07-29T01:51:30Z</time>
</trkpt>
<trkpt lat="37.036834716796875" lon="-118.83357238769531">
<ele>2957</ele>
<time>2016-07-29T01:51:38Z</time>
</trkpt>
<trkpt lat="37.036739349365234" lon="-118.83358001708984">
<ele>2955</ele>
<time>2016-07-29T01:51:46Z</time>
</trkpt>
<trkpt lat="37.036643981933594" lon="-118.83358001708984">
<ele>2954</ele>
<time>2016-07-29T01:51:55Z</time>
</trkpt>
<trkpt lat="37.03654098510742" lon="-118.83361053466797">
<ele>2955</ele>
<time>2016-07-29T01:52:03Z</time>
</trkpt>
<trkpt lat="37.03642654418945" lon="-118.83362579345703">
<ele>2954</ele>
<time>2016-07-29T01:52:11Z</time>
</trkpt>
<trkpt lat="37.036319732666016" lon="-118.83363342285156">
<ele>2955</ele>
<time>2016-07-29T01:52:19Z</time>
</trkpt>
<trkpt lat="37.036224365234375" lon="-118.83363342285156">
<ele>2955</ele>
<time>2016-07-29T01:52:26Z</time>
</trkpt>
<trkpt lat="37.0361213684082" lon="-118.83365631103516">
<ele>2953</ele>
<time>2016-07-29T01:52:34Z</time>
</trkpt>
<trkpt lat="37.036014556884766" lon="-118.8336410522461">
<ele>2955</ele>
<time>2016-07-29T01:52:42Z</time>
</trkpt>
<trkpt lat="37.03590774536133" lon="-118.83365631103516">
<ele>2956</ele>
<time>2016-07-29T01:52:50Z</time>
</trkpt>
<trkpt lat="37.03579330444336" lon="-118.83367156982422">
<ele>2955</ele>
<time>2016-07-29T01:52:58Z</time>
</trkpt>
<trkpt lat="37.03569793701172" lon="-118.83367156982422">
<ele>2957</ele>
<time>2016-07-29T01:53:05Z</time>
</trkpt>
<trkpt lat="37.03559494018555" lon="-118.83366394042969">
<ele>2956</ele>
<time>2016-07-29T01:53:13Z</time>
</trkpt>
<trkpt lat="37.03549575805664" lon="-118.83367156982422">
<ele>2955</ele>
<time>2016-07-29T01:53:21Z</time>
</trkpt>
<trkpt lat="37.03538131713867" lon="-118.83366394042969">
<ele>2954</ele>
<time>2016-07-29T01:53:30Z</time>
</trkpt>
<trkpt lat="37.035282135009766" lon="-118.83366394042969">
<ele>2954</ele>
<time>2016-07-29T01:53:38Z</time>
</trkpt>
<trkpt lat="37.035194396972656" lon="-118.83370208740234">
<ele>2955</ele>
<time>2016-07-29T01:53:47Z</time>
</trkpt>
<trkpt lat="37.03515625" lon="-118.83374786376953">
<ele>2956</ele>
<time>2016-07-29T01:54:14Z</time>
</trkpt>
<trkpt lat="37.03512954711914" lon="-118.83383178710938">
<ele>2956</ele>
<time>2016-07-29T01:54:26Z</time>
</trkpt>
<trkpt lat="37.03509521484375" lon="-118.83387756347656">
<ele>2956</ele>
<time>2016-07-29T01:54:32Z</time>
</trkpt>
<trkpt lat="37.034996032714844" lon="-118.83392333984375">
<ele>2956</ele>
<time>2016-07-29T01:54:40Z</time>
</trkpt>
<trkpt lat="37.034912109375" lon="-118.833984375">
<ele>2956</ele>
<time>2016-07-29T01:54:48Z</time>
</trkpt>
<trkpt lat="37.03482437133789" lon="-118.83404541015625">
<ele>2956</ele>
<time>2016-07-29T01:54:57Z</time>
</trkpt>
<trkpt lat="37.034732818603516" lon="-118.83409118652344">
<ele>2959</ele>
<time>2016-07-29T01:55:05Z</time>
</trkpt>
<trkpt lat="37.034637451171875" lon="-118.83414459228516">
<ele>2959</ele>
<time>2016-07-29T01:55:14Z</time>
</trkpt>
<trkpt lat="37.034603118896484" lon="-118.83418273925781">
<ele>2956</ele>
<time>2016-07-29T01:55:26Z</time>
</trkpt>
<trkpt lat="37.034542083740234" lon="-118.83421325683594">
<ele>2955</ele>
<time>2016-07-29T01:55:41Z</time>
</trkpt>
<trkpt lat="37.03450393676758" lon="-118.8342514038086">
<ele>2954</ele>
<time>2016-07-29T01:55:53Z</time>
</trkpt>
<trkpt lat="37.03445816040039" lon="-118.83435821533203">
<ele>2956</ele>
<time>2016-07-29T01:56:08Z</time>
</trkpt>
<trkpt lat="37.03440856933594" lon="-118.83438873291016">
<ele>2955</ele>
<time>2016-07-29T01:56:14Z</time>
</trkpt>
<trkpt lat="37.034358978271484" lon="-118.83439636230469">
<ele>2952</ele>
<time>2016-07-29T01:56:21Z</time>
</trkpt>
<trkpt lat="37.03426742553711" lon="-118.83441925048828">
<ele>2951</ele>
<time>2016-07-29T01:56:31Z</time>
</trkpt>
<trkpt lat="37.03419876098633" lon="-118.8344955444336">
<ele>2948</ele>
<time>2016-07-29T01:56:44Z</time>
</trkpt>
<trkpt lat="37.034122467041016" lon="-118.83452606201172">
<ele>2947</ele>
<time>2016-07-29T01:56:56Z</time>
</trkpt>
<trkpt lat="37.034080505371094" lon="-118.83455657958984">
<ele>2945</ele>
<time>2016-07-29T01:57:02Z</time>
</trkpt>
<trkpt lat="37.03400421142578" lon="-118.83462524414063">
<ele>2939</ele>
<time>2016-07-29T01:57:16Z</time>
</trkpt>
<trkpt lat="37.03395462036133" lon="-118.83463287353516">
<ele>2939</ele>
<time>2016-07-29T01:57:26Z</time>
</trkpt>
<trkpt lat="37.03391647338867" lon="-118.83467102050781">
<ele>2940</ele>
<time>2016-07-29T01:57:34Z</time>
</trkpt>
<trkpt lat="37.03388214111328" lon="-118.834716796875">
<ele>2938</ele>
<time>2016-07-29T01:57:40Z</time>
</trkpt>
<trkpt lat="37.033836364746094" lon="-118.83473205566406">
<ele>2938</ele>
<time>2016-07-29T01:57:49Z</time>
</trkpt>
<trkpt lat="37.033790588378906" lon="-118.83475494384766">
<ele>2933</ele>
<time>2016-07-29T01:57:59Z</time>
</trkpt>
<trkpt lat="37.033782958984375" lon="-118.8348159790039">
<ele>2933</ele>
<time>2016-07-29T01:58:05Z</time>
</trkpt>
<trkpt lat="37.033756256103516" lon="-118.83486938476563">
<ele>2931</ele>
<time>2016-07-29T01:58:11Z</time>
</trkpt>
<trkpt lat="37.03371810913086" lon="-118.83491516113281">
<ele>2933</ele>
<time>2016-07-29T01:58:17Z</time>
</trkpt>
<trkpt lat="37.033668518066406" lon="-118.8349380493164">
<ele>2934</ele>
<time>2016-07-29T01:58:23Z</time>
</trkpt>
<trkpt lat="37.03361129760742" lon="-118.83500671386719">
<ele>2930</ele>
<time>2016-07-29T01:58:32Z</time>
</trkpt>
<trkpt lat="37.033531188964844" lon="-118.83507537841797">
<ele>2928</ele>
<time>2016-07-29T01:58:44Z</time>
</trkpt>
<trkpt lat="37.033512115478516" lon="-118.83513641357422">
<ele>2926</ele>
<time>2016-07-29T01:58:56Z</time>
</trkpt>
<trkpt lat="37.033424377441406" lon="-118.83521270751953">
<ele>2928</ele>
<time>2016-07-29T01:59:05Z</time>
</trkpt>
<trkpt lat="37.03333282470703" lon="-118.8352279663086">
<ele>2925</ele>
<time>2016-07-29T01:59:14Z</time>
</trkpt>
<trkpt lat="37.03329086303711" lon="-118.83525848388672">
<ele>2920</ele>
<time>2016-07-29T01:59:22Z</time>
</trkpt>
<trkpt lat="37.033206939697266" lon="-118.83526611328125">
<ele>2917</ele>
<time>2016-07-29T01:59:31Z</time>
</trkpt>
<trkpt lat="37.03316879272461" lon="-118.83531188964844">
<ele>2912</ele>
<time>2016-07-29T01:59:38Z</time>
</trkpt>
<trkpt lat="37.03312301635742" lon="-118.83540344238281">
<ele>2911</ele>
<time>2016-07-29T01:59:48Z</time>
</trkpt>
<trkpt lat="37.0330924987793" lon="-118.83544921875">
<ele>2908</ele>
<time>2016-07-29T01:59:55Z</time>
</trkpt>
<trkpt lat="37.03301239013672" lon="-118.83551788330078">
<ele>2910</ele>
<time>2016-07-29T02:00:03Z</time>
</trkpt>
<trkpt lat="37.03293228149414" lon="-118.83561706542969">
<ele>2912</ele>
<time>2016-07-29T02:00:11Z</time>
</trkpt>
<trkpt lat="37.03286361694336" lon="-118.8357162475586">
<ele>2911</ele>
<time>2016-07-29T02:00:18Z</time>
</trkpt>
<trkpt lat="37.032814025878906" lon="-118.83582305908203">
<ele>2911</ele>
<time>2016-07-29T02:00:25Z</time>
</trkpt>
<trkpt lat="37.03274917602539" lon="-118.83592224121094">
<ele>2914</ele>
<time>2016-07-29T02:00:32Z</time>
</trkpt>
<trkpt lat="37.032676696777344" lon="-118.83602142333984">
<ele>2915</ele>
<time>2016-07-29T02:00:40Z</time>
</trkpt>
<trkpt lat="37.03257751464844" lon="-118.8360595703125">
<ele>2914</ele>
<time>2016-07-29T02:00:48Z</time>
</trkpt>
<trkpt lat="37.03251647949219" lon="-118.8361587524414">
<ele>2913</ele>
<time>2016-07-29T02:00:56Z</time>
</trkpt>
<trkpt lat="37.0324821472168" lon="-118.8362808227539">
<ele>2910</ele>
<time>2016-07-29T02:01:04Z</time>
</trkpt>
<trkpt lat="37.03240966796875" lon="-118.83636474609375">
<ele>2909</ele>
<time>2016-07-29T02:01:12Z</time>
</trkpt>
<trkpt lat="37.032325744628906" lon="-118.8364486694336">
<ele>2908</ele>
<time>2016-07-29T02:01:20Z</time>
</trkpt>
<trkpt lat="37.03226852416992" lon="-118.83650207519531">
<ele>2907</ele>
<time>2016-07-29T02:01:26Z</time>
</trkpt>
<trkpt lat="37.032196044921875" lon="-118.83660125732422">
<ele>2907</ele>
<time>2016-07-29T02:01:34Z</time>
</trkpt>
<trkpt lat="37.032108306884766" lon="-118.83666229248047">
<ele>2906</ele>
<time>2016-07-29T02:01:42Z</time>
</trkpt>
<trkpt lat="37.03202438354492" lon="-118.83672332763672">
<ele>2904</ele>
<time>2016-07-29T02:01:50Z</time>
</trkpt>
<trkpt lat="37.031925201416016" lon="-118.83678436279297">
<ele>2903</ele>
<time>2016-07-29T02:01:58Z</time>
</trkpt>
<trkpt lat="37.031864166259766" lon="-118.8368911743164">
<ele>2901</ele>
<time>2016-07-29T02:02:06Z</time>
</trkpt>
<trkpt lat="37.03178024291992" lon="-118.83695983886719">
<ele>2899</ele>
<time>2016-07-29T02:02:14Z</time>
</trkpt>
<trkpt lat="37.03176498413086" lon="-118.8370590209961">
<ele>2899</ele>
<time>2016-07-29T02:02:24Z</time>
</trkpt>
<trkpt lat="37.031795501708984" lon="-118.83714294433594">
<ele>2897</ele>
<time>2016-07-29T02:02:30Z</time>
</trkpt>
<trkpt lat="37.031715393066406" lon="-118.83722686767578">
<ele>2897</ele>
<time>2016-07-29T02:02:38Z</time>
</trkpt>
<trkpt lat="37.03163146972656" lon="-118.83731079101563">
<ele>2896</ele>
<time>2016-07-29T02:02:47Z</time>
</trkpt>
<trkpt lat="37.03153610229492" lon="-118.83731842041016">
<ele>2898</ele>
<time>2016-07-29T02:02:54Z</time>
</trkpt>
<trkpt lat="37.03142166137695" lon="-118.8373031616211">
<ele>2898</ele>
<time>2016-07-29T02:03:01Z</time>
</trkpt>
<trkpt lat="37.03132629394531" lon="-118.83732604980469">
<ele>2899</ele>
<time>2016-07-29T02:03:07Z</time>
</trkpt>
<trkpt lat="37.031227111816406" lon="-118.83731842041016">
<ele>2901</ele>
<time>2016-07-29T02:03:13Z</time>
</trkpt>
<trkpt lat="37.0311164855957" lon="-118.8373031616211">
<ele>2902</ele>
<time>2016-07-29T02:03:21Z</time>
</trkpt>
<trkpt lat="37.031002044677734" lon="-118.8373031616211">
<ele>2900</ele>
<time>2016-07-29T02:03:31Z</time>
</trkpt>
<trkpt lat="37.03090286254883" lon="-118.83734893798828">
<ele>2901</ele>
<time>2016-07-29T02:03:39Z</time>
</trkpt>
<trkpt lat="37.03080368041992" lon="-118.83735656738281">
<ele>2904</ele>
<time>2016-07-29T02:03:48Z</time>
</trkpt>
<trkpt lat="37.03070831298828" lon="-118.83737182617188">
<ele>2904</ele>
<time>2016-07-29T02:03:57Z</time>
</trkpt>
<trkpt lat="37.030601501464844" lon="-118.83739471435547">
<ele>2903</ele>
<time>2016-07-29T02:04:07Z</time>
</trkpt>
<trkpt lat="37.03049087524414" lon="-118.83739471435547">
<ele>2905</ele>
<time>2016-07-29T02:04:15Z</time>
</trkpt>
<trkpt lat="37.03038787841797" lon="-118.83738708496094">
<ele>2904</ele>
<time>2016-07-29T02:04:22Z</time>
</trkpt>
<trkpt lat="37.03030014038086" lon="-118.83734130859375">
<ele>2906</ele>
<time>2016-07-29T02:04:32Z</time>
</trkpt>
<trkpt lat="37.03018569946289" lon="-118.83731842041016">
<ele>2904</ele>
<time>2016-07-29T02:04:41Z</time>
</trkpt>
<trkpt lat="37.03013610839844" lon="-118.8373031616211">
<ele>2904</ele>
<time>2016-07-29T02:04:47Z</time>
</trkpt>
<trkpt lat="37.03003692626953" lon="-118.8373031616211">
<ele>2902</ele>
<time>2016-07-29T02:04:55Z</time>
</trkpt>
<trkpt lat="37.02995681762695" lon="-118.83737182617188">
<ele>2901</ele>
<time>2016-07-29T02:05:04Z</time>
</trkpt>
<trkpt lat="37.029876708984375" lon="-118.83743286132813">
<ele>2900</ele>
<time>2016-07-29T02:05:13Z</time>
</trkpt>
<trkpt lat="37.029788970947266" lon="-118.83750915527344">
<ele>2904</ele>
<time>2016-07-29T02:05:21Z</time>
</trkpt>
<trkpt lat="37.029701232910156" lon="-118.83756256103516">
<ele>2907</ele>
<time>2016-07-29T02:05:31Z</time>
</trkpt>
<trkpt lat="37.029624938964844" lon="-118.837646484375">
<ele>2908</ele>
<time>2016-07-29T02:05:42Z</time>
</trkpt>
<trkpt lat="37.0295295715332" lon="-118.83771514892578">
<ele>2912</ele>
<time>2016-07-29T02:05:51Z</time>
</trkpt>
<trkpt lat="37.02944564819336" lon="-118.83776092529297">
<ele>2911</ele>
<time>2016-07-29T02:05:58Z</time>
</trkpt>
<trkpt lat="37.02936935424805" lon="-118.83786010742188">
<ele>2910</ele>
<time>2016-07-29T02:06:06Z</time>
</trkpt>
<trkpt lat="37.029300689697266" lon="-118.83795166015625">
<ele>2907</ele>
<time>2016-07-29T02:06:22Z</time>
</trkpt>
<trkpt lat="37.02925109863281" lon="-118.83792114257813">
<ele>2907</ele>
<time>2016-07-29T02:06:31Z</time>
</trkpt>
<trkpt lat="37.029151916503906" lon="-118.837890625">
<ele>2904</ele>
<time>2016-07-29T02:06:39Z</time>
</trkpt>
<trkpt lat="37.02907180786133" lon="-118.83794403076172">
<ele>2904</ele>
<time>2016-07-29T02:06:50Z</time>
</trkpt>
<trkpt lat="37.029048919677734" lon="-118.83800506591797">
<ele>2905</ele>
<time>2016-07-29T02:06:57Z</time>
</trkpt>
<trkpt lat="37.02897262573242" lon="-118.83808135986328">
<ele>2904</ele>
<time>2016-07-29T02:07:06Z</time>
</trkpt>
<trkpt lat="37.02889633178711" lon="-118.83816528320313">
<ele>2908</ele>
<time>2016-07-29T02:07:17Z</time>
</trkpt>
<trkpt lat="37.02887725830078" lon="-118.83822631835938">
<ele>2909</ele>
<time>2016-07-29T02:07:23Z</time>
</trkpt>
<trkpt lat="37.02891159057617" lon="-118.83830261230469">
<ele>2904</ele>
<time>2016-07-29T02:07:32Z</time>
</trkpt>
<trkpt lat="37.02888870239258" lon="-118.83840942382813">
<ele>2905</ele>
<time>2016-07-29T02:07:42Z</time>
</trkpt>
<trkpt lat="37.028865814208984" lon="-118.83846282958984">
<ele>2906</ele>
<time>2016-07-29T02:07:48Z</time>
</trkpt>
<trkpt lat="37.02885437011719" lon="-118.8385238647461">
<ele>2905</ele>
<time>2016-07-29T02:07:59Z</time>
</trkpt>
<trkpt lat="37.02880859375" lon="-118.83856201171875">
<ele>2905</ele>
<time>2016-07-29T02:08:05Z</time>
</trkpt>
<trkpt lat="37.028717041015625" lon="-118.83860778808594">
<ele>2907</ele>
<time>2016-07-29T02:08:14Z</time>
</trkpt>
<trkpt lat="37.02863693237305" lon="-118.83866119384766">
<ele>2907</ele>
<time>2016-07-29T02:08:24Z</time>
</trkpt>
<trkpt lat="37.02861404418945" lon="-118.8387222290039">
<ele>2908</ele>
<time>2016-07-29T02:08:34Z</time>
</trkpt>
<trkpt lat="37.02853012084961" lon="-118.83878326416016">
<ele>2911</ele>
<time>2016-07-29T02:08:44Z</time>
</trkpt>
<trkpt lat="37.02849578857422" lon="-118.83882904052734">
<ele>2910</ele>
<time>2016-07-29T02:08:50Z</time>
</trkpt>
<trkpt lat="37.02847671508789" lon="-118.83895111083984">
<ele>2907</ele>
<time>2016-07-29T02:08:59Z</time>
</trkpt>
<trkpt lat="37.02842330932617" lon="-118.83906555175781">
<ele>2908</ele>
<time>2016-07-29T02:09:06Z</time>
</trkpt>
<trkpt lat="37.02841567993164" lon="-118.83918762207031">
<ele>2906</ele>
<time>2016-07-29T02:09:15Z</time>
</trkpt>
<trkpt lat="37.02839660644531" lon="-118.83930969238281">
<ele>2904</ele>
<time>2016-07-29T02:09:25Z</time>
</trkpt>
<trkpt lat="37.028385162353516" lon="-118.83939361572266">
<ele>2907</ele>
<time>2016-07-29T02:09:31Z</time>
</trkpt>
<trkpt lat="37.028385162353516" lon="-118.83952331542969">
<ele>2905</ele>
<time>2016-07-29T02:09:40Z</time>
</trkpt>
<trkpt lat="37.028385162353516" lon="-118.83965301513672">
<ele>2907</ele>
<time>2016-07-29T02:09:48Z</time>
</trkpt>
<trkpt lat="37.028343200683594" lon="-118.83977508544922">
<ele>2904</ele>
<time>2016-07-29T02:09:58Z</time>
</trkpt>
<trkpt lat="37.02832794189453" lon="-118.83988952636719">
<ele>2904</ele>
<time>2016-07-29T02:10:07Z</time>
</trkpt>
<trkpt lat="37.028316497802734" lon="-118.84000396728516">
<ele>2904</ele>
<time>2016-07-29T02:10:15Z</time>
</trkpt>
<trkpt lat="37.02825164794922" lon="-118.84009552001953">
<ele>2909</ele>
<time>2016-07-29T02:10:23Z</time>
</trkpt>
<trkpt lat="37.02818298339844" lon="-118.84017181396484">
<ele>2908</ele>
<time>2016-07-29T02:10:30Z</time>
</trkpt>
<trkpt lat="37.02809524536133" lon="-118.84027099609375">
<ele>2909</ele>
<time>2016-07-29T02:10:39Z</time>
</trkpt>
<trkpt lat="37.02802658081055" lon="-118.8403549194336">
<ele>2908</ele>
<time>2016-07-29T02:10:48Z</time>
</trkpt>
<trkpt lat="37.02796936035156" lon="-118.8404541015625">
<ele>2910</ele>
<time>2016-07-29T02:10:56Z</time>
</trkpt>
<trkpt lat="37.02793502807617" lon="-118.84049987792969">
<ele>2911</ele>
<time>2016-07-29T02:11:04Z</time>
</trkpt>
<trkpt lat="37.02790832519531" lon="-118.84059143066406">
<ele>2903</ele>
<time>2016-07-29T02:11:14Z</time>
</trkpt>
<trkpt lat="37.02785873413086" lon="-118.84070587158203">
<ele>2905</ele>
<time>2016-07-29T02:11:22Z</time>
</trkpt>
<trkpt lat="37.027793884277344" lon="-118.84077453613281">
<ele>2902</ele>
<time>2016-07-29T02:11:31Z</time>
</trkpt>
<trkpt lat="37.02771759033203" lon="-118.84087371826172">
<ele>2905</ele>
<time>2016-07-29T02:11:39Z</time>
</trkpt>
<trkpt lat="37.027679443359375" lon="-118.84099578857422">
<ele>2907</ele>
<time>2016-07-29T02:11:48Z</time>
</trkpt>
<trkpt lat="37.027645111083984" lon="-118.84112548828125">
<ele>2905</ele>
<time>2016-07-29T02:11:56Z</time>
</trkpt>
<trkpt lat="37.027618408203125" lon="-118.84124755859375">
<ele>2903</ele>
<time>2016-07-29T02:12:04Z</time>
</trkpt>
<trkpt lat="37.027584075927734" lon="-118.84135437011719">
<ele>2905</ele>
<time>2016-07-29T02:12:11Z</time>
</trkpt>
<trkpt lat="37.02751159667969" lon="-118.84144592285156">
<ele>2906</ele>
<time>2016-07-29T02:12:20Z</time>
</trkpt>
<trkpt lat="37.027217864990234" lon="-118.8414077758789">
<ele>2902</ele>
<time>2016-07-29T02:12:43Z</time>
</trkpt>
<trkpt lat="37.027122497558594" lon="-118.8414077758789">
<ele>2904</ele>
<time>2016-07-29T02:12:52Z</time>
</trkpt>
<trkpt lat="37.02702331542969" lon="-118.8414077758789">
<ele>2905</ele>
<time>2016-07-29T02:12:59Z</time>
</trkpt>
</trkseg>
</trk>
<trk>
<name><![CDATA[07281914]]></name>
<number>10</number>
<extensions><topografix:color>ff000066</topografix:color></extensions>
<trkseg>
<trkpt lat="37.02557373046875" lon="-118.84136962890625">
<ele>2908</ele>
<time>2016-07-29T02:15:02Z</time>
</trkpt>
<trkpt lat="37.02550506591797" lon="-118.84144592285156">
<ele>2903</ele>
<time>2016-07-29T02:15:09Z</time>
</trkpt>
<trkpt lat="37.02540588378906" lon="-118.8414306640625">
<ele>2905</ele>
<time>2016-07-29T02:15:16Z</time>
</trkpt>
<trkpt lat="37.025306701660156" lon="-118.8414077758789">
<ele>2908</ele>
<time>2016-07-29T02:15:22Z</time>
</trkpt>
<trkpt lat="37.02525329589844" lon="-118.8414306640625">
<ele>2905</ele>
<time>2016-07-29T02:15:28Z</time>
</trkpt>
<trkpt lat="37.025169372558594" lon="-118.84150695800781">
<ele>2904</ele>
<time>2016-07-29T02:15:37Z</time>
</trkpt>
<trkpt lat="37.025089263916016" lon="-118.8415756225586">
<ele>2912</ele>
<time>2016-07-29T02:15:44Z</time>
</trkpt>
<trkpt lat="37.02498245239258" lon="-118.84162902832031">
<ele>2911</ele>
<time>2016-07-29T02:15:50Z</time>
</trkpt>
<trkpt lat="37.024879455566406" lon="-118.84162902832031">
<ele>2909</ele>
<time>2016-07-29T02:15:58Z</time>
</trkpt>
<trkpt lat="37.02477264404297" lon="-118.84164428710938">
<ele>2906</ele>
<time>2016-07-29T02:16:08Z</time>
</trkpt>
<trkpt lat="37.0246696472168" lon="-118.8416748046875">
<ele>2906</ele>
<time>2016-07-29T02:16:15Z</time>
</trkpt>
<trkpt lat="37.02457809448242" lon="-118.84173583984375">
<ele>2902</ele>
<time>2016-07-29T02:16:26Z</time>
</trkpt>
<trkpt lat="37.02447509765625" lon="-118.84172821044922">
<ele>2904</ele>
<time>2016-07-29T02:16:32Z</time>
</trkpt>
<trkpt lat="37.02437973022461" lon="-118.84169006347656">
<ele>2903</ele>
<time>2016-07-29T02:16:39Z</time>
</trkpt>
<trkpt lat="37.024295806884766" lon="-118.84162902832031">
<ele>2895</ele>
<time>2016-07-29T02:16:51Z</time>
</trkpt>
<trkpt lat="37.02421951293945" lon="-118.841552734375">
<ele>2893</ele>
<time>2016-07-29T02:17:00Z</time>
</trkpt>
<trkpt lat="37.02410888671875" lon="-118.84153747558594">
<ele>2893</ele>
<time>2016-07-29T02:17:08Z</time>
</trkpt>
<trkpt lat="37.02402114868164" lon="-118.84148406982422">
<ele>2890</ele>
<time>2016-07-29T02:17:16Z</time>
</trkpt>
<trkpt lat="37.02397155761719" lon="-118.84144592285156">
<ele>2889</ele>
<time>2016-07-29T02:17:22Z</time>
</trkpt>
<trkpt lat="37.02387619018555" lon="-118.84140014648438">
<ele>2888</ele>
<time>2016-07-29T02:17:29Z</time>
</trkpt>
<trkpt lat="37.02377700805664" lon="-118.84135437011719">
<ele>2887</ele>
<time>2016-07-29T02:17:37Z</time>
</trkpt>
<trkpt lat="37.02369689941406" lon="-118.84141540527344">
<ele>2888</ele>
<time>2016-07-29T02:17:49Z</time>
</trkpt>
<trkpt lat="37.023616790771484" lon="-118.84136962890625">
<ele>2889</ele>
<time>2016-07-29T02:17:57Z</time>
</trkpt>
<trkpt lat="37.02351379394531" lon="-118.84135437011719">
<ele>2885</ele>
<time>2016-07-29T02:18:05Z</time>
</trkpt>
<trkpt lat="37.02349090576172" lon="-118.84141540527344">
<ele>2880</ele>
<time>2016-07-29T02:18:11Z</time>
</trkpt>
<trkpt lat="37.02350616455078" lon="-118.84153747558594">
<ele>2877</ele>
<time>2016-07-29T02:18:20Z</time>
</trkpt>
<trkpt lat="37.02347183227539" lon="-118.84164428710938">
<ele>2877</ele>
<time>2016-07-29T02:18:29Z</time>
</trkpt>
<trkpt lat="37.023406982421875" lon="-118.84173583984375">
<ele>2878</ele>
<time>2016-07-29T02:18:35Z</time>
</trkpt>
<trkpt lat="37.02336120605469" lon="-118.84187316894531">
<ele>2876</ele>
<time>2016-07-29T02:18:41Z</time>
</trkpt>
<trkpt lat="37.02333450317383" lon="-118.84198760986328">
<ele>2875</ele>
<time>2016-07-29T02:18:47Z</time>
</trkpt>
<trkpt lat="37.02330017089844" lon="-118.84210205078125">
<ele>2883</ele>
<time>2016-07-29T02:18:55Z</time>
</trkpt>
<trkpt lat="37.023258209228516" lon="-118.84222412109375">
<ele>2886</ele>
<time>2016-07-29T02:19:05Z</time>
</trkpt>
<trkpt lat="37.02323913574219" lon="-118.84233856201172">
<ele>2887</ele>
<time>2016-07-29T02:19:14Z</time>
</trkpt>
<trkpt lat="37.02325439453125" lon="-118.84239196777344">
<ele>2882</ele>
<time>2016-07-29T02:19:27Z</time>
</trkpt>
<trkpt lat="37.02324676513672" lon="-118.84245300292969">
<ele>2887</ele>
<time>2016-07-29T02:19:33Z</time>
</trkpt>
<trkpt lat="37.02322769165039" lon="-118.84257507324219">
<ele>2888</ele>
<time>2016-07-29T02:19:45Z</time>
</trkpt>
<trkpt lat="37.02322006225586" lon="-118.84270477294922">
<ele>2882</ele>
<time>2016-07-29T02:19:52Z</time>
</trkpt>
<trkpt lat="37.02323913574219" lon="-118.84282684326172">
<ele>2884</ele>
<time>2016-07-29T02:20:01Z</time>
</trkpt>
<trkpt lat="37.0232048034668" lon="-118.84295654296875">
<ele>2886</ele>
<time>2016-07-29T02:20:11Z</time>
</trkpt>
<trkpt lat="37.02313232421875" lon="-118.84305572509766">
<ele>2886</ele>
<time>2016-07-29T02:20:18Z</time>
</trkpt>
<trkpt lat="37.023067474365234" lon="-118.8431625366211">
<ele>2890</ele>
<time>2016-07-29T02:20:25Z</time>
</trkpt>
<trkpt lat="37.02298355102539" lon="-118.84322357177734">
<ele>2888</ele>
<time>2016-07-29T02:20:34Z</time>
</trkpt>
<trkpt lat="37.02291488647461" lon="-118.84332275390625">
<ele>2887</ele>
<time>2016-07-29T02:20:42Z</time>
</trkpt>
<trkpt lat="37.02287673950195" lon="-118.84337615966797">
<ele>2887</ele>
<time>2016-07-29T02:20:48Z</time>
</trkpt>
<trkpt lat="37.02280807495117" lon="-118.8434829711914">
<ele>2885</ele>
<time>2016-07-29T02:20:57Z</time>
</trkpt>
<trkpt lat="37.02274703979492" lon="-118.8436050415039">
<ele>2885</ele>
<time>2016-07-29T02:21:07Z</time>
</trkpt>
<trkpt lat="37.022727966308594" lon="-118.84373474121094">
<ele>2885</ele>
<time>2016-07-29T02:21:17Z</time>
</trkpt>
<trkpt lat="37.022708892822266" lon="-118.84385681152344">
<ele>2884</ele>
<time>2016-07-29T02:21:26Z</time>
</trkpt>
<trkpt lat="37.0226936340332" lon="-118.8439712524414">
<ele>2882</ele>
<time>2016-07-29T02:21:35Z</time>
</trkpt>
<trkpt lat="37.02260971069336" lon="-118.84402465820313">
<ele>2884</ele>
<time>2016-07-29T02:21:44Z</time>
</trkpt>
<trkpt lat="37.02250671386719" lon="-118.84404754638672">
<ele>2888</ele>
<time>2016-07-29T02:21:50Z</time>
</trkpt>
<trkpt lat="37.02241516113281" lon="-118.8441162109375">
<ele>2890</ele>
<time>2016-07-29T02:21:59Z</time>
</trkpt>
<trkpt lat="37.022342681884766" lon="-118.84416961669922">
<ele>2889</ele>
<time>2016-07-29T02:22:08Z</time>
</trkpt>
<trkpt lat="37.02223205566406" lon="-118.84416961669922">
<ele>2888</ele>
<time>2016-07-29T02:22:16Z</time>
</trkpt>
<trkpt lat="37.02214050292969" lon="-118.84416961669922">
<ele>2889</ele>
<time>2016-07-29T02:22:22Z</time>
</trkpt>
<trkpt lat="37.02204132080078" lon="-118.84420013427734">
<ele>2887</ele>
<time>2016-07-29T02:22:30Z</time>
</trkpt>
<trkpt lat="37.02195739746094" lon="-118.8442611694336">
<ele>2886</ele>
<time>2016-07-29T02:22:39Z</time>
</trkpt>
<trkpt lat="37.021854400634766" lon="-118.84424591064453">
<ele>2889</ele>
<time>2016-07-29T02:22:45Z</time>
</trkpt>
<trkpt lat="37.02176284790039" lon="-118.84427642822266">
<ele>2885</ele>
<time>2016-07-29T02:22:53Z</time>
</trkpt>
<trkpt lat="37.02164840698242" lon="-118.8442611694336">
<ele>2885</ele>
<time>2016-07-29T02:23:01Z</time>
</trkpt>
<trkpt lat="37.02158737182617" lon="-118.8442611694336">
<ele>2887</ele>
<time>2016-07-29T02:23:07Z</time>
</trkpt>
<trkpt lat="37.021484375" lon="-118.8442611694336">
<ele>2886</ele>
<time>2016-07-29T02:23:16Z</time>
</trkpt>
<trkpt lat="37.0213737487793" lon="-118.84427642822266">
<ele>2887</ele>
<time>2016-07-29T02:23:24Z</time>
</trkpt>
<trkpt lat="37.02128219604492" lon="-118.84423828125">
<ele>2886</ele>
<time>2016-07-29T02:23:30Z</time>
</trkpt>
<trkpt lat="37.02118682861328" lon="-118.8442153930664">
<ele>2883</ele>
<time>2016-07-29T02:23:37Z</time>
</trkpt>
<trkpt lat="37.021087646484375" lon="-118.84417724609375">
<ele>2882</ele>
<time>2016-07-29T02:23:47Z</time>
</trkpt>
<trkpt lat="37.020992279052734" lon="-118.8441162109375">
<ele>2878</ele>
<time>2016-07-29T02:23:58Z</time>
</trkpt>
<trkpt lat="37.02089309692383" lon="-118.84403228759766">
<ele>2873</ele>
<time>2016-07-29T02:24:06Z</time>
</trkpt>
<trkpt lat="37.02083206176758" lon="-118.84393310546875">
<ele>2873</ele>
<time>2016-07-29T02:24:13Z</time>
</trkpt>
<trkpt lat="37.02082443237305" lon="-118.84387969970703">
<ele>2871</ele>
<time>2016-07-29T02:24:19Z</time>
</trkpt>
<trkpt lat="37.02075958251953" lon="-118.84375762939453">
<ele>2869</ele>
<time>2016-07-29T02:24:27Z</time>
</trkpt>
<trkpt lat="37.020687103271484" lon="-118.84366607666016">
<ele>2868</ele>
<time>2016-07-29T02:24:35Z</time>
</trkpt>
<trkpt lat="37.020652770996094" lon="-118.84354400634766">
<ele>2864</ele>
<time>2016-07-29T02:24:44Z</time>
</trkpt>
<trkpt lat="37.02058792114258" lon="-118.84344482421875">
<ele>2864</ele>
<time>2016-07-29T02:24:52Z</time>
</trkpt>
<trkpt lat="37.0205078125" lon="-118.8433837890625">
<ele>2862</ele>
<time>2016-07-29T02:24:59Z</time>
</trkpt>
<trkpt lat="37.020442962646484" lon="-118.84329986572266">
<ele>2861</ele>
<time>2016-07-29T02:25:09Z</time>
</trkpt>
<trkpt lat="37.02035903930664" lon="-118.84321594238281">
<ele>2859</ele>
<time>2016-07-29T02:25:17Z</time>
</trkpt>
<trkpt lat="37.020267486572266" lon="-118.84315490722656">
<ele>2856</ele>
<time>2016-07-29T02:25:25Z</time>
</trkpt>
<trkpt lat="37.02021408081055" lon="-118.8430404663086">
<ele>2857</ele>
<time>2016-07-29T02:25:33Z</time>
</trkpt>
<trkpt lat="37.02012634277344" lon="-118.84298706054688">
<ele>2856</ele>
<time>2016-07-29T02:25:41Z</time>
</trkpt>
<trkpt lat="37.02006530761719" lon="-118.84288024902344">
<ele>2855</ele>
<time>2016-07-29T02:25:49Z</time>
</trkpt>
<trkpt lat="37.01998519897461" lon="-118.84281158447266">
<ele>2855</ele>
<time>2016-07-29T02:25:55Z</time>
</trkpt>
<trkpt lat="37.01993942260742" lon="-118.8427505493164">
<ele>2856</ele>
<time>2016-07-29T02:26:02Z</time>
</trkpt>
<trkpt lat="37.0199089050293" lon="-118.8426284790039">
<ele>2855</ele>
<time>2016-07-29T02:26:10Z</time>
</trkpt>
<trkpt lat="37.019859313964844" lon="-118.84251403808594">
<ele>2853</ele>
<time>2016-07-29T02:26:18Z</time>
</trkpt>
<trkpt lat="37.019779205322266" lon="-118.8424301147461">
<ele>2852</ele>
<time>2016-07-29T02:26:25Z</time>
</trkpt>
<trkpt lat="37.019676208496094" lon="-118.8423843383789">
<ele>2851</ele>
<time>2016-07-29T02:26:33Z</time>
</trkpt>
<trkpt lat="37.01959228515625" lon="-118.84230041503906">
<ele>2851</ele>
<time>2016-07-29T02:26:41Z</time>
</trkpt>
<trkpt lat="37.019500732421875" lon="-118.84223937988281">
<ele>2850</ele>
<time>2016-07-29T02:26:51Z</time>
</trkpt>
<trkpt lat="37.01939392089844" lon="-118.84225463867188">
<ele>2849</ele>
<time>2016-07-29T02:26:59Z</time>
</trkpt>
<trkpt lat="37.01931381225586" lon="-118.84220123291016">
<ele>2846</ele>
<time>2016-07-29T02:27:06Z</time>
</trkpt>
<trkpt lat="37.019229888916016" lon="-118.84210968017578">
<ele>2848</ele>
<time>2016-07-29T02:27:14Z</time>
</trkpt>
<trkpt lat="37.01915740966797" lon="-118.84201049804688">
<ele>2846</ele>
<time>2016-07-29T02:27:22Z</time>
</trkpt>
<trkpt lat="37.019081115722656" lon="-118.84190368652344">
<ele>2846</ele>
<time>2016-07-29T02:27:29Z</time>
</trkpt>
<trkpt lat="37.01901626586914" lon="-118.84180450439453">
<ele>2844</ele>
<time>2016-07-29T02:27:37Z</time>
</trkpt>
<trkpt lat="37.018978118896484" lon="-118.8416976928711">
<ele>2845</ele>
<time>2016-07-29T02:27:46Z</time>
</trkpt>
<trkpt lat="37.0189094543457" lon="-118.84160614013672">
<ele>2846</ele>
<time>2016-07-29T02:27:53Z</time>
</trkpt>
<trkpt lat="37.018863677978516" lon="-118.84149169921875">
<ele>2847</ele>
<time>2016-07-29T02:28:02Z</time>
</trkpt>
<trkpt lat="37.01881408691406" lon="-118.84137725830078">
<ele>2848</ele>
<time>2016-07-29T02:28:10Z</time>
</trkpt>
<trkpt lat="37.018760681152344" lon="-118.84127044677734">
<ele>2844</ele>
<time>2016-07-29T02:28:18Z</time>
</trkpt>
<trkpt lat="37.01870346069336" lon="-118.8411636352539">
<ele>2844</ele>
<time>2016-07-29T02:28:24Z</time>
</trkpt>
<trkpt lat="37.018646240234375" lon="-118.84105682373047">
<ele>2844</ele>
<time>2016-07-29T02:28:32Z</time>
</trkpt>
<trkpt lat="37.01865005493164" lon="-118.84098815917969">
<ele>2845</ele>
<time>2016-07-29T02:28:38Z</time>
</trkpt>
<trkpt lat="37.01862335205078" lon="-118.84093475341797">
<ele>2843</ele>
<time>2016-07-29T02:28:45Z</time>
</trkpt>
<trkpt lat="37.01854705810547" lon="-118.8408432006836">
<ele>2844</ele>
<time>2016-07-29T02:28:52Z</time>
</trkpt>
<trkpt lat="37.0184440612793" lon="-118.8408203125">
<ele>2846</ele>
<time>2016-07-29T02:28:59Z</time>
</trkpt>
<trkpt lat="37.018348693847656" lon="-118.84075927734375">
<ele>2848</ele>
<time>2016-07-29T02:29:05Z</time>
</trkpt>
<trkpt lat="37.018272399902344" lon="-118.84066772460938">
<ele>2842</ele>
<time>2016-07-29T02:29:13Z</time>
</trkpt>
<trkpt lat="37.01822280883789" lon="-118.84056091308594">
<ele>2841</ele>
<time>2016-07-29T02:29:21Z</time>
</trkpt>
<trkpt lat="37.01815414428711" lon="-118.84046936035156">
<ele>2841</ele>
<time>2016-07-29T02:29:27Z</time>
</trkpt>
<trkpt lat="37.018070220947266" lon="-118.84040069580078">
<ele>2840</ele>
<time>2016-07-29T02:29:33Z</time>
</trkpt>
<trkpt lat="37.01797103881836" lon="-118.84034729003906">
<ele>2838</ele>
<time>2016-07-29T02:29:41Z</time>
</trkpt>
<trkpt lat="37.017887115478516" lon="-118.84028625488281">
<ele>2839</ele>
<time>2016-07-29T02:29:50Z</time>
</trkpt>
<trkpt lat="37.01782989501953" lon="-118.84027099609375">
<ele>2836</ele>
<time>2016-07-29T02:29:57Z</time>
</trkpt>
<trkpt lat="37.017704010009766" lon="-118.84024047851563">
<ele>2833</ele>
<time>2016-07-29T02:30:06Z</time>
</trkpt>
<trkpt lat="37.017616271972656" lon="-118.84016418457031">
<ele>2836</ele>
<time>2016-07-29T02:30:12Z</time>
</trkpt>
<trkpt lat="37.01752853393555" lon="-118.840087890625">
<ele>2841</ele>
<time>2016-07-29T02:30:18Z</time>
</trkpt>
<trkpt lat="37.017425537109375" lon="-118.84004211425781">
<ele>2841</ele>
<time>2016-07-29T02:30:26Z</time>
</trkpt>
<trkpt lat="37.01731872558594" lon="-118.84002685546875">
<ele>2838</ele>
<time>2016-07-29T02:30:37Z</time>
</trkpt>
<trkpt lat="37.01721954345703" lon="-118.83999633789063">
<ele>2834</ele>
<time>2016-07-29T02:30:45Z</time>
</trkpt>
<trkpt lat="37.01716232299805" lon="-118.83998107910156">
<ele>2836</ele>
<time>2016-07-29T02:30:51Z</time>
</trkpt>
<trkpt lat="37.017059326171875" lon="-118.8399658203125">
<ele>2834</ele>
<time>2016-07-29T02:30:59Z</time>
</trkpt>
<trkpt lat="37.016971588134766" lon="-118.83995819091797">
<ele>2831</ele>
<time>2016-07-29T02:31:06Z</time>
</trkpt>
<trkpt lat="37.016876220703125" lon="-118.83995819091797">
<ele>2833</ele>
<time>2016-07-29T02:31:13Z</time>
</trkpt>
<trkpt lat="37.016780853271484" lon="-118.8399658203125">
<ele>2834</ele>
<time>2016-07-29T02:31:19Z</time>
</trkpt>
<trkpt lat="37.01667022705078" lon="-118.83995819091797">
<ele>2836</ele>
<time>2016-07-29T02:31:26Z</time>
</trkpt>
<trkpt lat="37.01657485961914" lon="-118.83999633789063">
<ele>2834</ele>
<time>2016-07-29T02:31:34Z</time>
</trkpt>
<trkpt lat="37.016483306884766" lon="-118.84003448486328">
<ele>2832</ele>
<time>2016-07-29T02:31:42Z</time>
</trkpt>
<trkpt lat="37.01639175415039" lon="-118.84008026123047">
<ele>2830</ele>
<time>2016-07-29T02:31:50Z</time>
</trkpt>
<trkpt lat="37.01628112792969" lon="-118.84011840820313">
<ele>2835</ele>
<time>2016-07-29T02:31:58Z</time>
</trkpt>
<trkpt lat="37.016204833984375" lon="-118.84017181396484">
<ele>2834</ele>
<time>2016-07-29T02:32:22Z</time>
</trkpt>
<trkpt lat="37.01615524291992" lon="-118.84015655517578">
<ele>2832</ele>
<time>2016-07-29T02:32:28Z</time>
</trkpt>
<trkpt lat="37.016109466552734" lon="-118.84013366699219">
<ele>2831</ele>
<time>2016-07-29T02:32:34Z</time>
</trkpt>
<trkpt lat="37.01606369018555" lon="-118.8401107788086">
<ele>2834</ele>
<time>2016-07-29T02:32:57Z</time>
</trkpt>
<trkpt lat="37.01596450805664" lon="-118.84010314941406">
<ele>2833</ele>
<time>2016-07-29T02:33:07Z</time>
</trkpt>
<trkpt lat="37.01588821411133" lon="-118.84017181396484">
<ele>2833</ele>
<time>2016-07-29T02:33:15Z</time>
</trkpt>
<trkpt lat="37.01580047607422" lon="-118.8401870727539">
<ele>2832</ele>
<time>2016-07-29T02:33:23Z</time>
</trkpt>
<trkpt lat="37.015708923339844" lon="-118.84015655517578">
<ele>2831</ele>
<time>2016-07-29T02:33:32Z</time>
</trkpt>
<trkpt lat="37.015655517578125" lon="-118.8400650024414">
<ele>2828</ele>
<time>2016-07-29T02:33:41Z</time>
</trkpt>
<trkpt lat="37.015621185302734" lon="-118.8399429321289">
<ele>2827</ele>
<time>2016-07-29T02:33:51Z</time>
</trkpt>
<trkpt lat="37.01553726196289" lon="-118.83992004394531">
<ele>2820</ele>
<time>2016-07-29T02:33:59Z</time>
</trkpt>
<trkpt lat="37.0155029296875" lon="-118.84001159667969">
<ele>2819</ele>
<time>2016-07-29T02:34:06Z</time>
</trkpt>
<trkpt lat="37.01543426513672" lon="-118.84009552001953">
<ele>2817</ele>
<time>2016-07-29T02:34:13Z</time>
</trkpt>
<trkpt lat="37.01533126831055" lon="-118.84013366699219">
<ele>2814</ele>
<time>2016-07-29T02:34:21Z</time>
</trkpt>
<trkpt lat="37.01523971557617" lon="-118.84015655517578">
<ele>2814</ele>
<time>2016-07-29T02:34:32Z</time>
</trkpt>
<trkpt lat="37.015132904052734" lon="-118.84017181396484">
<ele>2811</ele>
<time>2016-07-29T02:34:39Z</time>
</trkpt>
<trkpt lat="37.01502990722656" lon="-118.84017944335938">
<ele>2810</ele>
<time>2016-07-29T02:34:47Z</time>
</trkpt>
<trkpt lat="37.01493835449219" lon="-118.84016418457031">
<ele>2814</ele>
<time>2016-07-29T02:34:54Z</time>
</trkpt>
<trkpt lat="37.014854431152344" lon="-118.84014129638672">
<ele>2815</ele>
<time>2016-07-29T02:35:02Z</time>
</trkpt>
<trkpt lat="37.014747619628906" lon="-118.84007263183594">
<ele>2811</ele>
<time>2016-07-29T02:35:10Z</time>
</trkpt>
<trkpt lat="37.01464080810547" lon="-118.84001159667969">
<ele>2810</ele>
<time>2016-07-29T02:35:16Z</time>
</trkpt>
<trkpt lat="37.01459503173828" lon="-118.83989715576172">
<ele>2810</ele>
<time>2016-07-29T02:35:24Z</time>
</trkpt>
<trkpt lat="37.014530181884766" lon="-118.8398208618164">
<ele>2807</ele>
<time>2016-07-29T02:35:33Z</time>
</trkpt>
<trkpt lat="37.01443862915039" lon="-118.83975219726563">
<ele>2809</ele>
<time>2016-07-29T02:35:41Z</time>
</trkpt>
<trkpt lat="37.014347076416016" lon="-118.83970642089844">
<ele>2805</ele>
<time>2016-07-29T02:35:50Z</time>
</trkpt>
<trkpt lat="37.01425552368164" lon="-118.83965301513672">
<ele>2804</ele>
<time>2016-07-29T02:35:58Z</time>
</trkpt>
<trkpt lat="37.01414489746094" lon="-118.83963012695313">
<ele>2805</ele>
<time>2016-07-29T02:36:06Z</time>
</trkpt>
<trkpt lat="37.014041900634766" lon="-118.83958435058594">
<ele>2806</ele>
<time>2016-07-29T02:36:14Z</time>
</trkpt>
<trkpt lat="37.01394271850586" lon="-118.83955383300781">
<ele>2806</ele>
<time>2016-07-29T02:36:20Z</time>
</trkpt>
<trkpt lat="37.01384735107422" lon="-118.83948516845703">
<ele>2802</ele>
<time>2016-07-29T02:36:29Z</time>
</trkpt>
<trkpt lat="37.013771057128906" lon="-118.83942413330078">
<ele>2800</ele>
<time>2016-07-29T02:36:41Z</time>
</trkpt>
<trkpt lat="37.013710021972656" lon="-118.83930969238281">
<ele>2799</ele>
<time>2016-07-29T02:36:49Z</time>
</trkpt>
<trkpt lat="37.013641357421875" lon="-118.83922576904297">
<ele>2798</ele>
<time>2016-07-29T02:36:57Z</time>
</trkpt>
<trkpt lat="37.01354217529297" lon="-118.83914947509766">
<ele>2796</ele>
<time>2016-07-29T02:37:07Z</time>
</trkpt>
<trkpt lat="37.01347351074219" lon="-118.83905792236328">
<ele>2794</ele>
<time>2016-07-29T02:37:14Z</time>
</trkpt>
<trkpt lat="37.01336669921875" lon="-118.83904266357422">
<ele>2792</ele>
<time>2016-07-29T02:37:22Z</time>
</trkpt>
<trkpt lat="37.01329040527344" lon="-118.8389663696289">
<ele>2790</ele>
<time>2016-07-29T02:37:28Z</time>
</trkpt>
<trkpt lat="37.013206481933594" lon="-118.83892059326172">
<ele>2792</ele>
<time>2016-07-29T02:37:35Z</time>
</trkpt>
<trkpt lat="37.013126373291016" lon="-118.8388442993164">
<ele>2793</ele>
<time>2016-07-29T02:37:42Z</time>
</trkpt>
<trkpt lat="37.01305389404297" lon="-118.83877563476563">
<ele>2792</ele>
<time>2016-07-29T02:37:48Z</time>
</trkpt>
<trkpt lat="37.01294708251953" lon="-118.83873748779297">
<ele>2793</ele>
<time>2016-07-29T02:37:55Z</time>
</trkpt>
<trkpt lat="37.012847900390625" lon="-118.83870697021484">
<ele>2793</ele>
<time>2016-07-29T02:38:01Z</time>
</trkpt>
<trkpt lat="37.012786865234375" lon="-118.8387222290039">
<ele>2792</ele>
<time>2016-07-29T02:38:09Z</time>
</trkpt>
<trkpt lat="37.01268768310547" lon="-118.83867645263672">
<ele>2794</ele>
<time>2016-07-29T02:38:17Z</time>
</trkpt>
<trkpt lat="37.012596130371094" lon="-118.83863830566406">
<ele>2792</ele>
<time>2016-07-29T02:38:24Z</time>
</trkpt>
<trkpt lat="37.01250076293945" lon="-118.83856201171875">
<ele>2792</ele>
<time>2016-07-29T02:38:32Z</time>
</trkpt>
<trkpt lat="37.01242446899414" lon="-118.83848571777344">
<ele>2790</ele>
<time>2016-07-29T02:38:38Z</time>
</trkpt>
<trkpt lat="37.012325286865234" lon="-118.83843231201172">
<ele>2790</ele>
<time>2016-07-29T02:38:46Z</time>
</trkpt>
<trkpt lat="37.01222229003906" lon="-118.83836364746094">
<ele>2788</ele>
<time>2016-07-29T02:38:56Z</time>
</trkpt>
<trkpt lat="37.012123107910156" lon="-118.83834075927734">
<ele>2792</ele>
<time>2016-07-29T02:39:02Z</time>
</trkpt>
<trkpt lat="37.012027740478516" lon="-118.83830261230469">
<ele>2794</ele>
<time>2016-07-29T02:39:09Z</time>
</trkpt>
<trkpt lat="37.011932373046875" lon="-118.83829498291016">
<ele>2791</ele>
<time>2016-07-29T02:39:18Z</time>
</trkpt>
<trkpt lat="37.011878967285156" lon="-118.83827209472656">
<ele>2791</ele>
<time>2016-07-29T02:39:26Z</time>
</trkpt>
<trkpt lat="37.011775970458984" lon="-118.83822631835938">
<ele>2792</ele>
<time>2016-07-29T02:39:32Z</time>
</trkpt>
<trkpt lat="37.01167678833008" lon="-118.83820343017578">
<ele>2791</ele>
<time>2016-07-29T02:39:39Z</time>
</trkpt>
<trkpt lat="37.011627197265625" lon="-118.83821105957031">
<ele>2791</ele>
<time>2016-07-29T02:39:45Z</time>
</trkpt>
<trkpt lat="37.01152420043945" lon="-118.83818817138672">
<ele>2791</ele>
<time>2016-07-29T02:39:51Z</time>
</trkpt>
<trkpt lat="37.011436462402344" lon="-118.83816528320313">
<ele>2788</ele>
<time>2016-07-29T02:39:57Z</time>
</trkpt>
<trkpt lat="37.01130676269531" lon="-118.83811950683594">
<ele>2790</ele>
<time>2016-07-29T02:40:06Z</time>
</trkpt>
<trkpt lat="37.01124572753906" lon="-118.83812713623047">
<ele>2789</ele>
<time>2016-07-29T02:40:12Z</time>
</trkpt>
<trkpt lat="37.011138916015625" lon="-118.83814239501953">
<ele>2788</ele>
<time>2016-07-29T02:40:19Z</time>
</trkpt>
<trkpt lat="37.01103210449219" lon="-118.83816528320313">
<ele>2788</ele>
<time>2016-07-29T02:40:26Z</time>
</trkpt>
<trkpt lat="37.010921478271484" lon="-118.83817291259766">
<ele>2788</ele>
<time>2016-07-29T02:40:33Z</time>
</trkpt>
<trkpt lat="37.01083755493164" lon="-118.83821868896484">
<ele>2788</ele>
<time>2016-07-29T02:40:42Z</time>
</trkpt>
<trkpt lat="37.01078796386719" lon="-118.83824157714844">
<ele>2786</ele>
<time>2016-07-29T02:40:49Z</time>
</trkpt>
<trkpt lat="37.01069259643555" lon="-118.83828735351563">
<ele>2790</ele>
<time>2016-07-29T02:40:59Z</time>
</trkpt>
<trkpt lat="37.01060104370117" lon="-118.83832550048828">
<ele>2790</ele>
<time>2016-07-29T02:41:06Z</time>
</trkpt>
<trkpt lat="37.010498046875" lon="-118.83832550048828">
<ele>2787</ele>
<time>2016-07-29T02:41:14Z</time>
</trkpt>
<trkpt lat="37.01039505004883" lon="-118.83834838867188">
<ele>2786</ele>
<time>2016-07-29T02:41:22Z</time>
</trkpt>
<trkpt lat="37.01029968261719" lon="-118.83837890625">
<ele>2787</ele>
<time>2016-07-29T02:41:30Z</time>
</trkpt>
<trkpt lat="37.01020812988281" lon="-118.83841705322266">
<ele>2786</ele>
<time>2016-07-29T02:41:36Z</time>
</trkpt>
<trkpt lat="37.01009750366211" lon="-118.83847045898438">
<ele>2787</ele>
<time>2016-07-29T02:41:44Z</time>
</trkpt>
<trkpt lat="37.00999069213867" lon="-118.83845520019531">
<ele>2787</ele>
<time>2016-07-29T02:41:51Z</time>
</trkpt>
<trkpt lat="37.009891510009766" lon="-118.83850860595703">
<ele>2788</ele>
<time>2016-07-29T02:41:59Z</time>
</trkpt>
<trkpt lat="37.00981140136719" lon="-118.83856201171875">
<ele>2783</ele>
<time>2016-07-29T02:42:06Z</time>
</trkpt>
<trkpt lat="37.0097541809082" lon="-118.83866119384766">
<ele>2781</ele>
<time>2016-07-29T02:42:15Z</time>
</trkpt>
<trkpt lat="37.009639739990234" lon="-118.83870697021484">
<ele>2786</ele>
<time>2016-07-29T02:42:23Z</time>
</trkpt>
<trkpt lat="37.00947952270508" lon="-118.83870697021484">
<ele>2786</ele>
<time>2016-07-29T02:42:31Z</time>
</trkpt>
<trkpt lat="37.00938034057617" lon="-118.83873748779297">
<ele>2788</ele>
<time>2016-07-29T02:42:39Z</time>
</trkpt>
<trkpt lat="37.009281158447266" lon="-118.83877563476563">
<ele>2785</ele>
<time>2016-07-29T02:42:48Z</time>
</trkpt>
<trkpt lat="37.00918197631836" lon="-118.83882904052734">
<ele>2784</ele>
<time>2016-07-29T02:42:56Z</time>
</trkpt>
<trkpt lat="37.00909423828125" lon="-118.8388442993164">
<ele>2782</ele>
<time>2016-07-29T02:43:02Z</time>
</trkpt>
<trkpt lat="37.00899124145508" lon="-118.83885192871094">
<ele>2781</ele>
<time>2016-07-29T02:43:11Z</time>
</trkpt>
<trkpt lat="37.0088996887207" lon="-118.8388671875">
<ele>2779</ele>
<time>2016-07-29T02:43:19Z</time>
</trkpt>
<trkpt lat="37.008785247802734" lon="-118.8388671875">
<ele>2777</ele>
<time>2016-07-29T02:43:27Z</time>
</trkpt>
<trkpt lat="37.008670806884766" lon="-118.83888244628906">
<ele>2774</ele>
<time>2016-07-29T02:43:36Z</time>
</trkpt>
<trkpt lat="37.008575439453125" lon="-118.83887481689453">
<ele>2773</ele>
<time>2016-07-29T02:43:45Z</time>
</trkpt>
<trkpt lat="37.008487701416016" lon="-118.8388671875">
<ele>2774</ele>
<time>2016-07-29T02:43:51Z</time>
</trkpt>
<trkpt lat="37.00840759277344" lon="-118.83894348144531">
<ele>2772</ele>
<time>2016-07-29T02:43:59Z</time>
</trkpt>
<trkpt lat="37.00830841064453" lon="-118.83895874023438">
<ele>2771</ele>
<time>2016-07-29T02:44:06Z</time>
</trkpt>
<trkpt lat="37.00820541381836" lon="-118.83898162841797">
<ele>2771</ele>
<time>2016-07-29T02:44:13Z</time>
</trkpt>
<trkpt lat="37.00811004638672" lon="-118.83899688720703">
<ele>2772</ele>
<time>2016-07-29T02:44:20Z</time>
</trkpt>
<trkpt lat="37.00801086425781" lon="-118.83901977539063">
<ele>2771</ele>
<time>2016-07-29T02:44:26Z</time>
</trkpt>
<trkpt lat="37.007957458496094" lon="-118.83905029296875">
<ele>2773</ele>
<time>2016-07-29T02:44:32Z</time>
</trkpt>
<trkpt lat="37.00788116455078" lon="-118.83912658691406">
<ele>2772</ele>
<time>2016-07-29T02:44:39Z</time>
</trkpt>
<trkpt lat="37.007808685302734" lon="-118.83921813964844">
<ele>2774</ele>
<time>2016-07-29T02:44:50Z</time>
</trkpt>
<trkpt lat="37.00775909423828" lon="-118.8393325805664">
<ele>2775</ele>
<time>2016-07-29T02:45:02Z</time>
</trkpt>
<trkpt lat="37.00771713256836" lon="-118.8393783569336">
<ele>2778</ele>
<time>2016-07-29T02:45:09Z</time>
</trkpt>
<trkpt lat="37.00764846801758" lon="-118.83946990966797">
<ele>2778</ele>
<time>2016-07-29T02:45:17Z</time>
</trkpt>
<trkpt lat="37.007591247558594" lon="-118.83956909179688">
<ele>2774</ele>
<time>2016-07-29T02:45:24Z</time>
</trkpt>
<trkpt lat="37.00751495361328" lon="-118.83965301513672">
<ele>2773</ele>
<time>2016-07-29T02:45:31Z</time>
</trkpt>
<trkpt lat="37.00742721557617" lon="-118.83971405029297">
<ele>2772</ele>
<time>2016-07-29T02:45:39Z</time>
</trkpt>
<trkpt lat="37.00733947753906" lon="-118.83969116210938">
<ele>2770</ele>
<time>2016-07-29T02:45:50Z</time>
</trkpt>
<trkpt lat="37.007293701171875" lon="-118.83970642089844">
<ele>2772</ele>
<time>2016-07-29T02:45:56Z</time>
</trkpt>
<trkpt lat="37.00722885131836" lon="-118.83966064453125">
<ele>2770</ele>
<time>2016-07-29T02:46:02Z</time>
</trkpt>
<trkpt lat="37.00716018676758" lon="-118.83956909179688">
<ele>2773</ele>
<time>2016-07-29T02:46:10Z</time>
</trkpt>
<trkpt lat="37.007083892822266" lon="-118.83946228027344">
<ele>2772</ele>
<time>2016-07-29T02:46:19Z</time>
</trkpt>
<trkpt lat="37.006980895996094" lon="-118.8394546508789">
<ele>2769</ele>
<time>2016-07-29T02:46:27Z</time>
</trkpt>
<trkpt lat="37.006874084472656" lon="-118.83946990966797">
<ele>2770</ele>
<time>2016-07-29T02:46:35Z</time>
</trkpt>
<trkpt lat="37.006778717041016" lon="-118.8394775390625">
<ele>2767</ele>
<time>2016-07-29T02:46:43Z</time>
</trkpt>
<trkpt lat="37.006683349609375" lon="-118.83950805664063">
<ele>2768</ele>
<time>2016-07-29T02:46:52Z</time>
</trkpt>
<trkpt lat="37.006629943847656" lon="-118.83953094482422">
<ele>2769</ele>
<time>2016-07-29T02:46:58Z</time>
</trkpt>
<trkpt lat="37.00654602050781" lon="-118.8395767211914">
<ele>2770</ele>
<time>2016-07-29T02:47:06Z</time>
</trkpt>
<trkpt lat="37.00643539428711" lon="-118.83956146240234">
<ele>2771</ele>
<time>2016-07-29T02:47:13Z</time>
</trkpt>
<trkpt lat="37.00632095336914" lon="-118.83956146240234">
<ele>2773</ele>
<time>2016-07-29T02:47:21Z</time>
</trkpt>
<trkpt lat="37.006221771240234" lon="-118.83958435058594">
<ele>2773</ele>
<time>2016-07-29T02:47:29Z</time>
</trkpt>
<trkpt lat="37.00613784790039" lon="-118.83963012695313">
<ele>2777</ele>
<time>2016-07-29T02:47:35Z</time>
</trkpt>
<trkpt lat="37.00603485107422" lon="-118.8396224975586">
<ele>2779</ele>
<time>2016-07-29T02:47:48Z</time>
</trkpt>
<trkpt lat="37.0059814453125" lon="-118.8396224975586">
<ele>2779</ele>
<time>2016-07-29T02:47:55Z</time>
</trkpt>
<trkpt lat="37.00591278076172" lon="-118.83960723876953">
<ele>2778</ele>
<time>2016-07-29T02:48:02Z</time>
</trkpt>
<trkpt lat="37.005863189697266" lon="-118.83959197998047">
<ele>2778</ele>
<time>2016-07-29T02:48:08Z</time>
</trkpt>
<trkpt lat="37.005775451660156" lon="-118.83953857421875">
<ele>2779</ele>
<time>2016-07-29T02:48:18Z</time>
</trkpt>
<trkpt lat="37.00568389892578" lon="-118.83955383300781">
<ele>2778</ele>
<time>2016-07-29T02:48:27Z</time>
</trkpt>
<trkpt lat="37.005584716796875" lon="-118.83953857421875">
<ele>2777</ele>
<time>2016-07-29T02:48:34Z</time>
</trkpt>
<trkpt lat="37.0054931640625" lon="-118.83955383300781">
<ele>2777</ele>
<time>2016-07-29T02:48:46Z</time>
</trkpt>
<trkpt lat="37.00545883178711" lon="-118.839599609375">
<ele>2785</ele>
<time>2016-07-29T02:48:53Z</time>
</trkpt>
<trkpt lat="37.00535583496094" lon="-118.83958435058594">
<ele>2779</ele>
<time>2016-07-29T02:49:02Z</time>
</trkpt>
<trkpt lat="37.00531005859375" lon="-118.83955383300781">
<ele>2781</ele>
<time>2016-07-29T02:49:08Z</time>
</trkpt>
<trkpt lat="37.005218505859375" lon="-118.8395004272461">
<ele>2783</ele>
<time>2016-07-29T02:49:17Z</time>
</trkpt>
<trkpt lat="37.00517272949219" lon="-118.83950805664063">
<ele>2778</ele>
<time>2016-07-29T02:50:02Z</time>
</trkpt>
<trkpt lat="37.00521469116211" lon="-118.83949279785156">
<ele>2780</ele>
<time>2016-07-29T02:51:01Z</time>
</trkpt>
<trkpt lat="37.005149841308594" lon="-118.8394546508789">
<ele>2783</ele>
<time>2016-07-29T02:53:58Z</time>
</trkpt>
<trkpt lat="37.00503158569336" lon="-118.83943939208984">
<ele>2786</ele>
<time>2016-07-29T02:54:07Z</time>
</trkpt>
<trkpt lat="37.004940032958984" lon="-118.83938598632813">
<ele>2783</ele>
<time>2016-07-29T02:54:15Z</time>
</trkpt>
<trkpt lat="37.004844665527344" lon="-118.83938598632813">
<ele>2781</ele>
<time>2016-07-29T02:54:22Z</time>
</trkpt>
<trkpt lat="37.00473403930664" lon="-118.8393783569336">
<ele>2781</ele>
<time>2016-07-29T02:54:31Z</time>
</trkpt>
<trkpt lat="37.004634857177734" lon="-118.83939361572266">
<ele>2783</ele>
<time>2016-07-29T02:54:39Z</time>
</trkpt>
<trkpt lat="37.00458908081055" lon="-118.83940124511719">
<ele>2783</ele>
<time>2016-07-29T02:54:45Z</time>
</trkpt>
<trkpt lat="37.00448226928711" lon="-118.83943176269531">
<ele>2781</ele>
<time>2016-07-29T02:54:52Z</time>
</trkpt>
<trkpt lat="37.0043830871582" lon="-118.83944702148438">
<ele>2781</ele>
<time>2016-07-29T02:55:00Z</time>
</trkpt>
<trkpt lat="37.004249572753906" lon="-118.8394775390625">
<ele>2778</ele>
<time>2016-07-29T02:55:09Z</time>
</trkpt>
<trkpt lat="37.00413513183594" lon="-118.83948516845703">
<ele>2779</ele>
<time>2016-07-29T02:55:15Z</time>
</trkpt>
<trkpt lat="37.004051208496094" lon="-118.8394546508789">
<ele>2776</ele>
<time>2016-07-29T02:55:23Z</time>
</trkpt>
<trkpt lat="37.004005432128906" lon="-118.83944702148438">
<ele>2771</ele>
<time>2016-07-29T02:55:29Z</time>
</trkpt>
<trkpt lat="37.003902435302734" lon="-118.83943939208984">
<ele>2768</ele>
<time>2016-07-29T02:55:36Z</time>
</trkpt>
<trkpt lat="37.0037956237793" lon="-118.83944702148438">
<ele>2771</ele>
<time>2016-07-29T02:55:44Z</time>
</trkpt>
<trkpt lat="37.00367736816406" lon="-118.83943176269531">
<ele>2773</ele>
<time>2016-07-29T02:55:51Z</time>
</trkpt>
<trkpt lat="37.00358200073242" lon="-118.8393783569336">
<ele>2771</ele>
<time>2016-07-29T02:55:58Z</time>
</trkpt>
<trkpt lat="37.003456115722656" lon="-118.83935546875">
<ele>2772</ele>
<time>2016-07-29T02:56:06Z</time>
</trkpt>
<trkpt lat="37.00334548950195" lon="-118.83938598632813">
<ele>2772</ele>
<time>2016-07-29T02:56:14Z</time>
</trkpt>
<trkpt lat="37.003238677978516" lon="-118.83940124511719">
<ele>2774</ele>
<time>2016-07-29T02:56:22Z</time>
</trkpt>
<trkpt lat="37.003135681152344" lon="-118.83944702148438">
<ele>2772</ele>
<time>2016-07-29T02:56:33Z</time>
</trkpt>
<trkpt lat="37.00303649902344" lon="-118.83946990966797">
<ele>2775</ele>
<time>2016-07-29T02:56:41Z</time>
</trkpt>
<trkpt lat="37.002933502197266" lon="-118.8395004272461">
<ele>2771</ele>
<time>2016-07-29T02:56:49Z</time>
</trkpt>
<trkpt lat="37.002830505371094" lon="-118.83948516845703">
<ele>2774</ele>
<time>2016-07-29T02:56:58Z</time>
</trkpt>
<trkpt lat="37.00272750854492" lon="-118.83948516845703">
<ele>2775</ele>
<time>2016-07-29T02:57:08Z</time>
</trkpt>
<trkpt lat="37.002681732177734" lon="-118.83950805664063">
<ele>2772</ele>
<time>2016-07-29T02:57:15Z</time>
</trkpt>
<trkpt lat="37.002586364746094" lon="-118.83953857421875">
<ele>2771</ele>
<time>2016-07-29T02:57:21Z</time>
</trkpt>
<trkpt lat="37.00249481201172" lon="-118.8395004272461">
<ele>2775</ele>
<time>2016-07-29T02:57:30Z</time>
</trkpt>
<trkpt lat="37.00241470336914" lon="-118.83944702148438">
<ele>2771</ele>
<time>2016-07-29T02:57:39Z</time>
</trkpt>
<trkpt lat="37.00231170654297" lon="-118.83942413330078">
<ele>2773</ele>
<time>2016-07-29T02:57:46Z</time>
</trkpt>
<trkpt lat="37.00221252441406" lon="-118.8394546508789">
<ele>2773</ele>
<time>2016-07-29T02:57:52Z</time>
</trkpt>
<trkpt lat="37.002105712890625" lon="-118.83944702148438">
<ele>2772</ele>
<time>2016-07-29T02:57:58Z</time>
</trkpt>
<trkpt lat="37.00197982788086" lon="-118.83944702148438">
<ele>2771</ele>
<time>2016-07-29T02:58:05Z</time>
</trkpt>
<trkpt lat="37.00188064575195" lon="-118.8394546508789">
<ele>2773</ele>
<time>2016-07-29T02:58:12Z</time>
</trkpt>
<trkpt lat="37.00181579589844" lon="-118.83953857421875">
<ele>2769</ele>
<time>2016-07-29T02:58:20Z</time>
</trkpt>
<trkpt lat="37.001708984375" lon="-118.8395767211914">
<ele>2765</ele>
<time>2016-07-29T02:58:28Z</time>
</trkpt>
<trkpt lat="37.0015983581543" lon="-118.83959197998047">
<ele>2764</ele>
<time>2016-07-29T02:58:37Z</time>
</trkpt>
<trkpt lat="37.00149154663086" lon="-118.83961486816406">
<ele>2769</ele>
<time>2016-07-29T02:58:44Z</time>
</trkpt>
<trkpt lat="37.001399993896484" lon="-118.83966064453125">
<ele>2771</ele>
<time>2016-07-29T02:58:54Z</time>
</trkpt>
<trkpt lat="37.001312255859375" lon="-118.83968353271484">
<ele>2769</ele>
<time>2016-07-29T02:59:02Z</time>
</trkpt>
<trkpt lat="37.00123977661133" lon="-118.83977508544922">
<ele>2772</ele>
<time>2016-07-29T02:59:08Z</time>
</trkpt>
<trkpt lat="37.00120162963867" lon="-118.83988952636719">
<ele>2770</ele>
<time>2016-07-29T02:59:15Z</time>
</trkpt>
<trkpt lat="37.001163482666016" lon="-118.84001159667969">
<ele>2767</ele>
<time>2016-07-29T02:59:24Z</time>
</trkpt>
<trkpt lat="37.0010986328125" lon="-118.84010314941406">
<ele>2771</ele>
<time>2016-07-29T02:59:31Z</time>
</trkpt>
<trkpt lat="37.001007080078125" lon="-118.84015655517578">
<ele>2773</ele>
<time>2016-07-29T02:59:39Z</time>
</trkpt>
<trkpt lat="37.00092697143555" lon="-118.84026336669922">
<ele>2775</ele>
<time>2016-07-29T02:59:46Z</time>
</trkpt>
<trkpt lat="37.0008430480957" lon="-118.84032440185547">
<ele>2773</ele>
<time>2016-07-29T02:59:53Z</time>
</trkpt>
<trkpt lat="37.00075149536133" lon="-118.84037017822266">
<ele>2772</ele>
<time>2016-07-29T02:59:59Z</time>
</trkpt>
<trkpt lat="37.00069808959961" lon="-118.8404312133789">
<ele>2773</ele>
<time>2016-07-29T03:00:07Z</time>
</trkpt>
<trkpt lat="37.00061798095703" lon="-118.8404769897461">
<ele>2772</ele>
<time>2016-07-29T03:00:14Z</time>
</trkpt>
<trkpt lat="37.000545501708984" lon="-118.840576171875">
<ele>2773</ele>
<time>2016-07-29T03:00:22Z</time>
</trkpt>
<trkpt lat="37.00046157836914" lon="-118.84066772460938">
<ele>2774</ele>
<time>2016-07-29T03:00:31Z</time>
</trkpt>
<trkpt lat="37.00043869018555" lon="-118.8407974243164">
<ele>2771</ele>
<time>2016-07-29T03:00:39Z</time>
</trkpt>
<trkpt lat="37.00043869018555" lon="-118.84086608886719">
<ele>2766</ele>
<time>2016-07-29T03:01:09Z</time>
</trkpt>
<trkpt lat="37.00045394897461" lon="-118.84099578857422">
<ele>2767</ele>
<time>2016-07-29T03:01:20Z</time>
</trkpt>
<trkpt lat="37.000431060791016" lon="-118.84111785888672">
<ele>2769</ele>
<time>2016-07-29T03:01:27Z</time>
</trkpt>
<trkpt lat="37.00043487548828" lon="-118.84124755859375">
<ele>2768</ele>
<time>2016-07-29T03:01:34Z</time>
</trkpt>
<trkpt lat="37.00037384033203" lon="-118.84133911132813">
<ele>2769</ele>
<time>2016-07-29T03:01:41Z</time>
</trkpt>
<trkpt lat="37.00028991699219" lon="-118.84142303466797">
<ele>2768</ele>
<time>2016-07-29T03:01:49Z</time>
</trkpt>
<trkpt lat="37.00023651123047" lon="-118.84143829345703">
<ele>2771</ele>
<time>2016-07-29T03:01:56Z</time>
</trkpt>
<trkpt lat="37.00019454956055" lon="-118.84146118164063">
<ele>2772</ele>
<time>2016-07-29T03:02:02Z</time>
</trkpt>
<trkpt lat="37.00014877319336" lon="-118.8414535522461">
<ele>2773</ele>
<time>2016-07-29T03:02:08Z</time>
</trkpt>
<trkpt lat="37.000099182128906" lon="-118.8414535522461">
<ele>2773</ele>
<time>2016-07-29T03:02:14Z</time>
</trkpt>
<trkpt lat="37.00005340576172" lon="-118.84146118164063">
<ele>2773</ele>
<time>2016-07-29T03:02:21Z</time>
</trkpt>
<trkpt lat="36.99995422363281" lon="-118.84146881103516">
<ele>2773</ele>
<time>2016-07-29T03:02:30Z</time>
</trkpt>
<trkpt lat="36.99992370605469" lon="-118.84151458740234">
<ele>2772</ele>
<time>2016-07-29T03:02:37Z</time>
</trkpt>
<trkpt lat="36.9998664855957" lon="-118.84161376953125">
<ele>2775</ele>
<time>2016-07-29T03:02:47Z</time>
</trkpt>
<trkpt lat="36.99982452392578" lon="-118.84172058105469">
<ele>2775</ele>
<time>2016-07-29T03:02:58Z</time>
</trkpt>
<trkpt lat="36.99981689453125" lon="-118.84181213378906">
<ele>2776</ele>
<time>2016-07-29T03:03:08Z</time>
</trkpt>
<trkpt lat="36.99979782104492" lon="-118.84187316894531">
<ele>2778</ele>
<time>2016-07-29T03:03:14Z</time>
</trkpt>
<trkpt lat="36.99979782104492" lon="-118.8419418334961">
<ele>2780</ele>
<time>2016-07-29T03:03:20Z</time>
</trkpt>
<trkpt lat="36.99977493286133" lon="-118.84199523925781">
<ele>2784</ele>
<time>2016-07-29T03:03:27Z</time>
</trkpt>
<trkpt lat="36.99972152709961" lon="-118.84199523925781">
<ele>2786</ele>
<time>2016-07-29T03:03:35Z</time>
</trkpt>
<trkpt lat="36.99962615966797" lon="-118.84197235107422">
<ele>2788</ele>
<time>2016-07-29T03:03:45Z</time>
</trkpt>
<trkpt lat="36.99953079223633" lon="-118.84193420410156">
<ele>2790</ele>
<time>2016-07-29T03:03:53Z</time>
</trkpt>
<trkpt lat="36.99944305419922" lon="-118.84194946289063">
<ele>2790</ele>
<time>2016-07-29T03:04:02Z</time>
</trkpt>
<trkpt lat="36.99939727783203" lon="-118.8419418334961">
<ele>2790</ele>
<time>2016-07-29T03:04:15Z</time>
</trkpt>
<trkpt lat="36.99931335449219" lon="-118.84200286865234">
<ele>2793</ele>
<time>2016-07-29T03:04:23Z</time>
</trkpt>
<trkpt lat="36.99925231933594" lon="-118.84211730957031">
<ele>2793</ele>
<time>2016-07-29T03:04:32Z</time>
</trkpt>
<trkpt lat="36.999229431152344" lon="-118.84217834472656">
<ele>2796</ele>
<time>2016-07-29T03:04:38Z</time>
</trkpt>
<trkpt lat="36.99921417236328" lon="-118.84222412109375">
<ele>2797</ele>
<time>2016-07-29T03:04:44Z</time>
</trkpt>
<trkpt lat="36.99917221069336" lon="-118.84234619140625">
<ele>2794</ele>
<time>2016-07-29T03:04:54Z</time>
</trkpt>
<trkpt lat="36.999114990234375" lon="-118.8423843383789">
<ele>2797</ele>
<time>2016-07-29T03:05:02Z</time>
</trkpt>
<trkpt lat="36.99911880493164" lon="-118.84244537353516">
<ele>2795</ele>
<time>2016-07-29T03:05:08Z</time>
</trkpt>
<trkpt lat="36.99909591674805" lon="-118.8425064086914">
<ele>2797</ele>
<time>2016-07-29T03:05:14Z</time>
</trkpt>
<trkpt lat="36.99907302856445" lon="-118.84255981445313">
<ele>2800</ele>
<time>2016-07-29T03:05:20Z</time>
</trkpt>
<trkpt lat="36.999027252197266" lon="-118.84260559082031">
<ele>2802</ele>
<time>2016-07-29T03:05:27Z</time>
</trkpt>
<trkpt lat="36.99895095825195" lon="-118.84268951416016">
<ele>2805</ele>
<time>2016-07-29T03:05:38Z</time>
</trkpt>
<trkpt lat="36.998897552490234" lon="-118.8427963256836">
<ele>2803</ele>
<time>2016-07-29T03:05:47Z</time>
</trkpt>
<trkpt lat="36.99884033203125" lon="-118.8428955078125">
<ele>2805</ele>
<time>2016-07-29T03:06:00Z</time>
</trkpt>
<trkpt lat="36.9987907409668" lon="-118.84294128417969">
<ele>2804</ele>
<time>2016-07-29T03:06:22Z</time>
</trkpt>
<trkpt lat="36.99872589111328" lon="-118.8430404663086">
<ele>2804</ele>
<time>2016-07-29T03:06:30Z</time>
</trkpt>
<trkpt lat="36.99863052368164" lon="-118.84310150146484">
<ele>2809</ele>
<time>2016-07-29T03:06:38Z</time>
</trkpt>
<trkpt lat="36.99858856201172" lon="-118.84320068359375">
<ele>2806</ele>
<time>2016-07-29T03:06:46Z</time>
</trkpt>
<trkpt lat="36.99855422973633" lon="-118.84332275390625">
<ele>2809</ele>
<time>2016-07-29T03:06:55Z</time>
</trkpt>
<trkpt lat="36.99851989746094" lon="-118.84339904785156">
<ele>2810</ele>
<time>2016-07-29T03:07:02Z</time>
</trkpt>
<trkpt lat="36.998451232910156" lon="-118.84351348876953">
<ele>2810</ele>
<time>2016-07-29T03:07:10Z</time>
</trkpt>
<trkpt lat="36.99837875366211" lon="-118.8436050415039">
<ele>2813</ele>
<time>2016-07-29T03:07:19Z</time>
</trkpt>
<trkpt lat="36.9983024597168" lon="-118.84368133544922">
<ele>2813</ele>
<time>2016-07-29T03:07:27Z</time>
</trkpt>
<trkpt lat="36.99826431274414" lon="-118.84371185302734">
<ele>2814</ele>
<time>2016-07-29T03:07:36Z</time>
</trkpt>
<trkpt lat="36.998199462890625" lon="-118.84381103515625">
<ele>2814</ele>
<time>2016-07-29T03:07:44Z</time>
</trkpt>
<trkpt lat="36.99814987182617" lon="-118.84392547607422">
<ele>2814</ele>
<time>2016-07-29T03:07:52Z</time>
</trkpt>
<trkpt lat="36.99808883666992" lon="-118.84400939941406">
<ele>2815</ele>
<time>2016-07-29T03:08:00Z</time>
</trkpt>
<trkpt lat="36.998050689697266" lon="-118.84407806396484">
<ele>2814</ele>
<time>2016-07-29T03:08:07Z</time>
</trkpt>
<trkpt lat="36.99797058105469" lon="-118.84416198730469">
<ele>2815</ele>
<time>2016-07-29T03:08:16Z</time>
</trkpt>
<trkpt lat="36.99789047241211" lon="-118.84423065185547">
<ele>2814</ele>
<time>2016-07-29T03:08:25Z</time>
</trkpt>
<trkpt lat="36.997840881347656" lon="-118.84434509277344">
<ele>2818</ele>
<time>2016-07-29T03:08:34Z</time>
</trkpt>
<trkpt lat="36.99775695800781" lon="-118.84442138671875">
<ele>2815</ele>
<time>2016-07-29T03:08:44Z</time>
</trkpt>
<trkpt lat="36.99771499633789" lon="-118.84453582763672">
<ele>2814</ele>
<time>2016-07-29T03:08:54Z</time>
</trkpt>
<trkpt lat="36.99765396118164" lon="-118.84464263916016">
<ele>2817</ele>
<time>2016-07-29T03:09:02Z</time>
</trkpt>
<trkpt lat="36.99757766723633" lon="-118.8447265625">
<ele>2818</ele>
<time>2016-07-29T03:09:11Z</time>
</trkpt>
<trkpt lat="36.99751281738281" lon="-118.84483337402344">
<ele>2816</ele>
<time>2016-07-29T03:09:19Z</time>
</trkpt>
<trkpt lat="36.99747085571289" lon="-118.8449478149414">
<ele>2814</ele>
<time>2016-07-29T03:09:27Z</time>
</trkpt>
<trkpt lat="36.997398376464844" lon="-118.84505462646484">
<ele>2816</ele>
<time>2016-07-29T03:09:35Z</time>
</trkpt>
<trkpt lat="36.997344970703125" lon="-118.84516143798828">
<ele>2819</ele>
<time>2016-07-29T03:09:43Z</time>
</trkpt>
<trkpt lat="36.997318267822266" lon="-118.84527587890625">
<ele>2819</ele>
<time>2016-07-29T03:09:51Z</time>
</trkpt>
<trkpt lat="36.997310638427734" lon="-118.84534454345703">
<ele>2817</ele>
<time>2016-07-29T03:09:59Z</time>
</trkpt>
<trkpt lat="36.997276306152344" lon="-118.8454360961914">
<ele>2817</ele>
<time>2016-07-29T03:10:05Z</time>
</trkpt>
<trkpt lat="36.997230529785156" lon="-118.84553527832031">
<ele>2819</ele>
<time>2016-07-29T03:10:11Z</time>
</trkpt>
<trkpt lat="36.99717712402344" lon="-118.84564971923828">
<ele>2820</ele>
<time>2016-07-29T03:10:19Z</time>
</trkpt>
<trkpt lat="36.99711990356445" lon="-118.84574890136719">
<ele>2818</ele>
<time>2016-07-29T03:10:30Z</time>
</trkpt>
<trkpt lat="36.99708557128906" lon="-118.84587097167969">
<ele>2816</ele>
<time>2016-07-29T03:10:39Z</time>
</trkpt>
<trkpt lat="36.9970703125" lon="-118.84599304199219">
<ele>2817</ele>
<time>2016-07-29T03:10:46Z</time>
</trkpt>
<trkpt lat="36.99708938598633" lon="-118.84613037109375">
<ele>2816</ele>
<time>2016-07-29T03:10:54Z</time>
</trkpt>
<trkpt lat="36.9970588684082" lon="-118.84626770019531">
<ele>2817</ele>
<time>2016-07-29T03:11:01Z</time>
</trkpt>
<trkpt lat="36.9970703125" lon="-118.84635162353516">
<ele>2816</ele>
<time>2016-07-29T03:11:07Z</time>
</trkpt>
<trkpt lat="36.99715042114258" lon="-118.84642791748047">
<ele>2818</ele>
<time>2016-07-29T03:11:15Z</time>
</trkpt>
<trkpt lat="36.997196197509766" lon="-118.84652709960938">
<ele>2817</ele>
<time>2016-07-29T03:11:23Z</time>
</trkpt>
<trkpt lat="36.997230529785156" lon="-118.84663391113281">
<ele>2816</ele>
<time>2016-07-29T03:11:30Z</time>
</trkpt>
<trkpt lat="36.99728012084961" lon="-118.84674072265625">
<ele>2814</ele>
<time>2016-07-29T03:11:37Z</time>
</trkpt>
<trkpt lat="36.99729537963867" lon="-118.84685516357422">
<ele>2814</ele>
<time>2016-07-29T03:11:52Z</time>
</trkpt>
<trkpt lat="36.997337341308594" lon="-118.84696197509766">
<ele>2814</ele>
<time>2016-07-29T03:11:59Z</time>
</trkpt>
<trkpt lat="36.99738693237305" lon="-118.84706115722656">
<ele>2815</ele>
<time>2016-07-29T03:12:05Z</time>
</trkpt>
<trkpt lat="36.99738311767578" lon="-118.84718322753906">
<ele>2815</ele>
<time>2016-07-29T03:12:12Z</time>
</trkpt>
<trkpt lat="36.99738693237305" lon="-118.8472900390625">
<ele>2820</ele>
<time>2016-07-29T03:12:21Z</time>
</trkpt>
<trkpt lat="36.99744415283203" lon="-118.84740447998047">
<ele>2821</ele>
<time>2016-07-29T03:12:33Z</time>
</trkpt>
<trkpt lat="36.99751281738281" lon="-118.84749603271484">
<ele>2820</ele>
<time>2016-07-29T03:12:41Z</time>
</trkpt>
<trkpt lat="36.99760055541992" lon="-118.84758758544922">
<ele>2818</ele>
<time>2016-07-29T03:12:48Z</time>
</trkpt>
<trkpt lat="36.9976806640625" lon="-118.84765625">
<ele>2815</ele>
<time>2016-07-29T03:12:57Z</time>
</trkpt>
<trkpt lat="36.997764587402344" lon="-118.84768676757813">
<ele>2813</ele>
<time>2016-07-29T03:13:05Z</time>
</trkpt>
<trkpt lat="36.99786376953125" lon="-118.84774017333984">
<ele>2817</ele>
<time>2016-07-29T03:13:12Z</time>
</trkpt>
<trkpt lat="36.99794387817383" lon="-118.84782409667969">
<ele>2817</ele>
<time>2016-07-29T03:13:19Z</time>
</trkpt>
<trkpt lat="36.9980354309082" lon="-118.8478775024414">
<ele>2815</ele>
<time>2016-07-29T03:13:28Z</time>
</trkpt>
<trkpt lat="36.99812316894531" lon="-118.84793853759766">
<ele>2816</ele>
<time>2016-07-29T03:13:36Z</time>
</trkpt>
<trkpt lat="36.99818420410156" lon="-118.84805297851563">
<ele>2817</ele>
<time>2016-07-29T03:13:46Z</time>
</trkpt>
<trkpt lat="36.998268127441406" lon="-118.84812927246094">
<ele>2817</ele>
<time>2016-07-29T03:13:53Z</time>
</trkpt>
<trkpt lat="36.99835205078125" lon="-118.84820556640625">
<ele>2815</ele>
<time>2016-07-29T03:14:01Z</time>
</trkpt>
<trkpt lat="36.99845886230469" lon="-118.8482894897461">
<ele>2815</ele>
<time>2016-07-29T03:14:09Z</time>
</trkpt>
<trkpt lat="36.99852752685547" lon="-118.84838104248047">
<ele>2815</ele>
<time>2016-07-29T03:14:16Z</time>
</trkpt>
<trkpt lat="36.99860763549805" lon="-118.84845733642578">
<ele>2817</ele>
<time>2016-07-29T03:14:24Z</time>
</trkpt>
<trkpt lat="36.9986686706543" lon="-118.84856414794922">
<ele>2825</ele>
<time>2016-07-29T03:14:32Z</time>
</trkpt>
<trkpt lat="36.99870681762695" lon="-118.84859466552734">
<ele>2823</ele>
<time>2016-07-29T03:14:40Z</time>
</trkpt>
<trkpt lat="36.998748779296875" lon="-118.8486328125">
<ele>2822</ele>
<time>2016-07-29T03:14:47Z</time>
</trkpt>
<trkpt lat="36.99884796142578" lon="-118.84866333007813">
<ele>2824</ele>
<time>2016-07-29T03:14:55Z</time>
</trkpt>
<trkpt lat="36.998931884765625" lon="-118.84870910644531">
<ele>2821</ele>
<time>2016-07-29T03:15:02Z</time>
</trkpt>
<trkpt lat="36.99897766113281" lon="-118.84873962402344">
<ele>2818</ele>
<time>2016-07-29T03:15:10Z</time>
</trkpt>
<trkpt lat="36.99907302856445" lon="-118.84879302978516">
<ele>2817</ele>
<time>2016-07-29T03:15:19Z</time>
</trkpt>
<trkpt lat="36.999176025390625" lon="-118.84884643554688">
<ele>2818</ele>
<time>2016-07-29T03:15:26Z</time>
</trkpt>
<trkpt lat="36.999267578125" lon="-118.84890747070313">
<ele>2819</ele>
<time>2016-07-29T03:15:34Z</time>
</trkpt>
<trkpt lat="36.99936294555664" lon="-118.84894561767578">
<ele>2817</ele>
<time>2016-07-29T03:15:42Z</time>
</trkpt>
<trkpt lat="36.99945831298828" lon="-118.84899139404297">
<ele>2817</ele>
<time>2016-07-29T03:15:50Z</time>
</trkpt>
<trkpt lat="36.999542236328125" lon="-118.84904479980469">
<ele>2817</ele>
<time>2016-07-29T03:15:56Z</time>
</trkpt>
<trkpt lat="36.99959945678711" lon="-118.84908294677734">
<ele>2817</ele>
<time>2016-07-29T03:16:02Z</time>
</trkpt>
<trkpt lat="36.99968338012695" lon="-118.84916687011719">
<ele>2821</ele>
<time>2016-07-29T03:16:09Z</time>
</trkpt>
<trkpt lat="36.999778747558594" lon="-118.84923553466797">
<ele>2821</ele>
<time>2016-07-29T03:16:16Z</time>
</trkpt>
<trkpt lat="36.99984359741211" lon="-118.84935760498047">
<ele>2817</ele>
<time>2016-07-29T03:16:24Z</time>
</trkpt>
<trkpt lat="36.99989700317383" lon="-118.8494644165039">
<ele>2822</ele>
<time>2016-07-29T03:16:31Z</time>
</trkpt>
<trkpt lat="36.999935150146484" lon="-118.84957885742188">
<ele>2829</ele>
<time>2016-07-29T03:16:40Z</time>
</trkpt>
<trkpt lat="37.0000114440918" lon="-118.84965515136719">
<ele>2827</ele>
<time>2016-07-29T03:16:50Z</time>
</trkpt>
<trkpt lat="37.00011444091797" lon="-118.84972381591797">
<ele>2826</ele>
<time>2016-07-29T03:16:58Z</time>
</trkpt>
<trkpt lat="37.00019836425781" lon="-118.84976959228516">
<ele>2826</ele>
<time>2016-07-29T03:17:06Z</time>
</trkpt>
<trkpt lat="37.00022888183594" lon="-118.84981536865234">
<ele>2826</ele>
<time>2016-07-29T03:17:12Z</time>
</trkpt>
<trkpt lat="37.00031280517578" lon="-118.84988403320313">
<ele>2825</ele>
<time>2016-07-29T03:17:22Z</time>
</trkpt>
<trkpt lat="37.000404357910156" lon="-118.84993743896484">
<ele>2827</ele>
<time>2016-07-29T03:17:30Z</time>
</trkpt>
<trkpt lat="37.00048065185547" lon="-118.8499984741211">
<ele>2826</ele>
<time>2016-07-29T03:17:38Z</time>
</trkpt>
<trkpt lat="37.00056457519531" lon="-118.85005950927734">
<ele>2828</ele>
<time>2016-07-29T03:17:46Z</time>
</trkpt>
<trkpt lat="37.00065612792969" lon="-118.85011291503906">
<ele>2827</ele>
<time>2016-07-29T03:17:54Z</time>
</trkpt>
<trkpt lat="37.00072479248047" lon="-118.85015106201172">
<ele>2828</ele>
<time>2016-07-29T03:18:02Z</time>
</trkpt>
<trkpt lat="37.00080108642578" lon="-118.8502197265625">
<ele>2830</ele>
<time>2016-07-29T03:18:09Z</time>
</trkpt>
<trkpt lat="37.00086975097656" lon="-118.85030364990234">
<ele>2831</ele>
<time>2016-07-29T03:18:18Z</time>
</trkpt>
<trkpt lat="37.00094223022461" lon="-118.85039520263672">
<ele>2831</ele>
<time>2016-07-29T03:18:26Z</time>
</trkpt>
<trkpt lat="37.00102233886719" lon="-118.85047149658203">
<ele>2831</ele>
<time>2016-07-29T03:18:34Z</time>
</trkpt>
<trkpt lat="37.001102447509766" lon="-118.85057067871094">
<ele>2834</ele>
<time>2016-07-29T03:18:42Z</time>
</trkpt>
<trkpt lat="37.00118637084961" lon="-118.85064697265625">
<ele>2829</ele>
<time>2016-07-29T03:18:50Z</time>
</trkpt>
<trkpt lat="37.00127410888672" lon="-118.8507080078125">
<ele>2827</ele>
<time>2016-07-29T03:18:58Z</time>
</trkpt>
<trkpt lat="37.00136184692383" lon="-118.85077667236328">
<ele>2829</ele>
<time>2016-07-29T03:19:06Z</time>
</trkpt>
<trkpt lat="37.00143051147461" lon="-118.85086059570313">
<ele>2831</ele>
<time>2016-07-29T03:19:14Z</time>
</trkpt>
<trkpt lat="37.00152587890625" lon="-118.8509292602539">
<ele>2829</ele>
<time>2016-07-29T03:19:23Z</time>
</trkpt>
<trkpt lat="37.001617431640625" lon="-118.85098266601563">
<ele>2829</ele>
<time>2016-07-29T03:19:31Z</time>
</trkpt>
<trkpt lat="37.0017204284668" lon="-118.85104370117188">
<ele>2829</ele>
<time>2016-07-29T03:19:39Z</time>
</trkpt>
<trkpt lat="37.0018196105957" lon="-118.85110473632813">
<ele>2828</ele>
<time>2016-07-29T03:19:47Z</time>
</trkpt>
<trkpt lat="37.00188446044922" lon="-118.8512191772461">
<ele>2831</ele>
<time>2016-07-29T03:19:56Z</time>
</trkpt>
<trkpt lat="37.00193786621094" lon="-118.8512954711914">
<ele>2828</ele>
<time>2016-07-29T03:20:02Z</time>
</trkpt>
<trkpt lat="37.00203323364258" lon="-118.8513412475586">
<ele>2827</ele>
<time>2016-07-29T03:20:10Z</time>
</trkpt>
<trkpt lat="37.00211715698242" lon="-118.85140228271484">
<ele>2830</ele>
<time>2016-07-29T03:20:18Z</time>
</trkpt>
<trkpt lat="37.00220489501953" lon="-118.85147094726563">
<ele>2828</ele>
<time>2016-07-29T03:20:26Z</time>
</trkpt>
<trkpt lat="37.00229263305664" lon="-118.8515396118164">
<ele>2830</ele>
<time>2016-07-29T03:20:35Z</time>
</trkpt>
<trkpt lat="37.00239562988281" lon="-118.8515625">
<ele>2832</ele>
<time>2016-07-29T03:20:44Z</time>
</trkpt>
<trkpt lat="37.002479553222656" lon="-118.85161590576172">
<ele>2836</ele>
<time>2016-07-29T03:20:54Z</time>
</trkpt>
<trkpt lat="37.002567291259766" lon="-118.8516845703125">
<ele>2833</ele>
<time>2016-07-29T03:21:02Z</time>
</trkpt>
<trkpt lat="37.002662658691406" lon="-118.85174560546875">
<ele>2831</ele>
<time>2016-07-29T03:21:09Z</time>
</trkpt>
<trkpt lat="37.00275802612305" lon="-118.85182189941406">
<ele>2831</ele>
<time>2016-07-29T03:21:17Z</time>
</trkpt>
<trkpt lat="37.00284194946289" lon="-118.85189056396484">
<ele>2830</ele>
<time>2016-07-29T03:21:24Z</time>
</trkpt>
<trkpt lat="37.00291061401367" lon="-118.85198211669922">
<ele>2834</ele>
<time>2016-07-29T03:21:34Z</time>
</trkpt>
<trkpt lat="37.00293731689453" lon="-118.85203552246094">
<ele>2834</ele>
<time>2016-07-29T03:21:40Z</time>
</trkpt>
<trkpt lat="37.002960205078125" lon="-118.8521499633789">
<ele>2834</ele>
<time>2016-07-29T03:21:48Z</time>
</trkpt>
<trkpt lat="37.002986907958984" lon="-118.85227966308594">
<ele>2836</ele>
<time>2016-07-29T03:21:55Z</time>
</trkpt>
<trkpt lat="37.00300216674805" lon="-118.85238647460938">
<ele>2839</ele>
<time>2016-07-29T03:22:02Z</time>
</trkpt>
<trkpt lat="37.003013610839844" lon="-118.85252380371094">
<ele>2837</ele>
<time>2016-07-29T03:22:11Z</time>
</trkpt>
<trkpt lat="37.00303649902344" lon="-118.85264587402344">
<ele>2838</ele>
<time>2016-07-29T03:22:21Z</time>
</trkpt>
<trkpt lat="37.00307083129883" lon="-118.8527603149414">
<ele>2839</ele>
<time>2016-07-29T03:22:28Z</time>
</trkpt>
<trkpt lat="37.00312423706055" lon="-118.85286712646484">
<ele>2842</ele>
<time>2016-07-29T03:22:36Z</time>
</trkpt>
<trkpt lat="37.003170013427734" lon="-118.85298919677734">
<ele>2840</ele>
<time>2016-07-29T03:22:46Z</time>
</trkpt>
<trkpt lat="37.003204345703125" lon="-118.85310363769531">
<ele>2840</ele>
<time>2016-07-29T03:22:56Z</time>
</trkpt>
<trkpt lat="37.00325012207031" lon="-118.85316467285156">
<ele>2841</ele>
<time>2016-07-29T03:23:02Z</time>
</trkpt>
<trkpt lat="37.003299713134766" lon="-118.853271484375">
<ele>2844</ele>
<time>2016-07-29T03:23:11Z</time>
</trkpt>
<trkpt lat="37.00334548950195" lon="-118.8533935546875">
<ele>2841</ele>
<time>2016-07-29T03:23:20Z</time>
</trkpt>
<trkpt lat="37.00338363647461" lon="-118.8534927368164">
<ele>2837</ele>
<time>2016-07-29T03:23:29Z</time>
</trkpt>
<trkpt lat="37.003414154052734" lon="-118.85360717773438">
<ele>2839</ele>
<time>2016-07-29T03:23:39Z</time>
</trkpt>
<trkpt lat="37.003456115722656" lon="-118.85371398925781">
<ele>2841</ele>
<time>2016-07-29T03:23:48Z</time>
</trkpt>
<trkpt lat="37.003536224365234" lon="-118.85376739501953">
<ele>2846</ele>
<time>2016-07-29T03:23:56Z</time>
</trkpt>
<trkpt lat="37.00360107421875" lon="-118.85382080078125">
<ele>2846</ele>
<time>2016-07-29T03:24:02Z</time>
</trkpt>
<trkpt lat="37.00367736816406" lon="-118.85391235351563">
<ele>2843</ele>
<time>2016-07-29T03:24:12Z</time>
</trkpt>
<trkpt lat="37.003787994384766" lon="-118.85395050048828">
<ele>2842</ele>
<time>2016-07-29T03:24:20Z</time>
</trkpt>
<trkpt lat="37.00383377075195" lon="-118.85397338867188">
<ele>2842</ele>
<time>2016-07-29T03:24:31Z</time>
</trkpt>
<trkpt lat="37.00393295288086" lon="-118.8539810180664">
<ele>2846</ele>
<time>2016-07-29T03:24:39Z</time>
</trkpt>
<trkpt lat="37.0040283203125" lon="-118.8540267944336">
<ele>2846</ele>
<time>2016-07-29T03:24:46Z</time>
</trkpt>
<trkpt lat="37.00411605834961" lon="-118.85407257080078">
<ele>2851</ele>
<time>2016-07-29T03:24:56Z</time>
</trkpt>
<trkpt lat="37.00419998168945" lon="-118.85411834716797">
<ele>2850</ele>
<time>2016-07-29T03:25:02Z</time>
</trkpt>
<trkpt lat="37.00429153442383" lon="-118.85419464111328">
<ele>2851</ele>
<time>2016-07-29T03:25:09Z</time>
</trkpt>
<trkpt lat="37.00438690185547" lon="-118.85425567626953">
<ele>2852</ele>
<time>2016-07-29T03:25:16Z</time>
</trkpt>
<trkpt lat="37.004478454589844" lon="-118.85433197021484">
<ele>2854</ele>
<time>2016-07-29T03:25:27Z</time>
</trkpt>
<trkpt lat="37.0045166015625" lon="-118.85445404052734">
<ele>2854</ele>
<time>2016-07-29T03:25:38Z</time>
</trkpt>
<trkpt lat="37.00453186035156" lon="-118.8545150756836">
<ele>2856</ele>
<time>2016-07-29T03:25:44Z</time>
</trkpt>
<trkpt lat="37.004608154296875" lon="-118.85458374023438">
<ele>2857</ele>
<time>2016-07-29T03:25:54Z</time>
</trkpt>
<trkpt lat="37.004669189453125" lon="-118.85462188720703">
<ele>2860</ele>
<time>2016-07-29T03:26:02Z</time>
</trkpt>
<trkpt lat="37.00471115112305" lon="-118.85465240478516">
<ele>2862</ele>
<time>2016-07-29T03:26:09Z</time>
</trkpt>
<trkpt lat="37.004737854003906" lon="-118.85477447509766">
<ele>2859</ele>
<time>2016-07-29T03:26:23Z</time>
</trkpt>
<trkpt lat="37.00475311279297" lon="-118.85482788085938">
<ele>2860</ele>
<time>2016-07-29T03:26:29Z</time>
</trkpt>
<trkpt lat="37.004783630371094" lon="-118.85487365722656">
<ele>2862</ele>
<time>2016-07-29T03:26:35Z</time>
</trkpt>
<trkpt lat="37.004798889160156" lon="-118.85492706298828">
<ele>2863</ele>
<time>2016-07-29T03:26:43Z</time>
</trkpt>
<trkpt lat="37.004844665527344" lon="-118.85492706298828">
<ele>2866</ele>
<time>2016-07-29T03:26:49Z</time>
</trkpt>
<trkpt lat="37.004886627197266" lon="-118.85494995117188">
<ele>2864</ele>
<time>2016-07-29T03:26:55Z</time>
</trkpt>
<trkpt lat="37.00495147705078" lon="-118.85501861572266">
<ele>2864</ele>
<time>2016-07-29T03:27:02Z</time>
</trkpt>
<trkpt lat="37.00498962402344" lon="-118.85506439208984">
<ele>2861</ele>
<time>2016-07-29T03:27:09Z</time>
</trkpt>
<trkpt lat="37.00502014160156" lon="-118.85511779785156">
<ele>2866</ele>
<time>2016-07-29T03:27:24Z</time>
</trkpt>
<trkpt lat="37.0051155090332" lon="-118.85519409179688">
<ele>2866</ele>
<time>2016-07-29T03:27:32Z</time>
</trkpt>
<trkpt lat="37.005184173583984" lon="-118.85528564453125">
<ele>2865</ele>
<time>2016-07-29T03:27:41Z</time>
</trkpt>
<trkpt lat="37.00526428222656" lon="-118.8553466796875">
<ele>2868</ele>
<time>2016-07-29T03:27:52Z</time>
</trkpt>
<trkpt lat="37.005306243896484" lon="-118.85539245605469">
<ele>2875</ele>
<time>2016-07-29T03:27:58Z</time>
</trkpt>
<trkpt lat="37.005348205566406" lon="-118.85546875">
<ele>2875</ele>
<time>2016-07-29T03:28:08Z</time>
</trkpt>
<trkpt lat="37.005374908447266" lon="-118.85551452636719">
<ele>2878</ele>
<time>2016-07-29T03:28:15Z</time>
</trkpt>
<trkpt lat="37.005393981933594" lon="-118.85558319091797">
<ele>2881</ele>
<time>2016-07-29T03:28:22Z</time>
</trkpt>
<trkpt lat="37.00543975830078" lon="-118.85569763183594">
<ele>2880</ele>
<time>2016-07-29T03:28:32Z</time>
</trkpt>
<trkpt lat="37.00547409057617" lon="-118.8557357788086">
<ele>2878</ele>
<time>2016-07-29T03:28:39Z</time>
</trkpt>
<trkpt lat="37.00551986694336" lon="-118.8558349609375">
<ele>2879</ele>
<time>2016-07-29T03:28:49Z</time>
</trkpt>
<trkpt lat="37.005550384521484" lon="-118.85588836669922">
<ele>2882</ele>
<time>2016-07-29T03:28:55Z</time>
</trkpt>
<trkpt lat="37.00556182861328" lon="-118.85594940185547">
<ele>2885</ele>
<time>2016-07-29T03:29:01Z</time>
</trkpt>
<trkpt lat="37.005592346191406" lon="-118.85600280761719">
<ele>2887</ele>
<time>2016-07-29T03:29:10Z</time>
</trkpt>
<trkpt lat="37.00562286376953" lon="-118.8560562133789">
<ele>2887</ele>
<time>2016-07-29T03:29:18Z</time>
</trkpt>
<trkpt lat="37.005680084228516" lon="-118.85615539550781">
<ele>2883</ele>
<time>2016-07-29T03:29:29Z</time>
</trkpt>
<trkpt lat="37.00577926635742" lon="-118.85618591308594">
<ele>2888</ele>
<time>2016-07-29T03:29:37Z</time>
</trkpt>
<trkpt lat="37.00587463378906" lon="-118.85625457763672">
<ele>2890</ele>
<time>2016-07-29T03:29:47Z</time>
</trkpt>
<trkpt lat="37.00596237182617" lon="-118.85633087158203">
<ele>2884</ele>
<time>2016-07-29T03:29:55Z</time>
</trkpt>
<trkpt lat="37.00598907470703" lon="-118.85640716552734">
<ele>2885</ele>
<time>2016-07-29T03:30:02Z</time>
</trkpt>
<trkpt lat="37.006019592285156" lon="-118.85645294189453">
<ele>2886</ele>
<time>2016-07-29T03:30:08Z</time>
</trkpt>
<trkpt lat="37.00605392456055" lon="-118.85650634765625">
<ele>2887</ele>
<time>2016-07-29T03:30:14Z</time>
</trkpt>
<trkpt lat="37.00611877441406" lon="-118.85660552978516">
<ele>2888</ele>
<time>2016-07-29T03:30:23Z</time>
</trkpt>
<trkpt lat="37.006141662597656" lon="-118.85671997070313">
<ele>2892</ele>
<time>2016-07-29T03:30:34Z</time>
</trkpt>
<trkpt lat="37.00621795654297" lon="-118.8568115234375">
<ele>2894</ele>
<time>2016-07-29T03:30:44Z</time>
</trkpt>
<trkpt lat="37.00628662109375" lon="-118.85691833496094">
<ele>2895</ele>
<time>2016-07-29T03:30:53Z</time>
</trkpt>
<trkpt lat="37.00636672973633" lon="-118.85701751708984">
<ele>2893</ele>
<time>2016-07-29T03:31:01Z</time>
</trkpt>
<trkpt lat="37.00642395019531" lon="-118.85700988769531">
<ele>2892</ele>
<time>2016-07-29T03:31:08Z</time>
</trkpt>
<trkpt lat="37.00651931762695" lon="-118.85700988769531">
<ele>2893</ele>
<time>2016-07-29T03:31:15Z</time>
</trkpt>
<trkpt lat="37.00663757324219" lon="-118.8570556640625">
<ele>2895</ele>
<time>2016-07-29T03:31:21Z</time>
</trkpt>
<trkpt lat="37.00672912597656" lon="-118.85710906982422">
<ele>2890</ele>
<time>2016-07-29T03:31:28Z</time>
</trkpt>
<trkpt lat="37.00676345825195" lon="-118.8571548461914">
<ele>2890</ele>
<time>2016-07-29T03:31:35Z</time>
</trkpt>
<trkpt lat="37.006874084472656" lon="-118.85718536376953">
<ele>2892</ele>
<time>2016-07-29T03:31:42Z</time>
</trkpt>
<trkpt lat="37.0069694519043" lon="-118.85722351074219">
<ele>2889</ele>
<time>2016-07-29T03:31:52Z</time>
</trkpt>
<trkpt lat="37.007080078125" lon="-118.85723876953125">
<ele>2892</ele>
<time>2016-07-29T03:32:00Z</time>
</trkpt>
<trkpt lat="37.00715637207031" lon="-118.85725402832031">
<ele>2891</ele>
<time>2016-07-29T03:32:07Z</time>
</trkpt>
<trkpt lat="37.00725173950195" lon="-118.85728454589844">
<ele>2889</ele>
<time>2016-07-29T03:32:15Z</time>
</trkpt>
<trkpt lat="37.00735092163086" lon="-118.85730743408203">
<ele>2892</ele>
<time>2016-07-29T03:32:22Z</time>
</trkpt>
<trkpt lat="37.00746154785156" lon="-118.8572769165039">
<ele>2895</ele>
<time>2016-07-29T03:32:28Z</time>
</trkpt>
<trkpt lat="37.00755310058594" lon="-118.85731506347656">
<ele>2897</ele>
<time>2016-07-29T03:32:37Z</time>
</trkpt>
<trkpt lat="37.007572174072266" lon="-118.85736846923828">
<ele>2896</ele>
<time>2016-07-29T03:32:44Z</time>
</trkpt>
<trkpt lat="37.007659912109375" lon="-118.85743713378906">
<ele>2890</ele>
<time>2016-07-29T03:32:55Z</time>
</trkpt>
<trkpt lat="37.00770568847656" lon="-118.8574447631836">
<ele>2891</ele>
<time>2016-07-29T03:33:01Z</time>
</trkpt>
<trkpt lat="37.007755279541016" lon="-118.85748291015625">
<ele>2893</ele>
<time>2016-07-29T03:33:07Z</time>
</trkpt>
<trkpt lat="37.007789611816406" lon="-118.85752868652344">
<ele>2895</ele>
<time>2016-07-29T03:33:13Z</time>
</trkpt>
<trkpt lat="37.0078239440918" lon="-118.85757446289063">
<ele>2895</ele>
<time>2016-07-29T03:33:19Z</time>
</trkpt>
<trkpt lat="37.00787353515625" lon="-118.85768127441406">
<ele>2895</ele>
<time>2016-07-29T03:33:30Z</time>
</trkpt>
<trkpt lat="37.00788497924805" lon="-118.85774230957031">
<ele>2897</ele>
<time>2016-07-29T03:33:37Z</time>
</trkpt>
<trkpt lat="37.00790023803711" lon="-118.85784149169922">
<ele>2902</ele>
<time>2016-07-29T03:33:51Z</time>
</trkpt>
<trkpt lat="37.0079460144043" lon="-118.85787963867188">
<ele>2908</ele>
<time>2016-07-29T03:33:59Z</time>
</trkpt>
<trkpt lat="37.00798416137695" lon="-118.85794830322266">
<ele>2905</ele>
<time>2016-07-29T03:34:07Z</time>
</trkpt>
<trkpt lat="37.00807571411133" lon="-118.85801696777344">
<ele>2909</ele>
<time>2016-07-29T03:34:16Z</time>
</trkpt>
<trkpt lat="37.00811004638672" lon="-118.85806274414063">
<ele>2908</ele>
<time>2016-07-29T03:34:22Z</time>
</trkpt>
<trkpt lat="37.00813674926758" lon="-118.85816955566406">
<ele>2908</ele>
<time>2016-07-29T03:34:33Z</time>
</trkpt>
<trkpt lat="37.0081672668457" lon="-118.85829162597656">
<ele>2910</ele>
<time>2016-07-29T03:34:41Z</time>
</trkpt>
<trkpt lat="37.008201599121094" lon="-118.85833740234375">
<ele>2912</ele>
<time>2016-07-29T03:34:47Z</time>
</trkpt>
<trkpt lat="37.00819778442383" lon="-118.85845947265625">
<ele>2914</ele>
<time>2016-07-29T03:34:57Z</time>
</trkpt>
<trkpt lat="37.00823974609375" lon="-118.85856628417969">
<ele>2914</ele>
<time>2016-07-29T03:35:09Z</time>
</trkpt>
<trkpt lat="37.00824737548828" lon="-118.85863494873047">
<ele>2917</ele>
<time>2016-07-29T03:35:15Z</time>
</trkpt>
<trkpt lat="37.0082893371582" lon="-118.85873413085938">
<ele>2919</ele>
<time>2016-07-29T03:35:23Z</time>
</trkpt>
<trkpt lat="37.00829315185547" lon="-118.85879516601563">
<ele>2917</ele>
<time>2016-07-29T03:35:29Z</time>
</trkpt>
<trkpt lat="37.00832748413086" lon="-118.8589096069336">
<ele>2912</ele>
<time>2016-07-29T03:35:38Z</time>
</trkpt>
<trkpt lat="37.00835037231445" lon="-118.85903930664063">
<ele>2912</ele>
<time>2016-07-29T03:35:46Z</time>
</trkpt>
<trkpt lat="37.00837326049805" lon="-118.85916137695313">
<ele>2912</ele>
<time>2016-07-29T03:35:54Z</time>
</trkpt>
<trkpt lat="37.008426666259766" lon="-118.85928344726563">
<ele>2911</ele>
<time>2016-07-29T03:36:02Z</time>
</trkpt>
<trkpt lat="37.00844955444336" lon="-118.8593521118164">
<ele>2909</ele>
<time>2016-07-29T03:36:08Z</time>
</trkpt>
<trkpt lat="37.008487701416016" lon="-118.8594741821289">
<ele>2913</ele>
<time>2016-07-29T03:36:17Z</time>
</trkpt>
<trkpt lat="37.00849151611328" lon="-118.85960388183594">
<ele>2912</ele>
<time>2016-07-29T03:36:25Z</time>
</trkpt>
<trkpt lat="37.008544921875" lon="-118.85973358154297">
<ele>2915</ele>
<time>2016-07-29T03:36:35Z</time>
</trkpt>
<trkpt lat="37.008541107177734" lon="-118.85987091064453">
<ele>2917</ele>
<time>2016-07-29T03:36:43Z</time>
</trkpt>
<trkpt lat="37.008567810058594" lon="-118.8599853515625">
<ele>2921</ele>
<time>2016-07-29T03:36:52Z</time>
</trkpt>
<trkpt lat="37.00856018066406" lon="-118.86007690429688">
<ele>2920</ele>
<time>2016-07-29T03:37:11Z</time>
</trkpt>
<trkpt lat="37.00860595703125" lon="-118.86019134521484">
<ele>2913</ele>
<time>2016-07-29T03:37:22Z</time>
</trkpt>
<trkpt lat="37.00859069824219" lon="-118.86026000976563">
<ele>2916</ele>
<time>2016-07-29T03:38:03Z</time>
</trkpt>
<trkpt lat="37.008636474609375" lon="-118.86030578613281">
<ele>2913</ele>
<time>2016-07-29T03:39:09Z</time>
</trkpt>
<trkpt lat="37.00869369506836" lon="-118.86039733886719">
<ele>2910</ele>
<time>2016-07-29T03:39:18Z</time>
</trkpt>
<trkpt lat="37.00871658325195" lon="-118.86045837402344">
<ele>2911</ele>
<time>2016-07-29T03:39:24Z</time>
</trkpt>
<trkpt lat="37.00871658325195" lon="-118.86051940917969">
<ele>2908</ele>
<time>2016-07-29T03:39:34Z</time>
</trkpt>
<trkpt lat="37.00873947143555" lon="-118.86056518554688">
<ele>2906</ele>
<time>2016-07-29T03:39:43Z</time>
</trkpt>
<trkpt lat="37.0087776184082" lon="-118.86067199707031">
<ele>2905</ele>
<time>2016-07-29T03:39:52Z</time>
</trkpt>
<trkpt lat="37.00883483886719" lon="-118.86077117919922">
<ele>2901</ele>
<time>2016-07-29T03:40:00Z</time>
</trkpt>
<trkpt lat="37.00884246826172" lon="-118.86084747314453">
<ele>2901</ele>
<time>2016-07-29T03:40:07Z</time>
</trkpt>
<trkpt lat="37.00883483886719" lon="-118.86093139648438">
<ele>2901</ele>
<time>2016-07-29T03:40:18Z</time>
</trkpt>
<trkpt lat="37.00886535644531" lon="-118.8609848022461">
<ele>2897</ele>
<time>2016-07-29T03:40:25Z</time>
</trkpt>
<trkpt lat="37.00891876220703" lon="-118.8611068725586">
<ele>2892</ele>
<time>2016-07-29T03:40:34Z</time>
</trkpt>
<trkpt lat="37.009002685546875" lon="-118.86117553710938">
<ele>2889</ele>
<time>2016-07-29T03:40:41Z</time>
</trkpt>
<trkpt lat="37.009002685546875" lon="-118.86129760742188">
<ele>2886</ele>
<time>2016-07-29T03:40:49Z</time>
</trkpt>
<trkpt lat="37.00898742675781" lon="-118.86135864257813">
<ele>2886</ele>
<time>2016-07-29T03:40:55Z</time>
</trkpt>
<trkpt lat="37.00899124145508" lon="-118.8614501953125">
<ele>2883</ele>
<time>2016-07-29T03:41:03Z</time>
</trkpt>
<trkpt lat="37.009002685546875" lon="-118.86151123046875">
<ele>2880</ele>
<time>2016-07-29T03:41:10Z</time>
</trkpt>
<trkpt lat="37.00893783569336" lon="-118.86157989501953">
<ele>2880</ele>
<time>2016-07-29T03:41:18Z</time>
</trkpt>
<trkpt lat="37.00885772705078" lon="-118.86161804199219">
<ele>2878</ele>
<time>2016-07-29T03:41:27Z</time>
</trkpt>
<trkpt lat="37.00885772705078" lon="-118.8617172241211">
<ele>2874</ele>
<time>2016-07-29T03:41:36Z</time>
</trkpt>
<trkpt lat="37.00883865356445" lon="-118.86177062988281">
<ele>2873</ele>
<time>2016-07-29T03:41:49Z</time>
</trkpt>
<trkpt lat="37.00883865356445" lon="-118.86190795898438">
<ele>2874</ele>
<time>2016-07-29T03:41:56Z</time>
</trkpt>
<trkpt lat="37.00886154174805" lon="-118.86200714111328">
<ele>2871</ele>
<time>2016-07-29T03:42:02Z</time>
</trkpt>
<trkpt lat="37.008888244628906" lon="-118.86205291748047">
<ele>2869</ele>
<time>2016-07-29T03:42:08Z</time>
</trkpt>
<trkpt lat="37.00887680053711" lon="-118.86211395263672">
<ele>2870</ele>
<time>2016-07-29T03:42:14Z</time>
</trkpt>
<trkpt lat="37.008888244628906" lon="-118.86223602294922">
<ele>2867</ele>
<time>2016-07-29T03:42:23Z</time>
</trkpt>
<trkpt lat="37.008872985839844" lon="-118.86238098144531">
<ele>2868</ele>
<time>2016-07-29T03:42:32Z</time>
</trkpt>
<trkpt lat="37.00889205932617" lon="-118.86251831054688">
<ele>2867</ele>
<time>2016-07-29T03:42:41Z</time>
</trkpt>
<trkpt lat="37.008888244628906" lon="-118.8625717163086">
<ele>2867</ele>
<time>2016-07-29T03:42:47Z</time>
</trkpt>
<trkpt lat="37.00883102416992" lon="-118.8626708984375">
<ele>2868</ele>
<time>2016-07-29T03:42:56Z</time>
</trkpt>
<trkpt lat="37.008853912353516" lon="-118.86277770996094">
<ele>2866</ele>
<time>2016-07-29T03:43:02Z</time>
</trkpt>
<trkpt lat="37.00883102416992" lon="-118.8628921508789">
<ele>2862</ele>
<time>2016-07-29T03:43:14Z</time>
</trkpt>
<trkpt lat="37.008785247802734" lon="-118.86299896240234">
<ele>2860</ele>
<time>2016-07-29T03:43:29Z</time>
</trkpt>
<trkpt lat="37.00880432128906" lon="-118.8630599975586">
<ele>2857</ele>
<time>2016-07-29T03:43:35Z</time>
</trkpt>
<trkpt lat="37.008827209472656" lon="-118.8631591796875">
<ele>2852</ele>
<time>2016-07-29T03:43:44Z</time>
</trkpt>
<trkpt lat="37.00885772705078" lon="-118.8632583618164">
<ele>2848</ele>
<time>2016-07-29T03:43:53Z</time>
</trkpt>
<trkpt lat="37.00880813598633" lon="-118.86337280273438">
<ele>2850</ele>
<time>2016-07-29T03:44:02Z</time>
</trkpt>
<trkpt lat="37.0088005065918" lon="-118.86349487304688">
<ele>2850</ele>
<time>2016-07-29T03:44:11Z</time>
</trkpt>
<trkpt lat="37.008766174316406" lon="-118.86360931396484">
<ele>2851</ele>
<time>2016-07-29T03:44:18Z</time>
</trkpt>
<trkpt lat="37.00870132446289" lon="-118.86370086669922">
<ele>2850</ele>
<time>2016-07-29T03:44:26Z</time>
</trkpt>
<trkpt lat="37.00870132446289" lon="-118.86382293701172">
<ele>2850</ele>
<time>2016-07-29T03:44:34Z</time>
</trkpt>
<trkpt lat="37.008663177490234" lon="-118.86393737792969">
<ele>2849</ele>
<time>2016-07-29T03:44:43Z</time>
</trkpt>
<trkpt lat="37.008628845214844" lon="-118.86404418945313">
<ele>2850</ele>
<time>2016-07-29T03:44:51Z</time>
</trkpt>
<trkpt lat="37.0085563659668" lon="-118.86412811279297">
<ele>2849</ele>
<time>2016-07-29T03:44:59Z</time>
</trkpt>
<trkpt lat="37.00851821899414" lon="-118.8642349243164">
<ele>2851</ele>
<time>2016-07-29T03:45:07Z</time>
</trkpt>
<trkpt lat="37.00855255126953" lon="-118.8643569946289">
<ele>2845</ele>
<time>2016-07-29T03:45:16Z</time>
</trkpt>
<trkpt lat="37.008506774902344" lon="-118.86447143554688">
<ele>2842</ele>
<time>2016-07-29T03:45:24Z</time>
</trkpt>
<trkpt lat="37.0084114074707" lon="-118.8645248413086">
<ele>2846</ele>
<time>2016-07-29T03:45:32Z</time>
</trkpt>
<trkpt lat="37.00836181640625" lon="-118.86454772949219">
<ele>2845</ele>
<time>2016-07-29T03:45:38Z</time>
</trkpt>
<trkpt lat="37.008277893066406" lon="-118.8646469116211">
<ele>2844</ele>
<time>2016-07-29T03:45:47Z</time>
</trkpt>
<trkpt lat="37.008182525634766" lon="-118.86470031738281">
<ele>2844</ele>
<time>2016-07-29T03:45:54Z</time>
</trkpt>
<trkpt lat="37.008113861083984" lon="-118.86479187011719">
<ele>2847</ele>
<time>2016-07-29T03:46:02Z</time>
</trkpt>
<trkpt lat="37.00807189941406" lon="-118.86492919921875">
<ele>2847</ele>
<time>2016-07-29T03:46:10Z</time>
</trkpt>
<trkpt lat="37.00806427001953" lon="-118.86504364013672">
<ele>2843</ele>
<time>2016-07-29T03:46:18Z</time>
</trkpt>
<trkpt lat="37.00807189941406" lon="-118.86518096923828">
<ele>2843</ele>
<time>2016-07-29T03:46:26Z</time>
</trkpt>
<trkpt lat="37.0080680847168" lon="-118.86524963378906">
<ele>2844</ele>
<time>2016-07-29T03:46:41Z</time>
</trkpt>
<trkpt lat="37.00809097290039" lon="-118.8653793334961">
<ele>2841</ele>
<time>2016-07-29T03:46:48Z</time>
</trkpt>
<trkpt lat="37.008155822753906" lon="-118.86548614501953">
<ele>2842</ele>
<time>2016-07-29T03:46:56Z</time>
</trkpt>
<trkpt lat="37.00815200805664" lon="-118.86560821533203">
<ele>2841</ele>
<time>2016-07-29T03:47:03Z</time>
</trkpt>
<trkpt lat="37.0080680847168" lon="-118.86569213867188">
<ele>2830</ele>
<time>2016-07-29T03:47:14Z</time>
</trkpt>
<trkpt lat="37.00799560546875" lon="-118.86576843261719">
<ele>2834</ele>
<time>2016-07-29T03:47:21Z</time>
</trkpt>
<trkpt lat="37.007896423339844" lon="-118.86581420898438">
<ele>2835</ele>
<time>2016-07-29T03:47:29Z</time>
</trkpt>
<trkpt lat="37.00785827636719" lon="-118.8658447265625">
<ele>2835</ele>
<time>2016-07-29T03:47:35Z</time>
</trkpt>
<trkpt lat="37.00775146484375" lon="-118.86590576171875">
<ele>2834</ele>
<time>2016-07-29T03:47:43Z</time>
</trkpt>
<trkpt lat="37.00766372680664" lon="-118.86598205566406">
<ele>2832</ele>
<time>2016-07-29T03:47:50Z</time>
</trkpt>
<trkpt lat="37.00760269165039" lon="-118.86607360839844">
<ele>2834</ele>
<time>2016-07-29T03:47:56Z</time>
</trkpt>
<trkpt lat="37.00755310058594" lon="-118.86618041992188">
<ele>2833</ele>
<time>2016-07-29T03:48:03Z</time>
</trkpt>
<trkpt lat="37.007564544677734" lon="-118.86629486083984">
<ele>2832</ele>
<time>2016-07-29T03:48:13Z</time>
</trkpt>
<trkpt lat="37.007530212402344" lon="-118.86642456054688">
<ele>2836</ele>
<time>2016-07-29T03:48:21Z</time>
</trkpt>
<trkpt lat="37.0074577331543" lon="-118.86651611328125">
<ele>2834</ele>
<time>2016-07-29T03:48:28Z</time>
</trkpt>
<trkpt lat="37.00736618041992" lon="-118.86656951904297">
<ele>2832</ele>
<time>2016-07-29T03:48:36Z</time>
</trkpt>
<trkpt lat="37.007286071777344" lon="-118.86665344238281">
<ele>2831</ele>
<time>2016-07-29T03:48:42Z</time>
</trkpt>
<trkpt lat="37.00720977783203" lon="-118.86671447753906">
<ele>2830</ele>
<time>2016-07-29T03:48:50Z</time>
</trkpt>
<trkpt lat="37.00712203979492" lon="-118.86676025390625">
<ele>2830</ele>
<time>2016-07-29T03:48:57Z</time>
</trkpt>
<trkpt lat="37.007049560546875" lon="-118.86679077148438">
<ele>2827</ele>
<time>2016-07-29T03:49:03Z</time>
</trkpt>
<trkpt lat="37.006961822509766" lon="-118.8668212890625">
<ele>2829</ele>
<time>2016-07-29T03:50:01Z</time>
</trkpt>
<trkpt lat="37.00691604614258" lon="-118.86688995361328">
<ele>2832</ele>
<time>2016-07-29T03:50:08Z</time>
</trkpt>
<trkpt lat="37.00687026977539" lon="-118.86698913574219">
<ele>2831</ele>
<time>2016-07-29T03:50:14Z</time>
</trkpt>
<trkpt lat="37.00681686401367" lon="-118.8670883178711">
<ele>2833</ele>
<time>2016-07-29T03:50:21Z</time>
</trkpt>
<trkpt lat="37.00674819946289" lon="-118.86717987060547">
<ele>2834</ele>
<time>2016-07-29T03:50:29Z</time>
</trkpt>
<trkpt lat="37.00663757324219" lon="-118.8671646118164">
<ele>2834</ele>
<time>2016-07-29T03:50:36Z</time>
</trkpt>
<trkpt lat="37.006534576416016" lon="-118.86715698242188">
<ele>2830</ele>
<time>2016-07-29T03:50:44Z</time>
</trkpt>
<trkpt lat="37.00645065307617" lon="-118.86723327636719">
<ele>2827</ele>
<time>2016-07-29T03:50:52Z</time>
</trkpt>
<trkpt lat="37.006370544433594" lon="-118.86732482910156">
<ele>2826</ele>
<time>2016-07-29T03:51:01Z</time>
</trkpt>
<trkpt lat="37.006324768066406" lon="-118.86739349365234">
<ele>2828</ele>
<time>2016-07-29T03:51:07Z</time>
</trkpt>
<trkpt lat="37.0062370300293" lon="-118.86743927001953">
<ele>2828</ele>
<time>2016-07-29T03:51:14Z</time>
</trkpt>
<trkpt lat="37.00615310668945" lon="-118.8675308227539">
<ele>2827</ele>
<time>2016-07-29T03:51:20Z</time>
</trkpt>
<trkpt lat="37.006080627441406" lon="-118.86763000488281">
<ele>2825</ele>
<time>2016-07-29T03:51:27Z</time>
</trkpt>
<trkpt lat="37.00600814819336" lon="-118.86771392822266">
<ele>2826</ele>
<time>2016-07-29T03:51:34Z</time>
</trkpt>
<trkpt lat="37.005950927734375" lon="-118.86778259277344">
<ele>2825</ele>
<time>2016-07-29T03:51:43Z</time>
</trkpt>
<trkpt lat="37.005882263183594" lon="-118.86788940429688">
<ele>2824</ele>
<time>2016-07-29T03:51:51Z</time>
</trkpt>
<trkpt lat="37.00580978393555" lon="-118.86797332763672">
<ele>2824</ele>
<time>2016-07-29T03:51:58Z</time>
</trkpt>
<trkpt lat="37.005775451660156" lon="-118.86810302734375">
<ele>2821</ele>
<time>2016-07-29T03:52:07Z</time>
</trkpt>
<trkpt lat="37.005760192871094" lon="-118.86822509765625">
<ele>2820</ele>
<time>2016-07-29T03:52:16Z</time>
</trkpt>
<trkpt lat="37.00566864013672" lon="-118.86827087402344">
<ele>2819</ele>
<time>2016-07-29T03:52:24Z</time>
</trkpt>
<trkpt lat="37.005619049072266" lon="-118.86839294433594">
<ele>2820</ele>
<time>2016-07-29T03:52:36Z</time>
</trkpt>
<trkpt lat="37.00556182861328" lon="-118.86849975585938">
<ele>2821</ele>
<time>2016-07-29T03:52:44Z</time>
</trkpt>
<trkpt lat="37.0054817199707" lon="-118.86858367919922">
<ele>2822</ele>
<time>2016-07-29T03:52:52Z</time>
</trkpt>
<trkpt lat="37.00537872314453" lon="-118.86861419677734">
<ele>2822</ele>
<time>2016-07-29T03:53:00Z</time>
</trkpt>
<trkpt lat="37.00529098510742" lon="-118.8686294555664">
<ele>2817</ele>
<time>2016-07-29T03:53:08Z</time>
</trkpt>
<trkpt lat="37.0052604675293" lon="-118.86875915527344">
<ele>2817</ele>
<time>2016-07-29T03:53:18Z</time>
</trkpt>
<trkpt lat="37.005184173583984" lon="-118.86885070800781">
<ele>2819</ele>
<time>2016-07-29T03:53:26Z</time>
</trkpt>
<trkpt lat="37.005126953125" lon="-118.86894226074219">
<ele>2820</ele>
<time>2016-07-29T03:53:34Z</time>
</trkpt>
<trkpt lat="37.00509262084961" lon="-118.86906433105469">
<ele>2819</ele>
<time>2016-07-29T03:53:44Z</time>
</trkpt>
<trkpt lat="37.0051383972168" lon="-118.86917114257813">
<ele>2813</ele>
<time>2016-07-29T03:53:54Z</time>
</trkpt>
<trkpt lat="37.00518035888672" lon="-118.8692855834961">
<ele>2811</ele>
<time>2016-07-29T03:54:03Z</time>
</trkpt>
<trkpt lat="37.00519561767578" lon="-118.86934661865234">
<ele>2810</ele>
<time>2016-07-29T03:54:11Z</time>
</trkpt>
<trkpt lat="37.005210876464844" lon="-118.86946105957031">
<ele>2806</ele>
<time>2016-07-29T03:54:23Z</time>
</trkpt>
<trkpt lat="37.00518798828125" lon="-118.86958312988281">
<ele>2805</ele>
<time>2016-07-29T03:54:32Z</time>
</trkpt>
<trkpt lat="37.00516891479492" lon="-118.86970520019531">
<ele>2802</ele>
<time>2016-07-29T03:54:38Z</time>
</trkpt>
<trkpt lat="37.005191802978516" lon="-118.86981964111328">
<ele>2800</ele>
<time>2016-07-29T03:54:47Z</time>
</trkpt>
<trkpt lat="37.005210876464844" lon="-118.86993408203125">
<ele>2800</ele>
<time>2016-07-29T03:54:56Z</time>
</trkpt>
<trkpt lat="37.0051383972168" lon="-118.8700180053711">
<ele>2803</ele>
<time>2016-07-29T03:55:02Z</time>
</trkpt>
<trkpt lat="37.00507736206055" lon="-118.8701400756836">
<ele>2800</ele>
<time>2016-07-29T03:55:12Z</time>
</trkpt>
<trkpt lat="37.00505447387695" lon="-118.87026977539063">
<ele>2799</ele>
<time>2016-07-29T03:55:21Z</time>
</trkpt>
<trkpt lat="37.005069732666016" lon="-118.87032318115234">
<ele>2795</ele>
<time>2016-07-29T03:55:33Z</time>
</trkpt>
<trkpt lat="37.00505447387695" lon="-118.87037658691406">
<ele>2794</ele>
<time>2016-07-29T03:55:42Z</time>
</trkpt>
<trkpt lat="37.00505828857422" lon="-118.87043762207031">
<ele>2796</ele>
<time>2016-07-29T03:55:51Z</time>
</trkpt>
<trkpt lat="37.00506591796875" lon="-118.87055969238281">
<ele>2794</ele>
<time>2016-07-29T03:55:59Z</time>
</trkpt>
<trkpt lat="37.00510787963867" lon="-118.87069702148438">
<ele>2796</ele>
<time>2016-07-29T03:56:06Z</time>
</trkpt>
<trkpt lat="37.00507354736328" lon="-118.8708267211914">
<ele>2798</ele>
<time>2016-07-29T03:56:13Z</time>
</trkpt>
<trkpt lat="37.005043029785156" lon="-118.87093353271484">
<ele>2798</ele>
<time>2016-07-29T03:56:20Z</time>
</trkpt>
<trkpt lat="37.005027770996094" lon="-118.87104797363281">
<ele>2787</ele>
<time>2016-07-29T03:56:30Z</time>
</trkpt>
<trkpt lat="37.0050048828125" lon="-118.87116241455078">
<ele>2784</ele>
<time>2016-07-29T03:56:40Z</time>
</trkpt>
<trkpt lat="37.004974365234375" lon="-118.87127685546875">
<ele>2783</ele>
<time>2016-07-29T03:56:47Z</time>
</trkpt>
<trkpt lat="37.00495910644531" lon="-118.87139892578125">
<ele>2784</ele>
<time>2016-07-29T03:56:55Z</time>
</trkpt>
<trkpt lat="37.00493240356445" lon="-118.87152862548828">
<ele>2782</ele>
<time>2016-07-29T03:57:03Z</time>
</trkpt>
<trkpt lat="37.00492477416992" lon="-118.87166595458984">
<ele>2783</ele>
<time>2016-07-29T03:57:11Z</time>
</trkpt>
<trkpt lat="37.00493621826172" lon="-118.87178802490234">
<ele>2784</ele>
<time>2016-07-29T03:57:20Z</time>
</trkpt>
<trkpt lat="37.00492477416992" lon="-118.87191009521484">
<ele>2783</ele>
<time>2016-07-29T03:57:26Z</time>
</trkpt>
<trkpt lat="37.00490951538086" lon="-118.87197875976563">
<ele>2785</ele>
<time>2016-07-29T03:57:32Z</time>
</trkpt>
<trkpt lat="37.00486755371094" lon="-118.87210083007813">
<ele>2784</ele>
<time>2016-07-29T03:57:40Z</time>
</trkpt>
<trkpt lat="37.00482177734375" lon="-118.87222290039063">
<ele>2785</ele>
<time>2016-07-29T03:57:46Z</time>
</trkpt>
<trkpt lat="37.00477981567383" lon="-118.87234497070313">
<ele>2782</ele>
<time>2016-07-29T03:57:53Z</time>
</trkpt>
<trkpt lat="37.00471496582031" lon="-118.8724365234375">
<ele>2779</ele>
<time>2016-07-29T03:57:59Z</time>
</trkpt>
<trkpt lat="37.00465393066406" lon="-118.8725357055664">
<ele>2778</ele>
<time>2016-07-29T03:58:06Z</time>
</trkpt>
<trkpt lat="37.004608154296875" lon="-118.87265014648438">
<ele>2778</ele>
<time>2016-07-29T03:58:13Z</time>
</trkpt>
<trkpt lat="37.00456237792969" lon="-118.87277221679688">
<ele>2776</ele>
<time>2016-07-29T03:58:22Z</time>
</trkpt>
<trkpt lat="37.0045051574707" lon="-118.87287902832031">
<ele>2774</ele>
<time>2016-07-29T03:58:30Z</time>
</trkpt>
<trkpt lat="37.004451751708984" lon="-118.87299346923828">
<ele>2775</ele>
<time>2016-07-29T03:58:38Z</time>
</trkpt>
<trkpt lat="37.00443649291992" lon="-118.87310791015625">
<ele>2772</ele>
<time>2016-07-29T03:58:47Z</time>
</trkpt>
<trkpt lat="37.004390716552734" lon="-118.87322235107422">
<ele>2776</ele>
<time>2016-07-29T03:58:56Z</time>
</trkpt>
<trkpt lat="37.004329681396484" lon="-118.87330627441406">
<ele>2775</ele>
<time>2016-07-29T03:59:03Z</time>
</trkpt>
<trkpt lat="37.0042839050293" lon="-118.87342834472656">
<ele>2774</ele>
<time>2016-07-29T03:59:12Z</time>
</trkpt>
<trkpt lat="37.00423812866211" lon="-118.87355041503906">
<ele>2772</ele>
<time>2016-07-29T03:59:20Z</time>
</trkpt>
<trkpt lat="37.0041618347168" lon="-118.87364959716797">
<ele>2772</ele>
<time>2016-07-29T03:59:30Z</time>
</trkpt>
<trkpt lat="37.004154205322266" lon="-118.873779296875">
<ele>2769</ele>
<time>2016-07-29T03:59:37Z</time>
</trkpt>
<trkpt lat="37.00417709350586" lon="-118.8739013671875">
<ele>2768</ele>
<time>2016-07-29T03:59:43Z</time>
</trkpt>
<trkpt lat="37.00419235229492" lon="-118.87403106689453">
<ele>2769</ele>
<time>2016-07-29T03:59:50Z</time>
</trkpt>
<trkpt lat="37.00419235229492" lon="-118.87416076660156">
<ele>2771</ele>
<time>2016-07-29T03:59:57Z</time>
</trkpt>
<trkpt lat="37.00419998168945" lon="-118.874267578125">
<ele>2771</ele>
<time>2016-07-29T04:00:03Z</time>
</trkpt>
<trkpt lat="37.004241943359375" lon="-118.87437438964844">
<ele>2770</ele>
<time>2016-07-29T04:00:13Z</time>
</trkpt>
<trkpt lat="37.0042839050293" lon="-118.87450408935547">
<ele>2767</ele>
<time>2016-07-29T04:00:22Z</time>
</trkpt>
<trkpt lat="37.00430679321289" lon="-118.87461853027344">
<ele>2762</ele>
<time>2016-07-29T04:00:29Z</time>
</trkpt>
<trkpt lat="37.004364013671875" lon="-118.87472534179688">
<ele>2755</ele>
<time>2016-07-29T04:00:35Z</time>
</trkpt>
<trkpt lat="37.004417419433594" lon="-118.87483978271484">
<ele>2754</ele>
<time>2016-07-29T04:00:42Z</time>
</trkpt>
<trkpt lat="37.00442886352539" lon="-118.87496185302734">
<ele>2756</ele>
<time>2016-07-29T04:00:51Z</time>
</trkpt>
<trkpt lat="37.00446319580078" lon="-118.8750991821289">
<ele>2758</ele>
<time>2016-07-29T04:00:59Z</time>
</trkpt>
<trkpt lat="37.00450897216797" lon="-118.87522888183594">
<ele>2757</ele>
<time>2016-07-29T04:01:07Z</time>
</trkpt>
<trkpt lat="37.00453567504883" lon="-118.8753662109375">
<ele>2756</ele>
<time>2016-07-29T04:01:14Z</time>
</trkpt>
<trkpt lat="37.004581451416016" lon="-118.87549591064453">
<ele>2759</ele>
<time>2016-07-29T04:01:22Z</time>
</trkpt>
<trkpt lat="37.00462341308594" lon="-118.87561798095703">
<ele>2756</ele>
<time>2016-07-29T04:01:30Z</time>
</trkpt>
<trkpt lat="37.004669189453125" lon="-118.875732421875">
<ele>2756</ele>
<time>2016-07-29T04:01:37Z</time>
</trkpt>
<trkpt lat="37.00465774536133" lon="-118.8758773803711">
<ele>2760</ele>
<time>2016-07-29T04:01:43Z</time>
</trkpt>
<trkpt lat="37.00464630126953" lon="-118.87600708007813">
<ele>2760</ele>
<time>2016-07-29T04:01:51Z</time>
</trkpt>
<trkpt lat="37.00465393066406" lon="-118.87612915039063">
<ele>2758</ele>
<time>2016-07-29T04:01:58Z</time>
</trkpt>
<trkpt lat="37.00469207763672" lon="-118.87627410888672">
<ele>2759</ele>
<time>2016-07-29T04:02:06Z</time>
</trkpt>
<trkpt lat="37.004722595214844" lon="-118.87639617919922">
<ele>2758</ele>
<time>2016-07-29T04:02:13Z</time>
</trkpt>
<trkpt lat="37.004730224609375" lon="-118.87645721435547">
<ele>2757</ele>
<time>2016-07-29T04:02:19Z</time>
</trkpt>
<trkpt lat="37.00475311279297" lon="-118.87659454345703">
<ele>2758</ele>
<time>2016-07-29T04:02:27Z</time>
</trkpt>
<trkpt lat="37.0047721862793" lon="-118.876708984375">
<ele>2760</ele>
<time>2016-07-29T04:02:34Z</time>
</trkpt>
<trkpt lat="37.004756927490234" lon="-118.87683868408203">
<ele>2761</ele>
<time>2016-07-29T04:02:41Z</time>
</trkpt>
<trkpt lat="37.00477981567383" lon="-118.8769760131836">
<ele>2761</ele>
<time>2016-07-29T04:02:50Z</time>
</trkpt>
<trkpt lat="37.004817962646484" lon="-118.8770980834961">
<ele>2756</ele>
<time>2016-07-29T04:02:58Z</time>
</trkpt>
<trkpt lat="37.004852294921875" lon="-118.87724304199219">
<ele>2748</ele>
<time>2016-07-29T04:03:08Z</time>
</trkpt>
<trkpt lat="37.00483322143555" lon="-118.87734985351563">
<ele>2752</ele>
<time>2016-07-29T04:03:17Z</time>
</trkpt>
<trkpt lat="37.00483703613281" lon="-118.87748718261719">
<ele>2752</ele>
<time>2016-07-29T04:03:25Z</time>
</trkpt>
<trkpt lat="37.00483703613281" lon="-118.87761688232422">
<ele>2751</ele>
<time>2016-07-29T04:03:34Z</time>
</trkpt>
<trkpt lat="37.004852294921875" lon="-118.87773132324219">
<ele>2754</ele>
<time>2016-07-29T04:03:45Z</time>
</trkpt>
<trkpt lat="37.00487518310547" lon="-118.87786102294922">
<ele>2754</ele>
<time>2016-07-29T04:03:53Z</time>
</trkpt>
<trkpt lat="37.00484848022461" lon="-118.87798309326172">
<ele>2760</ele>
<time>2016-07-29T04:04:00Z</time>
</trkpt>
<trkpt lat="37.004817962646484" lon="-118.87811279296875">
<ele>2759</ele>
<time>2016-07-29T04:04:06Z</time>
</trkpt>
<trkpt lat="37.00480651855469" lon="-118.87823486328125">
<ele>2757</ele>
<time>2016-07-29T04:04:13Z</time>
</trkpt>
<trkpt lat="37.00477981567383" lon="-118.87835693359375">
<ele>2755</ele>
<time>2016-07-29T04:04:20Z</time>
</trkpt>
<trkpt lat="37.00476837158203" lon="-118.87841796875">
<ele>2754</ele>
<time>2016-07-29T04:04:26Z</time>
</trkpt>
<trkpt lat="37.004791259765625" lon="-118.87853240966797">
<ele>2747</ele>
<time>2016-07-29T04:04:36Z</time>
</trkpt>
<trkpt lat="37.00474166870117" lon="-118.87863159179688">
<ele>2745</ele>
<time>2016-07-29T04:04:49Z</time>
</trkpt>
<trkpt lat="37.00469207763672" lon="-118.87865447998047">
<ele>2749</ele>
<time>2016-07-29T04:04:55Z</time>
</trkpt>
<trkpt lat="37.00461196899414" lon="-118.87867736816406">
<ele>2747</ele>
<time>2016-07-29T04:05:03Z</time>
</trkpt>
<trkpt lat="37.004573822021484" lon="-118.87872314453125">
<ele>2744</ele>
<time>2016-07-29T04:05:09Z</time>
</trkpt>
<trkpt lat="37.004493713378906" lon="-118.8788070678711">
<ele>2747</ele>
<time>2016-07-29T04:05:17Z</time>
</trkpt>
<trkpt lat="37.00444030761719" lon="-118.87891387939453">
<ele>2746</ele>
<time>2016-07-29T04:05:25Z</time>
</trkpt>
<trkpt lat="37.004417419433594" lon="-118.87904357910156">
<ele>2740</ele>
<time>2016-07-29T04:05:34Z</time>
</trkpt>
<trkpt lat="37.00440979003906" lon="-118.87910461425781">
<ele>2737</ele>
<time>2016-07-29T04:05:41Z</time>
</trkpt>
<trkpt lat="37.00444412231445" lon="-118.87915802001953">
<ele>2732</ele>
<time>2016-07-29T04:05:47Z</time>
</trkpt>
<trkpt lat="37.00450897216797" lon="-118.8792724609375">
<ele>2729</ele>
<time>2016-07-29T04:05:55Z</time>
</trkpt>
<trkpt lat="37.00453567504883" lon="-118.87937927246094">
<ele>2731</ele>
<time>2016-07-29T04:06:01Z</time>
</trkpt>
<trkpt lat="37.00455856323242" lon="-118.87946319580078">
<ele>2728</ele>
<time>2016-07-29T04:06:08Z</time>
</trkpt>
<trkpt lat="37.00450134277344" lon="-118.87956237792969">
<ele>2731</ele>
<time>2016-07-29T04:06:15Z</time>
</trkpt>
<trkpt lat="37.00444793701172" lon="-118.8796615600586">
<ele>2730</ele>
<time>2016-07-29T04:06:23Z</time>
</trkpt>
<trkpt lat="37.004398345947266" lon="-118.8797836303711">
<ele>2731</ele>
<time>2016-07-29T04:06:30Z</time>
</trkpt>
<trkpt lat="37.004364013671875" lon="-118.87989807128906">
<ele>2729</ele>
<time>2016-07-29T04:06:40Z</time>
</trkpt>
<trkpt lat="37.00441360473633" lon="-118.88001251220703">
<ele>2726</ele>
<time>2016-07-29T04:06:48Z</time>
</trkpt>
<trkpt lat="37.00442886352539" lon="-118.88014221191406">
<ele>2728</ele>
<time>2016-07-29T04:06:55Z</time>
</trkpt>
<trkpt lat="37.0044059753418" lon="-118.8802719116211">
<ele>2729</ele>
<time>2016-07-29T04:07:01Z</time>
</trkpt>
<trkpt lat="37.004390716552734" lon="-118.88037872314453">
<ele>2724</ele>
<time>2016-07-29T04:07:08Z</time>
</trkpt>
<trkpt lat="37.00442123413086" lon="-118.8804931640625">
<ele>2723</ele>
<time>2016-07-29T04:07:18Z</time>
</trkpt>
<trkpt lat="37.00448226928711" lon="-118.88059997558594">
<ele>2719</ele>
<time>2016-07-29T04:07:27Z</time>
</trkpt>
<trkpt lat="37.004451751708984" lon="-118.88072204589844">
<ele>2720</ele>
<time>2016-07-29T04:07:35Z</time>
</trkpt>
<trkpt lat="37.004486083984375" lon="-118.88085174560547">
<ele>2715</ele>
<time>2016-07-29T04:07:43Z</time>
</trkpt>
<trkpt lat="37.00454330444336" lon="-118.88097381591797">
<ele>2716</ele>
<time>2016-07-29T04:07:51Z</time>
</trkpt>
<trkpt lat="37.004600524902344" lon="-118.8810806274414">
<ele>2714</ele>
<time>2016-07-29T04:08:00Z</time>
</trkpt>
<trkpt lat="37.00464630126953" lon="-118.88114929199219">
<ele>2715</ele>
<time>2016-07-29T04:08:07Z</time>
</trkpt>
<trkpt lat="37.004730224609375" lon="-118.8812026977539">
<ele>2715</ele>
<time>2016-07-29T04:08:15Z</time>
</trkpt>
<trkpt lat="37.00482177734375" lon="-118.8812255859375">
<ele>2715</ele>
<time>2016-07-29T04:08:24Z</time>
</trkpt>
<trkpt lat="37.004913330078125" lon="-118.88126373291016">
<ele>2712</ele>
<time>2016-07-29T04:08:33Z</time>
</trkpt>
<trkpt lat="37.0050048828125" lon="-118.88128662109375">
<ele>2713</ele>
<time>2016-07-29T04:08:41Z</time>
</trkpt>
<trkpt lat="37.005096435546875" lon="-118.8813247680664">
<ele>2716</ele>
<time>2016-07-29T04:08:51Z</time>
</trkpt>
<trkpt lat="37.00514221191406" lon="-118.88133239746094">
<ele>2719</ele>
<time>2016-07-29T04:08:57Z</time>
</trkpt>
<trkpt lat="37.00520706176758" lon="-118.88134002685547">
<ele>2722</ele>
<time>2016-07-29T04:09:10Z</time>
</trkpt>
<trkpt lat="37.005306243896484" lon="-118.88133239746094">
<ele>2717</ele>
<time>2016-07-29T04:09:20Z</time>
</trkpt>
<trkpt lat="37.00540542602539" lon="-118.8813247680664">
<ele>2718</ele>
<time>2016-07-29T04:09:28Z</time>
</trkpt>
<trkpt lat="37.0055046081543" lon="-118.88130187988281">
<ele>2717</ele>
<time>2016-07-29T04:09:37Z</time>
</trkpt>
<trkpt lat="37.00555419921875" lon="-118.88131713867188">
<ele>2719</ele>
<time>2016-07-29T04:09:43Z</time>
</trkpt>
<trkpt lat="37.00564193725586" lon="-118.88136291503906">
<ele>2721</ele>
<time>2016-07-29T04:09:55Z</time>
</trkpt>
<trkpt lat="37.005733489990234" lon="-118.88135528564453">
<ele>2720</ele>
<time>2016-07-29T04:10:03Z</time>
</trkpt>
<trkpt lat="37.005821228027344" lon="-118.8813247680664">
<ele>2719</ele>
<time>2016-07-29T04:10:11Z</time>
</trkpt>
<trkpt lat="37.0058708190918" lon="-118.8813247680664">
<ele>2721</ele>
<time>2016-07-29T04:10:21Z</time>
</trkpt>
<trkpt lat="37.00592041015625" lon="-118.88134765625">
<ele>2720</ele>
<time>2016-07-29T04:10:27Z</time>
</trkpt>
<trkpt lat="37.006019592285156" lon="-118.88138580322266">
<ele>2721</ele>
<time>2016-07-29T04:10:35Z</time>
</trkpt>
<trkpt lat="37.0060920715332" lon="-118.8814468383789">
<ele>2721</ele>
<time>2016-07-29T04:10:43Z</time>
</trkpt>
<trkpt lat="37.00619125366211" lon="-118.88146209716797">
<ele>2715</ele>
<time>2016-07-29T04:10:53Z</time>
</trkpt>
<trkpt lat="37.0062370300293" lon="-118.88157653808594">
<ele>2715</ele>
<time>2016-07-29T04:11:01Z</time>
</trkpt>
<trkpt lat="37.00627899169922" lon="-118.88166046142578">
<ele>2714</ele>
<time>2016-07-29T04:11:08Z</time>
</trkpt>
<trkpt lat="37.00630187988281" lon="-118.8817138671875">
<ele>2715</ele>
<time>2016-07-29T04:11:15Z</time>
</trkpt>
<trkpt lat="37.00628662109375" lon="-118.8818588256836">
<ele>2718</ele>
<time>2016-07-29T04:11:23Z</time>
</trkpt>
<trkpt lat="37.00632858276367" lon="-118.88198852539063">
<ele>2716</ele>
<time>2016-07-29T04:11:32Z</time>
</trkpt>
<trkpt lat="37.00634002685547" lon="-118.88211822509766">
<ele>2717</ele>
<time>2016-07-29T04:11:40Z</time>
</trkpt>
<trkpt lat="37.00636672973633" lon="-118.88223266601563">
<ele>2714</ele>
<time>2016-07-29T04:11:51Z</time>
</trkpt>
<trkpt lat="37.0063591003418" lon="-118.88236999511719">
<ele>2714</ele>
<time>2016-07-29T04:11:59Z</time>
</trkpt>
<trkpt lat="37.006370544433594" lon="-118.88250732421875">
<ele>2715</ele>
<time>2016-07-29T04:12:06Z</time>
</trkpt>
<trkpt lat="37.00638198852539" lon="-118.88264465332031">
<ele>2714</ele>
<time>2016-07-29T04:12:12Z</time>
</trkpt>
<trkpt lat="37.006378173828125" lon="-118.88276672363281">
<ele>2718</ele>
<time>2016-07-29T04:12:18Z</time>
</trkpt>
<trkpt lat="37.00633239746094" lon="-118.88290405273438">
<ele>2713</ele>
<time>2016-07-29T04:12:26Z</time>
</trkpt>
<trkpt lat="37.00630569458008" lon="-118.88302612304688">
<ele>2709</ele>
<time>2016-07-29T04:12:32Z</time>
</trkpt>
<trkpt lat="37.00628662109375" lon="-118.88316345214844">
<ele>2709</ele>
<time>2016-07-29T04:12:41Z</time>
</trkpt>
<trkpt lat="37.006282806396484" lon="-118.88329315185547">
<ele>2711</ele>
<time>2016-07-29T04:12:47Z</time>
</trkpt>
<trkpt lat="37.006309509277344" lon="-118.88343811035156">
<ele>2711</ele>
<time>2016-07-29T04:12:53Z</time>
</trkpt>
<trkpt lat="37.00625228881836" lon="-118.88356018066406">
<ele>2712</ele>
<time>2016-07-29T04:13:00Z</time>
</trkpt>
<trkpt lat="37.00617980957031" lon="-118.88362121582031">
<ele>2714</ele>
<time>2016-07-29T04:13:06Z</time>
</trkpt>
<trkpt lat="37.00607681274414" lon="-118.8836441040039">
<ele>2714</ele>
<time>2016-07-29T04:13:14Z</time>
</trkpt>
<trkpt lat="37.00600051879883" lon="-118.88372802734375">
<ele>2714</ele>
<time>2016-07-29T04:13:23Z</time>
</trkpt>
<trkpt lat="37.00543212890625" lon="-118.88677978515625">
<ele>2708</ele>
<time>2016-07-29T04:17:02Z</time>
</trkpt>
<trkpt lat="37.005348205566406" lon="-118.89044952392578">
<ele>2691</ele>
<time>2016-07-29T04:21:58Z</time>
</trkpt>
</trkseg>
</trk>
<trk>
<name><![CDATA[07282122]]></name>
<number>11</number>
<extensions><topografix:color>ff000066</topografix:color></extensions>
<trkseg>
<trkpt lat="37.00537109375" lon="-118.89075469970703">
<ele>2695</ele>
<time>2016-07-29T04:22:21Z</time>
</trkpt>
<trkpt lat="37.00538635253906" lon="-118.89080810546875">
<ele>2694</ele>
<time>2016-07-29T04:22:28Z</time>
</trkpt>
<trkpt lat="37.00539779663086" lon="-118.89087677001953">
<ele>2695</ele>
<time>2016-07-29T04:22:34Z</time>
</trkpt>
<trkpt lat="37.00539779663086" lon="-118.89100646972656">
<ele>2692</ele>
<time>2016-07-29T04:22:44Z</time>
</trkpt>
<trkpt lat="37.005401611328125" lon="-118.8911361694336">
<ele>2689</ele>
<time>2016-07-29T04:22:55Z</time>
</trkpt>
<trkpt lat="37.00547409057617" lon="-118.8912124633789">
<ele>2686</ele>
<time>2016-07-29T04:23:04Z</time>
</trkpt>
<trkpt lat="37.00550842285156" lon="-118.89132690429688">
<ele>2684</ele>
<time>2016-07-29T04:23:14Z</time>
</trkpt>
<trkpt lat="37.00553512573242" lon="-118.8913803100586">
<ele>2681</ele>
<time>2016-07-29T04:23:21Z</time>
</trkpt>
<trkpt lat="37.0055046081543" lon="-118.89151000976563">
<ele>2684</ele>
<time>2016-07-29T04:23:29Z</time>
</trkpt>
<trkpt lat="37.005496978759766" lon="-118.89163208007813">
<ele>2688</ele>
<time>2016-07-29T04:23:38Z</time>
</trkpt>
<trkpt lat="37.00553512573242" lon="-118.8917465209961">
<ele>2684</ele>
<time>2016-07-29T04:23:48Z</time>
</trkpt>
<trkpt lat="37.00555419921875" lon="-118.89179992675781">
<ele>2682</ele>
<time>2016-07-29T04:23:54Z</time>
</trkpt>
<trkpt lat="37.00552749633789" lon="-118.89191436767578">
<ele>2683</ele>
<time>2016-07-29T04:24:04Z</time>
</trkpt>
<trkpt lat="37.00556564331055" lon="-118.89196014404297">
<ele>2688</ele>
<time>2016-07-29T04:24:18Z</time>
</trkpt>
<trkpt lat="37.00560760498047" lon="-118.89195251464844">
<ele>2693</ele>
<time>2016-07-29T04:24:43Z</time>
</trkpt>
<trkpt lat="37.00559616088867" lon="-118.89201354980469">
<ele>2690</ele>
<time>2016-07-29T04:25:44Z</time>
</trkpt>
<trkpt lat="37.00558090209961" lon="-118.89207458496094">
<ele>2694</ele>
<time>2016-07-29T04:25:50Z</time>
</trkpt>
<trkpt lat="37.00557327270508" lon="-118.89219665527344">
<ele>2686</ele>
<time>2016-07-29T04:25:59Z</time>
</trkpt>
<trkpt lat="37.00553894042969" lon="-118.89230346679688">
<ele>2685</ele>
<time>2016-07-29T04:26:07Z</time>
</trkpt>
<trkpt lat="37.00551986694336" lon="-118.89242553710938">
<ele>2677</ele>
<time>2016-07-29T04:26:15Z</time>
</trkpt>
<trkpt lat="37.005523681640625" lon="-118.89257049560547">
<ele>2676</ele>
<time>2016-07-29T04:26:21Z</time>
</trkpt>
<trkpt lat="37.005558013916016" lon="-118.89276123046875">
<ele>2675</ele>
<time>2016-07-29T04:26:29Z</time>
</trkpt>
<trkpt lat="37.00559997558594" lon="-118.89287567138672">
<ele>2672</ele>
<time>2016-07-29T04:26:38Z</time>
</trkpt>
<trkpt lat="37.00564193725586" lon="-118.89299011230469">
<ele>2673</ele>
<time>2016-07-29T04:26:46Z</time>
</trkpt>
<trkpt lat="37.005619049072266" lon="-118.8930435180664">
<ele>2672</ele>
<time>2016-07-29T04:26:52Z</time>
</trkpt>
<trkpt lat="37.005615234375" lon="-118.89310455322266">
<ele>2673</ele>
<time>2016-07-29T04:27:00Z</time>
</trkpt>
<trkpt lat="37.00559997558594" lon="-118.89324188232422">
<ele>2673</ele>
<time>2016-07-29T04:27:09Z</time>
</trkpt>
<trkpt lat="37.00564193725586" lon="-118.89336395263672">
<ele>2672</ele>
<time>2016-07-29T04:27:17Z</time>
</trkpt>
<trkpt lat="37.00564193725586" lon="-118.89349365234375">
<ele>2671</ele>
<time>2016-07-29T04:27:25Z</time>
</trkpt>
<trkpt lat="37.0056037902832" lon="-118.89361572265625">
<ele>2669</ele>
<time>2016-07-29T04:27:35Z</time>
</trkpt>
<trkpt lat="37.00558853149414" lon="-118.89373779296875">
<ele>2667</ele>
<time>2016-07-29T04:27:43Z</time>
</trkpt>
<trkpt lat="37.005550384521484" lon="-118.89387512207031">
<ele>2666</ele>
<time>2016-07-29T04:27:51Z</time>
</trkpt>
<trkpt lat="37.00554656982422" lon="-118.89400482177734">
<ele>2672</ele>
<time>2016-07-29T04:28:04Z</time>
</trkpt>
<trkpt lat="37.005558013916016" lon="-118.89411926269531">
<ele>2670</ele>
<time>2016-07-29T04:28:11Z</time>
</trkpt>
<trkpt lat="37.00553894042969" lon="-118.89424133300781">
<ele>2668</ele>
<time>2016-07-29T04:28:20Z</time>
</trkpt>
<trkpt lat="37.00554275512695" lon="-118.89430236816406">
<ele>2668</ele>
<time>2016-07-29T04:28:35Z</time>
</trkpt>
<trkpt lat="37.00548553466797" lon="-118.8944091796875">
<ele>2663</ele>
<time>2016-07-29T04:28:45Z</time>
</trkpt>
<trkpt lat="37.00545120239258" lon="-118.89445495605469">
<ele>2661</ele>
<time>2016-07-29T04:28:57Z</time>
</trkpt>
<trkpt lat="37.00540542602539" lon="-118.89447021484375">
<ele>2662</ele>
<time>2016-07-29T04:29:03Z</time>
</trkpt>
<trkpt lat="37.00540542602539" lon="-118.89453125">
<ele>2664</ele>
<time>2016-07-29T04:29:11Z</time>
</trkpt>
<trkpt lat="37.0053596496582" lon="-118.89454650878906">
<ele>2664</ele>
<time>2016-07-29T04:29:18Z</time>
</trkpt>
<trkpt lat="37.00529098510742" lon="-118.89453125">
<ele>2665</ele>
<time>2016-07-29T04:29:30Z</time>
</trkpt>
<trkpt lat="37.00520706176758" lon="-118.89453887939453">
<ele>2666</ele>
<time>2016-07-29T04:29:42Z</time>
</trkpt>
<trkpt lat="37.00517654418945" lon="-118.89457702636719">
<ele>2662</ele>
<time>2016-07-29T04:29:49Z</time>
</trkpt>
<trkpt lat="37.00514221191406" lon="-118.8946304321289">
<ele>2662</ele>
<time>2016-07-29T04:29:55Z</time>
</trkpt>
<trkpt lat="37.00510787963867" lon="-118.8946762084961">
<ele>2666</ele>
<time>2016-07-29T04:30:01Z</time>
</trkpt>
<trkpt lat="37.00508117675781" lon="-118.89472961425781">
<ele>2668</ele>
<time>2016-07-29T04:30:08Z</time>
</trkpt>
<trkpt lat="37.00507354736328" lon="-118.8947982788086">
<ele>2667</ele>
<time>2016-07-29T04:30:17Z</time>
</trkpt>
<trkpt lat="37.00503921508789" lon="-118.89488220214844">
<ele>2670</ele>
<time>2016-07-29T04:30:26Z</time>
</trkpt>
<trkpt lat="37.0050163269043" lon="-118.89500427246094">
<ele>2670</ele>
<time>2016-07-29T04:30:35Z</time>
</trkpt>
<trkpt lat="37.004966735839844" lon="-118.89511108398438">
<ele>2669</ele>
<time>2016-07-29T04:30:47Z</time>
</trkpt>
<trkpt lat="37.00492477416992" lon="-118.89522552490234">
<ele>2669</ele>
<time>2016-07-29T04:30:56Z</time>
</trkpt>
<trkpt lat="37.00489807128906" lon="-118.89533233642578">
<ele>2667</ele>
<time>2016-07-29T04:31:04Z</time>
</trkpt>
<trkpt lat="37.0048828125" lon="-118.89545440673828">
<ele>2666</ele>
<time>2016-07-29T04:31:14Z</time>
</trkpt>
<trkpt lat="37.00486755371094" lon="-118.89554595947266">
<ele>2669</ele>
<time>2016-07-29T04:31:21Z</time>
</trkpt>
<trkpt lat="37.004852294921875" lon="-118.89559173583984">
<ele>2669</ele>
<time>2016-07-29T04:31:28Z</time>
</trkpt>
<trkpt lat="37.00482177734375" lon="-118.89572143554688">
<ele>2670</ele>
<time>2016-07-29T04:31:38Z</time>
</trkpt>
<trkpt lat="37.004756927490234" lon="-118.89581298828125">
<ele>2671</ele>
<time>2016-07-29T04:31:48Z</time>
</trkpt>
<trkpt lat="37.004695892333984" lon="-118.89590454101563">
<ele>2671</ele>
<time>2016-07-29T04:31:58Z</time>
</trkpt>
<trkpt lat="37.004634857177734" lon="-118.89599609375">
<ele>2673</ele>
<time>2016-07-29T04:32:17Z</time>
</trkpt>
<trkpt lat="37.00459289550781" lon="-118.89604949951172">
<ele>2678</ele>
<time>2016-07-29T04:32:28Z</time>
</trkpt>
<trkpt lat="37.00450134277344" lon="-118.89608764648438">
<ele>2677</ele>
<time>2016-07-29T04:32:39Z</time>
</trkpt>
<trkpt lat="37.00443649291992" lon="-118.89617919921875">
<ele>2676</ele>
<time>2016-07-29T04:32:57Z</time>
</trkpt>
<trkpt lat="37.004390716552734" lon="-118.89630889892578">
<ele>2679</ele>
<time>2016-07-29T04:33:08Z</time>
</trkpt>
<trkpt lat="37.00434494018555" lon="-118.89640808105469">
<ele>2677</ele>
<time>2016-07-29T04:33:18Z</time>
</trkpt>
<trkpt lat="37.004310607910156" lon="-118.89647674560547">
<ele>2680</ele>
<time>2016-07-29T04:33:30Z</time>
</trkpt>
<trkpt lat="37.00428009033203" lon="-118.89652252197266">
<ele>2679</ele>
<time>2016-07-29T04:33:37Z</time>
</trkpt>
<trkpt lat="37.004268646240234" lon="-118.89657592773438">
<ele>2681</ele>
<time>2016-07-29T04:33:48Z</time>
</trkpt>
<trkpt lat="37.00423812866211" lon="-118.89663696289063">
<ele>2683</ele>
<time>2016-07-29T04:34:00Z</time>
</trkpt>
<trkpt lat="37.00421905517578" lon="-118.89669799804688">
<ele>2682</ele>
<time>2016-07-29T04:34:09Z</time>
</trkpt>
<trkpt lat="37.004188537597656" lon="-118.89677429199219">
<ele>2687</ele>
<time>2016-07-29T04:34:21Z</time>
</trkpt>
<trkpt lat="37.004173278808594" lon="-118.89688873291016">
<ele>2688</ele>
<time>2016-07-29T04:34:34Z</time>
</trkpt>
<trkpt lat="37.004180908203125" lon="-118.89695739746094">
<ele>2688</ele>
<time>2016-07-29T04:34:40Z</time>
</trkpt>
<trkpt lat="37.00414276123047" lon="-118.8969955444336">
<ele>2691</ele>
<time>2016-07-29T04:34:57Z</time>
</trkpt>
<trkpt lat="37.00404739379883" lon="-118.89700317382813">
<ele>2694</ele>
<time>2016-07-29T04:35:11Z</time>
</trkpt>
<trkpt lat="37.00395584106445" lon="-118.89701843261719">
<ele>2693</ele>
<time>2016-07-29T04:35:21Z</time>
</trkpt>
<trkpt lat="37.003910064697266" lon="-118.89701843261719">
<ele>2694</ele>
<time>2016-07-29T04:35:32Z</time>
</trkpt>
<trkpt lat="37.00386428833008" lon="-118.89701843261719">
<ele>2697</ele>
<time>2016-07-29T04:35:39Z</time>
</trkpt>
<trkpt lat="37.00381088256836" lon="-118.89700317382813">
<ele>2697</ele>
<time>2016-07-29T04:35:46Z</time>
</trkpt>
<trkpt lat="37.003761291503906" lon="-118.89701080322266">
<ele>2699</ele>
<time>2016-07-29T04:35:52Z</time>
</trkpt>
<trkpt lat="37.00371170043945" lon="-118.8969955444336">
<ele>2697</ele>
<time>2016-07-29T04:36:16Z</time>
</trkpt>
<trkpt lat="37.003631591796875" lon="-118.8969955444336">
<ele>2702</ele>
<time>2016-07-29T04:36:29Z</time>
</trkpt>
<trkpt lat="37.003578186035156" lon="-118.89701080322266">
<ele>2703</ele>
<time>2016-07-29T04:36:36Z</time>
</trkpt>
<trkpt lat="37.003536224365234" lon="-118.89703369140625">
<ele>2703</ele>
<time>2016-07-29T04:36:43Z</time>
</trkpt>
<trkpt lat="37.003509521484375" lon="-118.89707946777344">
<ele>2704</ele>
<time>2016-07-29T04:36:51Z</time>
</trkpt>
<trkpt lat="37.00348663330078" lon="-118.89712524414063">
<ele>2703</ele>
<time>2016-07-29T04:37:00Z</time>
</trkpt>
<trkpt lat="37.003448486328125" lon="-118.89717102050781">
<ele>2703</ele>
<time>2016-07-29T04:37:07Z</time>
</trkpt>
<trkpt lat="37.003414154052734" lon="-118.897216796875">
<ele>2705</ele>
<time>2016-07-29T04:37:14Z</time>
</trkpt>
<trkpt lat="37.003379821777344" lon="-118.89725494384766">
<ele>2705</ele>
<time>2016-07-29T04:37:20Z</time>
</trkpt>
<trkpt lat="37.00333786010742" lon="-118.89730072021484">
<ele>2710</ele>
<time>2016-07-29T04:37:27Z</time>
</trkpt>
<trkpt lat="37.00325012207031" lon="-118.89736938476563">
<ele>2714</ele>
<time>2016-07-29T04:37:38Z</time>
</trkpt>
<trkpt lat="37.003204345703125" lon="-118.8973388671875">
<ele>2716</ele>
<time>2016-07-29T04:37:51Z</time>
</trkpt>
<trkpt lat="37.00315475463867" lon="-118.8973159790039">
<ele>2716</ele>
<time>2016-07-29T04:37:58Z</time>
</trkpt>
<trkpt lat="37.0030632019043" lon="-118.89727783203125">
<ele>2717</ele>
<time>2016-07-29T04:38:08Z</time>
</trkpt>
<trkpt lat="37.00297546386719" lon="-118.8972396850586">
<ele>2721</ele>
<time>2016-07-29T04:38:17Z</time>
</trkpt>
<trkpt lat="37.00288772583008" lon="-118.89720916748047">
<ele>2722</ele>
<time>2016-07-29T04:38:25Z</time>
</trkpt>
<trkpt lat="37.00279235839844" lon="-118.89717102050781">
<ele>2722</ele>
<time>2016-07-29T04:38:38Z</time>
</trkpt>
<trkpt lat="37.00273895263672" lon="-118.89716339111328">
<ele>2721</ele>
<time>2016-07-29T04:38:45Z</time>
</trkpt>
<trkpt lat="37.002628326416016" lon="-118.89714813232422">
<ele>2724</ele>
<time>2016-07-29T04:38:54Z</time>
</trkpt>
<trkpt lat="37.00252914428711" lon="-118.89718627929688">
<ele>2725</ele>
<time>2016-07-29T04:39:03Z</time>
</trkpt>
<trkpt lat="37.00247573852539" lon="-118.89720916748047">
<ele>2727</ele>
<time>2016-07-29T04:39:09Z</time>
</trkpt>
<trkpt lat="37.00238800048828" lon="-118.89727020263672">
<ele>2727</ele>
<time>2016-07-29T04:39:19Z</time>
</trkpt>
<trkpt lat="37.00232696533203" lon="-118.89730834960938">
<ele>2729</ele>
<time>2016-07-29T04:39:25Z</time>
</trkpt>
<trkpt lat="37.002296447753906" lon="-118.89735412597656">
<ele>2724</ele>
<time>2016-07-29T04:39:36Z</time>
</trkpt>
<trkpt lat="37.002262115478516" lon="-118.89739227294922">
<ele>2723</ele>
<time>2016-07-29T04:39:42Z</time>
</trkpt>
<trkpt lat="37.002262115478516" lon="-118.89751434326172">
<ele>2724</ele>
<time>2016-07-29T04:39:51Z</time>
</trkpt>
<trkpt lat="37.00225830078125" lon="-118.8975830078125">
<ele>2726</ele>
<time>2016-07-29T04:39:57Z</time>
</trkpt>
<trkpt lat="37.002235412597656" lon="-118.89769744873047">
<ele>2726</ele>
<time>2016-07-29T04:40:07Z</time>
</trkpt>
<trkpt lat="37.002220153808594" lon="-118.89775848388672">
<ele>2726</ele>
<time>2016-07-29T04:40:13Z</time>
</trkpt>
<trkpt lat="37.00220489501953" lon="-118.8978500366211">
<ele>2725</ele>
<time>2016-07-29T04:40:21Z</time>
</trkpt>
<trkpt lat="37.00220489501953" lon="-118.89791107177734">
<ele>2724</ele>
<time>2016-07-29T04:40:29Z</time>
</trkpt>
<trkpt lat="37.002220153808594" lon="-118.89804077148438">
<ele>2727</ele>
<time>2016-07-29T04:40:40Z</time>
</trkpt>
<trkpt lat="37.00218200683594" lon="-118.89808654785156">
<ele>2728</ele>
<time>2016-07-29T04:40:46Z</time>
</trkpt>
<trkpt lat="37.00216293334961" lon="-118.89813995361328">
<ele>2731</ele>
<time>2016-07-29T04:40:52Z</time>
</trkpt>
<trkpt lat="37.00211715698242" lon="-118.8981704711914">
<ele>2729</ele>
<time>2016-07-29T04:40:58Z</time>
</trkpt>
<trkpt lat="37.00210952758789" lon="-118.89823150634766">
<ele>2727</ele>
<time>2016-07-29T04:41:05Z</time>
</trkpt>
<trkpt lat="37.00209426879883" lon="-118.89828491210938">
<ele>2727</ele>
<time>2016-07-29T04:41:18Z</time>
</trkpt>
<trkpt lat="37.002098083496094" lon="-118.89835357666016">
<ele>2726</ele>
<time>2016-07-29T04:41:30Z</time>
</trkpt>
<trkpt lat="37.002132415771484" lon="-118.89839935302734">
<ele>2724</ele>
<time>2016-07-29T04:41:36Z</time>
</trkpt>
<trkpt lat="37.002174377441406" lon="-118.89852142333984">
<ele>2718</ele>
<time>2016-07-29T04:41:46Z</time>
</trkpt>
<trkpt lat="37.002174377441406" lon="-118.89863586425781">
<ele>2716</ele>
<time>2016-07-29T04:41:56Z</time>
</trkpt>
<trkpt lat="37.00216293334961" lon="-118.89869689941406">
<ele>2715</ele>
<time>2016-07-29T04:42:02Z</time>
</trkpt>
<trkpt lat="37.002098083496094" lon="-118.89879608154297">
<ele>2716</ele>
<time>2016-07-29T04:42:11Z</time>
</trkpt>
<trkpt lat="37.002132415771484" lon="-118.89884948730469">
<ele>2715</ele>
<time>2016-07-29T04:42:17Z</time>
</trkpt>
<trkpt lat="37.00217819213867" lon="-118.89895629882813">
<ele>2713</ele>
<time>2016-07-29T04:42:25Z</time>
</trkpt>
<trkpt lat="37.002235412597656" lon="-118.89905548095703">
<ele>2713</ele>
<time>2016-07-29T04:42:32Z</time>
</trkpt>
<trkpt lat="37.00227737426758" lon="-118.89906311035156">
<ele>2709</ele>
<time>2016-07-29T04:42:45Z</time>
</trkpt>
<trkpt lat="37.00230026245117" lon="-118.89911651611328">
<ele>2706</ele>
<time>2016-07-29T04:42:53Z</time>
</trkpt>
<trkpt lat="37.00232696533203" lon="-118.89923095703125">
<ele>2704</ele>
<time>2016-07-29T04:43:02Z</time>
</trkpt>
<trkpt lat="37.00236129760742" lon="-118.89935302734375">
<ele>2704</ele>
<time>2016-07-29T04:43:11Z</time>
</trkpt>
<trkpt lat="37.00237274169922" lon="-118.89945220947266">
<ele>2708</ele>
<time>2016-07-29T04:43:21Z</time>
</trkpt>
<trkpt lat="37.00236511230469" lon="-118.89950561523438">
<ele>2719</ele>
<time>2016-07-29T04:43:40Z</time>
</trkpt>
<trkpt lat="37.002384185791016" lon="-118.89956665039063">
<ele>2719</ele>
<time>2016-07-29T04:43:46Z</time>
</trkpt>
<trkpt lat="37.00239181518555" lon="-118.8996353149414">
<ele>2719</ele>
<time>2016-07-29T04:43:52Z</time>
</trkpt>
<trkpt lat="37.00236129760742" lon="-118.8997573852539">
<ele>2717</ele>
<time>2016-07-29T04:44:02Z</time>
</trkpt>
<trkpt lat="37.002357482910156" lon="-118.8998794555664">
<ele>2714</ele>
<time>2016-07-29T04:44:11Z</time>
</trkpt>
<trkpt lat="37.00240707397461" lon="-118.9000015258789">
<ele>2712</ele>
<time>2016-07-29T04:44:19Z</time>
</trkpt>
<trkpt lat="37.00244903564453" lon="-118.90015411376953">
<ele>2708</ele>
<time>2016-07-29T04:44:28Z</time>
</trkpt>
<trkpt lat="37.002445220947266" lon="-118.90027618408203">
<ele>2705</ele>
<time>2016-07-29T04:44:36Z</time>
</trkpt>
<trkpt lat="37.002418518066406" lon="-118.900390625">
<ele>2703</ele>
<time>2016-07-29T04:44:47Z</time>
</trkpt>
<trkpt lat="37.00242614746094" lon="-118.90045166015625">
<ele>2706</ele>
<time>2016-07-29T04:44:53Z</time>
</trkpt>
<trkpt lat="37.0024299621582" lon="-118.90056610107422">
<ele>2713</ele>
<time>2016-07-29T04:45:02Z</time>
</trkpt>
<trkpt lat="37.00239944458008" lon="-118.90060424804688">
<ele>2712</ele>
<time>2016-07-29T04:45:08Z</time>
</trkpt>
<trkpt lat="37.00237274169922" lon="-118.9006576538086">
<ele>2714</ele>
<time>2016-07-29T04:45:15Z</time>
</trkpt>
<trkpt lat="37.00237274169922" lon="-118.90071868896484">
<ele>2716</ele>
<time>2016-07-29T04:45:21Z</time>
</trkpt>
<trkpt lat="37.00233840942383" lon="-118.90077209472656">
<ele>2718</ele>
<time>2016-07-29T04:45:30Z</time>
</trkpt>
<trkpt lat="37.00224304199219" lon="-118.9007797241211">
<ele>2720</ele>
<time>2016-07-29T04:45:39Z</time>
</trkpt>
<trkpt lat="37.00214767456055" lon="-118.90082550048828">
<ele>2718</ele>
<time>2016-07-29T04:45:49Z</time>
</trkpt>
<trkpt lat="37.00205993652344" lon="-118.90087890625">
<ele>2719</ele>
<time>2016-07-29T04:45:59Z</time>
</trkpt>
<trkpt lat="37.00197219848633" lon="-118.90093231201172">
<ele>2722</ele>
<time>2016-07-29T04:46:09Z</time>
</trkpt>
<trkpt lat="37.00191116333008" lon="-118.90092468261719">
<ele>2721</ele>
<time>2016-07-29T04:46:26Z</time>
</trkpt>
<trkpt lat="37.00185775756836" lon="-118.90091705322266">
<ele>2719</ele>
<time>2016-07-29T04:46:32Z</time>
</trkpt>
<trkpt lat="37.00180435180664" lon="-118.90090942382813">
<ele>2718</ele>
<time>2016-07-29T04:46:39Z</time>
</trkpt>
<trkpt lat="37.00170135498047" lon="-118.90092468261719">
<ele>2721</ele>
<time>2016-07-29T04:46:49Z</time>
</trkpt>
<trkpt lat="37.00165557861328" lon="-118.90093231201172">
<ele>2720</ele>
<time>2016-07-29T04:46:55Z</time>
</trkpt>
<trkpt lat="37.001609802246094" lon="-118.90092468261719">
<ele>2721</ele>
<time>2016-07-29T04:47:09Z</time>
</trkpt>
<trkpt lat="37.00156021118164" lon="-118.90092468261719">
<ele>2724</ele>
<time>2016-07-29T04:47:16Z</time>
</trkpt>
<trkpt lat="37.00149154663086" lon="-118.90088653564453">
<ele>2721</ele>
<time>2016-07-29T04:47:26Z</time>
</trkpt>
<trkpt lat="37.00144577026367" lon="-118.90090942382813">
<ele>2722</ele>
<time>2016-07-29T04:47:32Z</time>
</trkpt>
<trkpt lat="37.00141525268555" lon="-118.90096282958984">
<ele>2721</ele>
<time>2016-07-29T04:47:39Z</time>
</trkpt>
<trkpt lat="37.0013427734375" lon="-118.90104675292969">
<ele>2723</ele>
<time>2016-07-29T04:47:48Z</time>
</trkpt>
<trkpt lat="37.001251220703125" lon="-118.90110778808594">
<ele>2723</ele>
<time>2016-07-29T04:48:09Z</time>
</trkpt>
<trkpt lat="37.00120544433594" lon="-118.901123046875">
<ele>2726</ele>
<time>2016-07-29T04:48:16Z</time>
</trkpt>
<trkpt lat="37.001102447509766" lon="-118.90113067626953">
<ele>2727</ele>
<time>2016-07-29T04:48:31Z</time>
</trkpt>
<trkpt lat="37.00104904174805" lon="-118.90118408203125">
<ele>2721</ele>
<time>2016-07-29T04:48:57Z</time>
</trkpt>
<trkpt lat="37.001007080078125" lon="-118.90129852294922">
<ele>2726</ele>
<time>2016-07-29T04:49:10Z</time>
</trkpt>
<trkpt lat="37.00095748901367" lon="-118.90139770507813">
<ele>2730</ele>
<time>2016-07-29T04:49:19Z</time>
</trkpt>
<trkpt lat="37.000946044921875" lon="-118.90147399902344">
<ele>2729</ele>
<time>2016-07-29T04:49:28Z</time>
</trkpt>
<trkpt lat="37.000885009765625" lon="-118.90156555175781">
<ele>2731</ele>
<time>2016-07-29T04:49:38Z</time>
</trkpt>
<trkpt lat="37.000850677490234" lon="-118.901611328125">
<ele>2732</ele>
<time>2016-07-29T04:49:45Z</time>
</trkpt>
<trkpt lat="37.00084686279297" lon="-118.90167999267578">
<ele>2732</ele>
<time>2016-07-29T04:49:51Z</time>
</trkpt>
<trkpt lat="37.00080871582031" lon="-118.90178680419922">
<ele>2734</ele>
<time>2016-07-29T04:49:59Z</time>
</trkpt>
<trkpt lat="37.00077819824219" lon="-118.90184020996094">
<ele>2736</ele>
<time>2016-07-29T04:50:05Z</time>
</trkpt>
<trkpt lat="37.00077438354492" lon="-118.90190124511719">
<ele>2735</ele>
<time>2016-07-29T04:50:12Z</time>
</trkpt>
<trkpt lat="37.00082015991211" lon="-118.90203094482422">
<ele>2734</ele>
<time>2016-07-29T04:50:20Z</time>
</trkpt>
<trkpt lat="37.000789642333984" lon="-118.90211486816406">
<ele>2737</ele>
<time>2016-07-29T04:50:26Z</time>
</trkpt>
<trkpt lat="37.00071334838867" lon="-118.90217590332031">
<ele>2740</ele>
<time>2016-07-29T04:50:33Z</time>
</trkpt>
<trkpt lat="37.00062561035156" lon="-118.9022445678711">
<ele>2740</ele>
<time>2016-07-29T04:50:42Z</time>
</trkpt>
<trkpt lat="37.000545501708984" lon="-118.90231323242188">
<ele>2743</ele>
<time>2016-07-29T04:50:50Z</time>
</trkpt>
<trkpt lat="37.00044631958008" lon="-118.90234375">
<ele>2742</ele>
<time>2016-07-29T04:50:58Z</time>
</trkpt>
<trkpt lat="37.000389099121094" lon="-118.90245056152344">
<ele>2743</ele>
<time>2016-07-29T04:51:11Z</time>
</trkpt>
<trkpt lat="37.00033950805664" lon="-118.9025650024414">
<ele>2740</ele>
<time>2016-07-29T04:51:21Z</time>
</trkpt>
<trkpt lat="37.00025939941406" lon="-118.90266418457031">
<ele>2744</ele>
<time>2016-07-29T04:51:30Z</time>
</trkpt>
<trkpt lat="37.000179290771484" lon="-118.9027328491211">
<ele>2744</ele>
<time>2016-07-29T04:51:37Z</time>
</trkpt>
<trkpt lat="37.0001335144043" lon="-118.90283966064453">
<ele>2737</ele>
<time>2016-07-29T04:51:47Z</time>
</trkpt>
<trkpt lat="37.00011444091797" lon="-118.90296173095703">
<ele>2736</ele>
<time>2016-07-29T04:51:55Z</time>
</trkpt>
<trkpt lat="37.00003433227539" lon="-118.9030532836914">
<ele>2734</ele>
<time>2016-07-29T04:52:04Z</time>
</trkpt>
<trkpt lat="36.99993896484375" lon="-118.903076171875">
<ele>2738</ele>
<time>2016-07-29T04:52:11Z</time>
</trkpt>
<trkpt lat="36.999839782714844" lon="-118.90309143066406">
<ele>2741</ele>
<time>2016-07-29T04:52:20Z</time>
</trkpt>
<trkpt lat="36.999786376953125" lon="-118.90312957763672">
<ele>2742</ele>
<time>2016-07-29T04:52:27Z</time>
</trkpt>
<trkpt lat="36.999755859375" lon="-118.9031753540039">
<ele>2739</ele>
<time>2016-07-29T04:52:38Z</time>
</trkpt>
<trkpt lat="36.99966812133789" lon="-118.90324401855469">
<ele>2742</ele>
<time>2016-07-29T04:52:47Z</time>
</trkpt>
<trkpt lat="36.99956512451172" lon="-118.90328216552734">
<ele>2741</ele>
<time>2016-07-29T04:52:56Z</time>
</trkpt>
<trkpt lat="36.99948501586914" lon="-118.90335845947266">
<ele>2742</ele>
<time>2016-07-29T04:53:05Z</time>
</trkpt>
<trkpt lat="36.99938201904297" lon="-118.90338134765625">
<ele>2743</ele>
<time>2016-07-29T04:53:13Z</time>
</trkpt>
<trkpt lat="36.999351501464844" lon="-118.90342712402344">
<ele>2739</ele>
<time>2016-07-29T04:53:19Z</time>
</trkpt>
<trkpt lat="36.999332427978516" lon="-118.90351867675781">
<ele>2738</ele>
<time>2016-07-29T04:53:26Z</time>
</trkpt>
<trkpt lat="36.999267578125" lon="-118.90361022949219">
<ele>2737</ele>
<time>2016-07-29T04:53:36Z</time>
</trkpt>
<trkpt lat="36.99922180175781" lon="-118.90372467041016">
<ele>2738</ele>
<time>2016-07-29T04:53:45Z</time>
</trkpt>
<trkpt lat="36.99919891357422" lon="-118.90385437011719">
<ele>2732</ele>
<time>2016-07-29T04:53:54Z</time>
</trkpt>
<trkpt lat="36.99919509887695" lon="-118.90397644042969">
<ele>2730</ele>
<time>2016-07-29T04:54:02Z</time>
</trkpt>
<trkpt lat="36.99919509887695" lon="-118.90409088134766">
<ele>2727</ele>
<time>2016-07-29T04:54:12Z</time>
</trkpt>
<trkpt lat="36.999141693115234" lon="-118.9041748046875">
<ele>2728</ele>
<time>2016-07-29T04:54:21Z</time>
</trkpt>
<trkpt lat="36.99909210205078" lon="-118.90428924560547">
<ele>2724</ele>
<time>2016-07-29T04:54:33Z</time>
</trkpt>
<trkpt lat="36.99905776977539" lon="-118.90434265136719">
<ele>2729</ele>
<time>2016-07-29T04:54:45Z</time>
</trkpt>
<trkpt lat="36.999061584472656" lon="-118.90445709228516">
<ele>2725</ele>
<time>2016-07-29T04:54:54Z</time>
</trkpt>
<trkpt lat="36.99898910522461" lon="-118.9045639038086">
<ele>2728</ele>
<time>2016-07-29T04:55:03Z</time>
</trkpt>
<trkpt lat="36.998897552490234" lon="-118.90460205078125">
<ele>2730</ele>
<time>2016-07-29T04:55:09Z</time>
</trkpt>
<trkpt lat="36.998802185058594" lon="-118.90460205078125">
<ele>2733</ele>
<time>2016-07-29T04:55:16Z</time>
</trkpt>
<trkpt lat="36.998687744140625" lon="-118.90460205078125">
<ele>2732</ele>
<time>2016-07-29T04:55:24Z</time>
</trkpt>
<trkpt lat="36.998592376708984" lon="-118.9046401977539">
<ele>2728</ele>
<time>2016-07-29T04:55:31Z</time>
</trkpt>
<trkpt lat="36.998512268066406" lon="-118.90471649169922">
<ele>2724</ele>
<time>2016-07-29T04:55:39Z</time>
</trkpt>
<trkpt lat="36.998416900634766" lon="-118.90470123291016">
<ele>2724</ele>
<time>2016-07-29T04:55:47Z</time>
</trkpt>
<trkpt lat="36.998329162597656" lon="-118.90472412109375">
<ele>2723</ele>
<time>2016-07-29T04:55:56Z</time>
</trkpt>
<trkpt lat="36.99827194213867" lon="-118.90473175048828">
<ele>2724</ele>
<time>2016-07-29T04:56:02Z</time>
</trkpt>
<trkpt lat="36.99816131591797" lon="-118.90469360351563">
<ele>2723</ele>
<time>2016-07-29T04:56:09Z</time>
</trkpt>
<trkpt lat="36.99810791015625" lon="-118.90470123291016">
<ele>2720</ele>
<time>2016-07-29T04:56:16Z</time>
</trkpt>
<trkpt lat="36.997955322265625" lon="-118.9046630859375">
<ele>2719</ele>
<time>2016-07-29T04:56:24Z</time>
</trkpt>
<trkpt lat="36.99787902832031" lon="-118.9046630859375">
<ele>2715</ele>
<time>2016-07-29T04:57:21Z</time>
</trkpt>
<trkpt lat="36.997798919677734" lon="-118.90460968017578">
<ele>2714</ele>
<time>2016-07-29T04:59:42Z</time>
</trkpt>
<trkpt lat="36.99773025512695" lon="-118.90453338623047">
<ele>2709</ele>
<time>2016-07-29T04:59:51Z</time>
</trkpt>
<trkpt lat="36.9976692199707" lon="-118.904541015625">
<ele>2709</ele>
<time>2016-07-29T04:59:58Z</time>
</trkpt>
<trkpt lat="36.997554779052734" lon="-118.90449523925781">
<ele>2707</ele>
<time>2016-07-29T05:00:04Z</time>
</trkpt>
<trkpt lat="36.99746322631836" lon="-118.90442657470703">
<ele>2705</ele>
<time>2016-07-29T05:00:11Z</time>
</trkpt>
<trkpt lat="36.99736785888672" lon="-118.90435791015625">
<ele>2703</ele>
<time>2016-07-29T05:00:19Z</time>
</trkpt>
<trkpt lat="36.99725341796875" lon="-118.9042739868164">
<ele>2704</ele>
<time>2016-07-29T05:00:26Z</time>
</trkpt>
<trkpt lat="36.99721145629883" lon="-118.90423583984375">
<ele>2703</ele>
<time>2016-07-29T05:00:33Z</time>
</trkpt>
<trkpt lat="36.99709701538086" lon="-118.9041748046875">
<ele>2704</ele>
<time>2016-07-29T05:00:40Z</time>
</trkpt>
<trkpt lat="36.9969596862793" lon="-118.90408325195313">
<ele>2709</ele>
<time>2016-07-29T05:00:49Z</time>
</trkpt>
<trkpt lat="36.99686813354492" lon="-118.90401458740234">
<ele>2709</ele>
<time>2016-07-29T05:00:56Z</time>
</trkpt>
<trkpt lat="36.996803283691406" lon="-118.9039306640625">
<ele>2710</ele>
<time>2016-07-29T05:01:04Z</time>
</trkpt>
<trkpt lat="36.996726989746094" lon="-118.90384674072266">
<ele>2711</ele>
<time>2016-07-29T05:01:11Z</time>
</trkpt>
<trkpt lat="36.996620178222656" lon="-118.90382385253906">
<ele>2705</ele>
<time>2016-07-29T05:01:18Z</time>
</trkpt>
<trkpt lat="36.996524810791016" lon="-118.90379333496094">
<ele>2707</ele>
<time>2016-07-29T05:01:24Z</time>
</trkpt>
<trkpt lat="36.9964485168457" lon="-118.90370178222656">
<ele>2709</ele>
<time>2016-07-29T05:01:31Z</time>
</trkpt>
<trkpt lat="36.99637985229492" lon="-118.90361022949219">
<ele>2706</ele>
<time>2016-07-29T05:01:40Z</time>
</trkpt>
<trkpt lat="36.99629592895508" lon="-118.9035415649414">
<ele>2705</ele>
<time>2016-07-29T05:01:46Z</time>
</trkpt>
<trkpt lat="36.9962158203125" lon="-118.90345001220703">
<ele>2704</ele>
<time>2016-07-29T05:01:55Z</time>
</trkpt>
<trkpt lat="36.99612045288086" lon="-118.90339660644531">
<ele>2710</ele>
<time>2016-07-29T05:02:03Z</time>
</trkpt>
<trkpt lat="36.99604415893555" lon="-118.90332794189453">
<ele>2715</ele>
<time>2016-07-29T05:02:13Z</time>
</trkpt>
<trkpt lat="36.9959602355957" lon="-118.90327453613281">
<ele>2713</ele>
<time>2016-07-29T05:02:20Z</time>
</trkpt>
<trkpt lat="36.99592971801758" lon="-118.9031982421875">
<ele>2715</ele>
<time>2016-07-29T05:02:26Z</time>
</trkpt>
<trkpt lat="36.995906829833984" lon="-118.903076171875">
<ele>2716</ele>
<time>2016-07-29T05:02:34Z</time>
</trkpt>
<trkpt lat="36.99585723876953" lon="-118.90296936035156">
<ele>2711</ele>
<time>2016-07-29T05:02:42Z</time>
</trkpt>
<trkpt lat="36.99581527709961" lon="-118.90286254882813">
<ele>2716</ele>
<time>2016-07-29T05:02:53Z</time>
</trkpt>
<trkpt lat="36.99571990966797" lon="-118.90280151367188">
<ele>2715</ele>
<time>2016-07-29T05:03:01Z</time>
</trkpt>
<trkpt lat="36.99562072753906" lon="-118.90280151367188">
<ele>2717</ele>
<time>2016-07-29T05:03:08Z</time>
</trkpt>
<trkpt lat="36.99552536010742" lon="-118.90277862548828">
<ele>2715</ele>
<time>2016-07-29T05:03:15Z</time>
</trkpt>
<trkpt lat="36.99544906616211" lon="-118.90275573730469">
<ele>2717</ele>
<time>2016-07-29T05:03:49Z</time>
</trkpt>
<trkpt lat="36.99541473388672" lon="-118.90279388427734">
<ele>2716</ele>
<time>2016-07-29T05:04:00Z</time>
</trkpt>
<trkpt lat="36.99531555175781" lon="-118.90283966064453">
<ele>2716</ele>
<time>2016-07-29T05:04:07Z</time>
</trkpt>
<trkpt lat="36.995174407958984" lon="-118.90291595458984">
<ele>2714</ele>
<time>2016-07-29T05:04:14Z</time>
</trkpt>
<trkpt lat="36.99510192871094" lon="-118.90299987792969">
<ele>2715</ele>
<time>2016-07-29T05:04:21Z</time>
</trkpt>
<trkpt lat="36.995059967041016" lon="-118.90311431884766">
<ele>2712</ele>
<time>2016-07-29T05:04:28Z</time>
</trkpt>
<trkpt lat="36.994964599609375" lon="-118.90319061279297">
<ele>2713</ele>
<time>2016-07-29T05:04:35Z</time>
</trkpt>
<trkpt lat="36.9948616027832" lon="-118.9031982421875">
<ele>2715</ele>
<time>2016-07-29T05:04:42Z</time>
</trkpt>
<trkpt lat="36.994754791259766" lon="-118.9032211303711">
<ele>2714</ele>
<time>2016-07-29T05:04:50Z</time>
</trkpt>
<trkpt lat="36.99470138549805" lon="-118.90323638916016">
<ele>2712</ele>
<time>2016-07-29T05:04:56Z</time>
</trkpt>
<trkpt lat="36.99465560913086" lon="-118.90326690673828">
<ele>2710</ele>
<time>2016-07-29T05:05:06Z</time>
</trkpt>
<trkpt lat="36.994564056396484" lon="-118.9032974243164">
<ele>2710</ele>
<time>2016-07-29T05:05:15Z</time>
</trkpt>
<trkpt lat="36.99449157714844" lon="-118.90328216552734">
<ele>2710</ele>
<time>2016-07-29T05:05:21Z</time>
</trkpt>
<trkpt lat="36.99437713623047" lon="-118.90325927734375">
<ele>2713</ele>
<time>2016-07-29T05:05:28Z</time>
</trkpt>
<trkpt lat="36.99428176879883" lon="-118.90325927734375">
<ele>2712</ele>
<time>2016-07-29T05:05:35Z</time>
</trkpt>
<trkpt lat="36.99419021606445" lon="-118.90332794189453">
<ele>2711</ele>
<time>2016-07-29T05:05:41Z</time>
</trkpt>
<trkpt lat="36.99406814575195" lon="-118.90336608886719">
<ele>2713</ele>
<time>2016-07-29T05:05:47Z</time>
</trkpt>
<trkpt lat="36.993988037109375" lon="-118.9034194946289">
<ele>2712</ele>
<time>2016-07-29T05:05:53Z</time>
</trkpt>
<trkpt lat="36.9938850402832" lon="-118.90347290039063">
<ele>2713</ele>
<time>2016-07-29T05:06:02Z</time>
</trkpt>
<trkpt lat="36.99378204345703" lon="-118.90348815917969">
<ele>2710</ele>
<time>2016-07-29T05:06:11Z</time>
</trkpt>
<trkpt lat="36.993682861328125" lon="-118.90351104736328">
<ele>2711</ele>
<time>2016-07-29T05:06:17Z</time>
</trkpt>
<trkpt lat="36.99358367919922" lon="-118.90357208251953">
<ele>2710</ele>
<time>2016-07-29T05:06:24Z</time>
</trkpt>
<trkpt lat="36.99348831176758" lon="-118.90359497070313">
<ele>2711</ele>
<time>2016-07-29T05:06:31Z</time>
</trkpt>
<trkpt lat="36.993385314941406" lon="-118.90363311767578">
<ele>2708</ele>
<time>2016-07-29T05:06:40Z</time>
</trkpt>
<trkpt lat="36.993289947509766" lon="-118.90367126464844">
<ele>2707</ele>
<time>2016-07-29T05:06:47Z</time>
</trkpt>
<trkpt lat="36.99318313598633" lon="-118.90365600585938">
<ele>2707</ele>
<time>2016-07-29T05:06:54Z</time>
</trkpt>
<trkpt lat="36.993080139160156" lon="-118.90365600585938">
<ele>2704</ele>
<time>2016-07-29T05:07:00Z</time>
</trkpt>
<trkpt lat="36.99297332763672" lon="-118.9037094116211">
<ele>2704</ele>
<time>2016-07-29T05:07:08Z</time>
</trkpt>
<trkpt lat="36.99287414550781" lon="-118.90374755859375">
<ele>2704</ele>
<time>2016-07-29T05:07:19Z</time>
</trkpt>
<trkpt lat="36.992801666259766" lon="-118.90377044677734">
<ele>2700</ele>
<time>2016-07-29T05:07:26Z</time>
</trkpt>
<trkpt lat="36.992698669433594" lon="-118.90376281738281">
<ele>2702</ele>
<time>2016-07-29T05:07:34Z</time>
</trkpt>
<trkpt lat="36.99259567260742" lon="-118.90377044677734">
<ele>2701</ele>
<time>2016-07-29T05:07:42Z</time>
</trkpt>
<trkpt lat="36.99243927001953" lon="-118.9037857055664">
<ele>2700</ele>
<time>2016-07-29T05:07:51Z</time>
</trkpt>
<trkpt lat="36.99234390258789" lon="-118.90374755859375">
<ele>2700</ele>
<time>2016-07-29T05:07:57Z</time>
</trkpt>
<trkpt lat="36.9922981262207" lon="-118.90371704101563">
<ele>2702</ele>
<time>2016-07-29T05:08:03Z</time>
</trkpt>
<trkpt lat="36.992191314697266" lon="-118.90373229980469">
<ele>2702</ele>
<time>2016-07-29T05:08:10Z</time>
</trkpt>
<trkpt lat="36.99209213256836" lon="-118.9036865234375">
<ele>2705</ele>
<time>2016-07-29T05:08:16Z</time>
</trkpt>
<trkpt lat="36.991981506347656" lon="-118.90369415283203">
<ele>2704</ele>
<time>2016-07-29T05:08:25Z</time>
</trkpt>
<trkpt lat="36.99188232421875" lon="-118.90367126464844">
<ele>2702</ele>
<time>2016-07-29T05:08:34Z</time>
</trkpt>
<trkpt lat="36.991790771484375" lon="-118.90361022949219">
<ele>2698</ele>
<time>2016-07-29T05:08:44Z</time>
</trkpt>
<trkpt lat="36.99169921875" lon="-118.90357208251953">
<ele>2698</ele>
<time>2016-07-29T05:08:53Z</time>
</trkpt>
<trkpt lat="36.9915885925293" lon="-118.903564453125">
<ele>2701</ele>
<time>2016-07-29T05:09:00Z</time>
</trkpt>
<trkpt lat="36.99150466918945" lon="-118.90350341796875">
<ele>2696</ele>
<time>2016-07-29T05:09:32Z</time>
</trkpt>
<trkpt lat="36.99143600463867" lon="-118.90341186523438">
<ele>2693</ele>
<time>2016-07-29T05:09:39Z</time>
</trkpt>
<trkpt lat="36.99134063720703" lon="-118.90338134765625">
<ele>2684</ele>
<time>2016-07-29T05:09:49Z</time>
</trkpt>
<trkpt lat="36.99127960205078" lon="-118.90327453613281">
<ele>2685</ele>
<time>2016-07-29T05:09:57Z</time>
</trkpt>
<trkpt lat="36.991214752197266" lon="-118.9031753540039">
<ele>2687</ele>
<time>2016-07-29T05:10:04Z</time>
</trkpt>
<trkpt lat="36.99114227294922" lon="-118.90302276611328">
<ele>2694</ele>
<time>2016-07-29T05:10:21Z</time>
</trkpt>
<trkpt lat="36.991024017333984" lon="-118.90288543701172">
<ele>2688</ele>
<time>2016-07-29T05:10:29Z</time>
</trkpt>
<trkpt lat="36.990966796875" lon="-118.90277099609375">
<ele>2686</ele>
<time>2016-07-29T05:10:38Z</time>
</trkpt>
<trkpt lat="36.99089813232422" lon="-118.9026870727539">
<ele>2690</ele>
<time>2016-07-29T05:10:44Z</time>
</trkpt>
<trkpt lat="36.990821838378906" lon="-118.90251922607422">
<ele>2689</ele>
<time>2016-07-29T05:10:50Z</time>
</trkpt>
<trkpt lat="36.99073028564453" lon="-118.90237426757813">
<ele>2684</ele>
<time>2016-07-29T05:11:01Z</time>
</trkpt>
<trkpt lat="36.990657806396484" lon="-118.90232849121094">
<ele>2680</ele>
<time>2016-07-29T05:11:09Z</time>
</trkpt>
<trkpt lat="36.99055480957031" lon="-118.90235900878906">
<ele>2680</ele>
<time>2016-07-29T05:11:15Z</time>
</trkpt>
<trkpt lat="36.990482330322266" lon="-118.90235900878906">
<ele>2680</ele>
<time>2016-07-29T05:11:21Z</time>
</trkpt>
<trkpt lat="36.99037170410156" lon="-118.90231323242188">
<ele>2681</ele>
<time>2016-07-29T05:11:29Z</time>
</trkpt>
<trkpt lat="36.990272521972656" lon="-118.90228271484375">
<ele>2683</ele>
<time>2016-07-29T05:11:36Z</time>
</trkpt>
<trkpt lat="36.99017333984375" lon="-118.90232849121094">
<ele>2683</ele>
<time>2016-07-29T05:11:47Z</time>
</trkpt>
<trkpt lat="36.990089416503906" lon="-118.90238952636719">
<ele>2687</ele>
<time>2016-07-29T05:11:58Z</time>
</trkpt>
<trkpt lat="36.98999786376953" lon="-118.90242767333984">
<ele>2686</ele>
<time>2016-07-29T05:12:05Z</time>
</trkpt>
<trkpt lat="36.989898681640625" lon="-118.90247344970703">
<ele>2685</ele>
<time>2016-07-29T05:12:14Z</time>
</trkpt>
<trkpt lat="36.98981857299805" lon="-118.9024658203125">
<ele>2685</ele>
<time>2016-07-29T05:12:21Z</time>
</trkpt>
<trkpt lat="36.98971939086914" lon="-118.90247344970703">
<ele>2682</ele>
<time>2016-07-29T05:12:27Z</time>
</trkpt>
<trkpt lat="36.989662170410156" lon="-118.90248107910156">
<ele>2683</ele>
<time>2016-07-29T05:12:33Z</time>
</trkpt>
<trkpt lat="36.98955154418945" lon="-118.90251159667969">
<ele>2683</ele>
<time>2016-07-29T05:12:41Z</time>
</trkpt>
<trkpt lat="36.98945999145508" lon="-118.90251159667969">
<ele>2685</ele>
<time>2016-07-29T05:12:50Z</time>
</trkpt>
<trkpt lat="36.98935317993164" lon="-118.90248107910156">
<ele>2683</ele>
<time>2016-07-29T05:12:57Z</time>
</trkpt>
<trkpt lat="36.989253997802734" lon="-118.90251922607422">
<ele>2679</ele>
<time>2016-07-29T05:13:05Z</time>
</trkpt>
<trkpt lat="36.98915100097656" lon="-118.90251922607422">
<ele>2674</ele>
<time>2016-07-29T05:13:13Z</time>
</trkpt>
<trkpt lat="36.98906326293945" lon="-118.9024887084961">
<ele>2679</ele>
<time>2016-07-29T05:13:21Z</time>
</trkpt>
<trkpt lat="36.98896026611328" lon="-118.90249633789063">
<ele>2679</ele>
<time>2016-07-29T05:13:27Z</time>
</trkpt>
<trkpt lat="36.98887634277344" lon="-118.90257263183594">
<ele>2680</ele>
<time>2016-07-29T05:13:34Z</time>
</trkpt>
<trkpt lat="36.98877716064453" lon="-118.9026107788086">
<ele>2677</ele>
<time>2016-07-29T05:13:40Z</time>
</trkpt>
<trkpt lat="36.988704681396484" lon="-118.9026870727539">
<ele>2676</ele>
<time>2016-07-29T05:13:48Z</time>
</trkpt>
<trkpt lat="36.98863983154297" lon="-118.90277099609375">
<ele>2677</ele>
<time>2016-07-29T05:13:54Z</time>
</trkpt>
<trkpt lat="36.98855209350586" lon="-118.90283966064453">
<ele>2680</ele>
<time>2016-07-29T05:14:03Z</time>
</trkpt>
<trkpt lat="36.98844909667969" lon="-118.90287780761719">
<ele>2681</ele>
<time>2016-07-29T05:14:09Z</time>
</trkpt>
<trkpt lat="36.98835754394531" lon="-118.9029312133789">
<ele>2683</ele>
<time>2016-07-29T05:14:15Z</time>
</trkpt>
<trkpt lat="36.988277435302734" lon="-118.9029769897461">
<ele>2682</ele>
<time>2016-07-29T05:14:21Z</time>
</trkpt>
<trkpt lat="36.988182067871094" lon="-118.90303802490234">
<ele>2681</ele>
<time>2016-07-29T05:14:27Z</time>
</trkpt>
<trkpt lat="36.988094329833984" lon="-118.90310668945313">
<ele>2683</ele>
<time>2016-07-29T05:14:34Z</time>
</trkpt>
<trkpt lat="36.98806381225586" lon="-118.9032211303711">
<ele>2684</ele>
<time>2016-07-29T05:15:07Z</time>
</trkpt>
<trkpt lat="36.98801040649414" lon="-118.9033432006836">
<ele>2684</ele>
<time>2016-07-29T05:15:16Z</time>
</trkpt>
<trkpt lat="36.98796844482422" lon="-118.90342712402344">
<ele>2683</ele>
<time>2016-07-29T05:15:24Z</time>
</trkpt>
<trkpt lat="36.987953186035156" lon="-118.90355682373047">
<ele>2680</ele>
<time>2016-07-29T05:15:34Z</time>
</trkpt>
<trkpt lat="36.98798370361328" lon="-118.90367889404297">
<ele>2675</ele>
<time>2016-07-29T05:15:42Z</time>
</trkpt>
<trkpt lat="36.98796081542969" lon="-118.90379333496094">
<ele>2677</ele>
<time>2016-07-29T05:15:50Z</time>
</trkpt>
<trkpt lat="36.98788833618164" lon="-118.90387725830078">
<ele>2677</ele>
<time>2016-07-29T05:15:56Z</time>
</trkpt>
<trkpt lat="36.987831115722656" lon="-118.90398406982422">
<ele>2674</ele>
<time>2016-07-29T05:16:03Z</time>
</trkpt>
<trkpt lat="36.98776626586914" lon="-118.90409088134766">
<ele>2674</ele>
<time>2016-07-29T05:16:11Z</time>
</trkpt>
<trkpt lat="36.98774719238281" lon="-118.90420532226563">
<ele>2671</ele>
<time>2016-07-29T05:16:21Z</time>
</trkpt>
<trkpt lat="36.98774337768555" lon="-118.90425872802734">
<ele>2669</ele>
<time>2016-07-29T05:16:27Z</time>
</trkpt>
<trkpt lat="36.98772048950195" lon="-118.90431213378906">
<ele>2666</ele>
<time>2016-07-29T05:16:33Z</time>
</trkpt>
<trkpt lat="36.98769760131836" lon="-118.90442657470703">
<ele>2665</ele>
<time>2016-07-29T05:16:42Z</time>
</trkpt>
<trkpt lat="36.987754821777344" lon="-118.904541015625">
<ele>2662</ele>
<time>2016-07-29T05:16:50Z</time>
</trkpt>
<trkpt lat="36.98773193359375" lon="-118.90460205078125">
<ele>2662</ele>
<time>2016-07-29T05:16:56Z</time>
</trkpt>
<trkpt lat="36.98766326904297" lon="-118.90467834472656">
<ele>2660</ele>
<time>2016-07-29T05:17:03Z</time>
</trkpt>
<trkpt lat="36.98758316040039" lon="-118.90475463867188">
<ele>2658</ele>
<time>2016-07-29T05:17:12Z</time>
</trkpt>
<trkpt lat="36.987548828125" lon="-118.9048080444336">
<ele>2655</ele>
<time>2016-07-29T05:17:19Z</time>
</trkpt>
<trkpt lat="36.98747634887695" lon="-118.90484619140625">
<ele>2650</ele>
<time>2016-07-29T05:17:26Z</time>
</trkpt>
<trkpt lat="36.98739242553711" lon="-118.90491485595703">
<ele>2649</ele>
<time>2016-07-29T05:17:36Z</time>
</trkpt>
<trkpt lat="36.98737716674805" lon="-118.90497589111328">
<ele>2650</ele>
<time>2016-07-29T05:17:44Z</time>
</trkpt>
<trkpt lat="36.98728942871094" lon="-118.90504455566406">
<ele>2646</ele>
<time>2016-07-29T05:17:52Z</time>
</trkpt>
<trkpt lat="36.98722839355469" lon="-118.90518951416016">
<ele>2648</ele>
<time>2016-07-29T05:17:58Z</time>
</trkpt>
<trkpt lat="36.987247467041016" lon="-118.9054183959961">
<ele>2649</ele>
<time>2016-07-29T05:18:04Z</time>
</trkpt>
<trkpt lat="36.98725891113281" lon="-118.90556335449219">
<ele>2647</ele>
<time>2016-07-29T05:18:10Z</time>
</trkpt>
<trkpt lat="36.98723220825195" lon="-118.90568542480469">
<ele>2639</ele>
<time>2016-07-29T05:18:17Z</time>
</trkpt>
<trkpt lat="36.987178802490234" lon="-118.90577697753906">
<ele>2632</ele>
<time>2016-07-29T05:18:27Z</time>
</trkpt>
<trkpt lat="36.98714065551758" lon="-118.9058837890625">
<ele>2632</ele>
<time>2016-07-29T05:18:35Z</time>
</trkpt>
<trkpt lat="36.98716735839844" lon="-118.90606689453125">
<ele>2626</ele>
<time>2016-07-29T05:18:41Z</time>
</trkpt>
<trkpt lat="36.9871940612793" lon="-118.90623474121094">
<ele>2625</ele>
<time>2016-07-29T05:18:47Z</time>
</trkpt>
<trkpt lat="36.98720932006836" lon="-118.9063720703125">
<ele>2622</ele>
<time>2016-07-29T05:18:54Z</time>
</trkpt>
<trkpt lat="36.98726272583008" lon="-118.90656280517578">
<ele>2623</ele>
<time>2016-07-29T05:19:00Z</time>
</trkpt>
<trkpt lat="36.987274169921875" lon="-118.90675354003906">
<ele>2620</ele>
<time>2016-07-29T05:19:08Z</time>
</trkpt>
<trkpt lat="36.98725891113281" lon="-118.90689086914063">
<ele>2623</ele>
<time>2016-07-29T05:19:14Z</time>
</trkpt>
<trkpt lat="36.98721694946289" lon="-118.906982421875">
<ele>2617</ele>
<time>2016-07-29T05:19:21Z</time>
</trkpt>
<trkpt lat="36.987266540527344" lon="-118.90709686279297">
<ele>2616</ele>
<time>2016-07-29T05:19:27Z</time>
</trkpt>
<trkpt lat="36.98727035522461" lon="-118.90717315673828">
<ele>2611</ele>
<time>2016-07-29T05:19:33Z</time>
</trkpt>
<trkpt lat="36.987281799316406" lon="-118.90731048583984">
<ele>2610</ele>
<time>2016-07-29T05:19:41Z</time>
</trkpt>
<trkpt lat="36.98727798461914" lon="-118.9074478149414">
<ele>2609</ele>
<time>2016-07-29T05:19:47Z</time>
</trkpt>
<trkpt lat="36.987274169921875" lon="-118.90758514404297">
<ele>2615</ele>
<time>2016-07-29T05:19:53Z</time>
</trkpt>
<trkpt lat="36.98724365234375" lon="-118.90769958496094">
<ele>2610</ele>
<time>2016-07-29T05:20:00Z</time>
</trkpt>
<trkpt lat="36.987205505371094" lon="-118.90782928466797">
<ele>2611</ele>
<time>2016-07-29T05:20:06Z</time>
</trkpt>
<trkpt lat="36.98717498779297" lon="-118.90797424316406">
<ele>2609</ele>
<time>2016-07-29T05:20:14Z</time>
</trkpt>
<trkpt lat="36.987205505371094" lon="-118.90809631347656">
<ele>2608</ele>
<time>2016-07-29T05:20:20Z</time>
</trkpt>
<trkpt lat="36.987205505371094" lon="-118.9081802368164">
<ele>2605</ele>
<time>2016-07-29T05:20:27Z</time>
</trkpt>
<trkpt lat="36.987125396728516" lon="-118.90826416015625">
<ele>2609</ele>
<time>2016-07-29T05:20:38Z</time>
</trkpt>
<trkpt lat="36.987060546875" lon="-118.90837097167969">
<ele>2610</ele>
<time>2016-07-29T05:20:44Z</time>
</trkpt>
<trkpt lat="36.98704528808594" lon="-118.90849304199219">
<ele>2611</ele>
<time>2016-07-29T05:20:50Z</time>
</trkpt>
<trkpt lat="36.98698043823242" lon="-118.90867614746094">
<ele>2608</ele>
<time>2016-07-29T05:20:58Z</time>
</trkpt>
<trkpt lat="36.98683166503906" lon="-118.90874481201172">
<ele>2604</ele>
<time>2016-07-29T05:21:06Z</time>
</trkpt>
<trkpt lat="36.986812591552734" lon="-118.9088134765625">
<ele>2607</ele>
<time>2016-07-29T05:21:12Z</time>
</trkpt>
<trkpt lat="36.986793518066406" lon="-118.90896606445313">
<ele>2608</ele>
<time>2016-07-29T05:21:18Z</time>
</trkpt>
<trkpt lat="36.98676300048828" lon="-118.90908813476563">
<ele>2608</ele>
<time>2016-07-29T05:21:24Z</time>
</trkpt>
<trkpt lat="36.986759185791016" lon="-118.90921020507813">
<ele>2604</ele>
<time>2016-07-29T05:21:30Z</time>
</trkpt>
<trkpt lat="36.986778259277344" lon="-118.90933227539063">
<ele>2606</ele>
<time>2016-07-29T05:21:36Z</time>
</trkpt>
<trkpt lat="36.98679733276367" lon="-118.90953826904297">
<ele>2609</ele>
<time>2016-07-29T05:21:43Z</time>
</trkpt>
<trkpt lat="36.98685836791992" lon="-118.90969848632813">
<ele>2603</ele>
<time>2016-07-29T05:21:51Z</time>
</trkpt>
<trkpt lat="36.98685836791992" lon="-118.90983581542969">
<ele>2596</ele>
<time>2016-07-29T05:22:00Z</time>
</trkpt>
<trkpt lat="36.98684310913086" lon="-118.90995788574219">
<ele>2598</ele>
<time>2016-07-29T05:22:07Z</time>
</trkpt>
<trkpt lat="36.986778259277344" lon="-118.91004180908203">
<ele>2595</ele>
<time>2016-07-29T05:22:16Z</time>
</trkpt>
<trkpt lat="36.98674392700195" lon="-118.91018676757813">
<ele>2595</ele>
<time>2016-07-29T05:22:24Z</time>
</trkpt>
<trkpt lat="36.98667907714844" lon="-118.91027069091797">
<ele>2598</ele>
<time>2016-07-29T05:22:30Z</time>
</trkpt>
<trkpt lat="36.98672103881836" lon="-118.91044616699219">
<ele>2597</ele>
<time>2016-07-29T05:22:37Z</time>
</trkpt>
<trkpt lat="36.986717224121094" lon="-118.91057586669922">
<ele>2596</ele>
<time>2016-07-29T05:22:44Z</time>
</trkpt>
<trkpt lat="36.986663818359375" lon="-118.91068267822266">
<ele>2595</ele>
<time>2016-07-29T05:22:52Z</time>
</trkpt>
<trkpt lat="36.98662567138672" lon="-118.91082000732422">
<ele>2594</ele>
<time>2016-07-29T05:23:00Z</time>
</trkpt>
<trkpt lat="36.98650360107422" lon="-118.91083526611328">
<ele>2591</ele>
<time>2016-07-29T05:23:08Z</time>
</trkpt>
<trkpt lat="36.986454010009766" lon="-118.91095733642578">
<ele>2590</ele>
<time>2016-07-29T05:23:16Z</time>
</trkpt>
<trkpt lat="36.98636245727539" lon="-118.91107177734375">
<ele>2589</ele>
<time>2016-07-29T05:23:25Z</time>
</trkpt>
<trkpt lat="36.98640441894531" lon="-118.91127014160156">
<ele>2588</ele>
<time>2016-07-29T05:23:34Z</time>
</trkpt>
<trkpt lat="36.98642349243164" lon="-118.91139221191406">
<ele>2579</ele>
<time>2016-07-29T05:23:42Z</time>
</trkpt>
<trkpt lat="36.98640060424805" lon="-118.91151428222656">
<ele>2574</ele>
<time>2016-07-29T05:23:49Z</time>
</trkpt>
<trkpt lat="36.98641586303711" lon="-118.91163635253906">
<ele>2571</ele>
<time>2016-07-29T05:23:56Z</time>
</trkpt>
<trkpt lat="36.98648452758789" lon="-118.91173553466797">
<ele>2575</ele>
<time>2016-07-29T05:24:02Z</time>
</trkpt>
<trkpt lat="36.986473083496094" lon="-118.91188049316406">
<ele>2584</ele>
<time>2016-07-29T05:24:09Z</time>
</trkpt>
<trkpt lat="36.98639678955078" lon="-118.91197204589844">
<ele>2586</ele>
<time>2016-07-29T05:24:16Z</time>
</trkpt>
<trkpt lat="36.986270904541016" lon="-118.91206359863281">
<ele>2585</ele>
<time>2016-07-29T05:24:25Z</time>
</trkpt>
<trkpt lat="36.98624038696289" lon="-118.91217803955078">
<ele>2588</ele>
<time>2016-07-29T05:24:31Z</time>
</trkpt>
<trkpt lat="36.986228942871094" lon="-118.91231536865234">
<ele>2587</ele>
<time>2016-07-29T05:24:37Z</time>
</trkpt>
<trkpt lat="36.986087799072266" lon="-118.91236877441406">
<ele>2584</ele>
<time>2016-07-29T05:24:45Z</time>
</trkpt>
<trkpt lat="36.985931396484375" lon="-118.9123764038086">
<ele>2583</ele>
<time>2016-07-29T05:24:53Z</time>
</trkpt>
<trkpt lat="36.985836029052734" lon="-118.91239166259766">
<ele>2582</ele>
<time>2016-07-29T05:25:00Z</time>
</trkpt>
<trkpt lat="36.98574447631836" lon="-118.91242218017578">
<ele>2580</ele>
<time>2016-07-29T05:25:07Z</time>
</trkpt>
<trkpt lat="36.98563003540039" lon="-118.91246795654297">
<ele>2577</ele>
<time>2016-07-29T05:25:13Z</time>
</trkpt>
<trkpt lat="36.985477447509766" lon="-118.91251373291016">
<ele>2573</ele>
<time>2016-07-29T05:25:21Z</time>
</trkpt>
<trkpt lat="36.985416412353516" lon="-118.91261291503906">
<ele>2572</ele>
<time>2016-07-29T05:25:30Z</time>
</trkpt>
<trkpt lat="36.98531723022461" lon="-118.91265106201172">
<ele>2571</ele>
<time>2016-07-29T05:25:37Z</time>
</trkpt>
<trkpt lat="36.985198974609375" lon="-118.91264343261719">
<ele>2570</ele>
<time>2016-07-29T05:25:43Z</time>
</trkpt>
<trkpt lat="36.98502731323242" lon="-118.9126205444336">
<ele>2571</ele>
<time>2016-07-29T05:25:51Z</time>
</trkpt>
<trkpt lat="36.98490905761719" lon="-118.91266632080078">
<ele>2565</ele>
<time>2016-07-29T05:25:57Z</time>
</trkpt>
<trkpt lat="36.984886169433594" lon="-118.9127197265625">
<ele>2559</ele>
<time>2016-07-29T05:26:03Z</time>
</trkpt>
<trkpt lat="36.984867095947266" lon="-118.91285705566406">
<ele>2557</ele>
<time>2016-07-29T05:26:11Z</time>
</trkpt>
<trkpt lat="36.98490905761719" lon="-118.91299438476563">
<ele>2556</ele>
<time>2016-07-29T05:26:17Z</time>
</trkpt>
<trkpt lat="36.984893798828125" lon="-118.9131088256836">
<ele>2557</ele>
<time>2016-07-29T05:26:25Z</time>
</trkpt>
<trkpt lat="36.98476028442383" lon="-118.91313171386719">
<ele>2551</ele>
<time>2016-07-29T05:26:34Z</time>
</trkpt>
<trkpt lat="36.9847526550293" lon="-118.91325378417969">
<ele>2550</ele>
<time>2016-07-29T05:26:40Z</time>
</trkpt>
<trkpt lat="36.984710693359375" lon="-118.91337585449219">
<ele>2551</ele>
<time>2016-07-29T05:26:46Z</time>
</trkpt>
<trkpt lat="36.984737396240234" lon="-118.9135513305664">
<ele>2554</ele>
<time>2016-07-29T05:26:54Z</time>
</trkpt>
<trkpt lat="36.984718322753906" lon="-118.9136734008789">
<ele>2555</ele>
<time>2016-07-29T05:27:00Z</time>
</trkpt>
<trkpt lat="36.98467254638672" lon="-118.9137954711914">
<ele>2551</ele>
<time>2016-07-29T05:27:10Z</time>
</trkpt>
<trkpt lat="36.984493255615234" lon="-118.9137954711914">
<ele>2543</ele>
<time>2016-07-29T05:27:18Z</time>
</trkpt>
<trkpt lat="36.98442077636719" lon="-118.91385650634766">
<ele>2543</ele>
<time>2016-07-29T05:27:24Z</time>
</trkpt>
<trkpt lat="36.98435974121094" lon="-118.91402435302734">
<ele>2546</ele>
<time>2016-07-29T05:27:31Z</time>
</trkpt>
<trkpt lat="36.98430633544922" lon="-118.9142074584961">
<ele>2549</ele>
<time>2016-07-29T05:27:39Z</time>
</trkpt>
<trkpt lat="36.98428726196289" lon="-118.91434478759766">
<ele>2545</ele>
<time>2016-07-29T05:27:49Z</time>
</trkpt>
<trkpt lat="36.984222412109375" lon="-118.91444396972656">
<ele>2543</ele>
<time>2016-07-29T05:27:55Z</time>
</trkpt>
<trkpt lat="36.984161376953125" lon="-118.9145278930664">
<ele>2544</ele>
<time>2016-07-29T05:28:03Z</time>
</trkpt>
<trkpt lat="36.984039306640625" lon="-118.91456604003906">
<ele>2547</ele>
<time>2016-07-29T05:28:09Z</time>
</trkpt>
<trkpt lat="36.98393249511719" lon="-118.91472625732422">
<ele>2543</ele>
<time>2016-07-29T05:28:17Z</time>
</trkpt>
<trkpt lat="36.983856201171875" lon="-118.91486358642578">
<ele>2545</ele>
<time>2016-07-29T05:28:24Z</time>
</trkpt>
<trkpt lat="36.983768463134766" lon="-118.91494750976563">
<ele>2546</ele>
<time>2016-07-29T05:28:31Z</time>
</trkpt>
<trkpt lat="36.983619689941406" lon="-118.91497039794922">
<ele>2543</ele>
<time>2016-07-29T05:28:40Z</time>
</trkpt>
<trkpt lat="36.9835319519043" lon="-118.91496276855469">
<ele>2543</ele>
<time>2016-07-29T05:28:48Z</time>
</trkpt>
<trkpt lat="36.98353576660156" lon="-118.91515350341797">
<ele>2545</ele>
<time>2016-07-29T05:28:55Z</time>
</trkpt>
<trkpt lat="36.98358154296875" lon="-118.91535186767578">
<ele>2543</ele>
<time>2016-07-29T05:29:02Z</time>
</trkpt>
<trkpt lat="36.98351287841797" lon="-118.9154281616211">
<ele>2538</ele>
<time>2016-07-29T05:29:08Z</time>
</trkpt>
<trkpt lat="36.98344421386719" lon="-118.91560363769531">
<ele>2538</ele>
<time>2016-07-29T05:29:16Z</time>
</trkpt>
<trkpt lat="36.983299255371094" lon="-118.9156723022461">
<ele>2533</ele>
<time>2016-07-29T05:29:24Z</time>
</trkpt>
<trkpt lat="36.98313522338867" lon="-118.91566467285156">
<ele>2529</ele>
<time>2016-07-29T05:29:32Z</time>
</trkpt>
<trkpt lat="36.983089447021484" lon="-118.9157485961914">
<ele>2526</ele>
<time>2016-07-29T05:29:40Z</time>
</trkpt>
<trkpt lat="36.98316955566406" lon="-118.91595458984375">
<ele>2528</ele>
<time>2016-07-29T05:29:47Z</time>
</trkpt>
<trkpt lat="36.98312759399414" lon="-118.91608428955078">
<ele>2530</ele>
<time>2016-07-29T05:29:54Z</time>
</trkpt>
<trkpt lat="36.983116149902344" lon="-118.9161376953125">
<ele>2530</ele>
<time>2016-07-29T05:30:02Z</time>
</trkpt>
<trkpt lat="36.98310089111328" lon="-118.91626739501953">
<ele>2535</ele>
<time>2016-07-29T05:30:12Z</time>
</trkpt>
<trkpt lat="36.98307800292969" lon="-118.9164047241211">
<ele>2533</ele>
<time>2016-07-29T05:30:19Z</time>
</trkpt>
<trkpt lat="36.983009338378906" lon="-118.91658020019531">
<ele>2531</ele>
<time>2016-07-29T05:30:27Z</time>
</trkpt>
<trkpt lat="36.98295974731445" lon="-118.91675567626953">
<ele>2531</ele>
<time>2016-07-29T05:30:35Z</time>
</trkpt>
<trkpt lat="36.9828987121582" lon="-118.91686248779297">
<ele>2531</ele>
<time>2016-07-29T05:30:43Z</time>
</trkpt>
<trkpt lat="36.98280334472656" lon="-118.91693878173828">
<ele>2530</ele>
<time>2016-07-29T05:30:49Z</time>
</trkpt>
<trkpt lat="36.982696533203125" lon="-118.9169921875">
<ele>2532</ele>
<time>2016-07-29T05:30:55Z</time>
</trkpt>
<trkpt lat="36.98261642456055" lon="-118.91705322265625">
<ele>2531</ele>
<time>2016-07-29T05:31:01Z</time>
</trkpt>
<trkpt lat="36.982574462890625" lon="-118.91724395751953">
<ele>2528</ele>
<time>2016-07-29T05:31:08Z</time>
</trkpt>
<trkpt lat="36.982479095458984" lon="-118.91727447509766">
<ele>2523</ele>
<time>2016-07-29T05:31:16Z</time>
</trkpt>
<trkpt lat="36.98240661621094" lon="-118.91741943359375">
<ele>2526</ele>
<time>2016-07-29T05:31:24Z</time>
</trkpt>
<trkpt lat="36.982398986816406" lon="-118.91754150390625">
<ele>2527</ele>
<time>2016-07-29T05:31:30Z</time>
</trkpt>
<trkpt lat="36.98233413696289" lon="-118.9176254272461">
<ele>2530</ele>
<time>2016-07-29T05:31:37Z</time>
</trkpt>
<trkpt lat="36.98223114013672" lon="-118.91764068603516">
<ele>2528</ele>
<time>2016-07-29T05:31:44Z</time>
</trkpt>
<trkpt lat="36.98210525512695" lon="-118.91771697998047">
<ele>2531</ele>
<time>2016-07-29T05:31:51Z</time>
</trkpt>
<trkpt lat="36.9820556640625" lon="-118.9178466796875">
<ele>2529</ele>
<time>2016-07-29T05:31:58Z</time>
</trkpt>
<trkpt lat="36.98204803466797" lon="-118.91802215576172">
<ele>2532</ele>
<time>2016-07-29T05:32:06Z</time>
</trkpt>
<trkpt lat="36.98195266723633" lon="-118.91803741455078">
<ele>2536</ele>
<time>2016-07-29T05:32:13Z</time>
</trkpt>
<trkpt lat="36.981834411621094" lon="-118.91800689697266">
<ele>2535</ele>
<time>2016-07-29T05:32:20Z</time>
</trkpt>
<trkpt lat="36.981712341308594" lon="-118.91796112060547">
<ele>2532</ele>
<time>2016-07-29T05:32:27Z</time>
</trkpt>
<trkpt lat="36.981651306152344" lon="-118.9180679321289">
<ele>2530</ele>
<time>2016-07-29T05:32:34Z</time>
</trkpt>
<trkpt lat="36.98155212402344" lon="-118.91812133789063">
<ele>2531</ele>
<time>2016-07-29T05:32:40Z</time>
</trkpt>
<trkpt lat="36.981536865234375" lon="-118.91825103759766">
<ele>2523</ele>
<time>2016-07-29T05:32:49Z</time>
</trkpt>
<trkpt lat="36.981468200683594" lon="-118.91835021972656">
<ele>2524</ele>
<time>2016-07-29T05:32:56Z</time>
</trkpt>
<trkpt lat="36.98141860961914" lon="-118.91846466064453">
<ele>2526</ele>
<time>2016-07-29T05:33:03Z</time>
</trkpt>
<trkpt lat="36.981468200683594" lon="-118.91864013671875">
<ele>2523</ele>
<time>2016-07-29T05:33:11Z</time>
</trkpt>
<trkpt lat="36.981449127197266" lon="-118.91875457763672">
<ele>2528</ele>
<time>2016-07-29T05:33:19Z</time>
</trkpt>
<trkpt lat="36.98143005371094" lon="-118.91883850097656">
<ele>2527</ele>
<time>2016-07-29T05:33:25Z</time>
</trkpt>
<trkpt lat="36.9813117980957" lon="-118.91886901855469">
<ele>2529</ele>
<time>2016-07-29T05:33:32Z</time>
</trkpt>
<trkpt lat="36.98124313354492" lon="-118.91893768310547">
<ele>2523</ele>
<time>2016-07-29T05:33:38Z</time>
</trkpt>
<trkpt lat="36.98117446899414" lon="-118.91903686523438">
<ele>2517</ele>
<time>2016-07-29T05:33:45Z</time>
</trkpt>
<trkpt lat="36.98112106323242" lon="-118.91914367675781">
<ele>2518</ele>
<time>2016-07-29T05:33:52Z</time>
</trkpt>
<trkpt lat="36.981117248535156" lon="-118.91927337646484">
<ele>2516</ele>
<time>2016-07-29T05:33:58Z</time>
</trkpt>
<trkpt lat="36.981021881103516" lon="-118.9193344116211">
<ele>2516</ele>
<time>2016-07-29T05:34:04Z</time>
</trkpt>
<trkpt lat="36.98092269897461" lon="-118.91938781738281">
<ele>2518</ele>
<time>2016-07-29T05:34:10Z</time>
</trkpt>
<trkpt lat="36.98082733154297" lon="-118.91946411132813">
<ele>2519</ele>
<time>2016-07-29T05:34:17Z</time>
</trkpt>
<trkpt lat="36.98075485229492" lon="-118.91957092285156">
<ele>2523</ele>
<time>2016-07-29T05:34:24Z</time>
</trkpt>
<trkpt lat="36.9807014465332" lon="-118.9195556640625">
<ele>2526</ele>
<time>2016-07-29T05:34:37Z</time>
</trkpt>
<trkpt lat="36.980655670166016" lon="-118.91957092285156">
<ele>2523</ele>
<time>2016-07-29T05:34:44Z</time>
</trkpt>
<trkpt lat="36.98054122924805" lon="-118.91960906982422">
<ele>2515</ele>
<time>2016-07-29T05:34:50Z</time>
</trkpt>
<trkpt lat="36.98053741455078" lon="-118.91967010498047">
<ele>2513</ele>
<time>2016-07-29T05:34:56Z</time>
</trkpt>
<trkpt lat="36.98050308227539" lon="-118.91970825195313">
<ele>2515</ele>
<time>2016-07-29T05:35:02Z</time>
</trkpt>
<trkpt lat="36.98035430908203" lon="-118.91975402832031">
<ele>2516</ele>
<time>2016-07-29T05:35:09Z</time>
</trkpt>
<trkpt lat="36.980167388916016" lon="-118.91976928710938">
<ele>2515</ele>
<time>2016-07-29T05:35:16Z</time>
</trkpt>
<trkpt lat="36.98002243041992" lon="-118.91983795166016">
<ele>2515</ele>
<time>2016-07-29T05:35:24Z</time>
</trkpt>
<trkpt lat="36.98004150390625" lon="-118.9200439453125">
<ele>2519</ele>
<time>2016-07-29T05:35:32Z</time>
</trkpt>
<trkpt lat="36.97991180419922" lon="-118.92005920410156">
<ele>2520</ele>
<time>2016-07-29T05:35:38Z</time>
</trkpt>
<trkpt lat="36.97968292236328" lon="-118.91998291015625">
<ele>2522</ele>
<time>2016-07-29T05:35:45Z</time>
</trkpt>
<trkpt lat="36.97956466674805" lon="-118.91998291015625">
<ele>2520</ele>
<time>2016-07-29T05:35:59Z</time>
</trkpt>
<trkpt lat="36.97944641113281" lon="-118.91999816894531">
<ele>2518</ele>
<time>2016-07-29T05:36:06Z</time>
</trkpt>
<trkpt lat="36.979347229003906" lon="-118.9200439453125">
<ele>2517</ele>
<time>2016-07-29T05:36:13Z</time>
</trkpt>
<trkpt lat="36.97933578491211" lon="-118.92010498046875">
<ele>2509</ele>
<time>2016-07-29T05:36:19Z</time>
</trkpt>
<trkpt lat="36.979225158691406" lon="-118.92019653320313">
<ele>2509</ele>
<time>2016-07-29T05:36:27Z</time>
</trkpt>
<trkpt lat="36.97917938232422" lon="-118.92025756835938">
<ele>2505</ele>
<time>2016-07-29T05:36:36Z</time>
</trkpt>
<trkpt lat="36.979164123535156" lon="-118.92032623291016">
<ele>2505</ele>
<time>2016-07-29T05:36:44Z</time>
</trkpt>
<trkpt lat="36.979087829589844" lon="-118.9203872680664">
<ele>2505</ele>
<time>2016-07-29T05:36:50Z</time>
</trkpt>
<trkpt lat="36.97895431518555" lon="-118.92050170898438">
<ele>2509</ele>
<time>2016-07-29T05:36:59Z</time>
</trkpt>
<trkpt lat="36.978858947753906" lon="-118.9205551147461">
<ele>2508</ele>
<time>2016-07-29T05:37:05Z</time>
</trkpt>
<trkpt lat="36.97875213623047" lon="-118.92059326171875">
<ele>2504</ele>
<time>2016-07-29T05:37:12Z</time>
</trkpt>
<trkpt lat="36.978580474853516" lon="-118.9205551147461">
<ele>2503</ele>
<time>2016-07-29T05:37:21Z</time>
</trkpt>
<trkpt lat="36.978485107421875" lon="-118.92052459716797">
<ele>2504</ele>
<time>2016-07-29T05:37:27Z</time>
</trkpt>
<trkpt lat="36.9783935546875" lon="-118.92057037353516">
<ele>2499</ele>
<time>2016-07-29T05:37:35Z</time>
</trkpt>
<trkpt lat="36.97822952270508" lon="-118.92062377929688">
<ele>2504</ele>
<time>2016-07-29T05:37:43Z</time>
</trkpt>
<trkpt lat="36.97806930541992" lon="-118.92060852050781">
<ele>2503</ele>
<time>2016-07-29T05:37:50Z</time>
</trkpt>
<trkpt lat="36.97798538208008" lon="-118.92066955566406">
<ele>2498</ele>
<time>2016-07-29T05:37:59Z</time>
</trkpt>
<trkpt lat="36.977928161621094" lon="-118.92076110839844">
<ele>2494</ele>
<time>2016-07-29T05:38:10Z</time>
</trkpt>
<trkpt lat="36.977821350097656" lon="-118.9207992553711">
<ele>2493</ele>
<time>2016-07-29T05:38:17Z</time>
</trkpt>
<trkpt lat="36.97770309448242" lon="-118.92080688476563">
<ele>2494</ele>
<time>2016-07-29T05:38:24Z</time>
</trkpt>
<trkpt lat="36.97762680053711" lon="-118.9208984375">
<ele>2486</ele>
<time>2016-07-29T05:38:35Z</time>
</trkpt>
<trkpt lat="36.9776611328125" lon="-118.9211196899414">
<ele>2485</ele>
<time>2016-07-29T05:38:43Z</time>
</trkpt>
<trkpt lat="36.97752380371094" lon="-118.92118835449219">
<ele>2486</ele>
<time>2016-07-29T05:38:50Z</time>
</trkpt>
<trkpt lat="36.97736740112305" lon="-118.92118835449219">
<ele>2490</ele>
<time>2016-07-29T05:39:00Z</time>
</trkpt>
<trkpt lat="36.97727966308594" lon="-118.92123413085938">
<ele>2493</ele>
<time>2016-07-29T05:39:08Z</time>
</trkpt>
<trkpt lat="36.977264404296875" lon="-118.92135620117188">
<ele>2489</ele>
<time>2016-07-29T05:39:14Z</time>
</trkpt>
<trkpt lat="36.97727584838867" lon="-118.92149353027344">
<ele>2488</ele>
<time>2016-07-29T05:39:21Z</time>
</trkpt>
<trkpt lat="36.97719955444336" lon="-118.92156982421875">
<ele>2487</ele>
<time>2016-07-29T05:39:28Z</time>
</trkpt>
<trkpt lat="36.97704315185547" lon="-118.92157745361328">
<ele>2483</ele>
<time>2016-07-29T05:39:35Z</time>
</trkpt>
<trkpt lat="36.976905822753906" lon="-118.92166137695313">
<ele>2485</ele>
<time>2016-07-29T05:39:43Z</time>
</trkpt>
<trkpt lat="36.97681427001953" lon="-118.92172241210938">
<ele>2486</ele>
<time>2016-07-29T05:39:49Z</time>
</trkpt>
<trkpt lat="36.97672653198242" lon="-118.9217758178711">
<ele>2483</ele>
<time>2016-07-29T05:39:55Z</time>
</trkpt>
<trkpt lat="36.97660446166992" lon="-118.92182159423828">
<ele>2479</ele>
<time>2016-07-29T05:40:04Z</time>
</trkpt>
<trkpt lat="36.97652053833008" lon="-118.92188262939453">
<ele>2479</ele>
<time>2016-07-29T05:40:11Z</time>
</trkpt>
<trkpt lat="36.976505279541016" lon="-118.9219970703125">
<ele>2474</ele>
<time>2016-07-29T05:40:19Z</time>
</trkpt>
<trkpt lat="36.976436614990234" lon="-118.92210388183594">
<ele>2465</ele>
<time>2016-07-29T05:40:28Z</time>
</trkpt>
<trkpt lat="36.976356506347656" lon="-118.92221069335938">
<ele>2466</ele>
<time>2016-07-29T05:40:34Z</time>
</trkpt>
<trkpt lat="36.976322174072266" lon="-118.92237854003906">
<ele>2468</ele>
<time>2016-07-29T05:40:41Z</time>
</trkpt>
<trkpt lat="36.976318359375" lon="-118.92249298095703">
<ele>2470</ele>
<time>2016-07-29T05:40:49Z</time>
</trkpt>
<trkpt lat="36.976314544677734" lon="-118.92255401611328">
<ele>2473</ele>
<time>2016-07-29T05:41:08Z</time>
</trkpt>
<trkpt lat="36.97633743286133" lon="-118.92262268066406">
<ele>2471</ele>
<time>2016-07-29T05:41:15Z</time>
</trkpt>
<trkpt lat="36.97636032104492" lon="-118.92273712158203">
<ele>2473</ele>
<time>2016-07-29T05:41:21Z</time>
</trkpt>
<trkpt lat="36.976253509521484" lon="-118.92279052734375">
<ele>2472</ele>
<time>2016-07-29T05:41:28Z</time>
</trkpt>
<trkpt lat="36.97618103027344" lon="-118.92286682128906">
<ele>2465</ele>
<time>2016-07-29T05:41:34Z</time>
</trkpt>
<trkpt lat="36.97612762451172" lon="-118.9229736328125">
<ele>2466</ele>
<time>2016-07-29T05:41:43Z</time>
</trkpt>
<trkpt lat="36.97603225708008" lon="-118.92298126220703">
<ele>2467</ele>
<time>2016-07-29T05:41:50Z</time>
</trkpt>
<trkpt lat="36.975948333740234" lon="-118.92304992675781">
<ele>2459</ele>
<time>2016-07-29T05:42:00Z</time>
</trkpt>
<trkpt lat="36.97591781616211" lon="-118.92317199707031">
<ele>2457</ele>
<time>2016-07-29T05:42:08Z</time>
</trkpt>
<trkpt lat="36.975826263427734" lon="-118.92323303222656">
<ele>2456</ele>
<time>2016-07-29T05:42:17Z</time>
</trkpt>
<trkpt lat="36.97572708129883" lon="-118.9233169555664">
<ele>2451</ele>
<time>2016-07-29T05:42:24Z</time>
</trkpt>
<trkpt lat="36.975563049316406" lon="-118.92332458496094">
<ele>2455</ele>
<time>2016-07-29T05:42:33Z</time>
</trkpt>
<trkpt lat="36.975460052490234" lon="-118.92333221435547">
<ele>2456</ele>
<time>2016-07-29T05:42:41Z</time>
</trkpt>
<trkpt lat="36.975364685058594" lon="-118.92337799072266">
<ele>2453</ele>
<time>2016-07-29T05:42:49Z</time>
</trkpt>
<trkpt lat="36.975250244140625" lon="-118.92342376708984">
<ele>2453</ele>
<time>2016-07-29T05:42:57Z</time>
</trkpt>
<trkpt lat="36.97514724731445" lon="-118.92338562011719">
<ele>2452</ele>
<time>2016-07-29T05:43:04Z</time>
</trkpt>
<trkpt lat="36.975067138671875" lon="-118.92346954345703">
<ele>2443</ele>
<time>2016-07-29T05:43:11Z</time>
</trkpt>
<trkpt lat="36.97498321533203" lon="-118.92356872558594">
<ele>2445</ele>
<time>2016-07-29T05:43:18Z</time>
</trkpt>
<trkpt lat="36.974918365478516" lon="-118.92363739013672">
<ele>2442</ele>
<time>2016-07-29T05:43:26Z</time>
</trkpt>
<trkpt lat="36.97488784790039" lon="-118.92375183105469">
<ele>2440</ele>
<time>2016-07-29T05:43:33Z</time>
</trkpt>
<trkpt lat="36.97489547729492" lon="-118.92388916015625">
<ele>2432</ele>
<time>2016-07-29T05:43:40Z</time>
</trkpt>
<trkpt lat="36.97489547729492" lon="-118.92401885986328">
<ele>2427</ele>
<time>2016-07-29T05:43:47Z</time>
</trkpt>
<trkpt lat="36.974857330322266" lon="-118.92411804199219">
<ele>2426</ele>
<time>2016-07-29T05:43:56Z</time>
</trkpt>
<trkpt lat="36.974815368652344" lon="-118.92424011230469">
<ele>2424</ele>
<time>2016-07-29T05:44:02Z</time>
</trkpt>
<trkpt lat="36.974788665771484" lon="-118.92436981201172">
<ele>2423</ele>
<time>2016-07-29T05:44:09Z</time>
</trkpt>
<trkpt lat="36.9747200012207" lon="-118.92447662353516">
<ele>2428</ele>
<time>2016-07-29T05:44:15Z</time>
</trkpt>
<trkpt lat="36.97465515136719" lon="-118.924560546875">
<ele>2430</ele>
<time>2016-07-29T05:44:21Z</time>
</trkpt>
<trkpt lat="36.97459411621094" lon="-118.92469024658203">
<ele>2430</ele>
<time>2016-07-29T05:44:27Z</time>
</trkpt>
<trkpt lat="36.97454071044922" lon="-118.9248046875">
<ele>2428</ele>
<time>2016-07-29T05:44:33Z</time>
</trkpt>
<trkpt lat="36.974510192871094" lon="-118.92491912841797">
<ele>2431</ele>
<time>2016-07-29T05:44:40Z</time>
</trkpt>
<trkpt lat="36.97443771362305" lon="-118.92500305175781">
<ele>2433</ele>
<time>2016-07-29T05:44:46Z</time>
</trkpt>
<trkpt lat="36.9743537902832" lon="-118.92506408691406">
<ele>2432</ele>
<time>2016-07-29T05:44:53Z</time>
</trkpt>
<trkpt lat="36.97429275512695" lon="-118.9251708984375">
<ele>2433</ele>
<time>2016-07-29T05:45:02Z</time>
</trkpt>
<trkpt lat="36.9742317199707" lon="-118.92526245117188">
<ele>2434</ele>
<time>2016-07-29T05:45:10Z</time>
</trkpt>
<trkpt lat="36.97421646118164" lon="-118.92539978027344">
<ele>2427</ele>
<time>2016-07-29T05:45:16Z</time>
</trkpt>
<trkpt lat="36.97419357299805" lon="-118.92559814453125">
<ele>2422</ele>
<time>2016-07-29T05:45:23Z</time>
</trkpt>
<trkpt lat="36.97410202026367" lon="-118.92575073242188">
<ele>2421</ele>
<time>2016-07-29T05:45:34Z</time>
</trkpt>
<trkpt lat="36.974037170410156" lon="-118.92588806152344">
<ele>2423</ele>
<time>2016-07-29T05:45:42Z</time>
</trkpt>
<trkpt lat="36.973941802978516" lon="-118.92604064941406">
<ele>2423</ele>
<time>2016-07-29T05:45:50Z</time>
</trkpt>
<trkpt lat="36.97389221191406" lon="-118.9261474609375">
<ele>2424</ele>
<time>2016-07-29T05:45:56Z</time>
</trkpt>
<trkpt lat="36.97380828857422" lon="-118.92620086669922">
<ele>2429</ele>
<time>2016-07-29T05:46:05Z</time>
</trkpt>
<trkpt lat="36.973751068115234" lon="-118.92630767822266">
<ele>2430</ele>
<time>2016-07-29T05:46:14Z</time>
</trkpt>
<trkpt lat="36.97368621826172" lon="-118.92639923095703">
<ele>2429</ele>
<time>2016-07-29T05:46:20Z</time>
</trkpt>
<trkpt lat="36.973575592041016" lon="-118.92647552490234">
<ele>2430</ele>
<time>2016-07-29T05:46:27Z</time>
</trkpt>
<trkpt lat="36.973480224609375" lon="-118.92654418945313">
<ele>2427</ele>
<time>2016-07-29T05:46:33Z</time>
</trkpt>
<trkpt lat="36.97343063354492" lon="-118.92664337158203">
<ele>2428</ele>
<time>2016-07-29T05:46:39Z</time>
</trkpt>
<trkpt lat="36.9733772277832" lon="-118.9267807006836">
<ele>2426</ele>
<time>2016-07-29T05:46:45Z</time>
</trkpt>
<trkpt lat="36.97327423095703" lon="-118.92683410644531">
<ele>2425</ele>
<time>2016-07-29T05:46:52Z</time>
</trkpt>
<trkpt lat="36.973182678222656" lon="-118.92691040039063">
<ele>2425</ele>
<time>2016-07-29T05:46:58Z</time>
</trkpt>
<trkpt lat="36.97309112548828" lon="-118.92696380615234">
<ele>2426</ele>
<time>2016-07-29T05:47:05Z</time>
</trkpt>
<trkpt lat="36.972991943359375" lon="-118.92703247070313">
<ele>2428</ele>
<time>2016-07-29T05:47:13Z</time>
</trkpt>
<trkpt lat="36.97294998168945" lon="-118.92713928222656">
<ele>2424</ele>
<time>2016-07-29T05:47:20Z</time>
</trkpt>
<trkpt lat="36.97285461425781" lon="-118.92721557617188">
<ele>2423</ele>
<time>2016-07-29T05:47:28Z</time>
</trkpt>
<trkpt lat="36.9727668762207" lon="-118.92729187011719">
<ele>2422</ele>
<time>2016-07-29T05:47:34Z</time>
</trkpt>
<trkpt lat="36.972721099853516" lon="-118.92740631103516">
<ele>2423</ele>
<time>2016-07-29T05:47:41Z</time>
</trkpt>
<trkpt lat="36.97269058227539" lon="-118.9275131225586">
<ele>2420</ele>
<time>2016-07-29T05:47:48Z</time>
</trkpt>
<trkpt lat="36.97264862060547" lon="-118.92765808105469">
<ele>2418</ele>
<time>2016-07-29T05:47:57Z</time>
</trkpt>
<trkpt lat="36.972572326660156" lon="-118.9277572631836">
<ele>2419</ele>
<time>2016-07-29T05:48:04Z</time>
</trkpt>
<trkpt lat="36.972503662109375" lon="-118.92786407470703">
<ele>2416</ele>
<time>2016-07-29T05:48:11Z</time>
</trkpt>
<trkpt lat="36.972450256347656" lon="-118.927978515625">
<ele>2417</ele>
<time>2016-07-29T05:48:17Z</time>
</trkpt>
<trkpt lat="36.97237014770508" lon="-118.92805480957031">
<ele>2414</ele>
<time>2016-07-29T05:48:25Z</time>
</trkpt>
<trkpt lat="36.9722785949707" lon="-118.92810821533203">
<ele>2414</ele>
<time>2016-07-29T05:48:31Z</time>
</trkpt>
<trkpt lat="36.97219467163086" lon="-118.92816925048828">
<ele>2413</ele>
<time>2016-07-29T05:48:39Z</time>
</trkpt>
<trkpt lat="36.972145080566406" lon="-118.92827606201172">
<ele>2413</ele>
<time>2016-07-29T05:48:45Z</time>
</trkpt>
<trkpt lat="36.972076416015625" lon="-118.92843627929688">
<ele>2412</ele>
<time>2016-07-29T05:48:53Z</time>
</trkpt>
<trkpt lat="36.97201156616211" lon="-118.92852783203125">
<ele>2411</ele>
<time>2016-07-29T05:49:02Z</time>
</trkpt>
<trkpt lat="36.97195816040039" lon="-118.92863464355469">
<ele>2407</ele>
<time>2016-07-29T05:49:09Z</time>
</trkpt>
<trkpt lat="36.97195053100586" lon="-118.9286880493164">
<ele>2411</ele>
<time>2016-07-29T05:49:17Z</time>
</trkpt>
<trkpt lat="36.97187423706055" lon="-118.92877960205078">
<ele>2413</ele>
<time>2016-07-29T05:49:24Z</time>
</trkpt>
<trkpt lat="36.971839904785156" lon="-118.92888641357422">
<ele>2411</ele>
<time>2016-07-29T05:49:35Z</time>
</trkpt>
<trkpt lat="36.9718132019043" lon="-118.92902374267578">
<ele>2411</ele>
<time>2016-07-29T05:49:43Z</time>
</trkpt>
<trkpt lat="36.971778869628906" lon="-118.92913055419922">
<ele>2411</ele>
<time>2016-07-29T05:49:51Z</time>
</trkpt>
<trkpt lat="36.97178268432617" lon="-118.92926025390625">
<ele>2405</ele>
<time>2016-07-29T05:49:59Z</time>
</trkpt>
<trkpt lat="36.97179412841797" lon="-118.92931365966797">
<ele>2405</ele>
<time>2016-07-29T05:50:05Z</time>
</trkpt>
<trkpt lat="36.97184371948242" lon="-118.92943572998047">
<ele>2399</ele>
<time>2016-07-29T05:50:12Z</time>
</trkpt>
<trkpt lat="36.97187423706055" lon="-118.9295425415039">
<ele>2398</ele>
<time>2016-07-29T05:50:20Z</time>
</trkpt>
<trkpt lat="36.971893310546875" lon="-118.9297103881836">
<ele>2400</ele>
<time>2016-07-29T05:50:27Z</time>
</trkpt>
<trkpt lat="36.971927642822266" lon="-118.92984008789063">
<ele>2402</ele>
<time>2016-07-29T05:50:33Z</time>
</trkpt>
<trkpt lat="36.97193145751953" lon="-118.92997741699219">
<ele>2412</ele>
<time>2016-07-29T05:50:54Z</time>
</trkpt>
<trkpt lat="36.97201919555664" lon="-118.9300537109375">
<ele>2412</ele>
<time>2016-07-29T05:51:02Z</time>
</trkpt>
<trkpt lat="36.9720573425293" lon="-118.93009948730469">
<ele>2408</ele>
<time>2016-07-29T05:51:08Z</time>
</trkpt>
<trkpt lat="36.97212600708008" lon="-118.9301986694336">
<ele>2409</ele>
<time>2016-07-29T05:51:14Z</time>
</trkpt>
<trkpt lat="36.97222137451172" lon="-118.93026733398438">
<ele>2407</ele>
<time>2016-07-29T05:51:21Z</time>
</trkpt>
<trkpt lat="36.97230911254883" lon="-118.93034362792969">
<ele>2406</ele>
<time>2016-07-29T05:51:28Z</time>
</trkpt>
<trkpt lat="36.972408294677734" lon="-118.93038940429688">
<ele>2408</ele>
<time>2016-07-29T05:51:37Z</time>
</trkpt>
<trkpt lat="36.97248458862305" lon="-118.93047332763672">
<ele>2406</ele>
<time>2016-07-29T05:51:45Z</time>
</trkpt>
<trkpt lat="36.97256088256836" lon="-118.9305419921875">
<ele>2405</ele>
<time>2016-07-29T05:51:55Z</time>
</trkpt>
<trkpt lat="36.972591400146484" lon="-118.93058776855469">
<ele>2402</ele>
<time>2016-07-29T05:52:01Z</time>
</trkpt>
<trkpt lat="36.97267150878906" lon="-118.93069458007813">
<ele>2402</ele>
<time>2016-07-29T05:52:08Z</time>
</trkpt>
<trkpt lat="36.97270584106445" lon="-118.9308090209961">
<ele>2401</ele>
<time>2016-07-29T05:52:17Z</time>
</trkpt>
<trkpt lat="36.972740173339844" lon="-118.93092346191406">
<ele>2403</ele>
<time>2016-07-29T05:52:24Z</time>
</trkpt>
<trkpt lat="36.9727668762207" lon="-118.93104553222656">
<ele>2406</ele>
<time>2016-07-29T05:52:31Z</time>
</trkpt>
<trkpt lat="36.972755432128906" lon="-118.9311752319336">
<ele>2410</ele>
<time>2016-07-29T05:52:40Z</time>
</trkpt>
<trkpt lat="36.97276306152344" lon="-118.93131256103516">
<ele>2407</ele>
<time>2016-07-29T05:52:48Z</time>
</trkpt>
<trkpt lat="36.97276306152344" lon="-118.93144226074219">
<ele>2405</ele>
<time>2016-07-29T05:52:55Z</time>
</trkpt>
<trkpt lat="36.97275924682617" lon="-118.93156433105469">
<ele>2403</ele>
<time>2016-07-29T05:53:03Z</time>
</trkpt>
<trkpt lat="36.972808837890625" lon="-118.93168640136719">
<ele>2401</ele>
<time>2016-07-29T05:53:10Z</time>
</trkpt>
<trkpt lat="36.97285461425781" lon="-118.93181610107422">
<ele>2400</ele>
<time>2016-07-29T05:53:19Z</time>
</trkpt>
<trkpt lat="36.972923278808594" lon="-118.93199157714844">
<ele>2398</ele>
<time>2016-07-29T05:53:28Z</time>
</trkpt>
<trkpt lat="36.972923278808594" lon="-118.93212127685547">
<ele>2402</ele>
<time>2016-07-29T05:53:38Z</time>
</trkpt>
<trkpt lat="36.972904205322266" lon="-118.9322280883789">
<ele>2406</ele>
<time>2016-07-29T05:53:46Z</time>
</trkpt>
<trkpt lat="36.97287368774414" lon="-118.93228912353516">
<ele>2404</ele>
<time>2016-07-29T05:53:52Z</time>
</trkpt>
<trkpt lat="36.97290802001953" lon="-118.93240356445313">
<ele>2399</ele>
<time>2016-07-29T05:53:59Z</time>
</trkpt>
<trkpt lat="36.972957611083984" lon="-118.93252563476563">
<ele>2395</ele>
<time>2016-07-29T05:54:08Z</time>
</trkpt>
<trkpt lat="36.973018646240234" lon="-118.93262481689453">
<ele>2395</ele>
<time>2016-07-29T05:54:16Z</time>
</trkpt>
<trkpt lat="36.973087310791016" lon="-118.93268585205078">
<ele>2388</ele>
<time>2016-07-29T05:54:24Z</time>
</trkpt>
<trkpt lat="36.97311019897461" lon="-118.93282318115234">
<ele>2386</ele>
<time>2016-07-29T05:54:30Z</time>
</trkpt>
<trkpt lat="36.97309112548828" lon="-118.9329605102539">
<ele>2389</ele>
<time>2016-07-29T05:54:38Z</time>
</trkpt>
<trkpt lat="36.973060607910156" lon="-118.93309783935547">
<ele>2388</ele>
<time>2016-07-29T05:54:44Z</time>
</trkpt>
<trkpt lat="36.973060607910156" lon="-118.93316650390625">
<ele>2388</ele>
<time>2016-07-29T05:54:51Z</time>
</trkpt>
<trkpt lat="36.97304153442383" lon="-118.93329620361328">
<ele>2383</ele>
<time>2016-07-29T05:54:59Z</time>
</trkpt>
<trkpt lat="36.97303009033203" lon="-118.93344116210938">
<ele>2383</ele>
<time>2016-07-29T05:55:05Z</time>
</trkpt>
<trkpt lat="36.973026275634766" lon="-118.9335708618164">
<ele>2383</ele>
<time>2016-07-29T05:55:11Z</time>
</trkpt>
<trkpt lat="36.97298812866211" lon="-118.93370056152344">
<ele>2383</ele>
<time>2016-07-29T05:55:17Z</time>
</trkpt>
<trkpt lat="36.97297286987305" lon="-118.93380737304688">
<ele>2389</ele>
<time>2016-07-29T05:55:24Z</time>
</trkpt>
<trkpt lat="36.972957611083984" lon="-118.93395233154297">
<ele>2389</ele>
<time>2016-07-29T05:55:30Z</time>
</trkpt>
<trkpt lat="36.97295379638672" lon="-118.93408966064453">
<ele>2387</ele>
<time>2016-07-29T05:55:37Z</time>
</trkpt>
<trkpt lat="36.97294616699219" lon="-118.93421173095703">
<ele>2383</ele>
<time>2016-07-29T05:55:45Z</time>
</trkpt>
<trkpt lat="36.97298812866211" lon="-118.93434143066406">
<ele>2380</ele>
<time>2016-07-29T05:55:51Z</time>
</trkpt>
<trkpt lat="36.9730339050293" lon="-118.93447875976563">
<ele>2382</ele>
<time>2016-07-29T05:55:58Z</time>
</trkpt>
<trkpt lat="36.973060607910156" lon="-118.93460845947266">
<ele>2385</ele>
<time>2016-07-29T05:56:07Z</time>
</trkpt>
<trkpt lat="36.97311019897461" lon="-118.93473052978516">
<ele>2377</ele>
<time>2016-07-29T05:56:20Z</time>
</trkpt>
<trkpt lat="36.97317886352539" lon="-118.93487548828125">
<ele>2376</ele>
<time>2016-07-29T05:56:28Z</time>
</trkpt>
<trkpt lat="36.973243713378906" lon="-118.93499755859375">
<ele>2373</ele>
<time>2016-07-29T05:56:35Z</time>
</trkpt>
<trkpt lat="36.97331237792969" lon="-118.93508911132813">
<ele>2372</ele>
<time>2016-07-29T05:56:42Z</time>
</trkpt>
<trkpt lat="36.97342300415039" lon="-118.93524932861328">
<ele>2370</ele>
<time>2016-07-29T05:56:52Z</time>
</trkpt>
<trkpt lat="36.973453521728516" lon="-118.93537139892578">
<ele>2374</ele>
<time>2016-07-29T05:57:04Z</time>
</trkpt>
<trkpt lat="36.973506927490234" lon="-118.93547821044922">
<ele>2369</ele>
<time>2016-07-29T05:57:14Z</time>
</trkpt>
<trkpt lat="36.973609924316406" lon="-118.93562316894531">
<ele>2368</ele>
<time>2016-07-29T05:57:20Z</time>
</trkpt>
<trkpt lat="36.973690032958984" lon="-118.93576049804688">
<ele>2371</ele>
<time>2016-07-29T05:57:32Z</time>
</trkpt>
<trkpt lat="36.973785400390625" lon="-118.93592071533203">
<ele>2369</ele>
<time>2016-07-29T05:57:41Z</time>
</trkpt>
<trkpt lat="36.973846435546875" lon="-118.93601989746094">
<ele>2366</ele>
<time>2016-07-29T05:57:48Z</time>
</trkpt>
<trkpt lat="36.97392272949219" lon="-118.93611145019531">
<ele>2365</ele>
<time>2016-07-29T05:57:57Z</time>
</trkpt>
<trkpt lat="36.973960876464844" lon="-118.93622589111328">
<ele>2369</ele>
<time>2016-07-29T05:58:06Z</time>
</trkpt>
<trkpt lat="36.97399139404297" lon="-118.93629455566406">
<ele>2368</ele>
<time>2016-07-29T05:58:12Z</time>
</trkpt>
<trkpt lat="36.974124908447266" lon="-118.93638610839844">
<ele>2369</ele>
<time>2016-07-29T05:58:20Z</time>
</trkpt>
<trkpt lat="36.974205017089844" lon="-118.93649291992188">
<ele>2371</ele>
<time>2016-07-29T05:58:28Z</time>
</trkpt>
<trkpt lat="36.97422409057617" lon="-118.9365463256836">
<ele>2372</ele>
<time>2016-07-29T05:58:35Z</time>
</trkpt>
<trkpt lat="36.97423553466797" lon="-118.93661499023438">
<ele>2370</ele>
<time>2016-07-29T05:58:41Z</time>
</trkpt>
<trkpt lat="36.97422790527344" lon="-118.93672943115234">
<ele>2371</ele>
<time>2016-07-29T05:58:52Z</time>
</trkpt>
<trkpt lat="36.974212646484375" lon="-118.93685913085938">
<ele>2367</ele>
<time>2016-07-29T05:59:03Z</time>
</trkpt>
<trkpt lat="36.97419738769531" lon="-118.9369888305664">
<ele>2369</ele>
<time>2016-07-29T05:59:09Z</time>
</trkpt>
<trkpt lat="36.97410583496094" lon="-118.93714904785156">
<ele>2373</ele>
<time>2016-07-29T05:59:19Z</time>
</trkpt>
<trkpt lat="36.97407531738281" lon="-118.93724060058594">
<ele>2373</ele>
<time>2016-07-29T05:59:26Z</time>
</trkpt>
<trkpt lat="36.97398376464844" lon="-118.93730926513672">
<ele>2371</ele>
<time>2016-07-29T05:59:35Z</time>
</trkpt>
<trkpt lat="36.97392654418945" lon="-118.9374008178711">
<ele>2373</ele>
<time>2016-07-29T05:59:48Z</time>
</trkpt>
<trkpt lat="36.97391891479492" lon="-118.93745422363281">
<ele>2372</ele>
<time>2016-07-29T05:59:56Z</time>
</trkpt>
<trkpt lat="36.97393035888672" lon="-118.93751525878906">
<ele>2367</ele>
<time>2016-07-29T06:00:04Z</time>
</trkpt>
<trkpt lat="36.973915100097656" lon="-118.93763732910156">
<ele>2366</ele>
<time>2016-07-29T06:00:13Z</time>
</trkpt>
<trkpt lat="36.97389602661133" lon="-118.93775177001953">
<ele>2372</ele>
<time>2016-07-29T06:00:30Z</time>
</trkpt>
<trkpt lat="36.97386932373047" lon="-118.93781280517578">
<ele>2372</ele>
<time>2016-07-29T06:00:36Z</time>
</trkpt>
<trkpt lat="36.97384262084961" lon="-118.93791961669922">
<ele>2373</ele>
<time>2016-07-29T06:00:44Z</time>
</trkpt>
<trkpt lat="36.973777770996094" lon="-118.93801879882813">
<ele>2373</ele>
<time>2016-07-29T06:00:51Z</time>
</trkpt>
<trkpt lat="36.973731994628906" lon="-118.93812561035156">
<ele>2378</ele>
<time>2016-07-29T06:01:01Z</time>
</trkpt>
<trkpt lat="36.97368240356445" lon="-118.93824768066406">
<ele>2380</ele>
<time>2016-07-29T06:01:09Z</time>
</trkpt>
<trkpt lat="36.973655700683594" lon="-118.93836975097656">
<ele>2378</ele>
<time>2016-07-29T06:01:15Z</time>
</trkpt>
<trkpt lat="36.973690032958984" lon="-118.9384765625">
<ele>2379</ele>
<time>2016-07-29T06:01:21Z</time>
</trkpt>
<trkpt lat="36.97372817993164" lon="-118.93859100341797">
<ele>2373</ele>
<time>2016-07-29T06:01:28Z</time>
</trkpt>
<trkpt lat="36.973777770996094" lon="-118.93871307373047">
<ele>2372</ele>
<time>2016-07-29T06:01:35Z</time>
</trkpt>
<trkpt lat="36.973819732666016" lon="-118.93881225585938">
<ele>2371</ele>
<time>2016-07-29T06:01:43Z</time>
</trkpt>
<trkpt lat="36.973793029785156" lon="-118.93894958496094">
<ele>2372</ele>
<time>2016-07-29T06:01:51Z</time>
</trkpt>
<trkpt lat="36.97370529174805" lon="-118.93900299072266">
<ele>2372</ele>
<time>2016-07-29T06:01:59Z</time>
</trkpt>
<trkpt lat="36.97371292114258" lon="-118.93907928466797">
<ele>2366</ele>
<time>2016-07-29T06:02:05Z</time>
</trkpt>
<trkpt lat="36.97374725341797" lon="-118.939208984375">
<ele>2366</ele>
<time>2016-07-29T06:02:11Z</time>
</trkpt>
<trkpt lat="36.973690032958984" lon="-118.93932342529297">
<ele>2366</ele>
<time>2016-07-29T06:02:17Z</time>
</trkpt>
<trkpt lat="36.973670959472656" lon="-118.93951416015625">
<ele>2363</ele>
<time>2016-07-29T06:02:24Z</time>
</trkpt>
<trkpt lat="36.97372055053711" lon="-118.93962860107422">
<ele>2363</ele>
<time>2016-07-29T06:02:30Z</time>
</trkpt>
<trkpt lat="36.97369384765625" lon="-118.93975067138672">
<ele>2363</ele>
<time>2016-07-29T06:02:36Z</time>
</trkpt>
<trkpt lat="36.973663330078125" lon="-118.93988800048828">
<ele>2360</ele>
<time>2016-07-29T06:02:44Z</time>
</trkpt>
<trkpt lat="36.97367477416992" lon="-118.94001007080078">
<ele>2358</ele>
<time>2016-07-29T06:02:51Z</time>
</trkpt>
<trkpt lat="36.9736328125" lon="-118.94012451171875">
<ele>2354</ele>
<time>2016-07-29T06:02:58Z</time>
</trkpt>
<trkpt lat="36.97360610961914" lon="-118.94023132324219">
<ele>2350</ele>
<time>2016-07-29T06:03:05Z</time>
</trkpt>
<trkpt lat="36.97361755371094" lon="-118.94035339355469">
<ele>2345</ele>
<time>2016-07-29T06:03:12Z</time>
</trkpt>
<trkpt lat="36.973690032958984" lon="-118.94046020507813">
<ele>2342</ele>
<time>2016-07-29T06:03:19Z</time>
</trkpt>
<trkpt lat="36.97372817993164" lon="-118.94054412841797">
<ele>2337</ele>
<time>2016-07-29T06:03:26Z</time>
</trkpt>
<trkpt lat="36.973777770996094" lon="-118.94066619873047">
<ele>2335</ele>
<time>2016-07-29T06:03:32Z</time>
</trkpt>
<trkpt lat="36.97382354736328" lon="-118.9407730102539">
<ele>2335</ele>
<time>2016-07-29T06:03:41Z</time>
</trkpt>
<trkpt lat="36.973880767822266" lon="-118.94087219238281">
<ele>2328</ele>
<time>2016-07-29T06:03:48Z</time>
</trkpt>
<trkpt lat="36.97389602661133" lon="-118.94093322753906">
<ele>2329</ele>
<time>2016-07-29T06:03:54Z</time>
</trkpt>
<trkpt lat="36.97397232055664" lon="-118.94102478027344">
<ele>2330</ele>
<time>2016-07-29T06:04:01Z</time>
</trkpt>
<trkpt lat="36.9740104675293" lon="-118.94115447998047">
<ele>2326</ele>
<time>2016-07-29T06:04:08Z</time>
</trkpt>
<trkpt lat="36.974082946777344" lon="-118.94124603271484">
<ele>2328</ele>
<time>2016-07-29T06:04:15Z</time>
</trkpt>
<trkpt lat="36.974117279052734" lon="-118.94136047363281">
<ele>2328</ele>
<time>2016-07-29T06:04:21Z</time>
</trkpt>
<trkpt lat="36.97416687011719" lon="-118.94145965576172">
<ele>2327</ele>
<time>2016-07-29T06:04:29Z</time>
</trkpt>
<trkpt lat="36.97420120239258" lon="-118.94158935546875">
<ele>2327</ele>
<time>2016-07-29T06:04:36Z</time>
</trkpt>
<trkpt lat="36.97418975830078" lon="-118.94171905517578">
<ele>2330</ele>
<time>2016-07-29T06:04:43Z</time>
</trkpt>
<trkpt lat="36.97412109375" lon="-118.94181060791016">
<ele>2328</ele>
<time>2016-07-29T06:04:50Z</time>
</trkpt>
<trkpt lat="36.97408676147461" lon="-118.94193267822266">
<ele>2323</ele>
<time>2016-07-29T06:04:56Z</time>
</trkpt>
<trkpt lat="36.97408676147461" lon="-118.94207000732422">
<ele>2319</ele>
<time>2016-07-29T06:05:03Z</time>
</trkpt>
<trkpt lat="36.974063873291016" lon="-118.94219970703125">
<ele>2319</ele>
<time>2016-07-29T06:05:13Z</time>
</trkpt>
<trkpt lat="36.97403335571289" lon="-118.94232177734375">
<ele>2317</ele>
<time>2016-07-29T06:05:20Z</time>
</trkpt>
<trkpt lat="36.97403335571289" lon="-118.9424819946289">
<ele>2315</ele>
<time>2016-07-29T06:05:28Z</time>
</trkpt>
<trkpt lat="36.974002838134766" lon="-118.94258880615234">
<ele>2310</ele>
<time>2016-07-29T06:05:38Z</time>
</trkpt>
<trkpt lat="36.973968505859375" lon="-118.9426498413086">
<ele>2309</ele>
<time>2016-07-29T06:05:44Z</time>
</trkpt>
<trkpt lat="36.973960876464844" lon="-118.9427719116211">
<ele>2302</ele>
<time>2016-07-29T06:05:52Z</time>
</trkpt>
<trkpt lat="36.97395324707031" lon="-118.94282531738281">
<ele>2303</ele>
<time>2016-07-29T06:06:03Z</time>
</trkpt>
<trkpt lat="36.97396469116211" lon="-118.9428939819336">
<ele>2301</ele>
<time>2016-07-29T06:06:09Z</time>
</trkpt>
</trkseg>
</trk>
<trk>
<name><![CDATA[10041530]]></name>
<number>12</number>
<extensions><topografix:color>ff000066</topografix:color></extensions>
<trkseg>
<trkpt lat="35.32421112060547" lon="-119.08662414550781">
<ele>87</ele>
<time>2016-10-04T22:31:02Z</time>
</trkpt>
<trkpt lat="35.32421875" lon="-119.0865707397461">
<ele>79</ele>
<time>2016-10-04T22:31:14Z</time>
</trkpt>
<trkpt lat="35.32417678833008" lon="-119.08659362792969">
<ele>79</ele>
<time>2016-10-04T22:32:04Z</time>
</trkpt>
<trkpt lat="35.324134826660156" lon="-119.08661651611328">
<ele>85</ele>
<time>2016-10-04T22:33:02Z</time>
</trkpt>
<trkpt lat="35.32417678833008" lon="-119.08659362792969">
<ele>86</ele>
<time>2016-10-04T22:33:47Z</time>
</trkpt>
<trkpt lat="35.32413101196289" lon="-119.08658599853516">
<ele>86</ele>
<time>2016-10-04T22:34:56Z</time>
</trkpt>
<trkpt lat="35.3240852355957" lon="-119.08657836914063">
<ele>106</ele>
<time>2016-10-04T22:35:41Z</time>
</trkpt>
<trkpt lat="35.32415008544922" lon="-119.08658599853516">
<ele>123</ele>
<time>2016-10-04T22:36:11Z</time>
</trkpt>
<trkpt lat="35.324195861816406" lon="-119.08657836914063">
<ele>116</ele>
<time>2016-10-04T22:36:37Z</time>
</trkpt>
<trkpt lat="35.32416534423828" lon="-119.08663940429688">
<ele>73</ele>
<time>2016-10-04T22:38:48Z</time>
</trkpt>
<trkpt lat="35.324153900146484" lon="-119.08657836914063">
<ele>77</ele>
<time>2016-10-04T22:39:10Z</time>
</trkpt>
<trkpt lat="35.324134826660156" lon="-119.08663940429688">
<ele>76</ele>
<time>2016-10-04T22:41:38Z</time>
</trkpt>
<trkpt lat="35.32410430908203" lon="-119.08676147460938">
<ele>73</ele>
<time>2016-10-04T22:41:46Z</time>
</trkpt>
<trkpt lat="35.324066162109375" lon="-119.08673095703125">
<ele>83</ele>
<time>2016-10-04T22:41:58Z</time>
</trkpt>
<trkpt lat="35.3241081237793" lon="-119.08663177490234">
<ele>80</ele>
<time>2016-10-04T22:42:05Z</time>
</trkpt>
<trkpt lat="35.32419204711914" lon="-119.08657836914063">
<ele>80</ele>
<time>2016-10-04T22:42:13Z</time>
</trkpt>
<trkpt lat="35.32414627075195" lon="-119.08654022216797">
<ele>81</ele>
<time>2016-10-04T22:43:08Z</time>
</trkpt>
<trkpt lat="35.324317932128906" lon="-119.08658599853516">
<ele>73</ele>
<time>2016-10-04T22:43:14Z</time>
</trkpt>
<trkpt lat="35.32451629638672" lon="-119.08670806884766">
<ele>76</ele>
<time>2016-10-04T22:43:20Z</time>
</trkpt>
<trkpt lat="35.32482147216797" lon="-119.0866470336914">
<ele>71</ele>
<time>2016-10-04T22:43:27Z</time>
</trkpt>
<trkpt lat="35.32509231567383" lon="-119.08678436279297">
<ele>76</ele>
<time>2016-10-04T22:43:33Z</time>
</trkpt>
<trkpt lat="35.32543182373047" lon="-119.08699798583984">
<ele>74</ele>
<time>2016-10-04T22:43:39Z</time>
</trkpt>
<trkpt lat="35.325740814208984" lon="-119.08721160888672">
<ele>72</ele>
<time>2016-10-04T22:43:45Z</time>
</trkpt>
<trkpt lat="35.325950622558594" lon="-119.08718872070313">
<ele>73</ele>
<time>2016-10-04T22:43:51Z</time>
</trkpt>
<trkpt lat="35.32622528076172" lon="-119.08690643310547">
<ele>69</ele>
<time>2016-10-04T22:43:57Z</time>
</trkpt>
<trkpt lat="35.32643127441406" lon="-119.0865478515625">
<ele>75</ele>
<time>2016-10-04T22:44:03Z</time>
</trkpt>
<trkpt lat="35.326698303222656" lon="-119.08618927001953">
<ele>73</ele>
<time>2016-10-04T22:44:09Z</time>
</trkpt>
<trkpt lat="35.32695007324219" lon="-119.08589172363281">
<ele>74</ele>
<time>2016-10-04T22:44:15Z</time>
</trkpt>
<trkpt lat="35.32720184326172" lon="-119.08565521240234">
<ele>75</ele>
<time>2016-10-04T22:44:21Z</time>
</trkpt>
<trkpt lat="35.327354431152344" lon="-119.0855941772461">
<ele>76</ele>
<time>2016-10-04T22:44:28Z</time>
</trkpt>
<trkpt lat="35.32759475708008" lon="-119.08549499511719">
<ele>76</ele>
<time>2016-10-04T22:44:34Z</time>
</trkpt>
<trkpt lat="35.3278694152832" lon="-119.0853500366211">
<ele>79</ele>
<time>2016-10-04T22:44:40Z</time>
</trkpt>
<trkpt lat="35.32815933227539" lon="-119.08516693115234">
<ele>79</ele>
<time>2016-10-04T22:44:46Z</time>
</trkpt>
<trkpt lat="35.328460693359375" lon="-119.08500671386719">
<ele>77</ele>
<time>2016-10-04T22:44:52Z</time>
</trkpt>
<trkpt lat="35.32881546020508" lon="-119.08489990234375">
<ele>75</ele>
<time>2016-10-04T22:44:58Z</time>
</trkpt>
<trkpt lat="35.32915496826172" lon="-119.08489990234375">
<ele>75</ele>
<time>2016-10-04T22:45:04Z</time>
</trkpt>
<trkpt lat="35.32950210571289" lon="-119.08488464355469">
<ele>76</ele>
<time>2016-10-04T22:45:10Z</time>
</trkpt>
<trkpt lat="35.32979202270508" lon="-119.0849609375">
<ele>79</ele>
<time>2016-10-04T22:45:16Z</time>
</trkpt>
<trkpt lat="35.330116271972656" lon="-119.08499908447266">
<ele>77</ele>
<time>2016-10-04T22:45:22Z</time>
</trkpt>
<trkpt lat="35.33049774169922" lon="-119.08507537841797">
<ele>76</ele>
<time>2016-10-04T22:45:28Z</time>
</trkpt>
<trkpt lat="35.33086395263672" lon="-119.08519744873047">
<ele>76</ele>
<time>2016-10-04T22:45:34Z</time>
</trkpt>
<trkpt lat="35.331199645996094" lon="-119.08527374267578">
<ele>76</ele>
<time>2016-10-04T22:45:40Z</time>
</trkpt>
<trkpt lat="35.331546783447266" lon="-119.08545684814453">
<ele>79</ele>
<time>2016-10-04T22:45:46Z</time>
</trkpt>
<trkpt lat="35.33189392089844" lon="-119.08561706542969">
<ele>79</ele>
<time>2016-10-04T22:45:52Z</time>
</trkpt>
<trkpt lat="35.33219528198242" lon="-119.08590698242188">
<ele>79</ele>
<time>2016-10-04T22:45:58Z</time>
</trkpt>
<trkpt lat="35.33250045776367" lon="-119.08622741699219">
<ele>80</ele>
<time>2016-10-04T22:46:04Z</time>
</trkpt>
<trkpt lat="35.33268356323242" lon="-119.0865478515625">
<ele>78</ele>
<time>2016-10-04T22:46:10Z</time>
</trkpt>
<trkpt lat="35.332847595214844" lon="-119.08676147460938">
<ele>78</ele>
<time>2016-10-04T22:46:21Z</time>
</trkpt>
<trkpt lat="35.33301544189453" lon="-119.08708190917969">
<ele>77</ele>
<time>2016-10-04T22:46:27Z</time>
</trkpt>
<trkpt lat="35.33321762084961" lon="-119.08740997314453">
<ele>75</ele>
<time>2016-10-04T22:46:33Z</time>
</trkpt>
<trkpt lat="35.333396911621094" lon="-119.0877685546875">
<ele>70</ele>
<time>2016-10-04T22:46:39Z</time>
</trkpt>
<trkpt lat="35.33357238769531" lon="-119.08815002441406">
<ele>74</ele>
<time>2016-10-04T22:46:45Z</time>
</trkpt>
<trkpt lat="35.33367919921875" lon="-119.0886001586914">
<ele>78</ele>
<time>2016-10-04T22:46:51Z</time>
</trkpt>
<trkpt lat="35.33372497558594" lon="-119.08905029296875">
<ele>76</ele>
<time>2016-10-04T22:46:57Z</time>
</trkpt>
<trkpt lat="35.333770751953125" lon="-119.08951568603516">
<ele>78</ele>
<time>2016-10-04T22:47:03Z</time>
</trkpt>
<trkpt lat="35.33379364013672" lon="-119.08995819091797">
<ele>77</ele>
<time>2016-10-04T22:47:09Z</time>
</trkpt>
<trkpt lat="35.33380126953125" lon="-119.09040069580078">
<ele>78</ele>
<time>2016-10-04T22:47:15Z</time>
</trkpt>
<trkpt lat="35.33381652832031" lon="-119.09088134765625">
<ele>81</ele>
<time>2016-10-04T22:47:21Z</time>
</trkpt>
<trkpt lat="35.33381271362305" lon="-119.09131622314453">
<ele>83</ele>
<time>2016-10-04T22:47:27Z</time>
</trkpt>
<trkpt lat="35.33384323120117" lon="-119.09156799316406">
<ele>81</ele>
<time>2016-10-04T22:47:34Z</time>
</trkpt>
<trkpt lat="35.3338508605957" lon="-119.09173583984375">
<ele>81</ele>
<time>2016-10-04T22:47:40Z</time>
</trkpt>
<trkpt lat="35.333839416503906" lon="-119.09193420410156">
<ele>80</ele>
<time>2016-10-04T22:47:46Z</time>
</trkpt>
<trkpt lat="35.33388900756836" lon="-119.0918960571289">
<ele>74</ele>
<time>2016-10-04T22:48:17Z</time>
</trkpt>
<trkpt lat="35.33390426635742" lon="-119.09199523925781">
<ele>70</ele>
<time>2016-10-04T22:49:25Z</time>
</trkpt>
<trkpt lat="35.333885192871094" lon="-119.09223937988281">
<ele>73</ele>
<time>2016-10-04T22:49:32Z</time>
</trkpt>
<trkpt lat="35.33399200439453" lon="-119.09234619140625">
<ele>75</ele>
<time>2016-10-04T22:49:39Z</time>
</trkpt>
<trkpt lat="35.334327697753906" lon="-119.0924072265625">
<ele>76</ele>
<time>2016-10-04T22:49:45Z</time>
</trkpt>
<trkpt lat="35.334716796875" lon="-119.09239196777344">
<ele>78</ele>
<time>2016-10-04T22:49:51Z</time>
</trkpt>
<trkpt lat="35.3350715637207" lon="-119.0923843383789">
<ele>76</ele>
<time>2016-10-04T22:49:57Z</time>
</trkpt>
<trkpt lat="35.335479736328125" lon="-119.09239196777344">
<ele>76</ele>
<time>2016-10-04T22:50:03Z</time>
</trkpt>
<trkpt lat="35.33584976196289" lon="-119.09236907958984">
<ele>80</ele>
<time>2016-10-04T22:50:09Z</time>
</trkpt>
<trkpt lat="35.33616638183594" lon="-119.09235382080078">
<ele>79</ele>
<time>2016-10-04T22:50:15Z</time>
</trkpt>
<trkpt lat="35.33647918701172" lon="-119.09236907958984">
<ele>79</ele>
<time>2016-10-04T22:50:21Z</time>
</trkpt>
<trkpt lat="35.33677673339844" lon="-119.09235382080078">
<ele>80</ele>
<time>2016-10-04T22:50:27Z</time>
</trkpt>
<trkpt lat="35.33708953857422" lon="-119.09237670898438">
<ele>81</ele>
<time>2016-10-04T22:50:33Z</time>
</trkpt>
<trkpt lat="35.33739471435547" lon="-119.09239959716797">
<ele>81</ele>
<time>2016-10-04T22:50:39Z</time>
</trkpt>
<trkpt lat="35.33776092529297" lon="-119.09242248535156">
<ele>78</ele>
<time>2016-10-04T22:50:45Z</time>
</trkpt>
<trkpt lat="35.33805847167969" lon="-119.09251403808594">
<ele>78</ele>
<time>2016-10-04T22:50:52Z</time>
</trkpt>
<trkpt lat="35.33832550048828" lon="-119.09244537353516">
<ele>81</ele>
<time>2016-10-04T22:50:58Z</time>
</trkpt>
<trkpt lat="35.338653564453125" lon="-119.09246063232422">
<ele>80</ele>
<time>2016-10-04T22:51:04Z</time>
</trkpt>
<trkpt lat="35.339046478271484" lon="-119.09243774414063">
<ele>83</ele>
<time>2016-10-04T22:51:11Z</time>
</trkpt>
<trkpt lat="35.339378356933594" lon="-119.09248352050781">
<ele>83</ele>
<time>2016-10-04T22:51:17Z</time>
</trkpt>
<trkpt lat="35.33955383300781" lon="-119.09249877929688">
<ele>81</ele>
<time>2016-10-04T22:51:24Z</time>
</trkpt>
<trkpt lat="35.339576721191406" lon="-119.0927963256836">
<ele>78</ele>
<time>2016-10-04T22:51:31Z</time>
</trkpt>
<trkpt lat="35.3395881652832" lon="-119.09320068359375">
<ele>83</ele>
<time>2016-10-04T22:51:38Z</time>
</trkpt>
<trkpt lat="35.33962631225586" lon="-119.09363555908203">
<ele>85</ele>
<time>2016-10-04T22:51:45Z</time>
</trkpt>
<trkpt lat="35.339595794677734" lon="-119.09402465820313">
<ele>86</ele>
<time>2016-10-04T22:51:51Z</time>
</trkpt>
<trkpt lat="35.339576721191406" lon="-119.0943832397461">
<ele>87</ele>
<time>2016-10-04T22:51:57Z</time>
</trkpt>
<trkpt lat="35.33961486816406" lon="-119.09477996826172">
<ele>87</ele>
<time>2016-10-04T22:52:03Z</time>
</trkpt>
<trkpt lat="35.3396110534668" lon="-119.09516906738281">
<ele>83</ele>
<time>2016-10-04T22:52:09Z</time>
</trkpt>
<trkpt lat="35.33959197998047" lon="-119.09553527832031">
<ele>88</ele>
<time>2016-10-04T22:52:15Z</time>
</trkpt>
<trkpt lat="35.339595794677734" lon="-119.09590148925781">
<ele>86</ele>
<time>2016-10-04T22:52:21Z</time>
</trkpt>
<trkpt lat="35.33958435058594" lon="-119.0962142944336">
<ele>88</ele>
<time>2016-10-04T22:52:27Z</time>
</trkpt>
<trkpt lat="35.339576721191406" lon="-119.09659576416016">
<ele>91</ele>
<time>2016-10-04T22:52:34Z</time>
</trkpt>
<trkpt lat="35.33957290649414" lon="-119.09693145751953">
<ele>87</ele>
<time>2016-10-04T22:52:40Z</time>
</trkpt>
<trkpt lat="35.3395881652832" lon="-119.0972900390625">
<ele>86</ele>
<time>2016-10-04T22:52:46Z</time>
</trkpt>
<trkpt lat="35.33961486816406" lon="-119.09774780273438">
<ele>84</ele>
<time>2016-10-04T22:52:52Z</time>
</trkpt>
<trkpt lat="35.33962631225586" lon="-119.09821319580078">
<ele>81</ele>
<time>2016-10-04T22:52:58Z</time>
</trkpt>
<trkpt lat="35.339603424072266" lon="-119.0987319946289">
<ele>80</ele>
<time>2016-10-04T22:53:04Z</time>
</trkpt>
<trkpt lat="35.33961868286133" lon="-119.09923553466797">
<ele>80</ele>
<time>2016-10-04T22:53:10Z</time>
</trkpt>
<trkpt lat="35.33961868286133" lon="-119.09969329833984">
<ele>82</ele>
<time>2016-10-04T22:53:16Z</time>
</trkpt>
<trkpt lat="35.339622497558594" lon="-119.1000747680664">
<ele>83</ele>
<time>2016-10-04T22:53:22Z</time>
</trkpt>
<trkpt lat="35.33959197998047" lon="-119.10047149658203">
<ele>79</ele>
<time>2016-10-04T22:53:28Z</time>
</trkpt>
<trkpt lat="35.339599609375" lon="-119.10078430175781">
<ele>80</ele>
<time>2016-10-04T22:53:34Z</time>
</trkpt>
<trkpt lat="35.339599609375" lon="-119.10084533691406">
<ele>81</ele>
<time>2016-10-04T22:53:46Z</time>
</trkpt>
<trkpt lat="35.33964157104492" lon="-119.10089111328125">
<ele>81</ele>
<time>2016-10-04T22:54:55Z</time>
</trkpt>
<trkpt lat="35.33982467651367" lon="-119.10094451904297">
<ele>82</ele>
<time>2016-10-04T22:55:01Z</time>
</trkpt>
<trkpt lat="35.34016799926758" lon="-119.10099792480469">
<ele>83</ele>
<time>2016-10-04T22:55:07Z</time>
</trkpt>
<trkpt lat="35.34050750732422" lon="-119.10098266601563">
<ele>79</ele>
<time>2016-10-04T22:55:14Z</time>
</trkpt>
<trkpt lat="35.340763092041016" lon="-119.10100555419922">
<ele>83</ele>
<time>2016-10-04T22:55:21Z</time>
</trkpt>
<trkpt lat="35.3410530090332" lon="-119.10099029541016">
<ele>83</ele>
<time>2016-10-04T22:55:27Z</time>
</trkpt>
<trkpt lat="35.34135818481445" lon="-119.10100555419922">
<ele>84</ele>
<time>2016-10-04T22:55:33Z</time>
</trkpt>
<trkpt lat="35.34165573120117" lon="-119.10103607177734">
<ele>80</ele>
<time>2016-10-04T22:55:39Z</time>
</trkpt>
<trkpt lat="35.34199142456055" lon="-119.1010513305664">
<ele>80</ele>
<time>2016-10-04T22:55:45Z</time>
</trkpt>
<trkpt lat="35.342308044433594" lon="-119.10104370117188">
<ele>76</ele>
<time>2016-10-04T22:55:51Z</time>
</trkpt>
<trkpt lat="35.34257125854492" lon="-119.10103607177734">
<ele>78</ele>
<time>2016-10-04T22:55:57Z</time>
</trkpt>
<trkpt lat="35.342803955078125" lon="-119.1009750366211">
<ele>80</ele>
<time>2016-10-04T22:56:04Z</time>
</trkpt>
<trkpt lat="35.342857360839844" lon="-119.10099029541016">
<ele>82</ele>
<time>2016-10-04T22:56:13Z</time>
</trkpt>
<trkpt lat="35.342987060546875" lon="-119.10118103027344">
<ele>83</ele>
<time>2016-10-04T22:56:19Z</time>
</trkpt>
<trkpt lat="35.34326171875" lon="-119.10138702392578">
<ele>83</ele>
<time>2016-10-04T22:56:25Z</time>
</trkpt>
<trkpt lat="35.3436393737793" lon="-119.10142517089844">
<ele>84</ele>
<time>2016-10-04T22:56:31Z</time>
</trkpt>
<trkpt lat="35.34398651123047" lon="-119.1014175415039">
<ele>84</ele>
<time>2016-10-04T22:56:37Z</time>
</trkpt>
<trkpt lat="35.344322204589844" lon="-119.10140991210938">
<ele>84</ele>
<time>2016-10-04T22:56:43Z</time>
</trkpt>
<trkpt lat="35.34463882446289" lon="-119.10142517089844">
<ele>83</ele>
<time>2016-10-04T22:56:49Z</time>
</trkpt>
<trkpt lat="35.344932556152344" lon="-119.1014175415039">
<ele>84</ele>
<time>2016-10-04T22:56:55Z</time>
</trkpt>
<trkpt lat="35.345184326171875" lon="-119.10118103027344">
<ele>83</ele>
<time>2016-10-04T22:57:01Z</time>
</trkpt>
<trkpt lat="35.34536361694336" lon="-119.10076141357422">
<ele>83</ele>
<time>2016-10-04T22:57:07Z</time>
</trkpt>
<trkpt lat="35.34564208984375" lon="-119.10040283203125">
<ele>81</ele>
<time>2016-10-04T22:57:13Z</time>
</trkpt>
<trkpt lat="35.34588623046875" lon="-119.1001968383789">
<ele>76</ele>
<time>2016-10-04T22:57:19Z</time>
</trkpt>
<trkpt lat="35.346153259277344" lon="-119.1001968383789">
<ele>77</ele>
<time>2016-10-04T22:57:25Z</time>
</trkpt>
<trkpt lat="35.34650421142578" lon="-119.10021209716797">
<ele>82</ele>
<time>2016-10-04T22:57:31Z</time>
</trkpt>
<trkpt lat="35.346885681152344" lon="-119.10016632080078">
<ele>81</ele>
<time>2016-10-04T22:57:37Z</time>
</trkpt>
<trkpt lat="35.34727478027344" lon="-119.10018920898438">
<ele>80</ele>
<time>2016-10-04T22:57:43Z</time>
</trkpt>
<trkpt lat="35.34763717651367" lon="-119.1001968383789">
<ele>81</ele>
<time>2016-10-04T22:57:49Z</time>
</trkpt>
<trkpt lat="35.347930908203125" lon="-119.10039520263672">
<ele>82</ele>
<time>2016-10-04T22:57:55Z</time>
</trkpt>
<trkpt lat="35.3479118347168" lon="-119.10082244873047">
<ele>84</ele>
<time>2016-10-04T22:58:01Z</time>
</trkpt>
<trkpt lat="35.34792709350586" lon="-119.1012191772461">
<ele>83</ele>
<time>2016-10-04T22:58:07Z</time>
</trkpt>
<trkpt lat="35.34823989868164" lon="-119.10132598876953">
<ele>82</ele>
<time>2016-10-04T22:58:13Z</time>
</trkpt>
<trkpt lat="35.348575592041016" lon="-119.10128784179688">
<ele>80</ele>
<time>2016-10-04T22:58:19Z</time>
</trkpt>
<trkpt lat="35.34859085083008" lon="-119.10101318359375">
<ele>80</ele>
<time>2016-10-04T22:58:25Z</time>
</trkpt>
<trkpt lat="35.34893035888672" lon="-119.10090637207031">
<ele>83</ele>
<time>2016-10-04T22:58:31Z</time>
</trkpt>
<trkpt lat="35.349246978759766" lon="-119.10089874267578">
<ele>84</ele>
<time>2016-10-04T22:58:37Z</time>
</trkpt>
<trkpt lat="35.34959030151367" lon="-119.10088348388672">
<ele>78</ele>
<time>2016-10-04T22:58:44Z</time>
</trkpt>
<trkpt lat="35.34988021850586" lon="-119.1009292602539">
<ele>80</ele>
<time>2016-10-04T22:58:50Z</time>
</trkpt>
<trkpt lat="35.35011291503906" lon="-119.10089874267578">
<ele>78</ele>
<time>2016-10-04T22:58:56Z</time>
</trkpt>
<trkpt lat="35.350341796875" lon="-119.10089874267578">
<ele>81</ele>
<time>2016-10-04T22:59:02Z</time>
</trkpt>
<trkpt lat="35.35056686401367" lon="-119.10089874267578">
<ele>84</ele>
<time>2016-10-04T22:59:08Z</time>
</trkpt>
<trkpt lat="35.35084533691406" lon="-119.10091400146484">
<ele>84</ele>
<time>2016-10-04T22:59:14Z</time>
</trkpt>
<trkpt lat="35.35111999511719" lon="-119.10089874267578">
<ele>84</ele>
<time>2016-10-04T22:59:20Z</time>
</trkpt>
<trkpt lat="35.35142135620117" lon="-119.1009750366211">
<ele>82</ele>
<time>2016-10-04T22:59:26Z</time>
</trkpt>
<trkpt lat="35.35171127319336" lon="-119.10099029541016">
<ele>83</ele>
<time>2016-10-04T22:59:32Z</time>
</trkpt>
<trkpt lat="35.35194778442383" lon="-119.10099029541016">
<ele>83</ele>
<time>2016-10-04T22:59:38Z</time>
</trkpt>
<trkpt lat="35.352108001708984" lon="-119.10102081298828">
<ele>84</ele>
<time>2016-10-04T22:59:44Z</time>
</trkpt>
<trkpt lat="35.35224914550781" lon="-119.10100555419922">
<ele>83</ele>
<time>2016-10-04T22:59:50Z</time>
</trkpt>
<trkpt lat="35.35252380371094" lon="-119.10103607177734">
<ele>82</ele>
<time>2016-10-04T22:59:56Z</time>
</trkpt>
<trkpt lat="35.35283660888672" lon="-119.10103607177734">
<ele>79</ele>
<time>2016-10-04T23:00:02Z</time>
</trkpt>
<trkpt lat="35.353145599365234" lon="-119.10102844238281">
<ele>80</ele>
<time>2016-10-04T23:00:08Z</time>
</trkpt>
<trkpt lat="35.353389739990234" lon="-119.10102844238281">
<ele>79</ele>
<time>2016-10-04T23:00:14Z</time>
</trkpt>
<trkpt lat="35.353546142578125" lon="-119.10098266601563">
<ele>80</ele>
<time>2016-10-04T23:00:21Z</time>
</trkpt>
<trkpt lat="35.353450775146484" lon="-119.10089111328125">
<ele>82</ele>
<time>2016-10-04T23:00:30Z</time>
</trkpt>
<trkpt lat="35.35370635986328" lon="-119.10078430175781">
<ele>84</ele>
<time>2016-10-04T23:00:36Z</time>
</trkpt>
<trkpt lat="35.354068756103516" lon="-119.10075378417969">
<ele>84</ele>
<time>2016-10-04T23:00:42Z</time>
</trkpt>
<trkpt lat="35.35430908203125" lon="-119.10076904296875">
<ele>82</ele>
<time>2016-10-04T23:00:48Z</time>
</trkpt>
<trkpt lat="35.35453414916992" lon="-119.10081481933594">
<ele>80</ele>
<time>2016-10-04T23:00:54Z</time>
</trkpt>
<trkpt lat="35.354732513427734" lon="-119.100830078125">
<ele>81</ele>
<time>2016-10-04T23:01:01Z</time>
</trkpt>
<trkpt lat="35.35478210449219" lon="-119.10087585449219">
<ele>80</ele>
<time>2016-10-04T23:01:19Z</time>
</trkpt>
<trkpt lat="35.35497283935547" lon="-119.10089111328125">
<ele>80</ele>
<time>2016-10-04T23:01:26Z</time>
</trkpt>
<trkpt lat="35.355072021484375" lon="-119.10086822509766">
<ele>83</ele>
<time>2016-10-04T23:01:32Z</time>
</trkpt>
<trkpt lat="35.3550910949707" lon="-119.10081481933594">
<ele>82</ele>
<time>2016-10-04T23:01:38Z</time>
</trkpt>
<trkpt lat="35.35529708862305" lon="-119.10062408447266">
<ele>82</ele>
<time>2016-10-04T23:01:44Z</time>
</trkpt>
<trkpt lat="35.35552215576172" lon="-119.10025024414063">
<ele>84</ele>
<time>2016-10-04T23:01:50Z</time>
</trkpt>
<trkpt lat="35.355712890625" lon="-119.09989929199219">
<ele>84</ele>
<time>2016-10-04T23:01:56Z</time>
</trkpt>
<trkpt lat="35.355865478515625" lon="-119.0995864868164">
<ele>82</ele>
<time>2016-10-04T23:02:02Z</time>
</trkpt>
<trkpt lat="35.35575485229492" lon="-119.09933471679688">
<ele>81</ele>
<time>2016-10-04T23:02:08Z</time>
</trkpt>
<trkpt lat="35.355491638183594" lon="-119.09949493408203">
<ele>81</ele>
<time>2016-10-04T23:02:15Z</time>
</trkpt>
<trkpt lat="35.35548400878906" lon="-119.09925079345703">
<ele>80</ele>
<time>2016-10-04T23:02:21Z</time>
</trkpt>
<trkpt lat="35.3556022644043" lon="-119.09893798828125">
<ele>82</ele>
<time>2016-10-04T23:02:28Z</time>
</trkpt>
<trkpt lat="35.355690002441406" lon="-119.0986328125">
<ele>82</ele>
<time>2016-10-04T23:02:35Z</time>
</trkpt>
<trkpt lat="35.35543441772461" lon="-119.09843444824219">
<ele>80</ele>
<time>2016-10-04T23:02:42Z</time>
</trkpt>
<trkpt lat="35.355289459228516" lon="-119.09811401367188">
<ele>79</ele>
<time>2016-10-04T23:02:49Z</time>
</trkpt>
<trkpt lat="35.35543441772461" lon="-119.09794616699219">
<ele>79</ele>
<time>2016-10-04T23:02:55Z</time>
</trkpt>
<trkpt lat="35.35567092895508" lon="-119.09801483154297">
<ele>81</ele>
<time>2016-10-04T23:03:01Z</time>
</trkpt>
<trkpt lat="35.35585403442383" lon="-119.09788513183594">
<ele>80</ele>
<time>2016-10-04T23:03:07Z</time>
</trkpt>
<trkpt lat="35.35564422607422" lon="-119.09762573242188">
<ele>81</ele>
<time>2016-10-04T23:03:13Z</time>
</trkpt>
<trkpt lat="35.355552673339844" lon="-119.09737396240234">
<ele>82</ele>
<time>2016-10-04T23:03:19Z</time>
</trkpt>
<trkpt lat="35.35557174682617" lon="-119.09703826904297">
<ele>83</ele>
<time>2016-10-04T23:03:25Z</time>
</trkpt>
<trkpt lat="35.355735778808594" lon="-119.09674835205078">
<ele>82</ele>
<time>2016-10-04T23:03:31Z</time>
</trkpt>
<trkpt lat="35.355934143066406" lon="-119.09648132324219">
<ele>78</ele>
<time>2016-10-04T23:03:37Z</time>
</trkpt>
<trkpt lat="35.35612487792969" lon="-119.09618377685547">
<ele>86</ele>
<time>2016-10-04T23:03:43Z</time>
</trkpt>
<trkpt lat="35.3561897277832" lon="-119.095947265625">
<ele>86</ele>
<time>2016-10-04T23:03:49Z</time>
</trkpt>
<trkpt lat="35.356204986572266" lon="-119.09588623046875">
<ele>86</ele>
<time>2016-10-04T23:04:02Z</time>
</trkpt>
<trkpt lat="35.35618209838867" lon="-119.09593200683594">
<ele>85</ele>
<time>2016-10-04T23:04:29Z</time>
</trkpt>
<trkpt lat="35.35608673095703" lon="-119.09600067138672">
<ele>84</ele>
<time>2016-10-04T23:04:35Z</time>
</trkpt>
<trkpt lat="35.35599899291992" lon="-119.09606170654297">
<ele>83</ele>
<time>2016-10-04T23:04:42Z</time>
</trkpt>
<trkpt lat="35.355892181396484" lon="-119.09619140625">
<ele>81</ele>
<time>2016-10-04T23:04:49Z</time>
</trkpt>
<trkpt lat="35.35578918457031" lon="-119.09635162353516">
<ele>82</ele>
<time>2016-10-04T23:04:55Z</time>
</trkpt>
<trkpt lat="35.35572814941406" lon="-119.0964584350586">
<ele>83</ele>
<time>2016-10-04T23:05:02Z</time>
</trkpt>
<trkpt lat="35.35586166381836" lon="-119.09632110595703">
<ele>85</ele>
<time>2016-10-04T23:05:08Z</time>
</trkpt>
<trkpt lat="35.35602951049805" lon="-119.09609985351563">
<ele>82</ele>
<time>2016-10-04T23:05:14Z</time>
</trkpt>
<trkpt lat="35.356204986572266" lon="-119.09589385986328">
<ele>83</ele>
<time>2016-10-04T23:05:21Z</time>
</trkpt>
<trkpt lat="35.356346130371094" lon="-119.09574890136719">
<ele>85</ele>
<time>2016-10-04T23:05:27Z</time>
</trkpt>
<trkpt lat="35.35647201538086" lon="-119.09563446044922">
<ele>87</ele>
<time>2016-10-04T23:05:33Z</time>
</trkpt>
<trkpt lat="35.35662841796875" lon="-119.09563446044922">
<ele>86</ele>
<time>2016-10-04T23:05:40Z</time>
</trkpt>
<trkpt lat="35.3568115234375" lon="-119.09585571289063">
<ele>80</ele>
<time>2016-10-04T23:05:46Z</time>
</trkpt>
<trkpt lat="35.357181549072266" lon="-119.09577178955078">
<ele>78</ele>
<time>2016-10-04T23:05:53Z</time>
</trkpt>
<trkpt lat="35.357479095458984" lon="-119.09571838378906">
<ele>79</ele>
<time>2016-10-04T23:05:59Z</time>
</trkpt>
<trkpt lat="35.3577880859375" lon="-119.09573364257813">
<ele>81</ele>
<time>2016-10-04T23:06:05Z</time>
</trkpt>
<trkpt lat="35.35805130004883" lon="-119.09566497802734">
<ele>82</ele>
<time>2016-10-04T23:06:11Z</time>
</trkpt>
<trkpt lat="35.358375549316406" lon="-119.09562683105469">
<ele>83</ele>
<time>2016-10-04T23:06:18Z</time>
</trkpt>
<trkpt lat="35.358646392822266" lon="-119.09563446044922">
<ele>85</ele>
<time>2016-10-04T23:06:24Z</time>
</trkpt>
<trkpt lat="35.35894775390625" lon="-119.09559631347656">
<ele>82</ele>
<time>2016-10-04T23:06:30Z</time>
</trkpt>
<trkpt lat="35.35921096801758" lon="-119.09553527832031">
<ele>82</ele>
<time>2016-10-04T23:06:36Z</time>
</trkpt>
<trkpt lat="35.359474182128906" lon="-119.09548950195313">
<ele>83</ele>
<time>2016-10-04T23:06:42Z</time>
</trkpt>
<trkpt lat="35.3597526550293" lon="-119.0953598022461">
<ele>84</ele>
<time>2016-10-04T23:06:48Z</time>
</trkpt>
<trkpt lat="35.3599739074707" lon="-119.0951156616211">
<ele>84</ele>
<time>2016-10-04T23:06:54Z</time>
</trkpt>
<trkpt lat="35.3602180480957" lon="-119.0949478149414">
<ele>86</ele>
<time>2016-10-04T23:07:00Z</time>
</trkpt>
<trkpt lat="35.360347747802734" lon="-119.0946273803711">
<ele>85</ele>
<time>2016-10-04T23:07:06Z</time>
</trkpt>
<trkpt lat="35.360538482666016" lon="-119.09431457519531">
<ele>91</ele>
<time>2016-10-04T23:07:12Z</time>
</trkpt>
<trkpt lat="35.360755920410156" lon="-119.09404754638672">
<ele>89</ele>
<time>2016-10-04T23:07:18Z</time>
</trkpt>
<trkpt lat="35.360939025878906" lon="-119.0937728881836">
<ele>87</ele>
<time>2016-10-04T23:07:24Z</time>
</trkpt>
<trkpt lat="35.361087799072266" lon="-119.09349060058594">
<ele>84</ele>
<time>2016-10-04T23:07:30Z</time>
</trkpt>
<trkpt lat="35.36126708984375" lon="-119.09319305419922">
<ele>86</ele>
<time>2016-10-04T23:07:36Z</time>
</trkpt>
<trkpt lat="35.361427307128906" lon="-119.09288787841797">
<ele>84</ele>
<time>2016-10-04T23:07:42Z</time>
</trkpt>
<trkpt lat="35.3615837097168" lon="-119.09259033203125">
<ele>85</ele>
<time>2016-10-04T23:07:48Z</time>
</trkpt>
<trkpt lat="35.36174392700195" lon="-119.09229278564453">
<ele>86</ele>
<time>2016-10-04T23:07:54Z</time>
</trkpt>
<trkpt lat="35.36204528808594" lon="-119.0923080444336">
<ele>89</ele>
<time>2016-10-04T23:08:00Z</time>
</trkpt>
<trkpt lat="35.36235809326172" lon="-119.09227752685547">
<ele>90</ele>
<time>2016-10-04T23:08:07Z</time>
</trkpt>
<trkpt lat="35.36260986328125" lon="-119.09222412109375">
<ele>85</ele>
<time>2016-10-04T23:08:13Z</time>
</trkpt>
<trkpt lat="35.3627815246582" lon="-119.09224700927734">
<ele>83</ele>
<time>2016-10-04T23:08:19Z</time>
</trkpt>
<trkpt lat="35.362918853759766" lon="-119.09211730957031">
<ele>85</ele>
<time>2016-10-04T23:08:26Z</time>
</trkpt>
<trkpt lat="35.36298370361328" lon="-119.09210205078125">
<ele>85</ele>
<time>2016-10-04T23:08:41Z</time>
</trkpt>
<trkpt lat="35.36296463012695" lon="-119.09221649169922">
<ele>85</ele>
<time>2016-10-04T23:08:47Z</time>
</trkpt>
<trkpt lat="35.36301040649414" lon="-119.09222412109375">
<ele>81</ele>
<time>2016-10-04T23:09:02Z</time>
</trkpt>
<trkpt lat="35.36306381225586" lon="-119.09224700927734">
<ele>80</ele>
<time>2016-10-04T23:09:16Z</time>
</trkpt>
<trkpt lat="35.36315155029297" lon="-119.09233093261719">
<ele>79</ele>
<time>2016-10-04T23:09:24Z</time>
</trkpt>
<trkpt lat="35.36322784423828" lon="-119.09239959716797">
<ele>75</ele>
<time>2016-10-04T23:09:33Z</time>
</trkpt>
<trkpt lat="35.36326217651367" lon="-119.09245300292969">
<ele>79</ele>
<time>2016-10-04T23:09:40Z</time>
</trkpt>
<trkpt lat="35.363346099853516" lon="-119.092529296875">
<ele>82</ele>
<time>2016-10-04T23:09:49Z</time>
</trkpt>
<trkpt lat="35.36343002319336" lon="-119.09259796142578">
<ele>81</ele>
<time>2016-10-04T23:09:59Z</time>
</trkpt>
<trkpt lat="35.363494873046875" lon="-119.0926513671875">
<ele>81</ele>
<time>2016-10-04T23:10:09Z</time>
</trkpt>
<trkpt lat="35.3635368347168" lon="-119.09268188476563">
<ele>83</ele>
<time>2016-10-04T23:10:15Z</time>
</trkpt>
<trkpt lat="35.36358642578125" lon="-119.09266662597656">
<ele>85</ele>
<time>2016-10-04T23:10:22Z</time>
</trkpt>
<trkpt lat="35.36365509033203" lon="-119.09261322021484">
<ele>81</ele>
<time>2016-10-04T23:11:10Z</time>
</trkpt>
<trkpt lat="35.36372375488281" lon="-119.0924301147461">
<ele>81</ele>
<time>2016-10-04T23:11:16Z</time>
</trkpt>
<trkpt lat="35.363773345947266" lon="-119.09223937988281">
<ele>84</ele>
<time>2016-10-04T23:11:23Z</time>
</trkpt>
<trkpt lat="35.36381912231445" lon="-119.09220123291016">
<ele>85</ele>
<time>2016-10-04T23:11:32Z</time>
</trkpt>
<trkpt lat="35.36383819580078" lon="-119.09230041503906">
<ele>84</ele>
<time>2016-10-04T23:11:40Z</time>
</trkpt>
<trkpt lat="35.363922119140625" lon="-119.09249114990234">
<ele>84</ele>
<time>2016-10-04T23:11:47Z</time>
</trkpt>
<trkpt lat="35.36415100097656" lon="-119.09248352050781">
<ele>86</ele>
<time>2016-10-04T23:11:53Z</time>
</trkpt>
<trkpt lat="35.36430740356445" lon="-119.09268188476563">
<ele>88</ele>
<time>2016-10-04T23:11:59Z</time>
</trkpt>
<trkpt lat="35.36429977416992" lon="-119.09304809570313">
<ele>84</ele>
<time>2016-10-04T23:12:06Z</time>
</trkpt>
<trkpt lat="35.364105224609375" lon="-119.09334564208984">
<ele>84</ele>
<time>2016-10-04T23:12:13Z</time>
</trkpt>
<trkpt lat="35.363868713378906" lon="-119.09352111816406">
<ele>84</ele>
<time>2016-10-04T23:12:19Z</time>
</trkpt>
<trkpt lat="35.36363220214844" lon="-119.09373474121094">
<ele>84</ele>
<time>2016-10-04T23:12:25Z</time>
</trkpt>
<trkpt lat="35.36337661743164" lon="-119.09390258789063">
<ele>83</ele>
<time>2016-10-04T23:12:32Z</time>
</trkpt>
<trkpt lat="35.3631706237793" lon="-119.09406280517578">
<ele>81</ele>
<time>2016-10-04T23:12:38Z</time>
</trkpt>
<trkpt lat="35.36296081542969" lon="-119.09429168701172">
<ele>82</ele>
<time>2016-10-04T23:12:44Z</time>
</trkpt>
<trkpt lat="35.36274337768555" lon="-119.09459686279297">
<ele>79</ele>
<time>2016-10-04T23:12:51Z</time>
</trkpt>
<trkpt lat="35.36256408691406" lon="-119.09487915039063">
<ele>83</ele>
<time>2016-10-04T23:12:57Z</time>
</trkpt>
<trkpt lat="35.36235809326172" lon="-119.09516143798828">
<ele>86</ele>
<time>2016-10-04T23:13:03Z</time>
</trkpt>
<trkpt lat="35.36219024658203" lon="-119.0954818725586">
<ele>85</ele>
<time>2016-10-04T23:13:09Z</time>
</trkpt>
<trkpt lat="35.36200714111328" lon="-119.09577178955078">
<ele>83</ele>
<time>2016-10-04T23:13:15Z</time>
</trkpt>
<trkpt lat="35.36181640625" lon="-119.0960922241211">
<ele>80</ele>
<time>2016-10-04T23:13:21Z</time>
</trkpt>
<trkpt lat="35.361637115478516" lon="-119.09639739990234">
<ele>78</ele>
<time>2016-10-04T23:13:27Z</time>
</trkpt>
<trkpt lat="35.36145782470703" lon="-119.09671020507813">
<ele>78</ele>
<time>2016-10-04T23:13:33Z</time>
</trkpt>
<trkpt lat="35.361305236816406" lon="-119.09700775146484">
<ele>77</ele>
<time>2016-10-04T23:13:39Z</time>
</trkpt>
<trkpt lat="35.36117172241211" lon="-119.0973129272461">
<ele>80</ele>
<time>2016-10-04T23:13:45Z</time>
</trkpt>
<trkpt lat="35.361083984375" lon="-119.0975570678711">
<ele>79</ele>
<time>2016-10-04T23:13:51Z</time>
</trkpt>
<trkpt lat="35.361080169677734" lon="-119.09783172607422">
<ele>78</ele>
<time>2016-10-04T23:13:57Z</time>
</trkpt>
<trkpt lat="35.361106872558594" lon="-119.09822082519531">
<ele>78</ele>
<time>2016-10-04T23:14:04Z</time>
</trkpt>
<trkpt lat="35.361114501953125" lon="-119.09857177734375">
<ele>79</ele>
<time>2016-10-04T23:14:10Z</time>
</trkpt>
<trkpt lat="35.36113357543945" lon="-119.09896087646484">
<ele>80</ele>
<time>2016-10-04T23:14:16Z</time>
</trkpt>
<trkpt lat="35.36113739013672" lon="-119.09931945800781">
<ele>78</ele>
<time>2016-10-04T23:14:22Z</time>
</trkpt>
<trkpt lat="35.36113357543945" lon="-119.09967041015625">
<ele>79</ele>
<time>2016-10-04T23:14:28Z</time>
</trkpt>
<trkpt lat="35.36113357543945" lon="-119.10003662109375">
<ele>79</ele>
<time>2016-10-04T23:14:34Z</time>
</trkpt>
<trkpt lat="35.36112976074219" lon="-119.10039520263672">
<ele>78</ele>
<time>2016-10-04T23:14:40Z</time>
</trkpt>
<trkpt lat="35.36113739013672" lon="-119.10066223144531">
<ele>79</ele>
<time>2016-10-04T23:15:02Z</time>
</trkpt>
<trkpt lat="35.36113357543945" lon="-119.10073852539063">
<ele>78</ele>
<time>2016-10-04T23:15:29Z</time>
</trkpt>
<trkpt lat="35.361141204833984" lon="-119.10106658935547">
<ele>75</ele>
<time>2016-10-04T23:15:35Z</time>
</trkpt>
<trkpt lat="35.36113357543945" lon="-119.10142517089844">
<ele>71</ele>
<time>2016-10-04T23:15:41Z</time>
</trkpt>
<trkpt lat="35.36112976074219" lon="-119.1018295288086">
<ele>73</ele>
<time>2016-10-04T23:15:47Z</time>
</trkpt>
<trkpt lat="35.36114501953125" lon="-119.10221862792969">
<ele>75</ele>
<time>2016-10-04T23:15:53Z</time>
</trkpt>
<trkpt lat="35.36116409301758" lon="-119.10260009765625">
<ele>74</ele>
<time>2016-10-04T23:15:59Z</time>
</trkpt>
<trkpt lat="35.361148834228516" lon="-119.10298919677734">
<ele>76</ele>
<time>2016-10-04T23:16:05Z</time>
</trkpt>
<trkpt lat="35.361148834228516" lon="-119.10340881347656">
<ele>76</ele>
<time>2016-10-04T23:16:11Z</time>
</trkpt>
<trkpt lat="35.36116409301758" lon="-119.10382080078125">
<ele>78</ele>
<time>2016-10-04T23:16:17Z</time>
</trkpt>
<trkpt lat="35.36113357543945" lon="-119.1041488647461">
<ele>78</ele>
<time>2016-10-04T23:16:23Z</time>
</trkpt>
<trkpt lat="35.36112976074219" lon="-119.10443878173828">
<ele>80</ele>
<time>2016-10-04T23:16:29Z</time>
</trkpt>
<trkpt lat="35.361167907714844" lon="-119.10482788085938">
<ele>78</ele>
<time>2016-10-04T23:16:35Z</time>
</trkpt>
<trkpt lat="35.361167907714844" lon="-119.10521697998047">
<ele>77</ele>
<time>2016-10-04T23:16:41Z</time>
</trkpt>
<trkpt lat="35.36114501953125" lon="-119.10562133789063">
<ele>78</ele>
<time>2016-10-04T23:16:47Z</time>
</trkpt>
<trkpt lat="35.36115264892578" lon="-119.10599517822266">
<ele>75</ele>
<time>2016-10-04T23:16:53Z</time>
</trkpt>
<trkpt lat="35.36115646362305" lon="-119.10637664794922">
<ele>75</ele>
<time>2016-10-04T23:16:59Z</time>
</trkpt>
<trkpt lat="35.361148834228516" lon="-119.10673522949219">
<ele>76</ele>
<time>2016-10-04T23:17:05Z</time>
</trkpt>
<trkpt lat="35.36113739013672" lon="-119.10710906982422">
<ele>79</ele>
<time>2016-10-04T23:17:11Z</time>
</trkpt>
<trkpt lat="35.361167907714844" lon="-119.10746765136719">
<ele>79</ele>
<time>2016-10-04T23:17:17Z</time>
</trkpt>
<trkpt lat="35.361175537109375" lon="-119.10781860351563">
<ele>79</ele>
<time>2016-10-04T23:17:23Z</time>
</trkpt>
<trkpt lat="35.36119079589844" lon="-119.10816955566406">
<ele>80</ele>
<time>2016-10-04T23:17:29Z</time>
</trkpt>
<trkpt lat="35.361175537109375" lon="-119.1085205078125">
<ele>81</ele>
<time>2016-10-04T23:17:35Z</time>
</trkpt>
<trkpt lat="35.36111068725586" lon="-119.10860443115234">
<ele>80</ele>
<time>2016-10-04T23:17:54Z</time>
</trkpt>
<trkpt lat="35.36119842529297" lon="-119.1085205078125">
<ele>77</ele>
<time>2016-10-04T23:18:00Z</time>
</trkpt>
<trkpt lat="35.3612060546875" lon="-119.1087875366211">
<ele>76</ele>
<time>2016-10-04T23:18:06Z</time>
</trkpt>
<trkpt lat="35.361183166503906" lon="-119.10916137695313">
<ele>78</ele>
<time>2016-10-04T23:18:12Z</time>
</trkpt>
<trkpt lat="35.36115646362305" lon="-119.10953521728516">
<ele>80</ele>
<time>2016-10-04T23:18:19Z</time>
</trkpt>
<trkpt lat="35.36113357543945" lon="-119.10989379882813">
<ele>82</ele>
<time>2016-10-04T23:18:26Z</time>
</trkpt>
<trkpt lat="35.3610954284668" lon="-119.11022186279297">
<ele>85</ele>
<time>2016-10-04T23:18:32Z</time>
</trkpt>
<trkpt lat="35.36101531982422" lon="-119.11052703857422">
<ele>85</ele>
<time>2016-10-04T23:18:38Z</time>
</trkpt>
<trkpt lat="35.36089324951172" lon="-119.11083221435547">
<ele>82</ele>
<time>2016-10-04T23:18:45Z</time>
</trkpt>
<trkpt lat="35.36064910888672" lon="-119.11103057861328">
<ele>83</ele>
<time>2016-10-04T23:18:51Z</time>
</trkpt>
<trkpt lat="35.36043167114258" lon="-119.11135864257813">
<ele>79</ele>
<time>2016-10-04T23:18:58Z</time>
</trkpt>
<trkpt lat="35.360355377197266" lon="-119.11165618896484">
<ele>80</ele>
<time>2016-10-04T23:19:04Z</time>
</trkpt>
<trkpt lat="35.3602409362793" lon="-119.1119613647461">
<ele>79</ele>
<time>2016-10-04T23:19:10Z</time>
</trkpt>
<trkpt lat="35.360130310058594" lon="-119.11225891113281">
<ele>77</ele>
<time>2016-10-04T23:19:16Z</time>
</trkpt>
<trkpt lat="35.36000442504883" lon="-119.1125717163086">
<ele>78</ele>
<time>2016-10-04T23:19:22Z</time>
</trkpt>
<trkpt lat="35.35983657836914" lon="-119.11287689208984">
<ele>77</ele>
<time>2016-10-04T23:19:28Z</time>
</trkpt>
<trkpt lat="35.359649658203125" lon="-119.11312103271484">
<ele>78</ele>
<time>2016-10-04T23:19:34Z</time>
</trkpt>
<trkpt lat="35.35942840576172" lon="-119.11327362060547">
<ele>76</ele>
<time>2016-10-04T23:19:40Z</time>
</trkpt>
<trkpt lat="35.35919189453125" lon="-119.11343383789063">
<ele>79</ele>
<time>2016-10-04T23:19:46Z</time>
</trkpt>
<trkpt lat="35.35890197753906" lon="-119.11356353759766">
<ele>82</ele>
<time>2016-10-04T23:19:53Z</time>
</trkpt>
<trkpt lat="35.358665466308594" lon="-119.11373901367188">
<ele>81</ele>
<time>2016-10-04T23:19:59Z</time>
</trkpt>
<trkpt lat="35.35847854614258" lon="-119.11398315429688">
<ele>80</ele>
<time>2016-10-04T23:20:05Z</time>
</trkpt>
<trkpt lat="35.358280181884766" lon="-119.11425018310547">
<ele>79</ele>
<time>2016-10-04T23:20:12Z</time>
</trkpt>
<trkpt lat="35.358089447021484" lon="-119.1145248413086">
<ele>80</ele>
<time>2016-10-04T23:20:19Z</time>
</trkpt>
<trkpt lat="35.35797119140625" lon="-119.11469268798828">
<ele>80</ele>
<time>2016-10-04T23:20:25Z</time>
</trkpt>
<trkpt lat="35.3578987121582" lon="-119.1148910522461">
<ele>79</ele>
<time>2016-10-04T23:20:33Z</time>
</trkpt>
<trkpt lat="35.357845306396484" lon="-119.11509704589844">
<ele>79</ele>
<time>2016-10-04T23:20:40Z</time>
</trkpt>
<trkpt lat="35.35775375366211" lon="-119.1153793334961">
<ele>76</ele>
<time>2016-10-04T23:20:46Z</time>
</trkpt>
<trkpt lat="35.35755920410156" lon="-119.11566925048828">
<ele>79</ele>
<time>2016-10-04T23:20:53Z</time>
</trkpt>
<trkpt lat="35.35728073120117" lon="-119.11571502685547">
<ele>78</ele>
<time>2016-10-04T23:21:00Z</time>
</trkpt>
<trkpt lat="35.356971740722656" lon="-119.11569213867188">
<ele>76</ele>
<time>2016-10-04T23:21:07Z</time>
</trkpt>
<trkpt lat="35.356689453125" lon="-119.1156234741211">
<ele>76</ele>
<time>2016-10-04T23:21:13Z</time>
</trkpt>
<trkpt lat="35.356441497802734" lon="-119.11564636230469">
<ele>74</ele>
<time>2016-10-04T23:21:19Z</time>
</trkpt>
<trkpt lat="35.35629653930664" lon="-119.11585235595703">
<ele>74</ele>
<time>2016-10-04T23:21:25Z</time>
</trkpt>
<trkpt lat="35.356285095214844" lon="-119.11614227294922">
<ele>75</ele>
<time>2016-10-04T23:21:31Z</time>
</trkpt>
<trkpt lat="35.35637664794922" lon="-119.11609649658203">
<ele>76</ele>
<time>2016-10-04T23:21:49Z</time>
</trkpt>
<trkpt lat="35.35665512084961" lon="-119.11616516113281">
<ele>76</ele>
<time>2016-10-04T23:21:55Z</time>
</trkpt>
<trkpt lat="35.356910705566406" lon="-119.1162109375">
<ele>76</ele>
<time>2016-10-04T23:22:02Z</time>
</trkpt>
<trkpt lat="35.35724639892578" lon="-119.11621856689453">
<ele>77</ele>
<time>2016-10-04T23:22:08Z</time>
</trkpt>
<trkpt lat="35.3575553894043" lon="-119.11630249023438">
<ele>77</ele>
<time>2016-10-04T23:22:15Z</time>
</trkpt>
<trkpt lat="35.357566833496094" lon="-119.11663818359375">
<ele>82</ele>
<time>2016-10-04T23:22:21Z</time>
</trkpt>
<trkpt lat="35.357425689697266" lon="-119.11697387695313">
<ele>78</ele>
<time>2016-10-04T23:22:27Z</time>
</trkpt>
<trkpt lat="35.35736083984375" lon="-119.11732482910156">
<ele>78</ele>
<time>2016-10-04T23:22:33Z</time>
</trkpt>
<trkpt lat="35.357460021972656" lon="-119.11768341064453">
<ele>81</ele>
<time>2016-10-04T23:22:40Z</time>
</trkpt>
<trkpt lat="35.3574333190918" lon="-119.11802673339844">
<ele>82</ele>
<time>2016-10-04T23:22:46Z</time>
</trkpt>
<trkpt lat="35.35737228393555" lon="-119.11837005615234">
<ele>82</ele>
<time>2016-10-04T23:22:52Z</time>
</trkpt>
<trkpt lat="35.35732650756836" lon="-119.11871337890625">
<ele>80</ele>
<time>2016-10-04T23:22:58Z</time>
</trkpt>
<trkpt lat="35.35726547241211" lon="-119.11908721923828">
<ele>79</ele>
<time>2016-10-04T23:23:04Z</time>
</trkpt>
<trkpt lat="35.357208251953125" lon="-119.11944580078125">
<ele>78</ele>
<time>2016-10-04T23:23:10Z</time>
</trkpt>
<trkpt lat="35.357147216796875" lon="-119.11981964111328">
<ele>76</ele>
<time>2016-10-04T23:23:16Z</time>
</trkpt>
<trkpt lat="35.357086181640625" lon="-119.12020111083984">
<ele>77</ele>
<time>2016-10-04T23:23:22Z</time>
</trkpt>
<trkpt lat="35.35702133178711" lon="-119.12056732177734">
<ele>74</ele>
<time>2016-10-04T23:23:28Z</time>
</trkpt>
<trkpt lat="35.356971740722656" lon="-119.12095642089844">
<ele>74</ele>
<time>2016-10-04T23:23:34Z</time>
</trkpt>
<trkpt lat="35.356910705566406" lon="-119.121337890625">
<ele>75</ele>
<time>2016-10-04T23:23:40Z</time>
</trkpt>
<trkpt lat="35.35685729980469" lon="-119.1217269897461">
<ele>73</ele>
<time>2016-10-04T23:23:46Z</time>
</trkpt>
<trkpt lat="35.356807708740234" lon="-119.12211608886719">
<ele>73</ele>
<time>2016-10-04T23:23:52Z</time>
</trkpt>
<trkpt lat="35.35672378540039" lon="-119.12249755859375">
<ele>76</ele>
<time>2016-10-04T23:23:58Z</time>
</trkpt>
<trkpt lat="35.356536865234375" lon="-119.12277221679688">
<ele>80</ele>
<time>2016-10-04T23:24:04Z</time>
</trkpt>
<trkpt lat="35.356475830078125" lon="-119.12313079833984">
<ele>78</ele>
<time>2016-10-04T23:24:10Z</time>
</trkpt>
<trkpt lat="35.356502532958984" lon="-119.12350463867188">
<ele>79</ele>
<time>2016-10-04T23:24:16Z</time>
</trkpt>
<trkpt lat="35.35640335083008" lon="-119.1239013671875">
<ele>78</ele>
<time>2016-10-04T23:24:23Z</time>
</trkpt>
<trkpt lat="35.35628890991211" lon="-119.12422943115234">
<ele>78</ele>
<time>2016-10-04T23:24:29Z</time>
</trkpt>
<trkpt lat="35.356163024902344" lon="-119.12457275390625">
<ele>79</ele>
<time>2016-10-04T23:24:35Z</time>
</trkpt>
<trkpt lat="35.356048583984375" lon="-119.12494659423828">
<ele>80</ele>
<time>2016-10-04T23:24:41Z</time>
</trkpt>
<trkpt lat="35.35592269897461" lon="-119.12533569335938">
<ele>75</ele>
<time>2016-10-04T23:24:48Z</time>
</trkpt>
<trkpt lat="35.35579299926758" lon="-119.12570190429688">
<ele>79</ele>
<time>2016-10-04T23:24:54Z</time>
</trkpt>
<trkpt lat="35.35570526123047" lon="-119.12604522705078">
<ele>82</ele>
<time>2016-10-04T23:25:00Z</time>
</trkpt>
<trkpt lat="35.35559844970703" lon="-119.12641906738281">
<ele>76</ele>
<time>2016-10-04T23:25:06Z</time>
</trkpt>
<trkpt lat="35.35548782348633" lon="-119.12676239013672">
<ele>76</ele>
<time>2016-10-04T23:25:12Z</time>
</trkpt>
<trkpt lat="35.3553581237793" lon="-119.12715148925781">
<ele>74</ele>
<time>2016-10-04T23:25:19Z</time>
</trkpt>
<trkpt lat="35.355224609375" lon="-119.12747192382813">
<ele>72</ele>
<time>2016-10-04T23:25:25Z</time>
</trkpt>
<trkpt lat="35.355064392089844" lon="-119.1277847290039">
<ele>74</ele>
<time>2016-10-04T23:25:31Z</time>
</trkpt>
<trkpt lat="35.354827880859375" lon="-119.1280288696289">
<ele>75</ele>
<time>2016-10-04T23:25:37Z</time>
</trkpt>
<trkpt lat="35.35457229614258" lon="-119.12809753417969">
<ele>73</ele>
<time>2016-10-04T23:25:43Z</time>
</trkpt>
<trkpt lat="35.35430908203125" lon="-119.12806701660156">
<ele>72</ele>
<time>2016-10-04T23:25:49Z</time>
</trkpt>
<trkpt lat="35.3541145324707" lon="-119.12833404541016">
<ele>74</ele>
<time>2016-10-04T23:25:55Z</time>
</trkpt>
<trkpt lat="35.35397720336914" lon="-119.12869262695313">
<ele>73</ele>
<time>2016-10-04T23:26:01Z</time>
</trkpt>
<trkpt lat="35.35382843017578" lon="-119.12903594970703">
<ele>73</ele>
<time>2016-10-04T23:26:07Z</time>
</trkpt>
<trkpt lat="35.353633880615234" lon="-119.12940216064453">
<ele>75</ele>
<time>2016-10-04T23:26:14Z</time>
</trkpt>
<trkpt lat="35.353782653808594" lon="-119.12967681884766">
<ele>78</ele>
<time>2016-10-04T23:26:21Z</time>
</trkpt>
<trkpt lat="35.353981018066406" lon="-119.12981414794922">
<ele>81</ele>
<time>2016-10-04T23:26:27Z</time>
</trkpt>
<trkpt lat="35.35390853881836" lon="-119.130126953125">
<ele>77</ele>
<time>2016-10-04T23:26:33Z</time>
</trkpt>
<trkpt lat="35.35372543334961" lon="-119.13037872314453">
<ele>75</ele>
<time>2016-10-04T23:26:39Z</time>
</trkpt>
<trkpt lat="35.353614807128906" lon="-119.13075256347656">
<ele>75</ele>
<time>2016-10-04T23:26:45Z</time>
</trkpt>
<trkpt lat="35.35348129272461" lon="-119.13111114501953">
<ele>77</ele>
<time>2016-10-04T23:26:51Z</time>
</trkpt>
<trkpt lat="35.35332107543945" lon="-119.1314468383789">
<ele>77</ele>
<time>2016-10-04T23:26:57Z</time>
</trkpt>
<trkpt lat="35.35316848754883" lon="-119.13180541992188">
<ele>77</ele>
<time>2016-10-04T23:27:03Z</time>
</trkpt>
<trkpt lat="35.35301208496094" lon="-119.13214111328125">
<ele>77</ele>
<time>2016-10-04T23:27:09Z</time>
</trkpt>
<trkpt lat="35.352848052978516" lon="-119.13247680664063">
<ele>78</ele>
<time>2016-10-04T23:27:15Z</time>
</trkpt>
<trkpt lat="35.35270309448242" lon="-119.1328125">
<ele>78</ele>
<time>2016-10-04T23:27:21Z</time>
</trkpt>
<trkpt lat="35.352577209472656" lon="-119.133056640625">
<ele>76</ele>
<time>2016-10-04T23:27:27Z</time>
</trkpt>
<trkpt lat="35.3524169921875" lon="-119.13306427001953">
<ele>78</ele>
<time>2016-10-04T23:27:33Z</time>
</trkpt>
<trkpt lat="35.35243225097656" lon="-119.13301086425781">
<ele>77</ele>
<time>2016-10-04T23:28:02Z</time>
</trkpt>
<trkpt lat="35.35238265991211" lon="-119.13298034667969">
<ele>79</ele>
<time>2016-10-04T23:29:11Z</time>
</trkpt>
<trkpt lat="35.35224151611328" lon="-119.13284301757813">
<ele>79</ele>
<time>2016-10-04T23:29:17Z</time>
</trkpt>
<trkpt lat="35.35224914550781" lon="-119.13256072998047">
<ele>81</ele>
<time>2016-10-04T23:29:23Z</time>
</trkpt>
<trkpt lat="35.35242462158203" lon="-119.1322250366211">
<ele>81</ele>
<time>2016-10-04T23:29:29Z</time>
</trkpt>
<trkpt lat="35.35261154174805" lon="-119.13189697265625">
<ele>80</ele>
<time>2016-10-04T23:29:35Z</time>
</trkpt>
<trkpt lat="35.3527946472168" lon="-119.13157653808594">
<ele>80</ele>
<time>2016-10-04T23:29:41Z</time>
</trkpt>
<trkpt lat="35.352943420410156" lon="-119.1312026977539">
<ele>78</ele>
<time>2016-10-04T23:29:47Z</time>
</trkpt>
<trkpt lat="35.35307312011719" lon="-119.13082885742188">
<ele>79</ele>
<time>2016-10-04T23:29:53Z</time>
</trkpt>
<trkpt lat="35.3531379699707" lon="-119.13046264648438">
<ele>77</ele>
<time>2016-10-04T23:29:59Z</time>
</trkpt>
<trkpt lat="35.35322570800781" lon="-119.13006591796875">
<ele>76</ele>
<time>2016-10-04T23:30:05Z</time>
</trkpt>
<trkpt lat="35.35316848754883" lon="-119.12969970703125">
<ele>76</ele>
<time>2016-10-04T23:30:11Z</time>
</trkpt>
<trkpt lat="35.35289764404297" lon="-119.12960815429688">
<ele>75</ele>
<time>2016-10-04T23:30:17Z</time>
</trkpt>
<trkpt lat="35.35258865356445" lon="-119.12945556640625">
<ele>73</ele>
<time>2016-10-04T23:30:24Z</time>
</trkpt>
<trkpt lat="35.352298736572266" lon="-119.12932586669922">
<ele>72</ele>
<time>2016-10-04T23:30:30Z</time>
</trkpt>
<trkpt lat="35.35198974609375" lon="-119.12918090820313">
<ele>72</ele>
<time>2016-10-04T23:30:36Z</time>
</trkpt>
<trkpt lat="35.3516845703125" lon="-119.12904357910156">
<ele>77</ele>
<time>2016-10-04T23:30:42Z</time>
</trkpt>
<trkpt lat="35.35142517089844" lon="-119.12893676757813">
<ele>77</ele>
<time>2016-10-04T23:30:48Z</time>
</trkpt>
<trkpt lat="35.35132598876953" lon="-119.12911987304688">
<ele>76</ele>
<time>2016-10-04T23:30:54Z</time>
</trkpt>
<trkpt lat="35.35130310058594" lon="-119.12945556640625">
<ele>76</ele>
<time>2016-10-04T23:31:00Z</time>
</trkpt>
<trkpt lat="35.351295471191406" lon="-119.12982177734375">
<ele>81</ele>
<time>2016-10-04T23:31:06Z</time>
</trkpt>
<trkpt lat="35.35129928588867" lon="-119.13019561767578">
<ele>78</ele>
<time>2016-10-04T23:31:12Z</time>
</trkpt>
<trkpt lat="35.351314544677734" lon="-119.13058471679688">
<ele>80</ele>
<time>2016-10-04T23:31:18Z</time>
</trkpt>
<trkpt lat="35.351287841796875" lon="-119.13090515136719">
<ele>78</ele>
<time>2016-10-04T23:31:24Z</time>
</trkpt>
<trkpt lat="35.35103225708008" lon="-119.13099670410156">
<ele>76</ele>
<time>2016-10-04T23:31:31Z</time>
</trkpt>
<trkpt lat="35.351043701171875" lon="-119.13091278076172">
<ele>75</ele>
<time>2016-10-04T23:31:37Z</time>
</trkpt>
<trkpt lat="35.351261138916016" lon="-119.13091278076172">
<ele>76</ele>
<time>2016-10-04T23:31:43Z</time>
</trkpt>
<trkpt lat="35.351318359375" lon="-119.13072967529297">
<ele>76</ele>
<time>2016-10-04T23:31:49Z</time>
</trkpt>
<trkpt lat="35.35105514526367" lon="-119.13056945800781">
<ele>76</ele>
<time>2016-10-04T23:31:56Z</time>
</trkpt>
<trkpt lat="35.35106658935547" lon="-119.13017272949219">
<ele>73</ele>
<time>2016-10-04T23:32:02Z</time>
</trkpt>
<trkpt lat="35.35080337524414" lon="-119.13017272949219">
<ele>77</ele>
<time>2016-10-04T23:32:08Z</time>
</trkpt>
<trkpt lat="35.350868225097656" lon="-119.13041687011719">
<ele>77</ele>
<time>2016-10-04T23:32:14Z</time>
</trkpt>
<trkpt lat="35.350860595703125" lon="-119.13025665283203">
<ele>79</ele>
<time>2016-10-04T23:32:21Z</time>
</trkpt>
<trkpt lat="35.35091781616211" lon="-119.13033294677734">
<ele>80</ele>
<time>2016-10-04T23:34:14Z</time>
</trkpt>
<trkpt lat="35.350868225097656" lon="-119.13045501708984">
<ele>80</ele>
<time>2016-10-04T23:34:20Z</time>
</trkpt>
<trkpt lat="35.3507194519043" lon="-119.13031005859375">
<ele>83</ele>
<time>2016-10-04T23:34:26Z</time>
</trkpt>
<trkpt lat="35.35088348388672" lon="-119.13008880615234">
<ele>82</ele>
<time>2016-10-04T23:34:32Z</time>
</trkpt>
<trkpt lat="35.35110855102539" lon="-119.130126953125">
<ele>80</ele>
<time>2016-10-04T23:34:38Z</time>
</trkpt>
<trkpt lat="35.35102081298828" lon="-119.12987518310547">
<ele>77</ele>
<time>2016-10-04T23:34:44Z</time>
</trkpt>
<trkpt lat="35.35099411010742" lon="-119.12966918945313">
<ele>77</ele>
<time>2016-10-04T23:34:50Z</time>
</trkpt>
<trkpt lat="35.35103225708008" lon="-119.12946319580078">
<ele>77</ele>
<time>2016-10-04T23:34:56Z</time>
</trkpt>
<trkpt lat="35.351009368896484" lon="-119.12921905517578">
<ele>77</ele>
<time>2016-10-04T23:35:02Z</time>
</trkpt>
<trkpt lat="35.35088348388672" lon="-119.12895965576172">
<ele>80</ele>
<time>2016-10-04T23:35:08Z</time>
</trkpt>
<trkpt lat="35.35087966918945" lon="-119.12873840332031">
<ele>80</ele>
<time>2016-10-04T23:35:14Z</time>
</trkpt>
<trkpt lat="35.35084533691406" lon="-119.12855529785156">
<ele>77</ele>
<time>2016-10-04T23:35:22Z</time>
</trkpt>
<trkpt lat="35.350975036621094" lon="-119.12846374511719">
<ele>79</ele>
<time>2016-10-04T23:35:28Z</time>
</trkpt>
<trkpt lat="35.35103988647461" lon="-119.12847900390625">
<ele>74</ele>
<time>2016-10-04T23:36:56Z</time>
</trkpt>
<trkpt lat="35.35098648071289" lon="-119.12845611572266">
<ele>77</ele>
<time>2016-10-05T00:05:02Z</time>
</trkpt>
<trkpt lat="35.35102462768555" lon="-119.12848663330078">
<ele>78</ele>
<time>2016-10-05T00:05:35Z</time>
</trkpt>
<trkpt lat="35.350975036621094" lon="-119.12860107421875">
<ele>76</ele>
<time>2016-10-05T00:05:41Z</time>
</trkpt>
<trkpt lat="35.35086441040039" lon="-119.1287612915039">
<ele>78</ele>
<time>2016-10-05T00:05:47Z</time>
</trkpt>
<trkpt lat="35.35090637207031" lon="-119.1291275024414">
<ele>79</ele>
<time>2016-10-05T00:05:53Z</time>
</trkpt>
<trkpt lat="35.35102081298828" lon="-119.12950897216797">
<ele>84</ele>
<time>2016-10-05T00:05:59Z</time>
</trkpt>
<trkpt lat="35.35101318359375" lon="-119.12989044189453">
<ele>85</ele>
<time>2016-10-05T00:06:05Z</time>
</trkpt>
<trkpt lat="35.3511848449707" lon="-119.13028717041016">
<ele>84</ele>
<time>2016-10-05T00:06:12Z</time>
</trkpt>
<trkpt lat="35.35103988647461" lon="-119.13062286376953">
<ele>82</ele>
<time>2016-10-05T00:06:18Z</time>
</trkpt>
<trkpt lat="35.35073471069336" lon="-119.13060760498047">
<ele>81</ele>
<time>2016-10-05T00:06:24Z</time>
</trkpt>
<trkpt lat="35.350555419921875" lon="-119.1302261352539">
<ele>80</ele>
<time>2016-10-05T00:06:30Z</time>
</trkpt>
<trkpt lat="35.350345611572266" lon="-119.12985229492188">
<ele>77</ele>
<time>2016-10-05T00:06:36Z</time>
</trkpt>
<trkpt lat="35.350093841552734" lon="-119.1294937133789">
<ele>76</ele>
<time>2016-10-05T00:06:42Z</time>
</trkpt>
<trkpt lat="35.34988784790039" lon="-119.12911987304688">
<ele>77</ele>
<time>2016-10-05T00:06:48Z</time>
</trkpt>
<trkpt lat="35.349708557128906" lon="-119.1288070678711">
<ele>77</ele>
<time>2016-10-05T00:06:54Z</time>
</trkpt>
<trkpt lat="35.34958267211914" lon="-119.12849426269531">
<ele>76</ele>
<time>2016-10-05T00:07:00Z</time>
</trkpt>
<trkpt lat="35.34964370727539" lon="-119.12809753417969">
<ele>74</ele>
<time>2016-10-05T00:07:06Z</time>
</trkpt>
<trkpt lat="35.34986114501953" lon="-119.12782287597656">
<ele>76</ele>
<time>2016-10-05T00:07:12Z</time>
</trkpt>
<trkpt lat="35.35010528564453" lon="-119.12770080566406">
<ele>77</ele>
<time>2016-10-05T00:07:18Z</time>
</trkpt>
<trkpt lat="35.35040283203125" lon="-119.12751770019531">
<ele>73</ele>
<time>2016-10-05T00:07:25Z</time>
</trkpt>
<trkpt lat="35.350624084472656" lon="-119.12763977050781">
<ele>69</ele>
<time>2016-10-05T00:07:31Z</time>
</trkpt>
<trkpt lat="35.35081100463867" lon="-119.12791442871094">
<ele>72</ele>
<time>2016-10-05T00:07:37Z</time>
</trkpt>
<trkpt lat="35.350948333740234" lon="-119.12763977050781">
<ele>75</ele>
<time>2016-10-05T00:07:43Z</time>
</trkpt>
<trkpt lat="35.35116958618164" lon="-119.12742614746094">
<ele>74</ele>
<time>2016-10-05T00:07:49Z</time>
</trkpt>
<trkpt lat="35.35136413574219" lon="-119.12712860107422">
<ele>75</ele>
<time>2016-10-05T00:07:56Z</time>
</trkpt>
<trkpt lat="35.35158157348633" lon="-119.12692260742188">
<ele>74</ele>
<time>2016-10-05T00:08:02Z</time>
</trkpt>
<trkpt lat="35.351844787597656" lon="-119.12693786621094">
<ele>76</ele>
<time>2016-10-05T00:08:08Z</time>
</trkpt>
<trkpt lat="35.352115631103516" lon="-119.12683868408203">
<ele>79</ele>
<time>2016-10-05T00:08:15Z</time>
</trkpt>
<trkpt lat="35.352333068847656" lon="-119.12661743164063">
<ele>78</ele>
<time>2016-10-05T00:08:22Z</time>
</trkpt>
<trkpt lat="35.35243225097656" lon="-119.12625122070313">
<ele>75</ele>
<time>2016-10-05T00:08:28Z</time>
</trkpt>
<trkpt lat="35.352508544921875" lon="-119.12589263916016">
<ele>73</ele>
<time>2016-10-05T00:08:34Z</time>
</trkpt>
<trkpt lat="35.35259246826172" lon="-119.12542724609375">
<ele>73</ele>
<time>2016-10-05T00:08:40Z</time>
</trkpt>
<trkpt lat="35.352657318115234" lon="-119.1249008178711">
<ele>71</ele>
<time>2016-10-05T00:08:46Z</time>
</trkpt>
<trkpt lat="35.35264587402344" lon="-119.12435913085938">
<ele>75</ele>
<time>2016-10-05T00:08:52Z</time>
</trkpt>
<trkpt lat="35.352596282958984" lon="-119.1238021850586">
<ele>76</ele>
<time>2016-10-05T00:08:58Z</time>
</trkpt>
<trkpt lat="35.35255813598633" lon="-119.12326049804688">
<ele>77</ele>
<time>2016-10-05T00:09:04Z</time>
</trkpt>
<trkpt lat="35.35251998901367" lon="-119.12275695800781">
<ele>75</ele>
<time>2016-10-05T00:09:10Z</time>
</trkpt>
<trkpt lat="35.35257339477539" lon="-119.12220764160156">
<ele>71</ele>
<time>2016-10-05T00:09:16Z</time>
</trkpt>
<trkpt lat="35.352622985839844" lon="-119.12165832519531">
<ele>72</ele>
<time>2016-10-05T00:09:22Z</time>
</trkpt>
<trkpt lat="35.35268020629883" lon="-119.12114715576172">
<ele>73</ele>
<time>2016-10-05T00:09:28Z</time>
</trkpt>
<trkpt lat="35.35266876220703" lon="-119.12059020996094">
<ele>76</ele>
<time>2016-10-05T00:09:34Z</time>
</trkpt>
<trkpt lat="35.35274124145508" lon="-119.12007141113281">
<ele>77</ele>
<time>2016-10-05T00:09:40Z</time>
</trkpt>
<trkpt lat="35.35279083251953" lon="-119.11959075927734">
<ele>77</ele>
<time>2016-10-05T00:09:46Z</time>
</trkpt>
<trkpt lat="35.35297775268555" lon="-119.1192398071289">
<ele>74</ele>
<time>2016-10-05T00:09:52Z</time>
</trkpt>
<trkpt lat="35.35318374633789" lon="-119.11894989013672">
<ele>70</ele>
<time>2016-10-05T00:09:58Z</time>
</trkpt>
<trkpt lat="35.353336334228516" lon="-119.11852264404297">
<ele>71</ele>
<time>2016-10-05T00:10:04Z</time>
</trkpt>
<trkpt lat="35.35364532470703" lon="-119.11820983886719">
<ele>75</ele>
<time>2016-10-05T00:10:10Z</time>
</trkpt>
<trkpt lat="35.35372543334961" lon="-119.11782836914063">
<ele>74</ele>
<time>2016-10-05T00:10:16Z</time>
</trkpt>
<trkpt lat="35.3538818359375" lon="-119.1174545288086">
<ele>76</ele>
<time>2016-10-05T00:10:22Z</time>
</trkpt>
<trkpt lat="35.3540153503418" lon="-119.11707305908203">
<ele>78</ele>
<time>2016-10-05T00:10:28Z</time>
</trkpt>
<trkpt lat="35.35419845581055" lon="-119.11668395996094">
<ele>76</ele>
<time>2016-10-05T00:10:34Z</time>
</trkpt>
<trkpt lat="35.354434967041016" lon="-119.11631774902344">
<ele>75</ele>
<time>2016-10-05T00:10:40Z</time>
</trkpt>
<trkpt lat="35.354713439941406" lon="-119.11609649658203">
<ele>75</ele>
<time>2016-10-05T00:10:46Z</time>
</trkpt>
<trkpt lat="35.35505294799805" lon="-119.11595916748047">
<ele>77</ele>
<time>2016-10-05T00:10:52Z</time>
</trkpt>
<trkpt lat="35.35529327392578" lon="-119.11566925048828">
<ele>74</ele>
<time>2016-10-05T00:10:59Z</time>
</trkpt>
<trkpt lat="35.35541915893555" lon="-119.1153564453125">
<ele>73</ele>
<time>2016-10-05T00:11:05Z</time>
</trkpt>
<trkpt lat="35.355403900146484" lon="-119.11495208740234">
<ele>79</ele>
<time>2016-10-05T00:11:11Z</time>
</trkpt>
<trkpt lat="35.35519790649414" lon="-119.11460876464844">
<ele>79</ele>
<time>2016-10-05T00:11:18Z</time>
</trkpt>
<trkpt lat="35.35515594482422" lon="-119.11434173583984">
<ele>80</ele>
<time>2016-10-05T00:11:24Z</time>
</trkpt>
<trkpt lat="35.35520935058594" lon="-119.11412048339844">
<ele>79</ele>
<time>2016-10-05T00:11:30Z</time>
</trkpt>
<trkpt lat="35.35532760620117" lon="-119.1137924194336">
<ele>77</ele>
<time>2016-10-05T00:11:36Z</time>
</trkpt>
<trkpt lat="35.35541534423828" lon="-119.11341094970703">
<ele>77</ele>
<time>2016-10-05T00:11:42Z</time>
</trkpt>
<trkpt lat="35.35547637939453" lon="-119.11302947998047">
<ele>75</ele>
<time>2016-10-05T00:11:48Z</time>
</trkpt>
<trkpt lat="35.35551452636719" lon="-119.11260986328125">
<ele>74</ele>
<time>2016-10-05T00:11:54Z</time>
</trkpt>
<trkpt lat="35.355567932128906" lon="-119.1121826171875">
<ele>76</ele>
<time>2016-10-05T00:12:00Z</time>
</trkpt>
<trkpt lat="35.35562515258789" lon="-119.11174774169922">
<ele>75</ele>
<time>2016-10-05T00:12:06Z</time>
</trkpt>
<trkpt lat="35.35567092895508" lon="-119.11128234863281">
<ele>76</ele>
<time>2016-10-05T00:12:12Z</time>
</trkpt>
<trkpt lat="35.355716705322266" lon="-119.11083984375">
<ele>78</ele>
<time>2016-10-05T00:12:18Z</time>
</trkpt>
<trkpt lat="35.355770111083984" lon="-119.11038208007813">
<ele>80</ele>
<time>2016-10-05T00:12:24Z</time>
</trkpt>
<trkpt lat="35.35584259033203" lon="-119.10993194580078">
<ele>80</ele>
<time>2016-10-05T00:12:30Z</time>
</trkpt>
<trkpt lat="35.35588836669922" lon="-119.10946655273438">
<ele>82</ele>
<time>2016-10-05T00:12:36Z</time>
</trkpt>
<trkpt lat="35.355953216552734" lon="-119.10899353027344">
<ele>84</ele>
<time>2016-10-05T00:12:42Z</time>
</trkpt>
<trkpt lat="35.355979919433594" lon="-119.10846710205078">
<ele>80</ele>
<time>2016-10-05T00:12:48Z</time>
</trkpt>
<trkpt lat="35.356021881103516" lon="-119.10795593261719">
<ele>79</ele>
<time>2016-10-05T00:12:54Z</time>
</trkpt>
<trkpt lat="35.356101989746094" lon="-119.10746765136719">
<ele>81</ele>
<time>2016-10-05T00:13:00Z</time>
</trkpt>
<trkpt lat="35.35610580444336" lon="-119.10701751708984">
<ele>78</ele>
<time>2016-10-05T00:13:06Z</time>
</trkpt>
<trkpt lat="35.35601043701172" lon="-119.1065902709961">
<ele>76</ele>
<time>2016-10-05T00:13:12Z</time>
</trkpt>
<trkpt lat="35.35587692260742" lon="-119.10614013671875">
<ele>78</ele>
<time>2016-10-05T00:13:18Z</time>
</trkpt>
<trkpt lat="35.355716705322266" lon="-119.1057357788086">
<ele>80</ele>
<time>2016-10-05T00:13:24Z</time>
</trkpt>
<trkpt lat="35.355655670166016" lon="-119.10530090332031">
<ele>77</ele>
<time>2016-10-05T00:13:30Z</time>
</trkpt>
<trkpt lat="35.35551834106445" lon="-119.10482788085938">
<ele>79</ele>
<time>2016-10-05T00:13:36Z</time>
</trkpt>
<trkpt lat="35.3554573059082" lon="-119.10433959960938">
<ele>82</ele>
<time>2016-10-05T00:13:42Z</time>
</trkpt>
<trkpt lat="35.35532760620117" lon="-119.10386657714844">
<ele>81</ele>
<time>2016-10-05T00:13:48Z</time>
</trkpt>
<trkpt lat="35.35517883300781" lon="-119.10342407226563">
<ele>80</ele>
<time>2016-10-05T00:13:54Z</time>
</trkpt>
<trkpt lat="35.355037689208984" lon="-119.10294342041016">
<ele>80</ele>
<time>2016-10-05T00:14:00Z</time>
</trkpt>
<trkpt lat="35.355018615722656" lon="-119.10245513916016">
<ele>80</ele>
<time>2016-10-05T00:14:06Z</time>
</trkpt>
<trkpt lat="35.35505676269531" lon="-119.10200500488281">
<ele>83</ele>
<time>2016-10-05T00:14:12Z</time>
</trkpt>
<trkpt lat="35.35504150390625" lon="-119.10153198242188">
<ele>83</ele>
<time>2016-10-05T00:14:18Z</time>
</trkpt>
<trkpt lat="35.35505676269531" lon="-119.1010971069336">
<ele>81</ele>
<time>2016-10-05T00:14:24Z</time>
</trkpt>
<trkpt lat="35.35486602783203" lon="-119.10090637207031">
<ele>83</ele>
<time>2016-10-05T00:14:31Z</time>
</trkpt>
<trkpt lat="35.35462188720703" lon="-119.10086059570313">
<ele>79</ele>
<time>2016-10-05T00:14:38Z</time>
</trkpt>
<trkpt lat="35.35452651977539" lon="-119.1007080078125">
<ele>76</ele>
<time>2016-10-05T00:14:44Z</time>
</trkpt>
<trkpt lat="35.35447692871094" lon="-119.10070037841797">
<ele>86</ele>
<time>2016-10-05T00:16:02Z</time>
</trkpt>
<trkpt lat="35.3542366027832" lon="-119.1007308959961">
<ele>85</ele>
<time>2016-10-05T00:16:08Z</time>
</trkpt>
<trkpt lat="35.35400390625" lon="-119.10076141357422">
<ele>84</ele>
<time>2016-10-05T00:16:14Z</time>
</trkpt>
<trkpt lat="35.35379409790039" lon="-119.10076904296875">
<ele>84</ele>
<time>2016-10-05T00:16:20Z</time>
</trkpt>
<trkpt lat="35.35360336303711" lon="-119.10076141357422">
<ele>81</ele>
<time>2016-10-05T00:16:26Z</time>
</trkpt>
<trkpt lat="35.35344314575195" lon="-119.10074615478516">
<ele>82</ele>
<time>2016-10-05T00:16:34Z</time>
</trkpt>
<trkpt lat="35.353328704833984" lon="-119.10078430175781">
<ele>83</ele>
<time>2016-10-05T00:16:40Z</time>
</trkpt>
<trkpt lat="35.353031158447266" lon="-119.10078430175781">
<ele>81</ele>
<time>2016-10-05T00:16:47Z</time>
</trkpt>
<trkpt lat="35.352840423583984" lon="-119.10076904296875">
<ele>81</ele>
<time>2016-10-05T00:16:54Z</time>
</trkpt>
<trkpt lat="35.35268783569336" lon="-119.10074615478516">
<ele>82</ele>
<time>2016-10-05T00:17:00Z</time>
</trkpt>
<trkpt lat="35.35239791870117" lon="-119.10077667236328">
<ele>83</ele>
<time>2016-10-05T00:17:07Z</time>
</trkpt>
<trkpt lat="35.3521842956543" lon="-119.10072326660156">
<ele>84</ele>
<time>2016-10-05T00:17:13Z</time>
</trkpt>
<trkpt lat="35.35209655761719" lon="-119.100830078125">
<ele>82</ele>
<time>2016-10-05T00:17:21Z</time>
</trkpt>
<trkpt lat="35.35207748413086" lon="-119.10105895996094">
<ele>80</ele>
<time>2016-10-05T00:17:27Z</time>
</trkpt>
<trkpt lat="35.35179138183594" lon="-119.10100555419922">
<ele>78</ele>
<time>2016-10-05T00:17:33Z</time>
</trkpt>
<trkpt lat="35.351505279541016" lon="-119.10099792480469">
<ele>75</ele>
<time>2016-10-05T00:17:39Z</time>
</trkpt>
<trkpt lat="35.35127639770508" lon="-119.10099029541016">
<ele>75</ele>
<time>2016-10-05T00:17:46Z</time>
</trkpt>
<trkpt lat="35.35112762451172" lon="-119.10094451904297">
<ele>78</ele>
<time>2016-10-05T00:17:52Z</time>
</trkpt>
<trkpt lat="35.3508186340332" lon="-119.10093688964844">
<ele>81</ele>
<time>2016-10-05T00:17:59Z</time>
</trkpt>
<trkpt lat="35.35051345825195" lon="-119.10095977783203">
<ele>78</ele>
<time>2016-10-05T00:18:06Z</time>
</trkpt>
<trkpt lat="35.350250244140625" lon="-119.1009521484375">
<ele>80</ele>
<time>2016-10-05T00:18:12Z</time>
</trkpt>
<trkpt lat="35.349945068359375" lon="-119.1009292602539">
<ele>81</ele>
<time>2016-10-05T00:18:18Z</time>
</trkpt>
<trkpt lat="35.34963607788086" lon="-119.1009292602539">
<ele>82</ele>
<time>2016-10-05T00:18:24Z</time>
</trkpt>
<trkpt lat="35.349334716796875" lon="-119.1009521484375">
<ele>79</ele>
<time>2016-10-05T00:18:30Z</time>
</trkpt>
<trkpt lat="35.349002838134766" lon="-119.10096740722656">
<ele>80</ele>
<time>2016-10-05T00:18:36Z</time>
</trkpt>
<trkpt lat="35.34865951538086" lon="-119.1009750366211">
<ele>81</ele>
<time>2016-10-05T00:18:42Z</time>
</trkpt>
<trkpt lat="35.34859085083008" lon="-119.10134887695313">
<ele>84</ele>
<time>2016-10-05T00:18:48Z</time>
</trkpt>
<trkpt lat="35.34821319580078" lon="-119.10132598876953">
<ele>83</ele>
<time>2016-10-05T00:18:54Z</time>
</trkpt>
<trkpt lat="35.347904205322266" lon="-119.10111236572266">
<ele>85</ele>
<time>2016-10-05T00:19:00Z</time>
</trkpt>
<trkpt lat="35.34790802001953" lon="-119.10071563720703">
<ele>79</ele>
<time>2016-10-05T00:19:06Z</time>
</trkpt>
<trkpt lat="35.34789276123047" lon="-119.10028839111328">
<ele>81</ele>
<time>2016-10-05T00:19:12Z</time>
</trkpt>
<trkpt lat="35.347564697265625" lon="-119.10012817382813">
<ele>80</ele>
<time>2016-10-05T00:19:18Z</time>
</trkpt>
<trkpt lat="35.347225189208984" lon="-119.10012817382813">
<ele>78</ele>
<time>2016-10-05T00:19:24Z</time>
</trkpt>
<trkpt lat="35.34687042236328" lon="-119.10012817382813">
<ele>78</ele>
<time>2016-10-05T00:19:30Z</time>
</trkpt>
<trkpt lat="35.34650802612305" lon="-119.10016632080078">
<ele>77</ele>
<time>2016-10-05T00:19:36Z</time>
</trkpt>
<trkpt lat="35.34613037109375" lon="-119.1001968383789">
<ele>77</ele>
<time>2016-10-05T00:19:42Z</time>
</trkpt>
<trkpt lat="35.34575653076172" lon="-119.10023498535156">
<ele>75</ele>
<time>2016-10-05T00:19:48Z</time>
</trkpt>
<trkpt lat="35.34555435180664" lon="-119.10047149658203">
<ele>75</ele>
<time>2016-10-05T00:19:54Z</time>
</trkpt>
<trkpt lat="35.345367431640625" lon="-119.1008071899414">
<ele>77</ele>
<time>2016-10-05T00:20:00Z</time>
</trkpt>
<trkpt lat="35.345184326171875" lon="-119.1011734008789">
<ele>79</ele>
<time>2016-10-05T00:20:06Z</time>
</trkpt>
<trkpt lat="35.34493637084961" lon="-119.10138702392578">
<ele>76</ele>
<time>2016-10-05T00:20:12Z</time>
</trkpt>
<trkpt lat="35.344600677490234" lon="-119.10137939453125">
<ele>76</ele>
<time>2016-10-05T00:20:18Z</time>
</trkpt>
<trkpt lat="35.34422302246094" lon="-119.10139465332031">
<ele>78</ele>
<time>2016-10-05T00:20:24Z</time>
</trkpt>
<trkpt lat="35.34386444091797" lon="-119.10140228271484">
<ele>78</ele>
<time>2016-10-05T00:20:30Z</time>
</trkpt>
<trkpt lat="35.34353256225586" lon="-119.1014404296875">
<ele>77</ele>
<time>2016-10-05T00:20:36Z</time>
</trkpt>
<trkpt lat="35.343204498291016" lon="-119.10145568847656">
<ele>73</ele>
<time>2016-10-05T00:20:43Z</time>
</trkpt>
<trkpt lat="35.343017578125" lon="-119.10132598876953">
<ele>79</ele>
<time>2016-10-05T00:20:52Z</time>
</trkpt>
<trkpt lat="35.342979431152344" lon="-119.10108184814453">
<ele>80</ele>
<time>2016-10-05T00:20:58Z</time>
</trkpt>
<trkpt lat="35.3430061340332" lon="-119.1009750366211">
<ele>79</ele>
<time>2016-10-05T00:21:19Z</time>
</trkpt>
<trkpt lat="35.34295654296875" lon="-119.10096740722656">
<ele>84</ele>
<time>2016-10-05T00:21:31Z</time>
</trkpt>
<trkpt lat="35.3427848815918" lon="-119.1009750366211">
<ele>83</ele>
<time>2016-10-05T00:21:37Z</time>
</trkpt>
<trkpt lat="35.34258270263672" lon="-119.10099029541016">
<ele>82</ele>
<time>2016-10-05T00:21:43Z</time>
</trkpt>
<trkpt lat="35.34239196777344" lon="-119.10100555419922">
<ele>79</ele>
<time>2016-10-05T00:21:49Z</time>
</trkpt>
<trkpt lat="35.34219741821289" lon="-119.10102081298828">
<ele>80</ele>
<time>2016-10-05T00:21:55Z</time>
</trkpt>
<trkpt lat="35.34212112426758" lon="-119.10086059570313">
<ele>78</ele>
<time>2016-10-05T00:22:02Z</time>
</trkpt>
<trkpt lat="35.34213638305664" lon="-119.10064697265625">
<ele>78</ele>
<time>2016-10-05T00:22:08Z</time>
</trkpt>
<trkpt lat="35.342002868652344" lon="-119.10054779052734">
<ele>76</ele>
<time>2016-10-05T00:22:14Z</time>
</trkpt>
<trkpt lat="35.341957092285156" lon="-119.10078430175781">
<ele>75</ele>
<time>2016-10-05T00:22:20Z</time>
</trkpt>
<trkpt lat="35.34191131591797" lon="-119.10099792480469">
<ele>76</ele>
<time>2016-10-05T00:22:26Z</time>
</trkpt>
<trkpt lat="35.34169006347656" lon="-119.10098266601563">
<ele>75</ele>
<time>2016-10-05T00:22:32Z</time>
</trkpt>
<trkpt lat="35.34144973754883" lon="-119.10102081298828">
<ele>76</ele>
<time>2016-10-05T00:22:38Z</time>
</trkpt>
<trkpt lat="35.341102600097656" lon="-119.10101318359375">
<ele>76</ele>
<time>2016-10-05T00:22:45Z</time>
</trkpt>
<trkpt lat="35.34095764160156" lon="-119.10098266601563">
<ele>76</ele>
<time>2016-10-05T00:22:51Z</time>
</trkpt>
<trkpt lat="35.340782165527344" lon="-119.10108184814453">
<ele>73</ele>
<time>2016-10-05T00:22:57Z</time>
</trkpt>
<trkpt lat="35.34042739868164" lon="-119.10103607177734">
<ele>73</ele>
<time>2016-10-05T00:23:04Z</time>
</trkpt>
<trkpt lat="35.34016418457031" lon="-119.1010513305664">
<ele>76</ele>
<time>2016-10-05T00:23:10Z</time>
</trkpt>
<trkpt lat="35.339962005615234" lon="-119.10103607177734">
<ele>75</ele>
<time>2016-10-05T00:23:16Z</time>
</trkpt>
<trkpt lat="35.339996337890625" lon="-119.10099792480469">
<ele>76</ele>
<time>2016-10-05T00:23:29Z</time>
</trkpt>
<trkpt lat="35.33993911743164" lon="-119.10101318359375">
<ele>75</ele>
<time>2016-10-05T00:24:24Z</time>
</trkpt>
<trkpt lat="35.33967971801758" lon="-119.1009750366211">
<ele>76</ele>
<time>2016-10-05T00:24:30Z</time>
</trkpt>
<trkpt lat="35.33942794799805" lon="-119.10094451904297">
<ele>77</ele>
<time>2016-10-05T00:24:36Z</time>
</trkpt>
<trkpt lat="35.33908462524414" lon="-119.10095977783203">
<ele>78</ele>
<time>2016-10-05T00:24:43Z</time>
</trkpt>
<trkpt lat="35.3388786315918" lon="-119.10096740722656">
<ele>76</ele>
<time>2016-10-05T00:24:49Z</time>
</trkpt>
<trkpt lat="35.33860778808594" lon="-119.10099792480469">
<ele>77</ele>
<time>2016-10-05T00:24:55Z</time>
</trkpt>
<trkpt lat="35.33839797973633" lon="-119.10104370117188">
<ele>75</ele>
<time>2016-10-05T00:25:01Z</time>
</trkpt>
<trkpt lat="35.338104248046875" lon="-119.10101318359375">
<ele>78</ele>
<time>2016-10-05T00:25:07Z</time>
</trkpt>
<trkpt lat="35.33796691894531" lon="-119.10114288330078">
<ele>77</ele>
<time>2016-10-05T00:25:13Z</time>
</trkpt>
<trkpt lat="35.337730407714844" lon="-119.1012191772461">
<ele>77</ele>
<time>2016-10-05T00:25:19Z</time>
</trkpt>
<trkpt lat="35.337406158447266" lon="-119.10118865966797">
<ele>78</ele>
<time>2016-10-05T00:25:25Z</time>
</trkpt>
<trkpt lat="35.33706283569336" lon="-119.10108184814453">
<ele>79</ele>
<time>2016-10-05T00:25:31Z</time>
</trkpt>
<trkpt lat="35.336769104003906" lon="-119.10096740722656">
<ele>77</ele>
<time>2016-10-05T00:25:37Z</time>
</trkpt>
<trkpt lat="35.336456298828125" lon="-119.1007308959961">
<ele>78</ele>
<time>2016-10-05T00:25:43Z</time>
</trkpt>
<trkpt lat="35.336143493652344" lon="-119.10047912597656">
<ele>77</ele>
<time>2016-10-05T00:25:49Z</time>
</trkpt>
<trkpt lat="35.335899353027344" lon="-119.1001968383789">
<ele>75</ele>
<time>2016-10-05T00:25:55Z</time>
</trkpt>
<trkpt lat="35.335662841796875" lon="-119.09989166259766">
<ele>74</ele>
<time>2016-10-05T00:26:01Z</time>
</trkpt>
<trkpt lat="35.33544158935547" lon="-119.09959411621094">
<ele>73</ele>
<time>2016-10-05T00:26:07Z</time>
</trkpt>
<trkpt lat="35.33516311645508" lon="-119.09931182861328">
<ele>69</ele>
<time>2016-10-05T00:26:13Z</time>
</trkpt>
<trkpt lat="35.33485412597656" lon="-119.09910583496094">
<ele>75</ele>
<time>2016-10-05T00:26:19Z</time>
</trkpt>
<trkpt lat="35.33451843261719" lon="-119.09901428222656">
<ele>74</ele>
<time>2016-10-05T00:26:25Z</time>
</trkpt>
<trkpt lat="35.33415222167969" lon="-119.09898376464844">
<ele>74</ele>
<time>2016-10-05T00:26:31Z</time>
</trkpt>
<trkpt lat="35.33378982543945" lon="-119.09898376464844">
<ele>77</ele>
<time>2016-10-05T00:26:37Z</time>
</trkpt>
<trkpt lat="35.333465576171875" lon="-119.09909057617188">
<ele>81</ele>
<time>2016-10-05T00:26:43Z</time>
</trkpt>
<trkpt lat="35.33317565917969" lon="-119.0992431640625">
<ele>84</ele>
<time>2016-10-05T00:26:49Z</time>
</trkpt>
<trkpt lat="35.33293151855469" lon="-119.09944152832031">
<ele>81</ele>
<time>2016-10-05T00:26:55Z</time>
</trkpt>
<trkpt lat="35.333091735839844" lon="-119.09981536865234">
<ele>76</ele>
<time>2016-10-05T00:27:02Z</time>
</trkpt>
<trkpt lat="35.33320617675781" lon="-119.10017395019531">
<ele>74</ele>
<time>2016-10-05T00:27:08Z</time>
</trkpt>
<trkpt lat="35.3332633972168" lon="-119.1005630493164">
<ele>79</ele>
<time>2016-10-05T00:27:14Z</time>
</trkpt>
<trkpt lat="35.33327865600586" lon="-119.1009521484375">
<ele>80</ele>
<time>2016-10-05T00:27:20Z</time>
</trkpt>
<trkpt lat="35.33326721191406" lon="-119.10137176513672">
<ele>81</ele>
<time>2016-10-05T00:27:26Z</time>
</trkpt>
<trkpt lat="35.333168029785156" lon="-119.10169219970703">
<ele>84</ele>
<time>2016-10-05T00:27:32Z</time>
</trkpt>
<trkpt lat="35.333126068115234" lon="-119.10204315185547">
<ele>84</ele>
<time>2016-10-05T00:27:38Z</time>
</trkpt>
<trkpt lat="35.33295822143555" lon="-119.10216522216797">
<ele>83</ele>
<time>2016-10-05T00:27:44Z</time>
</trkpt>
<trkpt lat="35.33264923095703" lon="-119.1021728515625">
<ele>79</ele>
<time>2016-10-05T00:27:51Z</time>
</trkpt>
<trkpt lat="35.33234405517578" lon="-119.10214233398438">
<ele>79</ele>
<time>2016-10-05T00:27:57Z</time>
</trkpt>
<trkpt lat="35.33200454711914" lon="-119.10220336914063">
<ele>80</ele>
<time>2016-10-05T00:28:04Z</time>
</trkpt>
<trkpt lat="35.33173751831055" lon="-119.10218811035156">
<ele>81</ele>
<time>2016-10-05T00:28:11Z</time>
</trkpt>
<trkpt lat="35.331661224365234" lon="-119.10218048095703">
<ele>81</ele>
<time>2016-10-05T00:28:20Z</time>
</trkpt>
<trkpt lat="35.33162307739258" lon="-119.10211944580078">
<ele>75</ele>
<time>2016-10-05T00:28:54Z</time>
</trkpt>
<trkpt lat="35.331459045410156" lon="-119.10206604003906">
<ele>76</ele>
<time>2016-10-05T00:29:00Z</time>
</trkpt>
<trkpt lat="35.331275939941406" lon="-119.10205841064453">
<ele>78</ele>
<time>2016-10-05T00:29:06Z</time>
</trkpt>
<trkpt lat="35.331050872802734" lon="-119.10205841064453">
<ele>77</ele>
<time>2016-10-05T00:29:12Z</time>
</trkpt>
<trkpt lat="35.3307991027832" lon="-119.10205078125">
<ele>79</ele>
<time>2016-10-05T00:29:18Z</time>
</trkpt>
<trkpt lat="35.33055877685547" lon="-119.10196685791016">
<ele>78</ele>
<time>2016-10-05T00:29:24Z</time>
</trkpt>
<trkpt lat="35.330482482910156" lon="-119.10186004638672">
<ele>78</ele>
<time>2016-10-05T00:29:30Z</time>
</trkpt>
<trkpt lat="35.33039474487305" lon="-119.10160064697266">
<ele>77</ele>
<time>2016-10-05T00:29:36Z</time>
</trkpt>
<trkpt lat="35.33034133911133" lon="-119.10126495361328">
<ele>76</ele>
<time>2016-10-05T00:29:42Z</time>
</trkpt>
<trkpt lat="35.33034896850586" lon="-119.10089874267578">
<ele>76</ele>
<time>2016-10-05T00:29:48Z</time>
</trkpt>
<trkpt lat="35.33031463623047" lon="-119.10052490234375">
<ele>77</ele>
<time>2016-10-05T00:29:54Z</time>
</trkpt>
<trkpt lat="35.330257415771484" lon="-119.10013580322266">
<ele>77</ele>
<time>2016-10-05T00:30:00Z</time>
</trkpt>
<trkpt lat="35.33012390136719" lon="-119.0997543334961">
<ele>74</ele>
<time>2016-10-05T00:30:06Z</time>
</trkpt>
<trkpt lat="35.33000564575195" lon="-119.09933471679688">
<ele>75</ele>
<time>2016-10-05T00:30:12Z</time>
</trkpt>
<trkpt lat="35.329837799072266" lon="-119.09896850585938">
<ele>78</ele>
<time>2016-10-05T00:30:18Z</time>
</trkpt>
<trkpt lat="35.32969284057617" lon="-119.09854888916016">
<ele>75</ele>
<time>2016-10-05T00:30:24Z</time>
</trkpt>
<trkpt lat="35.329566955566406" lon="-119.09812927246094">
<ele>76</ele>
<time>2016-10-05T00:30:30Z</time>
</trkpt>
<trkpt lat="35.32943344116211" lon="-119.09770965576172">
<ele>74</ele>
<time>2016-10-05T00:30:36Z</time>
</trkpt>
<trkpt lat="35.32939147949219" lon="-119.09734344482422">
<ele>78</ele>
<time>2016-10-05T00:30:42Z</time>
</trkpt>
<trkpt lat="35.329383850097656" lon="-119.09697723388672">
<ele>77</ele>
<time>2016-10-05T00:30:48Z</time>
</trkpt>
<trkpt lat="35.32937240600586" lon="-119.09666442871094">
<ele>78</ele>
<time>2016-10-05T00:30:54Z</time>
</trkpt>
<trkpt lat="35.32939910888672" lon="-119.09629821777344">
<ele>78</ele>
<time>2016-10-05T00:31:00Z</time>
</trkpt>
<trkpt lat="35.32950973510742" lon="-119.0959243774414">
<ele>77</ele>
<time>2016-10-05T00:31:06Z</time>
</trkpt>
<trkpt lat="35.32961654663086" lon="-119.09556579589844">
<ele>75</ele>
<time>2016-10-05T00:31:12Z</time>
</trkpt>
<trkpt lat="35.329681396484375" lon="-119.09525299072266">
<ele>77</ele>
<time>2016-10-05T00:31:18Z</time>
</trkpt>
<trkpt lat="35.3297004699707" lon="-119.09492492675781">
<ele>78</ele>
<time>2016-10-05T00:31:24Z</time>
</trkpt>
<trkpt lat="35.32969284057617" lon="-119.09454345703125">
<ele>76</ele>
<time>2016-10-05T00:31:30Z</time>
</trkpt>
<trkpt lat="35.32966613769531" lon="-119.09416961669922">
<ele>78</ele>
<time>2016-10-05T00:31:36Z</time>
</trkpt>
<trkpt lat="35.32963562011719" lon="-119.0938491821289">
<ele>74</ele>
<time>2016-10-05T00:31:42Z</time>
</trkpt>
<trkpt lat="35.329681396484375" lon="-119.09351348876953">
<ele>75</ele>
<time>2016-10-05T00:31:49Z</time>
</trkpt>
<trkpt lat="35.32977294921875" lon="-119.09325408935547">
<ele>72</ele>
<time>2016-10-05T00:31:55Z</time>
</trkpt>
<trkpt lat="35.33007049560547" lon="-119.09310913085938">
<ele>75</ele>
<time>2016-10-05T00:32:02Z</time>
</trkpt>
<trkpt lat="35.33019256591797" lon="-119.09272003173828">
<ele>76</ele>
<time>2016-10-05T00:32:09Z</time>
</trkpt>
<trkpt lat="35.33024978637695" lon="-119.09239196777344">
<ele>73</ele>
<time>2016-10-05T00:32:16Z</time>
</trkpt>
<trkpt lat="35.33029556274414" lon="-119.09239196777344">
<ele>76</ele>
<time>2016-10-05T00:32:22Z</time>
</trkpt>
<trkpt lat="35.33024215698242" lon="-119.09227752685547">
<ele>77</ele>
<time>2016-10-05T00:32:29Z</time>
</trkpt>
<trkpt lat="35.33024215698242" lon="-119.0919189453125">
<ele>74</ele>
<time>2016-10-05T00:32:35Z</time>
</trkpt>
<trkpt lat="35.330257415771484" lon="-119.09159851074219">
<ele>74</ele>
<time>2016-10-05T00:32:41Z</time>
</trkpt>
<trkpt lat="35.33024215698242" lon="-119.09130859375">
<ele>74</ele>
<time>2016-10-05T00:32:47Z</time>
</trkpt>
<trkpt lat="35.33021545410156" lon="-119.09104919433594">
<ele>75</ele>
<time>2016-10-05T00:32:53Z</time>
</trkpt>
<trkpt lat="35.33021545410156" lon="-119.0907211303711">
<ele>74</ele>
<time>2016-10-05T00:32:59Z</time>
</trkpt>
<trkpt lat="35.33021926879883" lon="-119.09034729003906">
<ele>76</ele>
<time>2016-10-05T00:33:05Z</time>
</trkpt>
<trkpt lat="35.330230712890625" lon="-119.09005737304688">
<ele>77</ele>
<time>2016-10-05T00:33:11Z</time>
</trkpt>
<trkpt lat="35.330142974853516" lon="-119.08990478515625">
<ele>78</ele>
<time>2016-10-05T00:33:17Z</time>
</trkpt>
<trkpt lat="35.33009719848633" lon="-119.08955383300781">
<ele>76</ele>
<time>2016-10-05T00:33:23Z</time>
</trkpt>
<trkpt lat="35.3300895690918" lon="-119.08914184570313">
<ele>74</ele>
<time>2016-10-05T00:33:29Z</time>
</trkpt>
<trkpt lat="35.3300895690918" lon="-119.08875274658203">
<ele>73</ele>
<time>2016-10-05T00:33:35Z</time>
</trkpt>
<trkpt lat="35.3301887512207" lon="-119.08845520019531">
<ele>69</ele>
<time>2016-10-05T00:33:42Z</time>
</trkpt>
<trkpt lat="35.330448150634766" lon="-119.08830261230469">
<ele>73</ele>
<time>2016-10-05T00:33:48Z</time>
</trkpt>
<trkpt lat="35.3306999206543" lon="-119.08834838867188">
<ele>71</ele>
<time>2016-10-05T00:33:54Z</time>
</trkpt>
<trkpt lat="35.33100128173828" lon="-119.08837127685547">
<ele>70</ele>
<time>2016-10-05T00:34:00Z</time>
</trkpt>
<trkpt lat="35.331298828125" lon="-119.08834075927734">
<ele>67</ele>
<time>2016-10-05T00:34:07Z</time>
</trkpt>
<trkpt lat="35.331520080566406" lon="-119.0882797241211">
<ele>70</ele>
<time>2016-10-05T00:34:13Z</time>
</trkpt>
<trkpt lat="35.33156204223633" lon="-119.08821105957031">
<ele>77</ele>
<time>2016-10-05T00:34:37Z</time>
</trkpt>
<trkpt lat="35.33168029785156" lon="-119.0879898071289">
<ele>77</ele>
<time>2016-10-05T00:34:43Z</time>
</trkpt>
<trkpt lat="35.33189010620117" lon="-119.08778381347656">
<ele>78</ele>
<time>2016-10-05T00:34:49Z</time>
</trkpt>
<trkpt lat="35.33212661743164" lon="-119.08751678466797">
<ele>79</ele>
<time>2016-10-05T00:34:55Z</time>
</trkpt>
<trkpt lat="35.33237075805664" lon="-119.0872573852539">
<ele>77</ele>
<time>2016-10-05T00:35:01Z</time>
</trkpt>
<trkpt lat="35.332603454589844" lon="-119.0870132446289">
<ele>78</ele>
<time>2016-10-05T00:35:08Z</time>
</trkpt>
<trkpt lat="35.332576751708984" lon="-119.0867691040039">
<ele>75</ele>
<time>2016-10-05T00:35:14Z</time>
</trkpt>
<trkpt lat="35.33234405517578" lon="-119.08648681640625">
<ele>73</ele>
<time>2016-10-05T00:35:20Z</time>
</trkpt>
<trkpt lat="35.332069396972656" lon="-119.08627319335938">
<ele>75</ele>
<time>2016-10-05T00:35:26Z</time>
</trkpt>
<trkpt lat="35.33180618286133" lon="-119.08612060546875">
<ele>79</ele>
<time>2016-10-05T00:35:32Z</time>
</trkpt>
<trkpt lat="35.331504821777344" lon="-119.08583068847656">
<ele>79</ele>
<time>2016-10-05T00:35:38Z</time>
</trkpt>
<trkpt lat="35.331180572509766" lon="-119.0855941772461">
<ele>79</ele>
<time>2016-10-05T00:35:44Z</time>
</trkpt>
<trkpt lat="35.330833435058594" lon="-119.08544158935547">
<ele>78</ele>
<time>2016-10-05T00:35:51Z</time>
</trkpt>
<trkpt lat="35.330604553222656" lon="-119.08553314208984">
<ele>80</ele>
<time>2016-10-05T00:35:58Z</time>
</trkpt>
<trkpt lat="35.33051681518555" lon="-119.08527374267578">
<ele>78</ele>
<time>2016-10-05T00:36:04Z</time>
</trkpt>
<trkpt lat="35.3301887512207" lon="-119.08519744873047">
<ele>81</ele>
<time>2016-10-05T00:36:10Z</time>
</trkpt>
<trkpt lat="35.329837799072266" lon="-119.08514404296875">
<ele>80</ele>
<time>2016-10-05T00:36:16Z</time>
</trkpt>
<trkpt lat="35.32946014404297" lon="-119.0850830078125">
<ele>82</ele>
<time>2016-10-05T00:36:22Z</time>
</trkpt>
<trkpt lat="35.32911682128906" lon="-119.08514404296875">
<ele>77</ele>
<time>2016-10-05T00:36:28Z</time>
</trkpt>
<trkpt lat="35.3287239074707" lon="-119.0852279663086">
<ele>79</ele>
<time>2016-10-05T00:36:34Z</time>
</trkpt>
<trkpt lat="35.3283805847168" lon="-119.08531188964844">
<ele>78</ele>
<time>2016-10-05T00:36:40Z</time>
</trkpt>
<trkpt lat="35.3280143737793" lon="-119.08546447753906">
<ele>76</ele>
<time>2016-10-05T00:36:46Z</time>
</trkpt>
<trkpt lat="35.32765579223633" lon="-119.08564758300781">
<ele>77</ele>
<time>2016-10-05T00:36:52Z</time>
</trkpt>
<trkpt lat="35.327335357666016" lon="-119.08587646484375">
<ele>72</ele>
<time>2016-10-05T00:36:58Z</time>
</trkpt>
<trkpt lat="35.32704544067383" lon="-119.08612060546875">
<ele>72</ele>
<time>2016-10-05T00:37:04Z</time>
</trkpt>
<trkpt lat="35.326812744140625" lon="-119.08637237548828">
<ele>71</ele>
<time>2016-10-05T00:37:10Z</time>
</trkpt>
<trkpt lat="35.326629638671875" lon="-119.08655548095703">
<ele>79</ele>
<time>2016-10-05T00:37:16Z</time>
</trkpt>
<trkpt lat="35.326438903808594" lon="-119.0865707397461">
<ele>76</ele>
<time>2016-10-05T00:37:22Z</time>
</trkpt>
<trkpt lat="35.326290130615234" lon="-119.0866470336914">
<ele>76</ele>
<time>2016-10-05T00:37:31Z</time>
</trkpt>
<trkpt lat="35.3260612487793" lon="-119.08695220947266">
<ele>75</ele>
<time>2016-10-05T00:37:38Z</time>
</trkpt>
<trkpt lat="35.325904846191406" lon="-119.08723449707031">
<ele>76</ele>
<time>2016-10-05T00:37:44Z</time>
</trkpt>
<trkpt lat="35.32569122314453" lon="-119.08727264404297">
<ele>75</ele>
<time>2016-10-05T00:37:50Z</time>
</trkpt>
<trkpt lat="35.325439453125" lon="-119.08710479736328">
<ele>75</ele>
<time>2016-10-05T00:37:57Z</time>
</trkpt>
<trkpt lat="35.325233459472656" lon="-119.08724212646484">
<ele>77</ele>
<time>2016-10-05T00:38:04Z</time>
</trkpt>
<trkpt lat="35.32497024536133" lon="-119.08702850341797">
<ele>80</ele>
<time>2016-10-05T00:38:10Z</time>
</trkpt>
<trkpt lat="35.32475280761719" lon="-119.0868911743164">
<ele>81</ele>
<time>2016-10-05T00:38:16Z</time>
</trkpt>
<trkpt lat="35.324493408203125" lon="-119.08665466308594">
<ele>81</ele>
<time>2016-10-05T00:38:22Z</time>
</trkpt>
<trkpt lat="35.32423782348633" lon="-119.08649444580078">
<ele>80</ele>
<time>2016-10-05T00:38:28Z</time>
</trkpt>
<trkpt lat="35.324180603027344" lon="-119.08657836914063">
<ele>80</ele>
<time>2016-10-05T00:39:02Z</time>
</trkpt>
<trkpt lat="35.32416534423828" lon="-119.08663177490234">
<ele>86</ele>
<time>2016-10-05T00:39:19Z</time>
</trkpt>
<trkpt lat="35.3242073059082" lon="-119.08660125732422">
<ele>82</ele>
<time>2016-10-05T00:39:52Z</time>
</trkpt>
<trkpt lat="35.32425308227539" lon="-119.08661651611328">
<ele>84</ele>
<time>2016-10-05T00:40:02Z</time>
</trkpt>
<trkpt lat="35.324195861816406" lon="-119.08665466308594">
<ele>80</ele>
<time>2016-10-05T00:42:02Z</time>
</trkpt>
<trkpt lat="35.32417297363281" lon="-119.08660125732422">
<ele>77</ele>
<time>2016-10-05T00:42:35Z</time>
</trkpt>
<trkpt lat="35.32414627075195" lon="-119.08655548095703">
<ele>79</ele>
<time>2016-10-05T00:42:42Z</time>
</trkpt>
<trkpt lat="35.32411193847656" lon="-119.08659362792969">
<ele>81</ele>
<time>2016-10-05T00:42:48Z</time>
</trkpt>
<trkpt lat="35.32408142089844" lon="-119.08672332763672">
<ele>81</ele>
<time>2016-10-05T00:42:57Z</time>
</trkpt>
<trkpt lat="35.324066162109375" lon="-119.08683776855469">
<ele>80</ele>
<time>2016-10-05T00:43:12Z</time>
</trkpt>
<trkpt lat="35.32411575317383" lon="-119.08683013916016">
<ele>75</ele>
<time>2016-10-05T00:43:29Z</time>
</trkpt>
<trkpt lat="35.32416534423828" lon="-119.08672332763672">
<ele>77</ele>
<time>2016-10-05T00:43:37Z</time>
</trkpt>
<trkpt lat="35.32420349121094" lon="-119.08660888671875">
<ele>75</ele>
<time>2016-10-05T00:43:45Z</time>
</trkpt>
<trkpt lat="35.32417678833008" lon="-119.08665466308594">
<ele>76</ele>
<time>2016-10-05T00:45:15Z</time>
</trkpt>
<trkpt lat="35.32413101196289" lon="-119.08667755126953">
<ele>78</ele>
<time>2016-10-05T00:45:48Z</time>
</trkpt>
<trkpt lat="35.32417297363281" lon="-119.08663940429688">
<ele>81</ele>
<time>2016-10-05T00:49:03Z</time>
</trkpt>
<trkpt lat="35.32420349121094" lon="-119.08660125732422">
<ele>80</ele>
<time>2016-10-05T00:55:52Z</time>
</trkpt>
<trkpt lat="35.32414245605469" lon="-119.0865707397461">
<ele>82</ele>
<time>2016-10-05T00:57:25Z</time>
</trkpt>
<trkpt lat="35.3242073059082" lon="-119.08661651611328">
<ele>71</ele>
<time>2016-10-05T01:01:47Z</time>
</trkpt>
<trkpt lat="35.32429122924805" lon="-119.08660888671875">
<ele>57</ele>
<time>2016-10-05T01:06:34Z</time>
</trkpt>
<trkpt lat="35.32421112060547" lon="-119.08658599853516">
<ele>76</ele>
<time>2016-10-05T01:07:02Z</time>
</trkpt>
<trkpt lat="35.32425308227539" lon="-119.08656311035156">
<ele>79</ele>
<time>2016-10-05T01:22:02Z</time>
</trkpt>
<trkpt lat="35.32422637939453" lon="-119.08660888671875">
<ele>78</ele>
<time>2016-10-05T01:25:02Z</time>
</trkpt>
<trkpt lat="35.324302673339844" lon="-119.08655548095703">
<ele>92</ele>
<time>2016-10-05T01:39:47Z</time>
</trkpt>
<trkpt lat="35.32423400878906" lon="-119.0865707397461">
<ele>88</ele>
<time>2016-10-05T01:40:02Z</time>
</trkpt>
<trkpt lat="35.32426071166992" lon="-119.08651733398438">
<ele>84</ele>
<time>2016-10-05T01:42:02Z</time>
</trkpt>
<trkpt lat="35.324214935302734" lon="-119.08653259277344">
<ele>80</ele>
<time>2016-10-05T01:42:19Z</time>
</trkpt>
<trkpt lat="35.324249267578125" lon="-119.08660125732422">
<ele>86</ele>
<time>2016-10-05T02:05:39Z</time>
</trkpt>
<trkpt lat="35.32421875" lon="-119.08656311035156">
<ele>88</ele>
<time>2016-10-05T02:19:06Z</time>
</trkpt>
<trkpt lat="35.32426452636719" lon="-119.08657836914063">
<ele>41</ele>
<time>2016-10-05T02:33:08Z</time>
</trkpt>
<trkpt lat="35.324214935302734" lon="-119.08657836914063">
<ele>74</ele>
<time>2016-10-05T02:34:06Z</time>
</trkpt>
<trkpt lat="35.324161529541016" lon="-119.08657836914063">
<ele>78</ele>
<time>2016-10-05T02:36:06Z</time>
</trkpt>
<trkpt lat="35.3242073059082" lon="-119.0865707397461">
<ele>80</ele>
<time>2016-10-05T02:37:56Z</time>
</trkpt>
<trkpt lat="35.32416534423828" lon="-119.08658599853516">
<ele>81</ele>
<time>2016-10-05T02:42:06Z</time>
</trkpt>
<trkpt lat="35.32419967651367" lon="-119.08655548095703">
<ele>78</ele>
<time>2016-10-05T02:45:06Z</time>
</trkpt>
<trkpt lat="35.32426452636719" lon="-119.0865478515625">
<ele>84</ele>
<time>2016-10-05T02:51:06Z</time>
</trkpt>
<trkpt lat="35.324222564697266" lon="-119.08657836914063">
<ele>68</ele>
<time>2016-10-05T02:51:41Z</time>
</trkpt>
<trkpt lat="35.32405090332031" lon="-119.08656311035156">
<ele>134</ele>
<time>2016-10-05T03:20:27Z</time>
</trkpt>
<trkpt lat="35.324161529541016" lon="-119.08660888671875">
<ele>86</ele>
<time>2016-10-05T03:20:40Z</time>
</trkpt>
<trkpt lat="35.3240852355957" lon="-119.08661651611328">
<ele>86</ele>
<time>2016-10-05T05:20:28Z</time>
</trkpt>
<trkpt lat="35.32417297363281" lon="-119.08661651611328">
<ele>87</ele>
<time>2016-10-05T05:27:51Z</time>
</trkpt>
<trkpt lat="35.32416534423828" lon="-119.08668518066406">
<ele>69</ele>
<time>2016-10-05T05:28:56Z</time>
</trkpt>
<trkpt lat="35.32416534423828" lon="-119.08660125732422">
<ele>87</ele>
<time>2016-10-05T05:32:07Z</time>
</trkpt>
<trkpt lat="35.32419204711914" lon="-119.08655548095703">
<ele>84</ele>
<time>2016-10-05T05:32:20Z</time>
</trkpt>
<trkpt lat="35.32422637939453" lon="-119.08651733398438">
<ele>88</ele>
<time>2016-10-05T05:32:38Z</time>
</trkpt>
<trkpt lat="35.324180603027344" lon="-119.08657836914063">
<ele>87</ele>
<time>2016-10-05T05:33:15Z</time>
</trkpt>
<trkpt lat="35.32415771484375" lon="-119.08665466308594">
<ele>77</ele>
<time>2016-10-05T05:34:44Z</time>
</trkpt>
<trkpt lat="35.32413101196289" lon="-119.08657836914063">
<ele>77</ele>
<time>2016-10-05T05:36:43Z</time>
</trkpt>
<trkpt lat="35.32417678833008" lon="-119.086669921875">
<ele>81</ele>
<time>2016-10-05T05:37:35Z</time>
</trkpt>
<trkpt lat="35.324127197265625" lon="-119.08663177490234">
<ele>73</ele>
<time>2016-10-05T05:41:23Z</time>
</trkpt>
<trkpt lat="35.3242073059082" lon="-119.08665466308594">
<ele>86</ele>
<time>2016-10-05T05:42:08Z</time>
</trkpt>
<trkpt lat="35.324161529541016" lon="-119.086669921875">
<ele>94</ele>
<time>2016-10-05T05:42:29Z</time>
</trkpt>
<trkpt lat="35.324134826660156" lon="-119.08673858642578">
<ele>74</ele>
<time>2016-10-05T05:42:49Z</time>
</trkpt>
<trkpt lat="35.324153900146484" lon="-119.08668518066406">
<ele>64</ele>
<time>2016-10-05T05:43:56Z</time>
</trkpt>
<trkpt lat="35.32415008544922" lon="-119.08674621582031">
<ele>76</ele>
<time>2016-10-05T05:44:23Z</time>
</trkpt>
<trkpt lat="35.32415771484375" lon="-119.08679962158203">
<ele>79</ele>
<time>2016-10-05T05:44:48Z</time>
</trkpt>
<trkpt lat="35.32416534423828" lon="-119.0866928100586">
<ele>89</ele>
<time>2016-10-05T05:44:56Z</time>
</trkpt>
<trkpt lat="35.32419204711914" lon="-119.0866470336914">
<ele>83</ele>
<time>2016-10-05T05:45:09Z</time>
</trkpt>
<trkpt lat="35.324153900146484" lon="-119.08660125732422">
<ele>84</ele>
<time>2016-10-05T05:48:47Z</time>
</trkpt>
<trkpt lat="35.32418441772461" lon="-119.08665466308594">
<ele>98</ele>
<time>2016-10-05T05:51:56Z</time>
</trkpt>
<trkpt lat="35.32414245605469" lon="-119.08663177490234">
<ele>80</ele>
<time>2016-10-05T05:55:56Z</time>
</trkpt>
<trkpt lat="35.32413101196289" lon="-119.08668518066406">
<ele>69</ele>
<time>2016-10-05T05:56:31Z</time>
</trkpt>
<trkpt lat="35.32418441772461" lon="-119.08670806884766">
<ele>75</ele>
<time>2016-10-05T06:36:14Z</time>
</trkpt>
<trkpt lat="35.32402801513672" lon="-119.08680725097656">
<ele>90</ele>
<time>2016-10-05T06:52:53Z</time>
</trkpt>
<trkpt lat="35.32414245605469" lon="-119.08670043945313">
<ele>89</ele>
<time>2016-10-05T06:53:27Z</time>
</trkpt>
<trkpt lat="35.32421875" lon="-119.08655548095703">
<ele>92</ele>
<time>2016-10-05T07:48:56Z</time>
</trkpt>
<trkpt lat="35.32419967651367" lon="-119.08660888671875">
<ele>93</ele>
<time>2016-10-05T07:49:17Z</time>
</trkpt>
<trkpt lat="35.32416915893555" lon="-119.08665466308594">
<ele>89</ele>
<time>2016-10-05T07:49:43Z</time>
</trkpt>
<trkpt lat="35.32421875" lon="-119.08663177490234">
<ele>86</ele>
<time>2016-10-05T07:50:47Z</time>
</trkpt>
<trkpt lat="35.32426071166992" lon="-119.08665466308594">
<ele>84</ele>
<time>2016-10-05T07:51:56Z</time>
</trkpt>
<trkpt lat="35.32419967651367" lon="-119.08660125732422">
<ele>83</ele>
<time>2016-10-05T09:39:11Z</time>
</trkpt>
<trkpt lat="35.32418441772461" lon="-119.086669921875">
<ele>63</ele>
<time>2016-10-05T13:47:44Z</time>
</trkpt>
<trkpt lat="35.324127197265625" lon="-119.08670043945313">
<ele>67</ele>
<time>2016-10-05T14:32:10Z</time>
</trkpt>
</trkseg>
</trk>
<trk>
<name><![CDATA[10061651]]></name>
<number>13</number>
<extensions><topografix:color>ff000066</topografix:color></extensions>
<trkseg>
<trkpt lat="35.34033966064453" lon="-118.84237670898438">
<ele>179</ele>
<time>2016-10-06T23:51:25Z</time>
</trkpt>
<trkpt lat="35.34029769897461" lon="-118.84235382080078">
<ele>170</ele>
<time>2016-10-06T23:51:50Z</time>
</trkpt>
<trkpt lat="35.340335845947266" lon="-118.8423843383789">
<ele>168</ele>
<time>2016-10-06T23:53:41Z</time>
</trkpt>
<trkpt lat="35.34037399291992" lon="-118.84235382080078">
<ele>184</ele>
<time>2016-10-06T23:54:48Z</time>
</trkpt>
<trkpt lat="35.340328216552734" lon="-118.84235382080078">
<ele>178</ele>
<time>2016-10-06T23:55:10Z</time>
</trkpt>
<trkpt lat="35.340362548828125" lon="-118.84239196777344">
<ele>174</ele>
<time>2016-10-06T23:55:34Z</time>
</trkpt>
<trkpt lat="35.340309143066406" lon="-118.8423843383789">
<ele>168</ele>
<time>2016-10-06T23:56:11Z</time>
</trkpt>
<trkpt lat="35.34038162231445" lon="-118.84236145019531">
<ele>165</ele>
<time>2016-10-07T00:05:25Z</time>
</trkpt>
<trkpt lat="35.340450286865234" lon="-118.84246063232422">
<ele>166</ele>
<time>2016-10-07T00:05:34Z</time>
</trkpt>
<trkpt lat="35.34052658081055" lon="-118.84253692626953">
<ele>168</ele>
<time>2016-10-07T00:05:40Z</time>
</trkpt>
<trkpt lat="35.34061050415039" lon="-118.84261322021484">
<ele>171</ele>
<time>2016-10-07T00:05:48Z</time>
</trkpt>
<trkpt lat="35.34065246582031" lon="-118.84257507324219">
<ele>173</ele>
<time>2016-10-07T00:05:54Z</time>
</trkpt>
<trkpt lat="35.34065628051758" lon="-118.84246826171875">
<ele>159</ele>
<time>2016-10-07T00:06:05Z</time>
</trkpt>
<trkpt lat="35.34064483642578" lon="-118.842529296875">
<ele>169</ele>
<time>2016-10-07T00:06:43Z</time>
</trkpt>
<trkpt lat="35.340599060058594" lon="-118.842529296875">
<ele>164</ele>
<time>2016-10-07T00:07:21Z</time>
</trkpt>
<trkpt lat="35.340518951416016" lon="-118.84246826171875">
<ele>161</ele>
<time>2016-10-07T00:07:29Z</time>
</trkpt>
<trkpt lat="35.340423583984375" lon="-118.84243774414063">
<ele>164</ele>
<time>2016-10-07T00:07:36Z</time>
</trkpt>
<trkpt lat="35.34035110473633" lon="-118.84234619140625">
<ele>166</ele>
<time>2016-10-07T00:07:43Z</time>
</trkpt>
<trkpt lat="35.34043884277344" lon="-118.84235382080078">
<ele>159</ele>
<time>2016-10-07T00:08:29Z</time>
</trkpt>
<trkpt lat="35.34040832519531" lon="-118.84239959716797">
<ele>160</ele>
<time>2016-10-07T00:08:37Z</time>
</trkpt>
<trkpt lat="35.34031677246094" lon="-118.84236145019531">
<ele>161</ele>
<time>2016-10-07T00:08:44Z</time>
</trkpt>
<trkpt lat="35.34036636352539" lon="-118.84237670898438">
<ele>160</ele>
<time>2016-10-07T00:08:56Z</time>
</trkpt>
<trkpt lat="35.34042739868164" lon="-118.84236907958984">
<ele>156</ele>
<time>2016-10-07T00:09:37Z</time>
</trkpt>
<trkpt lat="35.34046936035156" lon="-118.8424072265625">
<ele>151</ele>
<time>2016-10-07T00:10:12Z</time>
</trkpt>
<trkpt lat="35.34043502807617" lon="-118.84246063232422">
<ele>156</ele>
<time>2016-10-07T00:10:47Z</time>
</trkpt>
<trkpt lat="35.34040451049805" lon="-118.84242248535156">
<ele>161</ele>
<time>2016-10-07T00:11:01Z</time>
</trkpt>
<trkpt lat="35.34043884277344" lon="-118.84246063232422">
<ele>157</ele>
<time>2016-10-07T00:11:33Z</time>
</trkpt>
<trkpt lat="35.340484619140625" lon="-118.84245300292969">
<ele>158</ele>
<time>2016-10-07T00:11:47Z</time>
</trkpt>
<trkpt lat="35.340457916259766" lon="-118.8424072265625">
<ele>164</ele>
<time>2016-10-07T00:12:13Z</time>
</trkpt>
<trkpt lat="35.34049606323242" lon="-118.84233856201172">
<ele>166</ele>
<time>2016-10-07T00:12:39Z</time>
</trkpt>
<trkpt lat="35.340511322021484" lon="-118.84207916259766">
<ele>167</ele>
<time>2016-10-07T00:12:45Z</time>
</trkpt>
<trkpt lat="35.34051513671875" lon="-118.8417739868164">
<ele>168</ele>
<time>2016-10-07T00:12:51Z</time>
</trkpt>
<trkpt lat="35.34065246582031" lon="-118.84185791015625">
<ele>164</ele>
<time>2016-10-07T00:12:57Z</time>
</trkpt>
<trkpt lat="35.34069061279297" lon="-118.8419189453125">
<ele>171</ele>
<time>2016-10-07T00:15:25Z</time>
</trkpt>
<trkpt lat="35.34064483642578" lon="-118.84190368652344">
<ele>167</ele>
<time>2016-10-07T00:15:32Z</time>
</trkpt>
<trkpt lat="35.34065628051758" lon="-118.84196472167969">
<ele>167</ele>
<time>2016-10-07T00:15:50Z</time>
</trkpt>
<trkpt lat="35.340728759765625" lon="-118.84207916259766">
<ele>165</ele>
<time>2016-10-07T00:15:56Z</time>
</trkpt>
<trkpt lat="35.340972900390625" lon="-118.84215545654297">
<ele>165</ele>
<time>2016-10-07T00:16:02Z</time>
</trkpt>
<trkpt lat="35.341163635253906" lon="-118.8428726196289">
<ele>168</ele>
<time>2016-10-07T00:16:08Z</time>
</trkpt>
<trkpt lat="35.34122085571289" lon="-118.84321594238281">
<ele>165</ele>
<time>2016-10-07T00:16:14Z</time>
</trkpt>
<trkpt lat="35.34077835083008" lon="-118.84323120117188">
<ele>164</ele>
<time>2016-10-07T00:16:20Z</time>
</trkpt>
<trkpt lat="35.33991241455078" lon="-118.84322357177734">
<ele>163</ele>
<time>2016-10-07T00:16:26Z</time>
</trkpt>
<trkpt lat="35.3388671875" lon="-118.84321594238281">
<ele>160</ele>
<time>2016-10-07T00:16:32Z</time>
</trkpt>
<trkpt lat="35.33797836303711" lon="-118.84321594238281">
<ele>160</ele>
<time>2016-10-07T00:16:38Z</time>
</trkpt>
<trkpt lat="35.33771514892578" lon="-118.84286499023438">
<ele>163</ele>
<time>2016-10-07T00:16:44Z</time>
</trkpt>
<trkpt lat="35.3376350402832" lon="-118.84185028076172">
<ele>163</ele>
<time>2016-10-07T00:16:50Z</time>
</trkpt>
<trkpt lat="35.337406158447266" lon="-118.84027099609375">
<ele>164</ele>
<time>2016-10-07T00:16:56Z</time>
</trkpt>
<trkpt lat="35.33702087402344" lon="-118.83839416503906">
<ele>167</ele>
<time>2016-10-07T00:17:02Z</time>
</trkpt>
<trkpt lat="35.33656692504883" lon="-118.83639526367188">
<ele>169</ele>
<time>2016-10-07T00:17:08Z</time>
</trkpt>
<trkpt lat="35.33604049682617" lon="-118.8343276977539">
<ele>171</ele>
<time>2016-10-07T00:17:14Z</time>
</trkpt>
<trkpt lat="35.335567474365234" lon="-118.83216857910156">
<ele>173</ele>
<time>2016-10-07T00:17:20Z</time>
</trkpt>
<trkpt lat="35.335052490234375" lon="-118.82998657226563">
<ele>176</ele>
<time>2016-10-07T00:17:26Z</time>
</trkpt>
<trkpt lat="35.33450698852539" lon="-118.82777404785156">
<ele>179</ele>
<time>2016-10-07T00:17:32Z</time>
</trkpt>
<trkpt lat="35.333984375" lon="-118.82559204101563">
<ele>183</ele>
<time>2016-10-07T00:17:38Z</time>
</trkpt>
<trkpt lat="35.33346939086914" lon="-118.82340240478516">
<ele>185</ele>
<time>2016-10-07T00:17:44Z</time>
</trkpt>
<trkpt lat="35.33296203613281" lon="-118.82129669189453">
<ele>188</ele>
<time>2016-10-07T00:17:50Z</time>
</trkpt>
<trkpt lat="35.33244323730469" lon="-118.81925964355469">
<ele>191</ele>
<time>2016-10-07T00:17:56Z</time>
</trkpt>
<trkpt lat="35.33195495605469" lon="-118.8171615600586">
<ele>195</ele>
<time>2016-10-07T00:18:02Z</time>
</trkpt>
<trkpt lat="35.33143615722656" lon="-118.81502532958984">
<ele>196</ele>
<time>2016-10-07T00:18:08Z</time>
</trkpt>
<trkpt lat="35.33095932006836" lon="-118.81298065185547">
<ele>197</ele>
<time>2016-10-07T00:18:14Z</time>
</trkpt>
<trkpt lat="35.33047103881836" lon="-118.8108901977539">
<ele>200</ele>
<time>2016-10-07T00:18:20Z</time>
</trkpt>
<trkpt lat="35.32994842529297" lon="-118.80877685546875">
<ele>204</ele>
<time>2016-10-07T00:18:26Z</time>
</trkpt>
<trkpt lat="35.32941436767578" lon="-118.80659484863281">
<ele>205</ele>
<time>2016-10-07T00:18:32Z</time>
</trkpt>
<trkpt lat="35.32878494262695" lon="-118.8044662475586">
<ele>207</ele>
<time>2016-10-07T00:18:38Z</time>
</trkpt>
<trkpt lat="35.327877044677734" lon="-118.80243682861328">
<ele>206</ele>
<time>2016-10-07T00:18:44Z</time>
</trkpt>
<trkpt lat="35.32676315307617" lon="-118.80060577392578">
<ele>212</ele>
<time>2016-10-07T00:18:50Z</time>
</trkpt>
<trkpt lat="35.32546615600586" lon="-118.79887390136719">
<ele>212</ele>
<time>2016-10-07T00:18:56Z</time>
</trkpt>
<trkpt lat="35.32406234741211" lon="-118.7972412109375">
<ele>216</ele>
<time>2016-10-07T00:19:02Z</time>
</trkpt>
<trkpt lat="35.322601318359375" lon="-118.79557037353516">
<ele>214</ele>
<time>2016-10-07T00:19:08Z</time>
</trkpt>
<trkpt lat="35.32123947143555" lon="-118.79401397705078">
<ele>213</ele>
<time>2016-10-07T00:19:14Z</time>
</trkpt>
<trkpt lat="35.319908142089844" lon="-118.7924575805664">
<ele>214</ele>
<time>2016-10-07T00:19:20Z</time>
</trkpt>
<trkpt lat="35.318599700927734" lon="-118.79096221923828">
<ele>213</ele>
<time>2016-10-07T00:19:26Z</time>
</trkpt>
<trkpt lat="35.317222595214844" lon="-118.7894287109375">
<ele>209</ele>
<time>2016-10-07T00:19:32Z</time>
</trkpt>
<trkpt lat="35.31587219238281" lon="-118.78787231445313">
<ele>205</ele>
<time>2016-10-07T00:19:38Z</time>
</trkpt>
<trkpt lat="35.314483642578125" lon="-118.7862777709961">
<ele>200</ele>
<time>2016-10-07T00:19:44Z</time>
</trkpt>
<trkpt lat="35.31309127807617" lon="-118.78469848632813">
<ele>192</ele>
<time>2016-10-07T00:19:50Z</time>
</trkpt>
<trkpt lat="35.311737060546875" lon="-118.7831039428711">
<ele>193</ele>
<time>2016-10-07T00:19:56Z</time>
</trkpt>
<trkpt lat="35.310428619384766" lon="-118.78154754638672">
<ele>195</ele>
<time>2016-10-07T00:20:02Z</time>
</trkpt>
<trkpt lat="35.30911636352539" lon="-118.78002166748047">
<ele>196</ele>
<time>2016-10-07T00:20:08Z</time>
</trkpt>
<trkpt lat="35.30781173706055" lon="-118.778564453125">
<ele>199</ele>
<time>2016-10-07T00:20:14Z</time>
</trkpt>
<trkpt lat="35.3065299987793" lon="-118.77706146240234">
<ele>201</ele>
<time>2016-10-07T00:20:20Z</time>
</trkpt>
<trkpt lat="35.305267333984375" lon="-118.77557373046875">
<ele>204</ele>
<time>2016-10-07T00:20:26Z</time>
</trkpt>
<trkpt lat="35.303932189941406" lon="-118.77407836914063">
<ele>212</ele>
<time>2016-10-07T00:20:32Z</time>
</trkpt>
<trkpt lat="35.30260467529297" lon="-118.7725601196289">
<ele>212</ele>
<time>2016-10-07T00:20:38Z</time>
</trkpt>
<trkpt lat="35.30128479003906" lon="-118.77104187011719">
<ele>209</ele>
<time>2016-10-07T00:20:44Z</time>
</trkpt>
<trkpt lat="35.29996109008789" lon="-118.76950073242188">
<ele>208</ele>
<time>2016-10-07T00:20:50Z</time>
</trkpt>
<trkpt lat="35.298736572265625" lon="-118.76776123046875">
<ele>208</ele>
<time>2016-10-07T00:20:56Z</time>
</trkpt>
<trkpt lat="35.29770278930664" lon="-118.76586151123047">
<ele>208</ele>
<time>2016-10-07T00:21:02Z</time>
</trkpt>
<trkpt lat="35.2968635559082" lon="-118.76382446289063">
<ele>212</ele>
<time>2016-10-07T00:21:08Z</time>
</trkpt>
<trkpt lat="35.29607391357422" lon="-118.76177978515625">
<ele>217</ele>
<time>2016-10-07T00:21:14Z</time>
</trkpt>
<trkpt lat="35.29526138305664" lon="-118.75973510742188">
<ele>225</ele>
<time>2016-10-07T00:21:20Z</time>
</trkpt>
<trkpt lat="35.294429779052734" lon="-118.7576675415039">
<ele>230</ele>
<time>2016-10-07T00:21:26Z</time>
</trkpt>
<trkpt lat="35.2935905456543" lon="-118.75557708740234">
<ele>234</ele>
<time>2016-10-07T00:21:32Z</time>
</trkpt>
<trkpt lat="35.29274368286133" lon="-118.75344848632813">
<ele>239</ele>
<time>2016-10-07T00:21:38Z</time>
</trkpt>
<trkpt lat="35.2918815612793" lon="-118.7513198852539">
<ele>236</ele>
<time>2016-10-07T00:21:44Z</time>
</trkpt>
<trkpt lat="35.29103088378906" lon="-118.74916076660156">
<ele>238</ele>
<time>2016-10-07T00:21:50Z</time>
</trkpt>
<trkpt lat="35.29017639160156" lon="-118.74707794189453">
<ele>247</ele>
<time>2016-10-07T00:21:56Z</time>
</trkpt>
<trkpt lat="35.28935241699219" lon="-118.74504089355469">
<ele>259</ele>
<time>2016-10-07T00:22:02Z</time>
</trkpt>
<trkpt lat="35.28853225708008" lon="-118.74302673339844">
<ele>271</ele>
<time>2016-10-07T00:22:08Z</time>
</trkpt>
<trkpt lat="35.28772735595703" lon="-118.74098205566406">
<ele>279</ele>
<time>2016-10-07T00:22:14Z</time>
</trkpt>
<trkpt lat="35.28693389892578" lon="-118.73898315429688">
<ele>282</ele>
<time>2016-10-07T00:22:20Z</time>
</trkpt>
<trkpt lat="35.2861442565918" lon="-118.73700714111328">
<ele>286</ele>
<time>2016-10-07T00:22:26Z</time>
</trkpt>
<trkpt lat="35.285316467285156" lon="-118.7349853515625">
<ele>295</ele>
<time>2016-10-07T00:22:32Z</time>
</trkpt>
<trkpt lat="35.28443908691406" lon="-118.7330322265625">
<ele>305</ele>
<time>2016-10-07T00:22:38Z</time>
</trkpt>
<trkpt lat="35.28339767456055" lon="-118.73121643066406">
<ele>312</ele>
<time>2016-10-07T00:22:44Z</time>
</trkpt>
<trkpt lat="35.282344818115234" lon="-118.72943115234375">
<ele>322</ele>
<time>2016-10-07T00:22:50Z</time>
</trkpt>
<trkpt lat="35.28139877319336" lon="-118.72779846191406">
<ele>331</ele>
<time>2016-10-07T00:22:56Z</time>
</trkpt>
<trkpt lat="35.280521392822266" lon="-118.72625732421875">
<ele>338</ele>
<time>2016-10-07T00:23:02Z</time>
</trkpt>
<trkpt lat="35.2796745300293" lon="-118.72466278076172">
<ele>347</ele>
<time>2016-10-07T00:23:08Z</time>
</trkpt>
<trkpt lat="35.278968811035156" lon="-118.72291564941406">
<ele>354</ele>
<time>2016-10-07T00:23:14Z</time>
</trkpt>
<trkpt lat="35.27842712402344" lon="-118.72105407714844">
<ele>364</ele>
<time>2016-10-07T00:23:20Z</time>
</trkpt>
<trkpt lat="35.27809143066406" lon="-118.71914672851563">
<ele>368</ele>
<time>2016-10-07T00:23:26Z</time>
</trkpt>
<trkpt lat="35.27784729003906" lon="-118.71722412109375">
<ele>379</ele>
<time>2016-10-07T00:23:32Z</time>
</trkpt>
<trkpt lat="35.277503967285156" lon="-118.71528625488281">
<ele>387</ele>
<time>2016-10-07T00:23:38Z</time>
</trkpt>
<trkpt lat="35.2769775390625" lon="-118.7134780883789">
<ele>394</ele>
<time>2016-10-07T00:23:44Z</time>
</trkpt>
<trkpt lat="35.276302337646484" lon="-118.71183013916016">
<ele>402</ele>
<time>2016-10-07T00:23:50Z</time>
</trkpt>
<trkpt lat="35.275474548339844" lon="-118.71025848388672">
<ele>399</ele>
<time>2016-10-07T00:23:56Z</time>
</trkpt>
<trkpt lat="35.27458572387695" lon="-118.70877838134766">
<ele>416</ele>
<time>2016-10-07T00:24:02Z</time>
</trkpt>
<trkpt lat="35.273738861083984" lon="-118.70735931396484">
<ele>423</ele>
<time>2016-10-07T00:24:08Z</time>
</trkpt>
<trkpt lat="35.272945404052734" lon="-118.70602416992188">
<ele>429</ele>
<time>2016-10-07T00:24:14Z</time>
</trkpt>
<trkpt lat="35.272220611572266" lon="-118.70478057861328">
<ele>438</ele>
<time>2016-10-07T00:24:20Z</time>
</trkpt>
<trkpt lat="35.27161407470703" lon="-118.7037582397461">
<ele>444</ele>
<time>2016-10-07T00:24:26Z</time>
</trkpt>
<trkpt lat="35.2709846496582" lon="-118.70272064208984">
<ele>452</ele>
<time>2016-10-07T00:24:32Z</time>
</trkpt>
<trkpt lat="35.27035903930664" lon="-118.70162963867188">
<ele>462</ele>
<time>2016-10-07T00:24:38Z</time>
</trkpt>
<trkpt lat="35.269752502441406" lon="-118.70060729980469">
<ele>469</ele>
<time>2016-10-07T00:24:44Z</time>
</trkpt>
<trkpt lat="35.269168853759766" lon="-118.69953918457031">
<ele>473</ele>
<time>2016-10-07T00:24:50Z</time>
</trkpt>
<trkpt lat="35.268680572509766" lon="-118.69831848144531">
<ele>478</ele>
<time>2016-10-07T00:24:56Z</time>
</trkpt>
<trkpt lat="35.268367767333984" lon="-118.69691467285156">
<ele>430</ele>
<time>2016-10-07T00:25:02Z</time>
</trkpt>
<trkpt lat="35.268280029296875" lon="-118.69540405273438">
<ele>479</ele>
<time>2016-10-07T00:25:08Z</time>
</trkpt>
<trkpt lat="35.268367767333984" lon="-118.69379425048828">
<ele>428</ele>
<time>2016-10-07T00:25:14Z</time>
</trkpt>
<trkpt lat="35.26874542236328" lon="-118.69227600097656">
<ele>501</ele>
<time>2016-10-07T00:25:20Z</time>
</trkpt>
<trkpt lat="35.26921463012695" lon="-118.69093322753906">
<ele>507</ele>
<time>2016-10-07T00:25:26Z</time>
</trkpt>
<trkpt lat="35.26955795288086" lon="-118.68978881835938">
<ele>510</ele>
<time>2016-10-07T00:25:32Z</time>
</trkpt>
<trkpt lat="35.269866943359375" lon="-118.68849182128906">
<ele>516</ele>
<time>2016-10-07T00:25:38Z</time>
</trkpt>
<trkpt lat="35.27006912231445" lon="-118.68700408935547">
<ele>518</ele>
<time>2016-10-07T00:25:44Z</time>
</trkpt>
<trkpt lat="35.27012252807617" lon="-118.68535614013672">
<ele>520</ele>
<time>2016-10-07T00:25:50Z</time>
</trkpt>
<trkpt lat="35.27003860473633" lon="-118.68350219726563">
<ele>523</ele>
<time>2016-10-07T00:25:56Z</time>
</trkpt>
<trkpt lat="35.26993179321289" lon="-118.68159484863281">
<ele>530</ele>
<time>2016-10-07T00:26:02Z</time>
</trkpt>
<trkpt lat="35.26982498168945" lon="-118.67976379394531">
<ele>538</ele>
<time>2016-10-07T00:26:08Z</time>
</trkpt>
<trkpt lat="35.269527435302734" lon="-118.67794799804688">
<ele>548</ele>
<time>2016-10-07T00:26:14Z</time>
</trkpt>
<trkpt lat="35.26908874511719" lon="-118.67623138427734">
<ele>555</ele>
<time>2016-10-07T00:26:20Z</time>
</trkpt>
<trkpt lat="35.26858139038086" lon="-118.67453002929688">
<ele>558</ele>
<time>2016-10-07T00:26:26Z</time>
</trkpt>
<trkpt lat="35.26803207397461" lon="-118.67269134521484">
<ele>555</ele>
<time>2016-10-07T00:26:32Z</time>
</trkpt>
<trkpt lat="35.26742935180664" lon="-118.67063903808594">
<ele>550</ele>
<time>2016-10-07T00:26:38Z</time>
</trkpt>
<trkpt lat="35.26676940917969" lon="-118.66841888427734">
<ele>542</ele>
<time>2016-10-07T00:26:44Z</time>
</trkpt>
<trkpt lat="35.26610565185547" lon="-118.66614532470703">
<ele>534</ele>
<time>2016-10-07T00:26:50Z</time>
</trkpt>
<trkpt lat="35.26542663574219" lon="-118.66387939453125">
<ele>529</ele>
<time>2016-10-07T00:26:56Z</time>
</trkpt>
<trkpt lat="35.264774322509766" lon="-118.66166687011719">
<ele>532</ele>
<time>2016-10-07T00:27:02Z</time>
</trkpt>
<trkpt lat="35.26432800292969" lon="-118.6594009399414">
<ele>528</ele>
<time>2016-10-07T00:27:08Z</time>
</trkpt>
<trkpt lat="35.26414108276367" lon="-118.65708923339844">
<ele>522</ele>
<time>2016-10-07T00:27:14Z</time>
</trkpt>
<trkpt lat="35.26406478881836" lon="-118.65475463867188">
<ele>518</ele>
<time>2016-10-07T00:27:20Z</time>
</trkpt>
<trkpt lat="35.26400375366211" lon="-118.65255737304688">
<ele>525</ele>
<time>2016-10-07T00:27:26Z</time>
</trkpt>
<trkpt lat="35.26393508911133" lon="-118.6504135131836">
<ele>532</ele>
<time>2016-10-07T00:27:32Z</time>
</trkpt>
<trkpt lat="35.26385498046875" lon="-118.64834594726563">
<ele>540</ele>
<time>2016-10-07T00:27:38Z</time>
</trkpt>
<trkpt lat="35.2637825012207" lon="-118.64630889892578">
<ele>543</ele>
<time>2016-10-07T00:27:44Z</time>
</trkpt>
<trkpt lat="35.263427734375" lon="-118.64424896240234">
<ele>546</ele>
<time>2016-10-07T00:27:50Z</time>
</trkpt>
<trkpt lat="35.262943267822266" lon="-118.64222717285156">
<ele>552</ele>
<time>2016-10-07T00:27:56Z</time>
</trkpt>
<trkpt lat="35.262691497802734" lon="-118.64019012451172">
<ele>559</ele>
<time>2016-10-07T00:28:02Z</time>
</trkpt>
<trkpt lat="35.2629280090332" lon="-118.63823699951172">
<ele>568</ele>
<time>2016-10-07T00:28:08Z</time>
</trkpt>
<trkpt lat="35.26334762573242" lon="-118.63636779785156">
<ele>579</ele>
<time>2016-10-07T00:28:14Z</time>
</trkpt>
<trkpt lat="35.26365280151367" lon="-118.63447570800781">
<ele>589</ele>
<time>2016-10-07T00:28:20Z</time>
</trkpt>
<trkpt lat="35.263702392578125" lon="-118.63256072998047">
<ele>600</ele>
<time>2016-10-07T00:28:26Z</time>
</trkpt>
<trkpt lat="35.26374816894531" lon="-118.63067626953125">
<ele>610</ele>
<time>2016-10-07T00:28:32Z</time>
</trkpt>
<trkpt lat="35.26378631591797" lon="-118.62870788574219">
<ele>618</ele>
<time>2016-10-07T00:28:38Z</time>
</trkpt>
<trkpt lat="35.26354217529297" lon="-118.62671661376953">
<ele>629</ele>
<time>2016-10-07T00:28:44Z</time>
</trkpt>
<trkpt lat="35.262916564941406" lon="-118.62474060058594">
<ele>642</ele>
<time>2016-10-07T00:28:50Z</time>
</trkpt>
<trkpt lat="35.26250076293945" lon="-118.62269592285156">
<ele>654</ele>
<time>2016-10-07T00:28:56Z</time>
</trkpt>
<trkpt lat="35.261993408203125" lon="-118.62071228027344">
<ele>665</ele>
<time>2016-10-07T00:29:02Z</time>
</trkpt>
<trkpt lat="35.261234283447266" lon="-118.61952209472656">
<ele>673</ele>
<time>2016-10-07T00:29:08Z</time>
</trkpt>
<trkpt lat="35.26065444946289" lon="-118.61869049072266">
<ele>678</ele>
<time>2016-10-07T00:29:14Z</time>
</trkpt>
<trkpt lat="35.260135650634766" lon="-118.61786651611328">
<ele>684</ele>
<time>2016-10-07T00:29:20Z</time>
</trkpt>
<trkpt lat="35.25957489013672" lon="-118.616943359375">
<ele>691</ele>
<time>2016-10-07T00:29:26Z</time>
</trkpt>
<trkpt lat="35.25908660888672" lon="-118.61602783203125">
<ele>696</ele>
<time>2016-10-07T00:29:32Z</time>
</trkpt>
<trkpt lat="35.25856018066406" lon="-118.61515808105469">
<ele>702</ele>
<time>2016-10-07T00:29:38Z</time>
</trkpt>
<trkpt lat="35.258056640625" lon="-118.61450958251953">
<ele>702</ele>
<time>2016-10-07T00:29:44Z</time>
</trkpt>
<trkpt lat="35.257545471191406" lon="-118.61387634277344">
<ele>703</ele>
<time>2016-10-07T00:29:50Z</time>
</trkpt>
<trkpt lat="35.256866455078125" lon="-118.61300659179688">
<ele>710</ele>
<time>2016-10-07T00:29:56Z</time>
</trkpt>
<trkpt lat="35.25631332397461" lon="-118.61201477050781">
<ele>718</ele>
<time>2016-10-07T00:30:02Z</time>
</trkpt>
<trkpt lat="35.256011962890625" lon="-118.61074829101563">
<ele>726</ele>
<time>2016-10-07T00:30:08Z</time>
</trkpt>
<trkpt lat="35.25569152832031" lon="-118.60930633544922">
<ele>732</ele>
<time>2016-10-07T00:30:14Z</time>
</trkpt>
<trkpt lat="35.25489807128906" lon="-118.60794830322266">
<ele>737</ele>
<time>2016-10-07T00:30:20Z</time>
</trkpt>
<trkpt lat="35.253746032714844" lon="-118.60659790039063">
<ele>741</ele>
<time>2016-10-07T00:30:26Z</time>
</trkpt>
<trkpt lat="35.252471923828125" lon="-118.60511016845703">
<ele>750</ele>
<time>2016-10-07T00:30:32Z</time>
</trkpt>
<trkpt lat="35.25117492675781" lon="-118.6035385131836">
<ele>760</ele>
<time>2016-10-07T00:30:38Z</time>
</trkpt>
<trkpt lat="35.249977111816406" lon="-118.6017837524414">
<ele>768</ele>
<time>2016-10-07T00:30:44Z</time>
</trkpt>
<trkpt lat="35.24933624267578" lon="-118.59972381591797">
<ele>774</ele>
<time>2016-10-07T00:30:50Z</time>
</trkpt>
<trkpt lat="35.2489013671875" lon="-118.59761047363281">
<ele>777</ele>
<time>2016-10-07T00:30:56Z</time>
</trkpt>
<trkpt lat="35.24833297729492" lon="-118.59551239013672">
<ele>779</ele>
<time>2016-10-07T00:31:02Z</time>
</trkpt>
<trkpt lat="35.24713897705078" lon="-118.59388732910156">
<ele>778</ele>
<time>2016-10-07T00:31:08Z</time>
</trkpt>
<trkpt lat="35.245635986328125" lon="-118.59254455566406">
<ele>773</ele>
<time>2016-10-07T00:31:14Z</time>
</trkpt>
<trkpt lat="35.24440383911133" lon="-118.59075164794922">
<ele>767</ele>
<time>2016-10-07T00:31:20Z</time>
</trkpt>
<trkpt lat="35.24298095703125" lon="-118.58938598632813">
<ele>762</ele>
<time>2016-10-07T00:31:26Z</time>
</trkpt>
<trkpt lat="35.24141311645508" lon="-118.5882339477539">
<ele>754</ele>
<time>2016-10-07T00:31:32Z</time>
</trkpt>
<trkpt lat="35.240535736083984" lon="-118.58641815185547">
<ele>744</ele>
<time>2016-10-07T00:31:38Z</time>
</trkpt>
<trkpt lat="35.24019241333008" lon="-118.58425903320313">
<ele>740</ele>
<time>2016-10-07T00:31:44Z</time>
</trkpt>
<trkpt lat="35.23983383178711" lon="-118.58203125">
<ele>736</ele>
<time>2016-10-07T00:31:50Z</time>
</trkpt>
<trkpt lat="35.23948287963867" lon="-118.57979583740234">
<ele>729</ele>
<time>2016-10-07T00:31:56Z</time>
</trkpt>
<trkpt lat="35.23865509033203" lon="-118.57797241210938">
<ele>730</ele>
<time>2016-10-07T00:32:02Z</time>
</trkpt>
<trkpt lat="35.237266540527344" lon="-118.5768814086914">
<ele>726</ele>
<time>2016-10-07T00:32:08Z</time>
</trkpt>
<trkpt lat="35.23563766479492" lon="-118.5760726928711">
<ele>726</ele>
<time>2016-10-07T00:32:14Z</time>
</trkpt>
<trkpt lat="35.23404312133789" lon="-118.57512664794922">
<ele>726</ele>
<time>2016-10-07T00:32:20Z</time>
</trkpt>
<trkpt lat="35.23295211791992" lon="-118.57359313964844">
<ele>728</ele>
<time>2016-10-07T00:32:26Z</time>
</trkpt>
<trkpt lat="35.23200225830078" lon="-118.57179260253906">
<ele>731</ele>
<time>2016-10-07T00:32:32Z</time>
</trkpt>
<trkpt lat="35.23107147216797" lon="-118.57005310058594">
<ele>732</ele>
<time>2016-10-07T00:32:38Z</time>
</trkpt>
<trkpt lat="35.229793548583984" lon="-118.56884002685547">
<ele>736</ele>
<time>2016-10-07T00:32:44Z</time>
</trkpt>
<trkpt lat="35.2281494140625" lon="-118.56857299804688">
<ele>737</ele>
<time>2016-10-07T00:32:50Z</time>
</trkpt>
<trkpt lat="35.22642135620117" lon="-118.5685043334961">
<ele>742</ele>
<time>2016-10-07T00:32:56Z</time>
</trkpt>
<trkpt lat="35.22480010986328" lon="-118.56814575195313">
<ele>745</ele>
<time>2016-10-07T00:33:02Z</time>
</trkpt>
<trkpt lat="35.22349166870117" lon="-118.56686401367188">
<ele>752</ele>
<time>2016-10-07T00:33:08Z</time>
</trkpt>
<trkpt lat="35.222877502441406" lon="-118.56499481201172">
<ele>755</ele>
<time>2016-10-07T00:33:14Z</time>
</trkpt>
<trkpt lat="35.2226448059082" lon="-118.56290435791016">
<ele>763</ele>
<time>2016-10-07T00:33:20Z</time>
</trkpt>
<trkpt lat="35.22239303588867" lon="-118.5607681274414">
<ele>770</ele>
<time>2016-10-07T00:33:26Z</time>
</trkpt>
<trkpt lat="35.221717834472656" lon="-118.5588150024414">
<ele>779</ele>
<time>2016-10-07T00:33:32Z</time>
</trkpt>
<trkpt lat="35.2205810546875" lon="-118.55714416503906">
<ele>786</ele>
<time>2016-10-07T00:33:38Z</time>
</trkpt>
<trkpt lat="35.21940612792969" lon="-118.55548858642578">
<ele>792</ele>
<time>2016-10-07T00:33:44Z</time>
</trkpt>
<trkpt lat="35.21820068359375" lon="-118.55384063720703">
<ele>802</ele>
<time>2016-10-07T00:33:50Z</time>
</trkpt>
<trkpt lat="35.21670913696289" lon="-118.5526123046875">
<ele>808</ele>
<time>2016-10-07T00:33:56Z</time>
</trkpt>
<trkpt lat="35.21525573730469" lon="-118.55149841308594">
<ele>814</ele>
<time>2016-10-07T00:34:02Z</time>
</trkpt>
<trkpt lat="35.21421813964844" lon="-118.54988098144531">
<ele>821</ele>
<time>2016-10-07T00:34:08Z</time>
</trkpt>
<trkpt lat="35.21333694458008" lon="-118.54810333251953">
<ele>826</ele>
<time>2016-10-07T00:34:14Z</time>
</trkpt>
<trkpt lat="35.21253204345703" lon="-118.54647827148438">
<ele>829</ele>
<time>2016-10-07T00:34:20Z</time>
</trkpt>
<trkpt lat="35.21174240112305" lon="-118.54499053955078">
<ele>833</ele>
<time>2016-10-07T00:34:26Z</time>
</trkpt>
<trkpt lat="35.21102523803711" lon="-118.54356384277344">
<ele>838</ele>
<time>2016-10-07T00:34:32Z</time>
</trkpt>
<trkpt lat="35.210304260253906" lon="-118.54212951660156">
<ele>843</ele>
<time>2016-10-07T00:34:38Z</time>
</trkpt>
<trkpt lat="35.20954132080078" lon="-118.54061126708984">
<ele>844</ele>
<time>2016-10-07T00:34:44Z</time>
</trkpt>
<trkpt lat="35.20890808105469" lon="-118.53901672363281">
<ele>845</ele>
<time>2016-10-07T00:34:50Z</time>
</trkpt>
<trkpt lat="35.20829772949219" lon="-118.53723907470703">
<ele>847</ele>
<time>2016-10-07T00:34:56Z</time>
</trkpt>
<trkpt lat="35.2076530456543" lon="-118.53545379638672">
<ele>850</ele>
<time>2016-10-07T00:35:02Z</time>
</trkpt>
<trkpt lat="35.206573486328125" lon="-118.5339584350586">
<ele>859</ele>
<time>2016-10-07T00:35:08Z</time>
</trkpt>
<trkpt lat="35.20536804199219" lon="-118.53248596191406">
<ele>863</ele>
<time>2016-10-07T00:35:14Z</time>
</trkpt>
<trkpt lat="35.20417404174805" lon="-118.5309829711914">
<ele>870</ele>
<time>2016-10-07T00:35:20Z</time>
</trkpt>
<trkpt lat="35.20314025878906" lon="-118.529296875">
<ele>881</ele>
<time>2016-10-07T00:35:26Z</time>
</trkpt>
<trkpt lat="35.20235824584961" lon="-118.52741241455078">
<ele>889</ele>
<time>2016-10-07T00:35:32Z</time>
</trkpt>
<trkpt lat="35.20155715942383" lon="-118.52555847167969">
<ele>898</ele>
<time>2016-10-07T00:35:38Z</time>
</trkpt>
<trkpt lat="35.20075988769531" lon="-118.5237045288086">
<ele>903</ele>
<time>2016-10-07T00:35:44Z</time>
</trkpt>
<trkpt lat="35.19998550415039" lon="-118.52189636230469">
<ele>908</ele>
<time>2016-10-07T00:35:50Z</time>
</trkpt>
<trkpt lat="35.199283599853516" lon="-118.5202407836914">
<ele>913</ele>
<time>2016-10-07T00:35:56Z</time>
</trkpt>
<trkpt lat="35.198421478271484" lon="-118.51873779296875">
<ele>923</ele>
<time>2016-10-07T00:36:02Z</time>
</trkpt>
<trkpt lat="35.19749450683594" lon="-118.5174331665039">
<ele>933</ele>
<time>2016-10-07T00:36:08Z</time>
</trkpt>
<trkpt lat="35.196739196777344" lon="-118.51631927490234">
<ele>939</ele>
<time>2016-10-07T00:36:14Z</time>
</trkpt>
<trkpt lat="35.19596862792969" lon="-118.51521301269531">
<ele>945</ele>
<time>2016-10-07T00:36:20Z</time>
</trkpt>
<trkpt lat="35.19523239135742" lon="-118.51414489746094">
<ele>951</ele>
<time>2016-10-07T00:36:26Z</time>
</trkpt>
<trkpt lat="35.19447326660156" lon="-118.51303100585938">
<ele>958</ele>
<time>2016-10-07T00:36:32Z</time>
</trkpt>
<trkpt lat="35.193721771240234" lon="-118.51195526123047">
<ele>961</ele>
<time>2016-10-07T00:36:38Z</time>
</trkpt>
<trkpt lat="35.19292068481445" lon="-118.51078033447266">
<ele>963</ele>
<time>2016-10-07T00:36:44Z</time>
</trkpt>
<trkpt lat="35.19203186035156" lon="-118.50951385498047">
<ele>966</ele>
<time>2016-10-07T00:36:50Z</time>
</trkpt>
<trkpt lat="35.191104888916016" lon="-118.50814819335938">
<ele>974</ele>
<time>2016-10-07T00:36:56Z</time>
</trkpt>
<trkpt lat="35.19015884399414" lon="-118.5067367553711">
<ele>979</ele>
<time>2016-10-07T00:37:02Z</time>
</trkpt>
<trkpt lat="35.18912887573242" lon="-118.50550079345703">
<ele>992</ele>
<time>2016-10-07T00:37:08Z</time>
</trkpt>
<trkpt lat="35.18787384033203" lon="-118.50459289550781">
<ele>998</ele>
<time>2016-10-07T00:37:14Z</time>
</trkpt>
<trkpt lat="35.18662643432617" lon="-118.50367736816406">
<ele>998</ele>
<time>2016-10-07T00:37:20Z</time>
</trkpt>
<trkpt lat="35.18556594848633" lon="-118.50233459472656">
<ele>996</ele>
<time>2016-10-07T00:37:26Z</time>
</trkpt>
<trkpt lat="35.184547424316406" lon="-118.50074768066406">
<ele>994</ele>
<time>2016-10-07T00:37:32Z</time>
</trkpt>
<trkpt lat="35.18362808227539" lon="-118.4990463256836">
<ele>988</ele>
<time>2016-10-07T00:37:38Z</time>
</trkpt>
<trkpt lat="35.18278503417969" lon="-118.4972152709961">
<ele>988</ele>
<time>2016-10-07T00:37:44Z</time>
</trkpt>
<trkpt lat="35.18205261230469" lon="-118.49543762207031">
<ele>985</ele>
<time>2016-10-07T00:37:50Z</time>
</trkpt>
<trkpt lat="35.18179702758789" lon="-118.49349975585938">
<ele>985</ele>
<time>2016-10-07T00:37:56Z</time>
</trkpt>
<trkpt lat="35.18158721923828" lon="-118.49162292480469">
<ele>988</ele>
<time>2016-10-07T00:38:02Z</time>
</trkpt>
<trkpt lat="35.18137741088867" lon="-118.48980712890625">
<ele>996</ele>
<time>2016-10-07T00:38:08Z</time>
</trkpt>
<trkpt lat="35.18076705932617" lon="-118.48821258544922">
<ele>1000</ele>
<time>2016-10-07T00:38:14Z</time>
</trkpt>
<trkpt lat="35.17979049682617" lon="-118.48697662353516">
<ele>1003</ele>
<time>2016-10-07T00:38:20Z</time>
</trkpt>
<trkpt lat="35.17906951904297" lon="-118.48567199707031">
<ele>1004</ele>
<time>2016-10-07T00:38:26Z</time>
</trkpt>
<trkpt lat="35.1784553527832" lon="-118.48416137695313">
<ele>1013</ele>
<time>2016-10-07T00:38:32Z</time>
</trkpt>
<trkpt lat="35.17772674560547" lon="-118.48252868652344">
<ele>1022</ele>
<time>2016-10-07T00:38:38Z</time>
</trkpt>
<trkpt lat="35.17655944824219" lon="-118.48111724853516">
<ele>1027</ele>
<time>2016-10-07T00:38:44Z</time>
</trkpt>
<trkpt lat="35.17499923706055" lon="-118.48015594482422">
<ele>1036</ele>
<time>2016-10-07T00:38:50Z</time>
</trkpt>
<trkpt lat="35.17347717285156" lon="-118.4791030883789">
<ele>1043</ele>
<time>2016-10-07T00:38:56Z</time>
</trkpt>
<trkpt lat="35.17217254638672" lon="-118.47756958007813">
<ele>1051</ele>
<time>2016-10-07T00:39:02Z</time>
</trkpt>
<trkpt lat="35.17078399658203" lon="-118.47615051269531">
<ele>1063</ele>
<time>2016-10-07T00:39:08Z</time>
</trkpt>
<trkpt lat="35.16932678222656" lon="-118.47473907470703">
<ele>1052</ele>
<time>2016-10-07T00:39:14Z</time>
</trkpt>
<trkpt lat="35.16774368286133" lon="-118.47376251220703">
<ele>1074</ele>
<time>2016-10-07T00:39:20Z</time>
</trkpt>
<trkpt lat="35.16594696044922" lon="-118.47355651855469">
<ele>1080</ele>
<time>2016-10-07T00:39:26Z</time>
</trkpt>
<trkpt lat="35.164093017578125" lon="-118.47337341308594">
<ele>1084</ele>
<time>2016-10-07T00:39:32Z</time>
</trkpt>
<trkpt lat="35.16228103637695" lon="-118.47364807128906">
<ele>1088</ele>
<time>2016-10-07T00:39:38Z</time>
</trkpt>
<trkpt lat="35.1605110168457" lon="-118.47402954101563">
<ele>1097</ele>
<time>2016-10-07T00:39:44Z</time>
</trkpt>
<trkpt lat="35.15874481201172" lon="-118.47394561767578">
<ele>1105</ele>
<time>2016-10-07T00:39:50Z</time>
</trkpt>
<trkpt lat="35.15694046020508" lon="-118.47388458251953">
<ele>1113</ele>
<time>2016-10-07T00:39:56Z</time>
</trkpt>
<trkpt lat="35.15534591674805" lon="-118.47319793701172">
<ele>1120</ele>
<time>2016-10-07T00:40:02Z</time>
</trkpt>
<trkpt lat="35.15380096435547" lon="-118.47212982177734">
<ele>1128</ele>
<time>2016-10-07T00:40:08Z</time>
</trkpt>
<trkpt lat="35.15220260620117" lon="-118.47103881835938">
<ele>1136</ele>
<time>2016-10-07T00:40:14Z</time>
</trkpt>
<trkpt lat="35.15057373046875" lon="-118.46994018554688">
<ele>1141</ele>
<time>2016-10-07T00:40:20Z</time>
</trkpt>
<trkpt lat="35.14879608154297" lon="-118.46936798095703">
<ele>1145</ele>
<time>2016-10-07T00:40:26Z</time>
</trkpt>
<trkpt lat="35.14698028564453" lon="-118.46961975097656">
<ele>1150</ele>
<time>2016-10-07T00:40:32Z</time>
</trkpt>
<trkpt lat="35.14524459838867" lon="-118.4699935913086">
<ele>1157</ele>
<time>2016-10-07T00:40:38Z</time>
</trkpt>
<trkpt lat="35.14358139038086" lon="-118.4696273803711">
<ele>1162</ele>
<time>2016-10-07T00:40:44Z</time>
</trkpt>
<trkpt lat="35.14209747314453" lon="-118.46856689453125">
<ele>1164</ele>
<time>2016-10-07T00:40:50Z</time>
</trkpt>
<trkpt lat="35.140987396240234" lon="-118.46685028076172">
<ele>1167</ele>
<time>2016-10-07T00:40:56Z</time>
</trkpt>
<trkpt lat="35.14041519165039" lon="-118.46485900878906">
<ele>1162</ele>
<time>2016-10-07T00:41:02Z</time>
</trkpt>
<trkpt lat="35.14009475708008" lon="-118.46276092529297">
<ele>1171</ele>
<time>2016-10-07T00:41:08Z</time>
</trkpt>
<trkpt lat="35.13975143432617" lon="-118.46061706542969">
<ele>1175</ele>
<time>2016-10-07T00:41:14Z</time>
</trkpt>
<trkpt lat="35.13966751098633" lon="-118.45846557617188">
<ele>1178</ele>
<time>2016-10-07T00:41:20Z</time>
</trkpt>
<trkpt lat="35.13966751098633" lon="-118.45624542236328">
<ele>1172</ele>
<time>2016-10-07T00:41:26Z</time>
</trkpt>
<trkpt lat="35.139625549316406" lon="-118.45404815673828">
<ele>1173</ele>
<time>2016-10-07T00:41:32Z</time>
</trkpt>
<trkpt lat="35.139625549316406" lon="-118.45184326171875">
<ele>1174</ele>
<time>2016-10-07T00:41:38Z</time>
</trkpt>
<trkpt lat="35.13962173461914" lon="-118.44963073730469">
<ele>1173</ele>
<time>2016-10-07T00:41:44Z</time>
</trkpt>
<trkpt lat="35.139617919921875" lon="-118.44743347167969">
<ele>1174</ele>
<time>2016-10-07T00:41:50Z</time>
</trkpt>
<trkpt lat="35.13961410522461" lon="-118.44522094726563">
<ele>1176</ele>
<time>2016-10-07T00:41:56Z</time>
</trkpt>
<trkpt lat="35.13959884643555" lon="-118.44300842285156">
<ele>1179</ele>
<time>2016-10-07T00:42:02Z</time>
</trkpt>
<trkpt lat="35.139591217041016" lon="-118.44078826904297">
<ele>1180</ele>
<time>2016-10-07T00:42:08Z</time>
</trkpt>
<trkpt lat="35.13960647583008" lon="-118.43856811523438">
<ele>1179</ele>
<time>2016-10-07T00:42:14Z</time>
</trkpt>
<trkpt lat="35.139610290527344" lon="-118.43634796142578">
<ele>1179</ele>
<time>2016-10-07T00:42:20Z</time>
</trkpt>
<trkpt lat="35.139373779296875" lon="-118.43418884277344">
<ele>1183</ele>
<time>2016-10-07T00:42:26Z</time>
</trkpt>
<trkpt lat="35.1386604309082" lon="-118.43214416503906">
<ele>1184</ele>
<time>2016-10-07T00:42:32Z</time>
</trkpt>
<trkpt lat="35.137786865234375" lon="-118.43018341064453">
<ele>1184</ele>
<time>2016-10-07T00:42:38Z</time>
</trkpt>
<trkpt lat="35.136940002441406" lon="-118.42823028564453">
<ele>1187</ele>
<time>2016-10-07T00:42:44Z</time>
</trkpt>
<trkpt lat="35.13608169555664" lon="-118.42628479003906">
<ele>1188</ele>
<time>2016-10-07T00:42:50Z</time>
</trkpt>
<trkpt lat="35.13523864746094" lon="-118.42431640625">
<ele>1190</ele>
<time>2016-10-07T00:42:56Z</time>
</trkpt>
<trkpt lat="35.13441848754883" lon="-118.42235565185547">
<ele>1192</ele>
<time>2016-10-07T00:43:02Z</time>
</trkpt>
<trkpt lat="35.13356018066406" lon="-118.4203872680664">
<ele>1192</ele>
<time>2016-10-07T00:43:08Z</time>
</trkpt>
<trkpt lat="35.132694244384766" lon="-118.41844940185547">
<ele>1192</ele>
<time>2016-10-07T00:43:14Z</time>
</trkpt>
<trkpt lat="35.1318473815918" lon="-118.41649627685547">
<ele>1192</ele>
<time>2016-10-07T00:43:20Z</time>
</trkpt>
<trkpt lat="35.13102340698242" lon="-118.41455841064453">
<ele>1195</ele>
<time>2016-10-07T00:43:26Z</time>
</trkpt>
<trkpt lat="35.1298713684082" lon="-118.41287231445313">
<ele>1201</ele>
<time>2016-10-07T00:43:32Z</time>
</trkpt>
<trkpt lat="35.12833786010742" lon="-118.41171264648438">
<ele>1204</ele>
<time>2016-10-07T00:43:38Z</time>
</trkpt>
<trkpt lat="35.1265869140625" lon="-118.41101837158203">
<ele>1204</ele>
<time>2016-10-07T00:43:44Z</time>
</trkpt>
<trkpt lat="35.125" lon="-118.40997314453125">
<ele>1204</ele>
<time>2016-10-07T00:43:50Z</time>
</trkpt>
<trkpt lat="35.1236686706543" lon="-118.40843963623047">
<ele>1202</ele>
<time>2016-10-07T00:43:56Z</time>
</trkpt>
<trkpt lat="35.12279510498047" lon="-118.4065170288086">
<ele>1198</ele>
<time>2016-10-07T00:44:02Z</time>
</trkpt>
<trkpt lat="35.122215270996094" lon="-118.4044189453125">
<ele>1200</ele>
<time>2016-10-07T00:44:08Z</time>
</trkpt>
<trkpt lat="35.12166213989258" lon="-118.40233612060547">
<ele>1203</ele>
<time>2016-10-07T00:44:14Z</time>
</trkpt>
<trkpt lat="35.1211051940918" lon="-118.40023040771484">
<ele>1204</ele>
<time>2016-10-07T00:44:20Z</time>
</trkpt>
<trkpt lat="35.12054443359375" lon="-118.39813995361328">
<ele>1207</ele>
<time>2016-10-07T00:44:26Z</time>
</trkpt>
<trkpt lat="35.120018005371094" lon="-118.39602661132813">
<ele>1207</ele>
<time>2016-10-07T00:44:32Z</time>
</trkpt>
<trkpt lat="35.11945343017578" lon="-118.39393615722656">
<ele>1206</ele>
<time>2016-10-07T00:44:38Z</time>
</trkpt>
<trkpt lat="35.1188850402832" lon="-118.39183044433594">
<ele>1205</ele>
<time>2016-10-07T00:44:44Z</time>
</trkpt>
<trkpt lat="35.11833572387695" lon="-118.38972473144531">
<ele>1204</ele>
<time>2016-10-07T00:44:50Z</time>
</trkpt>
<trkpt lat="35.11778259277344" lon="-118.38761901855469">
<ele>1201</ele>
<time>2016-10-07T00:44:56Z</time>
</trkpt>
<trkpt lat="35.11722183227539" lon="-118.3855209350586">
<ele>1200</ele>
<time>2016-10-07T00:45:02Z</time>
</trkpt>
<trkpt lat="35.116676330566406" lon="-118.38340759277344">
<ele>1199</ele>
<time>2016-10-07T00:45:08Z</time>
</trkpt>
<trkpt lat="35.11610794067383" lon="-118.38129425048828">
<ele>1195</ele>
<time>2016-10-07T00:45:14Z</time>
</trkpt>
<trkpt lat="35.11553955078125" lon="-118.37919616699219">
<ele>1191</ele>
<time>2016-10-07T00:45:20Z</time>
</trkpt>
<trkpt lat="35.115234375" lon="-118.37701416015625">
<ele>1189</ele>
<time>2016-10-07T00:45:26Z</time>
</trkpt>
<trkpt lat="35.11513900756836" lon="-118.37483215332031">
<ele>1184</ele>
<time>2016-10-07T00:45:32Z</time>
</trkpt>
<trkpt lat="35.11510467529297" lon="-118.37291717529297">
<ele>1182</ele>
<time>2016-10-07T00:45:38Z</time>
</trkpt>
<trkpt lat="35.11501693725586" lon="-118.37108612060547">
<ele>1179</ele>
<time>2016-10-07T00:45:44Z</time>
</trkpt>
<trkpt lat="35.11493682861328" lon="-118.36927032470703">
<ele>1181</ele>
<time>2016-10-07T00:45:50Z</time>
</trkpt>
<trkpt lat="35.1148796081543" lon="-118.367431640625">
<ele>1180</ele>
<time>2016-10-07T00:45:56Z</time>
</trkpt>
<trkpt lat="35.1144905090332" lon="-118.365478515625">
<ele>1176</ele>
<time>2016-10-07T00:46:02Z</time>
</trkpt>
<trkpt lat="35.11389923095703" lon="-118.36341857910156">
<ele>1174</ele>
<time>2016-10-07T00:46:08Z</time>
</trkpt>
<trkpt lat="35.113304138183594" lon="-118.36132049560547">
<ele>1171</ele>
<time>2016-10-07T00:46:14Z</time>
</trkpt>
<trkpt lat="35.11269760131836" lon="-118.35928344726563">
<ele>1167</ele>
<time>2016-10-07T00:46:20Z</time>
</trkpt>
<trkpt lat="35.11209487915039" lon="-118.35725402832031">
<ele>1167</ele>
<time>2016-10-07T00:46:26Z</time>
</trkpt>
<trkpt lat="35.11151123046875" lon="-118.35527038574219">
<ele>1165</ele>
<time>2016-10-07T00:46:32Z</time>
</trkpt>
<trkpt lat="35.11097717285156" lon="-118.35334014892578">
<ele>1165</ele>
<time>2016-10-07T00:46:38Z</time>
</trkpt>
<trkpt lat="35.110557556152344" lon="-118.35147857666016">
<ele>1163</ele>
<time>2016-10-07T00:46:44Z</time>
</trkpt>
<trkpt lat="35.1103515625" lon="-118.34962463378906">
<ele>1159</ele>
<time>2016-10-07T00:46:50Z</time>
</trkpt>
<trkpt lat="35.110267639160156" lon="-118.3481216430664">
<ele>1159</ele>
<time>2016-10-07T00:46:56Z</time>
</trkpt>
<trkpt lat="35.110260009765625" lon="-118.34691619873047">
<ele>1161</ele>
<time>2016-10-07T00:47:02Z</time>
</trkpt>
<trkpt lat="35.110233306884766" lon="-118.34575653076172">
<ele>1164</ele>
<time>2016-10-07T00:47:08Z</time>
</trkpt>
<trkpt lat="35.11021423339844" lon="-118.34468841552734">
<ele>1164</ele>
<time>2016-10-07T00:47:14Z</time>
</trkpt>
<trkpt lat="35.1102180480957" lon="-118.34383392333984">
<ele>1164</ele>
<time>2016-10-07T00:47:20Z</time>
</trkpt>
<trkpt lat="35.11022186279297" lon="-118.34309387207031">
<ele>1164</ele>
<time>2016-10-07T00:47:26Z</time>
</trkpt>
<trkpt lat="35.110252380371094" lon="-118.34226989746094">
<ele>1161</ele>
<time>2016-10-07T00:47:32Z</time>
</trkpt>
<trkpt lat="35.11024475097656" lon="-118.3414306640625">
<ele>1159</ele>
<time>2016-10-07T00:47:38Z</time>
</trkpt>
<trkpt lat="35.1102294921875" lon="-118.34065246582031">
<ele>1158</ele>
<time>2016-10-07T00:47:44Z</time>
</trkpt>
<trkpt lat="35.1102409362793" lon="-118.33985900878906">
<ele>1160</ele>
<time>2016-10-07T00:47:50Z</time>
</trkpt>
<trkpt lat="35.110206604003906" lon="-118.33908081054688">
<ele>1162</ele>
<time>2016-10-07T00:47:56Z</time>
</trkpt>
<trkpt lat="35.11022186279297" lon="-118.33831787109375">
<ele>1163</ele>
<time>2016-10-07T00:48:02Z</time>
</trkpt>
<trkpt lat="35.11020278930664" lon="-118.33753204345703">
<ele>1165</ele>
<time>2016-10-07T00:48:08Z</time>
</trkpt>
<trkpt lat="35.11019515991211" lon="-118.33668518066406">
<ele>1166</ele>
<time>2016-10-07T00:48:14Z</time>
</trkpt>
<trkpt lat="35.11020278930664" lon="-118.33585357666016">
<ele>1165</ele>
<time>2016-10-07T00:48:20Z</time>
</trkpt>
<trkpt lat="35.11018753051758" lon="-118.33499908447266">
<ele>1164</ele>
<time>2016-10-07T00:48:26Z</time>
</trkpt>
<trkpt lat="35.11019515991211" lon="-118.33406829833984">
<ele>1162</ele>
<time>2016-10-07T00:48:32Z</time>
</trkpt>
<trkpt lat="35.110191345214844" lon="-118.33299255371094">
<ele>1161</ele>
<time>2016-10-07T00:48:38Z</time>
</trkpt>
<trkpt lat="35.11018753051758" lon="-118.33184814453125">
<ele>1162</ele>
<time>2016-10-07T00:48:44Z</time>
</trkpt>
<trkpt lat="35.110172271728516" lon="-118.3307876586914">
<ele>1164</ele>
<time>2016-10-07T00:48:50Z</time>
</trkpt>
<trkpt lat="35.11017990112305" lon="-118.32978820800781">
<ele>1167</ele>
<time>2016-10-07T00:48:56Z</time>
</trkpt>
<trkpt lat="35.11015701293945" lon="-118.32884979248047">
<ele>1170</ele>
<time>2016-10-07T00:49:02Z</time>
</trkpt>
<trkpt lat="35.110206604003906" lon="-118.32793426513672">
<ele>1172</ele>
<time>2016-10-07T00:49:08Z</time>
</trkpt>
<trkpt lat="35.11018371582031" lon="-118.3270492553711">
<ele>1174</ele>
<time>2016-10-07T00:49:14Z</time>
</trkpt>
<trkpt lat="35.11020278930664" lon="-118.32605743408203">
<ele>1177</ele>
<time>2016-10-07T00:49:20Z</time>
</trkpt>
<trkpt lat="35.1102294921875" lon="-118.3250503540039">
<ele>1180</ele>
<time>2016-10-07T00:49:26Z</time>
</trkpt>
<trkpt lat="35.11015701293945" lon="-118.32382202148438">
<ele>1175</ele>
<time>2016-10-07T00:49:32Z</time>
</trkpt>
<trkpt lat="35.10990905761719" lon="-118.3224868774414">
<ele>1165</ele>
<time>2016-10-07T00:49:38Z</time>
</trkpt>
<trkpt lat="35.10945129394531" lon="-118.32115173339844">
<ele>1166</ele>
<time>2016-10-07T00:49:44Z</time>
</trkpt>
<trkpt lat="35.1087646484375" lon="-118.3199691772461">
<ele>1165</ele>
<time>2016-10-07T00:49:50Z</time>
</trkpt>
<trkpt lat="35.10800552368164" lon="-118.3188705444336">
<ele>1163</ele>
<time>2016-10-07T00:49:56Z</time>
</trkpt>
<trkpt lat="35.107200622558594" lon="-118.31773376464844">
<ele>1161</ele>
<time>2016-10-07T00:50:02Z</time>
</trkpt>
<trkpt lat="35.10638427734375" lon="-118.3165512084961">
<ele>1168</ele>
<time>2016-10-07T00:50:08Z</time>
</trkpt>
<trkpt lat="35.1056022644043" lon="-118.31544494628906">
<ele>1168</ele>
<time>2016-10-07T00:50:14Z</time>
</trkpt>
<trkpt lat="35.10477066040039" lon="-118.31421661376953">
<ele>1168</ele>
<time>2016-10-07T00:50:20Z</time>
</trkpt>
<trkpt lat="35.10382843017578" lon="-118.31279754638672">
<ele>1164</ele>
<time>2016-10-07T00:50:26Z</time>
</trkpt>
<trkpt lat="35.102783203125" lon="-118.3111343383789">
<ele>1158</ele>
<time>2016-10-07T00:50:32Z</time>
</trkpt>
<trkpt lat="35.10150146484375" lon="-118.30963897705078">
<ele>1153</ele>
<time>2016-10-07T00:50:38Z</time>
</trkpt>
<trkpt lat="35.099918365478516" lon="-118.30860137939453">
<ele>1151</ele>
<time>2016-10-07T00:50:44Z</time>
</trkpt>
<trkpt lat="35.098480224609375" lon="-118.30742645263672">
<ele>1152</ele>
<time>2016-10-07T00:50:50Z</time>
</trkpt>
<trkpt lat="35.09745788574219" lon="-118.30569458007813">
<ele>1154</ele>
<time>2016-10-07T00:50:56Z</time>
</trkpt>
<trkpt lat="35.09701919555664" lon="-118.30362701416016">
<ele>1150</ele>
<time>2016-10-07T00:51:02Z</time>
</trkpt>
<trkpt lat="35.09719467163086" lon="-118.30140686035156">
<ele>1148</ele>
<time>2016-10-07T00:51:08Z</time>
</trkpt>
<trkpt lat="35.097774505615234" lon="-118.29924011230469">
<ele>1144</ele>
<time>2016-10-07T00:51:14Z</time>
</trkpt>
<trkpt lat="35.098323822021484" lon="-118.29704284667969">
<ele>1138</ele>
<time>2016-10-07T00:51:20Z</time>
</trkpt>
<trkpt lat="35.09889602661133" lon="-118.2947998046875">
<ele>1134</ele>
<time>2016-10-07T00:51:26Z</time>
</trkpt>
<trkpt lat="35.09946060180664" lon="-118.29257202148438">
<ele>1131</ele>
<time>2016-10-07T00:51:32Z</time>
</trkpt>
<trkpt lat="35.10000228881836" lon="-118.29034423828125">
<ele>1128</ele>
<time>2016-10-07T00:51:38Z</time>
</trkpt>
<trkpt lat="35.100563049316406" lon="-118.28815460205078">
<ele>1127</ele>
<time>2016-10-07T00:51:44Z</time>
</trkpt>
<trkpt lat="35.1010856628418" lon="-118.28597259521484">
<ele>1125</ele>
<time>2016-10-07T00:51:50Z</time>
</trkpt>
<trkpt lat="35.101600646972656" lon="-118.28377532958984">
<ele>1123</ele>
<time>2016-10-07T00:51:56Z</time>
</trkpt>
<trkpt lat="35.102088928222656" lon="-118.28157043457031">
<ele>1122</ele>
<time>2016-10-07T00:52:02Z</time>
</trkpt>
<trkpt lat="35.10260772705078" lon="-118.27938842773438">
<ele>1125</ele>
<time>2016-10-07T00:52:08Z</time>
</trkpt>
<trkpt lat="35.10318374633789" lon="-118.2772445678711">
<ele>1122</ele>
<time>2016-10-07T00:52:14Z</time>
</trkpt>
<trkpt lat="35.10369873046875" lon="-118.27509307861328">
<ele>1116</ele>
<time>2016-10-07T00:52:20Z</time>
</trkpt>
<trkpt lat="35.10420608520508" lon="-118.2729263305664">
<ele>1116</ele>
<time>2016-10-07T00:52:26Z</time>
</trkpt>
<trkpt lat="35.1046257019043" lon="-118.270751953125">
<ele>1117</ele>
<time>2016-10-07T00:52:32Z</time>
</trkpt>
<trkpt lat="35.104915618896484" lon="-118.26854705810547">
<ele>1117</ele>
<time>2016-10-07T00:52:38Z</time>
</trkpt>
<trkpt lat="35.1050910949707" lon="-118.26632690429688">
<ele>1116</ele>
<time>2016-10-07T00:52:44Z</time>
</trkpt>
<trkpt lat="35.10512924194336" lon="-118.26407623291016">
<ele>1112</ele>
<time>2016-10-07T00:52:50Z</time>
</trkpt>
<trkpt lat="35.10503005981445" lon="-118.26179504394531">
<ele>1109</ele>
<time>2016-10-07T00:52:56Z</time>
</trkpt>
<trkpt lat="35.10490036010742" lon="-118.2594985961914">
<ele>1104</ele>
<time>2016-10-07T00:53:02Z</time>
</trkpt>
<trkpt lat="35.10493087768555" lon="-118.25720977783203">
<ele>1098</ele>
<time>2016-10-07T00:53:08Z</time>
</trkpt>
<trkpt lat="35.1052360534668" lon="-118.25499725341797">
<ele>1097</ele>
<time>2016-10-07T00:53:14Z</time>
</trkpt>
<trkpt lat="35.105716705322266" lon="-118.25285339355469">
<ele>1088</ele>
<time>2016-10-07T00:53:20Z</time>
</trkpt>
<trkpt lat="35.10634231567383" lon="-118.2507553100586">
<ele>1080</ele>
<time>2016-10-07T00:53:26Z</time>
</trkpt>
<trkpt lat="35.10698699951172" lon="-118.24874114990234">
<ele>1076</ele>
<time>2016-10-07T00:53:32Z</time>
</trkpt>
<trkpt lat="35.10786056518555" lon="-118.24673461914063">
<ele>1071</ele>
<time>2016-10-07T00:53:38Z</time>
</trkpt>
<trkpt lat="35.108795166015625" lon="-118.24472045898438">
<ele>1066</ele>
<time>2016-10-07T00:53:44Z</time>
</trkpt>
<trkpt lat="35.109718322753906" lon="-118.24266815185547">
<ele>1060</ele>
<time>2016-10-07T00:53:50Z</time>
</trkpt>
<trkpt lat="35.110626220703125" lon="-118.24063110351563">
<ele>1056</ele>
<time>2016-10-07T00:53:56Z</time>
</trkpt>
<trkpt lat="35.11153030395508" lon="-118.2386703491211">
<ele>1059</ele>
<time>2016-10-07T00:54:02Z</time>
</trkpt>
<trkpt lat="35.112422943115234" lon="-118.2367172241211">
<ele>1068</ele>
<time>2016-10-07T00:54:08Z</time>
</trkpt>
<trkpt lat="35.11335754394531" lon="-118.23471069335938">
<ele>1064</ele>
<time>2016-10-07T00:54:14Z</time>
</trkpt>
<trkpt lat="35.11430358886719" lon="-118.23265838623047">
<ele>1057</ele>
<time>2016-10-07T00:54:20Z</time>
</trkpt>
<trkpt lat="35.11525344848633" lon="-118.23064422607422">
<ele>1052</ele>
<time>2016-10-07T00:54:26Z</time>
</trkpt>
<trkpt lat="35.11617660522461" lon="-118.22862243652344">
<ele>1047</ele>
<time>2016-10-07T00:54:32Z</time>
</trkpt>
<trkpt lat="35.11708068847656" lon="-118.2265853881836">
<ele>1037</ele>
<time>2016-10-07T00:54:38Z</time>
</trkpt>
<trkpt lat="35.11783981323242" lon="-118.22445678710938">
<ele>1030</ele>
<time>2016-10-07T00:54:44Z</time>
</trkpt>
<trkpt lat="35.118160247802734" lon="-118.2222671508789">
<ele>1027</ele>
<time>2016-10-07T00:54:50Z</time>
</trkpt>
<trkpt lat="35.118125915527344" lon="-118.22014617919922">
<ele>1023</ele>
<time>2016-10-07T00:54:56Z</time>
</trkpt>
<trkpt lat="35.117950439453125" lon="-118.2180404663086">
<ele>1020</ele>
<time>2016-10-07T00:55:02Z</time>
</trkpt>
<trkpt lat="35.11774826049805" lon="-118.21586608886719">
<ele>1012</ele>
<time>2016-10-07T00:55:08Z</time>
</trkpt>
<trkpt lat="35.1175651550293" lon="-118.21369934082031">
<ele>1007</ele>
<time>2016-10-07T00:55:14Z</time>
</trkpt>
<trkpt lat="35.11742401123047" lon="-118.2115478515625">
<ele>1001</ele>
<time>2016-10-07T00:55:20Z</time>
</trkpt>
<trkpt lat="35.117271423339844" lon="-118.20935821533203">
<ele>996</ele>
<time>2016-10-07T00:55:26Z</time>
</trkpt>
<trkpt lat="35.11710739135742" lon="-118.2071304321289">
<ele>988</ele>
<time>2016-10-07T00:55:32Z</time>
</trkpt>
<trkpt lat="35.11695861816406" lon="-118.20491027832031">
<ele>982</ele>
<time>2016-10-07T00:55:38Z</time>
</trkpt>
<trkpt lat="35.116798400878906" lon="-118.20270538330078">
<ele>979</ele>
<time>2016-10-07T00:55:44Z</time>
</trkpt>
<trkpt lat="35.116641998291016" lon="-118.20052337646484">
<ele>972</ele>
<time>2016-10-07T00:55:50Z</time>
</trkpt>
<trkpt lat="35.11647415161133" lon="-118.19835662841797">
<ele>966</ele>
<time>2016-10-07T00:55:56Z</time>
</trkpt>
<trkpt lat="35.116355895996094" lon="-118.19625091552734">
<ele>960</ele>
<time>2016-10-07T00:56:02Z</time>
</trkpt>
<trkpt lat="35.116207122802734" lon="-118.19414520263672">
<ele>955</ele>
<time>2016-10-07T00:56:08Z</time>
</trkpt>
<trkpt lat="35.11600112915039" lon="-118.1919937133789">
<ele>950</ele>
<time>2016-10-07T00:56:14Z</time>
</trkpt>
<trkpt lat="35.115718841552734" lon="-118.1897964477539">
<ele>947</ele>
<time>2016-10-07T00:56:20Z</time>
</trkpt>
<trkpt lat="35.115447998046875" lon="-118.18769073486328">
<ele>942</ele>
<time>2016-10-07T00:56:26Z</time>
</trkpt>
<trkpt lat="35.115081787109375" lon="-118.1856460571289">
<ele>940</ele>
<time>2016-10-07T00:56:32Z</time>
</trkpt>
<trkpt lat="35.114688873291016" lon="-118.18364715576172">
<ele>935</ele>
<time>2016-10-07T00:56:38Z</time>
</trkpt>
<trkpt lat="35.1142463684082" lon="-118.18162536621094">
<ele>928</ele>
<time>2016-10-07T00:56:44Z</time>
</trkpt>
<trkpt lat="35.113712310791016" lon="-118.17957305908203">
<ele>923</ele>
<time>2016-10-07T00:56:50Z</time>
</trkpt>
<trkpt lat="35.113121032714844" lon="-118.17752838134766">
<ele>921</ele>
<time>2016-10-07T00:56:56Z</time>
</trkpt>
<trkpt lat="35.112491607666016" lon="-118.17552947998047">
<ele>916</ele>
<time>2016-10-07T00:57:02Z</time>
</trkpt>
<trkpt lat="35.11179733276367" lon="-118.17353057861328">
<ele>912</ele>
<time>2016-10-07T00:57:08Z</time>
</trkpt>
<trkpt lat="35.11104965209961" lon="-118.17152404785156">
<ele>909</ele>
<time>2016-10-07T00:57:14Z</time>
</trkpt>
<trkpt lat="35.11025619506836" lon="-118.16956329345703">
<ele>902</ele>
<time>2016-10-07T00:57:20Z</time>
</trkpt>
<trkpt lat="35.10940170288086" lon="-118.16764831542969">
<ele>899</ele>
<time>2016-10-07T00:57:26Z</time>
</trkpt>
<trkpt lat="35.1085319519043" lon="-118.16576385498047">
<ele>893</ele>
<time>2016-10-07T00:57:32Z</time>
</trkpt>
<trkpt lat="35.107635498046875" lon="-118.16382598876953">
<ele>890</ele>
<time>2016-10-07T00:57:38Z</time>
</trkpt>
<trkpt lat="35.10675048828125" lon="-118.1618881225586">
<ele>887</ele>
<time>2016-10-07T00:57:44Z</time>
</trkpt>
<trkpt lat="35.10585021972656" lon="-118.15996551513672">
<ele>880</ele>
<time>2016-10-07T00:57:50Z</time>
</trkpt>
<trkpt lat="35.10493469238281" lon="-118.15802001953125">
<ele>877</ele>
<time>2016-10-07T00:57:56Z</time>
</trkpt>
<trkpt lat="35.10402297973633" lon="-118.15606689453125">
<ele>875</ele>
<time>2016-10-07T00:58:02Z</time>
</trkpt>
<trkpt lat="35.103126525878906" lon="-118.15410614013672">
<ele>871</ele>
<time>2016-10-07T00:58:08Z</time>
</trkpt>
<trkpt lat="35.10222244262695" lon="-118.15218353271484">
<ele>867</ele>
<time>2016-10-07T00:58:14Z</time>
</trkpt>
<trkpt lat="35.10136032104492" lon="-118.15037536621094">
<ele>863</ele>
<time>2016-10-07T00:58:20Z</time>
</trkpt>
<trkpt lat="35.10042190551758" lon="-118.14883422851563">
<ele>858</ele>
<time>2016-10-07T00:58:26Z</time>
</trkpt>
<trkpt lat="35.099266052246094" lon="-118.14772033691406">
<ele>858</ele>
<time>2016-10-07T00:58:32Z</time>
</trkpt>
<trkpt lat="35.09821319580078" lon="-118.1467056274414">
<ele>860</ele>
<time>2016-10-07T00:58:38Z</time>
</trkpt>
<trkpt lat="35.09760284423828" lon="-118.14579010009766">
<ele>858</ele>
<time>2016-10-07T00:58:44Z</time>
</trkpt>
<trkpt lat="35.0975227355957" lon="-118.14549255371094">
<ele>861</ele>
<time>2016-10-07T00:58:51Z</time>
</trkpt>
<trkpt lat="35.09793472290039" lon="-118.1449203491211">
<ele>862</ele>
<time>2016-10-07T00:58:57Z</time>
</trkpt>
<trkpt lat="35.09877014160156" lon="-118.14425659179688">
<ele>864</ele>
<time>2016-10-07T00:59:03Z</time>
</trkpt>
<trkpt lat="35.099937438964844" lon="-118.14337921142578">
<ele>867</ele>
<time>2016-10-07T00:59:09Z</time>
</trkpt>
<trkpt lat="35.101314544677734" lon="-118.14229583740234">
<ele>862</ele>
<time>2016-10-07T00:59:15Z</time>
</trkpt>
<trkpt lat="35.1027946472168" lon="-118.14115142822266">
<ele>858</ele>
<time>2016-10-07T00:59:21Z</time>
</trkpt>
<trkpt lat="35.10433578491211" lon="-118.13994598388672">
<ele>856</ele>
<time>2016-10-07T00:59:27Z</time>
</trkpt>
<trkpt lat="35.105873107910156" lon="-118.1387710571289">
<ele>855</ele>
<time>2016-10-07T00:59:33Z</time>
</trkpt>
<trkpt lat="35.107421875" lon="-118.13756561279297">
<ele>854</ele>
<time>2016-10-07T00:59:39Z</time>
</trkpt>
<trkpt lat="35.10895919799805" lon="-118.1363754272461">
<ele>851</ele>
<time>2016-10-07T00:59:45Z</time>
</trkpt>
<trkpt lat="35.110496520996094" lon="-118.13518524169922">
<ele>850</ele>
<time>2016-10-07T00:59:51Z</time>
</trkpt>
<trkpt lat="35.112030029296875" lon="-118.1340103149414">
<ele>848</ele>
<time>2016-10-07T00:59:57Z</time>
</trkpt>
<trkpt lat="35.11354446411133" lon="-118.13278198242188">
<ele>846</ele>
<time>2016-10-07T01:00:03Z</time>
</trkpt>
<trkpt lat="35.11508560180664" lon="-118.13157653808594">
<ele>844</ele>
<time>2016-10-07T01:00:09Z</time>
</trkpt>
<trkpt lat="35.11663055419922" lon="-118.13041687011719">
<ele>840</ele>
<time>2016-10-07T01:00:15Z</time>
</trkpt>
<trkpt lat="35.118167877197266" lon="-118.12925720214844">
<ele>837</ele>
<time>2016-10-07T01:00:21Z</time>
</trkpt>
<trkpt lat="35.11970138549805" lon="-118.12805938720703">
<ele>834</ele>
<time>2016-10-07T01:00:27Z</time>
</trkpt>
<trkpt lat="35.121238708496094" lon="-118.12689208984375">
<ele>833</ele>
<time>2016-10-07T01:00:33Z</time>
</trkpt>
<trkpt lat="35.122764587402344" lon="-118.12570190429688">
<ele>831</ele>
<time>2016-10-07T01:00:39Z</time>
</trkpt>
<trkpt lat="35.124290466308594" lon="-118.12450408935547">
<ele>832</ele>
<time>2016-10-07T01:00:45Z</time>
</trkpt>
<trkpt lat="35.12582015991211" lon="-118.12332916259766">
<ele>829</ele>
<time>2016-10-07T01:00:51Z</time>
</trkpt>
<trkpt lat="35.12734603881836" lon="-118.12213897705078">
<ele>826</ele>
<time>2016-10-07T01:00:57Z</time>
</trkpt>
<trkpt lat="35.12887954711914" lon="-118.12094116210938">
<ele>823</ele>
<time>2016-10-07T01:01:03Z</time>
</trkpt>
<trkpt lat="35.130428314208984" lon="-118.11976623535156">
<ele>820</ele>
<time>2016-10-07T01:01:09Z</time>
</trkpt>
<trkpt lat="35.13196563720703" lon="-118.11858367919922">
<ele>818</ele>
<time>2016-10-07T01:01:15Z</time>
</trkpt>
<trkpt lat="35.13350296020508" lon="-118.117431640625">
<ele>815</ele>
<time>2016-10-07T01:01:21Z</time>
</trkpt>
<trkpt lat="35.13507843017578" lon="-118.11626434326172">
<ele>809</ele>
<time>2016-10-07T01:01:27Z</time>
</trkpt>
<trkpt lat="35.136619567871094" lon="-118.11509704589844">
<ele>807</ele>
<time>2016-10-07T01:01:33Z</time>
</trkpt>
<trkpt lat="35.13814163208008" lon="-118.1139144897461">
<ele>805</ele>
<time>2016-10-07T01:01:39Z</time>
</trkpt>
<trkpt lat="35.13967514038086" lon="-118.11273193359375">
<ele>804</ele>
<time>2016-10-07T01:01:45Z</time>
</trkpt>
<trkpt lat="35.141204833984375" lon="-118.11153411865234">
<ele>803</ele>
<time>2016-10-07T01:01:51Z</time>
</trkpt>
<trkpt lat="35.142723083496094" lon="-118.11034393310547">
<ele>801</ele>
<time>2016-10-07T01:01:57Z</time>
</trkpt>
<trkpt lat="35.14425277709961" lon="-118.10916900634766">
<ele>800</ele>
<time>2016-10-07T01:02:03Z</time>
</trkpt>
<trkpt lat="35.14580535888672" lon="-118.10794830322266">
<ele>796</ele>
<time>2016-10-07T01:02:09Z</time>
</trkpt>
<trkpt lat="35.14739990234375" lon="-118.10673522949219">
<ele>793</ele>
<time>2016-10-07T01:02:15Z</time>
</trkpt>
<trkpt lat="35.14896774291992" lon="-118.1054916381836">
<ele>790</ele>
<time>2016-10-07T01:02:21Z</time>
</trkpt>
<trkpt lat="35.150535583496094" lon="-118.10428619384766">
<ele>790</ele>
<time>2016-10-07T01:02:27Z</time>
</trkpt>
<trkpt lat="35.152103424072266" lon="-118.10307312011719">
<ele>785</ele>
<time>2016-10-07T01:02:33Z</time>
</trkpt>
<trkpt lat="35.153663635253906" lon="-118.10183715820313">
<ele>782</ele>
<time>2016-10-07T01:02:39Z</time>
</trkpt>
<trkpt lat="35.15519332885742" lon="-118.10055541992188">
<ele>780</ele>
<time>2016-10-07T01:02:45Z</time>
</trkpt>
<trkpt lat="35.15668487548828" lon="-118.09922790527344">
<ele>774</ele>
<time>2016-10-07T01:02:51Z</time>
</trkpt>
<trkpt lat="35.158203125" lon="-118.09788513183594">
<ele>772</ele>
<time>2016-10-07T01:02:57Z</time>
</trkpt>
<trkpt lat="35.15974044799805" lon="-118.09661102294922">
<ele>770</ele>
<time>2016-10-07T01:03:03Z</time>
</trkpt>
<trkpt lat="35.161312103271484" lon="-118.09535217285156">
<ele>770</ele>
<time>2016-10-07T01:03:09Z</time>
</trkpt>
<trkpt lat="35.16291046142578" lon="-118.09414672851563">
<ele>767</ele>
<time>2016-10-07T01:03:15Z</time>
</trkpt>
<trkpt lat="35.16448974609375" lon="-118.09293365478516">
<ele>781</ele>
<time>2016-10-07T01:03:21Z</time>
</trkpt>
<trkpt lat="35.16608810424805" lon="-118.09170532226563">
<ele>766</ele>
<time>2016-10-07T01:03:27Z</time>
</trkpt>
<trkpt lat="35.167659759521484" lon="-118.0904769897461">
<ele>758</ele>
<time>2016-10-07T01:03:33Z</time>
</trkpt>
<trkpt lat="35.169212341308594" lon="-118.08924865722656">
<ele>756</ele>
<time>2016-10-07T01:03:39Z</time>
</trkpt>
<trkpt lat="35.170780181884766" lon="-118.08802795410156">
<ele>752</ele>
<time>2016-10-07T01:03:45Z</time>
</trkpt>
<trkpt lat="35.17234802246094" lon="-118.0868148803711">
<ele>747</ele>
<time>2016-10-07T01:03:51Z</time>
</trkpt>
<trkpt lat="35.17391586303711" lon="-118.0855941772461">
<ele>745</ele>
<time>2016-10-07T01:03:57Z</time>
</trkpt>
<trkpt lat="35.17548370361328" lon="-118.0843734741211">
<ele>746</ele>
<time>2016-10-07T01:04:03Z</time>
</trkpt>
<trkpt lat="35.17707061767578" lon="-118.0831298828125">
<ele>745</ele>
<time>2016-10-07T01:04:09Z</time>
</trkpt>
<trkpt lat="35.17863082885742" lon="-118.08192443847656">
<ele>742</ele>
<time>2016-10-07T01:04:15Z</time>
</trkpt>
<trkpt lat="35.18020248413086" lon="-118.0806884765625">
<ele>737</ele>
<time>2016-10-07T01:04:21Z</time>
</trkpt>
<trkpt lat="35.181766510009766" lon="-118.07948303222656">
<ele>738</ele>
<time>2016-10-07T01:04:27Z</time>
</trkpt>
<trkpt lat="35.18334197998047" lon="-118.07826232910156">
<ele>736</ele>
<time>2016-10-07T01:04:33Z</time>
</trkpt>
<trkpt lat="35.184906005859375" lon="-118.07704162597656">
<ele>735</ele>
<time>2016-10-07T01:04:39Z</time>
</trkpt>
<trkpt lat="35.18647384643555" lon="-118.07581329345703">
<ele>737</ele>
<time>2016-10-07T01:04:45Z</time>
</trkpt>
<trkpt lat="35.188053131103516" lon="-118.0745849609375">
<ele>733</ele>
<time>2016-10-07T01:04:51Z</time>
</trkpt>
<trkpt lat="35.18962860107422" lon="-118.07333374023438">
<ele>731</ele>
<time>2016-10-07T01:04:57Z</time>
</trkpt>
<trkpt lat="35.19121551513672" lon="-118.07209777832031">
<ele>729</ele>
<time>2016-10-07T01:05:03Z</time>
</trkpt>
<trkpt lat="35.19276809692383" lon="-118.07087707519531">
<ele>729</ele>
<time>2016-10-07T01:05:09Z</time>
</trkpt>
<trkpt lat="35.19432830810547" lon="-118.06965637207031">
<ele>727</ele>
<time>2016-10-07T01:05:15Z</time>
</trkpt>
<trkpt lat="35.19588851928711" lon="-118.0684585571289">
<ele>727</ele>
<time>2016-10-07T01:05:21Z</time>
</trkpt>
<trkpt lat="35.197479248046875" lon="-118.06721496582031">
<ele>725</ele>
<time>2016-10-07T01:05:27Z</time>
</trkpt>
<trkpt lat="35.199073791503906" lon="-118.06600952148438">
<ele>720</ele>
<time>2016-10-07T01:05:33Z</time>
</trkpt>
<trkpt lat="35.20063781738281" lon="-118.06480407714844">
<ele>717</ele>
<time>2016-10-07T01:05:39Z</time>
</trkpt>
<trkpt lat="35.20220947265625" lon="-118.06355285644531">
<ele>712</ele>
<time>2016-10-07T01:05:45Z</time>
</trkpt>
<trkpt lat="35.20378875732422" lon="-118.06233215332031">
<ele>709</ele>
<time>2016-10-07T01:05:51Z</time>
</trkpt>
<trkpt lat="35.20537185668945" lon="-118.06110382080078">
<ele>707</ele>
<time>2016-10-07T01:05:57Z</time>
</trkpt>
<trkpt lat="35.20693588256836" lon="-118.05987548828125">
<ele>705</ele>
<time>2016-10-07T01:06:03Z</time>
</trkpt>
<trkpt lat="35.208499908447266" lon="-118.05864715576172">
<ele>705</ele>
<time>2016-10-07T01:06:09Z</time>
</trkpt>
<trkpt lat="35.2100715637207" lon="-118.05741882324219">
<ele>703</ele>
<time>2016-10-07T01:06:15Z</time>
</trkpt>
<trkpt lat="35.21163558959961" lon="-118.05622100830078">
<ele>699</ele>
<time>2016-10-07T01:06:21Z</time>
</trkpt>
<trkpt lat="35.213218688964844" lon="-118.05497741699219">
<ele>699</ele>
<time>2016-10-07T01:06:27Z</time>
</trkpt>
<trkpt lat="35.21487808227539" lon="-118.05387878417969">
<ele>694</ele>
<time>2016-10-07T01:06:33Z</time>
</trkpt>
<trkpt lat="35.21665573120117" lon="-118.05311584472656">
<ele>688</ele>
<time>2016-10-07T01:06:39Z</time>
</trkpt>
<trkpt lat="35.218441009521484" lon="-118.0524673461914">
<ele>682</ele>
<time>2016-10-07T01:06:45Z</time>
</trkpt>
<trkpt lat="35.22023010253906" lon="-118.05180358886719">
<ele>678</ele>
<time>2016-10-07T01:06:51Z</time>
</trkpt>
<trkpt lat="35.22200012207031" lon="-118.05115509033203">
<ele>682</ele>
<time>2016-10-07T01:06:57Z</time>
</trkpt>
<trkpt lat="35.223785400390625" lon="-118.05048370361328">
<ele>679</ele>
<time>2016-10-07T01:07:03Z</time>
</trkpt>
<trkpt lat="35.22557067871094" lon="-118.04984283447266">
<ele>684</ele>
<time>2016-10-07T01:07:09Z</time>
</trkpt>
<trkpt lat="35.22736740112305" lon="-118.04917907714844">
<ele>682</ele>
<time>2016-10-07T01:07:15Z</time>
</trkpt>
<trkpt lat="35.2291374206543" lon="-118.04850769042969">
<ele>680</ele>
<time>2016-10-07T01:07:21Z</time>
</trkpt>
<trkpt lat="35.23091125488281" lon="-118.0478515625">
<ele>679</ele>
<time>2016-10-07T01:07:27Z</time>
</trkpt>
<trkpt lat="35.232688903808594" lon="-118.04719543457031">
<ele>678</ele>
<time>2016-10-07T01:07:33Z</time>
</trkpt>
<trkpt lat="35.2344970703125" lon="-118.04650115966797">
<ele>678</ele>
<time>2016-10-07T01:07:39Z</time>
</trkpt>
<trkpt lat="35.23628234863281" lon="-118.04582977294922">
<ele>672</ele>
<time>2016-10-07T01:07:45Z</time>
</trkpt>
<trkpt lat="35.238059997558594" lon="-118.04518127441406">
<ele>674</ele>
<time>2016-10-07T01:07:51Z</time>
</trkpt>
<trkpt lat="35.239845275878906" lon="-118.04452514648438">
<ele>672</ele>
<time>2016-10-07T01:07:57Z</time>
</trkpt>
<trkpt lat="35.24164962768555" lon="-118.04387664794922">
<ele>667</ele>
<time>2016-10-07T01:08:03Z</time>
</trkpt>
<trkpt lat="35.243438720703125" lon="-118.043212890625">
<ele>662</ele>
<time>2016-10-07T01:08:09Z</time>
</trkpt>
<trkpt lat="35.245235443115234" lon="-118.04254913330078">
<ele>671</ele>
<time>2016-10-07T01:08:15Z</time>
</trkpt>
<trkpt lat="35.24701690673828" lon="-118.04190826416016">
<ele>654</ele>
<time>2016-10-07T01:08:21Z</time>
</trkpt>
<trkpt lat="35.24878692626953" lon="-118.041259765625">
<ele>650</ele>
<time>2016-10-07T01:08:27Z</time>
</trkpt>
<trkpt lat="35.25058364868164" lon="-118.04058074951172">
<ele>645</ele>
<time>2016-10-07T01:08:33Z</time>
</trkpt>
<trkpt lat="35.25237274169922" lon="-118.0399398803711">
<ele>638</ele>
<time>2016-10-07T01:08:39Z</time>
</trkpt>
<trkpt lat="35.254154205322266" lon="-118.03929901123047">
<ele>638</ele>
<time>2016-10-07T01:08:45Z</time>
</trkpt>
<trkpt lat="35.255950927734375" lon="-118.03863525390625">
<ele>634</ele>
<time>2016-10-07T01:08:51Z</time>
</trkpt>
<trkpt lat="35.25773620605469" lon="-118.0379638671875">
<ele>629</ele>
<time>2016-10-07T01:08:57Z</time>
</trkpt>
<trkpt lat="35.259521484375" lon="-118.03730773925781">
<ele>625</ele>
<time>2016-10-07T01:09:03Z</time>
</trkpt>
<trkpt lat="35.26131057739258" lon="-118.03665161132813">
<ele>622</ele>
<time>2016-10-07T01:09:09Z</time>
</trkpt>
<trkpt lat="35.26310729980469" lon="-118.03600311279297">
<ele>621</ele>
<time>2016-10-07T01:09:15Z</time>
</trkpt>
<trkpt lat="35.26487731933594" lon="-118.03535461425781">
<ele>619</ele>
<time>2016-10-07T01:09:21Z</time>
</trkpt>
<trkpt lat="35.26665496826172" lon="-118.0346908569336">
<ele>617</ele>
<time>2016-10-07T01:09:27Z</time>
</trkpt>
<trkpt lat="35.268436431884766" lon="-118.03399658203125">
<ele>614</ele>
<time>2016-10-07T01:09:33Z</time>
</trkpt>
<trkpt lat="35.270103454589844" lon="-118.0330581665039">
<ele>612</ele>
<time>2016-10-07T01:09:39Z</time>
</trkpt>
<trkpt lat="35.271690368652344" lon="-118.0318374633789">
<ele>608</ele>
<time>2016-10-07T01:09:45Z</time>
</trkpt>
<trkpt lat="35.27313995361328" lon="-118.03044128417969">
<ele>609</ele>
<time>2016-10-07T01:09:51Z</time>
</trkpt>
<trkpt lat="35.27460861206055" lon="-118.0290756225586">
<ele>613</ele>
<time>2016-10-07T01:09:57Z</time>
</trkpt>
<trkpt lat="35.27605438232422" lon="-118.0276870727539">
<ele>613</ele>
<time>2016-10-07T01:10:03Z</time>
</trkpt>
<trkpt lat="35.27753829956055" lon="-118.02629089355469">
<ele>616</ele>
<time>2016-10-07T01:10:09Z</time>
</trkpt>
<trkpt lat="35.279014587402344" lon="-118.02490997314453">
<ele>617</ele>
<time>2016-10-07T01:10:15Z</time>
</trkpt>
<trkpt lat="35.280494689941406" lon="-118.02349853515625">
<ele>611</ele>
<time>2016-10-07T01:10:21Z</time>
</trkpt>
<trkpt lat="35.281982421875" lon="-118.0221176147461">
<ele>610</ele>
<time>2016-10-07T01:10:27Z</time>
</trkpt>
<trkpt lat="35.28345489501953" lon="-118.02072143554688">
<ele>607</ele>
<time>2016-10-07T01:10:33Z</time>
</trkpt>
<trkpt lat="35.28485107421875" lon="-118.01911926269531">
<ele>600</ele>
<time>2016-10-07T01:10:39Z</time>
</trkpt>
<trkpt lat="35.28618240356445" lon="-118.01750183105469">
<ele>595</ele>
<time>2016-10-07T01:10:45Z</time>
</trkpt>
<trkpt lat="35.287513732910156" lon="-118.01591491699219">
<ele>596</ele>
<time>2016-10-07T01:10:51Z</time>
</trkpt>
<trkpt lat="35.288795471191406" lon="-118.01427459716797">
<ele>601</ele>
<time>2016-10-07T01:10:57Z</time>
</trkpt>
<trkpt lat="35.29005813598633" lon="-118.01268005371094">
<ele>603</ele>
<time>2016-10-07T01:11:03Z</time>
</trkpt>
<trkpt lat="35.291351318359375" lon="-118.0111083984375">
<ele>605</ele>
<time>2016-10-07T01:11:09Z</time>
</trkpt>
<trkpt lat="35.29261016845703" lon="-118.00957489013672">
<ele>609</ele>
<time>2016-10-07T01:11:15Z</time>
</trkpt>
<trkpt lat="35.29391860961914" lon="-118.00798034667969">
<ele>613</ele>
<time>2016-10-07T01:11:21Z</time>
</trkpt>
<trkpt lat="35.295257568359375" lon="-118.00638580322266">
<ele>614</ele>
<time>2016-10-07T01:11:27Z</time>
</trkpt>
<trkpt lat="35.29661560058594" lon="-118.0047836303711">
<ele>616</ele>
<time>2016-10-07T01:11:33Z</time>
</trkpt>
<trkpt lat="35.297977447509766" lon="-118.003173828125">
<ele>619</ele>
<time>2016-10-07T01:11:39Z</time>
</trkpt>
<trkpt lat="35.29934310913086" lon="-118.0015640258789">
<ele>619</ele>
<time>2016-10-07T01:11:45Z</time>
</trkpt>
<trkpt lat="35.30064010620117" lon="-117.99996185302734">
<ele>616</ele>
<time>2016-10-07T01:11:51Z</time>
</trkpt>
<trkpt lat="35.301963806152344" lon="-117.99835968017578">
<ele>609</ele>
<time>2016-10-07T01:11:57Z</time>
</trkpt>
<trkpt lat="35.303287506103516" lon="-117.99674987792969">
<ele>604</ele>
<time>2016-10-07T01:12:03Z</time>
</trkpt>
<trkpt lat="35.304595947265625" lon="-117.99519348144531">
<ele>604</ele>
<time>2016-10-07T01:12:09Z</time>
</trkpt>
<trkpt lat="35.3058967590332" lon="-117.99363708496094">
<ele>608</ele>
<time>2016-10-07T01:12:15Z</time>
</trkpt>
<trkpt lat="35.30717468261719" lon="-117.99209594726563">
<ele>614</ele>
<time>2016-10-07T01:12:21Z</time>
</trkpt>
<trkpt lat="35.3084716796875" lon="-117.99058532714844">
<ele>617</ele>
<time>2016-10-07T01:12:27Z</time>
</trkpt>
<trkpt lat="35.309814453125" lon="-117.98921966552734">
<ele>619</ele>
<time>2016-10-07T01:12:33Z</time>
</trkpt>
<trkpt lat="35.310997009277344" lon="-117.98802185058594">
<ele>620</ele>
<time>2016-10-07T01:12:39Z</time>
</trkpt>
<trkpt lat="35.31206512451172" lon="-117.98686218261719">
<ele>618</ele>
<time>2016-10-07T01:12:45Z</time>
</trkpt>
<trkpt lat="35.31271743774414" lon="-117.9854965209961">
<ele>615</ele>
<time>2016-10-07T01:12:51Z</time>
</trkpt>
<trkpt lat="35.31342697143555" lon="-117.9840316772461">
<ele>609</ele>
<time>2016-10-07T01:12:57Z</time>
</trkpt>
<trkpt lat="35.31414794921875" lon="-117.9825439453125">
<ele>609</ele>
<time>2016-10-07T01:13:03Z</time>
</trkpt>
<trkpt lat="35.31485366821289" lon="-117.98109436035156">
<ele>605</ele>
<time>2016-10-07T01:13:09Z</time>
</trkpt>
<trkpt lat="35.31557083129883" lon="-117.97968292236328">
<ele>609</ele>
<time>2016-10-07T01:13:15Z</time>
</trkpt>
<trkpt lat="35.31626510620117" lon="-117.97828674316406">
<ele>612</ele>
<time>2016-10-07T01:13:21Z</time>
</trkpt>
<trkpt lat="35.31695556640625" lon="-117.97694396972656">
<ele>608</ele>
<time>2016-10-07T01:13:27Z</time>
</trkpt>
<trkpt lat="35.3176383972168" lon="-117.97557830810547">
<ele>611</ele>
<time>2016-10-07T01:13:33Z</time>
</trkpt>
<trkpt lat="35.31831741333008" lon="-117.97417449951172">
<ele>614</ele>
<time>2016-10-07T01:13:39Z</time>
</trkpt>
<trkpt lat="35.31902313232422" lon="-117.9728775024414">
<ele>617</ele>
<time>2016-10-07T01:13:45Z</time>
</trkpt>
<trkpt lat="35.319923400878906" lon="-117.97160339355469">
<ele>612</ele>
<time>2016-10-07T01:13:51Z</time>
</trkpt>
<trkpt lat="35.320884704589844" lon="-117.97024536132813">
<ele>614</ele>
<time>2016-10-07T01:13:57Z</time>
</trkpt>
<trkpt lat="35.32178497314453" lon="-117.96894836425781">
<ele>613</ele>
<time>2016-10-07T01:14:03Z</time>
</trkpt>
<trkpt lat="35.322723388671875" lon="-117.96759033203125">
<ele>615</ele>
<time>2016-10-07T01:14:09Z</time>
</trkpt>
<trkpt lat="35.32358169555664" lon="-117.96638488769531">
<ele>619</ele>
<time>2016-10-07T01:14:15Z</time>
</trkpt>
<trkpt lat="35.32447814941406" lon="-117.96510314941406">
<ele>613</ele>
<time>2016-10-07T01:14:21Z</time>
</trkpt>
<trkpt lat="35.32538986206055" lon="-117.96376037597656">
<ele>609</ele>
<time>2016-10-07T01:14:27Z</time>
</trkpt>
<trkpt lat="35.32633590698242" lon="-117.96244049072266">
<ele>612</ele>
<time>2016-10-07T01:14:33Z</time>
</trkpt>
<trkpt lat="35.32726287841797" lon="-117.96109008789063">
<ele>611</ele>
<time>2016-10-07T01:14:39Z</time>
</trkpt>
<trkpt lat="35.32815933227539" lon="-117.95978546142578">
<ele>612</ele>
<time>2016-10-07T01:14:45Z</time>
</trkpt>
<trkpt lat="35.32905197143555" lon="-117.9585189819336">
<ele>613</ele>
<time>2016-10-07T01:14:51Z</time>
</trkpt>
<trkpt lat="35.32991409301758" lon="-117.95729064941406">
<ele>613</ele>
<time>2016-10-07T01:14:57Z</time>
</trkpt>
<trkpt lat="35.330780029296875" lon="-117.9560546875">
<ele>611</ele>
<time>2016-10-07T01:15:03Z</time>
</trkpt>
<trkpt lat="35.331661224365234" lon="-117.9548110961914">
<ele>612</ele>
<time>2016-10-07T01:15:09Z</time>
</trkpt>
<trkpt lat="35.33253479003906" lon="-117.95354461669922">
<ele>610</ele>
<time>2016-10-07T01:15:15Z</time>
</trkpt>
<trkpt lat="35.33339309692383" lon="-117.95225524902344">
<ele>608</ele>
<time>2016-10-07T01:15:21Z</time>
</trkpt>
<trkpt lat="35.33425521850586" lon="-117.95086669921875">
<ele>602</ele>
<time>2016-10-07T01:15:27Z</time>
</trkpt>
<trkpt lat="35.334999084472656" lon="-117.94940185546875">
<ele>600</ele>
<time>2016-10-07T01:15:33Z</time>
</trkpt>
<trkpt lat="35.33577346801758" lon="-117.94794464111328">
<ele>602</ele>
<time>2016-10-07T01:15:39Z</time>
</trkpt>
<trkpt lat="35.33650207519531" lon="-117.94654083251953">
<ele>596</ele>
<time>2016-10-07T01:15:45Z</time>
</trkpt>
<trkpt lat="35.33720779418945" lon="-117.94520568847656">
<ele>596</ele>
<time>2016-10-07T01:15:51Z</time>
</trkpt>
<trkpt lat="35.33795166015625" lon="-117.9437484741211">
<ele>590</ele>
<time>2016-10-07T01:15:57Z</time>
</trkpt>
<trkpt lat="35.33871078491211" lon="-117.94231414794922">
<ele>592</ele>
<time>2016-10-07T01:16:03Z</time>
</trkpt>
<trkpt lat="35.33948516845703" lon="-117.94086456298828">
<ele>589</ele>
<time>2016-10-07T01:16:09Z</time>
</trkpt>
<trkpt lat="35.340274810791016" lon="-117.93936920166016">
<ele>588</ele>
<time>2016-10-07T01:16:15Z</time>
</trkpt>
<trkpt lat="35.34107971191406" lon="-117.93781280517578">
<ele>584</ele>
<time>2016-10-07T01:16:21Z</time>
</trkpt>
<trkpt lat="35.34184265136719" lon="-117.93634033203125">
<ele>579</ele>
<time>2016-10-07T01:16:27Z</time>
</trkpt>
<trkpt lat="35.34260940551758" lon="-117.9348373413086">
<ele>578</ele>
<time>2016-10-07T01:16:33Z</time>
</trkpt>
<trkpt lat="35.34341812133789" lon="-117.93331146240234">
<ele>573</ele>
<time>2016-10-07T01:16:39Z</time>
</trkpt>
<trkpt lat="35.344242095947266" lon="-117.93171691894531">
<ele>567</ele>
<time>2016-10-07T01:16:45Z</time>
</trkpt>
<trkpt lat="35.34502410888672" lon="-117.93020629882813">
<ele>567</ele>
<time>2016-10-07T01:16:51Z</time>
</trkpt>
<trkpt lat="35.34581756591797" lon="-117.92870330810547">
<ele>562</ele>
<time>2016-10-07T01:16:57Z</time>
</trkpt>
<trkpt lat="35.346580505371094" lon="-117.92725372314453">
<ele>560</ele>
<time>2016-10-07T01:17:03Z</time>
</trkpt>
<trkpt lat="35.34735107421875" lon="-117.92576599121094">
<ele>554</ele>
<time>2016-10-07T01:17:09Z</time>
</trkpt>
<trkpt lat="35.34812927246094" lon="-117.92431640625">
<ele>549</ele>
<time>2016-10-07T01:17:15Z</time>
</trkpt>
<trkpt lat="35.34890365600586" lon="-117.9228744506836">
<ele>545</ele>
<time>2016-10-07T01:17:21Z</time>
</trkpt>
<trkpt lat="35.34968185424805" lon="-117.9214096069336">
<ele>541</ele>
<time>2016-10-07T01:17:27Z</time>
</trkpt>
<trkpt lat="35.35041427612305" lon="-117.91996765136719">
<ele>544</ele>
<time>2016-10-07T01:17:33Z</time>
</trkpt>
<trkpt lat="35.35123062133789" lon="-117.9184341430664">
<ele>549</ele>
<time>2016-10-07T01:17:39Z</time>
</trkpt>
<trkpt lat="35.352210998535156" lon="-117.91658020019531">
<ele>553</ele>
<time>2016-10-07T01:17:45Z</time>
</trkpt>
<trkpt lat="35.353267669677734" lon="-117.91454315185547">
<ele>556</ele>
<time>2016-10-07T01:17:51Z</time>
</trkpt>
<trkpt lat="35.35429000854492" lon="-117.9125747680664">
<ele>559</ele>
<time>2016-10-07T01:17:57Z</time>
</trkpt>
<trkpt lat="35.355224609375" lon="-117.91071319580078">
<ele>564</ele>
<time>2016-10-07T01:18:03Z</time>
</trkpt>
<trkpt lat="35.35618209838867" lon="-117.90887451171875">
<ele>565</ele>
<time>2016-10-07T01:18:09Z</time>
</trkpt>
<trkpt lat="35.3571662902832" lon="-117.90703582763672">
<ele>564</ele>
<time>2016-10-07T01:18:15Z</time>
</trkpt>
<trkpt lat="35.35813903808594" lon="-117.90520477294922">
<ele>565</ele>
<time>2016-10-07T01:18:21Z</time>
</trkpt>
<trkpt lat="35.35908508300781" lon="-117.90337371826172">
<ele>564</ele>
<time>2016-10-07T01:18:27Z</time>
</trkpt>
<trkpt lat="35.360050201416016" lon="-117.90150451660156">
<ele>567</ele>
<time>2016-10-07T01:18:33Z</time>
</trkpt>
<trkpt lat="35.36103439331055" lon="-117.89965057373047">
<ele>592</ele>
<time>2016-10-07T01:18:39Z</time>
</trkpt>
<trkpt lat="35.36197280883789" lon="-117.89783477783203">
<ele>572</ele>
<time>2016-10-07T01:18:45Z</time>
</trkpt>
<trkpt lat="35.362911224365234" lon="-117.89600372314453">
<ele>565</ele>
<time>2016-10-07T01:18:51Z</time>
</trkpt>
<trkpt lat="35.36389923095703" lon="-117.89411926269531">
<ele>562</ele>
<time>2016-10-07T01:18:57Z</time>
</trkpt>
<trkpt lat="35.3648681640625" lon="-117.89224243164063">
<ele>559</ele>
<time>2016-10-07T01:19:03Z</time>
</trkpt>
<trkpt lat="35.365875244140625" lon="-117.8903579711914">
<ele>555</ele>
<time>2016-10-07T01:19:09Z</time>
</trkpt>
<trkpt lat="35.366859436035156" lon="-117.8884506225586">
<ele>551</ele>
<time>2016-10-07T01:19:15Z</time>
</trkpt>
<trkpt lat="35.36783218383789" lon="-117.8865737915039">
<ele>548</ele>
<time>2016-10-07T01:19:21Z</time>
</trkpt>
<trkpt lat="35.368797302246094" lon="-117.88473510742188">
<ele>545</ele>
<time>2016-10-07T01:19:27Z</time>
</trkpt>
<trkpt lat="35.36978530883789" lon="-117.88289642333984">
<ele>545</ele>
<time>2016-10-07T01:19:33Z</time>
</trkpt>
<trkpt lat="35.37074661254883" lon="-117.88105773925781">
<ele>546</ele>
<time>2016-10-07T01:19:39Z</time>
</trkpt>
<trkpt lat="35.37169647216797" lon="-117.87920379638672">
<ele>550</ele>
<time>2016-10-07T01:19:45Z</time>
</trkpt>
<trkpt lat="35.37260437011719" lon="-117.87738037109375">
<ele>554</ele>
<time>2016-10-07T01:19:51Z</time>
</trkpt>
<trkpt lat="35.37356185913086" lon="-117.87557220458984">
<ele>556</ele>
<time>2016-10-07T01:19:57Z</time>
</trkpt>
<trkpt lat="35.37453842163086" lon="-117.87374877929688">
<ele>554</ele>
<time>2016-10-07T01:20:03Z</time>
</trkpt>
<trkpt lat="35.375404357910156" lon="-117.87179565429688">
<ele>552</ele>
<time>2016-10-07T01:20:09Z</time>
</trkpt>
<trkpt lat="35.376075744628906" lon="-117.86973571777344">
<ele>555</ele>
<time>2016-10-07T01:20:15Z</time>
</trkpt>
<trkpt lat="35.37657928466797" lon="-117.8676528930664">
<ele>563</ele>
<time>2016-10-07T01:20:21Z</time>
</trkpt>
<trkpt lat="35.37708282470703" lon="-117.86563873291016">
<ele>564</ele>
<time>2016-10-07T01:20:27Z</time>
</trkpt>
<trkpt lat="35.37754821777344" lon="-117.86357116699219">
<ele>567</ele>
<time>2016-10-07T01:20:33Z</time>
</trkpt>
<trkpt lat="35.3780517578125" lon="-117.8614501953125">
<ele>567</ele>
<time>2016-10-07T01:20:39Z</time>
</trkpt>
<trkpt lat="35.378536224365234" lon="-117.85932159423828">
<ele>564</ele>
<time>2016-10-07T01:20:45Z</time>
</trkpt>
<trkpt lat="35.379032135009766" lon="-117.857177734375">
<ele>560</ele>
<time>2016-10-07T01:20:51Z</time>
</trkpt>
<trkpt lat="35.379520416259766" lon="-117.85509490966797">
<ele>561</ele>
<time>2016-10-07T01:20:57Z</time>
</trkpt>
<trkpt lat="35.380027770996094" lon="-117.85296630859375">
<ele>563</ele>
<time>2016-10-07T01:21:03Z</time>
</trkpt>
<trkpt lat="35.38053512573242" lon="-117.8508529663086">
<ele>565</ele>
<time>2016-10-07T01:21:09Z</time>
</trkpt>
<trkpt lat="35.38102722167969" lon="-117.84871673583984">
<ele>570</ele>
<time>2016-10-07T01:21:15Z</time>
</trkpt>
<trkpt lat="35.38151931762695" lon="-117.84659576416016">
<ele>573</ele>
<time>2016-10-07T01:21:21Z</time>
</trkpt>
<trkpt lat="35.382015228271484" lon="-117.84445190429688">
<ele>570</ele>
<time>2016-10-07T01:21:27Z</time>
</trkpt>
<trkpt lat="35.382537841796875" lon="-117.84229278564453">
<ele>562</ele>
<time>2016-10-07T01:21:33Z</time>
</trkpt>
<trkpt lat="35.383026123046875" lon="-117.84017181396484">
<ele>561</ele>
<time>2016-10-07T01:21:39Z</time>
</trkpt>
<trkpt lat="35.3835334777832" lon="-117.83805084228516">
<ele>560</ele>
<time>2016-10-07T01:21:45Z</time>
</trkpt>
<trkpt lat="35.38401412963867" lon="-117.83592987060547">
<ele>564</ele>
<time>2016-10-07T01:21:51Z</time>
</trkpt>
<trkpt lat="35.384517669677734" lon="-117.83380126953125">
<ele>566</ele>
<time>2016-10-07T01:21:57Z</time>
</trkpt>
<trkpt lat="35.38499450683594" lon="-117.83177947998047">
<ele>568</ele>
<time>2016-10-07T01:22:03Z</time>
</trkpt>
<trkpt lat="35.38551330566406" lon="-117.8296890258789">
<ele>566</ele>
<time>2016-10-07T01:22:09Z</time>
</trkpt>
<trkpt lat="35.385986328125" lon="-117.82759094238281">
<ele>570</ele>
<time>2016-10-07T01:22:15Z</time>
</trkpt>
<trkpt lat="35.38649368286133" lon="-117.82546997070313">
<ele>574</ele>
<time>2016-10-07T01:22:21Z</time>
</trkpt>
<trkpt lat="35.38699722290039" lon="-117.8233871459961">
<ele>572</ele>
<time>2016-10-07T01:22:27Z</time>
</trkpt>
<trkpt lat="35.38749313354492" lon="-117.82129669189453">
<ele>576</ele>
<time>2016-10-07T01:22:33Z</time>
</trkpt>
<trkpt lat="35.38801574707031" lon="-117.81918334960938">
<ele>583</ele>
<time>2016-10-07T01:22:39Z</time>
</trkpt>
<trkpt lat="35.38847732543945" lon="-117.81706237792969">
<ele>592</ele>
<time>2016-10-07T01:22:45Z</time>
</trkpt>
<trkpt lat="35.38895797729492" lon="-117.81497192382813">
<ele>595</ele>
<time>2016-10-07T01:22:51Z</time>
</trkpt>
<trkpt lat="35.38946533203125" lon="-117.81295013427734">
<ele>598</ele>
<time>2016-10-07T01:22:57Z</time>
</trkpt>
<trkpt lat="35.389915466308594" lon="-117.81099700927734">
<ele>603</ele>
<time>2016-10-07T01:23:03Z</time>
</trkpt>
<trkpt lat="35.3903694152832" lon="-117.80904388427734">
<ele>608</ele>
<time>2016-10-07T01:23:09Z</time>
</trkpt>
<trkpt lat="35.390804290771484" lon="-117.80704498291016">
<ele>615</ele>
<time>2016-10-07T01:23:15Z</time>
</trkpt>
<trkpt lat="35.39128875732422" lon="-117.80506134033203">
<ele>613</ele>
<time>2016-10-07T01:23:21Z</time>
</trkpt>
<trkpt lat="35.391761779785156" lon="-117.80303955078125">
<ele>607</ele>
<time>2016-10-07T01:23:27Z</time>
</trkpt>
<trkpt lat="35.392208099365234" lon="-117.80107879638672">
<ele>608</ele>
<time>2016-10-07T01:23:33Z</time>
</trkpt>
<trkpt lat="35.39265441894531" lon="-117.79923248291016">
<ele>606</ele>
<time>2016-10-07T01:23:39Z</time>
</trkpt>
<trkpt lat="35.39304733276367" lon="-117.79752349853516">
<ele>610</ele>
<time>2016-10-07T01:23:45Z</time>
</trkpt>
<trkpt lat="35.393821716308594" lon="-117.79612731933594">
<ele>611</ele>
<time>2016-10-07T01:23:51Z</time>
</trkpt>
<trkpt lat="35.39502716064453" lon="-117.79493713378906">
<ele>611</ele>
<time>2016-10-07T01:23:57Z</time>
</trkpt>
<trkpt lat="35.39640426635742" lon="-117.79369354248047">
<ele>607</ele>
<time>2016-10-07T01:24:03Z</time>
</trkpt>
<trkpt lat="35.397796630859375" lon="-117.79244232177734">
<ele>610</ele>
<time>2016-10-07T01:24:09Z</time>
</trkpt>
<trkpt lat="35.39933776855469" lon="-117.79141998291016">
<ele>610</ele>
<time>2016-10-07T01:24:15Z</time>
</trkpt>
<trkpt lat="35.40094757080078" lon="-117.790771484375">
<ele>614</ele>
<time>2016-10-07T01:24:21Z</time>
</trkpt>
<trkpt lat="35.402496337890625" lon="-117.79032135009766">
<ele>613</ele>
<time>2016-10-07T01:24:27Z</time>
</trkpt>
<trkpt lat="35.403987884521484" lon="-117.7896728515625">
<ele>617</ele>
<time>2016-10-07T01:24:33Z</time>
</trkpt>
<trkpt lat="35.405296325683594" lon="-117.78850555419922">
<ele>618</ele>
<time>2016-10-07T01:24:39Z</time>
</trkpt>
<trkpt lat="35.406551361083984" lon="-117.78723907470703">
<ele>624</ele>
<time>2016-10-07T01:24:45Z</time>
</trkpt>
<trkpt lat="35.407779693603516" lon="-117.78610229492188">
<ele>626</ele>
<time>2016-10-07T01:24:51Z</time>
</trkpt>
<trkpt lat="35.40922164916992" lon="-117.78546905517578">
<ele>628</ele>
<time>2016-10-07T01:24:57Z</time>
</trkpt>
<trkpt lat="35.4105224609375" lon="-117.78469848632813">
<ele>628</ele>
<time>2016-10-07T01:25:03Z</time>
</trkpt>
<trkpt lat="35.41127014160156" lon="-117.7833480834961">
<ele>626</ele>
<time>2016-10-07T01:25:09Z</time>
</trkpt>
<trkpt lat="35.41166687011719" lon="-117.78162384033203">
<ele>631</ele>
<time>2016-10-07T01:25:15Z</time>
</trkpt>
<trkpt lat="35.412200927734375" lon="-117.77976989746094">
<ele>634</ele>
<time>2016-10-07T01:25:21Z</time>
</trkpt>
<trkpt lat="35.41280746459961" lon="-117.7780532836914">
<ele>640</ele>
<time>2016-10-07T01:25:27Z</time>
</trkpt>
<trkpt lat="35.41352844238281" lon="-117.77679443359375">
<ele>641</ele>
<time>2016-10-07T01:25:33Z</time>
</trkpt>
<trkpt lat="35.41480255126953" lon="-117.7759780883789">
<ele>641</ele>
<time>2016-10-07T01:25:39Z</time>
</trkpt>
<trkpt lat="35.41594696044922" lon="-117.77505493164063">
<ele>645</ele>
<time>2016-10-07T01:25:45Z</time>
</trkpt>
<trkpt lat="35.41658020019531" lon="-117.77340698242188">
<ele>648</ele>
<time>2016-10-07T01:25:51Z</time>
</trkpt>
<trkpt lat="35.416748046875" lon="-117.77146911621094">
<ele>654</ele>
<time>2016-10-07T01:25:57Z</time>
</trkpt>
<trkpt lat="35.4169807434082" lon="-117.76946258544922">
<ele>660</ele>
<time>2016-10-07T01:26:03Z</time>
</trkpt>
<trkpt lat="35.4174919128418" lon="-117.76749420166016">
<ele>668</ele>
<time>2016-10-07T01:26:09Z</time>
</trkpt>
<trkpt lat="35.41793441772461" lon="-117.76560974121094">
<ele>670</ele>
<time>2016-10-07T01:26:15Z</time>
</trkpt>
<trkpt lat="35.41843795776367" lon="-117.7640151977539">
<ele>677</ele>
<time>2016-10-07T01:26:21Z</time>
</trkpt>
<trkpt lat="35.41883850097656" lon="-117.76261138916016">
<ele>677</ele>
<time>2016-10-07T01:26:27Z</time>
</trkpt>
<trkpt lat="35.41853332519531" lon="-117.7610855102539">
<ele>682</ele>
<time>2016-10-07T01:26:33Z</time>
</trkpt>
<trkpt lat="35.418251037597656" lon="-117.75933837890625">
<ele>683</ele>
<time>2016-10-07T01:26:39Z</time>
</trkpt>
<trkpt lat="35.41812515258789" lon="-117.75741577148438">
<ele>684</ele>
<time>2016-10-07T01:26:45Z</time>
</trkpt>
<trkpt lat="35.41817092895508" lon="-117.75546264648438">
<ele>692</ele>
<time>2016-10-07T01:26:51Z</time>
</trkpt>
<trkpt lat="35.418331146240234" lon="-117.75350189208984">
<ele>696</ele>
<time>2016-10-07T01:26:57Z</time>
</trkpt>
<trkpt lat="35.41851806640625" lon="-117.7515640258789">
<ele>700</ele>
<time>2016-10-07T01:27:03Z</time>
</trkpt>
<trkpt lat="35.41885757446289" lon="-117.7496109008789">
<ele>698</ele>
<time>2016-10-07T01:27:09Z</time>
</trkpt>
<trkpt lat="35.41927719116211" lon="-117.74762725830078">
<ele>705</ele>
<time>2016-10-07T01:27:15Z</time>
</trkpt>
<trkpt lat="35.41973114013672" lon="-117.7456283569336">
<ele>710</ele>
<time>2016-10-07T01:27:21Z</time>
</trkpt>
<trkpt lat="35.42017364501953" lon="-117.74364471435547">
<ele>709</ele>
<time>2016-10-07T01:27:27Z</time>
</trkpt>
<trkpt lat="35.420616149902344" lon="-117.74163055419922">
<ele>711</ele>
<time>2016-10-07T01:27:33Z</time>
</trkpt>
<trkpt lat="35.42105484008789" lon="-117.7396469116211">
<ele>716</ele>
<time>2016-10-07T01:27:39Z</time>
</trkpt>
<trkpt lat="35.42150115966797" lon="-117.73760223388672">
<ele>719</ele>
<time>2016-10-07T01:27:45Z</time>
</trkpt>
<trkpt lat="35.42192840576172" lon="-117.73554992675781">
<ele>719</ele>
<time>2016-10-07T01:27:51Z</time>
</trkpt>
<trkpt lat="35.42236328125" lon="-117.73352813720703">
<ele>721</ele>
<time>2016-10-07T01:27:57Z</time>
</trkpt>
<trkpt lat="35.42282485961914" lon="-117.73160552978516">
<ele>720</ele>
<time>2016-10-07T01:28:03Z</time>
</trkpt>
<trkpt lat="35.42362976074219" lon="-117.72986602783203">
<ele>720</ele>
<time>2016-10-07T01:28:09Z</time>
</trkpt>
<trkpt lat="35.42454147338867" lon="-117.72814178466797">
<ele>725</ele>
<time>2016-10-07T01:28:15Z</time>
</trkpt>
<trkpt lat="35.42543029785156" lon="-117.7264633178711">
<ele>730</ele>
<time>2016-10-07T01:28:21Z</time>
</trkpt>
<trkpt lat="35.42617416381836" lon="-117.72466278076172">
<ele>734</ele>
<time>2016-10-07T01:28:27Z</time>
</trkpt>
<trkpt lat="35.426578521728516" lon="-117.72273254394531">
<ele>739</ele>
<time>2016-10-07T01:28:33Z</time>
</trkpt>
<trkpt lat="35.426692962646484" lon="-117.720703125">
<ele>743</ele>
<time>2016-10-07T01:28:39Z</time>
</trkpt>
<trkpt lat="35.426639556884766" lon="-117.71858215332031">
<ele>749</ele>
<time>2016-10-07T01:28:45Z</time>
</trkpt>
<trkpt lat="35.42660140991211" lon="-117.71646118164063">
<ele>755</ele>
<time>2016-10-07T01:28:51Z</time>
</trkpt>
<trkpt lat="35.426578521728516" lon="-117.71430969238281">
<ele>758</ele>
<time>2016-10-07T01:28:57Z</time>
</trkpt>
<trkpt lat="35.426551818847656" lon="-117.71211242675781">
<ele>759</ele>
<time>2016-10-07T01:29:03Z</time>
</trkpt>
<trkpt lat="35.42652130126953" lon="-117.70991516113281">
<ele>760</ele>
<time>2016-10-07T01:29:09Z</time>
</trkpt>
<trkpt lat="35.42649841308594" lon="-117.70774841308594">
<ele>762</ele>
<time>2016-10-07T01:29:15Z</time>
</trkpt>
<trkpt lat="35.42645263671875" lon="-117.7055892944336">
<ele>765</ele>
<time>2016-10-07T01:29:21Z</time>
</trkpt>
<trkpt lat="35.42640686035156" lon="-117.70346069335938">
<ele>767</ele>
<time>2016-10-07T01:29:27Z</time>
</trkpt>
<trkpt lat="35.42638397216797" lon="-117.70134735107422">
<ele>770</ele>
<time>2016-10-07T01:29:33Z</time>
</trkpt>
<trkpt lat="35.42631912231445" lon="-117.69920349121094">
<ele>777</ele>
<time>2016-10-07T01:29:39Z</time>
</trkpt>
<trkpt lat="35.42615509033203" lon="-117.69715118408203">
<ele>780</ele>
<time>2016-10-07T01:29:45Z</time>
</trkpt>
<trkpt lat="35.425960540771484" lon="-117.69506072998047">
<ele>786</ele>
<time>2016-10-07T01:29:51Z</time>
</trkpt>
<trkpt lat="35.425785064697266" lon="-117.69293975830078">
<ele>794</ele>
<time>2016-10-07T01:29:57Z</time>
</trkpt>
<trkpt lat="35.42572021484375" lon="-117.69086456298828">
<ele>801</ele>
<time>2016-10-07T01:30:03Z</time>
</trkpt>
<trkpt lat="35.42574691772461" lon="-117.68878173828125">
<ele>803</ele>
<time>2016-10-07T01:30:09Z</time>
</trkpt>
<trkpt lat="35.42585754394531" lon="-117.6868896484375">
<ele>810</ele>
<time>2016-10-07T01:30:15Z</time>
</trkpt>
<trkpt lat="35.426422119140625" lon="-117.68518829345703">
<ele>784</ele>
<time>2016-10-07T01:30:21Z</time>
</trkpt>
<trkpt lat="35.42711639404297" lon="-117.6834716796875">
<ele>812</ele>
<time>2016-10-07T01:30:27Z</time>
</trkpt>
<trkpt lat="35.4278450012207" lon="-117.68182373046875">
<ele>817</ele>
<time>2016-10-07T01:30:33Z</time>
</trkpt>
<trkpt lat="35.42875671386719" lon="-117.68045043945313">
<ele>828</ele>
<time>2016-10-07T01:30:39Z</time>
</trkpt>
<trkpt lat="35.42997360229492" lon="-117.67942810058594">
<ele>835</ele>
<time>2016-10-07T01:30:45Z</time>
</trkpt>
<trkpt lat="35.43122863769531" lon="-117.67863464355469">
<ele>840</ele>
<time>2016-10-07T01:30:51Z</time>
</trkpt>
<trkpt lat="35.43197250366211" lon="-117.67750549316406">
<ele>846</ele>
<time>2016-10-07T01:30:57Z</time>
</trkpt>
<trkpt lat="35.43234634399414" lon="-117.67597198486328">
<ele>850</ele>
<time>2016-10-07T01:31:03Z</time>
</trkpt>
<trkpt lat="35.43256759643555" lon="-117.6744155883789">
<ele>857</ele>
<time>2016-10-07T01:31:09Z</time>
</trkpt>
<trkpt lat="35.43302917480469" lon="-117.67301940917969">
<ele>858</ele>
<time>2016-10-07T01:31:15Z</time>
</trkpt>
<trkpt lat="35.43337631225586" lon="-117.672119140625">
<ele>861</ele>
<time>2016-10-07T01:31:21Z</time>
</trkpt>
<trkpt lat="35.43336486816406" lon="-117.6717529296875">
<ele>818</ele>
<time>2016-10-07T01:31:27Z</time>
</trkpt>
<trkpt lat="35.43382263183594" lon="-117.6715316772461">
<ele>695</ele>
<time>2016-10-07T01:31:33Z</time>
</trkpt>
<trkpt lat="35.434814453125" lon="-117.67124938964844">
<ele>837</ele>
<time>2016-10-07T01:31:39Z</time>
</trkpt>
<trkpt lat="35.43599319458008" lon="-117.67062377929688">
<ele>872</ele>
<time>2016-10-07T01:31:45Z</time>
</trkpt>
<trkpt lat="35.43727111816406" lon="-117.66959381103516">
<ele>886</ele>
<time>2016-10-07T01:31:51Z</time>
</trkpt>
<trkpt lat="35.438568115234375" lon="-117.66838836669922">
<ele>897</ele>
<time>2016-10-07T01:31:57Z</time>
</trkpt>
<trkpt lat="35.439945220947266" lon="-117.6671142578125">
<ele>859</ele>
<time>2016-10-07T01:32:03Z</time>
</trkpt>
<trkpt lat="35.44129943847656" lon="-117.66580200195313">
<ele>910</ele>
<time>2016-10-07T01:32:09Z</time>
</trkpt>
<trkpt lat="35.44261932373047" lon="-117.66453552246094">
<ele>931</ele>
<time>2016-10-07T01:32:15Z</time>
</trkpt>
<trkpt lat="35.4439697265625" lon="-117.6633071899414">
<ele>943</ele>
<time>2016-10-07T01:32:21Z</time>
</trkpt>
<trkpt lat="35.445289611816406" lon="-117.66206359863281">
<ele>951</ele>
<time>2016-10-07T01:32:27Z</time>
</trkpt>
<trkpt lat="35.44667434692383" lon="-117.66077423095703">
<ele>959</ele>
<time>2016-10-07T01:32:33Z</time>
</trkpt>
<trkpt lat="35.44806671142578" lon="-117.65946197509766">
<ele>901</ele>
<time>2016-10-07T01:32:39Z</time>
</trkpt>
<trkpt lat="35.449459075927734" lon="-117.65814971923828">
<ele>954</ele>
<time>2016-10-07T01:32:45Z</time>
</trkpt>
<trkpt lat="35.450748443603516" lon="-117.65684509277344">
<ele>978</ele>
<time>2016-10-07T01:32:51Z</time>
</trkpt>
<trkpt lat="35.451847076416016" lon="-117.65540313720703">
<ele>993</ele>
<time>2016-10-07T01:32:57Z</time>
</trkpt>
<trkpt lat="35.453250885009766" lon="-117.65438842773438">
<ele>998</ele>
<time>2016-10-07T01:33:03Z</time>
</trkpt>
<trkpt lat="35.45498275756836" lon="-117.65424346923828">
<ele>909</ele>
<time>2016-10-07T01:33:09Z</time>
</trkpt>
<trkpt lat="35.456790924072266" lon="-117.65461730957031">
<ele>996</ele>
<time>2016-10-07T01:33:15Z</time>
</trkpt>
<trkpt lat="35.458614349365234" lon="-117.6550064086914">
<ele>1000</ele>
<time>2016-10-07T01:33:21Z</time>
</trkpt>
<trkpt lat="35.46042251586914" lon="-117.6553726196289">
<ele>1018</ele>
<time>2016-10-07T01:33:27Z</time>
</trkpt>
<trkpt lat="35.46220016479492" lon="-117.65524291992188">
<ele>1027</ele>
<time>2016-10-07T01:33:33Z</time>
</trkpt>
<trkpt lat="35.46401596069336" lon="-117.65501403808594">
<ele>1031</ele>
<time>2016-10-07T01:33:39Z</time>
</trkpt>
<trkpt lat="35.465782165527344" lon="-117.6548080444336">
<ele>1032</ele>
<time>2016-10-07T01:33:45Z</time>
</trkpt>
<trkpt lat="35.46763229370117" lon="-117.65458679199219">
<ele>1033</ele>
<time>2016-10-07T01:33:51Z</time>
</trkpt>
<trkpt lat="35.4694709777832" lon="-117.65438079833984">
<ele>1033</ele>
<time>2016-10-07T01:33:57Z</time>
</trkpt>
<trkpt lat="35.471282958984375" lon="-117.65418243408203">
<ele>1032</ele>
<time>2016-10-07T01:34:03Z</time>
</trkpt>
<trkpt lat="35.47311782836914" lon="-117.65399169921875">
<ele>1028</ele>
<time>2016-10-07T01:34:09Z</time>
</trkpt>
<trkpt lat="35.474945068359375" lon="-117.65377807617188">
<ele>1026</ele>
<time>2016-10-07T01:34:15Z</time>
</trkpt>
<trkpt lat="35.476768493652344" lon="-117.65357971191406">
<ele>1022</ele>
<time>2016-10-07T01:34:21Z</time>
</trkpt>
<trkpt lat="35.47858428955078" lon="-117.65399169921875">
<ele>1011</ele>
<time>2016-10-07T01:34:27Z</time>
</trkpt>
<trkpt lat="35.48029327392578" lon="-117.65480041503906">
<ele>1004</ele>
<time>2016-10-07T01:34:33Z</time>
</trkpt>
<trkpt lat="35.48199462890625" lon="-117.65560913085938">
<ele>997</ele>
<time>2016-10-07T01:34:39Z</time>
</trkpt>
<trkpt lat="35.483707427978516" lon="-117.6563949584961">
<ele>994</ele>
<time>2016-10-07T01:34:45Z</time>
</trkpt>
<trkpt lat="35.48542404174805" lon="-117.65718078613281">
<ele>988</ele>
<time>2016-10-07T01:34:51Z</time>
</trkpt>
<trkpt lat="35.48713302612305" lon="-117.65799713134766">
<ele>995</ele>
<time>2016-10-07T01:34:57Z</time>
</trkpt>
<trkpt lat="35.48884201049805" lon="-117.65880584716797">
<ele>992</ele>
<time>2016-10-07T01:35:03Z</time>
</trkpt>
<trkpt lat="35.49053192138672" lon="-117.65958404541016">
<ele>1012</ele>
<time>2016-10-07T01:35:09Z</time>
</trkpt>
<trkpt lat="35.492271423339844" lon="-117.66036987304688">
<ele>980</ele>
<time>2016-10-07T01:35:15Z</time>
</trkpt>
<trkpt lat="35.49399948120117" lon="-117.66116333007813">
<ele>984</ele>
<time>2016-10-07T01:35:21Z</time>
</trkpt>
<trkpt lat="35.49570846557617" lon="-117.66195678710938">
<ele>975</ele>
<time>2016-10-07T01:35:27Z</time>
</trkpt>
<trkpt lat="35.497440338134766" lon="-117.66277313232422">
<ele>1008</ele>
<time>2016-10-07T01:35:33Z</time>
</trkpt>
<trkpt lat="35.4991569519043" lon="-117.6635513305664">
<ele>997</ele>
<time>2016-10-07T01:35:39Z</time>
</trkpt>
<trkpt lat="35.50088119506836" lon="-117.66434478759766">
<ele>972</ele>
<time>2016-10-07T01:35:45Z</time>
</trkpt>
<trkpt lat="35.5025634765625" lon="-117.66510009765625">
<ele>968</ele>
<time>2016-10-07T01:35:51Z</time>
</trkpt>
<trkpt lat="35.504241943359375" lon="-117.66590118408203">
<ele>959</ele>
<time>2016-10-07T01:35:57Z</time>
</trkpt>
<trkpt lat="35.50593566894531" lon="-117.66668701171875">
<ele>952</ele>
<time>2016-10-07T01:36:03Z</time>
</trkpt>
<trkpt lat="35.50762176513672" lon="-117.66747283935547">
<ele>948</ele>
<time>2016-10-07T01:36:09Z</time>
</trkpt>
<trkpt lat="35.509315490722656" lon="-117.66825103759766">
<ele>944</ele>
<time>2016-10-07T01:36:15Z</time>
</trkpt>
<trkpt lat="35.51100540161133" lon="-117.66905212402344">
<ele>940</ele>
<time>2016-10-07T01:36:21Z</time>
</trkpt>
<trkpt lat="35.512699127197266" lon="-117.66983032226563">
<ele>939</ele>
<time>2016-10-07T01:36:27Z</time>
</trkpt>
<trkpt lat="35.51438903808594" lon="-117.67060089111328">
<ele>937</ele>
<time>2016-10-07T01:36:33Z</time>
</trkpt>
<trkpt lat="35.516075134277344" lon="-117.67137908935547">
<ele>936</ele>
<time>2016-10-07T01:36:39Z</time>
</trkpt>
<trkpt lat="35.51777648925781" lon="-117.67214965820313">
<ele>929</ele>
<time>2016-10-07T01:36:45Z</time>
</trkpt>
<trkpt lat="35.51948928833008" lon="-117.67292785644531">
<ele>923</ele>
<time>2016-10-07T01:36:51Z</time>
</trkpt>
<trkpt lat="35.52116775512695" lon="-117.6737060546875">
<ele>923</ele>
<time>2016-10-07T01:36:57Z</time>
</trkpt>
<trkpt lat="35.52277374267578" lon="-117.6746597290039">
<ele>918</ele>
<time>2016-10-07T01:37:03Z</time>
</trkpt>
<trkpt lat="35.52431869506836" lon="-117.6757583618164">
<ele>918</ele>
<time>2016-10-07T01:37:09Z</time>
</trkpt>
<trkpt lat="35.525856018066406" lon="-117.67689514160156">
<ele>917</ele>
<time>2016-10-07T01:37:15Z</time>
</trkpt>
<trkpt lat="35.52742004394531" lon="-117.67800903320313">
<ele>919</ele>
<time>2016-10-07T01:37:21Z</time>
</trkpt>
<trkpt lat="35.528995513916016" lon="-117.67913818359375">
<ele>917</ele>
<time>2016-10-07T01:37:27Z</time>
</trkpt>
<trkpt lat="35.53054428100586" lon="-117.68026733398438">
<ele>914</ele>
<time>2016-10-07T01:37:33Z</time>
</trkpt>
<trkpt lat="35.53208541870117" lon="-117.6813735961914">
<ele>913</ele>
<time>2016-10-07T01:37:39Z</time>
</trkpt>
<trkpt lat="35.53364944458008" lon="-117.68250274658203">
<ele>910</ele>
<time>2016-10-07T01:37:45Z</time>
</trkpt>
<trkpt lat="35.535213470458984" lon="-117.68364715576172">
<ele>909</ele>
<time>2016-10-07T01:37:51Z</time>
</trkpt>
<trkpt lat="35.536773681640625" lon="-117.68476867675781">
<ele>908</ele>
<time>2016-10-07T01:37:57Z</time>
</trkpt>
<trkpt lat="35.53831100463867" lon="-117.68590545654297">
<ele>906</ele>
<time>2016-10-07T01:38:03Z</time>
</trkpt>
<trkpt lat="35.53985595703125" lon="-117.6870346069336">
<ele>903</ele>
<time>2016-10-07T01:38:09Z</time>
</trkpt>
<trkpt lat="35.54142761230469" lon="-117.68814086914063">
<ele>899</ele>
<time>2016-10-07T01:38:15Z</time>
</trkpt>
<trkpt lat="35.542911529541016" lon="-117.68938446044922">
<ele>896</ele>
<time>2016-10-07T01:38:21Z</time>
</trkpt>
<trkpt lat="35.54412841796875" lon="-117.69100952148438">
<ele>889</ele>
<time>2016-10-07T01:38:27Z</time>
</trkpt>
<trkpt lat="35.5450439453125" lon="-117.69292449951172">
<ele>888</ele>
<time>2016-10-07T01:38:33Z</time>
</trkpt>
<trkpt lat="35.54555892944336" lon="-117.6950454711914">
<ele>879</ele>
<time>2016-10-07T01:38:39Z</time>
</trkpt>
<trkpt lat="35.546016693115234" lon="-117.69720458984375">
<ele>874</ele>
<time>2016-10-07T01:38:45Z</time>
</trkpt>
<trkpt lat="35.54645919799805" lon="-117.6993408203125">
<ele>867</ele>
<time>2016-10-07T01:38:51Z</time>
</trkpt>
<trkpt lat="35.546905517578125" lon="-117.70147705078125">
<ele>863</ele>
<time>2016-10-07T01:38:57Z</time>
</trkpt>
<trkpt lat="35.54735565185547" lon="-117.7036361694336">
<ele>860</ele>
<time>2016-10-07T01:39:03Z</time>
</trkpt>
<trkpt lat="35.54779052734375" lon="-117.70577239990234">
<ele>858</ele>
<time>2016-10-07T01:39:09Z</time>
</trkpt>
<trkpt lat="35.54824447631836" lon="-117.70793914794922">
<ele>857</ele>
<time>2016-10-07T01:39:15Z</time>
</trkpt>
<trkpt lat="35.54867935180664" lon="-117.71000671386719">
<ele>854</ele>
<time>2016-10-07T01:39:21Z</time>
</trkpt>
<trkpt lat="35.549293518066406" lon="-117.71179962158203">
<ele>849</ele>
<time>2016-10-07T01:39:27Z</time>
</trkpt>
<trkpt lat="35.55029296875" lon="-117.71310424804688">
<ele>850</ele>
<time>2016-10-07T01:39:33Z</time>
</trkpt>
<trkpt lat="35.55146026611328" lon="-117.71346282958984">
<ele>843</ele>
<time>2016-10-07T01:39:39Z</time>
</trkpt>
<trkpt lat="35.552860260009766" lon="-117.7134780883789">
<ele>840</ele>
<time>2016-10-07T01:39:45Z</time>
</trkpt>
<trkpt lat="35.554500579833984" lon="-117.7135238647461">
<ele>840</ele>
<time>2016-10-07T01:39:51Z</time>
</trkpt>
<trkpt lat="35.55624008178711" lon="-117.71357727050781">
<ele>839</ele>
<time>2016-10-07T01:39:57Z</time>
</trkpt>
<trkpt lat="35.55796432495117" lon="-117.71366119384766">
<ele>836</ele>
<time>2016-10-07T01:40:03Z</time>
</trkpt>
<trkpt lat="35.55970001220703" lon="-117.71369171142578">
<ele>830</ele>
<time>2016-10-07T01:40:09Z</time>
</trkpt>
<trkpt lat="35.5614128112793" lon="-117.71376037597656">
<ele>826</ele>
<time>2016-10-07T01:40:15Z</time>
</trkpt>
<trkpt lat="35.563114166259766" lon="-117.71380615234375">
<ele>824</ele>
<time>2016-10-07T01:40:21Z</time>
</trkpt>
<trkpt lat="35.564823150634766" lon="-117.71383666992188">
<ele>820</ele>
<time>2016-10-07T01:40:27Z</time>
</trkpt>
<trkpt lat="35.5665283203125" lon="-117.7138900756836">
<ele>816</ele>
<time>2016-10-07T01:40:33Z</time>
</trkpt>
<trkpt lat="35.568241119384766" lon="-117.71392822265625">
<ele>809</ele>
<time>2016-10-07T01:40:39Z</time>
</trkpt>
<trkpt lat="35.56995391845703" lon="-117.7139663696289">
<ele>803</ele>
<time>2016-10-07T01:40:45Z</time>
</trkpt>
<trkpt lat="35.57164764404297" lon="-117.71385192871094">
<ele>797</ele>
<time>2016-10-07T01:40:51Z</time>
</trkpt>
<trkpt lat="35.57339859008789" lon="-117.71343231201172">
<ele>788</ele>
<time>2016-10-07T01:40:57Z</time>
</trkpt>
<trkpt lat="35.57516860961914" lon="-117.71302795410156">
<ele>808</ele>
<time>2016-10-07T01:41:03Z</time>
</trkpt>
<trkpt lat="35.576866149902344" lon="-117.71265411376953">
<ele>787</ele>
<time>2016-10-07T01:41:09Z</time>
</trkpt>
<trkpt lat="35.57847213745117" lon="-117.71224975585938">
<ele>775</ele>
<time>2016-10-07T01:41:15Z</time>
</trkpt>
<trkpt lat="35.57990646362305" lon="-117.71145629882813">
<ele>771</ele>
<time>2016-10-07T01:41:21Z</time>
</trkpt>
<trkpt lat="35.58103942871094" lon="-117.71012878417969">
<ele>762</ele>
<time>2016-10-07T01:41:27Z</time>
</trkpt>
<trkpt lat="35.5820198059082" lon="-117.70858764648438">
<ele>760</ele>
<time>2016-10-07T01:41:33Z</time>
</trkpt>
<trkpt lat="35.583003997802734" lon="-117.70700073242188">
<ele>755</ele>
<time>2016-10-07T01:41:39Z</time>
</trkpt>
<trkpt lat="35.58406066894531" lon="-117.70540618896484">
<ele>752</ele>
<time>2016-10-07T01:41:45Z</time>
</trkpt>
<trkpt lat="35.585113525390625" lon="-117.70382690429688">
<ele>746</ele>
<time>2016-10-07T01:41:51Z</time>
</trkpt>
<trkpt lat="35.5861701965332" lon="-117.70228576660156">
<ele>744</ele>
<time>2016-10-07T01:41:57Z</time>
</trkpt>
<trkpt lat="35.58720016479492" lon="-117.70068359375">
<ele>738</ele>
<time>2016-10-07T01:42:03Z</time>
</trkpt>
<trkpt lat="35.588233947753906" lon="-117.69905853271484">
<ele>729</ele>
<time>2016-10-07T01:42:09Z</time>
</trkpt>
<trkpt lat="35.58927536010742" lon="-117.69744110107422">
<ele>724</ele>
<time>2016-10-07T01:42:15Z</time>
</trkpt>
<trkpt lat="35.590328216552734" lon="-117.69583892822266">
<ele>717</ele>
<time>2016-10-07T01:42:21Z</time>
</trkpt>
<trkpt lat="35.591331481933594" lon="-117.69425201416016">
<ele>710</ele>
<time>2016-10-07T01:42:27Z</time>
</trkpt>
<trkpt lat="35.592350006103516" lon="-117.6926498413086">
<ele>706</ele>
<time>2016-10-07T01:42:33Z</time>
</trkpt>
<trkpt lat="35.593360900878906" lon="-117.69103240966797">
<ele>703</ele>
<time>2016-10-07T01:42:39Z</time>
</trkpt>
<trkpt lat="35.594383239746094" lon="-117.689453125">
<ele>698</ele>
<time>2016-10-07T01:42:45Z</time>
</trkpt>
<trkpt lat="35.59537887573242" lon="-117.68794250488281">
<ele>694</ele>
<time>2016-10-07T01:42:51Z</time>
</trkpt>
<trkpt lat="35.596378326416016" lon="-117.6865005493164">
<ele>692</ele>
<time>2016-10-07T01:42:57Z</time>
</trkpt>
<trkpt lat="35.597328186035156" lon="-117.68505096435547">
<ele>688</ele>
<time>2016-10-07T01:43:03Z</time>
</trkpt>
<trkpt lat="35.59824752807617" lon="-117.68365478515625">
<ele>686</ele>
<time>2016-10-07T01:43:09Z</time>
</trkpt>
<trkpt lat="35.599124908447266" lon="-117.68233489990234">
<ele>683</ele>
<time>2016-10-07T01:43:15Z</time>
</trkpt>
<trkpt lat="35.59986877441406" lon="-117.68109130859375">
<ele>683</ele>
<time>2016-10-07T01:43:21Z</time>
</trkpt>
<trkpt lat="35.60054016113281" lon="-117.68008422851563">
<ele>681</ele>
<time>2016-10-07T01:43:27Z</time>
</trkpt>
<trkpt lat="35.60111999511719" lon="-117.67916870117188">
<ele>679</ele>
<time>2016-10-07T01:43:33Z</time>
</trkpt>
<trkpt lat="35.601707458496094" lon="-117.67825317382813">
<ele>677</ele>
<time>2016-10-07T01:43:39Z</time>
</trkpt>
<trkpt lat="35.602333068847656" lon="-117.6772689819336">
<ele>676</ele>
<time>2016-10-07T01:43:45Z</time>
</trkpt>
<trkpt lat="35.60295104980469" lon="-117.67630004882813">
<ele>674</ele>
<time>2016-10-07T01:43:51Z</time>
</trkpt>
<trkpt lat="35.6033821105957" lon="-117.67560577392578">
<ele>673</ele>
<time>2016-10-07T01:43:57Z</time>
</trkpt>
<trkpt lat="35.60373306274414" lon="-117.67499542236328">
<ele>669</ele>
<time>2016-10-07T01:44:03Z</time>
</trkpt>
<trkpt lat="35.60430908203125" lon="-117.67405700683594">
<ele>666</ele>
<time>2016-10-07T01:44:09Z</time>
</trkpt>
<trkpt lat="35.6048469543457" lon="-117.67317962646484">
<ele>663</ele>
<time>2016-10-07T01:44:15Z</time>
</trkpt>
<trkpt lat="35.605045318603516" lon="-117.67280578613281">
<ele>660</ele>
<time>2016-10-07T01:44:27Z</time>
</trkpt>
<trkpt lat="35.6047248840332" lon="-117.67237091064453">
<ele>663</ele>
<time>2016-10-07T01:44:33Z</time>
</trkpt>
<trkpt lat="35.603981018066406" lon="-117.671630859375">
<ele>660</ele>
<time>2016-10-07T01:44:39Z</time>
</trkpt>
<trkpt lat="35.603302001953125" lon="-117.67117309570313">
<ele>662</ele>
<time>2016-10-07T01:44:45Z</time>
</trkpt>
<trkpt lat="35.60308074951172" lon="-117.67144012451172">
<ele>659</ele>
<time>2016-10-07T01:44:51Z</time>
</trkpt>
<trkpt lat="35.60272979736328" lon="-117.67142486572266">
<ele>661</ele>
<time>2016-10-07T01:44:57Z</time>
</trkpt>
<trkpt lat="35.60236358642578" lon="-117.67147064208984">
<ele>657</ele>
<time>2016-10-07T01:45:04Z</time>
</trkpt>
<trkpt lat="35.60234832763672" lon="-117.67206573486328">
<ele>656</ele>
<time>2016-10-07T01:45:10Z</time>
</trkpt>
<trkpt lat="35.60237121582031" lon="-117.67289733886719">
<ele>653</ele>
<time>2016-10-07T01:45:16Z</time>
</trkpt>
<trkpt lat="35.60242462158203" lon="-117.673583984375">
<ele>651</ele>
<time>2016-10-07T01:45:22Z</time>
</trkpt>
<trkpt lat="35.6024284362793" lon="-117.67372131347656">
<ele>671</ele>
<time>2016-10-07T01:46:23Z</time>
</trkpt>
<trkpt lat="35.60239028930664" lon="-117.67377471923828">
<ele>673</ele>
<time>2016-10-07T01:46:35Z</time>
</trkpt>
<trkpt lat="35.602386474609375" lon="-117.67371368408203">
<ele>673</ele>
<time>2016-10-07T01:46:43Z</time>
</trkpt>
<trkpt lat="35.60243225097656" lon="-117.6738052368164">
<ele>671</ele>
<time>2016-10-07T01:47:32Z</time>
</trkpt>
<trkpt lat="35.60247802734375" lon="-117.67379760742188">
<ele>673</ele>
<time>2016-10-07T01:47:43Z</time>
</trkpt>
<trkpt lat="35.602535247802734" lon="-117.67379760742188">
<ele>666</ele>
<time>2016-10-07T01:47:53Z</time>
</trkpt>
<trkpt lat="35.602638244628906" lon="-117.67378997802734">
<ele>659</ele>
<time>2016-10-07T01:48:13Z</time>
</trkpt>
<trkpt lat="35.60261154174805" lon="-117.6738510131836">
<ele>710</ele>
<time>2016-10-07T01:48:51Z</time>
</trkpt>
<trkpt lat="35.602630615234375" lon="-117.67378997802734">
<ele>676</ele>
<time>2016-10-07T01:49:48Z</time>
</trkpt>
<trkpt lat="35.60258483886719" lon="-117.67375183105469">
<ele>658</ele>
<time>2016-10-07T01:55:28Z</time>
</trkpt>
<trkpt lat="35.60270309448242" lon="-117.67389678955078">
<ele>674</ele>
<time>2016-10-07T02:28:47Z</time>
</trkpt>
<trkpt lat="35.602622985839844" lon="-117.67383575439453">
<ele>673</ele>
<time>2016-10-07T02:28:56Z</time>
</trkpt>
<trkpt lat="35.60256576538086" lon="-117.67381286621094">
<ele>683</ele>
<time>2016-10-07T02:30:27Z</time>
</trkpt>
<trkpt lat="35.60261535644531" lon="-117.673828125">
<ele>684</ele>
<time>2016-10-07T02:30:56Z</time>
</trkpt>
<trkpt lat="35.60265350341797" lon="-117.67387390136719">
<ele>672</ele>
<time>2016-10-07T02:35:27Z</time>
</trkpt>
<trkpt lat="35.602596282958984" lon="-117.67385864257813">
<ele>678</ele>
<time>2016-10-07T02:36:43Z</time>
</trkpt>
<trkpt lat="35.60264587402344" lon="-117.67385864257813">
<ele>677</ele>
<time>2016-10-07T02:46:27Z</time>
</trkpt>
<trkpt lat="35.602603912353516" lon="-117.67378234863281">
<ele>676</ele>
<time>2016-10-07T03:17:34Z</time>
</trkpt>
<trkpt lat="35.60264587402344" lon="-117.6738052368164">
<ele>675</ele>
<time>2016-10-07T03:18:08Z</time>
</trkpt>
<trkpt lat="35.60258102416992" lon="-117.67381286621094">
<ele>681</ele>
<time>2016-10-07T03:23:35Z</time>
</trkpt>
<trkpt lat="35.602638244628906" lon="-117.67381286621094">
<ele>685</ele>
<time>2016-10-07T03:24:47Z</time>
</trkpt>
<trkpt lat="35.60256576538086" lon="-117.6738052368164">
<ele>683</ele>
<time>2016-10-07T03:26:55Z</time>
</trkpt>
<trkpt lat="35.60261917114258" lon="-117.67379760742188">
<ele>699</ele>
<time>2016-10-07T03:27:12Z</time>
</trkpt>
<trkpt lat="35.602664947509766" lon="-117.6738510131836">
<ele>680</ele>
<time>2016-10-07T03:29:46Z</time>
</trkpt>
<trkpt lat="35.60268020629883" lon="-117.6738052368164">
<ele>687</ele>
<time>2016-10-07T03:30:01Z</time>
</trkpt>
<trkpt lat="35.602630615234375" lon="-117.67378997802734">
<ele>688</ele>
<time>2016-10-07T03:30:14Z</time>
</trkpt>
<trkpt lat="35.602657318115234" lon="-117.67386627197266">
<ele>735</ele>
<time>2016-10-07T03:33:27Z</time>
</trkpt>
<trkpt lat="35.60262680053711" lon="-117.67381286621094">
<ele>678</ele>
<time>2016-10-07T03:36:27Z</time>
</trkpt>
<trkpt lat="35.60265350341797" lon="-117.67386627197266">
<ele>673</ele>
<time>2016-10-07T03:36:49Z</time>
</trkpt>
<trkpt lat="35.60260772705078" lon="-117.67382049560547">
<ele>677</ele>
<time>2016-10-07T03:39:27Z</time>
</trkpt>
<trkpt lat="35.6026496887207" lon="-117.67378997802734">
<ele>708</ele>
<time>2016-10-07T03:42:27Z</time>
</trkpt>
<trkpt lat="35.60261535644531" lon="-117.673828125">
<ele>670</ele>
<time>2016-10-07T03:42:46Z</time>
</trkpt>
<trkpt lat="35.60265350341797" lon="-117.67385864257813">
<ele>688</ele>
<time>2016-10-07T03:44:59Z</time>
</trkpt>
<trkpt lat="35.60269546508789" lon="-117.67391204833984">
<ele>675</ele>
<time>2016-10-07T03:53:29Z</time>
</trkpt>
<trkpt lat="35.60272979736328" lon="-117.67374420166016">
<ele>688</ele>
<time>2016-10-07T05:19:06Z</time>
</trkpt>
<trkpt lat="35.60268783569336" lon="-117.67381286621094">
<ele>677</ele>
<time>2016-10-07T05:19:27Z</time>
</trkpt>
<trkpt lat="35.602638244628906" lon="-117.67382049560547">
<ele>675</ele>
<time>2016-10-07T05:19:43Z</time>
</trkpt>
<trkpt lat="35.602603912353516" lon="-117.67378234863281">
<ele>701</ele>
<time>2016-10-07T05:20:47Z</time>
</trkpt>
<trkpt lat="35.602664947509766" lon="-117.67379760742188">
<ele>674</ele>
<time>2016-10-07T05:22:27Z</time>
</trkpt>
<trkpt lat="35.60261535644531" lon="-117.673828125">
<ele>674</ele>
<time>2016-10-07T05:24:01Z</time>
</trkpt>
<trkpt lat="35.60259246826172" lon="-117.67375183105469">
<ele>671</ele>
<time>2016-10-07T05:24:46Z</time>
</trkpt>
<trkpt lat="35.60254669189453" lon="-117.67378997802734">
<ele>671</ele>
<time>2016-10-07T05:25:03Z</time>
</trkpt>
<trkpt lat="35.6025276184082" lon="-117.67383575439453">
<ele>675</ele>
<time>2016-10-07T05:25:21Z</time>
</trkpt>
<trkpt lat="35.602596282958984" lon="-117.673828125">
<ele>671</ele>
<time>2016-10-07T05:25:42Z</time>
</trkpt>
<trkpt lat="35.60264205932617" lon="-117.67383575439453">
<ele>673</ele>
<time>2016-10-07T05:25:55Z</time>
</trkpt>
<trkpt lat="35.602684020996094" lon="-117.67379760742188">
<ele>674</ele>
<time>2016-10-07T05:29:08Z</time>
</trkpt>
<trkpt lat="35.60261917114258" lon="-117.67382049560547">
<ele>678</ele>
<time>2016-10-07T05:34:41Z</time>
</trkpt>
<trkpt lat="35.602569580078125" lon="-117.67382049560547">
<ele>676</ele>
<time>2016-10-07T05:34:49Z</time>
</trkpt>
<trkpt lat="35.602439880371094" lon="-117.6737060546875">
<ele>675</ele>
<time>2016-10-07T05:35:13Z</time>
</trkpt>
<trkpt lat="35.60243606567383" lon="-117.67377471923828">
<ele>671</ele>
<time>2016-10-07T05:35:26Z</time>
</trkpt>
<trkpt lat="35.602535247802734" lon="-117.67378234863281">
<ele>672</ele>
<time>2016-10-07T05:35:40Z</time>
</trkpt>
<trkpt lat="35.602577209472656" lon="-117.67376708984375">
<ele>669</ele>
<time>2016-10-07T05:36:16Z</time>
</trkpt>
<trkpt lat="35.60255813598633" lon="-117.67371368408203">
<ele>679</ele>
<time>2016-10-07T05:39:30Z</time>
</trkpt>
<trkpt lat="35.60259246826172" lon="-117.67375946044922">
<ele>680</ele>
<time>2016-10-07T05:47:23Z</time>
</trkpt>
<trkpt lat="35.6026496887207" lon="-117.67382049560547">
<ele>678</ele>
<time>2016-10-07T05:48:23Z</time>
</trkpt>
<trkpt lat="35.60269546508789" lon="-117.67381286621094">
<ele>679</ele>
<time>2016-10-07T05:50:27Z</time>
</trkpt>
<trkpt lat="35.602664947509766" lon="-117.6738510131836">
<ele>682</ele>
<time>2016-10-07T05:50:36Z</time>
</trkpt>
<trkpt lat="35.60269546508789" lon="-117.6738052368164">
<ele>668</ele>
<time>2016-10-07T06:36:27Z</time>
</trkpt>
<trkpt lat="35.602813720703125" lon="-117.67376708984375">
<ele>659</ele>
<time>2016-10-07T07:39:15Z</time>
</trkpt>
<trkpt lat="35.602664947509766" lon="-117.67383575439453">
<ele>675</ele>
<time>2016-10-07T07:39:27Z</time>
</trkpt>
<trkpt lat="35.60271072387695" lon="-117.673828125">
<ele>672</ele>
<time>2016-10-07T07:42:20Z</time>
</trkpt>
<trkpt lat="35.602657318115234" lon="-117.673828125">
<ele>664</ele>
<time>2016-10-07T07:51:27Z</time>
</trkpt>
<trkpt lat="35.60258102416992" lon="-117.6738510131836">
<ele>670</ele>
<time>2016-10-07T08:18:08Z</time>
</trkpt>
<trkpt lat="35.602535247802734" lon="-117.67384338378906">
<ele>665</ele>
<time>2016-10-07T08:18:16Z</time>
</trkpt>
<trkpt lat="35.602535247802734" lon="-117.67378997802734">
<ele>669</ele>
<time>2016-10-07T08:18:26Z</time>
</trkpt>
<trkpt lat="35.60247039794922" lon="-117.6738052368164">
<ele>669</ele>
<time>2016-10-07T08:18:35Z</time>
</trkpt>
<trkpt lat="35.6024169921875" lon="-117.67374420166016">
<ele>667</ele>
<time>2016-10-07T08:18:44Z</time>
</trkpt>
<trkpt lat="35.602439880371094" lon="-117.6738052368164">
<ele>665</ele>
<time>2016-10-07T08:19:07Z</time>
</trkpt>
<trkpt lat="35.60248565673828" lon="-117.67379760742188">
<ele>664</ele>
<time>2016-10-07T08:19:14Z</time>
</trkpt>
<trkpt lat="35.60255432128906" lon="-117.67375946044922">
<ele>670</ele>
<time>2016-10-07T08:20:01Z</time>
</trkpt>
<trkpt lat="35.60269546508789" lon="-117.67375946044922">
<ele>691</ele>
<time>2016-10-07T08:45:54Z</time>
</trkpt>
<trkpt lat="35.602561950683594" lon="-117.67381286621094">
<ele>672</ele>
<time>2016-10-07T08:46:04Z</time>
</trkpt>
<trkpt lat="35.60261917114258" lon="-117.6737289428711">
<ele>675</ele>
<time>2016-10-07T08:46:27Z</time>
</trkpt>
<trkpt lat="35.60255432128906" lon="-117.67378997802734">
<ele>655</ele>
<time>2016-10-07T08:53:02Z</time>
</trkpt>
<trkpt lat="35.60261154174805" lon="-117.67379760742188">
<ele>670</ele>
<time>2016-10-07T08:53:27Z</time>
</trkpt>
<trkpt lat="35.6026611328125" lon="-117.67379760742188">
<ele>663</ele>
<time>2016-10-07T08:54:25Z</time>
</trkpt>
<trkpt lat="35.60261535644531" lon="-117.67381286621094">
<ele>670</ele>
<time>2016-10-07T08:54:58Z</time>
</trkpt>
<trkpt lat="35.602630615234375" lon="-117.67375183105469">
<ele>670</ele>
<time>2016-10-07T08:57:59Z</time>
</trkpt>
</trkseg>
</trk>
<trk>
<name><![CDATA[Deerhorn]]></name>
<number>14</number>
<extensions><topografix:color>ff000066</topografix:color></extensions>
<trkseg>
<trkpt lat="36.77250289916992" lon="-118.34123992919922">
<ele>2765</ele>
<time>2016-10-08T10:08:40Z</time>
</trkpt>
<trkpt lat="36.77254867553711" lon="-118.34123229980469">
<ele>2764</ele>
<time>2016-10-08T10:08:46Z</time>
</trkpt>
<trkpt lat="36.772525787353516" lon="-118.34117126464844">
<ele>2767</ele>
<time>2016-10-08T10:11:18Z</time>
</trkpt>
<trkpt lat="36.77248001098633" lon="-118.34129333496094">
<ele>2765</ele>
<time>2016-10-08T10:11:26Z</time>
</trkpt>
<trkpt lat="36.77245330810547" lon="-118.34141540527344">
<ele>2768</ele>
<time>2016-10-08T10:11:32Z</time>
</trkpt>
<trkpt lat="36.77242660522461" lon="-118.3415298461914">
<ele>2771</ele>
<time>2016-10-08T10:11:40Z</time>
</trkpt>
<trkpt lat="36.772396087646484" lon="-118.3416519165039">
<ele>2772</ele>
<time>2016-10-08T10:11:48Z</time>
</trkpt>
<trkpt lat="36.772335052490234" lon="-118.34172821044922">
<ele>2774</ele>
<time>2016-10-08T10:12:13Z</time>
</trkpt>
<trkpt lat="36.77227020263672" lon="-118.34183502197266">
<ele>2768</ele>
<time>2016-10-08T10:12:22Z</time>
</trkpt>
<trkpt lat="36.77219772338867" lon="-118.34192657470703">
<ele>2768</ele>
<time>2016-10-08T10:12:29Z</time>
</trkpt>
<trkpt lat="36.7721061706543" lon="-118.34197998046875">
<ele>2768</ele>
<time>2016-10-08T10:12:37Z</time>
</trkpt>
<trkpt lat="36.772037506103516" lon="-118.34207153320313">
<ele>2772</ele>
<time>2016-10-08T10:12:45Z</time>
</trkpt>
<trkpt lat="36.77195358276367" lon="-118.3421401977539">
<ele>2774</ele>
<time>2016-10-08T10:12:51Z</time>
</trkpt>
<trkpt lat="36.77186584472656" lon="-118.34217071533203">
<ele>2770</ele>
<time>2016-10-08T10:13:00Z</time>
</trkpt>
<trkpt lat="36.771766662597656" lon="-118.34220123291016">
<ele>2774</ele>
<time>2016-10-08T10:13:08Z</time>
</trkpt>
<trkpt lat="36.77168273925781" lon="-118.34226989746094">
<ele>2776</ele>
<time>2016-10-08T10:13:14Z</time>
</trkpt>
<trkpt lat="36.77164840698242" lon="-118.34235382080078">
<ele>2774</ele>
<time>2016-10-08T10:13:29Z</time>
</trkpt>
<trkpt lat="36.77165222167969" lon="-118.34241485595703">
<ele>2785</ele>
<time>2016-10-08T10:14:00Z</time>
</trkpt>
<trkpt lat="36.77163314819336" lon="-118.34246826171875">
<ele>2787</ele>
<time>2016-10-08T10:14:13Z</time>
</trkpt>
<trkpt lat="36.771644592285156" lon="-118.342529296875">
<ele>2789</ele>
<time>2016-10-08T10:14:24Z</time>
</trkpt>
<trkpt lat="36.771644592285156" lon="-118.34258270263672">
<ele>2793</ele>
<time>2016-10-08T10:14:30Z</time>
</trkpt>
<trkpt lat="36.771724700927734" lon="-118.34260559082031">
<ele>2795</ele>
<time>2016-10-08T10:14:47Z</time>
</trkpt>
<trkpt lat="36.771724700927734" lon="-118.34265899658203">
<ele>2796</ele>
<time>2016-10-08T10:15:03Z</time>
</trkpt>
<trkpt lat="36.771751403808594" lon="-118.34271240234375">
<ele>2803</ele>
<time>2016-10-08T10:15:13Z</time>
</trkpt>
<trkpt lat="36.771793365478516" lon="-118.34274291992188">
<ele>2808</ele>
<time>2016-10-08T10:15:25Z</time>
</trkpt>
<trkpt lat="36.77181625366211" lon="-118.3427963256836">
<ele>2811</ele>
<time>2016-10-08T10:15:48Z</time>
</trkpt>
<trkpt lat="36.77183532714844" lon="-118.34284973144531">
<ele>2809</ele>
<time>2016-10-08T10:16:04Z</time>
</trkpt>
<trkpt lat="36.771873474121094" lon="-118.34292602539063">
<ele>2806</ele>
<time>2016-10-08T10:16:53Z</time>
</trkpt>
<trkpt lat="36.77190399169922" lon="-118.34296417236328">
<ele>2809</ele>
<time>2016-10-08T10:17:07Z</time>
</trkpt>
<trkpt lat="36.77193832397461" lon="-118.34300994873047">
<ele>2816</ele>
<time>2016-10-08T10:17:15Z</time>
</trkpt>
<trkpt lat="36.771976470947266" lon="-118.34297943115234">
<ele>2825</ele>
<time>2016-10-08T10:17:32Z</time>
</trkpt>
<trkpt lat="36.77199172973633" lon="-118.3430404663086">
<ele>2827</ele>
<time>2016-10-08T10:17:49Z</time>
</trkpt>
<trkpt lat="36.77202606201172" lon="-118.34307861328125">
<ele>2833</ele>
<time>2016-10-08T10:18:13Z</time>
</trkpt>
<trkpt lat="36.77205276489258" lon="-118.3431396484375">
<ele>2838</ele>
<time>2016-10-08T10:19:07Z</time>
</trkpt>
<trkpt lat="36.77208709716797" lon="-118.34317779541016">
<ele>2838</ele>
<time>2016-10-08T10:19:15Z</time>
</trkpt>
<trkpt lat="36.77212905883789" lon="-118.34320831298828">
<ele>2837</ele>
<time>2016-10-08T10:19:24Z</time>
</trkpt>
<trkpt lat="36.77220916748047" lon="-118.34325408935547">
<ele>2840</ele>
<time>2016-10-08T10:20:13Z</time>
</trkpt>
<trkpt lat="36.772220611572266" lon="-118.34336853027344">
<ele>2842</ele>
<time>2016-10-08T10:20:23Z</time>
</trkpt>
<trkpt lat="36.772220611572266" lon="-118.34344482421875">
<ele>2851</ele>
<time>2016-10-08T10:21:08Z</time>
</trkpt>
<trkpt lat="36.77223587036133" lon="-118.34349822998047">
<ele>2854</ele>
<time>2016-10-08T10:21:36Z</time>
</trkpt>
<trkpt lat="36.77223587036133" lon="-118.34357452392578">
<ele>2857</ele>
<time>2016-10-08T10:21:53Z</time>
</trkpt>
<trkpt lat="36.77225875854492" lon="-118.3436279296875">
<ele>2856</ele>
<time>2016-10-08T10:22:10Z</time>
</trkpt>
<trkpt lat="36.77229690551758" lon="-118.34366607666016">
<ele>2854</ele>
<time>2016-10-08T10:22:35Z</time>
</trkpt>
<trkpt lat="36.77231979370117" lon="-118.34371948242188">
<ele>2855</ele>
<time>2016-10-08T10:22:51Z</time>
</trkpt>
<trkpt lat="36.77228927612305" lon="-118.34376525878906">
<ele>2859</ele>
<time>2016-10-08T10:23:04Z</time>
</trkpt>
<trkpt lat="36.772308349609375" lon="-118.34381866455078">
<ele>2866</ele>
<time>2016-10-08T10:23:16Z</time>
</trkpt>
<trkpt lat="36.7723388671875" lon="-118.34386444091797">
<ele>2866</ele>
<time>2016-10-08T10:23:26Z</time>
</trkpt>
<trkpt lat="36.77238082885742" lon="-118.3438949584961">
<ele>2869</ele>
<time>2016-10-08T10:23:36Z</time>
</trkpt>
<trkpt lat="36.772361755371094" lon="-118.34396362304688">
<ele>2877</ele>
<time>2016-10-08T10:23:58Z</time>
</trkpt>
<trkpt lat="36.77239227294922" lon="-118.34400939941406">
<ele>2879</ele>
<time>2016-10-08T10:24:05Z</time>
</trkpt>
<trkpt lat="36.772422790527344" lon="-118.34406280517578">
<ele>2875</ele>
<time>2016-10-08T10:24:13Z</time>
</trkpt>
<trkpt lat="36.77245330810547" lon="-118.3441162109375">
<ele>2880</ele>
<time>2016-10-08T10:24:21Z</time>
</trkpt>
<trkpt lat="36.77249526977539" lon="-118.34414672851563">
<ele>2879</ele>
<time>2016-10-08T10:24:27Z</time>
</trkpt>
<trkpt lat="36.77253341674805" lon="-118.34420013427734">
<ele>2884</ele>
<time>2016-10-08T10:24:35Z</time>
</trkpt>
<trkpt lat="36.772560119628906" lon="-118.34429931640625">
<ele>2882</ele>
<time>2016-10-08T10:24:54Z</time>
</trkpt>
<trkpt lat="36.77253341674805" lon="-118.34435272216797">
<ele>2882</ele>
<time>2016-10-08T10:25:00Z</time>
</trkpt>
<trkpt lat="36.7724494934082" lon="-118.34436798095703">
<ele>2887</ele>
<time>2016-10-08T10:25:08Z</time>
</trkpt>
<trkpt lat="36.77235412597656" lon="-118.34437561035156">
<ele>2891</ele>
<time>2016-10-08T10:25:16Z</time>
</trkpt>
<trkpt lat="36.772254943847656" lon="-118.34439849853516">
<ele>2898</ele>
<time>2016-10-08T10:25:25Z</time>
</trkpt>
<trkpt lat="36.7722053527832" lon="-118.34437561035156">
<ele>2900</ele>
<time>2016-10-08T10:25:32Z</time>
</trkpt>
<trkpt lat="36.772125244140625" lon="-118.34445190429688">
<ele>2897</ele>
<time>2016-10-08T10:25:39Z</time>
</trkpt>
<trkpt lat="36.77202224731445" lon="-118.34454345703125">
<ele>2899</ele>
<time>2016-10-08T10:25:47Z</time>
</trkpt>
<trkpt lat="36.77193832397461" lon="-118.34461975097656">
<ele>2898</ele>
<time>2016-10-08T10:25:58Z</time>
</trkpt>
<trkpt lat="36.771873474121094" lon="-118.34471130371094">
<ele>2901</ele>
<time>2016-10-08T10:26:08Z</time>
</trkpt>
<trkpt lat="36.77184295654297" lon="-118.34481811523438">
<ele>2899</ele>
<time>2016-10-08T10:26:17Z</time>
</trkpt>
<trkpt lat="36.77180862426758" lon="-118.34486389160156">
<ele>2897</ele>
<time>2016-10-08T10:26:23Z</time>
</trkpt>
<trkpt lat="36.77173614501953" lon="-118.34495544433594">
<ele>2902</ele>
<time>2016-10-08T10:26:30Z</time>
</trkpt>
<trkpt lat="36.77182388305664" lon="-118.34495544433594">
<ele>2901</ele>
<time>2016-10-08T10:26:50Z</time>
</trkpt>
<trkpt lat="36.77192306518555" lon="-118.34488677978516">
<ele>2899</ele>
<time>2016-10-08T10:26:58Z</time>
</trkpt>
<trkpt lat="36.77201461791992" lon="-118.34481048583984">
<ele>2895</ele>
<time>2016-10-08T10:27:05Z</time>
</trkpt>
<trkpt lat="36.772151947021484" lon="-118.34477996826172">
<ele>2898</ele>
<time>2016-10-08T10:27:14Z</time>
</trkpt>
<trkpt lat="36.772247314453125" lon="-118.34478759765625">
<ele>2896</ele>
<time>2016-10-08T10:27:25Z</time>
</trkpt>
<trkpt lat="36.77230453491211" lon="-118.34487915039063">
<ele>2895</ele>
<time>2016-10-08T10:27:33Z</time>
</trkpt>
<trkpt lat="36.77236557006836" lon="-118.3449478149414">
<ele>2900</ele>
<time>2016-10-08T10:27:40Z</time>
</trkpt>
<trkpt lat="36.77245330810547" lon="-118.34497833251953">
<ele>2899</ele>
<time>2016-10-08T10:27:49Z</time>
</trkpt>
<trkpt lat="36.772403717041016" lon="-118.34501647949219">
<ele>2906</ele>
<time>2016-10-08T10:27:59Z</time>
</trkpt>
<trkpt lat="36.77235794067383" lon="-118.34498596191406">
<ele>2910</ele>
<time>2016-10-08T10:28:05Z</time>
</trkpt>
<trkpt lat="36.77230453491211" lon="-118.34498596191406">
<ele>2917</ele>
<time>2016-10-08T10:30:59Z</time>
</trkpt>
<trkpt lat="36.772315979003906" lon="-118.34493255615234">
<ele>2910</ele>
<time>2016-10-08T10:33:07Z</time>
</trkpt>
<trkpt lat="36.77236557006836" lon="-118.34492492675781">
<ele>2916</ele>
<time>2016-10-08T10:33:25Z</time>
</trkpt>
<trkpt lat="36.77231216430664" lon="-118.3449478149414">
<ele>2913</ele>
<time>2016-10-08T10:34:36Z</time>
</trkpt>
<trkpt lat="36.77223587036133" lon="-118.34495544433594">
<ele>2916</ele>
<time>2016-10-08T10:34:48Z</time>
</trkpt>
<trkpt lat="36.77212142944336" lon="-118.34500885009766">
<ele>2921</ele>
<time>2016-10-08T10:35:04Z</time>
</trkpt>
<trkpt lat="36.77203369140625" lon="-118.34506225585938">
<ele>2917</ele>
<time>2016-10-08T10:35:11Z</time>
</trkpt>
<trkpt lat="36.77195739746094" lon="-118.34514617919922">
<ele>2921</ele>
<time>2016-10-08T10:35:19Z</time>
</trkpt>
<trkpt lat="36.771915435791016" lon="-118.34526824951172">
<ele>2921</ele>
<time>2016-10-08T10:35:26Z</time>
</trkpt>
<trkpt lat="36.77186965942383" lon="-118.34537506103516">
<ele>2923</ele>
<time>2016-10-08T10:35:34Z</time>
</trkpt>
<trkpt lat="36.771854400634766" lon="-118.34544372558594">
<ele>2921</ele>
<time>2016-10-08T10:35:40Z</time>
</trkpt>
<trkpt lat="36.77183151245117" lon="-118.34550476074219">
<ele>2923</ele>
<time>2016-10-08T10:35:53Z</time>
</trkpt>
<trkpt lat="36.771751403808594" lon="-118.34561157226563">
<ele>2922</ele>
<time>2016-10-08T10:36:00Z</time>
</trkpt>
<trkpt lat="36.77170181274414" lon="-118.3457260131836">
<ele>2920</ele>
<time>2016-10-08T10:36:06Z</time>
</trkpt>
<trkpt lat="36.7717170715332" lon="-118.34584045410156">
<ele>2921</ele>
<time>2016-10-08T10:36:14Z</time>
</trkpt>
<trkpt lat="36.77177047729492" lon="-118.34595489501953">
<ele>2929</ele>
<time>2016-10-08T10:36:22Z</time>
</trkpt>
<trkpt lat="36.77177047729492" lon="-118.34601593017578">
<ele>2925</ele>
<time>2016-10-08T10:36:28Z</time>
</trkpt>
<trkpt lat="36.771793365478516" lon="-118.3459243774414">
<ele>2929</ele>
<time>2016-10-08T10:37:09Z</time>
</trkpt>
<trkpt lat="36.77177047729492" lon="-118.34597778320313">
<ele>2928</ele>
<time>2016-10-08T10:37:20Z</time>
</trkpt>
<trkpt lat="36.77182388305664" lon="-118.34603118896484">
<ele>2928</ele>
<time>2016-10-08T10:37:54Z</time>
</trkpt>
<trkpt lat="36.77181625366211" lon="-118.34612274169922">
<ele>2934</ele>
<time>2016-10-08T10:38:05Z</time>
</trkpt>
<trkpt lat="36.77177810668945" lon="-118.34623718261719">
<ele>2936</ele>
<time>2016-10-08T10:38:16Z</time>
</trkpt>
<trkpt lat="36.771751403808594" lon="-118.34629821777344">
<ele>2939</ele>
<time>2016-10-08T10:38:22Z</time>
</trkpt>
<trkpt lat="36.771751403808594" lon="-118.34642028808594">
<ele>2939</ele>
<time>2016-10-08T10:38:33Z</time>
</trkpt>
<trkpt lat="36.7717399597168" lon="-118.34651947021484">
<ele>2940</ele>
<time>2016-10-08T10:38:40Z</time>
</trkpt>
<trkpt lat="36.7717399597168" lon="-118.3465805053711">
<ele>2943</ele>
<time>2016-10-08T10:38:46Z</time>
</trkpt>
<trkpt lat="36.77170181274414" lon="-118.34669494628906">
<ele>2945</ele>
<time>2016-10-08T10:38:54Z</time>
</trkpt>
<trkpt lat="36.771728515625" lon="-118.34674835205078">
<ele>2946</ele>
<time>2016-10-08T10:39:00Z</time>
</trkpt>
<trkpt lat="36.77170181274414" lon="-118.34685516357422">
<ele>2952</ele>
<time>2016-10-08T10:39:12Z</time>
</trkpt>
<trkpt lat="36.771663665771484" lon="-118.34690856933594">
<ele>2948</ele>
<time>2016-10-08T10:39:18Z</time>
</trkpt>
<trkpt lat="36.77161407470703" lon="-118.34701538085938">
<ele>2951</ele>
<time>2016-10-08T10:39:26Z</time>
</trkpt>
<trkpt lat="36.771541595458984" lon="-118.34709930419922">
<ele>2944</ele>
<time>2016-10-08T10:39:34Z</time>
</trkpt>
<trkpt lat="36.77152633666992" lon="-118.34717559814453">
<ele>2941</ele>
<time>2016-10-08T10:39:40Z</time>
</trkpt>
<trkpt lat="36.7714958190918" lon="-118.34724426269531">
<ele>2940</ele>
<time>2016-10-08T10:39:47Z</time>
</trkpt>
<trkpt lat="36.77146911621094" lon="-118.34734344482422">
<ele>2945</ele>
<time>2016-10-08T10:39:57Z</time>
</trkpt>
<trkpt lat="36.77140426635742" lon="-118.34744262695313">
<ele>2948</ele>
<time>2016-10-08T10:40:05Z</time>
</trkpt>
<trkpt lat="36.77137756347656" lon="-118.34749603271484">
<ele>2950</ele>
<time>2016-10-08T10:40:11Z</time>
</trkpt>
<trkpt lat="36.77135467529297" lon="-118.34761047363281">
<ele>2953</ele>
<time>2016-10-08T10:40:20Z</time>
</trkpt>
<trkpt lat="36.771324157714844" lon="-118.34771728515625">
<ele>2957</ele>
<time>2016-10-08T10:40:31Z</time>
</trkpt>
<trkpt lat="36.77134704589844" lon="-118.34783935546875">
<ele>2965</ele>
<time>2016-10-08T10:40:40Z</time>
</trkpt>
<trkpt lat="36.77134704589844" lon="-118.34795379638672">
<ele>2960</ele>
<time>2016-10-08T10:40:48Z</time>
</trkpt>
<trkpt lat="36.77132797241211" lon="-118.3480224609375">
<ele>2962</ele>
<time>2016-10-08T10:40:55Z</time>
</trkpt>
<trkpt lat="36.771240234375" lon="-118.34806823730469">
<ele>2961</ele>
<time>2016-10-08T10:41:04Z</time>
</trkpt>
<trkpt lat="36.77117919921875" lon="-118.34817504882813">
<ele>2964</ele>
<time>2016-10-08T10:41:13Z</time>
</trkpt>
<trkpt lat="36.771209716796875" lon="-118.34821319580078">
<ele>2969</ele>
<time>2016-10-08T10:41:32Z</time>
</trkpt>
<trkpt lat="36.771183013916016" lon="-118.34829711914063">
<ele>2962</ele>
<time>2016-10-08T10:41:50Z</time>
</trkpt>
<trkpt lat="36.77118682861328" lon="-118.34839630126953">
<ele>2969</ele>
<time>2016-10-08T10:42:09Z</time>
</trkpt>
<trkpt lat="36.771240234375" lon="-118.34839630126953">
<ele>2971</ele>
<time>2016-10-08T10:42:17Z</time>
</trkpt>
<trkpt lat="36.77125930786133" lon="-118.34845733642578">
<ele>2968</ele>
<time>2016-10-08T10:42:37Z</time>
</trkpt>
<trkpt lat="36.77122497558594" lon="-118.34852600097656">
<ele>2974</ele>
<time>2016-10-08T10:42:53Z</time>
</trkpt>
<trkpt lat="36.7712287902832" lon="-118.34858703613281">
<ele>2976</ele>
<time>2016-10-08T10:43:02Z</time>
</trkpt>
<trkpt lat="36.77120590209961" lon="-118.34864044189453">
<ele>2974</ele>
<time>2016-10-08T10:43:16Z</time>
</trkpt>
<trkpt lat="36.77111053466797" lon="-118.34868621826172">
<ele>2972</ele>
<time>2016-10-08T10:43:23Z</time>
</trkpt>
<trkpt lat="36.771018981933594" lon="-118.34871673583984">
<ele>2973</ele>
<time>2016-10-08T10:43:29Z</time>
</trkpt>
<trkpt lat="36.770931243896484" lon="-118.3487777709961">
<ele>2976</ele>
<time>2016-10-08T10:43:35Z</time>
</trkpt>
<trkpt lat="36.770835876464844" lon="-118.34881591796875">
<ele>2978</ele>
<time>2016-10-08T10:43:47Z</time>
</trkpt>
<trkpt lat="36.77073287963867" lon="-118.34883880615234">
<ele>2984</ele>
<time>2016-10-08T10:43:59Z</time>
</trkpt>
<trkpt lat="36.77068328857422" lon="-118.34881591796875">
<ele>2987</ele>
<time>2016-10-08T10:44:07Z</time>
</trkpt>
<trkpt lat="36.7706298828125" lon="-118.34883117675781">
<ele>2988</ele>
<time>2016-10-08T10:44:13Z</time>
</trkpt>
<trkpt lat="36.770538330078125" lon="-118.34883117675781">
<ele>2994</ele>
<time>2016-10-08T10:44:19Z</time>
</trkpt>
<trkpt lat="36.77046585083008" lon="-118.34879302978516">
<ele>2997</ele>
<time>2016-10-08T10:44:29Z</time>
</trkpt>
<trkpt lat="36.770389556884766" lon="-118.3487319946289">
<ele>2994</ele>
<time>2016-10-08T10:44:35Z</time>
</trkpt>
<trkpt lat="36.770267486572266" lon="-118.34869384765625">
<ele>2995</ele>
<time>2016-10-08T10:44:43Z</time>
</trkpt>
<trkpt lat="36.77016067504883" lon="-118.34867858886719">
<ele>2995</ele>
<time>2016-10-08T10:44:50Z</time>
</trkpt>
<trkpt lat="36.770118713378906" lon="-118.34870147705078">
<ele>2996</ele>
<time>2016-10-08T10:44:57Z</time>
</trkpt>
<trkpt lat="36.77014923095703" lon="-118.3487548828125">
<ele>2996</ele>
<time>2016-10-08T10:45:07Z</time>
</trkpt>
<trkpt lat="36.770240783691406" lon="-118.34878540039063">
<ele>2996</ele>
<time>2016-10-08T10:45:16Z</time>
</trkpt>
<trkpt lat="36.77028274536133" lon="-118.34883117675781">
<ele>2999</ele>
<time>2016-10-08T10:45:22Z</time>
</trkpt>
<trkpt lat="36.77031707763672" lon="-118.34886932373047">
<ele>3004</ele>
<time>2016-10-08T10:45:28Z</time>
</trkpt>
<trkpt lat="36.770362854003906" lon="-118.3488998413086">
<ele>3004</ele>
<time>2016-10-08T10:45:36Z</time>
</trkpt>
<trkpt lat="36.770450592041016" lon="-118.34891510009766">
<ele>3008</ele>
<time>2016-10-08T10:45:45Z</time>
</trkpt>
<trkpt lat="36.77047348022461" lon="-118.34898376464844">
<ele>3006</ele>
<time>2016-10-08T10:45:58Z</time>
</trkpt>
<trkpt lat="36.7703971862793" lon="-118.34906005859375">
<ele>3001</ele>
<time>2016-10-08T10:46:06Z</time>
</trkpt>
<trkpt lat="36.770294189453125" lon="-118.3490982055664">
<ele>3000</ele>
<time>2016-10-08T10:46:15Z</time>
</trkpt>
<trkpt lat="36.77019119262695" lon="-118.34910583496094">
<ele>3002</ele>
<time>2016-10-08T10:46:23Z</time>
</trkpt>
<trkpt lat="36.77010726928711" lon="-118.34906768798828">
<ele>3005</ele>
<time>2016-10-08T10:46:36Z</time>
</trkpt>
<trkpt lat="36.77014923095703" lon="-118.34912872314453">
<ele>3008</ele>
<time>2016-10-08T10:46:54Z</time>
</trkpt>
<trkpt lat="36.77019500732422" lon="-118.3491439819336">
<ele>3017</ele>
<time>2016-10-08T10:47:02Z</time>
</trkpt>
<trkpt lat="36.770145416259766" lon="-118.34916687011719">
<ele>3015</ele>
<time>2016-10-08T10:47:10Z</time>
</trkpt>
<trkpt lat="36.7700309753418" lon="-118.34921264648438">
<ele>3017</ele>
<time>2016-10-08T10:47:16Z</time>
</trkpt>
<trkpt lat="36.76994705200195" lon="-118.34919738769531">
<ele>3017</ele>
<time>2016-10-08T10:47:27Z</time>
</trkpt>
<trkpt lat="36.769927978515625" lon="-118.34925079345703">
<ele>3018</ele>
<time>2016-10-08T10:47:36Z</time>
</trkpt>
<trkpt lat="36.76998519897461" lon="-118.34931182861328">
<ele>3014</ele>
<time>2016-10-08T10:47:45Z</time>
</trkpt>
<trkpt lat="36.77008819580078" lon="-118.349365234375">
<ele>3011</ele>
<time>2016-10-08T10:47:57Z</time>
</trkpt>
<trkpt lat="36.77018356323242" lon="-118.34932708740234">
<ele>3012</ele>
<time>2016-10-08T10:48:07Z</time>
</trkpt>
<trkpt lat="36.770164489746094" lon="-118.34941101074219">
<ele>3015</ele>
<time>2016-10-08T10:48:21Z</time>
</trkpt>
<trkpt lat="36.770118713378906" lon="-118.34951782226563">
<ele>3018</ele>
<time>2016-10-08T10:48:30Z</time>
</trkpt>
<trkpt lat="36.770023345947266" lon="-118.34955596923828">
<ele>3019</ele>
<time>2016-10-08T10:48:38Z</time>
</trkpt>
<trkpt lat="36.76995086669922" lon="-118.34960174560547">
<ele>3016</ele>
<time>2016-10-08T10:48:45Z</time>
</trkpt>
<trkpt lat="36.769866943359375" lon="-118.34966278076172">
<ele>3018</ele>
<time>2016-10-08T10:48:52Z</time>
</trkpt>
<trkpt lat="36.76979446411133" lon="-118.34974670410156">
<ele>3017</ele>
<time>2016-10-08T10:49:02Z</time>
</trkpt>
<trkpt lat="36.769832611083984" lon="-118.34979248046875">
<ele>3020</ele>
<time>2016-10-08T10:49:08Z</time>
</trkpt>
<trkpt lat="36.769935607910156" lon="-118.34976959228516">
<ele>3023</ele>
<time>2016-10-08T10:49:17Z</time>
</trkpt>
<trkpt lat="36.770023345947266" lon="-118.34973907470703">
<ele>3022</ele>
<time>2016-10-08T10:49:25Z</time>
</trkpt>
<trkpt lat="36.770118713378906" lon="-118.3497085571289">
<ele>3027</ele>
<time>2016-10-08T10:49:34Z</time>
</trkpt>
<trkpt lat="36.77019500732422" lon="-118.3497085571289">
<ele>3026</ele>
<time>2016-10-08T10:49:40Z</time>
</trkpt>
<trkpt lat="36.7702522277832" lon="-118.3497085571289">
<ele>3028</ele>
<time>2016-10-08T10:49:46Z</time>
</trkpt>
<trkpt lat="36.77029800415039" lon="-118.34969329833984">
<ele>3026</ele>
<time>2016-10-08T10:49:52Z</time>
</trkpt>
<trkpt lat="36.77024841308594" lon="-118.34978485107422">
<ele>3028</ele>
<time>2016-10-08T10:50:02Z</time>
</trkpt>
<trkpt lat="36.77022171020508" lon="-118.34984588623047">
<ele>3029</ele>
<time>2016-10-08T10:50:08Z</time>
</trkpt>
<trkpt lat="36.770164489746094" lon="-118.34993743896484">
<ele>3032</ele>
<time>2016-10-08T10:50:18Z</time>
</trkpt>
<trkpt lat="36.770103454589844" lon="-118.35002136230469">
<ele>3033</ele>
<time>2016-10-08T10:50:28Z</time>
</trkpt>
<trkpt lat="36.77009582519531" lon="-118.35014343261719">
<ele>3035</ele>
<time>2016-10-08T10:50:38Z</time>
</trkpt>
<trkpt lat="36.770103454589844" lon="-118.35023498535156">
<ele>3036</ele>
<time>2016-10-08T10:50:44Z</time>
</trkpt>
<trkpt lat="36.770172119140625" lon="-118.3503189086914">
<ele>3039</ele>
<time>2016-10-08T10:50:52Z</time>
</trkpt>
<trkpt lat="36.770259857177734" lon="-118.35025787353516">
<ele>3040</ele>
<time>2016-10-08T10:51:02Z</time>
</trkpt>
<trkpt lat="36.77030563354492" lon="-118.3502197265625">
<ele>3038</ele>
<time>2016-10-08T10:51:10Z</time>
</trkpt>
<trkpt lat="36.7703971862793" lon="-118.35018157958984">
<ele>3039</ele>
<time>2016-10-08T10:51:18Z</time>
</trkpt>
<trkpt lat="36.77046203613281" lon="-118.35020446777344">
<ele>3041</ele>
<time>2016-10-08T10:51:30Z</time>
</trkpt>
<trkpt lat="36.770530700683594" lon="-118.35011291503906">
<ele>3042</ele>
<time>2016-10-08T10:51:39Z</time>
</trkpt>
<trkpt lat="36.77058029174805" lon="-118.35011291503906">
<ele>3039</ele>
<time>2016-10-08T10:51:45Z</time>
</trkpt>
<trkpt lat="36.77067565917969" lon="-118.35005187988281">
<ele>3043</ele>
<time>2016-10-08T10:51:53Z</time>
</trkpt>
<trkpt lat="36.77076721191406" lon="-118.35001373291016">
<ele>3046</ele>
<time>2016-10-08T10:52:00Z</time>
</trkpt>
<trkpt lat="36.770816802978516" lon="-118.35002136230469">
<ele>3044</ele>
<time>2016-10-08T10:52:06Z</time>
</trkpt>
<trkpt lat="36.77085876464844" lon="-118.35005187988281">
<ele>3043</ele>
<time>2016-10-08T10:52:13Z</time>
</trkpt>
<trkpt lat="36.77090072631836" lon="-118.35009765625">
<ele>3039</ele>
<time>2016-10-08T10:52:19Z</time>
</trkpt>
<trkpt lat="36.77095413208008" lon="-118.35010528564453">
<ele>3037</ele>
<time>2016-10-08T10:52:25Z</time>
</trkpt>
<trkpt lat="36.77104187011719" lon="-118.35016632080078">
<ele>3039</ele>
<time>2016-10-08T10:52:32Z</time>
</trkpt>
<trkpt lat="36.771114349365234" lon="-118.3502426147461">
<ele>3040</ele>
<time>2016-10-08T10:52:40Z</time>
</trkpt>
<trkpt lat="36.771156311035156" lon="-118.35028076171875">
<ele>3037</ele>
<time>2016-10-08T10:52:46Z</time>
</trkpt>
<trkpt lat="36.77117919921875" lon="-118.35033416748047">
<ele>3044</ele>
<time>2016-10-08T10:52:54Z</time>
</trkpt>
<trkpt lat="36.77106857299805" lon="-118.35038757324219">
<ele>3048</ele>
<time>2016-10-08T10:53:04Z</time>
</trkpt>
<trkpt lat="36.7709846496582" lon="-118.35043334960938">
<ele>3049</ele>
<time>2016-10-08T10:53:10Z</time>
</trkpt>
<trkpt lat="36.770877838134766" lon="-118.35044860839844">
<ele>3051</ele>
<time>2016-10-08T10:53:17Z</time>
</trkpt>
<trkpt lat="36.770851135253906" lon="-118.35054016113281">
<ele>3051</ele>
<time>2016-10-08T10:53:27Z</time>
</trkpt>
<trkpt lat="36.77094268798828" lon="-118.35060119628906">
<ele>3047</ele>
<time>2016-10-08T10:53:35Z</time>
</trkpt>
<trkpt lat="36.770999908447266" lon="-118.3507080078125">
<ele>3053</ele>
<time>2016-10-08T10:53:45Z</time>
</trkpt>
<trkpt lat="36.77106475830078" lon="-118.35081481933594">
<ele>3053</ele>
<time>2016-10-08T10:53:53Z</time>
</trkpt>
<trkpt lat="36.7711296081543" lon="-118.35090637207031">
<ele>3051</ele>
<time>2016-10-08T10:54:00Z</time>
</trkpt>
<trkpt lat="36.77120590209961" lon="-118.35096740722656">
<ele>3053</ele>
<time>2016-10-08T10:54:12Z</time>
</trkpt>
<trkpt lat="36.7712516784668" lon="-118.35099029541016">
<ele>3057</ele>
<time>2016-10-08T10:54:19Z</time>
</trkpt>
<trkpt lat="36.7713623046875" lon="-118.35098266601563">
<ele>3055</ele>
<time>2016-10-08T10:54:27Z</time>
</trkpt>
<trkpt lat="36.771461486816406" lon="-118.35102081298828">
<ele>3054</ele>
<time>2016-10-08T10:54:36Z</time>
</trkpt>
<trkpt lat="36.77143478393555" lon="-118.35112762451172">
<ele>3051</ele>
<time>2016-10-08T10:54:45Z</time>
</trkpt>
<trkpt lat="36.771366119384766" lon="-118.35121154785156">
<ele>3054</ele>
<time>2016-10-08T10:54:54Z</time>
</trkpt>
<trkpt lat="36.77127456665039" lon="-118.35128021240234">
<ele>3058</ele>
<time>2016-10-08T10:55:03Z</time>
</trkpt>
<trkpt lat="36.771209716796875" lon="-118.35137939453125">
<ele>3059</ele>
<time>2016-10-08T10:55:11Z</time>
</trkpt>
<trkpt lat="36.771121978759766" lon="-118.35143280029297">
<ele>3062</ele>
<time>2016-10-08T10:55:21Z</time>
</trkpt>
<trkpt lat="36.77103805541992" lon="-118.35147857666016">
<ele>3065</ele>
<time>2016-10-08T10:55:30Z</time>
</trkpt>
<trkpt lat="36.770965576171875" lon="-118.3515396118164">
<ele>3067</ele>
<time>2016-10-08T10:55:40Z</time>
</trkpt>
<trkpt lat="36.77091598510742" lon="-118.35157012939453">
<ele>3070</ele>
<time>2016-10-08T10:55:46Z</time>
</trkpt>
<trkpt lat="36.77081298828125" lon="-118.35162353515625">
<ele>3072</ele>
<time>2016-10-08T10:55:53Z</time>
</trkpt>
<trkpt lat="36.770721435546875" lon="-118.35166931152344">
<ele>3081</ele>
<time>2016-10-08T10:56:01Z</time>
</trkpt>
<trkpt lat="36.770626068115234" lon="-118.3516845703125">
<ele>3078</ele>
<time>2016-10-08T10:56:10Z</time>
</trkpt>
<trkpt lat="36.77054977416992" lon="-118.35173034667969">
<ele>3080</ele>
<time>2016-10-08T10:56:19Z</time>
</trkpt>
<trkpt lat="36.77058792114258" lon="-118.3517837524414">
<ele>3075</ele>
<time>2016-10-08T10:56:28Z</time>
</trkpt>
<trkpt lat="36.770668029785156" lon="-118.35184478759766">
<ele>3074</ele>
<time>2016-10-08T10:56:36Z</time>
</trkpt>
<trkpt lat="36.77071762084961" lon="-118.35189056396484">
<ele>3076</ele>
<time>2016-10-08T10:56:48Z</time>
</trkpt>
<trkpt lat="36.77063751220703" lon="-118.35196685791016">
<ele>3079</ele>
<time>2016-10-08T10:56:56Z</time>
</trkpt>
<trkpt lat="36.77056121826172" lon="-118.3520278930664">
<ele>3077</ele>
<time>2016-10-08T10:57:04Z</time>
</trkpt>
<trkpt lat="36.77064895629883" lon="-118.35201263427734">
<ele>3074</ele>
<time>2016-10-08T10:57:12Z</time>
</trkpt>
<trkpt lat="36.7707405090332" lon="-118.35198974609375">
<ele>3078</ele>
<time>2016-10-08T10:57:21Z</time>
</trkpt>
<trkpt lat="36.77083969116211" lon="-118.35196685791016">
<ele>3079</ele>
<time>2016-10-08T10:57:30Z</time>
</trkpt>
<trkpt lat="36.770938873291016" lon="-118.3519287109375">
<ele>3083</ele>
<time>2016-10-08T10:57:38Z</time>
</trkpt>
<trkpt lat="36.77101516723633" lon="-118.35189056396484">
<ele>3086</ele>
<time>2016-10-08T10:57:45Z</time>
</trkpt>
<trkpt lat="36.7711181640625" lon="-118.35185241699219">
<ele>3089</ele>
<time>2016-10-08T10:57:52Z</time>
</trkpt>
<trkpt lat="36.77111053466797" lon="-118.35191345214844">
<ele>3084</ele>
<time>2016-10-08T10:58:03Z</time>
</trkpt>
<trkpt lat="36.77103042602539" lon="-118.35199737548828">
<ele>3079</ele>
<time>2016-10-08T10:58:11Z</time>
</trkpt>
<trkpt lat="36.77094268798828" lon="-118.35209655761719">
<ele>3090</ele>
<time>2016-10-08T10:58:20Z</time>
</trkpt>
<trkpt lat="36.77089309692383" lon="-118.35221862792969">
<ele>3088</ele>
<time>2016-10-08T10:58:27Z</time>
</trkpt>
<trkpt lat="36.7708740234375" lon="-118.35227966308594">
<ele>3088</ele>
<time>2016-10-08T10:58:33Z</time>
</trkpt>
<trkpt lat="36.770809173583984" lon="-118.35235595703125">
<ele>3092</ele>
<time>2016-10-08T10:58:40Z</time>
</trkpt>
<trkpt lat="36.77077865600586" lon="-118.35240173339844">
<ele>3095</ele>
<time>2016-10-08T10:58:46Z</time>
</trkpt>
<trkpt lat="36.77070617675781" lon="-118.35247802734375">
<ele>3095</ele>
<time>2016-10-08T10:58:56Z</time>
</trkpt>
<trkpt lat="36.77064895629883" lon="-118.35257720947266">
<ele>3093</ele>
<time>2016-10-08T10:59:06Z</time>
</trkpt>
<trkpt lat="36.770572662353516" lon="-118.35266876220703">
<ele>3092</ele>
<time>2016-10-08T10:59:17Z</time>
</trkpt>
<trkpt lat="36.77052307128906" lon="-118.35269927978516">
<ele>3094</ele>
<time>2016-10-08T10:59:23Z</time>
</trkpt>
<trkpt lat="36.77056121826172" lon="-118.35275268554688">
<ele>3097</ele>
<time>2016-10-08T10:59:40Z</time>
</trkpt>
<trkpt lat="36.770652770996094" lon="-118.35270690917969">
<ele>3102</ele>
<time>2016-10-08T10:59:48Z</time>
</trkpt>
<trkpt lat="36.770755767822266" lon="-118.35266876220703">
<ele>3105</ele>
<time>2016-10-08T10:59:57Z</time>
</trkpt>
<trkpt lat="36.770851135253906" lon="-118.35265350341797">
<ele>3105</ele>
<time>2016-10-08T11:00:06Z</time>
</trkpt>
<trkpt lat="36.770782470703125" lon="-118.35272216796875">
<ele>3117</ele>
<time>2016-10-08T11:00:29Z</time>
</trkpt>
<trkpt lat="36.7707633972168" lon="-118.352783203125">
<ele>3112</ele>
<time>2016-10-08T11:00:36Z</time>
</trkpt>
<trkpt lat="36.77070236206055" lon="-118.3528823852539">
<ele>3109</ele>
<time>2016-10-08T11:00:46Z</time>
</trkpt>
<trkpt lat="36.770606994628906" lon="-118.35294342041016">
<ele>3112</ele>
<time>2016-10-08T11:00:54Z</time>
</trkpt>
<trkpt lat="36.770530700683594" lon="-118.35302734375">
<ele>3112</ele>
<time>2016-10-08T11:01:01Z</time>
</trkpt>
<trkpt lat="36.77045440673828" lon="-118.35309600830078">
<ele>3112</ele>
<time>2016-10-08T11:01:12Z</time>
</trkpt>
<trkpt lat="36.770503997802734" lon="-118.35311126708984">
<ele>3112</ele>
<time>2016-10-08T11:01:24Z</time>
</trkpt>
<trkpt lat="36.77059555053711" lon="-118.35305786132813">
<ele>3122</ele>
<time>2016-10-08T11:01:33Z</time>
</trkpt>
<trkpt lat="36.77067184448242" lon="-118.35307312011719">
<ele>3120</ele>
<time>2016-10-08T11:01:57Z</time>
</trkpt>
<trkpt lat="36.77067565917969" lon="-118.35313415527344">
<ele>3120</ele>
<time>2016-10-08T11:02:07Z</time>
</trkpt>
<trkpt lat="36.77072525024414" lon="-118.3531494140625">
<ele>3119</ele>
<time>2016-10-08T11:02:15Z</time>
</trkpt>
<trkpt lat="36.77075958251953" lon="-118.35318756103516">
<ele>3123</ele>
<time>2016-10-08T11:02:23Z</time>
</trkpt>
<trkpt lat="36.770782470703125" lon="-118.3532485961914">
<ele>3124</ele>
<time>2016-10-08T11:02:30Z</time>
</trkpt>
<trkpt lat="36.770721435546875" lon="-118.35334014892578">
<ele>3128</ele>
<time>2016-10-08T11:02:37Z</time>
</trkpt>
<trkpt lat="36.77065658569336" lon="-118.3533935546875">
<ele>3129</ele>
<time>2016-10-08T11:02:46Z</time>
</trkpt>
<trkpt lat="36.770626068115234" lon="-118.35350799560547">
<ele>3130</ele>
<time>2016-10-08T11:02:57Z</time>
</trkpt>
<trkpt lat="36.77065658569336" lon="-118.35354614257813">
<ele>3130</ele>
<time>2016-10-08T11:03:23Z</time>
</trkpt>
<trkpt lat="36.77056884765625" lon="-118.35358428955078">
<ele>3130</ele>
<time>2016-10-08T11:03:57Z</time>
</trkpt>
<trkpt lat="36.7704963684082" lon="-118.3536605834961">
<ele>3129</ele>
<time>2016-10-08T11:04:08Z</time>
</trkpt>
<trkpt lat="36.77043151855469" lon="-118.35375213623047">
<ele>3129</ele>
<time>2016-10-08T11:04:19Z</time>
</trkpt>
<trkpt lat="36.7703857421875" lon="-118.35386657714844">
<ele>3125</ele>
<time>2016-10-08T11:04:31Z</time>
</trkpt>
<trkpt lat="36.77032470703125" lon="-118.35394287109375">
<ele>3128</ele>
<time>2016-10-08T11:04:40Z</time>
</trkpt>
<trkpt lat="36.77031707763672" lon="-118.35399627685547">
<ele>3133</ele>
<time>2016-10-08T11:04:47Z</time>
</trkpt>
<trkpt lat="36.77030944824219" lon="-118.35405731201172">
<ele>3131</ele>
<time>2016-10-08T11:04:53Z</time>
</trkpt>
<trkpt lat="36.770286560058594" lon="-118.35418701171875">
<ele>3132</ele>
<time>2016-10-08T11:05:04Z</time>
</trkpt>
<trkpt lat="36.770259857177734" lon="-118.354248046875">
<ele>3134</ele>
<time>2016-10-08T11:05:10Z</time>
</trkpt>
<trkpt lat="36.77022171020508" lon="-118.35428619384766">
<ele>3137</ele>
<time>2016-10-08T11:05:16Z</time>
</trkpt>
<trkpt lat="36.7701530456543" lon="-118.35438537597656">
<ele>3137</ele>
<time>2016-10-08T11:05:24Z</time>
</trkpt>
<trkpt lat="36.77012252807617" lon="-118.35444641113281">
<ele>3139</ele>
<time>2016-10-08T11:05:30Z</time>
</trkpt>
<trkpt lat="36.770084381103516" lon="-118.35456085205078">
<ele>3138</ele>
<time>2016-10-08T11:05:40Z</time>
</trkpt>
<trkpt lat="36.77002716064453" lon="-118.35466003417969">
<ele>3134</ele>
<time>2016-10-08T11:05:50Z</time>
</trkpt>
<trkpt lat="36.770023345947266" lon="-118.35479736328125">
<ele>3133</ele>
<time>2016-10-08T11:05:59Z</time>
</trkpt>
<trkpt lat="36.77004623413086" lon="-118.35492706298828">
<ele>3136</ele>
<time>2016-10-08T11:06:06Z</time>
</trkpt>
<trkpt lat="36.770145416259766" lon="-118.3550033569336">
<ele>3128</ele>
<time>2016-10-08T11:06:13Z</time>
</trkpt>
<trkpt lat="36.770145416259766" lon="-118.35511779785156">
<ele>3132</ele>
<time>2016-10-08T11:06:25Z</time>
</trkpt>
<trkpt lat="36.770137786865234" lon="-118.35523223876953">
<ele>3131</ele>
<time>2016-10-08T11:07:25Z</time>
</trkpt>
<trkpt lat="36.7701530456543" lon="-118.3553466796875">
<ele>3131</ele>
<time>2016-10-08T11:07:32Z</time>
</trkpt>
<trkpt lat="36.77012634277344" lon="-118.35547637939453">
<ele>3128</ele>
<time>2016-10-08T11:07:38Z</time>
</trkpt>
<trkpt lat="36.77017593383789" lon="-118.35555267333984">
<ele>3121</ele>
<time>2016-10-08T11:07:44Z</time>
</trkpt>
<trkpt lat="36.770259857177734" lon="-118.35565948486328">
<ele>3117</ele>
<time>2016-10-08T11:07:50Z</time>
</trkpt>
<trkpt lat="36.77032470703125" lon="-118.35575103759766">
<ele>3115</ele>
<time>2016-10-08T11:07:56Z</time>
</trkpt>
<trkpt lat="36.7703857421875" lon="-118.35585021972656">
<ele>3122</ele>
<time>2016-10-08T11:08:04Z</time>
</trkpt>
<trkpt lat="36.77043533325195" lon="-118.35595703125">
<ele>3123</ele>
<time>2016-10-08T11:08:12Z</time>
</trkpt>
<trkpt lat="36.770469665527344" lon="-118.35606384277344">
<ele>3129</ele>
<time>2016-10-08T11:08:19Z</time>
</trkpt>
<trkpt lat="36.770484924316406" lon="-118.35618591308594">
<ele>3131</ele>
<time>2016-10-08T11:08:26Z</time>
</trkpt>
<trkpt lat="36.77058029174805" lon="-118.35626983642578">
<ele>3132</ele>
<time>2016-10-08T11:08:32Z</time>
</trkpt>
<trkpt lat="36.77066421508789" lon="-118.35635375976563">
<ele>3137</ele>
<time>2016-10-08T11:08:39Z</time>
</trkpt>
<trkpt lat="36.77073669433594" lon="-118.35647583007813">
<ele>3135</ele>
<time>2016-10-08T11:08:48Z</time>
</trkpt>
<trkpt lat="36.77074432373047" lon="-118.35660552978516">
<ele>3142</ele>
<time>2016-10-08T11:08:55Z</time>
</trkpt>
<trkpt lat="36.77074432373047" lon="-118.35674285888672">
<ele>3149</ele>
<time>2016-10-08T11:09:03Z</time>
</trkpt>
<trkpt lat="36.770713806152344" lon="-118.35686492919922">
<ele>3149</ele>
<time>2016-10-08T11:09:11Z</time>
</trkpt>
<trkpt lat="36.7706413269043" lon="-118.35694885253906">
<ele>3146</ele>
<time>2016-10-08T11:09:18Z</time>
</trkpt>
<trkpt lat="36.77055358886719" lon="-118.35704803466797">
<ele>3142</ele>
<time>2016-10-08T11:09:26Z</time>
</trkpt>
<trkpt lat="36.77046585083008" lon="-118.35714721679688">
<ele>3145</ele>
<time>2016-10-08T11:09:35Z</time>
</trkpt>
<trkpt lat="36.77036666870117" lon="-118.35723114013672">
<ele>3148</ele>
<time>2016-10-08T11:09:44Z</time>
</trkpt>
<trkpt lat="36.77027130126953" lon="-118.35724639892578">
<ele>3148</ele>
<time>2016-10-08T11:09:58Z</time>
</trkpt>
<trkpt lat="36.77018737792969" lon="-118.35729217529297">
<ele>3148</ele>
<time>2016-10-08T11:10:07Z</time>
</trkpt>
<trkpt lat="36.770145416259766" lon="-118.3573989868164">
<ele>3147</ele>
<time>2016-10-08T11:10:15Z</time>
</trkpt>
<trkpt lat="36.77008056640625" lon="-118.35748291015625">
<ele>3144</ele>
<time>2016-10-08T11:10:25Z</time>
</trkpt>
<trkpt lat="36.769996643066406" lon="-118.3575439453125">
<ele>3147</ele>
<time>2016-10-08T11:10:34Z</time>
</trkpt>
<trkpt lat="36.76991653442383" lon="-118.35761260986328">
<ele>3146</ele>
<time>2016-10-08T11:10:40Z</time>
</trkpt>
<trkpt lat="36.76985549926758" lon="-118.35773468017578">
<ele>3147</ele>
<time>2016-10-08T11:10:47Z</time>
</trkpt>
<trkpt lat="36.76982498168945" lon="-118.35784912109375">
<ele>3145</ele>
<time>2016-10-08T11:10:53Z</time>
</trkpt>
<trkpt lat="36.769775390625" lon="-118.35795593261719">
<ele>3143</ele>
<time>2016-10-08T11:11:04Z</time>
</trkpt>
<trkpt lat="36.76969528198242" lon="-118.3580093383789">
<ele>3148</ele>
<time>2016-10-08T11:11:12Z</time>
</trkpt>
<trkpt lat="36.769649505615234" lon="-118.35803985595703">
<ele>3151</ele>
<time>2016-10-08T11:11:18Z</time>
</trkpt>
<trkpt lat="36.76961898803711" lon="-118.35808563232422">
<ele>3153</ele>
<time>2016-10-08T11:11:25Z</time>
</trkpt>
<trkpt lat="36.76953125" lon="-118.35814666748047">
<ele>3159</ele>
<time>2016-10-08T11:11:38Z</time>
</trkpt>
<trkpt lat="36.76948165893555" lon="-118.35823822021484">
<ele>3158</ele>
<time>2016-10-08T11:11:44Z</time>
</trkpt>
<trkpt lat="36.76942825317383" lon="-118.35834503173828">
<ele>3157</ele>
<time>2016-10-08T11:11:54Z</time>
</trkpt>
<trkpt lat="36.76936340332031" lon="-118.35842895507813">
<ele>3162</ele>
<time>2016-10-08T11:12:03Z</time>
</trkpt>
<trkpt lat="36.76931381225586" lon="-118.35853576660156">
<ele>3163</ele>
<time>2016-10-08T11:12:10Z</time>
</trkpt>
<trkpt lat="36.76929473876953" lon="-118.3586654663086">
<ele>3165</ele>
<time>2016-10-08T11:12:20Z</time>
</trkpt>
<trkpt lat="36.76925277709961" lon="-118.35877227783203">
<ele>3163</ele>
<time>2016-10-08T11:12:28Z</time>
</trkpt>
<trkpt lat="36.76926803588867" lon="-118.35889434814453">
<ele>3166</ele>
<time>2016-10-08T11:12:40Z</time>
</trkpt>
<trkpt lat="36.7691764831543" lon="-118.35894775390625">
<ele>3169</ele>
<time>2016-10-08T11:12:46Z</time>
</trkpt>
<trkpt lat="36.769107818603516" lon="-118.35902404785156">
<ele>3168</ele>
<time>2016-10-08T11:12:55Z</time>
</trkpt>
<trkpt lat="36.76911544799805" lon="-118.35913848876953">
<ele>3169</ele>
<time>2016-10-08T11:13:07Z</time>
</trkpt>
<trkpt lat="36.76912307739258" lon="-118.35919952392578">
<ele>3165</ele>
<time>2016-10-08T11:13:14Z</time>
</trkpt>
<trkpt lat="36.76913070678711" lon="-118.35932922363281">
<ele>3164</ele>
<time>2016-10-08T11:13:22Z</time>
</trkpt>
<trkpt lat="36.7691650390625" lon="-118.35944366455078">
<ele>3166</ele>
<time>2016-10-08T11:13:32Z</time>
</trkpt>
<trkpt lat="36.76918029785156" lon="-118.35954284667969">
<ele>3165</ele>
<time>2016-10-08T11:13:40Z</time>
</trkpt>
<trkpt lat="36.76919937133789" lon="-118.35965728759766">
<ele>3169</ele>
<time>2016-10-08T11:13:47Z</time>
</trkpt>
<trkpt lat="36.769222259521484" lon="-118.35970306396484">
<ele>3171</ele>
<time>2016-10-08T11:13:53Z</time>
</trkpt>
<trkpt lat="36.769222259521484" lon="-118.3597640991211">
<ele>3171</ele>
<time>2016-10-08T11:13:59Z</time>
</trkpt>
<trkpt lat="36.76929473876953" lon="-118.35984802246094">
<ele>3178</ele>
<time>2016-10-08T11:14:08Z</time>
</trkpt>
<trkpt lat="36.76930618286133" lon="-118.35990905761719">
<ele>3179</ele>
<time>2016-10-08T11:14:33Z</time>
</trkpt>
<trkpt lat="36.769256591796875" lon="-118.35992431640625">
<ele>3185</ele>
<time>2016-10-08T11:15:16Z</time>
</trkpt>
<trkpt lat="36.76929473876953" lon="-118.35997772216797">
<ele>3182</ele>
<time>2016-10-08T11:15:23Z</time>
</trkpt>
<trkpt lat="36.76933670043945" lon="-118.3600082397461">
<ele>3184</ele>
<time>2016-10-08T11:15:32Z</time>
</trkpt>
<trkpt lat="36.76936340332031" lon="-118.36006164550781">
<ele>3186</ele>
<time>2016-10-08T11:15:38Z</time>
</trkpt>
<trkpt lat="36.7694091796875" lon="-118.3601303100586">
<ele>3180</ele>
<time>2016-10-08T11:15:44Z</time>
</trkpt>
<trkpt lat="36.76947021484375" lon="-118.36023712158203">
<ele>3180</ele>
<time>2016-10-08T11:15:54Z</time>
</trkpt>
<trkpt lat="36.769493103027344" lon="-118.36029052734375">
<ele>3178</ele>
<time>2016-10-08T11:16:02Z</time>
</trkpt>
<trkpt lat="36.769535064697266" lon="-118.3602523803711">
<ele>3187</ele>
<time>2016-10-08T11:16:12Z</time>
</trkpt>
<trkpt lat="36.76960372924805" lon="-118.36016845703125">
<ele>3181</ele>
<time>2016-10-08T11:16:19Z</time>
</trkpt>
<trkpt lat="36.7696533203125" lon="-118.36005401611328">
<ele>3181</ele>
<time>2016-10-08T11:16:29Z</time>
</trkpt>
<trkpt lat="36.769718170166016" lon="-118.35993957519531">
<ele>3185</ele>
<time>2016-10-08T11:16:38Z</time>
</trkpt>
<trkpt lat="36.76976013183594" lon="-118.35986328125">
<ele>3190</ele>
<time>2016-10-08T11:16:44Z</time>
</trkpt>
<trkpt lat="36.76982498168945" lon="-118.35992431640625">
<ele>3184</ele>
<time>2016-10-08T11:17:00Z</time>
</trkpt>
<trkpt lat="36.76982498168945" lon="-118.36003112792969">
<ele>3185</ele>
<time>2016-10-08T11:17:09Z</time>
</trkpt>
<trkpt lat="36.76985549926758" lon="-118.36014556884766">
<ele>3186</ele>
<time>2016-10-08T11:17:16Z</time>
</trkpt>
<trkpt lat="36.7698974609375" lon="-118.36024475097656">
<ele>3185</ele>
<time>2016-10-08T11:17:27Z</time>
</trkpt>
<trkpt lat="36.769920349121094" lon="-118.36029815673828">
<ele>3188</ele>
<time>2016-10-08T11:17:33Z</time>
</trkpt>
<trkpt lat="36.769954681396484" lon="-118.36035919189453">
<ele>3187</ele>
<time>2016-10-08T11:17:40Z</time>
</trkpt>
<trkpt lat="36.76997756958008" lon="-118.36041259765625">
<ele>3185</ele>
<time>2016-10-08T11:17:47Z</time>
</trkpt>
<trkpt lat="36.770015716552734" lon="-118.36053466796875">
<ele>3189</ele>
<time>2016-10-08T11:17:55Z</time>
</trkpt>
<trkpt lat="36.77005386352539" lon="-118.36064147949219">
<ele>3193</ele>
<time>2016-10-08T11:18:01Z</time>
</trkpt>
<trkpt lat="36.77006530761719" lon="-118.36077117919922">
<ele>3192</ele>
<time>2016-10-08T11:18:11Z</time>
</trkpt>
<trkpt lat="36.77008819580078" lon="-118.36090087890625">
<ele>3193</ele>
<time>2016-10-08T11:18:20Z</time>
</trkpt>
<trkpt lat="36.77013397216797" lon="-118.36100769042969">
<ele>3195</ele>
<time>2016-10-08T11:18:29Z</time>
</trkpt>
<trkpt lat="36.7701530456543" lon="-118.36106872558594">
<ele>3199</ele>
<time>2016-10-08T11:18:35Z</time>
</trkpt>
<trkpt lat="36.77018737792969" lon="-118.36119842529297">
<ele>3198</ele>
<time>2016-10-08T11:18:43Z</time>
</trkpt>
<trkpt lat="36.77021789550781" lon="-118.36123657226563">
<ele>3200</ele>
<time>2016-10-08T11:18:51Z</time>
</trkpt>
<trkpt lat="36.77025604248047" lon="-118.36119842529297">
<ele>3204</ele>
<time>2016-10-08T11:18:57Z</time>
</trkpt>
<trkpt lat="36.7702751159668" lon="-118.36114501953125">
<ele>3202</ele>
<time>2016-10-08T11:19:03Z</time>
</trkpt>
<trkpt lat="36.770286560058594" lon="-118.36109161376953">
<ele>3205</ele>
<time>2016-10-08T11:19:11Z</time>
</trkpt>
<trkpt lat="36.77030563354492" lon="-118.36103057861328">
<ele>3208</ele>
<time>2016-10-08T11:19:17Z</time>
</trkpt>
<trkpt lat="36.77033233642578" lon="-118.36097717285156">
<ele>3209</ele>
<time>2016-10-08T11:19:23Z</time>
</trkpt>
<trkpt lat="36.77035140991211" lon="-118.36091613769531">
<ele>3212</ele>
<time>2016-10-08T11:19:29Z</time>
</trkpt>
<trkpt lat="36.77035903930664" lon="-118.36078643798828">
<ele>3212</ele>
<time>2016-10-08T11:19:39Z</time>
</trkpt>
<trkpt lat="36.77036666870117" lon="-118.36064910888672">
<ele>3211</ele>
<time>2016-10-08T11:19:47Z</time>
</trkpt>
<trkpt lat="36.770362854003906" lon="-118.36051940917969">
<ele>3213</ele>
<time>2016-10-08T11:19:55Z</time>
</trkpt>
<trkpt lat="36.77035140991211" lon="-118.36045837402344">
<ele>3214</ele>
<time>2016-10-08T11:20:01Z</time>
</trkpt>
<trkpt lat="36.77035140991211" lon="-118.3603286743164">
<ele>3218</ele>
<time>2016-10-08T11:20:09Z</time>
</trkpt>
<trkpt lat="36.770362854003906" lon="-118.3602066040039">
<ele>3218</ele>
<time>2016-10-08T11:20:18Z</time>
</trkpt>
<trkpt lat="36.770408630371094" lon="-118.36024475097656">
<ele>3215</ele>
<time>2016-10-08T11:20:25Z</time>
</trkpt>
<trkpt lat="36.77045822143555" lon="-118.3603515625">
<ele>3216</ele>
<time>2016-10-08T11:20:35Z</time>
</trkpt>
<trkpt lat="36.77055740356445" lon="-118.36040496826172">
<ele>3216</ele>
<time>2016-10-08T11:20:45Z</time>
</trkpt>
<trkpt lat="36.77060317993164" lon="-118.36043548583984">
<ele>3219</ele>
<time>2016-10-08T11:20:54Z</time>
</trkpt>
<trkpt lat="36.770694732666016" lon="-118.36045837402344">
<ele>3223</ele>
<time>2016-10-08T11:21:05Z</time>
</trkpt>
<trkpt lat="36.770694732666016" lon="-118.36038970947266">
<ele>3222</ele>
<time>2016-10-08T11:21:12Z</time>
</trkpt>
<trkpt lat="36.77071762084961" lon="-118.36026763916016">
<ele>3220</ele>
<time>2016-10-08T11:21:21Z</time>
</trkpt>
<trkpt lat="36.7707405090332" lon="-118.36021423339844">
<ele>3221</ele>
<time>2016-10-08T11:21:27Z</time>
</trkpt>
<trkpt lat="36.77079391479492" lon="-118.36009979248047">
<ele>3228</ele>
<time>2016-10-08T11:21:36Z</time>
</trkpt>
<trkpt lat="36.770816802978516" lon="-118.35999298095703">
<ele>3229</ele>
<time>2016-10-08T11:21:45Z</time>
</trkpt>
<trkpt lat="36.77084732055664" lon="-118.35987091064453">
<ele>3228</ele>
<time>2016-10-08T11:21:55Z</time>
</trkpt>
<trkpt lat="36.770931243896484" lon="-118.35993957519531">
<ele>3232</ele>
<time>2016-10-08T11:22:05Z</time>
</trkpt>
<trkpt lat="36.77092361450195" lon="-118.36006927490234">
<ele>3229</ele>
<time>2016-10-08T11:22:12Z</time>
</trkpt>
<trkpt lat="36.77095031738281" lon="-118.36011505126953">
<ele>3226</ele>
<time>2016-10-08T11:22:19Z</time>
</trkpt>
<trkpt lat="36.7709846496582" lon="-118.3602294921875">
<ele>3228</ele>
<time>2016-10-08T11:22:27Z</time>
</trkpt>
<trkpt lat="36.771034240722656" lon="-118.3603515625">
<ele>3226</ele>
<time>2016-10-08T11:22:37Z</time>
</trkpt>
<trkpt lat="36.77103805541992" lon="-118.3604507446289">
<ele>3226</ele>
<time>2016-10-08T11:22:44Z</time>
</trkpt>
<trkpt lat="36.77103042602539" lon="-118.36051177978516">
<ele>3224</ele>
<time>2016-10-08T11:22:50Z</time>
</trkpt>
<trkpt lat="36.77102279663086" lon="-118.36064910888672">
<ele>3228</ele>
<time>2016-10-08T11:23:00Z</time>
</trkpt>
<trkpt lat="36.770965576171875" lon="-118.36077880859375">
<ele>3232</ele>
<time>2016-10-08T11:23:09Z</time>
</trkpt>
<trkpt lat="36.77097702026367" lon="-118.36090087890625">
<ele>3233</ele>
<time>2016-10-08T11:23:17Z</time>
</trkpt>
<trkpt lat="36.770957946777344" lon="-118.3609619140625">
<ele>3232</ele>
<time>2016-10-08T11:23:23Z</time>
</trkpt>
<trkpt lat="36.77099609375" lon="-118.36107635498047">
<ele>3237</ele>
<time>2016-10-08T11:23:30Z</time>
</trkpt>
<trkpt lat="36.771026611328125" lon="-118.36119079589844">
<ele>3235</ele>
<time>2016-10-08T11:23:38Z</time>
</trkpt>
<trkpt lat="36.77104187011719" lon="-118.36128234863281">
<ele>3238</ele>
<time>2016-10-08T11:23:45Z</time>
</trkpt>
<trkpt lat="36.77105712890625" lon="-118.36141204833984">
<ele>3245</ele>
<time>2016-10-08T11:23:55Z</time>
</trkpt>
<trkpt lat="36.771087646484375" lon="-118.36152648925781">
<ele>3247</ele>
<time>2016-10-08T11:24:06Z</time>
</trkpt>
<trkpt lat="36.771121978759766" lon="-118.36165618896484">
<ele>3254</ele>
<time>2016-10-08T11:24:14Z</time>
</trkpt>
<trkpt lat="36.7711067199707" lon="-118.36177062988281">
<ele>3255</ele>
<time>2016-10-08T11:24:23Z</time>
</trkpt>
<trkpt lat="36.77112579345703" lon="-118.3618392944336">
<ele>3255</ele>
<time>2016-10-08T11:24:29Z</time>
</trkpt>
<trkpt lat="36.77112579345703" lon="-118.3619613647461">
<ele>3254</ele>
<time>2016-10-08T11:24:37Z</time>
</trkpt>
<trkpt lat="36.7711181640625" lon="-118.36204528808594">
<ele>3256</ele>
<time>2016-10-08T11:24:44Z</time>
</trkpt>
<trkpt lat="36.771141052246094" lon="-118.36209869384766">
<ele>3255</ele>
<time>2016-10-08T11:24:51Z</time>
</trkpt>
<trkpt lat="36.771202087402344" lon="-118.36219024658203">
<ele>3254</ele>
<time>2016-10-08T11:25:00Z</time>
</trkpt>
<trkpt lat="36.77128601074219" lon="-118.36226654052734">
<ele>3254</ele>
<time>2016-10-08T11:25:12Z</time>
</trkpt>
<trkpt lat="36.77136993408203" lon="-118.3623275756836">
<ele>3255</ele>
<time>2016-10-08T11:25:21Z</time>
</trkpt>
<trkpt lat="36.771427154541016" lon="-118.36241912841797">
<ele>3254</ele>
<time>2016-10-08T11:25:31Z</time>
</trkpt>
<trkpt lat="36.771522521972656" lon="-118.36249542236328">
<ele>3257</ele>
<time>2016-10-08T11:25:40Z</time>
</trkpt>
<trkpt lat="36.77162170410156" lon="-118.36254119873047">
<ele>3259</ele>
<time>2016-10-08T11:25:49Z</time>
</trkpt>
<trkpt lat="36.771663665771484" lon="-118.36258697509766">
<ele>3260</ele>
<time>2016-10-08T11:25:55Z</time>
</trkpt>
<trkpt lat="36.771697998046875" lon="-118.36261749267578">
<ele>3255</ele>
<time>2016-10-08T11:26:01Z</time>
</trkpt>
<trkpt lat="36.77177047729492" lon="-118.36270141601563">
<ele>3252</ele>
<time>2016-10-08T11:26:09Z</time>
</trkpt>
<trkpt lat="36.77180480957031" lon="-118.36282348632813">
<ele>3261</ele>
<time>2016-10-08T11:26:17Z</time>
</trkpt>
<trkpt lat="36.771812438964844" lon="-118.36295318603516">
<ele>3267</ele>
<time>2016-10-08T11:26:25Z</time>
</trkpt>
<trkpt lat="36.77181625366211" lon="-118.36306762695313">
<ele>3264</ele>
<time>2016-10-08T11:26:33Z</time>
</trkpt>
<trkpt lat="36.77184295654297" lon="-118.36312103271484">
<ele>3267</ele>
<time>2016-10-08T11:26:39Z</time>
</trkpt>
<trkpt lat="36.77186584472656" lon="-118.3631820678711">
<ele>3269</ele>
<time>2016-10-08T11:26:48Z</time>
</trkpt>
<trkpt lat="36.77189254760742" lon="-118.36329650878906">
<ele>3268</ele>
<time>2016-10-08T11:26:57Z</time>
</trkpt>
<trkpt lat="36.771907806396484" lon="-118.36341857910156">
<ele>3269</ele>
<time>2016-10-08T11:27:08Z</time>
</trkpt>
<trkpt lat="36.77195358276367" lon="-118.36353302001953">
<ele>3269</ele>
<time>2016-10-08T11:27:18Z</time>
</trkpt>
<trkpt lat="36.771949768066406" lon="-118.36360931396484">
<ele>3269</ele>
<time>2016-10-08T11:27:24Z</time>
</trkpt>
<trkpt lat="36.77193832397461" lon="-118.36373138427734">
<ele>3271</ele>
<time>2016-10-08T11:27:36Z</time>
</trkpt>
<trkpt lat="36.77196502685547" lon="-118.36383819580078">
<ele>3272</ele>
<time>2016-10-08T11:27:46Z</time>
</trkpt>
<trkpt lat="36.77193069458008" lon="-118.36395263671875">
<ele>3272</ele>
<time>2016-10-08T11:27:53Z</time>
</trkpt>
<trkpt lat="36.77186584472656" lon="-118.36405181884766">
<ele>3273</ele>
<time>2016-10-08T11:28:02Z</time>
</trkpt>
<trkpt lat="36.771793365478516" lon="-118.36414337158203">
<ele>3274</ele>
<time>2016-10-08T11:28:10Z</time>
</trkpt>
<trkpt lat="36.771827697753906" lon="-118.36418914794922">
<ele>3274</ele>
<time>2016-10-08T11:28:18Z</time>
</trkpt>
<trkpt lat="36.77185821533203" lon="-118.36424255371094">
<ele>3278</ele>
<time>2016-10-08T11:28:27Z</time>
</trkpt>
<trkpt lat="36.77194595336914" lon="-118.36428833007813">
<ele>3283</ele>
<time>2016-10-08T11:28:40Z</time>
</trkpt>
<trkpt lat="36.77204895019531" lon="-118.3642807006836">
<ele>3288</ele>
<time>2016-10-08T11:28:50Z</time>
</trkpt>
<trkpt lat="36.77213668823242" lon="-118.36427307128906">
<ele>3285</ele>
<time>2016-10-08T11:28:59Z</time>
</trkpt>
<trkpt lat="36.772186279296875" lon="-118.36424255371094">
<ele>3286</ele>
<time>2016-10-08T11:29:05Z</time>
</trkpt>
<trkpt lat="36.77228546142578" lon="-118.36424255371094">
<ele>3288</ele>
<time>2016-10-08T11:29:15Z</time>
</trkpt>
<trkpt lat="36.77238082885742" lon="-118.3642578125">
<ele>3287</ele>
<time>2016-10-08T11:29:26Z</time>
</trkpt>
<trkpt lat="36.772464752197266" lon="-118.36420440673828">
<ele>3295</ele>
<time>2016-10-08T11:29:38Z</time>
</trkpt>
<trkpt lat="36.772464752197266" lon="-118.3641128540039">
<ele>3295</ele>
<time>2016-10-08T11:29:46Z</time>
</trkpt>
<trkpt lat="36.77250289916992" lon="-118.36415100097656">
<ele>3289</ele>
<time>2016-10-08T11:29:53Z</time>
</trkpt>
<trkpt lat="36.772518157958984" lon="-118.36421203613281">
<ele>3288</ele>
<time>2016-10-08T11:30:00Z</time>
</trkpt>
<trkpt lat="36.77252197265625" lon="-118.3642807006836">
<ele>3285</ele>
<time>2016-10-08T11:30:06Z</time>
</trkpt>
<trkpt lat="36.77248001098633" lon="-118.36439514160156">
<ele>3291</ele>
<time>2016-10-08T11:30:14Z</time>
</trkpt>
<trkpt lat="36.7724723815918" lon="-118.36451721191406">
<ele>3291</ele>
<time>2016-10-08T11:30:21Z</time>
</trkpt>
<trkpt lat="36.7724723815918" lon="-118.36463165283203">
<ele>3291</ele>
<time>2016-10-08T11:30:30Z</time>
</trkpt>
<trkpt lat="36.77247619628906" lon="-118.36474609375">
<ele>3295</ele>
<time>2016-10-08T11:30:37Z</time>
</trkpt>
<trkpt lat="36.7724723815918" lon="-118.36485290527344">
<ele>3299</ele>
<time>2016-10-08T11:30:43Z</time>
</trkpt>
<trkpt lat="36.772483825683594" lon="-118.3649673461914">
<ele>3296</ele>
<time>2016-10-08T11:30:55Z</time>
</trkpt>
<trkpt lat="36.772499084472656" lon="-118.36503601074219">
<ele>3298</ele>
<time>2016-10-08T11:31:02Z</time>
</trkpt>
<trkpt lat="36.772491455078125" lon="-118.36514282226563">
<ele>3301</ele>
<time>2016-10-08T11:31:14Z</time>
</trkpt>
<trkpt lat="36.772483825683594" lon="-118.36527252197266">
<ele>3302</ele>
<time>2016-10-08T11:31:24Z</time>
</trkpt>
<trkpt lat="36.77245330810547" lon="-118.36540222167969">
<ele>3300</ele>
<time>2016-10-08T11:31:37Z</time>
</trkpt>
<trkpt lat="36.77237319946289" lon="-118.36544036865234">
<ele>3298</ele>
<time>2016-10-08T11:31:43Z</time>
</trkpt>
<trkpt lat="36.77229690551758" lon="-118.36552429199219">
<ele>3301</ele>
<time>2016-10-08T11:31:51Z</time>
</trkpt>
<trkpt lat="36.77220153808594" lon="-118.36558532714844">
<ele>3300</ele>
<time>2016-10-08T11:31:58Z</time>
</trkpt>
<trkpt lat="36.772125244140625" lon="-118.36569213867188">
<ele>3302</ele>
<time>2016-10-08T11:32:06Z</time>
</trkpt>
<trkpt lat="36.7720947265625" lon="-118.36573791503906">
<ele>3306</ele>
<time>2016-10-08T11:32:12Z</time>
</trkpt>
<trkpt lat="36.77206039428711" lon="-118.36585235595703">
<ele>3308</ele>
<time>2016-10-08T11:32:22Z</time>
</trkpt>
<trkpt lat="36.77199935913086" lon="-118.3659439086914">
<ele>3313</ele>
<time>2016-10-08T11:32:34Z</time>
</trkpt>
<trkpt lat="36.771942138671875" lon="-118.36597442626953">
<ele>3311</ele>
<time>2016-10-08T11:32:40Z</time>
</trkpt>
<trkpt lat="36.77189636230469" lon="-118.3659896850586">
<ele>3314</ele>
<time>2016-10-08T11:32:46Z</time>
</trkpt>
<trkpt lat="36.7718391418457" lon="-118.36599731445313">
<ele>3315</ele>
<time>2016-10-08T11:32:52Z</time>
</trkpt>
<trkpt lat="36.7717399597168" lon="-118.36603546142578">
<ele>3315</ele>
<time>2016-10-08T11:33:01Z</time>
</trkpt>
<trkpt lat="36.771690368652344" lon="-118.36605072021484">
<ele>3317</ele>
<time>2016-10-08T11:33:07Z</time>
</trkpt>
<trkpt lat="36.771602630615234" lon="-118.3661117553711">
<ele>3324</ele>
<time>2016-10-08T11:33:19Z</time>
</trkpt>
<trkpt lat="36.77151107788086" lon="-118.36616516113281">
<ele>3325</ele>
<time>2016-10-08T11:33:27Z</time>
</trkpt>
<trkpt lat="36.77142333984375" lon="-118.36624908447266">
<ele>3325</ele>
<time>2016-10-08T11:33:36Z</time>
</trkpt>
<trkpt lat="36.771331787109375" lon="-118.3663101196289">
<ele>3321</ele>
<time>2016-10-08T11:33:53Z</time>
</trkpt>
<trkpt lat="36.77128601074219" lon="-118.3663101196289">
<ele>3323</ele>
<time>2016-10-08T11:34:00Z</time>
</trkpt>
<trkpt lat="36.77119445800781" lon="-118.36627960205078">
<ele>3327</ele>
<time>2016-10-08T11:34:10Z</time>
</trkpt>
<trkpt lat="36.771095275878906" lon="-118.36625671386719">
<ele>3324</ele>
<time>2016-10-08T11:34:19Z</time>
</trkpt>
<trkpt lat="36.77103805541992" lon="-118.36626434326172">
<ele>3323</ele>
<time>2016-10-08T11:34:25Z</time>
</trkpt>
<trkpt lat="36.770992279052734" lon="-118.36627197265625">
<ele>3327</ele>
<time>2016-10-08T11:34:31Z</time>
</trkpt>
<trkpt lat="36.77092742919922" lon="-118.36622619628906">
<ele>3331</ele>
<time>2016-10-08T11:34:40Z</time>
</trkpt>
<trkpt lat="36.770877838134766" lon="-118.3662109375">
<ele>3334</ele>
<time>2016-10-08T11:34:47Z</time>
</trkpt>
<trkpt lat="36.77075958251953" lon="-118.36621856689453">
<ele>3332</ele>
<time>2016-10-08T11:34:54Z</time>
</trkpt>
<trkpt lat="36.77070999145508" lon="-118.3662109375">
<ele>3332</ele>
<time>2016-10-08T11:35:00Z</time>
</trkpt>
<trkpt lat="36.77061462402344" lon="-118.36618041992188">
<ele>3335</ele>
<time>2016-10-08T11:35:08Z</time>
</trkpt>
<trkpt lat="36.77064895629883" lon="-118.36622619628906">
<ele>3335</ele>
<time>2016-10-08T11:35:14Z</time>
</trkpt>
<trkpt lat="36.77070617675781" lon="-118.36621856689453">
<ele>3335</ele>
<time>2016-10-08T11:35:31Z</time>
</trkpt>
<trkpt lat="36.770782470703125" lon="-118.36624908447266">
<ele>3337</ele>
<time>2016-10-08T11:35:40Z</time>
</trkpt>
<trkpt lat="36.77082824707031" lon="-118.36625671386719">
<ele>3339</ele>
<time>2016-10-08T11:35:46Z</time>
</trkpt>
<trkpt lat="36.77079391479492" lon="-118.36629486083984">
<ele>3341</ele>
<time>2016-10-08T11:35:53Z</time>
</trkpt>
<trkpt lat="36.7707405090332" lon="-118.36631774902344">
<ele>3339</ele>
<time>2016-10-08T11:36:00Z</time>
</trkpt>
<trkpt lat="36.7706413269043" lon="-118.3663558959961">
<ele>3340</ele>
<time>2016-10-08T11:36:10Z</time>
</trkpt>
<trkpt lat="36.77060317993164" lon="-118.36640167236328">
<ele>3341</ele>
<time>2016-10-08T11:36:16Z</time>
</trkpt>
<trkpt lat="36.770538330078125" lon="-118.36649322509766">
<ele>3342</ele>
<time>2016-10-08T11:36:28Z</time>
</trkpt>
<trkpt lat="36.77048873901367" lon="-118.36649322509766">
<ele>3345</ele>
<time>2016-10-08T11:37:29Z</time>
</trkpt>
<trkpt lat="36.7704963684082" lon="-118.36659240722656">
<ele>3348</ele>
<time>2016-10-08T11:40:37Z</time>
</trkpt>
<trkpt lat="36.770511627197266" lon="-118.36666107177734">
<ele>3350</ele>
<time>2016-10-08T11:40:57Z</time>
</trkpt>
<trkpt lat="36.77055358886719" lon="-118.36663818359375">
<ele>3354</ele>
<time>2016-10-08T11:41:28Z</time>
</trkpt>
<trkpt lat="36.77055740356445" lon="-118.36651611328125">
<ele>3353</ele>
<time>2016-10-08T11:41:38Z</time>
</trkpt>
<trkpt lat="36.77062225341797" lon="-118.36647033691406">
<ele>3352</ele>
<time>2016-10-08T11:41:44Z</time>
</trkpt>
<trkpt lat="36.77071762084961" lon="-118.3664321899414">
<ele>3352</ele>
<time>2016-10-08T11:41:53Z</time>
</trkpt>
<trkpt lat="36.770748138427734" lon="-118.36639404296875">
<ele>3352</ele>
<time>2016-10-08T11:42:00Z</time>
</trkpt>
<trkpt lat="36.77076721191406" lon="-118.366455078125">
<ele>3358</ele>
<time>2016-10-08T11:42:07Z</time>
</trkpt>
<trkpt lat="36.770687103271484" lon="-118.36651611328125">
<ele>3358</ele>
<time>2016-10-08T11:42:18Z</time>
</trkpt>
<trkpt lat="36.77073287963867" lon="-118.36653900146484">
<ele>3356</ele>
<time>2016-10-08T11:42:30Z</time>
</trkpt>
<trkpt lat="36.770782470703125" lon="-118.3665542602539">
<ele>3352</ele>
<time>2016-10-08T11:42:36Z</time>
</trkpt>
<trkpt lat="36.77085876464844" lon="-118.36653900146484">
<ele>3352</ele>
<time>2016-10-08T11:42:55Z</time>
</trkpt>
<trkpt lat="36.77094268798828" lon="-118.3664779663086">
<ele>3355</ele>
<time>2016-10-08T11:43:02Z</time>
</trkpt>
<trkpt lat="36.77104187011719" lon="-118.3664779663086">
<ele>3353</ele>
<time>2016-10-08T11:43:12Z</time>
</trkpt>
<trkpt lat="36.771087646484375" lon="-118.3664779663086">
<ele>3353</ele>
<time>2016-10-08T11:43:28Z</time>
</trkpt>
<trkpt lat="36.77103805541992" lon="-118.36651611328125">
<ele>3357</ele>
<time>2016-10-08T11:43:40Z</time>
</trkpt>
<trkpt lat="36.77099609375" lon="-118.36661529541016">
<ele>3356</ele>
<time>2016-10-08T11:43:50Z</time>
</trkpt>
<trkpt lat="36.77094650268555" lon="-118.3667221069336">
<ele>3359</ele>
<time>2016-10-08T11:43:59Z</time>
</trkpt>
<trkpt lat="36.770843505859375" lon="-118.36673736572266">
<ele>3361</ele>
<time>2016-10-08T11:44:09Z</time>
</trkpt>
<trkpt lat="36.77080154418945" lon="-118.36676788330078">
<ele>3360</ele>
<time>2016-10-08T11:44:15Z</time>
</trkpt>
<trkpt lat="36.77080535888672" lon="-118.36685180664063">
<ele>3362</ele>
<time>2016-10-08T11:44:26Z</time>
</trkpt>
<trkpt lat="36.77090072631836" lon="-118.3667984008789">
<ele>3365</ele>
<time>2016-10-08T11:44:36Z</time>
</trkpt>
<trkpt lat="36.770973205566406" lon="-118.36678314208984">
<ele>3365</ele>
<time>2016-10-08T11:44:46Z</time>
</trkpt>
<trkpt lat="36.77104949951172" lon="-118.36670684814453">
<ele>3368</ele>
<time>2016-10-08T11:44:59Z</time>
</trkpt>
<trkpt lat="36.771148681640625" lon="-118.36669921875">
<ele>3373</ele>
<time>2016-10-08T11:45:07Z</time>
</trkpt>
<trkpt lat="36.77119827270508" lon="-118.36669158935547">
<ele>3376</ele>
<time>2016-10-08T11:45:14Z</time>
</trkpt>
<trkpt lat="36.771278381347656" lon="-118.36676788330078">
<ele>3374</ele>
<time>2016-10-08T11:45:24Z</time>
</trkpt>
<trkpt lat="36.7713737487793" lon="-118.36676788330078">
<ele>3376</ele>
<time>2016-10-08T11:45:31Z</time>
</trkpt>
<trkpt lat="36.77142333984375" lon="-118.36675262451172">
<ele>3383</ele>
<time>2016-10-08T11:45:40Z</time>
</trkpt>
<trkpt lat="36.771461486816406" lon="-118.36679077148438">
<ele>3384</ele>
<time>2016-10-08T11:45:46Z</time>
</trkpt>
<trkpt lat="36.771358489990234" lon="-118.3668212890625">
<ele>3385</ele>
<time>2016-10-08T11:45:55Z</time>
</trkpt>
<trkpt lat="36.77131271362305" lon="-118.36685180664063">
<ele>3384</ele>
<time>2016-10-08T11:46:03Z</time>
</trkpt>
<trkpt lat="36.77126693725586" lon="-118.36688995361328">
<ele>3383</ele>
<time>2016-10-08T11:46:09Z</time>
</trkpt>
<trkpt lat="36.77122497558594" lon="-118.36691284179688">
<ele>3383</ele>
<time>2016-10-08T11:46:16Z</time>
</trkpt>
<trkpt lat="36.77117156982422" lon="-118.366943359375">
<ele>3386</ele>
<time>2016-10-08T11:46:22Z</time>
</trkpt>
<trkpt lat="36.771141052246094" lon="-118.36698150634766">
<ele>3386</ele>
<time>2016-10-08T11:46:28Z</time>
</trkpt>
<trkpt lat="36.77113723754883" lon="-118.36705017089844">
<ele>3385</ele>
<time>2016-10-08T11:46:34Z</time>
</trkpt>
<trkpt lat="36.771087646484375" lon="-118.36712646484375">
<ele>3383</ele>
<time>2016-10-08T11:46:40Z</time>
</trkpt>
<trkpt lat="36.77111053466797" lon="-118.36707305908203">
<ele>3386</ele>
<time>2016-10-08T11:47:00Z</time>
</trkpt>
<trkpt lat="36.77116012573242" lon="-118.3670654296875">
<ele>3385</ele>
<time>2016-10-08T11:47:07Z</time>
</trkpt>
<trkpt lat="36.771209716796875" lon="-118.3670425415039">
<ele>3387</ele>
<time>2016-10-08T11:47:14Z</time>
</trkpt>
<trkpt lat="36.77119445800781" lon="-118.36711883544922">
<ele>3388</ele>
<time>2016-10-08T11:47:29Z</time>
</trkpt>
<trkpt lat="36.77116394042969" lon="-118.3671646118164">
<ele>3389</ele>
<time>2016-10-08T11:47:35Z</time>
</trkpt>
<trkpt lat="36.771080017089844" lon="-118.36724090576172">
<ele>3388</ele>
<time>2016-10-08T11:47:45Z</time>
</trkpt>
<trkpt lat="36.77116394042969" lon="-118.36719512939453">
<ele>3393</ele>
<time>2016-10-08T11:48:26Z</time>
</trkpt>
<trkpt lat="36.77125930786133" lon="-118.36719512939453">
<ele>3389</ele>
<time>2016-10-08T11:48:34Z</time>
</trkpt>
<trkpt lat="36.77134704589844" lon="-118.36720275878906">
<ele>3391</ele>
<time>2016-10-08T11:48:40Z</time>
</trkpt>
<trkpt lat="36.77143478393555" lon="-118.36717224121094">
<ele>3395</ele>
<time>2016-10-08T11:48:48Z</time>
</trkpt>
<trkpt lat="36.77153015136719" lon="-118.36712646484375">
<ele>3396</ele>
<time>2016-10-08T11:48:56Z</time>
</trkpt>
<trkpt lat="36.771636962890625" lon="-118.36714172363281">
<ele>3398</ele>
<time>2016-10-08T11:49:05Z</time>
</trkpt>
<trkpt lat="36.7717170715332" lon="-118.36719512939453">
<ele>3396</ele>
<time>2016-10-08T11:49:17Z</time>
</trkpt>
<trkpt lat="36.77176284790039" lon="-118.36723327636719">
<ele>3394</ele>
<time>2016-10-08T11:49:24Z</time>
</trkpt>
<trkpt lat="36.77180862426758" lon="-118.36722564697266">
<ele>3394</ele>
<time>2016-10-08T11:49:32Z</time>
</trkpt>
<trkpt lat="36.771881103515625" lon="-118.36722564697266">
<ele>3397</ele>
<time>2016-10-08T11:49:40Z</time>
</trkpt>
<trkpt lat="36.77189636230469" lon="-118.36734008789063">
<ele>3400</ele>
<time>2016-10-08T11:49:50Z</time>
</trkpt>
<trkpt lat="36.77195358276367" lon="-118.36738586425781">
<ele>3401</ele>
<time>2016-10-08T11:50:46Z</time>
</trkpt>
<trkpt lat="36.77201843261719" lon="-118.36748504638672">
<ele>3402</ele>
<time>2016-10-08T11:50:56Z</time>
</trkpt>
<trkpt lat="36.7720832824707" lon="-118.36758422851563">
<ele>3399</ele>
<time>2016-10-08T11:51:20Z</time>
</trkpt>
<trkpt lat="36.77216720581055" lon="-118.36766815185547">
<ele>3401</ele>
<time>2016-10-08T11:51:28Z</time>
</trkpt>
<trkpt lat="36.772212982177734" lon="-118.36775207519531">
<ele>3399</ele>
<time>2016-10-08T11:51:40Z</time>
</trkpt>
<trkpt lat="36.772300720214844" lon="-118.36780548095703">
<ele>3400</ele>
<time>2016-10-08T11:51:49Z</time>
</trkpt>
<trkpt lat="36.77237319946289" lon="-118.36788177490234">
<ele>3404</ele>
<time>2016-10-08T11:51:57Z</time>
</trkpt>
<trkpt lat="36.77244186401367" lon="-118.36796569824219">
<ele>3409</ele>
<time>2016-10-08T11:52:05Z</time>
</trkpt>
<trkpt lat="36.77249526977539" lon="-118.36808013916016">
<ele>3411</ele>
<time>2016-10-08T11:52:14Z</time>
</trkpt>
<trkpt lat="36.772579193115234" lon="-118.36812591552734">
<ele>3411</ele>
<time>2016-10-08T11:52:31Z</time>
</trkpt>
<trkpt lat="36.77262496948242" lon="-118.36809539794922">
<ele>3410</ele>
<time>2016-10-08T11:52:39Z</time>
</trkpt>
<trkpt lat="36.77267837524414" lon="-118.36811065673828">
<ele>3414</ele>
<time>2016-10-08T11:52:46Z</time>
</trkpt>
<trkpt lat="36.772705078125" lon="-118.3681640625">
<ele>3416</ele>
<time>2016-10-08T11:52:52Z</time>
</trkpt>
<trkpt lat="36.77272415161133" lon="-118.36820983886719">
<ele>3418</ele>
<time>2016-10-08T11:52:58Z</time>
</trkpt>
<trkpt lat="36.772769927978516" lon="-118.36823272705078">
<ele>3428</ele>
<time>2016-10-08T11:53:07Z</time>
</trkpt>
<trkpt lat="36.77279281616211" lon="-118.36827850341797">
<ele>3431</ele>
<time>2016-10-08T11:53:13Z</time>
</trkpt>
<trkpt lat="36.77280044555664" lon="-118.36840057373047">
<ele>3429</ele>
<time>2016-10-08T11:53:23Z</time>
</trkpt>
<trkpt lat="36.772796630859375" lon="-118.36845397949219">
<ele>3425</ele>
<time>2016-10-08T11:53:29Z</time>
</trkpt>
<trkpt lat="36.77284240722656" lon="-118.36848449707031">
<ele>3428</ele>
<time>2016-10-08T11:53:37Z</time>
</trkpt>
<trkpt lat="36.77290344238281" lon="-118.36848449707031">
<ele>3431</ele>
<time>2016-10-08T11:53:46Z</time>
</trkpt>
<trkpt lat="36.772953033447266" lon="-118.36849212646484">
<ele>3430</ele>
<time>2016-10-08T11:53:58Z</time>
</trkpt>
<trkpt lat="36.77299499511719" lon="-118.36853790283203">
<ele>3429</ele>
<time>2016-10-08T11:54:05Z</time>
</trkpt>
<trkpt lat="36.77302551269531" lon="-118.36858367919922">
<ele>3430</ele>
<time>2016-10-08T11:54:11Z</time>
</trkpt>
<trkpt lat="36.77304458618164" lon="-118.36863708496094">
<ele>3431</ele>
<time>2016-10-08T11:54:23Z</time>
</trkpt>
<trkpt lat="36.77307891845703" lon="-118.36853790283203">
<ele>3431</ele>
<time>2016-10-08T11:54:51Z</time>
</trkpt>
<trkpt lat="36.77308654785156" lon="-118.36841583251953">
<ele>3433</ele>
<time>2016-10-08T11:55:01Z</time>
</trkpt>
<trkpt lat="36.77312088012695" lon="-118.36845397949219">
<ele>3431</ele>
<time>2016-10-08T11:55:14Z</time>
</trkpt>
<trkpt lat="36.773189544677734" lon="-118.36857604980469">
<ele>3435</ele>
<time>2016-10-08T11:55:22Z</time>
</trkpt>
<trkpt lat="36.77324676513672" lon="-118.36866760253906">
<ele>3434</ele>
<time>2016-10-08T11:55:30Z</time>
</trkpt>
<trkpt lat="36.77325439453125" lon="-118.36873626708984">
<ele>3438</ele>
<time>2016-10-08T11:55:37Z</time>
</trkpt>
<trkpt lat="36.7733154296875" lon="-118.36882019042969">
<ele>3440</ele>
<time>2016-10-08T11:55:44Z</time>
</trkpt>
<trkpt lat="36.77336883544922" lon="-118.36890411376953">
<ele>3442</ele>
<time>2016-10-08T11:55:51Z</time>
</trkpt>
<trkpt lat="36.77339553833008" lon="-118.3690185546875">
<ele>3449</ele>
<time>2016-10-08T11:56:00Z</time>
</trkpt>
<trkpt lat="36.77346420288086" lon="-118.36911010742188">
<ele>3445</ele>
<time>2016-10-08T11:56:09Z</time>
</trkpt>
<trkpt lat="36.77345657348633" lon="-118.36917877197266">
<ele>3444</ele>
<time>2016-10-08T11:56:15Z</time>
</trkpt>
<trkpt lat="36.773521423339844" lon="-118.36927795410156">
<ele>3453</ele>
<time>2016-10-08T11:56:22Z</time>
</trkpt>
<trkpt lat="36.77358627319336" lon="-118.36935424804688">
<ele>3454</ele>
<time>2016-10-08T11:56:30Z</time>
</trkpt>
<trkpt lat="36.77360153198242" lon="-118.36943054199219">
<ele>3456</ele>
<time>2016-10-08T11:56:40Z</time>
</trkpt>
<trkpt lat="36.77362060546875" lon="-118.3694839477539">
<ele>3459</ele>
<time>2016-10-08T11:56:46Z</time>
</trkpt>
<trkpt lat="36.77367401123047" lon="-118.36959838867188">
<ele>3454</ele>
<time>2016-10-08T11:56:55Z</time>
</trkpt>
<trkpt lat="36.773681640625" lon="-118.3696517944336">
<ele>3458</ele>
<time>2016-10-08T11:57:01Z</time>
</trkpt>
<trkpt lat="36.773719787597656" lon="-118.3697738647461">
<ele>3457</ele>
<time>2016-10-08T11:57:12Z</time>
</trkpt>
<trkpt lat="36.77369689941406" lon="-118.3698959350586">
<ele>3455</ele>
<time>2016-10-08T11:57:21Z</time>
</trkpt>
<trkpt lat="36.773704528808594" lon="-118.37002563476563">
<ele>3455</ele>
<time>2016-10-08T11:57:29Z</time>
</trkpt>
<trkpt lat="36.773712158203125" lon="-118.37008666992188">
<ele>3453</ele>
<time>2016-10-08T11:57:35Z</time>
</trkpt>
<trkpt lat="36.77370071411133" lon="-118.37020111083984">
<ele>3453</ele>
<time>2016-10-08T11:57:44Z</time>
</trkpt>
<trkpt lat="36.77372360229492" lon="-118.37029266357422">
<ele>3457</ele>
<time>2016-10-08T11:58:47Z</time>
</trkpt>
<trkpt lat="36.773712158203125" lon="-118.37041473388672">
<ele>3457</ele>
<time>2016-10-08T11:58:56Z</time>
</trkpt>
<trkpt lat="36.773746490478516" lon="-118.37052917480469">
<ele>3461</ele>
<time>2016-10-08T11:59:08Z</time>
</trkpt>
<trkpt lat="36.773738861083984" lon="-118.37059020996094">
<ele>3460</ele>
<time>2016-10-08T11:59:14Z</time>
</trkpt>
<trkpt lat="36.773746490478516" lon="-118.37071990966797">
<ele>3463</ele>
<time>2016-10-08T11:59:23Z</time>
</trkpt>
<trkpt lat="36.77372360229492" lon="-118.37077331542969">
<ele>3464</ele>
<time>2016-10-08T11:59:30Z</time>
</trkpt>
<trkpt lat="36.77373123168945" lon="-118.37088012695313">
<ele>3464</ele>
<time>2016-10-08T11:59:40Z</time>
</trkpt>
<trkpt lat="36.77370834350586" lon="-118.37093353271484">
<ele>3462</ele>
<time>2016-10-08T11:59:46Z</time>
</trkpt>
<trkpt lat="36.773685455322266" lon="-118.37105560302734">
<ele>3468</ele>
<time>2016-10-08T11:59:55Z</time>
</trkpt>
<trkpt lat="36.7736701965332" lon="-118.3711166381836">
<ele>3467</ele>
<time>2016-10-08T12:00:01Z</time>
</trkpt>
<trkpt lat="36.77366256713867" lon="-118.37124633789063">
<ele>3465</ele>
<time>2016-10-08T12:00:11Z</time>
</trkpt>
<trkpt lat="36.773651123046875" lon="-118.37137603759766">
<ele>3466</ele>
<time>2016-10-08T12:00:21Z</time>
</trkpt>
<trkpt lat="36.773643493652344" lon="-118.37150573730469">
<ele>3469</ele>
<time>2016-10-08T12:00:30Z</time>
</trkpt>
<trkpt lat="36.77363586425781" lon="-118.37162017822266">
<ele>3470</ele>
<time>2016-10-08T12:00:38Z</time>
</trkpt>
<trkpt lat="36.773624420166016" lon="-118.37171173095703">
<ele>3467</ele>
<time>2016-10-08T12:00:45Z</time>
</trkpt>
<trkpt lat="36.77362060546875" lon="-118.37183380126953">
<ele>3472</ele>
<time>2016-10-08T12:00:55Z</time>
</trkpt>
<trkpt lat="36.773597717285156" lon="-118.3719482421875">
<ele>3475</ele>
<time>2016-10-08T12:01:06Z</time>
</trkpt>
<trkpt lat="36.77361297607422" lon="-118.3720703125">
<ele>3475</ele>
<time>2016-10-08T12:01:16Z</time>
</trkpt>
<trkpt lat="36.77359390258789" lon="-118.37220764160156">
<ele>3477</ele>
<time>2016-10-08T12:01:26Z</time>
</trkpt>
<trkpt lat="36.77356719970703" lon="-118.37232971191406">
<ele>3480</ele>
<time>2016-10-08T12:01:35Z</time>
</trkpt>
<trkpt lat="36.77355194091797" lon="-118.37246704101563">
<ele>3485</ele>
<time>2016-10-08T12:01:47Z</time>
</trkpt>
<trkpt lat="36.7735710144043" lon="-118.37259674072266">
<ele>3487</ele>
<time>2016-10-08T12:01:58Z</time>
</trkpt>
<trkpt lat="36.773563385009766" lon="-118.37271881103516">
<ele>3485</ele>
<time>2016-10-08T12:02:18Z</time>
</trkpt>
<trkpt lat="36.7735595703125" lon="-118.3727798461914">
<ele>3486</ele>
<time>2016-10-08T12:02:25Z</time>
</trkpt>
<trkpt lat="36.773555755615234" lon="-118.37287902832031">
<ele>3490</ele>
<time>2016-10-08T12:02:40Z</time>
</trkpt>
<trkpt lat="36.77358627319336" lon="-118.37281799316406">
<ele>3487</ele>
<time>2016-10-08T12:02:52Z</time>
</trkpt>
<trkpt lat="36.77360916137695" lon="-118.37276458740234">
<ele>3486</ele>
<time>2016-10-08T12:02:58Z</time>
</trkpt>
<trkpt lat="36.7736701965332" lon="-118.3726806640625">
<ele>3486</ele>
<time>2016-10-08T12:03:06Z</time>
</trkpt>
<trkpt lat="36.77372741699219" lon="-118.37256622314453">
<ele>3484</ele>
<time>2016-10-08T12:03:15Z</time>
</trkpt>
<trkpt lat="36.773773193359375" lon="-118.3725357055664">
<ele>3485</ele>
<time>2016-10-08T12:03:21Z</time>
</trkpt>
<trkpt lat="36.7737922668457" lon="-118.37248229980469">
<ele>3486</ele>
<time>2016-10-08T12:03:27Z</time>
</trkpt>
<trkpt lat="36.773834228515625" lon="-118.37236785888672">
<ele>3489</ele>
<time>2016-10-08T12:03:35Z</time>
</trkpt>
<trkpt lat="36.77388000488281" lon="-118.37228393554688">
<ele>3493</ele>
<time>2016-10-08T12:03:44Z</time>
</trkpt>
<trkpt lat="36.77394104003906" lon="-118.3721694946289">
<ele>3495</ele>
<time>2016-10-08T12:03:54Z</time>
</trkpt>
<trkpt lat="36.77400207519531" lon="-118.3720703125">
<ele>3500</ele>
<time>2016-10-08T12:04:00Z</time>
</trkpt>
<trkpt lat="36.7740364074707" lon="-118.37202453613281">
<ele>3503</ele>
<time>2016-10-08T12:04:12Z</time>
</trkpt>
<trkpt lat="36.77407455444336" lon="-118.37191772460938">
<ele>3503</ele>
<time>2016-10-08T12:04:20Z</time>
</trkpt>
<trkpt lat="36.77414321899414" lon="-118.37181854248047">
<ele>3501</ele>
<time>2016-10-08T12:04:28Z</time>
</trkpt>
<trkpt lat="36.7741813659668" lon="-118.37176513671875">
<ele>3498</ele>
<time>2016-10-08T12:04:34Z</time>
</trkpt>
<trkpt lat="36.77424621582031" lon="-118.37171173095703">
<ele>3501</ele>
<time>2016-10-08T12:04:40Z</time>
</trkpt>
<trkpt lat="36.77432632446289" lon="-118.37164306640625">
<ele>3503</ele>
<time>2016-10-08T12:04:49Z</time>
</trkpt>
<trkpt lat="36.774383544921875" lon="-118.37154388427734">
<ele>3506</ele>
<time>2016-10-08T12:04:58Z</time>
</trkpt>
<trkpt lat="36.774410247802734" lon="-118.37146759033203">
<ele>3512</ele>
<time>2016-10-08T12:05:12Z</time>
</trkpt>
<trkpt lat="36.77449417114258" lon="-118.37140655517578">
<ele>3512</ele>
<time>2016-10-08T12:05:22Z</time>
</trkpt>
<trkpt lat="36.77457046508789" lon="-118.37132263183594">
<ele>3513</ele>
<time>2016-10-08T12:05:32Z</time>
</trkpt>
<trkpt lat="36.774620056152344" lon="-118.37124633789063">
<ele>3513</ele>
<time>2016-10-08T12:05:40Z</time>
</trkpt>
<trkpt lat="36.77470397949219" lon="-118.37118530273438">
<ele>3513</ele>
<time>2016-10-08T12:05:47Z</time>
</trkpt>
<trkpt lat="36.774749755859375" lon="-118.37113952636719">
<ele>3511</ele>
<time>2016-10-08T12:05:53Z</time>
</trkpt>
<trkpt lat="36.77472686767578" lon="-118.37120819091797">
<ele>3515</ele>
<time>2016-10-08T12:06:35Z</time>
</trkpt>
<trkpt lat="36.77471923828125" lon="-118.37133026123047">
<ele>3515</ele>
<time>2016-10-08T12:06:44Z</time>
</trkpt>
<trkpt lat="36.77470016479492" lon="-118.37145233154297">
<ele>3517</ele>
<time>2016-10-08T12:06:53Z</time>
</trkpt>
<trkpt lat="36.77468490600586" lon="-118.3715591430664">
<ele>3517</ele>
<time>2016-10-08T12:07:05Z</time>
</trkpt>
<trkpt lat="36.77462387084961" lon="-118.37165832519531">
<ele>3516</ele>
<time>2016-10-08T12:07:14Z</time>
</trkpt>
<trkpt lat="36.77460479736328" lon="-118.37171173095703">
<ele>3516</ele>
<time>2016-10-08T12:07:20Z</time>
</trkpt>
<trkpt lat="36.77460861206055" lon="-118.37184143066406">
<ele>3521</ele>
<time>2016-10-08T12:07:35Z</time>
</trkpt>
<trkpt lat="36.774600982666016" lon="-118.37195587158203">
<ele>3523</ele>
<time>2016-10-08T12:07:46Z</time>
</trkpt>
<trkpt lat="36.77457809448242" lon="-118.37207794189453">
<ele>3525</ele>
<time>2016-10-08T12:07:56Z</time>
</trkpt>
</trkseg>
</trk>
<trk>
<name><![CDATA[10080516]]></name>
<number>15</number>
<extensions><topografix:color>ff000066</topografix:color></extensions>
<trkseg>
<trkpt lat="36.77313232421875" lon="-118.37657928466797">
<ele>3578</ele>
<time>2016-10-08T12:16:05Z</time>
</trkpt>
<trkpt lat="36.773128509521484" lon="-118.37663269042969">
<ele>3574</ele>
<time>2016-10-08T12:20:38Z</time>
</trkpt>
<trkpt lat="36.77302932739258" lon="-118.37661743164063">
<ele>3572</ele>
<time>2016-10-08T12:20:48Z</time>
</trkpt>
<trkpt lat="36.7730827331543" lon="-118.37671661376953">
<ele>3571</ele>
<time>2016-10-08T12:20:57Z</time>
</trkpt>
<trkpt lat="36.77312088012695" lon="-118.37676239013672">
<ele>3569</ele>
<time>2016-10-08T12:21:03Z</time>
</trkpt>
<trkpt lat="36.77316665649414" lon="-118.3768310546875">
<ele>3568</ele>
<time>2016-10-08T12:21:09Z</time>
</trkpt>
<trkpt lat="36.773193359375" lon="-118.37689208984375">
<ele>3569</ele>
<time>2016-10-08T12:21:15Z</time>
</trkpt>
<trkpt lat="36.773277282714844" lon="-118.37694549560547">
<ele>3571</ele>
<time>2016-10-08T12:21:25Z</time>
</trkpt>
<trkpt lat="36.77334213256836" lon="-118.37702941894531">
<ele>3571</ele>
<time>2016-10-08T12:21:33Z</time>
</trkpt>
<trkpt lat="36.77336120605469" lon="-118.37708282470703">
<ele>3573</ele>
<time>2016-10-08T12:21:43Z</time>
</trkpt>
<trkpt lat="36.773406982421875" lon="-118.3770751953125">
<ele>3575</ele>
<time>2016-10-08T12:21:56Z</time>
</trkpt>
<trkpt lat="36.77342987060547" lon="-118.37712860107422">
<ele>3576</ele>
<time>2016-10-08T12:22:02Z</time>
</trkpt>
<trkpt lat="36.77347946166992" lon="-118.37722778320313">
<ele>3576</ele>
<time>2016-10-08T12:22:09Z</time>
</trkpt>
<trkpt lat="36.773536682128906" lon="-118.3773422241211">
<ele>3576</ele>
<time>2016-10-08T12:22:18Z</time>
</trkpt>
<trkpt lat="36.773597717285156" lon="-118.37744903564453">
<ele>3575</ele>
<time>2016-10-08T12:22:28Z</time>
</trkpt>
<trkpt lat="36.77366638183594" lon="-118.37754821777344">
<ele>3573</ele>
<time>2016-10-08T12:22:36Z</time>
</trkpt>
<trkpt lat="36.77371597290039" lon="-118.3776626586914">
<ele>3568</ele>
<time>2016-10-08T12:22:43Z</time>
</trkpt>
<trkpt lat="36.77375030517578" lon="-118.37777709960938">
<ele>3569</ele>
<time>2016-10-08T12:22:52Z</time>
</trkpt>
<trkpt lat="36.773799896240234" lon="-118.37788391113281">
<ele>3567</ele>
<time>2016-10-08T12:23:01Z</time>
</trkpt>
<trkpt lat="36.773841857910156" lon="-118.37799072265625">
<ele>3564</ele>
<time>2016-10-08T12:23:11Z</time>
</trkpt>
<trkpt lat="36.7738037109375" lon="-118.37805938720703">
<ele>3557</ele>
<time>2016-10-08T12:23:25Z</time>
</trkpt>
<trkpt lat="36.77376937866211" lon="-118.37801361083984">
<ele>3556</ele>
<time>2016-10-08T12:23:31Z</time>
</trkpt>
<trkpt lat="36.773704528808594" lon="-118.3779296875">
<ele>3557</ele>
<time>2016-10-08T12:23:38Z</time>
</trkpt>
<trkpt lat="36.77362060546875" lon="-118.37784576416016">
<ele>3551</ele>
<time>2016-10-08T12:23:47Z</time>
</trkpt>
<trkpt lat="36.773563385009766" lon="-118.37773132324219">
<ele>3550</ele>
<time>2016-10-08T12:23:54Z</time>
</trkpt>
<trkpt lat="36.773494720458984" lon="-118.37767028808594">
<ele>3549</ele>
<time>2016-10-08T12:24:05Z</time>
</trkpt>
<trkpt lat="36.7735481262207" lon="-118.3777847290039">
<ele>3547</ele>
<time>2016-10-08T12:24:13Z</time>
</trkpt>
<trkpt lat="36.773597717285156" lon="-118.37787628173828">
<ele>3548</ele>
<time>2016-10-08T12:24:21Z</time>
</trkpt>
<trkpt lat="36.77365493774414" lon="-118.37798309326172">
<ele>3545</ele>
<time>2016-10-08T12:24:29Z</time>
</trkpt>
<trkpt lat="36.773677825927734" lon="-118.37809753417969">
<ele>3542</ele>
<time>2016-10-08T12:24:47Z</time>
</trkpt>
<trkpt lat="36.77367401123047" lon="-118.37815856933594">
<ele>3540</ele>
<time>2016-10-08T12:24:54Z</time>
</trkpt>
<trkpt lat="36.7736930847168" lon="-118.37828063964844">
<ele>3538</ele>
<time>2016-10-08T12:25:04Z</time>
</trkpt>
<trkpt lat="36.773681640625" lon="-118.37835693359375">
<ele>3536</ele>
<time>2016-10-08T12:25:12Z</time>
</trkpt>
<trkpt lat="36.773704528808594" lon="-118.37847900390625">
<ele>3531</ele>
<time>2016-10-08T12:25:24Z</time>
</trkpt>
<trkpt lat="36.77369689941406" lon="-118.37854766845703">
<ele>3529</ele>
<time>2016-10-08T12:25:30Z</time>
</trkpt>
<trkpt lat="36.773685455322266" lon="-118.37860870361328">
<ele>3525</ele>
<time>2016-10-08T12:25:37Z</time>
</trkpt>
<trkpt lat="36.773719787597656" lon="-118.37865447998047">
<ele>3528</ele>
<time>2016-10-08T12:25:43Z</time>
</trkpt>
<trkpt lat="36.77372741699219" lon="-118.37871551513672">
<ele>3529</ele>
<time>2016-10-08T12:25:50Z</time>
</trkpt>
<trkpt lat="36.77374267578125" lon="-118.37885284423828">
<ele>3526</ele>
<time>2016-10-08T12:25:59Z</time>
</trkpt>
<trkpt lat="36.77375793457031" lon="-118.37894439697266">
<ele>3523</ele>
<time>2016-10-08T12:26:05Z</time>
</trkpt>
<trkpt lat="36.77375793457031" lon="-118.37906646728516">
<ele>3516</ele>
<time>2016-10-08T12:26:15Z</time>
</trkpt>
<trkpt lat="36.773765563964844" lon="-118.3791732788086">
<ele>3516</ele>
<time>2016-10-08T12:26:25Z</time>
</trkpt>
<trkpt lat="36.773780822753906" lon="-118.37923431396484">
<ele>3520</ele>
<time>2016-10-08T12:26:31Z</time>
</trkpt>
<trkpt lat="36.77377700805664" lon="-118.37935638427734">
<ele>3514</ele>
<time>2016-10-08T12:26:40Z</time>
</trkpt>
<trkpt lat="36.77378845214844" lon="-118.3794174194336">
<ele>3510</ele>
<time>2016-10-08T12:26:46Z</time>
</trkpt>
<trkpt lat="36.7738037109375" lon="-118.37952423095703">
<ele>3502</ele>
<time>2016-10-08T12:26:56Z</time>
</trkpt>
<trkpt lat="36.77382278442383" lon="-118.379638671875">
<ele>3499</ele>
<time>2016-10-08T12:27:03Z</time>
</trkpt>
<trkpt lat="36.773780822753906" lon="-118.37970733642578">
<ele>3500</ele>
<time>2016-10-08T12:27:09Z</time>
</trkpt>
<trkpt lat="36.77375411987305" lon="-118.37984466552734">
<ele>3503</ele>
<time>2016-10-08T12:27:16Z</time>
</trkpt>
<trkpt lat="36.773799896240234" lon="-118.37995147705078">
<ele>3497</ele>
<time>2016-10-08T12:27:24Z</time>
</trkpt>
<trkpt lat="36.773807525634766" lon="-118.38005828857422">
<ele>3491</ele>
<time>2016-10-08T12:27:34Z</time>
</trkpt>
<trkpt lat="36.773799896240234" lon="-118.380126953125">
<ele>3491</ele>
<time>2016-10-08T12:27:40Z</time>
</trkpt>
<trkpt lat="36.77379608154297" lon="-118.38025665283203">
<ele>3491</ele>
<time>2016-10-08T12:27:49Z</time>
</trkpt>
<trkpt lat="36.7737922668457" lon="-118.38031768798828">
<ele>3487</ele>
<time>2016-10-08T12:27:56Z</time>
</trkpt>
<trkpt lat="36.77381134033203" lon="-118.38043975830078">
<ele>3490</ele>
<time>2016-10-08T12:28:04Z</time>
</trkpt>
<trkpt lat="36.77381134033203" lon="-118.38052368164063">
<ele>3485</ele>
<time>2016-10-08T12:28:11Z</time>
</trkpt>
<trkpt lat="36.77379608154297" lon="-118.38057708740234">
<ele>3487</ele>
<time>2016-10-08T12:28:17Z</time>
</trkpt>
<trkpt lat="36.77378463745117" lon="-118.38063049316406">
<ele>3487</ele>
<time>2016-10-08T12:28:25Z</time>
</trkpt>
<trkpt lat="36.77377700805664" lon="-118.38075256347656">
<ele>3481</ele>
<time>2016-10-08T12:28:39Z</time>
</trkpt>
<trkpt lat="36.773780822753906" lon="-118.38086700439453">
<ele>3479</ele>
<time>2016-10-08T12:28:48Z</time>
</trkpt>
<trkpt lat="36.773799896240234" lon="-118.38093566894531">
<ele>3477</ele>
<time>2016-10-08T12:28:54Z</time>
</trkpt>
<trkpt lat="36.7738151550293" lon="-118.38105773925781">
<ele>3474</ele>
<time>2016-10-08T12:29:02Z</time>
</trkpt>
<trkpt lat="36.77372360229492" lon="-118.38104248046875">
<ele>3471</ele>
<time>2016-10-08T12:29:09Z</time>
</trkpt>
<trkpt lat="36.773712158203125" lon="-118.381103515625">
<ele>3468</ele>
<time>2016-10-08T12:29:15Z</time>
</trkpt>
<trkpt lat="36.77377700805664" lon="-118.38118743896484">
<ele>3466</ele>
<time>2016-10-08T12:29:25Z</time>
</trkpt>
<trkpt lat="36.773807525634766" lon="-118.38127899169922">
<ele>3460</ele>
<time>2016-10-08T12:29:36Z</time>
</trkpt>
<trkpt lat="36.77387619018555" lon="-118.38137817382813">
<ele>3454</ele>
<time>2016-10-08T12:29:44Z</time>
</trkpt>
<trkpt lat="36.77392578125" lon="-118.38146209716797">
<ele>3459</ele>
<time>2016-10-08T12:29:59Z</time>
</trkpt>
<trkpt lat="36.773948669433594" lon="-118.38156127929688">
<ele>3452</ele>
<time>2016-10-08T12:31:43Z</time>
</trkpt>
<trkpt lat="36.77397155761719" lon="-118.38162231445313">
<ele>3450</ele>
<time>2016-10-08T12:31:49Z</time>
</trkpt>
<trkpt lat="36.77394485473633" lon="-118.38172912597656">
<ele>3450</ele>
<time>2016-10-08T12:31:58Z</time>
</trkpt>
<trkpt lat="36.77384567260742" lon="-118.38172912597656">
<ele>3449</ele>
<time>2016-10-08T12:32:04Z</time>
</trkpt>
<trkpt lat="36.773738861083984" lon="-118.38172149658203">
<ele>3451</ele>
<time>2016-10-08T12:32:12Z</time>
</trkpt>
<trkpt lat="36.773746490478516" lon="-118.38184356689453">
<ele>3449</ele>
<time>2016-10-08T12:32:19Z</time>
</trkpt>
<trkpt lat="36.77368927001953" lon="-118.3818588256836">
<ele>3438</ele>
<time>2016-10-08T12:33:03Z</time>
</trkpt>
<trkpt lat="36.77358627319336" lon="-118.38194274902344">
<ele>3437</ele>
<time>2016-10-08T12:33:11Z</time>
</trkpt>
<trkpt lat="36.77355194091797" lon="-118.38206481933594">
<ele>3438</ele>
<time>2016-10-08T12:33:19Z</time>
</trkpt>
<trkpt lat="36.77350997924805" lon="-118.38209533691406">
<ele>3433</ele>
<time>2016-10-08T12:33:30Z</time>
</trkpt>
<trkpt lat="36.77346420288086" lon="-118.3821029663086">
<ele>3432</ele>
<time>2016-10-08T12:33:36Z</time>
</trkpt>
<trkpt lat="36.773414611816406" lon="-118.38211822509766">
<ele>3433</ele>
<time>2016-10-08T12:33:43Z</time>
</trkpt>
<trkpt lat="36.773311614990234" lon="-118.3821029663086">
<ele>3430</ele>
<time>2016-10-08T12:33:55Z</time>
</trkpt>
<trkpt lat="36.773277282714844" lon="-118.38215637207031">
<ele>3430</ele>
<time>2016-10-08T12:34:01Z</time>
</trkpt>
<trkpt lat="36.773197174072266" lon="-118.38220977783203">
<ele>3427</ele>
<time>2016-10-08T12:34:09Z</time>
</trkpt>
<trkpt lat="36.77311325073242" lon="-118.38225555419922">
<ele>3429</ele>
<time>2016-10-08T12:34:17Z</time>
</trkpt>
<trkpt lat="36.77302169799805" lon="-118.38223266601563">
<ele>3429</ele>
<time>2016-10-08T12:34:24Z</time>
</trkpt>
<trkpt lat="36.7729606628418" lon="-118.38233947753906">
<ele>3425</ele>
<time>2016-10-08T12:34:32Z</time>
</trkpt>
<trkpt lat="36.772918701171875" lon="-118.38243865966797">
<ele>3416</ele>
<time>2016-10-08T12:34:43Z</time>
</trkpt>
<trkpt lat="36.772857666015625" lon="-118.38252258300781">
<ele>3419</ele>
<time>2016-10-08T12:34:52Z</time>
</trkpt>
<trkpt lat="36.772823333740234" lon="-118.38264465332031">
<ele>3414</ele>
<time>2016-10-08T12:35:00Z</time>
</trkpt>
<trkpt lat="36.77281951904297" lon="-118.38277435302734">
<ele>3410</ele>
<time>2016-10-08T12:35:09Z</time>
</trkpt>
<trkpt lat="36.772850036621094" lon="-118.38288116455078">
<ele>3410</ele>
<time>2016-10-08T12:35:18Z</time>
</trkpt>
<trkpt lat="36.772884368896484" lon="-118.38301849365234">
<ele>3408</ele>
<time>2016-10-08T12:35:26Z</time>
</trkpt>
<trkpt lat="36.77286148071289" lon="-118.38313293457031">
<ele>3408</ele>
<time>2016-10-08T12:35:34Z</time>
</trkpt>
<trkpt lat="36.772865295410156" lon="-118.38325500488281">
<ele>3407</ele>
<time>2016-10-08T12:35:42Z</time>
</trkpt>
<trkpt lat="36.77288055419922" lon="-118.3833236694336">
<ele>3402</ele>
<time>2016-10-08T12:35:49Z</time>
</trkpt>
<trkpt lat="36.77286911010742" lon="-118.38337707519531">
<ele>3402</ele>
<time>2016-10-08T12:35:55Z</time>
</trkpt>
<trkpt lat="36.772857666015625" lon="-118.38350677490234">
<ele>3404</ele>
<time>2016-10-08T12:36:04Z</time>
</trkpt>
<trkpt lat="36.77283477783203" lon="-118.38357543945313">
<ele>3404</ele>
<time>2016-10-08T12:36:10Z</time>
</trkpt>
<trkpt lat="36.772796630859375" lon="-118.3836898803711">
<ele>3399</ele>
<time>2016-10-08T12:36:19Z</time>
</trkpt>
<trkpt lat="36.77278137207031" lon="-118.38382720947266">
<ele>3401</ele>
<time>2016-10-08T12:36:27Z</time>
</trkpt>
<trkpt lat="36.77275466918945" lon="-118.38395690917969">
<ele>3400</ele>
<time>2016-10-08T12:36:35Z</time>
</trkpt>
<trkpt lat="36.77272415161133" lon="-118.38407135009766">
<ele>3397</ele>
<time>2016-10-08T12:36:42Z</time>
</trkpt>
<trkpt lat="36.77271270751953" lon="-118.38419342041016">
<ele>3396</ele>
<time>2016-10-08T12:36:50Z</time>
</trkpt>
<trkpt lat="36.772708892822266" lon="-118.38432312011719">
<ele>3394</ele>
<time>2016-10-08T12:37:00Z</time>
</trkpt>
<trkpt lat="36.77265548706055" lon="-118.38443756103516">
<ele>3391</ele>
<time>2016-10-08T12:37:12Z</time>
</trkpt>
<trkpt lat="36.772605895996094" lon="-118.38453674316406">
<ele>3387</ele>
<time>2016-10-08T12:37:23Z</time>
</trkpt>
<trkpt lat="36.77259063720703" lon="-118.38459777832031">
<ele>3384</ele>
<time>2016-10-08T12:37:29Z</time>
</trkpt>
<trkpt lat="36.77252960205078" lon="-118.38468933105469">
<ele>3382</ele>
<time>2016-10-08T12:37:38Z</time>
</trkpt>
<trkpt lat="36.772491455078125" lon="-118.38480377197266">
<ele>3379</ele>
<time>2016-10-08T12:37:48Z</time>
</trkpt>
<trkpt lat="36.77244186401367" lon="-118.38470458984375">
<ele>3376</ele>
<time>2016-10-08T12:37:56Z</time>
</trkpt>
<trkpt lat="36.77241516113281" lon="-118.38458251953125">
<ele>3373</ele>
<time>2016-10-08T12:38:04Z</time>
</trkpt>
<trkpt lat="36.77238082885742" lon="-118.38451385498047">
<ele>3373</ele>
<time>2016-10-08T12:38:10Z</time>
</trkpt>
<trkpt lat="36.7723388671875" lon="-118.38440704345703">
<ele>3375</ele>
<time>2016-10-08T12:38:20Z</time>
</trkpt>
<trkpt lat="36.77229690551758" lon="-118.3843002319336">
<ele>3379</ele>
<time>2016-10-08T12:38:33Z</time>
</trkpt>
<trkpt lat="36.77223205566406" lon="-118.38420867919922">
<ele>3381</ele>
<time>2016-10-08T12:38:42Z</time>
</trkpt>
<trkpt lat="36.772151947021484" lon="-118.3841323852539">
<ele>3381</ele>
<time>2016-10-08T12:38:50Z</time>
</trkpt>
<trkpt lat="36.7720947265625" lon="-118.38402557373047">
<ele>3380</ele>
<time>2016-10-08T12:38:57Z</time>
</trkpt>
<trkpt lat="36.772056579589844" lon="-118.3839111328125">
<ele>3377</ele>
<time>2016-10-08T12:39:05Z</time>
</trkpt>
<trkpt lat="36.77201843261719" lon="-118.38380432128906">
<ele>3374</ele>
<time>2016-10-08T12:39:13Z</time>
</trkpt>
<trkpt lat="36.771968841552734" lon="-118.3836898803711">
<ele>3370</ele>
<time>2016-10-08T12:39:21Z</time>
</trkpt>
<trkpt lat="36.7719612121582" lon="-118.38375854492188">
<ele>3367</ele>
<time>2016-10-08T12:39:33Z</time>
</trkpt>
<trkpt lat="36.77198028564453" lon="-118.38381958007813">
<ele>3367</ele>
<time>2016-10-08T12:39:39Z</time>
</trkpt>
<trkpt lat="36.77193832397461" lon="-118.38384246826172">
<ele>3368</ele>
<time>2016-10-08T12:39:45Z</time>
</trkpt>
<trkpt lat="36.77186965942383" lon="-118.3839340209961">
<ele>3368</ele>
<time>2016-10-08T12:39:53Z</time>
</trkpt>
<trkpt lat="36.771881103515625" lon="-118.38404846191406">
<ele>3365</ele>
<time>2016-10-08T12:40:01Z</time>
</trkpt>
<trkpt lat="36.771888732910156" lon="-118.3841323852539">
<ele>3360</ele>
<time>2016-10-08T12:40:12Z</time>
</trkpt>
<trkpt lat="36.771888732910156" lon="-118.38419342041016">
<ele>3362</ele>
<time>2016-10-08T12:40:19Z</time>
</trkpt>
<trkpt lat="36.771827697753906" lon="-118.3843002319336">
<ele>3363</ele>
<time>2016-10-08T12:40:26Z</time>
</trkpt>
<trkpt lat="36.771827697753906" lon="-118.3844223022461">
<ele>3361</ele>
<time>2016-10-08T12:40:34Z</time>
</trkpt>
<trkpt lat="36.771881103515625" lon="-118.38455200195313">
<ele>3357</ele>
<time>2016-10-08T12:40:42Z</time>
</trkpt>
<trkpt lat="36.77187728881836" lon="-118.38465881347656">
<ele>3357</ele>
<time>2016-10-08T12:40:48Z</time>
</trkpt>
<trkpt lat="36.77183532714844" lon="-118.38471984863281">
<ele>3353</ele>
<time>2016-10-08T12:40:56Z</time>
</trkpt>
<trkpt lat="36.771881103515625" lon="-118.38483428955078">
<ele>3353</ele>
<time>2016-10-08T12:41:03Z</time>
</trkpt>
<trkpt lat="36.77189254760742" lon="-118.38492584228516">
<ele>3351</ele>
<time>2016-10-08T12:41:09Z</time>
</trkpt>
<trkpt lat="36.77190399169922" lon="-118.3849868774414">
<ele>3347</ele>
<time>2016-10-08T12:41:16Z</time>
</trkpt>
<trkpt lat="36.77190017700195" lon="-118.38512420654297">
<ele>3349</ele>
<time>2016-10-08T12:41:23Z</time>
</trkpt>
<trkpt lat="36.77188491821289" lon="-118.38524627685547">
<ele>3344</ele>
<time>2016-10-08T12:41:31Z</time>
</trkpt>
<trkpt lat="36.7718391418457" lon="-118.38534545898438">
<ele>3343</ele>
<time>2016-10-08T12:41:38Z</time>
</trkpt>
<trkpt lat="36.7718620300293" lon="-118.38548278808594">
<ele>3341</ele>
<time>2016-10-08T12:41:46Z</time>
</trkpt>
<trkpt lat="36.771854400634766" lon="-118.38560485839844">
<ele>3338</ele>
<time>2016-10-08T12:41:52Z</time>
</trkpt>
<trkpt lat="36.77182388305664" lon="-118.38572692871094">
<ele>3341</ele>
<time>2016-10-08T12:42:00Z</time>
</trkpt>
<trkpt lat="36.77179718017578" lon="-118.38591003417969">
<ele>3341</ele>
<time>2016-10-08T12:42:09Z</time>
</trkpt>
<trkpt lat="36.771793365478516" lon="-118.38603973388672">
<ele>3336</ele>
<time>2016-10-08T12:42:16Z</time>
</trkpt>
<trkpt lat="36.77176284790039" lon="-118.38614654541016">
<ele>3334</ele>
<time>2016-10-08T12:42:24Z</time>
</trkpt>
<trkpt lat="36.77174377441406" lon="-118.38628387451172">
<ele>3333</ele>
<time>2016-10-08T12:42:30Z</time>
</trkpt>
<trkpt lat="36.77176284790039" lon="-118.3863525390625">
<ele>3334</ele>
<time>2016-10-08T12:42:36Z</time>
</trkpt>
<trkpt lat="36.771766662597656" lon="-118.38648223876953">
<ele>3328</ele>
<time>2016-10-08T12:42:45Z</time>
</trkpt>
<trkpt lat="36.77177047729492" lon="-118.38660430908203">
<ele>3324</ele>
<time>2016-10-08T12:42:57Z</time>
</trkpt>
<trkpt lat="36.77171325683594" lon="-118.38671112060547">
<ele>3323</ele>
<time>2016-10-08T12:43:04Z</time>
</trkpt>
<trkpt lat="36.771705627441406" lon="-118.38679504394531">
<ele>3325</ele>
<time>2016-10-08T12:43:10Z</time>
</trkpt>
<trkpt lat="36.77167892456055" lon="-118.38691711425781">
<ele>3324</ele>
<time>2016-10-08T12:43:20Z</time>
</trkpt>
<trkpt lat="36.771690368652344" lon="-118.38704681396484">
<ele>3323</ele>
<time>2016-10-08T12:43:27Z</time>
</trkpt>
<trkpt lat="36.77170181274414" lon="-118.38719177246094">
<ele>3320</ele>
<time>2016-10-08T12:43:33Z</time>
</trkpt>
<trkpt lat="36.77168655395508" lon="-118.3873291015625">
<ele>3322</ele>
<time>2016-10-08T12:43:41Z</time>
</trkpt>
<trkpt lat="36.771636962890625" lon="-118.3874282836914">
<ele>3327</ele>
<time>2016-10-08T12:43:49Z</time>
</trkpt>
<trkpt lat="36.7716064453125" lon="-118.38754272460938">
<ele>3322</ele>
<time>2016-10-08T12:43:58Z</time>
</trkpt>
<trkpt lat="36.771549224853516" lon="-118.38766479492188">
<ele>3322</ele>
<time>2016-10-08T12:44:05Z</time>
</trkpt>
<trkpt lat="36.77152633666992" lon="-118.38780212402344">
<ele>3323</ele>
<time>2016-10-08T12:44:12Z</time>
</trkpt>
<trkpt lat="36.7714729309082" lon="-118.38790130615234">
<ele>3323</ele>
<time>2016-10-08T12:44:21Z</time>
</trkpt>
<trkpt lat="36.771453857421875" lon="-118.38803100585938">
<ele>3320</ele>
<time>2016-10-08T12:44:29Z</time>
</trkpt>
<trkpt lat="36.77140426635742" lon="-118.38814544677734">
<ele>3322</ele>
<time>2016-10-08T12:44:35Z</time>
</trkpt>
<trkpt lat="36.77134704589844" lon="-118.38825225830078">
<ele>3319</ele>
<time>2016-10-08T12:44:45Z</time>
</trkpt>
<trkpt lat="36.771331787109375" lon="-118.3883056640625">
<ele>3318</ele>
<time>2016-10-08T12:44:51Z</time>
</trkpt>
<trkpt lat="36.77131652832031" lon="-118.38835906982422">
<ele>3315</ele>
<time>2016-10-08T12:45:03Z</time>
</trkpt>
<trkpt lat="36.77124786376953" lon="-118.38848876953125">
<ele>3317</ele>
<time>2016-10-08T12:45:11Z</time>
</trkpt>
<trkpt lat="36.77118682861328" lon="-118.38858795166016">
<ele>3319</ele>
<time>2016-10-08T12:45:17Z</time>
</trkpt>
<trkpt lat="36.771095275878906" lon="-118.3886489868164">
<ele>3315</ele>
<time>2016-10-08T12:45:25Z</time>
</trkpt>
<trkpt lat="36.770992279052734" lon="-118.388671875">
<ele>3318</ele>
<time>2016-10-08T12:45:34Z</time>
</trkpt>
<trkpt lat="36.77092361450195" lon="-118.38875579833984">
<ele>3317</ele>
<time>2016-10-08T12:45:42Z</time>
</trkpt>
<trkpt lat="36.770843505859375" lon="-118.38885498046875">
<ele>3313</ele>
<time>2016-10-08T12:45:50Z</time>
</trkpt>
<trkpt lat="36.7708625793457" lon="-118.38898468017578">
<ele>3306</ele>
<time>2016-10-08T12:45:58Z</time>
</trkpt>
<trkpt lat="36.77090835571289" lon="-118.38907623291016">
<ele>3302</ele>
<time>2016-10-08T12:46:05Z</time>
</trkpt>
<trkpt lat="36.77099609375" lon="-118.38914489746094">
<ele>3300</ele>
<time>2016-10-08T12:46:15Z</time>
</trkpt>
<trkpt lat="36.77104949951172" lon="-118.38922882080078">
<ele>3302</ele>
<time>2016-10-08T12:46:22Z</time>
</trkpt>
<trkpt lat="36.771080017089844" lon="-118.38935089111328">
<ele>3300</ele>
<time>2016-10-08T12:46:28Z</time>
</trkpt>
<trkpt lat="36.77109146118164" lon="-118.38947296142578">
<ele>3299</ele>
<time>2016-10-08T12:46:36Z</time>
</trkpt>
<trkpt lat="36.7711067199707" lon="-118.38958740234375">
<ele>3295</ele>
<time>2016-10-08T12:46:45Z</time>
</trkpt>
<trkpt lat="36.77107620239258" lon="-118.3896484375">
<ele>3295</ele>
<time>2016-10-08T12:46:51Z</time>
</trkpt>
<trkpt lat="36.77101135253906" lon="-118.38973999023438">
<ele>3297</ele>
<time>2016-10-08T12:46:57Z</time>
</trkpt>
<trkpt lat="36.77096176147461" lon="-118.38986206054688">
<ele>3294</ele>
<time>2016-10-08T12:47:04Z</time>
</trkpt>
<trkpt lat="36.77098083496094" lon="-118.38999938964844">
<ele>3291</ele>
<time>2016-10-08T12:47:14Z</time>
</trkpt>
<trkpt lat="36.77100372314453" lon="-118.39013671875">
<ele>3292</ele>
<time>2016-10-08T12:47:21Z</time>
</trkpt>
<trkpt lat="36.770992279052734" lon="-118.3902816772461">
<ele>3290</ele>
<time>2016-10-08T12:47:29Z</time>
</trkpt>
<trkpt lat="36.77107238769531" lon="-118.39035034179688">
<ele>3287</ele>
<time>2016-10-08T12:47:38Z</time>
</trkpt>
<trkpt lat="36.77106857299805" lon="-118.39044952392578">
<ele>3286</ele>
<time>2016-10-08T12:47:47Z</time>
</trkpt>
<trkpt lat="36.77096939086914" lon="-118.39048767089844">
<ele>3286</ele>
<time>2016-10-08T12:47:56Z</time>
</trkpt>
<trkpt lat="36.7708854675293" lon="-118.39055633544922">
<ele>3284</ele>
<time>2016-10-08T12:48:04Z</time>
</trkpt>
<trkpt lat="36.770870208740234" lon="-118.39070129394531">
<ele>3281</ele>
<time>2016-10-08T12:48:12Z</time>
</trkpt>
<trkpt lat="36.77086639404297" lon="-118.39082336425781">
<ele>3283</ele>
<time>2016-10-08T12:48:19Z</time>
</trkpt>
<trkpt lat="36.7708740234375" lon="-118.39095306396484">
<ele>3282</ele>
<time>2016-10-08T12:48:26Z</time>
</trkpt>
<trkpt lat="36.770957946777344" lon="-118.39104461669922">
<ele>3279</ele>
<time>2016-10-08T12:48:36Z</time>
</trkpt>
<trkpt lat="36.770965576171875" lon="-118.39117431640625">
<ele>3280</ele>
<time>2016-10-08T12:48:45Z</time>
</trkpt>
<trkpt lat="36.771026611328125" lon="-118.39126586914063">
<ele>3277</ele>
<time>2016-10-08T12:48:51Z</time>
</trkpt>
<trkpt lat="36.77109909057617" lon="-118.39137268066406">
<ele>3276</ele>
<time>2016-10-08T12:48:59Z</time>
</trkpt>
<trkpt lat="36.77116394042969" lon="-118.3914566040039">
<ele>3276</ele>
<time>2016-10-08T12:49:05Z</time>
</trkpt>
<trkpt lat="36.771217346191406" lon="-118.39155578613281">
<ele>3275</ele>
<time>2016-10-08T12:49:13Z</time>
</trkpt>
<trkpt lat="36.771270751953125" lon="-118.39167785644531">
<ele>3274</ele>
<time>2016-10-08T12:49:22Z</time>
</trkpt>
<trkpt lat="36.771297454833984" lon="-118.39180755615234">
<ele>3275</ele>
<time>2016-10-08T12:49:29Z</time>
</trkpt>
<trkpt lat="36.771366119384766" lon="-118.39190673828125">
<ele>3269</ele>
<time>2016-10-08T12:49:40Z</time>
</trkpt>
<trkpt lat="36.771331787109375" lon="-118.39202880859375">
<ele>3266</ele>
<time>2016-10-08T12:49:49Z</time>
</trkpt>
<trkpt lat="36.771263122558594" lon="-118.3921127319336">
<ele>3265</ele>
<time>2016-10-08T12:49:55Z</time>
</trkpt>
<trkpt lat="36.771175384521484" lon="-118.39217376708984">
<ele>3264</ele>
<time>2016-10-08T12:50:03Z</time>
</trkpt>
<trkpt lat="36.77111053466797" lon="-118.39222717285156">
<ele>3266</ele>
<time>2016-10-08T12:50:11Z</time>
</trkpt>
<trkpt lat="36.77113342285156" lon="-118.3923568725586">
<ele>3263</ele>
<time>2016-10-08T12:50:21Z</time>
</trkpt>
<trkpt lat="36.77116394042969" lon="-118.3924789428711">
<ele>3265</ele>
<time>2016-10-08T12:50:30Z</time>
</trkpt>
<trkpt lat="36.77118682861328" lon="-118.39260864257813">
<ele>3261</ele>
<time>2016-10-08T12:50:37Z</time>
</trkpt>
<trkpt lat="36.7712287902832" lon="-118.39273071289063">
<ele>3258</ele>
<time>2016-10-08T12:50:46Z</time>
</trkpt>
<trkpt lat="36.77128982543945" lon="-118.39283752441406">
<ele>3258</ele>
<time>2016-10-08T12:50:54Z</time>
</trkpt>
<trkpt lat="36.771358489990234" lon="-118.39295196533203">
<ele>3257</ele>
<time>2016-10-08T12:51:01Z</time>
</trkpt>
<trkpt lat="36.77146911621094" lon="-118.39302062988281">
<ele>3259</ele>
<time>2016-10-08T12:51:09Z</time>
</trkpt>
<trkpt lat="36.77153396606445" lon="-118.39310455322266">
<ele>3257</ele>
<time>2016-10-08T12:51:17Z</time>
</trkpt>
<trkpt lat="36.77157211303711" lon="-118.3932113647461">
<ele>3255</ele>
<time>2016-10-08T12:51:26Z</time>
</trkpt>
<trkpt lat="36.771610260009766" lon="-118.39334869384766">
<ele>3252</ele>
<time>2016-10-08T12:51:34Z</time>
</trkpt>
<trkpt lat="36.77163314819336" lon="-118.39347076416016">
<ele>3252</ele>
<time>2016-10-08T12:51:42Z</time>
</trkpt>
<trkpt lat="36.77164840698242" lon="-118.39360046386719">
<ele>3250</ele>
<time>2016-10-08T12:51:50Z</time>
</trkpt>
<trkpt lat="36.77165603637695" lon="-118.39373779296875">
<ele>3253</ele>
<time>2016-10-08T12:51:59Z</time>
</trkpt>
<trkpt lat="36.77168273925781" lon="-118.39383697509766">
<ele>3252</ele>
<time>2016-10-08T12:52:05Z</time>
</trkpt>
<trkpt lat="36.77168655395508" lon="-118.39390563964844">
<ele>3254</ele>
<time>2016-10-08T12:52:11Z</time>
</trkpt>
<trkpt lat="36.771697998046875" lon="-118.39396667480469">
<ele>3256</ele>
<time>2016-10-08T12:52:17Z</time>
</trkpt>
<trkpt lat="36.771728515625" lon="-118.39407348632813">
<ele>3251</ele>
<time>2016-10-08T12:52:25Z</time>
</trkpt>
<trkpt lat="36.771697998046875" lon="-118.3941879272461">
<ele>3249</ele>
<time>2016-10-08T12:52:33Z</time>
</trkpt>
<trkpt lat="36.771751403808594" lon="-118.39430236816406">
<ele>3250</ele>
<time>2016-10-08T12:52:39Z</time>
</trkpt>
<trkpt lat="36.77180480957031" lon="-118.39442443847656">
<ele>3252</ele>
<time>2016-10-08T12:52:45Z</time>
</trkpt>
<trkpt lat="36.77180480957031" lon="-118.3945541381836">
<ele>3254</ele>
<time>2016-10-08T12:52:52Z</time>
</trkpt>
<trkpt lat="36.77178192138672" lon="-118.39460754394531">
<ele>3254</ele>
<time>2016-10-08T12:53:00Z</time>
</trkpt>
<trkpt lat="36.771766662597656" lon="-118.39476013183594">
<ele>3250</ele>
<time>2016-10-08T12:53:08Z</time>
</trkpt>
<trkpt lat="36.77177047729492" lon="-118.3948745727539">
<ele>3246</ele>
<time>2016-10-08T12:53:15Z</time>
</trkpt>
<trkpt lat="36.77178192138672" lon="-118.39493560791016">
<ele>3241</ele>
<time>2016-10-08T12:53:22Z</time>
</trkpt>
<trkpt lat="36.771728515625" lon="-118.3950424194336">
<ele>3243</ele>
<time>2016-10-08T12:53:29Z</time>
</trkpt>
<trkpt lat="36.77169418334961" lon="-118.39517211914063">
<ele>3243</ele>
<time>2016-10-08T12:53:35Z</time>
</trkpt>
<trkpt lat="36.77165222167969" lon="-118.39527893066406">
<ele>3239</ele>
<time>2016-10-08T12:53:47Z</time>
</trkpt>
<trkpt lat="36.77165985107422" lon="-118.39541625976563">
<ele>3237</ele>
<time>2016-10-08T12:53:57Z</time>
</trkpt>
<trkpt lat="36.771644592285156" lon="-118.39554595947266">
<ele>3235</ele>
<time>2016-10-08T12:54:05Z</time>
</trkpt>
<trkpt lat="36.771583557128906" lon="-118.39563751220703">
<ele>3240</ele>
<time>2016-10-08T12:54:11Z</time>
</trkpt>
<trkpt lat="36.771507263183594" lon="-118.39574432373047">
<ele>3241</ele>
<time>2016-10-08T12:54:17Z</time>
</trkpt>
<trkpt lat="36.77143096923828" lon="-118.39582061767578">
<ele>3238</ele>
<time>2016-10-08T12:54:23Z</time>
</trkpt>
<trkpt lat="36.771358489990234" lon="-118.3958969116211">
<ele>3235</ele>
<time>2016-10-08T12:54:29Z</time>
</trkpt>
<trkpt lat="36.771339416503906" lon="-118.39601135253906">
<ele>3234</ele>
<time>2016-10-08T12:54:36Z</time>
</trkpt>
<trkpt lat="36.771278381347656" lon="-118.39611053466797">
<ele>3235</ele>
<time>2016-10-08T12:54:44Z</time>
</trkpt>
<trkpt lat="36.77122497558594" lon="-118.3962173461914">
<ele>3235</ele>
<time>2016-10-08T12:54:52Z</time>
</trkpt>
<trkpt lat="36.771263122558594" lon="-118.39624786376953">
<ele>3228</ele>
<time>2016-10-08T12:54:59Z</time>
</trkpt>
<trkpt lat="36.77125930786133" lon="-118.39631652832031">
<ele>3226</ele>
<time>2016-10-08T12:55:05Z</time>
</trkpt>
<trkpt lat="36.7712287902832" lon="-118.39643859863281">
<ele>3224</ele>
<time>2016-10-08T12:55:13Z</time>
</trkpt>
<trkpt lat="36.77124786376953" lon="-118.3965835571289">
<ele>3225</ele>
<time>2016-10-08T12:55:21Z</time>
</trkpt>
<trkpt lat="36.771244049072266" lon="-118.3967056274414">
<ele>3226</ele>
<time>2016-10-08T12:55:28Z</time>
</trkpt>
<trkpt lat="36.771244049072266" lon="-118.3968276977539">
<ele>3228</ele>
<time>2016-10-08T12:55:36Z</time>
</trkpt>
<trkpt lat="36.771240234375" lon="-118.39696502685547">
<ele>3230</ele>
<time>2016-10-08T12:55:45Z</time>
</trkpt>
<trkpt lat="36.771244049072266" lon="-118.39710235595703">
<ele>3230</ele>
<time>2016-10-08T12:55:52Z</time>
</trkpt>
<trkpt lat="36.77126693725586" lon="-118.397216796875">
<ele>3231</ele>
<time>2016-10-08T12:55:58Z</time>
</trkpt>
<trkpt lat="36.77130126953125" lon="-118.3973159790039">
<ele>3228</ele>
<time>2016-10-08T12:56:05Z</time>
</trkpt>
<trkpt lat="36.77133560180664" lon="-118.39742279052734">
<ele>3229</ele>
<time>2016-10-08T12:56:11Z</time>
</trkpt>
<trkpt lat="36.77138900756836" lon="-118.39751434326172">
<ele>3225</ele>
<time>2016-10-08T12:56:21Z</time>
</trkpt>
<trkpt lat="36.771400451660156" lon="-118.39763641357422">
<ele>3228</ele>
<time>2016-10-08T12:56:29Z</time>
</trkpt>
<trkpt lat="36.77146530151367" lon="-118.39775085449219">
<ele>3227</ele>
<time>2016-10-08T12:56:38Z</time>
</trkpt>
<trkpt lat="36.77145767211914" lon="-118.39787292480469">
<ele>3227</ele>
<time>2016-10-08T12:56:46Z</time>
</trkpt>
<trkpt lat="36.77146911621094" lon="-118.39800262451172">
<ele>3227</ele>
<time>2016-10-08T12:56:53Z</time>
</trkpt>
<trkpt lat="36.77151870727539" lon="-118.3980941772461">
<ele>3225</ele>
<time>2016-10-08T12:57:02Z</time>
</trkpt>
<trkpt lat="36.771549224853516" lon="-118.398193359375">
<ele>3221</ele>
<time>2016-10-08T12:57:09Z</time>
</trkpt>
<trkpt lat="36.77155303955078" lon="-118.39830780029297">
<ele>3223</ele>
<time>2016-10-08T12:57:18Z</time>
</trkpt>
<trkpt lat="36.771583557128906" lon="-118.39842987060547">
<ele>3225</ele>
<time>2016-10-08T12:57:26Z</time>
</trkpt>
<trkpt lat="36.77154541015625" lon="-118.39856719970703">
<ele>3225</ele>
<time>2016-10-08T12:57:33Z</time>
</trkpt>
<trkpt lat="36.77151107788086" lon="-118.39869689941406">
<ele>3224</ele>
<time>2016-10-08T12:57:40Z</time>
</trkpt>
<trkpt lat="36.7714958190918" lon="-118.39883422851563">
<ele>3223</ele>
<time>2016-10-08T12:57:49Z</time>
</trkpt>
<trkpt lat="36.77149963378906" lon="-118.39896392822266">
<ele>3223</ele>
<time>2016-10-08T12:57:56Z</time>
</trkpt>
<trkpt lat="36.77153396606445" lon="-118.3990707397461">
<ele>3220</ele>
<time>2016-10-08T12:58:04Z</time>
</trkpt>
<trkpt lat="36.7716064453125" lon="-118.399169921875">
<ele>3218</ele>
<time>2016-10-08T12:58:12Z</time>
</trkpt>
<trkpt lat="36.77161407470703" lon="-118.3992919921875">
<ele>3221</ele>
<time>2016-10-08T12:58:20Z</time>
</trkpt>
<trkpt lat="36.77165222167969" lon="-118.3994140625">
<ele>3219</ele>
<time>2016-10-08T12:58:29Z</time>
</trkpt>
<trkpt lat="36.771690368652344" lon="-118.39952850341797">
<ele>3219</ele>
<time>2016-10-08T12:58:37Z</time>
</trkpt>
<trkpt lat="36.7717399597168" lon="-118.39962768554688">
<ele>3215</ele>
<time>2016-10-08T12:58:46Z</time>
</trkpt>
<trkpt lat="36.77182388305664" lon="-118.39969635009766">
<ele>3213</ele>
<time>2016-10-08T12:58:52Z</time>
</trkpt>
<trkpt lat="36.771907806396484" lon="-118.39974212646484">
<ele>3218</ele>
<time>2016-10-08T12:59:00Z</time>
</trkpt>
<trkpt lat="36.771915435791016" lon="-118.39990234375">
<ele>3219</ele>
<time>2016-10-08T12:59:08Z</time>
</trkpt>
<trkpt lat="36.77194595336914" lon="-118.4000244140625">
<ele>3217</ele>
<time>2016-10-08T12:59:16Z</time>
</trkpt>
<trkpt lat="36.771968841552734" lon="-118.400146484375">
<ele>3215</ele>
<time>2016-10-08T12:59:23Z</time>
</trkpt>
<trkpt lat="36.77202224731445" lon="-118.4002456665039">
<ele>3218</ele>
<time>2016-10-08T12:59:29Z</time>
</trkpt>
<trkpt lat="36.772056579589844" lon="-118.4003677368164">
<ele>3215</ele>
<time>2016-10-08T12:59:36Z</time>
</trkpt>
<trkpt lat="36.77206039428711" lon="-118.4005126953125">
<ele>3214</ele>
<time>2016-10-08T12:59:42Z</time>
</trkpt>
<trkpt lat="36.7720832824707" lon="-118.400634765625">
<ele>3216</ele>
<time>2016-10-08T12:59:49Z</time>
</trkpt>
<trkpt lat="36.7720832824707" lon="-118.4007568359375">
<ele>3217</ele>
<time>2016-10-08T12:59:55Z</time>
</trkpt>
<trkpt lat="36.77210235595703" lon="-118.40088653564453">
<ele>3213</ele>
<time>2016-10-08T13:00:02Z</time>
</trkpt>
<trkpt lat="36.7720947265625" lon="-118.40099334716797">
<ele>3212</ele>
<time>2016-10-08T13:00:10Z</time>
</trkpt>
<trkpt lat="36.77212905883789" lon="-118.40110778808594">
<ele>3209</ele>
<time>2016-10-08T13:00:19Z</time>
</trkpt>
<trkpt lat="36.77219772338867" lon="-118.40119171142578">
<ele>3210</ele>
<time>2016-10-08T13:00:29Z</time>
</trkpt>
<trkpt lat="36.77227783203125" lon="-118.40126037597656">
<ele>3209</ele>
<time>2016-10-08T13:00:35Z</time>
</trkpt>
<trkpt lat="36.772342681884766" lon="-118.40135192871094">
<ele>3212</ele>
<time>2016-10-08T13:00:42Z</time>
</trkpt>
<trkpt lat="36.77239227294922" lon="-118.40137481689453">
<ele>3204</ele>
<time>2016-10-08T13:00:51Z</time>
</trkpt>
<trkpt lat="36.77249526977539" lon="-118.40142059326172">
<ele>3205</ele>
<time>2016-10-08T13:01:01Z</time>
</trkpt>
<trkpt lat="36.772579193115234" lon="-118.40150451660156">
<ele>3205</ele>
<time>2016-10-08T13:01:10Z</time>
</trkpt>
<trkpt lat="36.772605895996094" lon="-118.40162658691406">
<ele>3209</ele>
<time>2016-10-08T13:01:17Z</time>
</trkpt>
<trkpt lat="36.772647857666016" lon="-118.40177154541016">
<ele>3209</ele>
<time>2016-10-08T13:01:23Z</time>
</trkpt>
<trkpt lat="36.77262878417969" lon="-118.40189361572266">
<ele>3207</ele>
<time>2016-10-08T13:01:31Z</time>
</trkpt>
<trkpt lat="36.77260208129883" lon="-118.4020004272461">
<ele>3209</ele>
<time>2016-10-08T13:01:39Z</time>
</trkpt>
<trkpt lat="36.77260971069336" lon="-118.40206909179688">
<ele>3210</ele>
<time>2016-10-08T13:01:45Z</time>
</trkpt>
<trkpt lat="36.77266311645508" lon="-118.40218353271484">
<ele>3210</ele>
<time>2016-10-08T13:01:53Z</time>
</trkpt>
<trkpt lat="36.772708892822266" lon="-118.40229797363281">
<ele>3213</ele>
<time>2016-10-08T13:01:59Z</time>
</trkpt>
<trkpt lat="36.772743225097656" lon="-118.40233612060547">
<ele>3213</ele>
<time>2016-10-08T13:02:05Z</time>
</trkpt>
<trkpt lat="36.7728157043457" lon="-118.40243530273438">
<ele>3212</ele>
<time>2016-10-08T13:02:13Z</time>
</trkpt>
<trkpt lat="36.772918701171875" lon="-118.4024658203125">
<ele>3211</ele>
<time>2016-10-08T13:02:19Z</time>
</trkpt>
<trkpt lat="36.77301025390625" lon="-118.40253448486328">
<ele>3211</ele>
<time>2016-10-08T13:02:26Z</time>
</trkpt>
<trkpt lat="36.77309799194336" lon="-118.40262603759766">
<ele>3213</ele>
<time>2016-10-08T13:02:33Z</time>
</trkpt>
<trkpt lat="36.77316665649414" lon="-118.4027328491211">
<ele>3211</ele>
<time>2016-10-08T13:02:41Z</time>
</trkpt>
<trkpt lat="36.77320861816406" lon="-118.40283203125">
<ele>3209</ele>
<time>2016-10-08T13:02:49Z</time>
</trkpt>
<trkpt lat="36.773277282714844" lon="-118.4029312133789">
<ele>3208</ele>
<time>2016-10-08T13:02:57Z</time>
</trkpt>
<trkpt lat="36.773277282714844" lon="-118.4030532836914">
<ele>3208</ele>
<time>2016-10-08T13:03:05Z</time>
</trkpt>
<trkpt lat="36.77326965332031" lon="-118.40318298339844">
<ele>3209</ele>
<time>2016-10-08T13:03:13Z</time>
</trkpt>
<trkpt lat="36.773231506347656" lon="-118.40330505371094">
<ele>3213</ele>
<time>2016-10-08T13:03:20Z</time>
</trkpt>
<trkpt lat="36.773193359375" lon="-118.40342712402344">
<ele>3214</ele>
<time>2016-10-08T13:03:27Z</time>
</trkpt>
<trkpt lat="36.77313232421875" lon="-118.40351867675781">
<ele>3216</ele>
<time>2016-10-08T13:03:33Z</time>
</trkpt>
<trkpt lat="36.77313995361328" lon="-118.40357971191406">
<ele>3216</ele>
<time>2016-10-08T13:03:39Z</time>
</trkpt>
<trkpt lat="36.77312088012695" lon="-118.4037094116211">
<ele>3216</ele>
<time>2016-10-08T13:03:47Z</time>
</trkpt>
<trkpt lat="36.77311325073242" lon="-118.4038314819336">
<ele>3217</ele>
<time>2016-10-08T13:03:56Z</time>
</trkpt>
<trkpt lat="36.77313232421875" lon="-118.40388488769531">
<ele>3216</ele>
<time>2016-10-08T13:04:02Z</time>
</trkpt>
<trkpt lat="36.773128509521484" lon="-118.40398406982422">
<ele>3218</ele>
<time>2016-10-08T13:04:10Z</time>
</trkpt>
<trkpt lat="36.77307891845703" lon="-118.40409851074219">
<ele>3221</ele>
<time>2016-10-08T13:04:16Z</time>
</trkpt>
<trkpt lat="36.77305221557617" lon="-118.40421295166016">
<ele>3221</ele>
<time>2016-10-08T13:04:24Z</time>
</trkpt>
<trkpt lat="36.77305221557617" lon="-118.40433502197266">
<ele>3222</ele>
<time>2016-10-08T13:04:34Z</time>
</trkpt>
<trkpt lat="36.77304458618164" lon="-118.40446472167969">
<ele>3222</ele>
<time>2016-10-08T13:04:43Z</time>
</trkpt>
<trkpt lat="36.77302932739258" lon="-118.40452575683594">
<ele>3222</ele>
<time>2016-10-08T13:04:49Z</time>
</trkpt>
<trkpt lat="36.77306365966797" lon="-118.4046401977539">
<ele>3223</ele>
<time>2016-10-08T13:05:01Z</time>
</trkpt>
<trkpt lat="36.773040771484375" lon="-118.40475463867188">
<ele>3225</ele>
<time>2016-10-08T13:05:09Z</time>
</trkpt>
<trkpt lat="36.77302551269531" lon="-118.40489196777344">
<ele>3232</ele>
<time>2016-10-08T13:05:16Z</time>
</trkpt>
<trkpt lat="36.773006439208984" lon="-118.40502166748047">
<ele>3237</ele>
<time>2016-10-08T13:05:24Z</time>
</trkpt>
<trkpt lat="36.77301788330078" lon="-118.40513610839844">
<ele>3231</ele>
<time>2016-10-08T13:05:31Z</time>
</trkpt>
<trkpt lat="36.77306365966797" lon="-118.4052734375">
<ele>3228</ele>
<time>2016-10-08T13:05:38Z</time>
</trkpt>
<trkpt lat="36.773067474365234" lon="-118.40540313720703">
<ele>3226</ele>
<time>2016-10-08T13:05:45Z</time>
</trkpt>
<trkpt lat="36.7730598449707" lon="-118.4055404663086">
<ele>3230</ele>
<time>2016-10-08T13:05:53Z</time>
</trkpt>
<trkpt lat="36.77305221557617" lon="-118.4056625366211">
<ele>3230</ele>
<time>2016-10-08T13:06:01Z</time>
</trkpt>
<trkpt lat="36.773006439208984" lon="-118.40577697753906">
<ele>3233</ele>
<time>2016-10-08T13:06:08Z</time>
</trkpt>
<trkpt lat="36.77298355102539" lon="-118.4059066772461">
<ele>3231</ele>
<time>2016-10-08T13:06:15Z</time>
</trkpt>
<trkpt lat="36.77296447753906" lon="-118.4060287475586">
<ele>3230</ele>
<time>2016-10-08T13:06:24Z</time>
</trkpt>
<trkpt lat="36.77299118041992" lon="-118.40613555908203">
<ele>3232</ele>
<time>2016-10-08T13:06:32Z</time>
</trkpt>
<trkpt lat="36.77294921875" lon="-118.40609741210938">
<ele>3228</ele>
<time>2016-10-08T13:06:44Z</time>
</trkpt>
<trkpt lat="36.77299118041992" lon="-118.40613555908203">
<ele>3219</ele>
<time>2016-10-08T13:06:57Z</time>
</trkpt>
<trkpt lat="36.77302169799805" lon="-118.40618896484375">
<ele>3219</ele>
<time>2016-10-08T13:07:03Z</time>
</trkpt>
<trkpt lat="36.77302932739258" lon="-118.40629577636719">
<ele>3222</ele>
<time>2016-10-08T13:07:09Z</time>
</trkpt>
<trkpt lat="36.773067474365234" lon="-118.40642547607422">
<ele>3225</ele>
<time>2016-10-08T13:07:15Z</time>
</trkpt>
<trkpt lat="36.77300262451172" lon="-118.40660858154297">
<ele>3228</ele>
<time>2016-10-08T13:07:23Z</time>
</trkpt>
<trkpt lat="36.77293395996094" lon="-118.40670776367188">
<ele>3226</ele>
<time>2016-10-08T13:07:30Z</time>
</trkpt>
<trkpt lat="36.772865295410156" lon="-118.40680694580078">
<ele>3226</ele>
<time>2016-10-08T13:07:38Z</time>
</trkpt>
<trkpt lat="36.77287292480469" lon="-118.40687561035156">
<ele>3223</ele>
<time>2016-10-08T13:07:45Z</time>
</trkpt>
<trkpt lat="36.77288818359375" lon="-118.40701293945313">
<ele>3223</ele>
<time>2016-10-08T13:07:54Z</time>
</trkpt>
<trkpt lat="36.7728271484375" lon="-118.40711975097656">
<ele>3221</ele>
<time>2016-10-08T13:08:02Z</time>
</trkpt>
<trkpt lat="36.77275085449219" lon="-118.40721130371094">
<ele>3222</ele>
<time>2016-10-08T13:08:09Z</time>
</trkpt>
<trkpt lat="36.77268600463867" lon="-118.40730285644531">
<ele>3219</ele>
<time>2016-10-08T13:08:18Z</time>
</trkpt>
<trkpt lat="36.77259826660156" lon="-118.40738677978516">
<ele>3217</ele>
<time>2016-10-08T13:08:26Z</time>
</trkpt>
<trkpt lat="36.77251434326172" lon="-118.40746307373047">
<ele>3208</ele>
<time>2016-10-08T13:08:33Z</time>
</trkpt>
<trkpt lat="36.77241516113281" lon="-118.40746307373047">
<ele>3210</ele>
<time>2016-10-08T13:08:42Z</time>
</trkpt>
<trkpt lat="36.7723274230957" lon="-118.40751647949219">
<ele>3211</ele>
<time>2016-10-08T13:08:48Z</time>
</trkpt>
<trkpt lat="36.77223587036133" lon="-118.40754699707031">
<ele>3211</ele>
<time>2016-10-08T13:08:55Z</time>
</trkpt>
<trkpt lat="36.77212142944336" lon="-118.40756225585938">
<ele>3212</ele>
<time>2016-10-08T13:09:02Z</time>
</trkpt>
<trkpt lat="36.77202224731445" lon="-118.40756225585938">
<ele>3215</ele>
<time>2016-10-08T13:09:08Z</time>
</trkpt>
<trkpt lat="36.77192687988281" lon="-118.40750885009766">
<ele>3211</ele>
<time>2016-10-08T13:09:14Z</time>
</trkpt>
<trkpt lat="36.77183532714844" lon="-118.40750122070313">
<ele>3207</ele>
<time>2016-10-08T13:09:21Z</time>
</trkpt>
<trkpt lat="36.77173614501953" lon="-118.4074935913086">
<ele>3212</ele>
<time>2016-10-08T13:09:28Z</time>
</trkpt>
<trkpt lat="36.77163314819336" lon="-118.4074935913086">
<ele>3213</ele>
<time>2016-10-08T13:09:36Z</time>
</trkpt>
<trkpt lat="36.77152633666992" lon="-118.4074935913086">
<ele>3211</ele>
<time>2016-10-08T13:09:45Z</time>
</trkpt>
<trkpt lat="36.77146530151367" lon="-118.40760040283203">
<ele>3214</ele>
<time>2016-10-08T13:09:55Z</time>
</trkpt>
<trkpt lat="36.7713737487793" lon="-118.40766906738281">
<ele>3218</ele>
<time>2016-10-08T13:10:02Z</time>
</trkpt>
<trkpt lat="36.771263122558594" lon="-118.40768432617188">
<ele>3216</ele>
<time>2016-10-08T13:10:09Z</time>
</trkpt>
<trkpt lat="36.77116394042969" lon="-118.40775299072266">
<ele>3215</ele>
<time>2016-10-08T13:10:19Z</time>
</trkpt>
<trkpt lat="36.77109909057617" lon="-118.4078369140625">
<ele>3218</ele>
<time>2016-10-08T13:10:26Z</time>
</trkpt>
<trkpt lat="36.77101516723633" lon="-118.40789031982422">
<ele>3218</ele>
<time>2016-10-08T13:10:33Z</time>
</trkpt>
<trkpt lat="36.770992279052734" lon="-118.40795135498047">
<ele>3216</ele>
<time>2016-10-08T13:10:39Z</time>
</trkpt>
<trkpt lat="36.77103805541992" lon="-118.40805053710938">
<ele>3205</ele>
<time>2016-10-08T13:10:49Z</time>
</trkpt>
<trkpt lat="36.77109909057617" lon="-118.40815734863281">
<ele>3202</ele>
<time>2016-10-08T13:10:59Z</time>
</trkpt>
<trkpt lat="36.771080017089844" lon="-118.40823364257813">
<ele>3196</ele>
<time>2016-10-08T13:11:05Z</time>
</trkpt>
<trkpt lat="36.77098846435547" lon="-118.40827941894531">
<ele>3193</ele>
<time>2016-10-08T13:11:14Z</time>
</trkpt>
<trkpt lat="36.77088165283203" lon="-118.40830993652344">
<ele>3193</ele>
<time>2016-10-08T13:11:20Z</time>
</trkpt>
<trkpt lat="36.770774841308594" lon="-118.40829467773438">
<ele>3194</ele>
<time>2016-10-08T13:11:27Z</time>
</trkpt>
<trkpt lat="36.7707633972168" lon="-118.40836334228516">
<ele>3194</ele>
<time>2016-10-08T13:11:37Z</time>
</trkpt>
<trkpt lat="36.77070999145508" lon="-118.40847778320313">
<ele>3192</ele>
<time>2016-10-08T13:11:45Z</time>
</trkpt>
<trkpt lat="36.77069091796875" lon="-118.40860748291016">
<ele>3190</ele>
<time>2016-10-08T13:11:56Z</time>
</trkpt>
<trkpt lat="36.77073669433594" lon="-118.40872192382813">
<ele>3190</ele>
<time>2016-10-08T13:12:05Z</time>
</trkpt>
<trkpt lat="36.770721435546875" lon="-118.40884399414063">
<ele>3193</ele>
<time>2016-10-08T13:12:12Z</time>
</trkpt>
<trkpt lat="36.770721435546875" lon="-118.40898132324219">
<ele>3189</ele>
<time>2016-10-08T13:12:20Z</time>
</trkpt>
<trkpt lat="36.77070617675781" lon="-118.40910339355469">
<ele>3188</ele>
<time>2016-10-08T13:12:27Z</time>
</trkpt>
<trkpt lat="36.77067184448242" lon="-118.40921783447266">
<ele>3194</ele>
<time>2016-10-08T13:12:35Z</time>
</trkpt>
<trkpt lat="36.77061080932617" lon="-118.4093246459961">
<ele>3197</ele>
<time>2016-10-08T13:12:43Z</time>
</trkpt>
<trkpt lat="36.770545959472656" lon="-118.40943908691406">
<ele>3198</ele>
<time>2016-10-08T13:12:49Z</time>
</trkpt>
<trkpt lat="36.770469665527344" lon="-118.40953063964844">
<ele>3196</ele>
<time>2016-10-08T13:12:56Z</time>
</trkpt>
<trkpt lat="36.770389556884766" lon="-118.40960693359375">
<ele>3199</ele>
<time>2016-10-08T13:13:02Z</time>
</trkpt>
<trkpt lat="36.77029800415039" lon="-118.40967559814453">
<ele>3199</ele>
<time>2016-10-08T13:13:08Z</time>
</trkpt>
<trkpt lat="36.77024459838867" lon="-118.4097671508789">
<ele>3200</ele>
<time>2016-10-08T13:13:15Z</time>
</trkpt>
<trkpt lat="36.77014923095703" lon="-118.40982818603516">
<ele>3195</ele>
<time>2016-10-08T13:13:25Z</time>
</trkpt>
<trkpt lat="36.77008056640625" lon="-118.40989685058594">
<ele>3194</ele>
<time>2016-10-08T13:13:34Z</time>
</trkpt>
<trkpt lat="36.77000045776367" lon="-118.40997314453125">
<ele>3194</ele>
<time>2016-10-08T13:13:42Z</time>
</trkpt>
<trkpt lat="36.76988983154297" lon="-118.4100112915039">
<ele>3196</ele>
<time>2016-10-08T13:13:50Z</time>
</trkpt>
<trkpt lat="36.76978302001953" lon="-118.4100112915039">
<ele>3196</ele>
<time>2016-10-08T13:13:56Z</time>
</trkpt>
<trkpt lat="36.769710540771484" lon="-118.41007995605469">
<ele>3195</ele>
<time>2016-10-08T13:14:03Z</time>
</trkpt>
<trkpt lat="36.7696533203125" lon="-118.41006469726563">
<ele>3190</ele>
<time>2016-10-08T13:14:09Z</time>
</trkpt>
<trkpt lat="36.769554138183594" lon="-118.4100570678711">
<ele>3190</ele>
<time>2016-10-08T13:14:16Z</time>
</trkpt>
<trkpt lat="36.76945495605469" lon="-118.41006469726563">
<ele>3192</ele>
<time>2016-10-08T13:14:24Z</time>
</trkpt>
<trkpt lat="36.76939010620117" lon="-118.41016387939453">
<ele>3194</ele>
<time>2016-10-08T13:14:33Z</time>
</trkpt>
<trkpt lat="36.76939010620117" lon="-118.41028594970703">
<ele>3195</ele>
<time>2016-10-08T13:14:39Z</time>
</trkpt>
<trkpt lat="36.76937484741211" lon="-118.41041564941406">
<ele>3187</ele>
<time>2016-10-08T13:14:51Z</time>
</trkpt>
<trkpt lat="36.76937484741211" lon="-118.41047668457031">
<ele>3189</ele>
<time>2016-10-08T13:14:57Z</time>
</trkpt>
<trkpt lat="36.7694091796875" lon="-118.4105224609375">
<ele>3189</ele>
<time>2016-10-08T13:15:04Z</time>
</trkpt>
<trkpt lat="36.76932144165039" lon="-118.41060638427734">
<ele>3191</ele>
<time>2016-10-08T13:15:13Z</time>
</trkpt>
<trkpt lat="36.76929473876953" lon="-118.41072082519531">
<ele>3190</ele>
<time>2016-10-08T13:15:23Z</time>
</trkpt>
<trkpt lat="36.76927947998047" lon="-118.41082763671875">
<ele>3193</ele>
<time>2016-10-08T13:15:31Z</time>
</trkpt>
<trkpt lat="36.769187927246094" lon="-118.41080474853516">
<ele>3192</ele>
<time>2016-10-08T13:15:40Z</time>
</trkpt>
<trkpt lat="36.76911544799805" lon="-118.410888671875">
<ele>3195</ele>
<time>2016-10-08T13:15:48Z</time>
</trkpt>
<trkpt lat="36.76907730102539" lon="-118.41099548339844">
<ele>3195</ele>
<time>2016-10-08T13:15:56Z</time>
</trkpt>
<trkpt lat="36.76899719238281" lon="-118.41100311279297">
<ele>3190</ele>
<time>2016-10-08T13:16:05Z</time>
</trkpt>
<trkpt lat="36.768924713134766" lon="-118.41109466552734">
<ele>3183</ele>
<time>2016-10-08T13:16:14Z</time>
</trkpt>
<trkpt lat="36.76887893676758" lon="-118.41118621826172">
<ele>3185</ele>
<time>2016-10-08T13:16:23Z</time>
</trkpt>
<trkpt lat="36.76877975463867" lon="-118.41121673583984">
<ele>3185</ele>
<time>2016-10-08T13:16:30Z</time>
</trkpt>
<trkpt lat="36.76868438720703" lon="-118.41126251220703">
<ele>3182</ele>
<time>2016-10-08T13:16:38Z</time>
</trkpt>
<trkpt lat="36.768592834472656" lon="-118.41131591796875">
<ele>3176</ele>
<time>2016-10-08T13:16:47Z</time>
</trkpt>
<trkpt lat="36.76850128173828" lon="-118.41132354736328">
<ele>3176</ele>
<time>2016-10-08T13:16:53Z</time>
</trkpt>
<trkpt lat="36.768402099609375" lon="-118.41134643554688">
<ele>3179</ele>
<time>2016-10-08T13:17:00Z</time>
</trkpt>
<trkpt lat="36.768367767333984" lon="-118.41139221191406">
<ele>3182</ele>
<time>2016-10-08T13:17:37Z</time>
</trkpt>
<trkpt lat="36.76832580566406" lon="-118.41136932373047">
<ele>3187</ele>
<time>2016-10-08T13:18:03Z</time>
</trkpt>
<trkpt lat="36.76829528808594" lon="-118.41130828857422">
<ele>3188</ele>
<time>2016-10-08T13:18:14Z</time>
</trkpt>
<trkpt lat="36.768245697021484" lon="-118.41133117675781">
<ele>3183</ele>
<time>2016-10-08T13:18:22Z</time>
</trkpt>
<trkpt lat="36.76819610595703" lon="-118.41136169433594">
<ele>3182</ele>
<time>2016-10-08T13:18:28Z</time>
</trkpt>
<trkpt lat="36.768131256103516" lon="-118.41143798828125">
<ele>3177</ele>
<time>2016-10-08T13:18:37Z</time>
</trkpt>
<trkpt lat="36.76809310913086" lon="-118.41149139404297">
<ele>3179</ele>
<time>2016-10-08T13:18:43Z</time>
</trkpt>
<trkpt lat="36.768035888671875" lon="-118.4115982055664">
<ele>3175</ele>
<time>2016-10-08T13:18:53Z</time>
</trkpt>
<trkpt lat="36.76798629760742" lon="-118.41158294677734">
<ele>3175</ele>
<time>2016-10-08T13:19:00Z</time>
</trkpt>
<trkpt lat="36.767906188964844" lon="-118.41165161132813">
<ele>3174</ele>
<time>2016-10-08T13:19:09Z</time>
</trkpt>
<trkpt lat="36.7678337097168" lon="-118.41172790527344">
<ele>3174</ele>
<time>2016-10-08T13:19:16Z</time>
</trkpt>
<trkpt lat="36.767738342285156" lon="-118.41173553466797">
<ele>3169</ele>
<time>2016-10-08T13:19:23Z</time>
</trkpt>
<trkpt lat="36.767662048339844" lon="-118.41175842285156">
<ele>3166</ele>
<time>2016-10-08T13:19:34Z</time>
</trkpt>
<trkpt lat="36.76756286621094" lon="-118.41179656982422">
<ele>3166</ele>
<time>2016-10-08T13:19:41Z</time>
</trkpt>
<trkpt lat="36.767486572265625" lon="-118.41184997558594">
<ele>3169</ele>
<time>2016-10-08T13:19:49Z</time>
</trkpt>
<trkpt lat="36.76738739013672" lon="-118.41192626953125">
<ele>3171</ele>
<time>2016-10-08T13:19:57Z</time>
</trkpt>
<trkpt lat="36.76728439331055" lon="-118.41194152832031">
<ele>3166</ele>
<time>2016-10-08T13:20:05Z</time>
</trkpt>
<trkpt lat="36.767189025878906" lon="-118.41194915771484">
<ele>3164</ele>
<time>2016-10-08T13:20:12Z</time>
</trkpt>
<trkpt lat="36.76710510253906" lon="-118.41191864013672">
<ele>3162</ele>
<time>2016-10-08T13:20:21Z</time>
</trkpt>
<trkpt lat="36.767005920410156" lon="-118.41191101074219">
<ele>3162</ele>
<time>2016-10-08T13:20:30Z</time>
</trkpt>
<trkpt lat="36.76692581176758" lon="-118.4118423461914">
<ele>3158</ele>
<time>2016-10-08T13:20:39Z</time>
</trkpt>
<trkpt lat="36.76682662963867" lon="-118.41180419921875">
<ele>3156</ele>
<time>2016-10-08T13:20:48Z</time>
</trkpt>
<trkpt lat="36.7667350769043" lon="-118.41177368164063">
<ele>3154</ele>
<time>2016-10-08T13:20:54Z</time>
</trkpt>
<trkpt lat="36.766632080078125" lon="-118.41177368164063">
<ele>3151</ele>
<time>2016-10-08T13:21:03Z</time>
</trkpt>
<trkpt lat="36.766563415527344" lon="-118.41177368164063">
<ele>3147</ele>
<time>2016-10-08T13:21:11Z</time>
</trkpt>
<trkpt lat="36.766441345214844" lon="-118.41166687011719">
<ele>3153</ele>
<time>2016-10-08T13:21:19Z</time>
</trkpt>
<trkpt lat="36.76633834838867" lon="-118.41159057617188">
<ele>3150</ele>
<time>2016-10-08T13:21:25Z</time>
</trkpt>
<trkpt lat="36.7662353515625" lon="-118.41155242919922">
<ele>3147</ele>
<time>2016-10-08T13:21:38Z</time>
</trkpt>
<trkpt lat="36.7662239074707" lon="-118.41143798828125">
<ele>3141</ele>
<time>2016-10-08T13:21:45Z</time>
</trkpt>
<trkpt lat="36.766151428222656" lon="-118.41133880615234">
<ele>3139</ele>
<time>2016-10-08T13:21:52Z</time>
</trkpt>
<trkpt lat="36.7661018371582" lon="-118.41121673583984">
<ele>3137</ele>
<time>2016-10-08T13:21:59Z</time>
</trkpt>
<trkpt lat="36.76606369018555" lon="-118.41112518310547">
<ele>3134</ele>
<time>2016-10-08T13:22:05Z</time>
</trkpt>
<trkpt lat="36.76604461669922" lon="-118.4110107421875">
<ele>3130</ele>
<time>2016-10-08T13:22:13Z</time>
</trkpt>
<trkpt lat="36.76605987548828" lon="-118.41094970703125">
<ele>3128</ele>
<time>2016-10-08T13:22:20Z</time>
</trkpt>
<trkpt lat="36.76607894897461" lon="-118.41083526611328">
<ele>3129</ele>
<time>2016-10-08T13:22:28Z</time>
</trkpt>
<trkpt lat="36.766056060791016" lon="-118.41078186035156">
<ele>3129</ele>
<time>2016-10-08T13:22:35Z</time>
</trkpt>
<trkpt lat="36.766029357910156" lon="-118.41071319580078">
<ele>3127</ele>
<time>2016-10-08T13:22:41Z</time>
</trkpt>
<trkpt lat="36.766048431396484" lon="-118.41059112548828">
<ele>3128</ele>
<time>2016-10-08T13:22:49Z</time>
</trkpt>
<trkpt lat="36.76603698730469" lon="-118.41046142578125">
<ele>3123</ele>
<time>2016-10-08T13:23:00Z</time>
</trkpt>
<trkpt lat="36.76600646972656" lon="-118.41032409667969">
<ele>3126</ele>
<time>2016-10-08T13:23:08Z</time>
</trkpt>
<trkpt lat="36.76603317260742" lon="-118.41019439697266">
<ele>3124</ele>
<time>2016-10-08T13:23:15Z</time>
</trkpt>
<trkpt lat="36.766075134277344" lon="-118.4100570678711">
<ele>3121</ele>
<time>2016-10-08T13:23:21Z</time>
</trkpt>
<trkpt lat="36.76609420776367" lon="-118.4099349975586">
<ele>3122</ele>
<time>2016-10-08T13:23:28Z</time>
</trkpt>
<trkpt lat="36.766090393066406" lon="-118.40980529785156">
<ele>3121</ele>
<time>2016-10-08T13:23:34Z</time>
</trkpt>
<trkpt lat="36.76606369018555" lon="-118.40968322753906">
<ele>3117</ele>
<time>2016-10-08T13:23:42Z</time>
</trkpt>
<trkpt lat="36.766075134277344" lon="-118.40953063964844">
<ele>3118</ele>
<time>2016-10-08T13:23:49Z</time>
</trkpt>
<trkpt lat="36.76604461669922" lon="-118.4094009399414">
<ele>3121</ele>
<time>2016-10-08T13:23:59Z</time>
</trkpt>
<trkpt lat="36.7660026550293" lon="-118.40933227539063">
<ele>3118</ele>
<time>2016-10-08T13:24:05Z</time>
</trkpt>
<trkpt lat="36.765968322753906" lon="-118.40921020507813">
<ele>3114</ele>
<time>2016-10-08T13:24:12Z</time>
</trkpt>
<trkpt lat="36.765907287597656" lon="-118.40912628173828">
<ele>3113</ele>
<time>2016-10-08T13:24:20Z</time>
</trkpt>
<trkpt lat="36.765907287597656" lon="-118.40899658203125">
<ele>3107</ele>
<time>2016-10-08T13:24:27Z</time>
</trkpt>
<trkpt lat="36.76593780517578" lon="-118.40888214111328">
<ele>3106</ele>
<time>2016-10-08T13:24:37Z</time>
</trkpt>
<trkpt lat="36.76594161987305" lon="-118.40882110595703">
<ele>3102</ele>
<time>2016-10-08T13:24:44Z</time>
</trkpt>
<trkpt lat="36.76594543457031" lon="-118.40876007080078">
<ele>3102</ele>
<time>2016-10-08T13:24:50Z</time>
</trkpt>
<trkpt lat="36.765926361083984" lon="-118.40862274169922">
<ele>3102</ele>
<time>2016-10-08T13:24:59Z</time>
</trkpt>
<trkpt lat="36.76590347290039" lon="-118.40850830078125">
<ele>3105</ele>
<time>2016-10-08T13:25:05Z</time>
</trkpt>
<trkpt lat="36.76588439941406" lon="-118.40839385986328">
<ele>3103</ele>
<time>2016-10-08T13:25:13Z</time>
</trkpt>
<trkpt lat="36.76588821411133" lon="-118.40825653076172">
<ele>3101</ele>
<time>2016-10-08T13:25:20Z</time>
</trkpt>
<trkpt lat="36.765892028808594" lon="-118.40812683105469">
<ele>3096</ele>
<time>2016-10-08T13:25:28Z</time>
</trkpt>
<trkpt lat="36.765907287597656" lon="-118.40800476074219">
<ele>3093</ele>
<time>2016-10-08T13:25:45Z</time>
</trkpt>
<trkpt lat="36.76593017578125" lon="-118.4078598022461">
<ele>3092</ele>
<time>2016-10-08T13:25:54Z</time>
</trkpt>
<trkpt lat="36.765892028808594" lon="-118.40775299072266">
<ele>3090</ele>
<time>2016-10-08T13:26:03Z</time>
</trkpt>
<trkpt lat="36.765872955322266" lon="-118.4078140258789">
<ele>3086</ele>
<time>2016-10-08T13:26:11Z</time>
</trkpt>
<trkpt lat="36.76585006713867" lon="-118.40794372558594">
<ele>3083</ele>
<time>2016-10-08T13:26:19Z</time>
</trkpt>
<trkpt lat="36.76583480834961" lon="-118.40800476074219">
<ele>3081</ele>
<time>2016-10-08T13:26:25Z</time>
</trkpt>
<trkpt lat="36.765811920166016" lon="-118.40812683105469">
<ele>3087</ele>
<time>2016-10-08T13:26:31Z</time>
</trkpt>
<trkpt lat="36.76579284667969" lon="-118.40826416015625">
<ele>3086</ele>
<time>2016-10-08T13:26:38Z</time>
</trkpt>
<trkpt lat="36.76573181152344" lon="-118.40836334228516">
<ele>3087</ele>
<time>2016-10-08T13:26:46Z</time>
</trkpt>
<trkpt lat="36.76564407348633" lon="-118.4084243774414">
<ele>3083</ele>
<time>2016-10-08T13:26:54Z</time>
</trkpt>
<trkpt lat="36.76556396484375" lon="-118.40849304199219">
<ele>3081</ele>
<time>2016-10-08T13:27:03Z</time>
</trkpt>
<trkpt lat="36.765506744384766" lon="-118.40853881835938">
<ele>3078</ele>
<time>2016-10-08T13:27:10Z</time>
</trkpt>
<trkpt lat="36.76541519165039" lon="-118.40858459472656">
<ele>3074</ele>
<time>2016-10-08T13:27:20Z</time>
</trkpt>
<trkpt lat="36.7653923034668" lon="-118.40864562988281">
<ele>3071</ele>
<time>2016-10-08T13:27:27Z</time>
</trkpt>
<trkpt lat="36.76533126831055" lon="-118.40864562988281">
<ele>3074</ele>
<time>2016-10-08T13:27:37Z</time>
</trkpt>
<trkpt lat="36.7652702331543" lon="-118.40860748291016">
<ele>3065</ele>
<time>2016-10-08T13:27:47Z</time>
</trkpt>
<trkpt lat="36.76525115966797" lon="-118.40855407714844">
<ele>3059</ele>
<time>2016-10-08T13:27:54Z</time>
</trkpt>
<trkpt lat="36.76527786254883" lon="-118.4084243774414">
<ele>3059</ele>
<time>2016-10-08T13:28:01Z</time>
</trkpt>
<trkpt lat="36.7652702331543" lon="-118.40830993652344">
<ele>3066</ele>
<time>2016-10-08T13:28:12Z</time>
</trkpt>
<trkpt lat="36.76519775390625" lon="-118.40836334228516">
<ele>3066</ele>
<time>2016-10-08T13:28:21Z</time>
</trkpt>
<trkpt lat="36.765106201171875" lon="-118.40840148925781">
<ele>3061</ele>
<time>2016-10-08T13:28:33Z</time>
</trkpt>
<trkpt lat="36.76508712768555" lon="-118.40827941894531">
<ele>3064</ele>
<time>2016-10-08T13:28:42Z</time>
</trkpt>
<trkpt lat="36.7651252746582" lon="-118.40824890136719">
<ele>3064</ele>
<time>2016-10-08T13:28:49Z</time>
</trkpt>
<trkpt lat="36.76512145996094" lon="-118.4081802368164">
<ele>3061</ele>
<time>2016-10-08T13:28:56Z</time>
</trkpt>
<trkpt lat="36.76515197753906" lon="-118.40806579589844">
<ele>3057</ele>
<time>2016-10-08T13:29:05Z</time>
</trkpt>
<trkpt lat="36.765132904052734" lon="-118.40800476074219">
<ele>3055</ele>
<time>2016-10-08T13:29:13Z</time>
</trkpt>
<trkpt lat="36.76509094238281" lon="-118.407958984375">
<ele>3053</ele>
<time>2016-10-08T13:29:19Z</time>
</trkpt>
<trkpt lat="36.76498794555664" lon="-118.40792846679688">
<ele>3057</ele>
<time>2016-10-08T13:29:28Z</time>
</trkpt>
<trkpt lat="36.7649040222168" lon="-118.40788269042969">
<ele>3053</ele>
<time>2016-10-08T13:29:39Z</time>
</trkpt>
<trkpt lat="36.76480484008789" lon="-118.40791320800781">
<ele>3052</ele>
<time>2016-10-08T13:29:49Z</time>
</trkpt>
<trkpt lat="36.764713287353516" lon="-118.407958984375">
<ele>3050</ele>
<time>2016-10-08T13:29:59Z</time>
</trkpt>
<trkpt lat="36.7646484375" lon="-118.40795135498047">
<ele>3045</ele>
<time>2016-10-08T13:30:05Z</time>
</trkpt>
<trkpt lat="36.76460647583008" lon="-118.40792083740234">
<ele>3047</ele>
<time>2016-10-08T13:30:11Z</time>
</trkpt>
<trkpt lat="36.7645149230957" lon="-118.40797424316406">
<ele>3044</ele>
<time>2016-10-08T13:30:25Z</time>
</trkpt>
<trkpt lat="36.764469146728516" lon="-118.4079818725586">
<ele>3040</ele>
<time>2016-10-08T13:30:31Z</time>
</trkpt>
<trkpt lat="36.76438522338867" lon="-118.40803527832031">
<ele>3041</ele>
<time>2016-10-08T13:30:39Z</time>
</trkpt>
<trkpt lat="36.76430892944336" lon="-118.40811157226563">
<ele>3038</ele>
<time>2016-10-08T13:30:46Z</time>
</trkpt>
<trkpt lat="36.76423263549805" lon="-118.40818786621094">
<ele>3047</ele>
<time>2016-10-08T13:30:58Z</time>
</trkpt>
<trkpt lat="36.76418685913086" lon="-118.40821838378906">
<ele>3050</ele>
<time>2016-10-08T13:31:21Z</time>
</trkpt>
<trkpt lat="36.76418685913086" lon="-118.40827178955078">
<ele>3044</ele>
<time>2016-10-08T13:31:36Z</time>
</trkpt>
<trkpt lat="36.7641487121582" lon="-118.40838623046875">
<ele>3040</ele>
<time>2016-10-08T13:31:44Z</time>
</trkpt>
<trkpt lat="36.76411056518555" lon="-118.40849304199219">
<ele>3035</ele>
<time>2016-10-08T13:31:52Z</time>
</trkpt>
<trkpt lat="36.7640495300293" lon="-118.40858459472656">
<ele>3037</ele>
<time>2016-10-08T13:32:01Z</time>
</trkpt>
<trkpt lat="36.76399230957031" lon="-118.40853881835938">
<ele>3031</ele>
<time>2016-10-08T13:32:10Z</time>
</trkpt>
<trkpt lat="36.763938903808594" lon="-118.40853118896484">
<ele>3030</ele>
<time>2016-10-08T13:32:18Z</time>
</trkpt>
<trkpt lat="36.76387023925781" lon="-118.40862274169922">
<ele>3029</ele>
<time>2016-10-08T13:32:25Z</time>
</trkpt>
<trkpt lat="36.763877868652344" lon="-118.4085693359375">
<ele>3022</ele>
<time>2016-10-08T13:32:33Z</time>
</trkpt>
<trkpt lat="36.76384353637695" lon="-118.40843963623047">
<ele>3020</ele>
<time>2016-10-08T13:32:42Z</time>
</trkpt>
<trkpt lat="36.76380157470703" lon="-118.4083023071289">
<ele>3018</ele>
<time>2016-10-08T13:32:48Z</time>
</trkpt>
<trkpt lat="36.76377868652344" lon="-118.4081802368164">
<ele>3020</ele>
<time>2016-10-08T13:32:55Z</time>
</trkpt>
<trkpt lat="36.763790130615234" lon="-118.40808868408203">
<ele>3022</ele>
<time>2016-10-08T13:33:05Z</time>
</trkpt>
<trkpt lat="36.76377868652344" lon="-118.40802001953125">
<ele>3025</ele>
<time>2016-10-08T13:33:53Z</time>
</trkpt>
<trkpt lat="36.763755798339844" lon="-118.407958984375">
<ele>3020</ele>
<time>2016-10-08T13:33:59Z</time>
</trkpt>
<trkpt lat="36.76372528076172" lon="-118.40789031982422">
<ele>3019</ele>
<time>2016-10-08T13:34:05Z</time>
</trkpt>
<trkpt lat="36.763675689697266" lon="-118.40790557861328">
<ele>3015</ele>
<time>2016-10-08T13:34:12Z</time>
</trkpt>
<trkpt lat="36.76360321044922" lon="-118.4079818725586">
<ele>3012</ele>
<time>2016-10-08T13:34:23Z</time>
</trkpt>
<trkpt lat="36.763545989990234" lon="-118.4080810546875">
<ele>3012</ele>
<time>2016-10-08T13:34:34Z</time>
</trkpt>
<trkpt lat="36.76351547241211" lon="-118.4081802368164">
<ele>3012</ele>
<time>2016-10-08T13:34:43Z</time>
</trkpt>
<trkpt lat="36.76348114013672" lon="-118.40821838378906">
<ele>3012</ele>
<time>2016-10-08T13:34:49Z</time>
</trkpt>
<trkpt lat="36.7634391784668" lon="-118.40824890136719">
<ele>3009</ele>
<time>2016-10-08T13:35:05Z</time>
</trkpt>
<trkpt lat="36.76339340209961" lon="-118.40824890136719">
<ele>3005</ele>
<time>2016-10-08T13:35:17Z</time>
</trkpt>
<trkpt lat="36.76334762573242" lon="-118.4082260131836">
<ele>3001</ele>
<time>2016-10-08T13:35:27Z</time>
</trkpt>
<trkpt lat="36.76329803466797" lon="-118.40824127197266">
<ele>3004</ele>
<time>2016-10-08T13:35:33Z</time>
</trkpt>
<trkpt lat="36.76325225830078" lon="-118.40824127197266">
<ele>3004</ele>
<time>2016-10-08T13:35:39Z</time>
</trkpt>
<trkpt lat="36.763206481933594" lon="-118.40821838378906">
<ele>2999</ele>
<time>2016-10-08T13:35:54Z</time>
</trkpt>
<trkpt lat="36.76313781738281" lon="-118.40811920166016">
<ele>2997</ele>
<time>2016-10-08T13:36:02Z</time>
</trkpt>
<trkpt lat="36.7630500793457" lon="-118.40809631347656">
<ele>2995</ele>
<time>2016-10-08T13:36:14Z</time>
</trkpt>
<trkpt lat="36.763031005859375" lon="-118.40814971923828">
<ele>2994</ele>
<time>2016-10-08T13:36:23Z</time>
</trkpt>
<trkpt lat="36.762996673583984" lon="-118.40819549560547">
<ele>2990</ele>
<time>2016-10-08T13:36:30Z</time>
</trkpt>
<trkpt lat="36.76294708251953" lon="-118.40819549560547">
<ele>2989</ele>
<time>2016-10-08T13:36:36Z</time>
</trkpt>
<trkpt lat="36.76289749145508" lon="-118.408203125">
<ele>2989</ele>
<time>2016-10-08T13:36:42Z</time>
</trkpt>
<trkpt lat="36.76285934448242" lon="-118.4082260131836">
<ele>2987</ele>
<time>2016-10-08T13:36:57Z</time>
</trkpt>
<trkpt lat="36.76278305053711" lon="-118.40828704833984">
<ele>2984</ele>
<time>2016-10-08T13:37:11Z</time>
</trkpt>
<trkpt lat="36.7626953125" lon="-118.4083251953125">
<ele>2983</ele>
<time>2016-10-08T13:37:21Z</time>
</trkpt>
<trkpt lat="36.76264572143555" lon="-118.40830993652344">
<ele>2980</ele>
<time>2016-10-08T13:37:27Z</time>
</trkpt>
<trkpt lat="36.76259994506836" lon="-118.40833282470703">
<ele>2977</ele>
<time>2016-10-08T13:37:33Z</time>
</trkpt>
<trkpt lat="36.76255798339844" lon="-118.4083023071289">
<ele>2971</ele>
<time>2016-10-08T13:37:43Z</time>
</trkpt>
<trkpt lat="36.76249694824219" lon="-118.40826416015625">
<ele>2964</ele>
<time>2016-10-08T13:38:05Z</time>
</trkpt>
<trkpt lat="36.76240921020508" lon="-118.40829467773438">
<ele>2963</ele>
<time>2016-10-08T13:38:14Z</time>
</trkpt>
<trkpt lat="36.762332916259766" lon="-118.40836334228516">
<ele>2963</ele>
<time>2016-10-08T13:38:22Z</time>
</trkpt>
<trkpt lat="36.76224899291992" lon="-118.40843200683594">
<ele>2957</ele>
<time>2016-10-08T13:38:36Z</time>
</trkpt>
<trkpt lat="36.762210845947266" lon="-118.40839385986328">
<ele>2956</ele>
<time>2016-10-08T13:38:43Z</time>
</trkpt>
<trkpt lat="36.76217269897461" lon="-118.40843963623047">
<ele>2953</ele>
<time>2016-10-08T13:39:01Z</time>
</trkpt>
<trkpt lat="36.76212692260742" lon="-118.40852355957031">
<ele>2952</ele>
<time>2016-10-08T13:39:24Z</time>
</trkpt>
<trkpt lat="36.76207733154297" lon="-118.40853118896484">
<ele>2953</ele>
<time>2016-10-08T13:39:31Z</time>
</trkpt>
<trkpt lat="36.76201248168945" lon="-118.40863037109375">
<ele>2952</ele>
<time>2016-10-08T13:39:41Z</time>
</trkpt>
<trkpt lat="36.76192855834961" lon="-118.40863800048828">
<ele>2948</ele>
<time>2016-10-08T13:39:49Z</time>
</trkpt>
<trkpt lat="36.76182556152344" lon="-118.40866088867188">
<ele>2942</ele>
<time>2016-10-08T13:40:01Z</time>
</trkpt>
<trkpt lat="36.761749267578125" lon="-118.40867614746094">
<ele>2944</ele>
<time>2016-10-08T13:40:08Z</time>
</trkpt>
<trkpt lat="36.76165771484375" lon="-118.4086685180664">
<ele>2936</ele>
<time>2016-10-08T13:40:21Z</time>
</trkpt>
<trkpt lat="36.76162338256836" lon="-118.40863037109375">
<ele>2932</ele>
<time>2016-10-08T13:40:28Z</time>
</trkpt>
<trkpt lat="36.76157760620117" lon="-118.40850830078125">
<ele>2927</ele>
<time>2016-10-08T13:40:35Z</time>
</trkpt>
<trkpt lat="36.761512756347656" lon="-118.4084243774414">
<ele>2925</ele>
<time>2016-10-08T13:40:43Z</time>
</trkpt>
<trkpt lat="36.76144027709961" lon="-118.40853118896484">
<ele>2926</ele>
<time>2016-10-08T13:40:53Z</time>
</trkpt>
<trkpt lat="36.76139831542969" lon="-118.40855407714844">
<ele>2923</ele>
<time>2016-10-08T13:40:59Z</time>
</trkpt>
<trkpt lat="36.761348724365234" lon="-118.4085693359375">
<ele>2926</ele>
<time>2016-10-08T13:41:05Z</time>
</trkpt>
<trkpt lat="36.76130676269531" lon="-118.40858459472656">
<ele>2926</ele>
<time>2016-10-08T13:41:20Z</time>
</trkpt>
<trkpt lat="36.76128005981445" lon="-118.40863800048828">
<ele>2925</ele>
<time>2016-10-08T13:41:29Z</time>
</trkpt>
<trkpt lat="36.761226654052734" lon="-118.40866088867188">
<ele>2919</ele>
<time>2016-10-08T13:41:35Z</time>
</trkpt>
<trkpt lat="36.76113510131836" lon="-118.40869140625">
<ele>2917</ele>
<time>2016-10-08T13:41:53Z</time>
</trkpt>
<trkpt lat="36.76105499267578" lon="-118.40875244140625">
<ele>2918</ele>
<time>2016-10-08T13:42:04Z</time>
</trkpt>
<trkpt lat="36.76099395751953" lon="-118.40876770019531">
<ele>2917</ele>
<time>2016-10-08T13:42:10Z</time>
</trkpt>
<trkpt lat="36.760948181152344" lon="-118.40877532958984">
<ele>2916</ele>
<time>2016-10-08T13:42:19Z</time>
</trkpt>
<trkpt lat="36.760894775390625" lon="-118.40878295898438">
<ele>2913</ele>
<time>2016-10-08T13:42:25Z</time>
</trkpt>
<trkpt lat="36.760799407958984" lon="-118.40879821777344">
<ele>2908</ele>
<time>2016-10-08T13:42:35Z</time>
</trkpt>
<trkpt lat="36.76074981689453" lon="-118.4087905883789">
<ele>2907</ele>
<time>2016-10-08T13:42:43Z</time>
</trkpt>
<trkpt lat="36.76070022583008" lon="-118.40878295898438">
<ele>2901</ele>
<time>2016-10-08T13:42:51Z</time>
</trkpt>
<trkpt lat="36.760650634765625" lon="-118.40879821777344">
<ele>2899</ele>
<time>2016-10-08T13:42:58Z</time>
</trkpt>
<trkpt lat="36.760581970214844" lon="-118.40877532958984">
<ele>2893</ele>
<time>2016-10-08T13:43:05Z</time>
</trkpt>
<trkpt lat="36.760536193847656" lon="-118.40875244140625">
<ele>2890</ele>
<time>2016-10-08T13:43:11Z</time>
</trkpt>
<trkpt lat="36.76049041748047" lon="-118.40872192382813">
<ele>2892</ele>
<time>2016-10-08T13:43:21Z</time>
</trkpt>
<trkpt lat="36.760440826416016" lon="-118.40872955322266">
<ele>2890</ele>
<time>2016-10-08T13:43:30Z</time>
</trkpt>
<trkpt lat="36.76039505004883" lon="-118.40875244140625">
<ele>2885</ele>
<time>2016-10-08T13:43:36Z</time>
</trkpt>
<trkpt lat="36.76034927368164" lon="-118.40877532958984">
<ele>2882</ele>
<time>2016-10-08T13:43:42Z</time>
</trkpt>
<trkpt lat="36.76025390625" lon="-118.40876770019531">
<ele>2886</ele>
<time>2016-10-08T13:43:53Z</time>
</trkpt>
</trkseg>
</trk>
<trk>
<name><![CDATA[10080644]]></name>
<number>16</number>
<extensions><topografix:color>ff000066</topografix:color></extensions>
<trkseg>
<trkpt lat="36.76023483276367" lon="-118.40872955322266">
<ele>2890</ele>
<time>2016-10-08T13:44:05Z</time>
</trkpt>
<trkpt lat="36.76028060913086" lon="-118.40870666503906">
<ele>2890</ele>
<time>2016-10-08T13:44:18Z</time>
</trkpt>
<trkpt lat="36.76021957397461" lon="-118.40867614746094">
<ele>2880</ele>
<time>2016-10-08T13:44:30Z</time>
</trkpt>
<trkpt lat="36.76011657714844" lon="-118.40867614746094">
<ele>2882</ele>
<time>2016-10-08T13:44:37Z</time>
</trkpt>
<trkpt lat="36.76001739501953" lon="-118.40872955322266">
<ele>2886</ele>
<time>2016-10-08T13:44:46Z</time>
</trkpt>
<trkpt lat="36.759925842285156" lon="-118.40869903564453">
<ele>2884</ele>
<time>2016-10-08T13:44:55Z</time>
</trkpt>
<trkpt lat="36.759857177734375" lon="-118.4085922241211">
<ele>2885</ele>
<time>2016-10-08T13:45:01Z</time>
</trkpt>
<trkpt lat="36.75978469848633" lon="-118.40850067138672">
<ele>2885</ele>
<time>2016-10-08T13:45:08Z</time>
</trkpt>
<trkpt lat="36.759735107421875" lon="-118.40847778320313">
<ele>2884</ele>
<time>2016-10-08T13:45:16Z</time>
</trkpt>
<trkpt lat="36.75968551635742" lon="-118.40837860107422">
<ele>2880</ele>
<time>2016-10-08T13:45:25Z</time>
</trkpt>
<trkpt lat="36.759647369384766" lon="-118.40825653076172">
<ele>2880</ele>
<time>2016-10-08T13:45:33Z</time>
</trkpt>
<trkpt lat="36.75961685180664" lon="-118.40813446044922">
<ele>2878</ele>
<time>2016-10-08T13:45:41Z</time>
</trkpt>
<trkpt lat="36.759605407714844" lon="-118.40800476074219">
<ele>2871</ele>
<time>2016-10-08T13:45:50Z</time>
</trkpt>
<trkpt lat="36.75955581665039" lon="-118.40788269042969">
<ele>2871</ele>
<time>2016-10-08T13:45:58Z</time>
</trkpt>
<trkpt lat="36.7595100402832" lon="-118.40775299072266">
<ele>2872</ele>
<time>2016-10-08T13:46:04Z</time>
</trkpt>
<trkpt lat="36.75946044921875" lon="-118.40764617919922">
<ele>2874</ele>
<time>2016-10-08T13:46:11Z</time>
</trkpt>
<trkpt lat="36.75943374633789" lon="-118.40758514404297">
<ele>2878</ele>
<time>2016-10-08T13:46:19Z</time>
</trkpt>
<trkpt lat="36.75938034057617" lon="-118.40760040283203">
<ele>2880</ele>
<time>2016-10-08T13:46:51Z</time>
</trkpt>
<trkpt lat="36.75933074951172" lon="-118.40760040283203">
<ele>2886</ele>
<time>2016-10-08T13:46:57Z</time>
</trkpt>
<trkpt lat="36.759334564208984" lon="-118.40754699707031">
<ele>2882</ele>
<time>2016-10-08T13:47:06Z</time>
</trkpt>
<trkpt lat="36.75938034057617" lon="-118.40750885009766">
<ele>2884</ele>
<time>2016-10-08T13:47:12Z</time>
</trkpt>
<trkpt lat="36.75942611694336" lon="-118.40748596191406">
<ele>2892</ele>
<time>2016-10-08T13:47:21Z</time>
</trkpt>
<trkpt lat="36.759403228759766" lon="-118.40735626220703">
<ele>2884</ele>
<time>2016-10-08T13:47:29Z</time>
</trkpt>
<trkpt lat="36.75934600830078" lon="-118.40725708007813">
<ele>2883</ele>
<time>2016-10-08T13:47:36Z</time>
</trkpt>
<trkpt lat="36.7592887878418" lon="-118.40714263916016">
<ele>2882</ele>
<time>2016-10-08T13:47:48Z</time>
</trkpt>
<trkpt lat="36.75921630859375" lon="-118.40705871582031">
<ele>2886</ele>
<time>2016-10-08T13:47:56Z</time>
</trkpt>
<trkpt lat="36.759151458740234" lon="-118.40694427490234">
<ele>2880</ele>
<time>2016-10-08T13:48:04Z</time>
</trkpt>
<trkpt lat="36.75914001464844" lon="-118.40682220458984">
<ele>2879</ele>
<time>2016-10-08T13:48:13Z</time>
</trkpt>
<trkpt lat="36.75914001464844" lon="-118.40668487548828">
<ele>2882</ele>
<time>2016-10-08T13:48:20Z</time>
</trkpt>
<trkpt lat="36.75912857055664" lon="-118.40655517578125">
<ele>2883</ele>
<time>2016-10-08T13:48:29Z</time>
</trkpt>
<trkpt lat="36.759117126464844" lon="-118.40643310546875">
<ele>2886</ele>
<time>2016-10-08T13:48:38Z</time>
</trkpt>
<trkpt lat="36.75910186767578" lon="-118.40631103515625">
<ele>2877</ele>
<time>2016-10-08T13:48:46Z</time>
</trkpt>
<trkpt lat="36.75908279418945" lon="-118.40618133544922">
<ele>2879</ele>
<time>2016-10-08T13:48:54Z</time>
</trkpt>
<trkpt lat="36.75904846191406" lon="-118.40605926513672">
<ele>2877</ele>
<time>2016-10-08T13:49:00Z</time>
</trkpt>
<trkpt lat="36.75899887084961" lon="-118.40591430664063">
<ele>2879</ele>
<time>2016-10-08T13:49:09Z</time>
</trkpt>
<trkpt lat="36.75895690917969" lon="-118.40581512451172">
<ele>2886</ele>
<time>2016-10-08T13:49:17Z</time>
</trkpt>
<trkpt lat="36.75888442993164" lon="-118.40572357177734">
<ele>2887</ele>
<time>2016-10-08T13:49:24Z</time>
</trkpt>
<trkpt lat="36.75880813598633" lon="-118.4056396484375">
<ele>2888</ele>
<time>2016-10-08T13:49:31Z</time>
</trkpt>
<trkpt lat="36.75876235961914" lon="-118.4055404663086">
<ele>2884</ele>
<time>2016-10-08T13:49:40Z</time>
</trkpt>
<trkpt lat="36.75869369506836" lon="-118.40544891357422">
<ele>2884</ele>
<time>2016-10-08T13:49:46Z</time>
</trkpt>
<trkpt lat="36.75861358642578" lon="-118.40536499023438">
<ele>2886</ele>
<time>2016-10-08T13:49:54Z</time>
</trkpt>
<trkpt lat="36.758567810058594" lon="-118.40523529052734">
<ele>2888</ele>
<time>2016-10-08T13:50:02Z</time>
</trkpt>
<trkpt lat="36.758514404296875" lon="-118.4051513671875">
<ele>2884</ele>
<time>2016-10-08T13:50:08Z</time>
</trkpt>
<trkpt lat="36.75847244262695" lon="-118.40503692626953">
<ele>2881</ele>
<time>2016-10-08T13:50:14Z</time>
</trkpt>
<trkpt lat="36.758399963378906" lon="-118.40493774414063">
<ele>2883</ele>
<time>2016-10-08T13:50:22Z</time>
</trkpt>
<trkpt lat="36.75831604003906" lon="-118.40485382080078">
<ele>2882</ele>
<time>2016-10-08T13:50:28Z</time>
</trkpt>
<trkpt lat="36.75824737548828" lon="-118.40478515625">
<ele>2884</ele>
<time>2016-10-08T13:50:34Z</time>
</trkpt>
<trkpt lat="36.7581787109375" lon="-118.4046859741211">
<ele>2883</ele>
<time>2016-10-08T13:50:42Z</time>
</trkpt>
<trkpt lat="36.75811767578125" lon="-118.40459442138672">
<ele>2881</ele>
<time>2016-10-08T13:50:50Z</time>
</trkpt>
<trkpt lat="36.7580451965332" lon="-118.40450286865234">
<ele>2880</ele>
<time>2016-10-08T13:50:57Z</time>
</trkpt>
<trkpt lat="36.757991790771484" lon="-118.40448760986328">
<ele>2882</ele>
<time>2016-10-08T13:51:05Z</time>
</trkpt>
<trkpt lat="36.7579460144043" lon="-118.40448760986328">
<ele>2885</ele>
<time>2016-10-08T13:51:12Z</time>
</trkpt>
<trkpt lat="36.75785446166992" lon="-118.40451049804688">
<ele>2887</ele>
<time>2016-10-08T13:51:21Z</time>
</trkpt>
<trkpt lat="36.757755279541016" lon="-118.40446472167969">
<ele>2886</ele>
<time>2016-10-08T13:51:29Z</time>
</trkpt>
<trkpt lat="36.757659912109375" lon="-118.40440368652344">
<ele>2885</ele>
<time>2016-10-08T13:51:38Z</time>
</trkpt>
<trkpt lat="36.7575569152832" lon="-118.40441131591797">
<ele>2886</ele>
<time>2016-10-08T13:51:47Z</time>
</trkpt>
<trkpt lat="36.75745391845703" lon="-118.40437316894531">
<ele>2884</ele>
<time>2016-10-08T13:51:56Z</time>
</trkpt>
<trkpt lat="36.757362365722656" lon="-118.40433502197266">
<ele>2881</ele>
<time>2016-10-08T13:52:04Z</time>
</trkpt>
<trkpt lat="36.757320404052734" lon="-118.40428924560547">
<ele>2885</ele>
<time>2016-10-08T13:52:11Z</time>
</trkpt>
<trkpt lat="36.75732421875" lon="-118.40422821044922">
<ele>2883</ele>
<time>2016-10-08T13:52:30Z</time>
</trkpt>
<trkpt lat="36.75728988647461" lon="-118.4041748046875">
<ele>2884</ele>
<time>2016-10-08T13:52:36Z</time>
</trkpt>
<trkpt lat="36.7571907043457" lon="-118.40414428710938">
<ele>2890</ele>
<time>2016-10-08T13:52:46Z</time>
</trkpt>
<trkpt lat="36.757179260253906" lon="-118.4040298461914">
<ele>2887</ele>
<time>2016-10-08T13:52:55Z</time>
</trkpt>
<trkpt lat="36.757144927978516" lon="-118.40396881103516">
<ele>2889</ele>
<time>2016-10-08T13:53:05Z</time>
</trkpt>
<trkpt lat="36.757102966308594" lon="-118.40399932861328">
<ele>2896</ele>
<time>2016-10-08T13:53:25Z</time>
</trkpt>
<trkpt lat="36.75705337524414" lon="-118.4040298461914">
<ele>2895</ele>
<time>2016-10-08T13:53:39Z</time>
</trkpt>
<trkpt lat="36.7569580078125" lon="-118.40403747558594">
<ele>2893</ele>
<time>2016-10-08T13:53:49Z</time>
</trkpt>
<trkpt lat="36.75685501098633" lon="-118.40400695800781">
<ele>2891</ele>
<time>2016-10-08T13:53:58Z</time>
</trkpt>
<trkpt lat="36.756797790527344" lon="-118.40402221679688">
<ele>2888</ele>
<time>2016-10-08T13:54:05Z</time>
</trkpt>
<trkpt lat="36.7567024230957" lon="-118.4040298461914">
<ele>2888</ele>
<time>2016-10-08T13:54:15Z</time>
</trkpt>
<trkpt lat="36.75661087036133" lon="-118.404052734375">
<ele>2892</ele>
<time>2016-10-08T13:54:24Z</time>
</trkpt>
<trkpt lat="36.75651931762695" lon="-118.40408325195313">
<ele>2897</ele>
<time>2016-10-08T13:54:34Z</time>
</trkpt>
<trkpt lat="36.75642776489258" lon="-118.40408325195313">
<ele>2902</ele>
<time>2016-10-08T13:54:43Z</time>
</trkpt>
<trkpt lat="36.756378173828125" lon="-118.4040756225586">
<ele>2900</ele>
<time>2016-10-08T13:54:49Z</time>
</trkpt>
<trkpt lat="36.75633239746094" lon="-118.40408325195313">
<ele>2899</ele>
<time>2016-10-08T13:54:55Z</time>
</trkpt>
<trkpt lat="36.756282806396484" lon="-118.40406036376953">
<ele>2898</ele>
<time>2016-10-08T13:55:01Z</time>
</trkpt>
<trkpt lat="36.75624465942383" lon="-118.40413665771484">
<ele>2904</ele>
<time>2016-10-08T13:55:16Z</time>
</trkpt>
<trkpt lat="36.756202697753906" lon="-118.4041519165039">
<ele>2910</ele>
<time>2016-10-08T13:55:43Z</time>
</trkpt>
<trkpt lat="36.75615692138672" lon="-118.40416717529297">
<ele>2905</ele>
<time>2016-10-08T13:55:53Z</time>
</trkpt>
<trkpt lat="36.75617218017578" lon="-118.40406799316406">
<ele>2898</ele>
<time>2016-10-08T13:56:56Z</time>
</trkpt>
<trkpt lat="36.756229400634766" lon="-118.40399932861328">
<ele>2899</ele>
<time>2016-10-08T13:57:05Z</time>
</trkpt>
<trkpt lat="36.756221771240234" lon="-118.404052734375">
<ele>2896</ele>
<time>2016-10-08T13:57:22Z</time>
</trkpt>
<trkpt lat="36.75621795654297" lon="-118.40412139892578">
<ele>2904</ele>
<time>2016-10-08T13:57:47Z</time>
</trkpt>
<trkpt lat="36.75617980957031" lon="-118.40415954589844">
<ele>2925</ele>
<time>2016-10-08T13:59:05Z</time>
</trkpt>
<trkpt lat="36.756202697753906" lon="-118.40411376953125">
<ele>2907</ele>
<time>2016-10-08T13:59:44Z</time>
</trkpt>
<trkpt lat="36.75618362426758" lon="-118.40406036376953">
<ele>2904</ele>
<time>2016-10-08T14:00:00Z</time>
</trkpt>
<trkpt lat="36.75624084472656" lon="-118.40404510498047">
<ele>2890</ele>
<time>2016-10-08T14:01:05Z</time>
</trkpt>
<trkpt lat="36.756202697753906" lon="-118.40401458740234">
<ele>2893</ele>
<time>2016-10-08T14:01:12Z</time>
</trkpt>
<trkpt lat="36.75615310668945" lon="-118.40399932861328">
<ele>2895</ele>
<time>2016-10-08T14:01:18Z</time>
</trkpt>
<trkpt lat="36.75611114501953" lon="-118.40399169921875">
<ele>2900</ele>
<time>2016-10-08T14:01:27Z</time>
</trkpt>
<trkpt lat="36.75606155395508" lon="-118.40397644042969">
<ele>2897</ele>
<time>2016-10-08T14:01:34Z</time>
</trkpt>
<trkpt lat="36.75596618652344" lon="-118.40402221679688">
<ele>2895</ele>
<time>2016-10-08T14:01:51Z</time>
</trkpt>
<trkpt lat="36.755889892578125" lon="-118.40406799316406">
<ele>2894</ele>
<time>2016-10-08T14:02:10Z</time>
</trkpt>
<trkpt lat="36.75584411621094" lon="-118.40406799316406">
<ele>2896</ele>
<time>2016-10-08T14:02:16Z</time>
</trkpt>
<trkpt lat="36.755794525146484" lon="-118.40408325195313">
<ele>2894</ele>
<time>2016-10-08T14:02:22Z</time>
</trkpt>
<trkpt lat="36.75569534301758" lon="-118.4040756225586">
<ele>2902</ele>
<time>2016-10-08T14:02:36Z</time>
</trkpt>
<trkpt lat="36.755653381347656" lon="-118.404052734375">
<ele>2900</ele>
<time>2016-10-08T14:02:46Z</time>
</trkpt>
<trkpt lat="36.75560760498047" lon="-118.40406799316406">
<ele>2901</ele>
<time>2016-10-08T14:03:00Z</time>
</trkpt>
<trkpt lat="36.75553894042969" lon="-118.40412902832031">
<ele>2902</ele>
<time>2016-10-08T14:03:20Z</time>
</trkpt>
<trkpt lat="36.7554931640625" lon="-118.40410614013672">
<ele>2899</ele>
<time>2016-10-08T14:03:31Z</time>
</trkpt>
<trkpt lat="36.75544357299805" lon="-118.40411376953125">
<ele>2904</ele>
<time>2016-10-08T14:03:41Z</time>
</trkpt>
<trkpt lat="36.75539779663086" lon="-118.40413665771484">
<ele>2914</ele>
<time>2016-10-08T14:03:53Z</time>
</trkpt>
<trkpt lat="36.75535202026367" lon="-118.40414428710938">
<ele>2911</ele>
<time>2016-10-08T14:04:00Z</time>
</trkpt>
<trkpt lat="36.755271911621094" lon="-118.40412902832031">
<ele>2910</ele>
<time>2016-10-08T14:04:13Z</time>
</trkpt>
<trkpt lat="36.75523376464844" lon="-118.40408325195313">
<ele>2911</ele>
<time>2016-10-08T14:04:20Z</time>
</trkpt>
<trkpt lat="36.75515365600586" lon="-118.40399169921875">
<ele>2913</ele>
<time>2016-10-08T14:04:30Z</time>
</trkpt>
<trkpt lat="36.75511169433594" lon="-118.40400695800781">
<ele>2912</ele>
<time>2016-10-08T14:04:39Z</time>
</trkpt>
<trkpt lat="36.75506591796875" lon="-118.40399932861328">
<ele>2914</ele>
<time>2016-10-08T14:04:46Z</time>
</trkpt>
<trkpt lat="36.754974365234375" lon="-118.40399169921875">
<ele>2916</ele>
<time>2016-10-08T14:04:56Z</time>
</trkpt>
<trkpt lat="36.754905700683594" lon="-118.40396881103516">
<ele>2921</ele>
<time>2016-10-08T14:05:12Z</time>
</trkpt>
<trkpt lat="36.754859924316406" lon="-118.40394592285156">
<ele>2918</ele>
<time>2016-10-08T14:05:23Z</time>
</trkpt>
<trkpt lat="36.75493240356445" lon="-118.404052734375">
<ele>2921</ele>
<time>2016-10-08T14:05:31Z</time>
</trkpt>
<trkpt lat="36.754886627197266" lon="-118.40404510498047">
<ele>2924</ele>
<time>2016-10-08T14:05:59Z</time>
</trkpt>
<trkpt lat="36.754817962646484" lon="-118.40410614013672">
<ele>2932</ele>
<time>2016-10-08T14:06:15Z</time>
</trkpt>
<trkpt lat="36.754783630371094" lon="-118.40406799316406">
<ele>2944</ele>
<time>2016-10-08T14:06:34Z</time>
</trkpt>
<trkpt lat="36.754756927490234" lon="-118.40412139892578">
<ele>2930</ele>
<time>2016-10-08T14:06:51Z</time>
</trkpt>
<trkpt lat="36.75471496582031" lon="-118.40421295166016">
<ele>2935</ele>
<time>2016-10-08T14:07:05Z</time>
</trkpt>
<trkpt lat="36.75470733642578" lon="-118.40426635742188">
<ele>2931</ele>
<time>2016-10-08T14:07:13Z</time>
</trkpt>
<trkpt lat="36.754695892333984" lon="-118.40432739257813">
<ele>2931</ele>
<time>2016-10-08T14:07:19Z</time>
</trkpt>
<trkpt lat="36.75469207763672" lon="-118.40438842773438">
<ele>2928</ele>
<time>2016-10-08T14:07:28Z</time>
</trkpt>
<trkpt lat="36.75467300415039" lon="-118.4044418334961">
<ele>2930</ele>
<time>2016-10-08T14:07:34Z</time>
</trkpt>
<trkpt lat="36.75464630126953" lon="-118.40448760986328">
<ele>2930</ele>
<time>2016-10-08T14:07:40Z</time>
</trkpt>
<trkpt lat="36.754608154296875" lon="-118.40452575683594">
<ele>2930</ele>
<time>2016-10-08T14:07:49Z</time>
</trkpt>
<trkpt lat="36.75457000732422" lon="-118.40455627441406">
<ele>2932</ele>
<time>2016-10-08T14:07:56Z</time>
</trkpt>
<trkpt lat="36.7545280456543" lon="-118.40458679199219">
<ele>2937</ele>
<time>2016-10-08T14:08:02Z</time>
</trkpt>
<trkpt lat="36.75447082519531" lon="-118.40458679199219">
<ele>2939</ele>
<time>2016-10-08T14:08:15Z</time>
</trkpt>
<trkpt lat="36.754425048828125" lon="-118.40459442138672">
<ele>2938</ele>
<time>2016-10-08T14:08:26Z</time>
</trkpt>
<trkpt lat="36.75438690185547" lon="-118.40464782714844">
<ele>2938</ele>
<time>2016-10-08T14:08:39Z</time>
</trkpt>
<trkpt lat="36.75434112548828" lon="-118.4046859741211">
<ele>2936</ele>
<time>2016-10-08T14:08:51Z</time>
</trkpt>
<trkpt lat="36.754276275634766" lon="-118.40477752685547">
<ele>2945</ele>
<time>2016-10-08T14:09:01Z</time>
</trkpt>
<trkpt lat="36.75421142578125" lon="-118.40483856201172">
<ele>2945</ele>
<time>2016-10-08T14:09:09Z</time>
</trkpt>
<trkpt lat="36.75411605834961" lon="-118.40482330322266">
<ele>2946</ele>
<time>2016-10-08T14:09:18Z</time>
</trkpt>
<trkpt lat="36.75402069091797" lon="-118.40482330322266">
<ele>2945</ele>
<time>2016-10-08T14:09:28Z</time>
</trkpt>
<trkpt lat="36.75397491455078" lon="-118.40485382080078">
<ele>2948</ele>
<time>2016-10-08T14:09:37Z</time>
</trkpt>
<trkpt lat="36.753868103027344" lon="-118.40481567382813">
<ele>2955</ele>
<time>2016-10-08T14:09:48Z</time>
</trkpt>
<trkpt lat="36.75376892089844" lon="-118.40482330322266">
<ele>2953</ele>
<time>2016-10-08T14:09:55Z</time>
</trkpt>
<trkpt lat="36.75371551513672" lon="-118.40482330322266">
<ele>2955</ele>
<time>2016-10-08T14:10:03Z</time>
</trkpt>
<trkpt lat="36.75364685058594" lon="-118.40480041503906">
<ele>2952</ele>
<time>2016-10-08T14:10:12Z</time>
</trkpt>
<trkpt lat="36.753604888916016" lon="-118.40482330322266">
<ele>2953</ele>
<time>2016-10-08T14:10:18Z</time>
</trkpt>
<trkpt lat="36.753562927246094" lon="-118.40479278564453">
<ele>2948</ele>
<time>2016-10-08T14:10:26Z</time>
</trkpt>
<trkpt lat="36.75347137451172" lon="-118.40473937988281">
<ele>2951</ele>
<time>2016-10-08T14:10:35Z</time>
</trkpt>
<trkpt lat="36.75339126586914" lon="-118.4046859741211">
<ele>2946</ele>
<time>2016-10-08T14:10:48Z</time>
</trkpt>
<trkpt lat="36.75334167480469" lon="-118.4046630859375">
<ele>2948</ele>
<time>2016-10-08T14:10:56Z</time>
</trkpt>
<trkpt lat="36.75326919555664" lon="-118.40462493896484">
<ele>2941</ele>
<time>2016-10-08T14:11:13Z</time>
</trkpt>
<trkpt lat="36.75322723388672" lon="-118.40462493896484">
<ele>2939</ele>
<time>2016-10-08T14:11:25Z</time>
</trkpt>
<trkpt lat="36.753135681152344" lon="-118.40463256835938">
<ele>2941</ele>
<time>2016-10-08T14:11:36Z</time>
</trkpt>
<trkpt lat="36.753089904785156" lon="-118.40462493896484">
<ele>2936</ele>
<time>2016-10-08T14:11:42Z</time>
</trkpt>
<trkpt lat="36.753055572509766" lon="-118.40458679199219">
<ele>2939</ele>
<time>2016-10-08T14:11:49Z</time>
</trkpt>
<trkpt lat="36.75295639038086" lon="-118.4045639038086">
<ele>2951</ele>
<time>2016-10-08T14:12:00Z</time>
</trkpt>
<trkpt lat="36.752891540527344" lon="-118.40454864501953">
<ele>2957</ele>
<time>2016-10-08T14:12:13Z</time>
</trkpt>
<trkpt lat="36.75284194946289" lon="-118.40455627441406">
<ele>2956</ele>
<time>2016-10-08T14:12:19Z</time>
</trkpt>
<trkpt lat="36.75278854370117" lon="-118.40457153320313">
<ele>2958</ele>
<time>2016-10-08T14:12:28Z</time>
</trkpt>
<trkpt lat="36.75274658203125" lon="-118.40458679199219">
<ele>2958</ele>
<time>2016-10-08T14:12:35Z</time>
</trkpt>
<trkpt lat="36.75270080566406" lon="-118.4045639038086">
<ele>2960</ele>
<time>2016-10-08T14:12:41Z</time>
</trkpt>
<trkpt lat="36.75265884399414" lon="-118.404541015625">
<ele>2959</ele>
<time>2016-10-08T14:12:48Z</time>
</trkpt>
<trkpt lat="36.75260925292969" lon="-118.404541015625">
<ele>2964</ele>
<time>2016-10-08T14:13:03Z</time>
</trkpt>
<trkpt lat="36.75257873535156" lon="-118.40459442138672">
<ele>2960</ele>
<time>2016-10-08T14:13:13Z</time>
</trkpt>
<trkpt lat="36.752540588378906" lon="-118.40463256835938">
<ele>2962</ele>
<time>2016-10-08T14:13:23Z</time>
</trkpt>
<trkpt lat="36.75249481201172" lon="-118.4046401977539">
<ele>2962</ele>
<time>2016-10-08T14:13:30Z</time>
</trkpt>
<trkpt lat="36.75249099731445" lon="-118.40470123291016">
<ele>2962</ele>
<time>2016-10-08T14:13:45Z</time>
</trkpt>
<trkpt lat="36.75249099731445" lon="-118.4047622680664">
<ele>2967</ele>
<time>2016-10-08T14:13:57Z</time>
</trkpt>
<trkpt lat="36.75248336791992" lon="-118.40481567382813">
<ele>2966</ele>
<time>2016-10-08T14:14:05Z</time>
</trkpt>
<trkpt lat="36.75245666503906" lon="-118.40486907958984">
<ele>2971</ele>
<time>2016-10-08T14:14:14Z</time>
</trkpt>
<trkpt lat="36.75245666503906" lon="-118.40493774414063">
<ele>2969</ele>
<time>2016-10-08T14:14:26Z</time>
</trkpt>
<trkpt lat="36.75242614746094" lon="-118.40497589111328">
<ele>2977</ele>
<time>2016-10-08T14:14:47Z</time>
</trkpt>
<trkpt lat="36.752403259277344" lon="-118.40504455566406">
<ele>2975</ele>
<time>2016-10-08T14:14:55Z</time>
</trkpt>
<trkpt lat="36.75239181518555" lon="-118.40510559082031">
<ele>2976</ele>
<time>2016-10-08T14:15:01Z</time>
</trkpt>
<trkpt lat="36.75236511230469" lon="-118.40518188476563">
<ele>2970</ele>
<time>2016-10-08T14:15:24Z</time>
</trkpt>
<trkpt lat="36.75233459472656" lon="-118.40523529052734">
<ele>2969</ele>
<time>2016-10-08T14:15:30Z</time>
</trkpt>
<trkpt lat="36.752296447753906" lon="-118.4052734375">
<ele>2976</ele>
<time>2016-10-08T14:15:40Z</time>
</trkpt>
</trkseg>
</trk>
<trk>
<name><![CDATA[10080746]]></name>
<number>17</number>
<extensions><topografix:color>ff000066</topografix:color></extensions>
<trkseg>
<trkpt lat="36.74521255493164" lon="-118.41035461425781">
<ele>3162</ele>
<time>2016-10-08T14:46:48Z</time>
</trkpt>
<trkpt lat="36.74519348144531" lon="-118.41029357910156">
<ele>3148</ele>
<time>2016-10-08T14:47:30Z</time>
</trkpt>
<trkpt lat="36.745182037353516" lon="-118.41024017333984">
<ele>3144</ele>
<time>2016-10-08T14:47:42Z</time>
</trkpt>
<trkpt lat="36.74519729614258" lon="-118.41029357910156">
<ele>3146</ele>
<time>2016-10-08T14:48:08Z</time>
</trkpt>
<trkpt lat="36.7451286315918" lon="-118.41038513183594">
<ele>3146</ele>
<time>2016-10-08T14:48:18Z</time>
</trkpt>
<trkpt lat="36.74506759643555" lon="-118.41047668457031">
<ele>3152</ele>
<time>2016-10-08T14:48:34Z</time>
</trkpt>
<trkpt lat="36.74503707885742" lon="-118.41053009033203">
<ele>3147</ele>
<time>2016-10-08T14:48:40Z</time>
</trkpt>
<trkpt lat="36.74502944946289" lon="-118.41059112548828">
<ele>3151</ele>
<time>2016-10-08T14:48:47Z</time>
</trkpt>
<trkpt lat="36.745018005371094" lon="-118.41065216064453">
<ele>3151</ele>
<time>2016-10-08T14:48:53Z</time>
</trkpt>
<trkpt lat="36.7450065612793" lon="-118.41071319580078">
<ele>3153</ele>
<time>2016-10-08T14:48:59Z</time>
</trkpt>
<trkpt lat="36.74494171142578" lon="-118.41081237792969">
<ele>3153</ele>
<time>2016-10-08T14:49:13Z</time>
</trkpt>
<trkpt lat="36.74489212036133" lon="-118.41082763671875">
<ele>3148</ele>
<time>2016-10-08T14:49:19Z</time>
</trkpt>
<trkpt lat="36.744842529296875" lon="-118.41082763671875">
<ele>3146</ele>
<time>2016-10-08T14:49:29Z</time>
</trkpt>
<trkpt lat="36.74474334716797" lon="-118.41085815429688">
<ele>3141</ele>
<time>2016-10-08T14:49:37Z</time>
</trkpt>
<trkpt lat="36.74470901489258" lon="-118.41090393066406">
<ele>3147</ele>
<time>2016-10-08T14:49:43Z</time>
</trkpt>
<trkpt lat="36.74466323852539" lon="-118.41088104248047">
<ele>3148</ele>
<time>2016-10-08T14:49:50Z</time>
</trkpt>
<trkpt lat="36.74461364746094" lon="-118.41087341308594">
<ele>3148</ele>
<time>2016-10-08T14:49:58Z</time>
</trkpt>
<trkpt lat="36.74457931518555" lon="-118.41092681884766">
<ele>3147</ele>
<time>2016-10-08T14:50:16Z</time>
</trkpt>
<trkpt lat="36.74452209472656" lon="-118.41094207763672">
<ele>3149</ele>
<time>2016-10-08T14:50:23Z</time>
</trkpt>
<trkpt lat="36.744468688964844" lon="-118.41094207763672">
<ele>3152</ele>
<time>2016-10-08T14:50:31Z</time>
</trkpt>
<trkpt lat="36.744422912597656" lon="-118.41094207763672">
<ele>3155</ele>
<time>2016-10-08T14:50:38Z</time>
</trkpt>
<trkpt lat="36.74437713623047" lon="-118.41094207763672">
<ele>3157</ele>
<time>2016-10-08T14:50:44Z</time>
</trkpt>
<trkpt lat="36.744327545166016" lon="-118.41094207763672">
<ele>3158</ele>
<time>2016-10-08T14:50:52Z</time>
</trkpt>
<trkpt lat="36.74428176879883" lon="-118.41095733642578">
<ele>3160</ele>
<time>2016-10-08T14:50:59Z</time>
</trkpt>
<trkpt lat="36.744239807128906" lon="-118.41095733642578">
<ele>3163</ele>
<time>2016-10-08T14:51:07Z</time>
</trkpt>
<trkpt lat="36.74419021606445" lon="-118.41095733642578">
<ele>3166</ele>
<time>2016-10-08T14:51:21Z</time>
</trkpt>
<trkpt lat="36.74409484863281" lon="-118.41099548339844">
<ele>3160</ele>
<time>2016-10-08T14:51:30Z</time>
</trkpt>
<trkpt lat="36.7440071105957" lon="-118.41105651855469">
<ele>3161</ele>
<time>2016-10-08T14:51:41Z</time>
</trkpt>
<trkpt lat="36.743919372558594" lon="-118.4110336303711">
<ele>3163</ele>
<time>2016-10-08T14:51:55Z</time>
</trkpt>
<trkpt lat="36.743858337402344" lon="-118.41094207763672">
<ele>3161</ele>
<time>2016-10-08T14:52:07Z</time>
</trkpt>
<trkpt lat="36.74381637573242" lon="-118.41090393066406">
<ele>3164</ele>
<time>2016-10-08T14:52:14Z</time>
</trkpt>
<trkpt lat="36.7437629699707" lon="-118.410888671875">
<ele>3168</ele>
<time>2016-10-08T14:52:20Z</time>
</trkpt>
<trkpt lat="36.7436637878418" lon="-118.41088104248047">
<ele>3177</ele>
<time>2016-10-08T14:52:33Z</time>
</trkpt>
<trkpt lat="36.74357986450195" lon="-118.41083526611328">
<ele>3175</ele>
<time>2016-10-08T14:52:40Z</time>
</trkpt>
<trkpt lat="36.74345779418945" lon="-118.41085052490234">
<ele>3176</ele>
<time>2016-10-08T14:52:48Z</time>
</trkpt>
<trkpt lat="36.743350982666016" lon="-118.4108657836914">
<ele>3174</ele>
<time>2016-10-08T14:52:57Z</time>
</trkpt>
<trkpt lat="36.743255615234375" lon="-118.4109115600586">
<ele>3172</ele>
<time>2016-10-08T14:53:12Z</time>
</trkpt>
<trkpt lat="36.74320602416992" lon="-118.410888671875">
<ele>3173</ele>
<time>2016-10-08T14:53:18Z</time>
</trkpt>
<trkpt lat="36.7431640625" lon="-118.4108657836914">
<ele>3172</ele>
<time>2016-10-08T14:53:43Z</time>
</trkpt>
<trkpt lat="36.74312210083008" lon="-118.41092681884766">
<ele>3175</ele>
<time>2016-10-08T14:53:54Z</time>
</trkpt>
<trkpt lat="36.743072509765625" lon="-118.41094970703125">
<ele>3175</ele>
<time>2016-10-08T14:54:02Z</time>
</trkpt>
<trkpt lat="36.74302291870117" lon="-118.41094970703125">
<ele>3175</ele>
<time>2016-10-08T14:54:08Z</time>
</trkpt>
<trkpt lat="36.74293899536133" lon="-118.41093444824219">
<ele>3177</ele>
<time>2016-10-08T14:54:28Z</time>
</trkpt>
<trkpt lat="36.742835998535156" lon="-118.41095733642578">
<ele>3173</ele>
<time>2016-10-08T14:54:36Z</time>
</trkpt>
<trkpt lat="36.74274444580078" lon="-118.41095733642578">
<ele>3174</ele>
<time>2016-10-08T14:54:47Z</time>
</trkpt>
<trkpt lat="36.74269104003906" lon="-118.41096496582031">
<ele>3174</ele>
<time>2016-10-08T14:54:59Z</time>
</trkpt>
<trkpt lat="36.742591857910156" lon="-118.41094207763672">
<ele>3167</ele>
<time>2016-10-08T14:55:13Z</time>
</trkpt>
<trkpt lat="36.7425422668457" lon="-118.41095733642578">
<ele>3168</ele>
<time>2016-10-08T14:55:19Z</time>
</trkpt>
<trkpt lat="36.74251174926758" lon="-118.4109115600586">
<ele>3176</ele>
<time>2016-10-08T14:55:27Z</time>
</trkpt>
<trkpt lat="36.742427825927734" lon="-118.41085815429688">
<ele>3174</ele>
<time>2016-10-08T14:55:36Z</time>
</trkpt>
<trkpt lat="36.74243927001953" lon="-118.41094970703125">
<ele>3178</ele>
<time>2016-10-08T14:57:30Z</time>
</trkpt>
<trkpt lat="36.74245834350586" lon="-118.41100311279297">
<ele>3177</ele>
<time>2016-10-08T14:57:37Z</time>
</trkpt>
<trkpt lat="36.7424201965332" lon="-118.41106414794922">
<ele>3175</ele>
<time>2016-10-08T14:57:48Z</time>
</trkpt>
<trkpt lat="36.74237060546875" lon="-118.41106414794922">
<ele>3177</ele>
<time>2016-10-08T14:57:58Z</time>
</trkpt>
<trkpt lat="36.742332458496094" lon="-118.41109466552734">
<ele>3177</ele>
<time>2016-10-08T14:58:04Z</time>
</trkpt>
<trkpt lat="36.74223327636719" lon="-118.41110229492188">
<ele>3175</ele>
<time>2016-10-08T14:58:13Z</time>
</trkpt>
<trkpt lat="36.742183685302734" lon="-118.41107940673828">
<ele>3179</ele>
<time>2016-10-08T14:58:19Z</time>
</trkpt>
<trkpt lat="36.742130279541016" lon="-118.41109466552734">
<ele>3177</ele>
<time>2016-10-08T14:58:26Z</time>
</trkpt>
<trkpt lat="36.742122650146484" lon="-118.41116333007813">
<ele>3181</ele>
<time>2016-10-08T14:59:00Z</time>
</trkpt>
<trkpt lat="36.74213409423828" lon="-118.41122436523438">
<ele>3181</ele>
<time>2016-10-08T14:59:18Z</time>
</trkpt>
<trkpt lat="36.74205780029297" lon="-118.41130828857422">
<ele>3185</ele>
<time>2016-10-08T14:59:34Z</time>
</trkpt>
<trkpt lat="36.741966247558594" lon="-118.4113540649414">
<ele>3187</ele>
<time>2016-10-08T14:59:40Z</time>
</trkpt>
<trkpt lat="36.74190902709961" lon="-118.41142272949219">
<ele>3187</ele>
<time>2016-10-08T14:59:48Z</time>
</trkpt>
<trkpt lat="36.741844177246094" lon="-118.4115219116211">
<ele>3181</ele>
<time>2016-10-08T14:59:59Z</time>
</trkpt>
<trkpt lat="36.74180603027344" lon="-118.41156005859375">
<ele>3185</ele>
<time>2016-10-08T15:00:05Z</time>
</trkpt>
<trkpt lat="36.74175262451172" lon="-118.41157531738281">
<ele>3184</ele>
<time>2016-10-08T15:00:12Z</time>
</trkpt>
<trkpt lat="36.7417106628418" lon="-118.4115982055664">
<ele>3186</ele>
<time>2016-10-08T15:00:18Z</time>
</trkpt>
<trkpt lat="36.74160385131836" lon="-118.41162109375">
<ele>3185</ele>
<time>2016-10-08T15:00:27Z</time>
</trkpt>
<trkpt lat="36.74150085449219" lon="-118.41165161132813">
<ele>3180</ele>
<time>2016-10-08T15:00:38Z</time>
</trkpt>
<trkpt lat="36.741424560546875" lon="-118.41165161132813">
<ele>3181</ele>
<time>2016-10-08T15:00:48Z</time>
</trkpt>
<trkpt lat="36.74138641357422" lon="-118.41169738769531">
<ele>3182</ele>
<time>2016-10-08T15:00:55Z</time>
</trkpt>
<trkpt lat="36.741294860839844" lon="-118.41169738769531">
<ele>3183</ele>
<time>2016-10-08T15:01:20Z</time>
</trkpt>
<trkpt lat="36.741241455078125" lon="-118.41170501708984">
<ele>3185</ele>
<time>2016-10-08T15:01:27Z</time>
</trkpt>
<trkpt lat="36.74119186401367" lon="-118.41170501708984">
<ele>3185</ele>
<time>2016-10-08T15:01:33Z</time>
</trkpt>
<trkpt lat="36.74114227294922" lon="-118.41169738769531">
<ele>3183</ele>
<time>2016-10-08T15:01:41Z</time>
</trkpt>
<trkpt lat="36.741092681884766" lon="-118.41169738769531">
<ele>3183</ele>
<time>2016-10-08T15:01:47Z</time>
</trkpt>
<trkpt lat="36.74098205566406" lon="-118.41170501708984">
<ele>3182</ele>
<time>2016-10-08T15:01:59Z</time>
</trkpt>
<trkpt lat="36.740882873535156" lon="-118.41171264648438">
<ele>3184</ele>
<time>2016-10-08T15:02:07Z</time>
</trkpt>
<trkpt lat="36.74080276489258" lon="-118.41168975830078">
<ele>3192</ele>
<time>2016-10-08T15:02:19Z</time>
</trkpt>
<trkpt lat="36.74071502685547" lon="-118.41170501708984">
<ele>3190</ele>
<time>2016-10-08T15:02:30Z</time>
</trkpt>
<trkpt lat="36.74066925048828" lon="-118.41168975830078">
<ele>3189</ele>
<time>2016-10-08T15:02:40Z</time>
</trkpt>
<trkpt lat="36.740623474121094" lon="-118.41169738769531">
<ele>3189</ele>
<time>2016-10-08T15:02:46Z</time>
</trkpt>
<trkpt lat="36.740543365478516" lon="-118.41167449951172">
<ele>3188</ele>
<time>2016-10-08T15:02:53Z</time>
</trkpt>
<trkpt lat="36.74044418334961" lon="-118.41165161132813">
<ele>3182</ele>
<time>2016-10-08T15:03:05Z</time>
</trkpt>
<trkpt lat="36.74039077758789" lon="-118.41163635253906">
<ele>3181</ele>
<time>2016-10-08T15:03:17Z</time>
</trkpt>
<trkpt lat="36.740352630615234" lon="-118.41167449951172">
<ele>3181</ele>
<time>2016-10-08T15:03:25Z</time>
</trkpt>
<trkpt lat="36.74030685424805" lon="-118.41167449951172">
<ele>3184</ele>
<time>2016-10-08T15:03:45Z</time>
</trkpt>
<trkpt lat="36.740234375" lon="-118.41168975830078">
<ele>3182</ele>
<time>2016-10-08T15:03:52Z</time>
</trkpt>
<trkpt lat="36.74013900756836" lon="-118.41173553466797">
<ele>3176</ele>
<time>2016-10-08T15:04:02Z</time>
</trkpt>
<trkpt lat="36.74004364013672" lon="-118.41175842285156">
<ele>3171</ele>
<time>2016-10-08T15:04:13Z</time>
</trkpt>
<trkpt lat="36.73994827270508" lon="-118.41173553466797">
<ele>3171</ele>
<time>2016-10-08T15:04:30Z</time>
</trkpt>
<trkpt lat="36.7398567199707" lon="-118.41175079345703">
<ele>3169</ele>
<time>2016-10-08T15:04:42Z</time>
</trkpt>
<trkpt lat="36.73980712890625" lon="-118.41175079345703">
<ele>3168</ele>
<time>2016-10-08T15:04:48Z</time>
</trkpt>
<trkpt lat="36.7397575378418" lon="-118.41175842285156">
<ele>3167</ele>
<time>2016-10-08T15:04:54Z</time>
</trkpt>
<trkpt lat="36.73966598510742" lon="-118.41173553466797">
<ele>3169</ele>
<time>2016-10-08T15:05:06Z</time>
</trkpt>
<trkpt lat="36.7396240234375" lon="-118.41175842285156">
<ele>3170</ele>
<time>2016-10-08T15:05:21Z</time>
</trkpt>
<trkpt lat="36.739585876464844" lon="-118.41180419921875">
<ele>3169</ele>
<time>2016-10-08T15:05:27Z</time>
</trkpt>
<trkpt lat="36.73953628540039" lon="-118.41180419921875">
<ele>3169</ele>
<time>2016-10-08T15:05:33Z</time>
</trkpt>
<trkpt lat="36.73944091796875" lon="-118.41181182861328">
<ele>3169</ele>
<time>2016-10-08T15:05:44Z</time>
</trkpt>
<trkpt lat="36.739444732666016" lon="-118.41189575195313">
<ele>3170</ele>
<time>2016-10-08T15:05:56Z</time>
</trkpt>
<trkpt lat="36.739410400390625" lon="-118.41193389892578">
<ele>3173</ele>
<time>2016-10-08T15:06:05Z</time>
</trkpt>
<trkpt lat="36.739356994628906" lon="-118.41193389892578">
<ele>3177</ele>
<time>2016-10-08T15:06:14Z</time>
</trkpt>
<trkpt lat="36.73931121826172" lon="-118.4119644165039">
<ele>3179</ele>
<time>2016-10-08T15:06:26Z</time>
</trkpt>
<trkpt lat="36.73927688598633" lon="-118.4120101928711">
<ele>3181</ele>
<time>2016-10-08T15:06:33Z</time>
</trkpt>
<trkpt lat="36.73918151855469" lon="-118.41201782226563">
<ele>3183</ele>
<time>2016-10-08T15:06:55Z</time>
</trkpt>
<trkpt lat="36.7391357421875" lon="-118.41202545166016">
<ele>3182</ele>
<time>2016-10-08T15:07:01Z</time>
</trkpt>
<trkpt lat="36.73908996582031" lon="-118.41204833984375">
<ele>3182</ele>
<time>2016-10-08T15:07:07Z</time>
</trkpt>
<trkpt lat="36.73904037475586" lon="-118.41204071044922">
<ele>3184</ele>
<time>2016-10-08T15:07:13Z</time>
</trkpt>
<trkpt lat="36.73899459838867" lon="-118.41201782226563">
<ele>3183</ele>
<time>2016-10-08T15:07:19Z</time>
</trkpt>
<trkpt lat="36.73890686035156" lon="-118.4120864868164">
<ele>3183</ele>
<time>2016-10-08T15:07:48Z</time>
</trkpt>
<trkpt lat="36.73881149291992" lon="-118.41209411621094">
<ele>3184</ele>
<time>2016-10-08T15:07:55Z</time>
</trkpt>
<trkpt lat="36.73871994018555" lon="-118.4120864868164">
<ele>3184</ele>
<time>2016-10-08T15:08:16Z</time>
</trkpt>
<trkpt lat="36.738739013671875" lon="-118.41202545166016">
<ele>3184</ele>
<time>2016-10-08T15:08:33Z</time>
</trkpt>
<trkpt lat="36.73869705200195" lon="-118.41197204589844">
<ele>3187</ele>
<time>2016-10-08T15:08:48Z</time>
</trkpt>
<trkpt lat="36.73867416381836" lon="-118.41191864013672">
<ele>3194</ele>
<time>2016-10-08T15:09:03Z</time>
</trkpt>
<trkpt lat="36.738651275634766" lon="-118.411865234375">
<ele>3195</ele>
<time>2016-10-08T15:09:09Z</time>
</trkpt>
<trkpt lat="36.738616943359375" lon="-118.41181945800781">
<ele>3196</ele>
<time>2016-10-08T15:09:15Z</time>
</trkpt>
<trkpt lat="36.7385368347168" lon="-118.41181182861328">
<ele>3198</ele>
<time>2016-10-08T15:09:24Z</time>
</trkpt>
<trkpt lat="36.738521575927734" lon="-118.41187286376953">
<ele>3197</ele>
<time>2016-10-08T15:09:31Z</time>
</trkpt>
<trkpt lat="36.738487243652344" lon="-118.41191101074219">
<ele>3196</ele>
<time>2016-10-08T15:09:40Z</time>
</trkpt>
<trkpt lat="36.73843765258789" lon="-118.41191101074219">
<ele>3198</ele>
<time>2016-10-08T15:09:47Z</time>
</trkpt>
<trkpt lat="36.7383918762207" lon="-118.41195678710938">
<ele>3203</ele>
<time>2016-10-08T15:10:09Z</time>
</trkpt>
<trkpt lat="36.738346099853516" lon="-118.41197204589844">
<ele>3202</ele>
<time>2016-10-08T15:10:23Z</time>
</trkpt>
<trkpt lat="36.738304138183594" lon="-118.4119873046875">
<ele>3204</ele>
<time>2016-10-08T15:10:31Z</time>
</trkpt>
<trkpt lat="36.7382698059082" lon="-118.41202545166016">
<ele>3206</ele>
<time>2016-10-08T15:10:41Z</time>
</trkpt>
<trkpt lat="36.73820495605469" lon="-118.41205596923828">
<ele>3213</ele>
<time>2016-10-08T15:11:10Z</time>
</trkpt>
<trkpt lat="36.738155364990234" lon="-118.41207122802734">
<ele>3214</ele>
<time>2016-10-08T15:11:16Z</time>
</trkpt>
<trkpt lat="36.73811721801758" lon="-118.41210174560547">
<ele>3215</ele>
<time>2016-10-08T15:11:24Z</time>
</trkpt>
<trkpt lat="36.73808288574219" lon="-118.41213989257813">
<ele>3213</ele>
<time>2016-10-08T15:11:31Z</time>
</trkpt>
<trkpt lat="36.738075256347656" lon="-118.41223907470703">
<ele>3208</ele>
<time>2016-10-08T15:11:57Z</time>
</trkpt>
<trkpt lat="36.73802947998047" lon="-118.41226959228516">
<ele>3214</ele>
<time>2016-10-08T15:12:09Z</time>
</trkpt>
<trkpt lat="36.737979888916016" lon="-118.41226196289063">
<ele>3223</ele>
<time>2016-10-08T15:13:09Z</time>
</trkpt>
<trkpt lat="36.73793411254883" lon="-118.41226959228516">
<ele>3225</ele>
<time>2016-10-08T15:13:16Z</time>
</trkpt>
<trkpt lat="36.73788833618164" lon="-118.41230773925781">
<ele>3229</ele>
<time>2016-10-08T15:13:24Z</time>
</trkpt>
<trkpt lat="36.737850189208984" lon="-118.41233825683594">
<ele>3229</ele>
<time>2016-10-08T15:13:34Z</time>
</trkpt>
<trkpt lat="36.73783493041992" lon="-118.41242980957031">
<ele>3230</ele>
<time>2016-10-08T15:14:07Z</time>
</trkpt>
<trkpt lat="36.73778533935547" lon="-118.41243743896484">
<ele>3234</ele>
<time>2016-10-08T15:14:21Z</time>
</trkpt>
<trkpt lat="36.73773956298828" lon="-118.41242218017578">
<ele>3238</ele>
<time>2016-10-08T15:14:29Z</time>
</trkpt>
<trkpt lat="36.73768997192383" lon="-118.41242218017578">
<ele>3250</ele>
<time>2016-10-08T15:15:07Z</time>
</trkpt>
<trkpt lat="36.737640380859375" lon="-118.41243743896484">
<ele>3249</ele>
<time>2016-10-08T15:15:16Z</time>
</trkpt>
<trkpt lat="36.73760223388672" lon="-118.41240692138672">
<ele>3253</ele>
<time>2016-10-08T15:15:44Z</time>
</trkpt>
<trkpt lat="36.737545013427734" lon="-118.412353515625">
<ele>3253</ele>
<time>2016-10-08T15:15:57Z</time>
</trkpt>
<trkpt lat="36.73753356933594" lon="-118.41230010986328">
<ele>3254</ele>
<time>2016-10-08T15:16:04Z</time>
</trkpt>
<trkpt lat="36.73750686645508" lon="-118.4122543334961">
<ele>3256</ele>
<time>2016-10-08T15:16:16Z</time>
</trkpt>
<trkpt lat="36.73747634887695" lon="-118.4122085571289">
<ele>3260</ele>
<time>2016-10-08T15:16:31Z</time>
</trkpt>
<trkpt lat="36.7374267578125" lon="-118.41220092773438">
<ele>3259</ele>
<time>2016-10-08T15:16:40Z</time>
</trkpt>
<trkpt lat="36.737369537353516" lon="-118.41215515136719">
<ele>3257</ele>
<time>2016-10-08T15:17:28Z</time>
</trkpt>
<trkpt lat="36.73737716674805" lon="-118.41210174560547">
<ele>3262</ele>
<time>2016-10-08T15:17:41Z</time>
</trkpt>
<trkpt lat="36.737335205078125" lon="-118.41206359863281">
<ele>3260</ele>
<time>2016-10-08T15:17:54Z</time>
</trkpt>
<trkpt lat="36.73729705810547" lon="-118.41203308105469">
<ele>3259</ele>
<time>2016-10-08T15:18:04Z</time>
</trkpt>
<trkpt lat="36.737247467041016" lon="-118.41201782226563">
<ele>3258</ele>
<time>2016-10-08T15:18:12Z</time>
</trkpt>
<trkpt lat="36.737144470214844" lon="-118.41202545166016">
<ele>3255</ele>
<time>2016-10-08T15:18:22Z</time>
</trkpt>
<trkpt lat="36.737056732177734" lon="-118.41197967529297">
<ele>3260</ele>
<time>2016-10-08T15:18:36Z</time>
</trkpt>
<trkpt lat="36.73701095581055" lon="-118.41200256347656">
<ele>3264</ele>
<time>2016-10-08T15:18:48Z</time>
</trkpt>
<trkpt lat="36.7369270324707" lon="-118.41204071044922">
<ele>3263</ele>
<time>2016-10-08T15:18:57Z</time>
</trkpt>
<trkpt lat="36.73684310913086" lon="-118.4120864868164">
<ele>3262</ele>
<time>2016-10-08T15:19:07Z</time>
</trkpt>
<trkpt lat="36.736793518066406" lon="-118.41209411621094">
<ele>3260</ele>
<time>2016-10-08T15:19:13Z</time>
</trkpt>
<trkpt lat="36.73674392700195" lon="-118.412109375">
<ele>3254</ele>
<time>2016-10-08T15:19:19Z</time>
</trkpt>
<trkpt lat="36.73666000366211" lon="-118.41216278076172">
<ele>3259</ele>
<time>2016-10-08T15:19:30Z</time>
</trkpt>
<trkpt lat="36.73656463623047" lon="-118.41221618652344">
<ele>3260</ele>
<time>2016-10-08T15:19:40Z</time>
</trkpt>
<trkpt lat="36.736488342285156" lon="-118.41228485107422">
<ele>3260</ele>
<time>2016-10-08T15:19:48Z</time>
</trkpt>
<trkpt lat="36.7364387512207" lon="-118.41230773925781">
<ele>3260</ele>
<time>2016-10-08T15:19:54Z</time>
</trkpt>
<trkpt lat="36.73640823364258" lon="-118.412353515625">
<ele>3257</ele>
<time>2016-10-08T15:20:01Z</time>
</trkpt>
<trkpt lat="36.736328125" lon="-118.41239929199219">
<ele>3257</ele>
<time>2016-10-08T15:20:11Z</time>
</trkpt>
<trkpt lat="36.73628234863281" lon="-118.41238403320313">
<ele>3261</ele>
<time>2016-10-08T15:20:20Z</time>
</trkpt>
<trkpt lat="36.736236572265625" lon="-118.41239166259766">
<ele>3263</ele>
<time>2016-10-08T15:20:28Z</time>
</trkpt>
<trkpt lat="36.73618698120117" lon="-118.41239166259766">
<ele>3263</ele>
<time>2016-10-08T15:20:37Z</time>
</trkpt>
<trkpt lat="36.73615646362305" lon="-118.412353515625">
<ele>3265</ele>
<time>2016-10-08T15:20:48Z</time>
</trkpt>
<trkpt lat="36.73612976074219" lon="-118.41230773925781">
<ele>3265</ele>
<time>2016-10-08T15:20:54Z</time>
</trkpt>
<trkpt lat="36.736087799072266" lon="-118.41226959228516">
<ele>3265</ele>
<time>2016-10-08T15:21:04Z</time>
</trkpt>
<trkpt lat="36.73603820800781" lon="-118.41227722167969">
<ele>3265</ele>
<time>2016-10-08T15:21:24Z</time>
</trkpt>
<trkpt lat="36.735992431640625" lon="-118.41230010986328">
<ele>3267</ele>
<time>2016-10-08T15:21:30Z</time>
</trkpt>
<trkpt lat="36.7359504699707" lon="-118.41226959228516">
<ele>3269</ele>
<time>2016-10-08T15:21:38Z</time>
</trkpt>
<trkpt lat="36.73588562011719" lon="-118.41219329833984">
<ele>3266</ele>
<time>2016-10-08T15:21:55Z</time>
</trkpt>
<trkpt lat="36.73592758178711" lon="-118.41214752197266">
<ele>3267</ele>
<time>2016-10-08T15:22:03Z</time>
</trkpt>
<trkpt lat="36.735904693603516" lon="-118.41210174560547">
<ele>3271</ele>
<time>2016-10-08T15:22:12Z</time>
</trkpt>
<trkpt lat="36.735897064208984" lon="-118.41204071044922">
<ele>3272</ele>
<time>2016-10-08T15:22:18Z</time>
</trkpt>
<trkpt lat="36.735897064208984" lon="-118.4119873046875">
<ele>3272</ele>
<time>2016-10-08T15:22:24Z</time>
</trkpt>
<trkpt lat="36.73588180541992" lon="-118.41192626953125">
<ele>3268</ele>
<time>2016-10-08T15:22:40Z</time>
</trkpt>
<trkpt lat="36.735877990722656" lon="-118.41187286376953">
<ele>3269</ele>
<time>2016-10-08T15:22:48Z</time>
</trkpt>
<trkpt lat="36.73583984375" lon="-118.4118423461914">
<ele>3268</ele>
<time>2016-10-08T15:22:59Z</time>
</trkpt>
<trkpt lat="36.73578643798828" lon="-118.4118423461914">
<ele>3267</ele>
<time>2016-10-08T15:23:06Z</time>
</trkpt>
<trkpt lat="36.73569107055664" lon="-118.41185760498047">
<ele>3269</ele>
<time>2016-10-08T15:23:14Z</time>
</trkpt>
<trkpt lat="36.7356071472168" lon="-118.41191101074219">
<ele>3271</ele>
<time>2016-10-08T15:23:25Z</time>
</trkpt>
<trkpt lat="36.73552322387695" lon="-118.41194152832031">
<ele>3276</ele>
<time>2016-10-08T15:23:37Z</time>
</trkpt>
<trkpt lat="36.73546600341797" lon="-118.41197204589844">
<ele>3277</ele>
<time>2016-10-08T15:23:59Z</time>
</trkpt>
<trkpt lat="36.73541259765625" lon="-118.41194915771484">
<ele>3276</ele>
<time>2016-10-08T15:24:08Z</time>
</trkpt>
<trkpt lat="36.73532485961914" lon="-118.41191864013672">
<ele>3274</ele>
<time>2016-10-08T15:24:22Z</time>
</trkpt>
<trkpt lat="36.73527526855469" lon="-118.41191101074219">
<ele>3272</ele>
<time>2016-10-08T15:24:39Z</time>
</trkpt>
<trkpt lat="36.735225677490234" lon="-118.41194152832031">
<ele>3273</ele>
<time>2016-10-08T15:24:56Z</time>
</trkpt>
<trkpt lat="36.73518371582031" lon="-118.4119644165039">
<ele>3273</ele>
<time>2016-10-08T15:25:03Z</time>
</trkpt>
<trkpt lat="36.73513412475586" lon="-118.41197967529297">
<ele>3272</ele>
<time>2016-10-08T15:25:10Z</time>
</trkpt>
<trkpt lat="36.73505401611328" lon="-118.41205596923828">
<ele>3269</ele>
<time>2016-10-08T15:25:18Z</time>
</trkpt>
<trkpt lat="36.73495864868164" lon="-118.4120864868164">
<ele>3268</ele>
<time>2016-10-08T15:25:27Z</time>
</trkpt>
<trkpt lat="36.73487854003906" lon="-118.41213989257813">
<ele>3270</ele>
<time>2016-10-08T15:25:40Z</time>
</trkpt>
<trkpt lat="36.73480224609375" lon="-118.41214752197266">
<ele>3266</ele>
<time>2016-10-08T15:25:57Z</time>
</trkpt>
<trkpt lat="36.73470687866211" lon="-118.41214752197266">
<ele>3267</ele>
<time>2016-10-08T15:26:06Z</time>
</trkpt>
<trkpt lat="36.73466491699219" lon="-118.41217041015625">
<ele>3264</ele>
<time>2016-10-08T15:26:14Z</time>
</trkpt>
<trkpt lat="36.73455810546875" lon="-118.41215515136719">
<ele>3265</ele>
<time>2016-10-08T15:26:26Z</time>
</trkpt>
<trkpt lat="36.73447036743164" lon="-118.41210174560547">
<ele>3267</ele>
<time>2016-10-08T15:26:35Z</time>
</trkpt>
<trkpt lat="36.73442840576172" lon="-118.41207122802734">
<ele>3269</ele>
<time>2016-10-08T15:26:42Z</time>
</trkpt>
<trkpt lat="36.7343864440918" lon="-118.41204833984375">
<ele>3269</ele>
<time>2016-10-08T15:26:48Z</time>
</trkpt>
<trkpt lat="36.73434066772461" lon="-118.41201782226563">
<ele>3267</ele>
<time>2016-10-08T15:26:57Z</time>
</trkpt>
<trkpt lat="36.73430633544922" lon="-118.41197204589844">
<ele>3268</ele>
<time>2016-10-08T15:27:03Z</time>
</trkpt>
<trkpt lat="36.7342414855957" lon="-118.41189575195313">
<ele>3268</ele>
<time>2016-10-08T15:27:15Z</time>
</trkpt>
<trkpt lat="36.73416519165039" lon="-118.41181945800781">
<ele>3271</ele>
<time>2016-10-08T15:27:25Z</time>
</trkpt>
<trkpt lat="36.7341194152832" lon="-118.41178894042969">
<ele>3269</ele>
<time>2016-10-08T15:27:34Z</time>
</trkpt>
<trkpt lat="36.734012603759766" lon="-118.41177368164063">
<ele>3271</ele>
<time>2016-10-08T15:27:41Z</time>
</trkpt>
<trkpt lat="36.73392868041992" lon="-118.4117431640625">
<ele>3275</ele>
<time>2016-10-08T15:27:48Z</time>
</trkpt>
<trkpt lat="36.73387908935547" lon="-118.4117431640625">
<ele>3277</ele>
<time>2016-10-08T15:27:58Z</time>
</trkpt>
<trkpt lat="36.73379135131836" lon="-118.4117660522461">
<ele>3276</ele>
<time>2016-10-08T15:28:09Z</time>
</trkpt>
<trkpt lat="36.733821868896484" lon="-118.41181182861328">
<ele>3280</ele>
<time>2016-10-08T15:28:20Z</time>
</trkpt>
<trkpt lat="36.73377227783203" lon="-118.41183471679688">
<ele>3281</ele>
<time>2016-10-08T15:28:40Z</time>
</trkpt>
<trkpt lat="36.73371505737305" lon="-118.41181945800781">
<ele>3284</ele>
<time>2016-10-08T15:29:48Z</time>
</trkpt>
<trkpt lat="36.73366928100586" lon="-118.41180419921875">
<ele>3283</ele>
<time>2016-10-08T15:30:16Z</time>
</trkpt>
<trkpt lat="36.73362350463867" lon="-118.41183471679688">
<ele>3284</ele>
<time>2016-10-08T15:30:33Z</time>
</trkpt>
<trkpt lat="36.73361587524414" lon="-118.41189575195313">
<ele>3285</ele>
<time>2016-10-08T15:30:39Z</time>
</trkpt>
<trkpt lat="36.733585357666016" lon="-118.41194152832031">
<ele>3285</ele>
<time>2016-10-08T15:30:46Z</time>
</trkpt>
<trkpt lat="36.7335319519043" lon="-118.41197967529297">
<ele>3284</ele>
<time>2016-10-08T15:31:05Z</time>
</trkpt>
<trkpt lat="36.73349380493164" lon="-118.41201782226563">
<ele>3282</ele>
<time>2016-10-08T15:31:17Z</time>
</trkpt>
<trkpt lat="36.73348617553711" lon="-118.41209411621094">
<ele>3292</ele>
<time>2016-10-08T15:32:22Z</time>
</trkpt>
<trkpt lat="36.73344802856445" lon="-118.41204833984375">
<ele>3290</ele>
<time>2016-10-08T15:33:48Z</time>
</trkpt>
</trkseg>
</trk>
<trk>
<name><![CDATA[10080834]]></name>
<number>18</number>
<extensions><topografix:color>ff000066</topografix:color></extensions>
<trkseg>
<trkpt lat="36.73345184326172" lon="-118.41204833984375">
<ele>3290</ele>
<time>2016-10-08T15:34:35Z</time>
</trkpt>
<trkpt lat="36.73349380493164" lon="-118.41201782226563">
<ele>3298</ele>
<time>2016-10-08T15:37:26Z</time>
</trkpt>
<trkpt lat="36.733497619628906" lon="-118.41207885742188">
<ele>3293</ele>
<time>2016-10-08T15:39:19Z</time>
</trkpt>
<trkpt lat="36.73349380493164" lon="-118.4119873046875">
<ele>3288</ele>
<time>2016-10-08T15:42:35Z</time>
</trkpt>
<trkpt lat="36.73350143432617" lon="-118.41190338134766">
<ele>3294</ele>
<time>2016-10-08T15:52:55Z</time>
</trkpt>
<trkpt lat="36.733455657958984" lon="-118.41188049316406">
<ele>3296</ele>
<time>2016-10-08T15:53:01Z</time>
</trkpt>
<trkpt lat="36.73341369628906" lon="-118.41178894042969">
<ele>3283</ele>
<time>2016-10-08T15:53:15Z</time>
</trkpt>
<trkpt lat="36.73344802856445" lon="-118.41169738769531">
<ele>3275</ele>
<time>2016-10-08T15:53:35Z</time>
</trkpt>
<trkpt lat="36.733394622802734" lon="-118.41168975830078">
<ele>3277</ele>
<time>2016-10-08T15:53:51Z</time>
</trkpt>
<trkpt lat="36.73334503173828" lon="-118.41165161132813">
<ele>3277</ele>
<time>2016-10-08T15:53:58Z</time>
</trkpt>
<trkpt lat="36.73324203491211" lon="-118.41162872314453">
<ele>3279</ele>
<time>2016-10-08T15:54:04Z</time>
</trkpt>
<trkpt lat="36.73320388793945" lon="-118.4115982055664">
<ele>3282</ele>
<time>2016-10-08T15:54:16Z</time>
</trkpt>
<trkpt lat="36.733158111572266" lon="-118.41158294677734">
<ele>3283</ele>
<time>2016-10-08T15:54:24Z</time>
</trkpt>
<trkpt lat="36.73305892944336" lon="-118.41160583496094">
<ele>3283</ele>
<time>2016-10-08T15:54:33Z</time>
</trkpt>
<trkpt lat="36.73298645019531" lon="-118.41160583496094">
<ele>3278</ele>
<time>2016-10-08T15:54:42Z</time>
</trkpt>
<trkpt lat="36.73289108276367" lon="-118.41162872314453">
<ele>3282</ele>
<time>2016-10-08T15:54:51Z</time>
</trkpt>
<trkpt lat="36.7327995300293" lon="-118.41157531738281">
<ele>3281</ele>
<time>2016-10-08T15:54:58Z</time>
</trkpt>
<trkpt lat="36.73270034790039" lon="-118.41153717041016">
<ele>3286</ele>
<time>2016-10-08T15:55:08Z</time>
</trkpt>
<trkpt lat="36.73260498046875" lon="-118.41157531738281">
<ele>3282</ele>
<time>2016-10-08T15:55:18Z</time>
</trkpt>
<trkpt lat="36.73251724243164" lon="-118.4115219116211">
<ele>3280</ele>
<time>2016-10-08T15:55:27Z</time>
</trkpt>
<trkpt lat="36.73249435424805" lon="-118.41146850585938">
<ele>3280</ele>
<time>2016-10-08T15:55:33Z</time>
</trkpt>
<trkpt lat="36.73244857788086" lon="-118.41150665283203">
<ele>3277</ele>
<time>2016-10-08T15:55:45Z</time>
</trkpt>
<trkpt lat="36.7324104309082" lon="-118.41146087646484">
<ele>3277</ele>
<time>2016-10-08T15:55:54Z</time>
</trkpt>
<trkpt lat="36.732383728027344" lon="-118.41141510009766">
<ele>3269</ele>
<time>2016-10-08T15:56:01Z</time>
</trkpt>
<trkpt lat="36.73234176635742" lon="-118.41139221191406">
<ele>3275</ele>
<time>2016-10-08T15:56:09Z</time>
</trkpt>
<trkpt lat="36.7322998046875" lon="-118.41129302978516">
<ele>3272</ele>
<time>2016-10-08T15:56:17Z</time>
</trkpt>
<trkpt lat="36.73227310180664" lon="-118.41120147705078">
<ele>3268</ele>
<time>2016-10-08T15:56:26Z</time>
</trkpt>
<trkpt lat="36.73224639892578" lon="-118.4111557006836">
<ele>3265</ele>
<time>2016-10-08T15:56:33Z</time>
</trkpt>
<trkpt lat="36.73219680786133" lon="-118.41111755371094">
<ele>3264</ele>
<time>2016-10-08T15:56:41Z</time>
</trkpt>
<trkpt lat="36.73215103149414" lon="-118.41110229492188">
<ele>3267</ele>
<time>2016-10-08T15:56:51Z</time>
</trkpt>
<trkpt lat="36.73207473754883" lon="-118.4110107421875">
<ele>3268</ele>
<time>2016-10-08T15:56:59Z</time>
</trkpt>
<trkpt lat="36.73198699951172" lon="-118.4109878540039">
<ele>3264</ele>
<time>2016-10-08T15:57:11Z</time>
</trkpt>
<trkpt lat="36.731903076171875" lon="-118.4109115600586">
<ele>3263</ele>
<time>2016-10-08T15:57:17Z</time>
</trkpt>
<trkpt lat="36.731807708740234" lon="-118.41084289550781">
<ele>3265</ele>
<time>2016-10-08T15:57:24Z</time>
</trkpt>
<trkpt lat="36.73172378540039" lon="-118.410888671875">
<ele>3267</ele>
<time>2016-10-08T15:57:34Z</time>
</trkpt>
<trkpt lat="36.73167037963867" lon="-118.41087341308594">
<ele>3267</ele>
<time>2016-10-08T15:57:41Z</time>
</trkpt>
<trkpt lat="36.73157501220703" lon="-118.41082763671875">
<ele>3264</ele>
<time>2016-10-08T15:57:55Z</time>
</trkpt>
<trkpt lat="36.73147964477539" lon="-118.41079711914063">
<ele>3265</ele>
<time>2016-10-08T15:58:04Z</time>
</trkpt>
<trkpt lat="36.731388092041016" lon="-118.41075134277344">
<ele>3269</ele>
<time>2016-10-08T15:58:19Z</time>
</trkpt>
<trkpt lat="36.731285095214844" lon="-118.41079711914063">
<ele>3267</ele>
<time>2016-10-08T15:58:27Z</time>
</trkpt>
<trkpt lat="36.73119354248047" lon="-118.41078186035156">
<ele>3263</ele>
<time>2016-10-08T15:58:35Z</time>
</trkpt>
<trkpt lat="36.731101989746094" lon="-118.41073608398438">
<ele>3265</ele>
<time>2016-10-08T15:58:45Z</time>
</trkpt>
<trkpt lat="36.7310791015625" lon="-118.41068267822266">
<ele>3271</ele>
<time>2016-10-08T15:58:54Z</time>
</trkpt>
<trkpt lat="36.73107147216797" lon="-118.4107437133789">
<ele>3272</ele>
<time>2016-10-08T15:59:06Z</time>
</trkpt>
<trkpt lat="36.73104476928711" lon="-118.41078186035156">
<ele>3275</ele>
<time>2016-10-08T15:59:12Z</time>
</trkpt>
<trkpt lat="36.73097610473633" lon="-118.4107894897461">
<ele>3274</ele>
<time>2016-10-08T16:00:01Z</time>
</trkpt>
<trkpt lat="36.730918884277344" lon="-118.41079711914063">
<ele>3269</ele>
<time>2016-10-08T16:00:45Z</time>
</trkpt>
<trkpt lat="36.73086929321289" lon="-118.41079711914063">
<ele>3270</ele>
<time>2016-10-08T16:00:54Z</time>
</trkpt>
<trkpt lat="36.73082733154297" lon="-118.41075897216797">
<ele>3269</ele>
<time>2016-10-08T16:01:00Z</time>
</trkpt>
<trkpt lat="36.730777740478516" lon="-118.41075134277344">
<ele>3270</ele>
<time>2016-10-08T16:01:07Z</time>
</trkpt>
<trkpt lat="36.73074722290039" lon="-118.41070556640625">
<ele>3270</ele>
<time>2016-10-08T16:01:14Z</time>
</trkpt>
<trkpt lat="36.73065185546875" lon="-118.41070556640625">
<ele>3271</ele>
<time>2016-10-08T16:01:25Z</time>
</trkpt>
<trkpt lat="36.73064422607422" lon="-118.41061401367188">
<ele>3272</ele>
<time>2016-10-08T16:01:35Z</time>
</trkpt>
<trkpt lat="36.73059844970703" lon="-118.4106216430664">
<ele>3278</ele>
<time>2016-10-08T16:01:50Z</time>
</trkpt>
<trkpt lat="36.730552673339844" lon="-118.41062927246094">
<ele>3278</ele>
<time>2016-10-08T16:01:59Z</time>
</trkpt>
<trkpt lat="36.730464935302734" lon="-118.41065216064453">
<ele>3275</ele>
<time>2016-10-08T16:02:11Z</time>
</trkpt>
<trkpt lat="36.730403900146484" lon="-118.41056823730469">
<ele>3276</ele>
<time>2016-10-08T16:02:30Z</time>
</trkpt>
<trkpt lat="36.7303581237793" lon="-118.41053009033203">
<ele>3273</ele>
<time>2016-10-08T16:02:43Z</time>
</trkpt>
<trkpt lat="36.73031234741211" lon="-118.41053009033203">
<ele>3270</ele>
<time>2016-10-08T16:02:50Z</time>
</trkpt>
<trkpt lat="36.730262756347656" lon="-118.41050720214844">
<ele>3268</ele>
<time>2016-10-08T16:03:05Z</time>
</trkpt>
<trkpt lat="36.73017120361328" lon="-118.41053771972656">
<ele>3268</ele>
<time>2016-10-08T16:03:16Z</time>
</trkpt>
<trkpt lat="36.73008346557617" lon="-118.41048431396484">
<ele>3272</ele>
<time>2016-10-08T16:03:27Z</time>
</trkpt>
<trkpt lat="36.73004150390625" lon="-118.4105224609375">
<ele>3272</ele>
<time>2016-10-08T16:03:34Z</time>
</trkpt>
<trkpt lat="36.72999954223633" lon="-118.41046905517578">
<ele>3273</ele>
<time>2016-10-08T16:03:41Z</time>
</trkpt>
<trkpt lat="36.729984283447266" lon="-118.41041564941406">
<ele>3277</ele>
<time>2016-10-08T16:03:55Z</time>
</trkpt>
<trkpt lat="36.72997283935547" lon="-118.41034698486328">
<ele>3275</ele>
<time>2016-10-08T16:04:01Z</time>
</trkpt>
<trkpt lat="36.7299919128418" lon="-118.41022491455078">
<ele>3273</ele>
<time>2016-10-08T16:04:11Z</time>
</trkpt>
<trkpt lat="36.72993850708008" lon="-118.41012573242188">
<ele>3271</ele>
<time>2016-10-08T16:04:19Z</time>
</trkpt>
<trkpt lat="36.72988510131836" lon="-118.41004943847656">
<ele>3273</ele>
<time>2016-10-08T16:04:33Z</time>
</trkpt>
<trkpt lat="36.7298698425293" lon="-118.40995788574219">
<ele>3272</ele>
<time>2016-10-08T16:04:39Z</time>
</trkpt>
<trkpt lat="36.729854583740234" lon="-118.40982818603516">
<ele>3272</ele>
<time>2016-10-08T16:04:50Z</time>
</trkpt>
<trkpt lat="36.729820251464844" lon="-118.40972137451172">
<ele>3272</ele>
<time>2016-10-08T16:05:12Z</time>
</trkpt>
<trkpt lat="36.729774475097656" lon="-118.40962219238281">
<ele>3272</ele>
<time>2016-10-08T16:05:22Z</time>
</trkpt>
<trkpt lat="36.729736328125" lon="-118.40958404541016">
<ele>3271</ele>
<time>2016-10-08T16:05:28Z</time>
</trkpt>
<trkpt lat="36.729705810546875" lon="-118.40950775146484">
<ele>3271</ele>
<time>2016-10-08T16:05:35Z</time>
</trkpt>
<trkpt lat="36.72962951660156" lon="-118.40943145751953">
<ele>3269</ele>
<time>2016-10-08T16:05:45Z</time>
</trkpt>
<trkpt lat="36.72955322265625" lon="-118.40937042236328">
<ele>3268</ele>
<time>2016-10-08T16:05:57Z</time>
</trkpt>
<trkpt lat="36.72950744628906" lon="-118.40937042236328">
<ele>3267</ele>
<time>2016-10-08T16:06:03Z</time>
</trkpt>
<trkpt lat="36.72944641113281" lon="-118.40929412841797">
<ele>3270</ele>
<time>2016-10-08T16:06:13Z</time>
</trkpt>
<trkpt lat="36.72940444946289" lon="-118.40927124023438">
<ele>3273</ele>
<time>2016-10-08T16:06:34Z</time>
</trkpt>
<trkpt lat="36.72937774658203" lon="-118.40921020507813">
<ele>3274</ele>
<time>2016-10-08T16:06:41Z</time>
</trkpt>
<trkpt lat="36.72936248779297" lon="-118.40914916992188">
<ele>3275</ele>
<time>2016-10-08T16:06:50Z</time>
</trkpt>
<trkpt lat="36.72932434082031" lon="-118.40911102294922">
<ele>3275</ele>
<time>2016-10-08T16:06:56Z</time>
</trkpt>
<trkpt lat="36.72929000854492" lon="-118.40907287597656">
<ele>3275</ele>
<time>2016-10-08T16:07:03Z</time>
</trkpt>
<trkpt lat="36.72925567626953" lon="-118.40902709960938">
<ele>3274</ele>
<time>2016-10-08T16:07:10Z</time>
</trkpt>
<trkpt lat="36.729190826416016" lon="-118.408935546875">
<ele>3274</ele>
<time>2016-10-08T16:07:22Z</time>
</trkpt>
<trkpt lat="36.729148864746094" lon="-118.40889739990234">
<ele>3273</ele>
<time>2016-10-08T16:07:31Z</time>
</trkpt>
<trkpt lat="36.729103088378906" lon="-118.40882110595703">
<ele>3273</ele>
<time>2016-10-08T16:07:40Z</time>
</trkpt>
<trkpt lat="36.72908401489258" lon="-118.40876007080078">
<ele>3277</ele>
<time>2016-10-08T16:07:48Z</time>
</trkpt>
<trkpt lat="36.7290153503418" lon="-118.40865325927734">
<ele>3275</ele>
<time>2016-10-08T16:07:56Z</time>
</trkpt>
<trkpt lat="36.72892761230469" lon="-118.40859985351563">
<ele>3276</ele>
<time>2016-10-08T16:08:04Z</time>
</trkpt>
<trkpt lat="36.72886657714844" lon="-118.40850830078125">
<ele>3275</ele>
<time>2016-10-08T16:08:14Z</time>
</trkpt>
<trkpt lat="36.72882843017578" lon="-118.40839385986328">
<ele>3276</ele>
<time>2016-10-08T16:08:25Z</time>
</trkpt>
<trkpt lat="36.72882080078125" lon="-118.40827178955078">
<ele>3277</ele>
<time>2016-10-08T16:08:33Z</time>
</trkpt>
<trkpt lat="36.728763580322266" lon="-118.40824127197266">
<ele>3279</ele>
<time>2016-10-08T16:08:46Z</time>
</trkpt>
<trkpt lat="36.728702545166016" lon="-118.40821838378906">
<ele>3278</ele>
<time>2016-10-08T16:10:18Z</time>
</trkpt>
<trkpt lat="36.7286491394043" lon="-118.40821838378906">
<ele>3281</ele>
<time>2016-10-08T16:10:25Z</time>
</trkpt>
<trkpt lat="36.728614807128906" lon="-118.4081802368164">
<ele>3281</ele>
<time>2016-10-08T16:10:31Z</time>
</trkpt>
<trkpt lat="36.72853088378906" lon="-118.40819549560547">
<ele>3279</ele>
<time>2016-10-08T16:10:40Z</time>
</trkpt>
<trkpt lat="36.728492736816406" lon="-118.40814971923828">
<ele>3280</ele>
<time>2016-10-08T16:10:47Z</time>
</trkpt>
<trkpt lat="36.72846603393555" lon="-118.40809631347656">
<ele>3281</ele>
<time>2016-10-08T16:10:53Z</time>
</trkpt>
<trkpt lat="36.728416442871094" lon="-118.40806579589844">
<ele>3279</ele>
<time>2016-10-08T16:11:05Z</time>
</trkpt>
<trkpt lat="36.72834396362305" lon="-118.4079818725586">
<ele>3280</ele>
<time>2016-10-08T16:11:12Z</time>
</trkpt>
<trkpt lat="36.728294372558594" lon="-118.40796661376953">
<ele>3284</ele>
<time>2016-10-08T16:11:18Z</time>
</trkpt>
<trkpt lat="36.72821044921875" lon="-118.40789794921875">
<ele>3284</ele>
<time>2016-10-08T16:11:28Z</time>
</trkpt>
<trkpt lat="36.7281494140625" lon="-118.40791320800781">
<ele>3285</ele>
<time>2016-10-08T16:11:35Z</time>
</trkpt>
<trkpt lat="36.728057861328125" lon="-118.40794372558594">
<ele>3287</ele>
<time>2016-10-08T16:11:47Z</time>
</trkpt>
<trkpt lat="36.7280158996582" lon="-118.40796661376953">
<ele>3285</ele>
<time>2016-10-08T16:11:54Z</time>
</trkpt>
<trkpt lat="36.727928161621094" lon="-118.40798950195313">
<ele>3284</ele>
<time>2016-10-08T16:12:03Z</time>
</trkpt>
<trkpt lat="36.727840423583984" lon="-118.40794372558594">
<ele>3283</ele>
<time>2016-10-08T16:12:14Z</time>
</trkpt>
<trkpt lat="36.727752685546875" lon="-118.40790557861328">
<ele>3286</ele>
<time>2016-10-08T16:12:31Z</time>
</trkpt>
<trkpt lat="36.727684020996094" lon="-118.40792083740234">
<ele>3291</ele>
<time>2016-10-08T16:12:45Z</time>
</trkpt>
<trkpt lat="36.7276611328125" lon="-118.40786743164063">
<ele>3292</ele>
<time>2016-10-08T16:12:53Z</time>
</trkpt>
<trkpt lat="36.727630615234375" lon="-118.40782165527344">
<ele>3297</ele>
<time>2016-10-08T16:13:12Z</time>
</trkpt>
<trkpt lat="36.727630615234375" lon="-118.40787506103516">
<ele>3292</ele>
<time>2016-10-08T16:13:21Z</time>
</trkpt>
<trkpt lat="36.72758865356445" lon="-118.40788269042969">
<ele>3297</ele>
<time>2016-10-08T16:13:30Z</time>
</trkpt>
<trkpt lat="36.72753143310547" lon="-118.40779876708984">
<ele>3300</ele>
<time>2016-10-08T16:13:40Z</time>
</trkpt>
<trkpt lat="36.7275276184082" lon="-118.4078598022461">
<ele>3296</ele>
<time>2016-10-08T16:13:58Z</time>
</trkpt>
<trkpt lat="36.727516174316406" lon="-118.40792083740234">
<ele>3298</ele>
<time>2016-10-08T16:14:26Z</time>
</trkpt>
<trkpt lat="36.727500915527344" lon="-118.40805053710938">
<ele>3298</ele>
<time>2016-10-08T16:14:35Z</time>
</trkpt>
<trkpt lat="36.727508544921875" lon="-118.4081802368164">
<ele>3299</ele>
<time>2016-10-08T16:14:44Z</time>
</trkpt>
<trkpt lat="36.72749328613281" lon="-118.40823364257813">
<ele>3302</ele>
<time>2016-10-08T16:14:50Z</time>
</trkpt>
<trkpt lat="36.727447509765625" lon="-118.40827178955078">
<ele>3299</ele>
<time>2016-10-08T16:15:00Z</time>
</trkpt>
<trkpt lat="36.72747039794922" lon="-118.40831756591797">
<ele>3304</ele>
<time>2016-10-08T16:15:10Z</time>
</trkpt>
<trkpt lat="36.72742462158203" lon="-118.40840148925781">
<ele>3304</ele>
<time>2016-10-08T16:15:47Z</time>
</trkpt>
<trkpt lat="36.727413177490234" lon="-118.40846252441406">
<ele>3306</ele>
<time>2016-10-08T16:16:00Z</time>
</trkpt>
<trkpt lat="36.72738265991211" lon="-118.40850830078125">
<ele>3311</ele>
<time>2016-10-08T16:16:09Z</time>
</trkpt>
<trkpt lat="36.72733688354492" lon="-118.40850830078125">
<ele>3313</ele>
<time>2016-10-08T16:16:19Z</time>
</trkpt>
<trkpt lat="36.72727966308594" lon="-118.40858459472656">
<ele>3323</ele>
<time>2016-10-08T16:17:03Z</time>
</trkpt>
<trkpt lat="36.727230072021484" lon="-118.40857696533203">
<ele>3323</ele>
<time>2016-10-08T16:17:13Z</time>
</trkpt>
<trkpt lat="36.727195739746094" lon="-118.40861511230469">
<ele>3322</ele>
<time>2016-10-08T16:17:29Z</time>
</trkpt>
<trkpt lat="36.727149963378906" lon="-118.40869140625">
<ele>3322</ele>
<time>2016-10-08T16:17:44Z</time>
</trkpt>
<trkpt lat="36.72712707519531" lon="-118.40874481201172">
<ele>3330</ele>
<time>2016-10-08T16:18:33Z</time>
</trkpt>
<trkpt lat="36.727081298828125" lon="-118.4087905883789">
<ele>3339</ele>
<time>2016-10-08T16:19:02Z</time>
</trkpt>
<trkpt lat="36.72703170776367" lon="-118.40878295898438">
<ele>3341</ele>
<time>2016-10-08T16:19:15Z</time>
</trkpt>
<trkpt lat="36.726985931396484" lon="-118.40876007080078">
<ele>3343</ele>
<time>2016-10-08T16:19:34Z</time>
</trkpt>
<trkpt lat="36.726966857910156" lon="-118.40869903564453">
<ele>3342</ele>
<time>2016-10-08T16:19:43Z</time>
</trkpt>
<trkpt lat="36.726932525634766" lon="-118.40866088867188">
<ele>3343</ele>
<time>2016-10-08T16:19:55Z</time>
</trkpt>
<trkpt lat="36.72690200805664" lon="-118.40869903564453">
<ele>3345</ele>
<time>2016-10-08T16:20:11Z</time>
</trkpt>
<trkpt lat="36.72686004638672" lon="-118.40873718261719">
<ele>3345</ele>
<time>2016-10-08T16:20:20Z</time>
</trkpt>
<trkpt lat="36.72681427001953" lon="-118.4087142944336">
<ele>3347</ele>
<time>2016-10-08T16:20:27Z</time>
</trkpt>
<trkpt lat="36.72674560546875" lon="-118.40870666503906">
<ele>3350</ele>
<time>2016-10-08T16:21:00Z</time>
</trkpt>
<trkpt lat="36.726715087890625" lon="-118.40874481201172">
<ele>3354</ele>
<time>2016-10-08T16:21:11Z</time>
</trkpt>
<trkpt lat="36.72666931152344" lon="-118.40874481201172">
<ele>3357</ele>
<time>2016-10-08T16:21:25Z</time>
</trkpt>
<trkpt lat="36.72663116455078" lon="-118.40870666503906">
<ele>3357</ele>
<time>2016-10-08T16:21:31Z</time>
</trkpt>
<trkpt lat="36.7265739440918" lon="-118.40874481201172">
<ele>3351</ele>
<time>2016-10-08T16:21:52Z</time>
</trkpt>
<trkpt lat="36.7265625" lon="-118.40868377685547">
<ele>3360</ele>
<time>2016-10-08T16:22:13Z</time>
</trkpt>
<trkpt lat="36.72653579711914" lon="-118.40877532958984">
<ele>3361</ele>
<time>2016-10-08T16:23:29Z</time>
</trkpt>
<trkpt lat="36.72650146484375" lon="-118.40884399414063">
<ele>3363</ele>
<time>2016-10-08T16:23:35Z</time>
</trkpt>
<trkpt lat="36.72645950317383" lon="-118.40885925292969">
<ele>3361</ele>
<time>2016-10-08T16:23:42Z</time>
</trkpt>
<trkpt lat="36.726417541503906" lon="-118.40887451171875">
<ele>3362</ele>
<time>2016-10-08T16:23:54Z</time>
</trkpt>
<trkpt lat="36.72636795043945" lon="-118.40887451171875">
<ele>3365</ele>
<time>2016-10-08T16:24:13Z</time>
</trkpt>
<trkpt lat="36.726322174072266" lon="-118.40888977050781">
<ele>3368</ele>
<time>2016-10-08T16:24:20Z</time>
</trkpt>
<trkpt lat="36.72627639770508" lon="-118.40886688232422">
<ele>3370</ele>
<time>2016-10-08T16:24:28Z</time>
</trkpt>
<trkpt lat="36.726200103759766" lon="-118.40886688232422">
<ele>3375</ele>
<time>2016-10-08T16:24:46Z</time>
</trkpt>
<trkpt lat="36.72614669799805" lon="-118.40885925292969">
<ele>3378</ele>
<time>2016-10-08T16:24:56Z</time>
</trkpt>
<trkpt lat="36.72612762451172" lon="-118.4089126586914">
<ele>3376</ele>
<time>2016-10-08T16:25:26Z</time>
</trkpt>
<trkpt lat="36.72605514526367" lon="-118.40897369384766">
<ele>3382</ele>
<time>2016-10-08T16:25:43Z</time>
</trkpt>
<trkpt lat="36.72602844238281" lon="-118.40901947021484">
<ele>3380</ele>
<time>2016-10-08T16:25:50Z</time>
</trkpt>
<trkpt lat="36.72600173950195" lon="-118.40906524658203">
<ele>3373</ele>
<time>2016-10-08T16:26:03Z</time>
</trkpt>
<trkpt lat="36.72596740722656" lon="-118.40901947021484">
<ele>3384</ele>
<time>2016-10-08T16:26:17Z</time>
</trkpt>
<trkpt lat="36.72589111328125" lon="-118.40898132324219">
<ele>3395</ele>
<time>2016-10-08T16:26:43Z</time>
</trkpt>
<trkpt lat="36.72584533691406" lon="-118.40898895263672">
<ele>3397</ele>
<time>2016-10-08T16:27:13Z</time>
</trkpt>
<trkpt lat="36.725826263427734" lon="-118.40904235839844">
<ele>3400</ele>
<time>2016-10-08T16:27:32Z</time>
</trkpt>
<trkpt lat="36.72573471069336" lon="-118.40901947021484">
<ele>3405</ele>
<time>2016-10-08T16:28:07Z</time>
</trkpt>
<trkpt lat="36.7256965637207" lon="-118.40897369384766">
<ele>3408</ele>
<time>2016-10-08T16:28:17Z</time>
</trkpt>
<trkpt lat="36.725711822509766" lon="-118.40890502929688">
<ele>3413</ele>
<time>2016-10-08T16:28:45Z</time>
</trkpt>
<trkpt lat="36.72571563720703" lon="-118.40885162353516">
<ele>3408</ele>
<time>2016-10-08T16:29:00Z</time>
</trkpt>
<trkpt lat="36.72568130493164" lon="-118.40890502929688">
<ele>3411</ele>
<time>2016-10-08T16:29:12Z</time>
</trkpt>
<trkpt lat="36.72566223144531" lon="-118.4089584350586">
<ele>3412</ele>
<time>2016-10-08T16:29:24Z</time>
</trkpt>
<trkpt lat="36.725624084472656" lon="-118.40898895263672">
<ele>3415</ele>
<time>2016-10-08T16:29:33Z</time>
</trkpt>
<trkpt lat="36.72557067871094" lon="-118.40901947021484">
<ele>3420</ele>
<time>2016-10-08T16:30:00Z</time>
</trkpt>
<trkpt lat="36.725547790527344" lon="-118.40907287597656">
<ele>3420</ele>
<time>2016-10-08T16:30:08Z</time>
</trkpt>
<trkpt lat="36.72550582885742" lon="-118.40904235839844">
<ele>3424</ele>
<time>2016-10-08T16:30:22Z</time>
</trkpt>
<trkpt lat="36.72545623779297" lon="-118.4090347290039">
<ele>3423</ele>
<time>2016-10-08T16:30:32Z</time>
</trkpt>
<trkpt lat="36.725406646728516" lon="-118.40897369384766">
<ele>3425</ele>
<time>2016-10-08T16:30:44Z</time>
</trkpt>
<trkpt lat="36.72536849975586" lon="-118.40900421142578">
<ele>3426</ele>
<time>2016-10-08T16:30:56Z</time>
</trkpt>
<trkpt lat="36.72532272338867" lon="-118.40899658203125">
<ele>3429</ele>
<time>2016-10-08T16:31:04Z</time>
</trkpt>
<trkpt lat="36.72529220581055" lon="-118.40904235839844">
<ele>3431</ele>
<time>2016-10-08T16:31:17Z</time>
</trkpt>
<trkpt lat="36.725250244140625" lon="-118.40906524658203">
<ele>3429</ele>
<time>2016-10-08T16:31:25Z</time>
</trkpt>
<trkpt lat="36.725162506103516" lon="-118.4090576171875">
<ele>3433</ele>
<time>2016-10-08T16:31:43Z</time>
</trkpt>
<trkpt lat="36.72511672973633" lon="-118.40906524658203">
<ele>3437</ele>
<time>2016-10-08T16:31:54Z</time>
</trkpt>
<trkpt lat="36.725067138671875" lon="-118.40907287597656">
<ele>3438</ele>
<time>2016-10-08T16:32:04Z</time>
</trkpt>
<trkpt lat="36.72502136230469" lon="-118.4090805053711">
<ele>3441</ele>
<time>2016-10-08T16:32:19Z</time>
</trkpt>
<trkpt lat="36.7249755859375" lon="-118.40906524658203">
<ele>3445</ele>
<time>2016-10-08T16:32:34Z</time>
</trkpt>
<trkpt lat="36.72492599487305" lon="-118.40910339355469">
<ele>3445</ele>
<time>2016-10-08T16:32:54Z</time>
</trkpt>
<trkpt lat="36.724884033203125" lon="-118.40914154052734">
<ele>3442</ele>
<time>2016-10-08T16:33:04Z</time>
</trkpt>
<trkpt lat="36.7248420715332" lon="-118.40910339355469">
<ele>3452</ele>
<time>2016-10-08T16:33:24Z</time>
</trkpt>
<trkpt lat="36.72479248046875" lon="-118.40910339355469">
<ele>3451</ele>
<time>2016-10-08T16:33:34Z</time>
</trkpt>
<trkpt lat="36.7247428894043" lon="-118.40907287597656">
<ele>3454</ele>
<time>2016-10-08T16:33:45Z</time>
</trkpt>
<trkpt lat="36.724708557128906" lon="-118.40911865234375">
<ele>3455</ele>
<time>2016-10-08T16:33:58Z</time>
</trkpt>
<trkpt lat="36.72467041015625" lon="-118.4091567993164">
<ele>3453</ele>
<time>2016-10-08T16:34:07Z</time>
</trkpt>
<trkpt lat="36.7246208190918" lon="-118.40914916992188">
<ele>3455</ele>
<time>2016-10-08T16:34:14Z</time>
</trkpt>
<trkpt lat="36.72457504272461" lon="-118.40913391113281">
<ele>3457</ele>
<time>2016-10-08T16:34:20Z</time>
</trkpt>
<trkpt lat="36.72452926635742" lon="-118.40914154052734">
<ele>3456</ele>
<time>2016-10-08T16:34:35Z</time>
</trkpt>
<trkpt lat="36.724483489990234" lon="-118.40912628173828">
<ele>3459</ele>
<time>2016-10-08T16:34:44Z</time>
</trkpt>
<trkpt lat="36.72444534301758" lon="-118.40909576416016">
<ele>3460</ele>
<time>2016-10-08T16:34:50Z</time>
</trkpt>
<trkpt lat="36.72439956665039" lon="-118.40910339355469">
<ele>3457</ele>
<time>2016-10-08T16:35:00Z</time>
</trkpt>
<trkpt lat="36.72435760498047" lon="-118.40913391113281">
<ele>3459</ele>
<time>2016-10-08T16:35:07Z</time>
</trkpt>
<trkpt lat="36.724361419677734" lon="-118.40907287597656">
<ele>3463</ele>
<time>2016-10-08T16:35:27Z</time>
</trkpt>
<trkpt lat="36.724327087402344" lon="-118.40900421142578">
<ele>3463</ele>
<time>2016-10-08T16:35:35Z</time>
</trkpt>
<trkpt lat="36.72429656982422" lon="-118.40895080566406">
<ele>3462</ele>
<time>2016-10-08T16:35:45Z</time>
</trkpt>
<trkpt lat="36.72422409057617" lon="-118.40890502929688">
<ele>3462</ele>
<time>2016-10-08T16:35:56Z</time>
</trkpt>
<trkpt lat="36.72420883178711" lon="-118.40885162353516">
<ele>3463</ele>
<time>2016-10-08T16:36:09Z</time>
</trkpt>
<trkpt lat="36.724178314208984" lon="-118.40880584716797">
<ele>3467</ele>
<time>2016-10-08T16:36:17Z</time>
</trkpt>
<trkpt lat="36.72412872314453" lon="-118.4088134765625">
<ele>3470</ele>
<time>2016-10-08T16:36:24Z</time>
</trkpt>
<trkpt lat="36.72403335571289" lon="-118.40882873535156">
<ele>3457</ele>
<time>2016-10-08T16:38:25Z</time>
</trkpt>
<trkpt lat="36.723968505859375" lon="-118.40880584716797">
<ele>3457</ele>
<time>2016-10-08T16:38:41Z</time>
</trkpt>
<trkpt lat="36.723915100097656" lon="-118.40879821777344">
<ele>3456</ele>
<time>2016-10-08T16:38:48Z</time>
</trkpt>
<trkpt lat="36.723876953125" lon="-118.40875244140625">
<ele>3457</ele>
<time>2016-10-08T16:38:57Z</time>
</trkpt>
<trkpt lat="36.72383499145508" lon="-118.40877532958984">
<ele>3455</ele>
<time>2016-10-08T16:39:05Z</time>
</trkpt>
<trkpt lat="36.72380065917969" lon="-118.40872192382813">
<ele>3456</ele>
<time>2016-10-08T16:39:16Z</time>
</trkpt>
<trkpt lat="36.723777770996094" lon="-118.40867614746094">
<ele>3457</ele>
<time>2016-10-08T16:39:23Z</time>
</trkpt>
<trkpt lat="36.723758697509766" lon="-118.40861511230469">
<ele>3461</ele>
<time>2016-10-08T16:39:31Z</time>
</trkpt>
<trkpt lat="36.72371292114258" lon="-118.40858459472656">
<ele>3468</ele>
<time>2016-10-08T16:39:55Z</time>
</trkpt>
<trkpt lat="36.723670959472656" lon="-118.4085464477539">
<ele>3464</ele>
<time>2016-10-08T16:40:03Z</time>
</trkpt>
<trkpt lat="36.7236328125" lon="-118.40850830078125">
<ele>3469</ele>
<time>2016-10-08T16:40:15Z</time>
</trkpt>
<trkpt lat="36.72355651855469" lon="-118.4084701538086">
<ele>3471</ele>
<time>2016-10-08T16:40:41Z</time>
</trkpt>
<trkpt lat="36.723514556884766" lon="-118.40848541259766">
<ele>3469</ele>
<time>2016-10-08T16:40:49Z</time>
</trkpt>
<trkpt lat="36.72346878051758" lon="-118.40850830078125">
<ele>3470</ele>
<time>2016-10-08T16:40:58Z</time>
</trkpt>
<trkpt lat="36.72342300415039" lon="-118.40851593017578">
<ele>3477</ele>
<time>2016-10-08T16:41:15Z</time>
</trkpt>
<trkpt lat="36.723365783691406" lon="-118.40855407714844">
<ele>3479</ele>
<time>2016-10-08T16:41:40Z</time>
</trkpt>
<trkpt lat="36.72331619262695" lon="-118.40853881835938">
<ele>3478</ele>
<time>2016-10-08T16:41:49Z</time>
</trkpt>
<trkpt lat="36.72328567504883" lon="-118.40850067138672">
<ele>3482</ele>
<time>2016-10-08T16:42:03Z</time>
</trkpt>
<trkpt lat="36.723243713378906" lon="-118.4084701538086">
<ele>3482</ele>
<time>2016-10-08T16:42:11Z</time>
</trkpt>
<trkpt lat="36.723209381103516" lon="-118.40843200683594">
<ele>3480</ele>
<time>2016-10-08T16:42:27Z</time>
</trkpt>
<trkpt lat="36.72314453125" lon="-118.40843200683594">
<ele>3481</ele>
<time>2016-10-08T16:42:42Z</time>
</trkpt>
<trkpt lat="36.72309875488281" lon="-118.40841674804688">
<ele>3479</ele>
<time>2016-10-08T16:42:49Z</time>
</trkpt>
<trkpt lat="36.723052978515625" lon="-118.40840148925781">
<ele>3480</ele>
<time>2016-10-08T16:42:58Z</time>
</trkpt>
<trkpt lat="36.723018646240234" lon="-118.40835571289063">
<ele>3481</ele>
<time>2016-10-08T16:43:05Z</time>
</trkpt>
<trkpt lat="36.722938537597656" lon="-118.4083023071289">
<ele>3483</ele>
<time>2016-10-08T16:43:16Z</time>
</trkpt>
<trkpt lat="36.722904205322266" lon="-118.40825653076172">
<ele>3492</ele>
<time>2016-10-08T16:43:27Z</time>
</trkpt>
<trkpt lat="36.72284698486328" lon="-118.40827941894531">
<ele>3492</ele>
<time>2016-10-08T16:44:28Z</time>
</trkpt>
<trkpt lat="36.7227783203125" lon="-118.40821838378906">
<ele>3492</ele>
<time>2016-10-08T16:44:41Z</time>
</trkpt>
<trkpt lat="36.72273254394531" lon="-118.40819549560547">
<ele>3494</ele>
<time>2016-10-08T16:44:52Z</time>
</trkpt>
<trkpt lat="36.72269821166992" lon="-118.40815734863281">
<ele>3495</ele>
<time>2016-10-08T16:45:05Z</time>
</trkpt>
<trkpt lat="36.722652435302734" lon="-118.40813446044922">
<ele>3500</ele>
<time>2016-10-08T16:45:14Z</time>
</trkpt>
<trkpt lat="36.72258758544922" lon="-118.40809631347656">
<ele>3499</ele>
<time>2016-10-08T16:45:35Z</time>
</trkpt>
<trkpt lat="36.72254180908203" lon="-118.4081039428711">
<ele>3498</ele>
<time>2016-10-08T16:45:42Z</time>
</trkpt>
<trkpt lat="36.72255325317383" lon="-118.40804290771484">
<ele>3504</ele>
<time>2016-10-08T16:45:50Z</time>
</trkpt>
<trkpt lat="36.7225227355957" lon="-118.40799713134766">
<ele>3512</ele>
<time>2016-10-08T16:46:14Z</time>
</trkpt>
<trkpt lat="36.722476959228516" lon="-118.40796661376953">
<ele>3512</ele>
<time>2016-10-08T16:46:27Z</time>
</trkpt>
<trkpt lat="36.72245407104492" lon="-118.40806579589844">
<ele>3508</ele>
<time>2016-10-08T16:46:35Z</time>
</trkpt>
<trkpt lat="36.72240447998047" lon="-118.40808868408203">
<ele>3512</ele>
<time>2016-10-08T16:46:43Z</time>
</trkpt>
<trkpt lat="36.722354888916016" lon="-118.40811920166016">
<ele>3513</ele>
<time>2016-10-08T16:46:49Z</time>
</trkpt>
<trkpt lat="36.72231674194336" lon="-118.40814971923828">
<ele>3509</ele>
<time>2016-10-08T16:47:06Z</time>
</trkpt>
<trkpt lat="36.722286224365234" lon="-118.4081039428711">
<ele>3508</ele>
<time>2016-10-08T16:47:19Z</time>
</trkpt>
<trkpt lat="36.72224426269531" lon="-118.4080810546875">
<ele>3509</ele>
<time>2016-10-08T16:47:28Z</time>
</trkpt>
<trkpt lat="36.72221374511719" lon="-118.40802001953125">
<ele>3508</ele>
<time>2016-10-08T16:47:52Z</time>
</trkpt>
<trkpt lat="36.722171783447266" lon="-118.40802764892578">
<ele>3512</ele>
<time>2016-10-08T16:48:09Z</time>
</trkpt>
</trkseg>
</trk>
<trk>
<name><![CDATA[10080948]]></name>
<number>19</number>
<extensions><topografix:color>ff000066</topografix:color></extensions>
<trkseg>
<trkpt lat="36.72216033935547" lon="-118.40802001953125">
<ele>3512</ele>
<time>2016-10-08T16:48:14Z</time>
</trkpt>
<trkpt lat="36.72220230102539" lon="-118.40803527832031">
<ele>3503</ele>
<time>2016-10-08T16:48:58Z</time>
</trkpt>
<trkpt lat="36.72218704223633" lon="-118.40809631347656">
<ele>3503</ele>
<time>2016-10-08T16:49:09Z</time>
</trkpt>
<trkpt lat="36.722137451171875" lon="-118.4080810546875">
<ele>3505</ele>
<time>2016-10-08T16:49:29Z</time>
</trkpt>
<trkpt lat="36.72209167480469" lon="-118.40806579589844">
<ele>3504</ele>
<time>2016-10-08T16:49:44Z</time>
</trkpt>
<trkpt lat="36.72202682495117" lon="-118.40814971923828">
<ele>3505</ele>
<time>2016-10-08T16:49:55Z</time>
</trkpt>
<trkpt lat="36.72199249267578" lon="-118.4081802368164">
<ele>3502</ele>
<time>2016-10-08T16:50:04Z</time>
</trkpt>
<trkpt lat="36.721946716308594" lon="-118.40818786621094">
<ele>3502</ele>
<time>2016-10-08T16:50:17Z</time>
</trkpt>
<trkpt lat="36.7219123840332" lon="-118.4082260131836">
<ele>3503</ele>
<time>2016-10-08T16:50:25Z</time>
</trkpt>
<trkpt lat="36.72187042236328" lon="-118.40824127197266">
<ele>3504</ele>
<time>2016-10-08T16:50:34Z</time>
</trkpt>
<trkpt lat="36.72182846069336" lon="-118.40827178955078">
<ele>3507</ele>
<time>2016-10-08T16:50:43Z</time>
</trkpt>
<trkpt lat="36.72178649902344" lon="-118.40829467773438">
<ele>3509</ele>
<time>2016-10-08T16:50:53Z</time>
</trkpt>
<trkpt lat="36.72175598144531" lon="-118.40834045410156">
<ele>3511</ele>
<time>2016-10-08T16:51:14Z</time>
</trkpt>
<trkpt lat="36.721710205078125" lon="-118.40835571289063">
<ele>3511</ele>
<time>2016-10-08T16:51:24Z</time>
</trkpt>
<trkpt lat="36.7216682434082" lon="-118.4083480834961">
<ele>3511</ele>
<time>2016-10-08T16:51:32Z</time>
</trkpt>
<trkpt lat="36.72161865234375" lon="-118.40836334228516">
<ele>3510</ele>
<time>2016-10-08T16:51:39Z</time>
</trkpt>
<trkpt lat="36.72157287597656" lon="-118.40837860107422">
<ele>3511</ele>
<time>2016-10-08T16:51:45Z</time>
</trkpt>
<trkpt lat="36.72152328491211" lon="-118.40837860107422">
<ele>3509</ele>
<time>2016-10-08T16:51:52Z</time>
</trkpt>
<trkpt lat="36.721473693847656" lon="-118.40839385986328">
<ele>3508</ele>
<time>2016-10-08T16:51:58Z</time>
</trkpt>
<trkpt lat="36.72148513793945" lon="-118.40834045410156">
<ele>3511</ele>
<time>2016-10-08T16:52:10Z</time>
</trkpt>
<trkpt lat="36.72153091430664" lon="-118.40836334228516">
<ele>3515</ele>
<time>2016-10-08T16:52:41Z</time>
</trkpt>
<trkpt lat="36.72148895263672" lon="-118.40839385986328">
<ele>3510</ele>
<time>2016-10-08T16:52:52Z</time>
</trkpt>
<trkpt lat="36.72138977050781" lon="-118.408447265625">
<ele>3505</ele>
<time>2016-10-08T16:53:01Z</time>
</trkpt>
<trkpt lat="36.72134780883789" lon="-118.4084701538086">
<ele>3508</ele>
<time>2016-10-08T16:53:07Z</time>
</trkpt>
<trkpt lat="36.72127151489258" lon="-118.40846252441406">
<ele>3510</ele>
<time>2016-10-08T16:53:28Z</time>
</trkpt>
<trkpt lat="36.721221923828125" lon="-118.40846252441406">
<ele>3514</ele>
<time>2016-10-08T16:53:56Z</time>
</trkpt>
<trkpt lat="36.7211799621582" lon="-118.40849304199219">
<ele>3517</ele>
<time>2016-10-08T16:54:02Z</time>
</trkpt>
<trkpt lat="36.721134185791016" lon="-118.40851593017578">
<ele>3519</ele>
<time>2016-10-08T16:54:14Z</time>
</trkpt>
<trkpt lat="36.72108459472656" lon="-118.40852355957031">
<ele>3518</ele>
<time>2016-10-08T16:54:20Z</time>
</trkpt>
<trkpt lat="36.72104263305664" lon="-118.40850830078125">
<ele>3518</ele>
<time>2016-10-08T16:54:29Z</time>
</trkpt>
<trkpt lat="36.721004486083984" lon="-118.4085464477539">
<ele>3518</ele>
<time>2016-10-08T16:54:56Z</time>
</trkpt>
<trkpt lat="36.7209587097168" lon="-118.4085464477539">
<ele>3523</ele>
<time>2016-10-08T16:55:05Z</time>
</trkpt>
<trkpt lat="36.72090148925781" lon="-118.40862274169922">
<ele>3524</ele>
<time>2016-10-08T16:55:43Z</time>
</trkpt>
<trkpt lat="36.72084426879883" lon="-118.40863037109375">
<ele>3522</ele>
<time>2016-10-08T16:56:35Z</time>
</trkpt>
<trkpt lat="36.72079849243164" lon="-118.4086685180664">
<ele>3520</ele>
<time>2016-10-08T16:56:44Z</time>
</trkpt>
<trkpt lat="36.72074890136719" lon="-118.40864562988281">
<ele>3519</ele>
<time>2016-10-08T16:56:54Z</time>
</trkpt>
<trkpt lat="36.72072982788086" lon="-118.40858459472656">
<ele>3523</ele>
<time>2016-10-08T16:57:03Z</time>
</trkpt>
<trkpt lat="36.72066116333008" lon="-118.40860748291016">
<ele>3527</ele>
<time>2016-10-08T16:57:39Z</time>
</trkpt>
<trkpt lat="36.72061538696289" lon="-118.40858459472656">
<ele>3530</ele>
<time>2016-10-08T16:58:00Z</time>
</trkpt>
<trkpt lat="36.72057342529297" lon="-118.40855407714844">
<ele>3532</ele>
<time>2016-10-08T16:58:06Z</time>
</trkpt>
<trkpt lat="36.72050094604492" lon="-118.40855407714844">
<ele>3528</ele>
<time>2016-10-08T16:58:34Z</time>
</trkpt>
<trkpt lat="36.7204704284668" lon="-118.4085922241211">
<ele>3536</ele>
<time>2016-10-08T16:58:54Z</time>
</trkpt>
<trkpt lat="36.72043228149414" lon="-118.40856170654297">
<ele>3535</ele>
<time>2016-10-08T16:59:01Z</time>
</trkpt>
<trkpt lat="36.72038650512695" lon="-118.4085693359375">
<ele>3535</ele>
<time>2016-10-08T16:59:08Z</time>
</trkpt>
<trkpt lat="36.720314025878906" lon="-118.4085693359375">
<ele>3536</ele>
<time>2016-10-08T16:59:39Z</time>
</trkpt>
<trkpt lat="36.720272064208984" lon="-118.4085464477539">
<ele>3536</ele>
<time>2016-10-08T16:59:45Z</time>
</trkpt>
<trkpt lat="36.7202262878418" lon="-118.4085464477539">
<ele>3538</ele>
<time>2016-10-08T16:59:54Z</time>
</trkpt>
<trkpt lat="36.720176696777344" lon="-118.4085464477539">
<ele>3541</ele>
<time>2016-10-08T17:00:04Z</time>
</trkpt>
<trkpt lat="36.720096588134766" lon="-118.4085464477539">
<ele>3553</ele>
<time>2016-10-08T17:00:43Z</time>
</trkpt>
<trkpt lat="36.72004699707031" lon="-118.4085464477539">
<ele>3554</ele>
<time>2016-10-08T17:00:56Z</time>
</trkpt>
<trkpt lat="36.71998977661133" lon="-118.40853118896484">
<ele>3553</ele>
<time>2016-10-08T17:01:02Z</time>
</trkpt>
<trkpt lat="36.71994400024414" lon="-118.4085693359375">
<ele>3549</ele>
<time>2016-10-08T17:01:27Z</time>
</trkpt>
<trkpt lat="36.71990203857422" lon="-118.40853881835938">
<ele>3554</ele>
<time>2016-10-08T17:01:51Z</time>
</trkpt>
<trkpt lat="36.71985626220703" lon="-118.40855407714844">
<ele>3556</ele>
<time>2016-10-08T17:02:07Z</time>
</trkpt>
<trkpt lat="36.71981430053711" lon="-118.4085922241211">
<ele>3553</ele>
<time>2016-10-08T17:02:21Z</time>
</trkpt>
<trkpt lat="36.71976852416992" lon="-118.40860748291016">
<ele>3553</ele>
<time>2016-10-08T17:02:29Z</time>
</trkpt>
<trkpt lat="36.71971893310547" lon="-118.40860748291016">
<ele>3556</ele>
<time>2016-10-08T17:02:44Z</time>
</trkpt>
<trkpt lat="36.71968078613281" lon="-118.4085693359375">
<ele>3554</ele>
<time>2016-10-08T17:02:53Z</time>
</trkpt>
<trkpt lat="36.719635009765625" lon="-118.40856170654297">
<ele>3557</ele>
<time>2016-10-08T17:03:02Z</time>
</trkpt>
<trkpt lat="36.71958923339844" lon="-118.40852355957031">
<ele>3561</ele>
<time>2016-10-08T17:03:14Z</time>
</trkpt>
<trkpt lat="36.719539642333984" lon="-118.40850830078125">
<ele>3561</ele>
<time>2016-10-08T17:03:24Z</time>
</trkpt>
<trkpt lat="36.71951675415039" lon="-118.40845489501953">
<ele>3564</ele>
<time>2016-10-08T17:03:30Z</time>
</trkpt>
<trkpt lat="36.71949768066406" lon="-118.40850830078125">
<ele>3565</ele>
<time>2016-10-08T17:04:01Z</time>
</trkpt>
<trkpt lat="36.71944808959961" lon="-118.40850830078125">
<ele>3566</ele>
<time>2016-10-08T17:04:09Z</time>
</trkpt>
<trkpt lat="36.719383239746094" lon="-118.40849304199219">
<ele>3574</ele>
<time>2016-10-08T17:04:36Z</time>
</trkpt>
<trkpt lat="36.719329833984375" lon="-118.40846252441406">
<ele>3579</ele>
<time>2016-10-08T17:04:50Z</time>
</trkpt>
<trkpt lat="36.71929931640625" lon="-118.40841674804688">
<ele>3579</ele>
<time>2016-10-08T17:05:03Z</time>
</trkpt>
<trkpt lat="36.71922302246094" lon="-118.40838623046875">
<ele>3587</ele>
<time>2016-10-08T17:05:29Z</time>
</trkpt>
<trkpt lat="36.719207763671875" lon="-118.40833282470703">
<ele>3581</ele>
<time>2016-10-08T17:06:06Z</time>
</trkpt>
<trkpt lat="36.71916580200195" lon="-118.40837097167969">
<ele>3579</ele>
<time>2016-10-08T17:06:26Z</time>
</trkpt>
<trkpt lat="36.719093322753906" lon="-118.40843200683594">
<ele>3580</ele>
<time>2016-10-08T17:06:39Z</time>
</trkpt>
<trkpt lat="36.71904754638672" lon="-118.40846252441406">
<ele>3581</ele>
<time>2016-10-08T17:06:45Z</time>
</trkpt>
<trkpt lat="36.71900177001953" lon="-118.40843963623047">
<ele>3581</ele>
<time>2016-10-08T17:06:51Z</time>
</trkpt>
<trkpt lat="36.718955993652344" lon="-118.4084243774414">
<ele>3585</ele>
<time>2016-10-08T17:06:59Z</time>
</trkpt>
<trkpt lat="36.71892166137695" lon="-118.40838623046875">
<ele>3588</ele>
<time>2016-10-08T17:07:14Z</time>
</trkpt>
<trkpt lat="36.718875885009766" lon="-118.40838623046875">
<ele>3591</ele>
<time>2016-10-08T17:07:33Z</time>
</trkpt>
<trkpt lat="36.71883010864258" lon="-118.40837097167969">
<ele>3588</ele>
<time>2016-10-08T17:07:40Z</time>
</trkpt>
<trkpt lat="36.71879577636719" lon="-118.40841674804688">
<ele>3586</ele>
<time>2016-10-08T17:07:47Z</time>
</trkpt>
<trkpt lat="36.71875" lon="-118.40843963623047">
<ele>3585</ele>
<time>2016-10-08T17:07:56Z</time>
</trkpt>
<trkpt lat="36.71870040893555" lon="-118.40843200683594">
<ele>3581</ele>
<time>2016-10-08T17:08:02Z</time>
</trkpt>
<trkpt lat="36.718631744384766" lon="-118.40843200683594">
<ele>3585</ele>
<time>2016-10-08T17:08:22Z</time>
</trkpt>
<trkpt lat="36.718589782714844" lon="-118.40840148925781">
<ele>3586</ele>
<time>2016-10-08T17:08:30Z</time>
</trkpt>
<trkpt lat="36.71854019165039" lon="-118.4084243774414">
<ele>3583</ele>
<time>2016-10-08T17:08:39Z</time>
</trkpt>
<trkpt lat="36.71857452392578" lon="-118.40838623046875">
<ele>3588</ele>
<time>2016-10-08T17:08:47Z</time>
</trkpt>
<trkpt lat="36.71852493286133" lon="-118.40839385986328">
<ele>3591</ele>
<time>2016-10-08T17:09:01Z</time>
</trkpt>
<trkpt lat="36.71847915649414" lon="-118.4084243774414">
<ele>3598</ele>
<time>2016-10-08T17:09:26Z</time>
</trkpt>
<trkpt lat="36.718448638916016" lon="-118.4084701538086">
<ele>3599</ele>
<time>2016-10-08T17:09:38Z</time>
</trkpt>
<trkpt lat="36.71840286254883" lon="-118.40850067138672">
<ele>3597</ele>
<time>2016-10-08T17:09:49Z</time>
</trkpt>
<trkpt lat="36.71835708618164" lon="-118.40853118896484">
<ele>3598</ele>
<time>2016-10-08T17:10:04Z</time>
</trkpt>
<trkpt lat="36.71831130981445" lon="-118.40853881835938">
<ele>3597</ele>
<time>2016-10-08T17:10:11Z</time>
</trkpt>
<trkpt lat="36.71825408935547" lon="-118.4085693359375">
<ele>3606</ele>
<time>2016-10-08T17:10:45Z</time>
</trkpt>
<trkpt lat="36.71816635131836" lon="-118.40855407714844">
<ele>3605</ele>
<time>2016-10-08T17:11:04Z</time>
</trkpt>
<trkpt lat="36.718116760253906" lon="-118.40856170654297">
<ele>3609</ele>
<time>2016-10-08T17:11:12Z</time>
</trkpt>
<trkpt lat="36.71807098388672" lon="-118.40859985351563">
<ele>3611</ele>
<time>2016-10-08T17:11:43Z</time>
</trkpt>
<trkpt lat="36.71802520751953" lon="-118.40860748291016">
<ele>3610</ele>
<time>2016-10-08T17:11:49Z</time>
</trkpt>
<trkpt lat="36.71797180175781" lon="-118.40858459472656">
<ele>3608</ele>
<time>2016-10-08T17:11:59Z</time>
</trkpt>
<trkpt lat="36.718021392822266" lon="-118.40860748291016">
<ele>3614</ele>
<time>2016-10-08T17:12:47Z</time>
</trkpt>
<trkpt lat="36.717987060546875" lon="-118.4085693359375">
<ele>3616</ele>
<time>2016-10-08T17:13:05Z</time>
</trkpt>
<trkpt lat="36.71792984008789" lon="-118.4085693359375">
<ele>3608</ele>
<time>2016-10-08T17:16:14Z</time>
</trkpt>
<trkpt lat="36.717979431152344" lon="-118.4085693359375">
<ele>3608</ele>
<time>2016-10-08T17:16:24Z</time>
</trkpt>
</trkseg>
</trk>
<trk>
<name><![CDATA[10081022]]></name>
<number>20</number>
<extensions><topografix:color>ff000066</topografix:color></extensions>
<trkseg>
<trkpt lat="36.71797180175781" lon="-118.4085464477539">
<ele>3621</ele>
<time>2016-10-08T17:22:25Z</time>
</trkpt>
<trkpt lat="36.717926025390625" lon="-118.4085693359375">
<ele>3617</ele>
<time>2016-10-08T17:22:56Z</time>
</trkpt>
<trkpt lat="36.71788787841797" lon="-118.40860748291016">
<ele>3617</ele>
<time>2016-10-08T17:23:03Z</time>
</trkpt>
<trkpt lat="36.717864990234375" lon="-118.40866088867188">
<ele>3614</ele>
<time>2016-10-08T17:23:20Z</time>
</trkpt>
<trkpt lat="36.717857360839844" lon="-118.4087142944336">
<ele>3614</ele>
<time>2016-10-08T17:23:29Z</time>
</trkpt>
<trkpt lat="36.71788024902344" lon="-118.40876770019531">
<ele>3614</ele>
<time>2016-10-08T17:23:41Z</time>
</trkpt>
<trkpt lat="36.717857360839844" lon="-118.40882110595703">
<ele>3615</ele>
<time>2016-10-08T17:23:49Z</time>
</trkpt>
<trkpt lat="36.71782302856445" lon="-118.40885925292969">
<ele>3616</ele>
<time>2016-10-08T17:23:56Z</time>
</trkpt>
<trkpt lat="36.71778106689453" lon="-118.40882873535156">
<ele>3614</ele>
<time>2016-10-08T17:24:05Z</time>
</trkpt>
<trkpt lat="36.717735290527344" lon="-118.40882873535156">
<ele>3614</ele>
<time>2016-10-08T17:24:17Z</time>
</trkpt>
<trkpt lat="36.71775436401367" lon="-118.40888214111328">
<ele>3615</ele>
<time>2016-10-08T17:24:26Z</time>
</trkpt>
<trkpt lat="36.717769622802734" lon="-118.40894317626953">
<ele>3616</ele>
<time>2016-10-08T17:24:39Z</time>
</trkpt>
<trkpt lat="36.71774673461914" lon="-118.40899658203125">
<ele>3616</ele>
<time>2016-10-08T17:24:49Z</time>
</trkpt>
<trkpt lat="36.71772384643555" lon="-118.40904235839844">
<ele>3615</ele>
<time>2016-10-08T17:25:02Z</time>
</trkpt>
<trkpt lat="36.717681884765625" lon="-118.40907287597656">
<ele>3615</ele>
<time>2016-10-08T17:25:16Z</time>
</trkpt>
<trkpt lat="36.71764373779297" lon="-118.40910339355469">
<ele>3620</ele>
<time>2016-10-08T17:25:34Z</time>
</trkpt>
<trkpt lat="36.71761703491211" lon="-118.4091567993164">
<ele>3619</ele>
<time>2016-10-08T17:25:42Z</time>
</trkpt>
<trkpt lat="36.71757888793945" lon="-118.40919494628906">
<ele>3623</ele>
<time>2016-10-08T17:26:07Z</time>
</trkpt>
<trkpt lat="36.717529296875" lon="-118.40921020507813">
<ele>3627</ele>
<time>2016-10-08T17:26:16Z</time>
</trkpt>
<trkpt lat="36.717552185058594" lon="-118.40926361083984">
<ele>3621</ele>
<time>2016-10-08T17:26:34Z</time>
</trkpt>
<trkpt lat="36.71751403808594" lon="-118.40929412841797">
<ele>3621</ele>
<time>2016-10-08T17:26:45Z</time>
</trkpt>
<trkpt lat="36.717464447021484" lon="-118.40929412841797">
<ele>3622</ele>
<time>2016-10-08T17:26:54Z</time>
</trkpt>
<trkpt lat="36.71742248535156" lon="-118.40931701660156">
<ele>3628</ele>
<time>2016-10-08T17:27:02Z</time>
</trkpt>
<trkpt lat="36.71737289428711" lon="-118.40933990478516">
<ele>3629</ele>
<time>2016-10-08T17:27:18Z</time>
</trkpt>
<trkpt lat="36.717288970947266" lon="-118.40935516357422">
<ele>3628</ele>
<time>2016-10-08T17:27:31Z</time>
</trkpt>
<trkpt lat="36.71724319458008" lon="-118.40935516357422">
<ele>3626</ele>
<time>2016-10-08T17:27:46Z</time>
</trkpt>
<trkpt lat="36.717220306396484" lon="-118.40940856933594">
<ele>3641</ele>
<time>2016-10-08T17:28:10Z</time>
</trkpt>
<trkpt lat="36.7171516418457" lon="-118.409423828125">
<ele>3642</ele>
<time>2016-10-08T17:28:34Z</time>
</trkpt>
<trkpt lat="36.717105865478516" lon="-118.40940856933594">
<ele>3644</ele>
<time>2016-10-08T17:28:43Z</time>
</trkpt>
<trkpt lat="36.71708297729492" lon="-118.40946197509766">
<ele>3646</ele>
<time>2016-10-08T17:29:05Z</time>
</trkpt>
<trkpt lat="36.71702575683594" lon="-118.40953826904297">
<ele>3656</ele>
<time>2016-10-08T17:29:38Z</time>
</trkpt>
<trkpt lat="36.716983795166016" lon="-118.4095687866211">
<ele>3660</ele>
<time>2016-10-08T17:29:51Z</time>
</trkpt>
<trkpt lat="36.716957092285156" lon="-118.40961456298828">
<ele>3661</ele>
<time>2016-10-08T17:29:58Z</time>
</trkpt>
<trkpt lat="36.716922760009766" lon="-118.40968322753906">
<ele>3662</ele>
<time>2016-10-08T17:30:34Z</time>
</trkpt>
<trkpt lat="36.716888427734375" lon="-118.40972900390625">
<ele>3661</ele>
<time>2016-10-08T17:30:42Z</time>
</trkpt>
<trkpt lat="36.71684646606445" lon="-118.40974426269531">
<ele>3660</ele>
<time>2016-10-08T17:30:48Z</time>
</trkpt>
<trkpt lat="36.716796875" lon="-118.40974426269531">
<ele>3662</ele>
<time>2016-10-08T17:30:54Z</time>
</trkpt>
<trkpt lat="36.716766357421875" lon="-118.40978240966797">
<ele>3660</ele>
<time>2016-10-08T17:31:14Z</time>
</trkpt>
<trkpt lat="36.716678619384766" lon="-118.40982818603516">
<ele>3662</ele>
<time>2016-10-08T17:31:31Z</time>
</trkpt>
<trkpt lat="36.71662902832031" lon="-118.40982818603516">
<ele>3667</ele>
<time>2016-10-08T17:31:54Z</time>
</trkpt>
<trkpt lat="36.71659469604492" lon="-118.40978240966797">
<ele>3670</ele>
<time>2016-10-08T17:32:21Z</time>
</trkpt>
<trkpt lat="36.71656799316406" lon="-118.40984344482422">
<ele>3661</ele>
<time>2016-10-08T17:32:52Z</time>
</trkpt>
<trkpt lat="36.716552734375" lon="-118.40990447998047">
<ele>3660</ele>
<time>2016-10-08T17:33:00Z</time>
</trkpt>
<trkpt lat="36.71648406982422" lon="-118.40997314453125">
<ele>3661</ele>
<time>2016-10-08T17:33:53Z</time>
</trkpt>
<trkpt lat="36.7164421081543" lon="-118.41000366210938">
<ele>3666</ele>
<time>2016-10-08T17:34:12Z</time>
</trkpt>
<trkpt lat="36.716392517089844" lon="-118.41004943847656">
<ele>3674</ele>
<time>2016-10-08T17:34:54Z</time>
</trkpt>
<trkpt lat="36.71635055541992" lon="-118.4100341796875">
<ele>3687</ele>
<time>2016-10-08T17:35:24Z</time>
</trkpt>
<trkpt lat="36.71630859375" lon="-118.41006469726563">
<ele>3691</ele>
<time>2016-10-08T17:35:37Z</time>
</trkpt>
<trkpt lat="36.71629333496094" lon="-118.41011810302734">
<ele>3697</ele>
<time>2016-10-08T17:35:49Z</time>
</trkpt>
<trkpt lat="36.71626663208008" lon="-118.41017150878906">
<ele>3706</ele>
<time>2016-10-08T17:36:23Z</time>
</trkpt>
<trkpt lat="36.71624755859375" lon="-118.4102554321289">
<ele>3709</ele>
<time>2016-10-08T17:36:36Z</time>
</trkpt>
<trkpt lat="36.71620559692383" lon="-118.4102783203125">
<ele>3711</ele>
<time>2016-10-08T17:36:49Z</time>
</trkpt>
<trkpt lat="36.716148376464844" lon="-118.41036224365234">
<ele>3731</ele>
<time>2016-10-08T17:38:41Z</time>
</trkpt>
<trkpt lat="36.716102600097656" lon="-118.4103775024414">
<ele>3734</ele>
<time>2016-10-08T17:39:06Z</time>
</trkpt>
<trkpt lat="36.71605682373047" lon="-118.41035461425781">
<ele>3735</ele>
<time>2016-10-08T17:39:15Z</time>
</trkpt>
<trkpt lat="36.715980529785156" lon="-118.41040802001953">
<ele>3738</ele>
<time>2016-10-08T17:39:47Z</time>
</trkpt>
<trkpt lat="36.715938568115234" lon="-118.41043090820313">
<ele>3740</ele>
<time>2016-10-08T17:40:06Z</time>
</trkpt>
<trkpt lat="36.71588134765625" lon="-118.41036224365234">
<ele>3742</ele>
<time>2016-10-08T17:40:43Z</time>
</trkpt>
<trkpt lat="36.71585464477539" lon="-118.41031646728516">
<ele>3738</ele>
<time>2016-10-08T17:41:18Z</time>
</trkpt>
<trkpt lat="36.71579360961914" lon="-118.41024780273438">
<ele>3749</ele>
<time>2016-10-08T17:41:50Z</time>
</trkpt>
<trkpt lat="36.71573257446289" lon="-118.41031646728516">
<ele>3752</ele>
<time>2016-10-08T17:42:44Z</time>
</trkpt>
<trkpt lat="36.7156867980957" lon="-118.41032409667969">
<ele>3756</ele>
<time>2016-10-08T17:42:57Z</time>
</trkpt>
<trkpt lat="36.71561813354492" lon="-118.41035461425781">
<ele>3765</ele>
<time>2016-10-08T17:43:45Z</time>
</trkpt>
<trkpt lat="36.71555709838867" lon="-118.41034698486328">
<ele>3768</ele>
<time>2016-10-08T17:44:38Z</time>
</trkpt>
<trkpt lat="36.715511322021484" lon="-118.41033172607422">
<ele>3764</ele>
<time>2016-10-08T17:44:45Z</time>
</trkpt>
<trkpt lat="36.71546936035156" lon="-118.41029357910156">
<ele>3762</ele>
<time>2016-10-08T17:46:25Z</time>
</trkpt>
<trkpt lat="36.7154655456543" lon="-118.41034698486328">
<ele>3765</ele>
<time>2016-10-08T17:47:15Z</time>
</trkpt>
<trkpt lat="36.71540832519531" lon="-118.41041564941406">
<ele>3772</ele>
<time>2016-10-08T17:47:54Z</time>
</trkpt>
<trkpt lat="36.715362548828125" lon="-118.41047668457031">
<ele>3793</ele>
<time>2016-10-08T17:49:22Z</time>
</trkpt>
<trkpt lat="36.71529006958008" lon="-118.41040802001953">
<ele>3798</ele>
<time>2016-10-08T17:50:05Z</time>
</trkpt>
<trkpt lat="36.71525955200195" lon="-118.41036987304688">
<ele>3800</ele>
<time>2016-10-08T17:50:12Z</time>
</trkpt>
<trkpt lat="36.71526336669922" lon="-118.41029357910156">
<ele>3807</ele>
<time>2016-10-08T17:50:52Z</time>
</trkpt>
<trkpt lat="36.71527099609375" lon="-118.41020202636719">
<ele>3812</ele>
<time>2016-10-08T17:51:35Z</time>
</trkpt>
<trkpt lat="36.71531295776367" lon="-118.41020202636719">
<ele>3813</ele>
<time>2016-10-08T17:51:41Z</time>
</trkpt>
<trkpt lat="36.715309143066406" lon="-118.41014862060547">
<ele>3822</ele>
<time>2016-10-08T17:52:20Z</time>
</trkpt>
<trkpt lat="36.71525192260742" lon="-118.41011047363281">
<ele>3814</ele>
<time>2016-10-08T17:52:40Z</time>
</trkpt>
<trkpt lat="36.715206146240234" lon="-118.41009521484375">
<ele>3814</ele>
<time>2016-10-08T17:53:07Z</time>
</trkpt>
<trkpt lat="36.71515655517578" lon="-118.41007995605469">
<ele>3816</ele>
<time>2016-10-08T17:53:46Z</time>
</trkpt>
<trkpt lat="36.71508026123047" lon="-118.41008758544922">
<ele>3810</ele>
<time>2016-10-08T17:54:40Z</time>
</trkpt>
<trkpt lat="36.715049743652344" lon="-118.4101333618164">
<ele>3813</ele>
<time>2016-10-08T17:54:57Z</time>
</trkpt>
<trkpt lat="36.71506881713867" lon="-118.4101791381836">
<ele>3814</ele>
<time>2016-10-08T17:55:20Z</time>
</trkpt>
<trkpt lat="36.71499252319336" lon="-118.41016387939453">
<ele>3815</ele>
<time>2016-10-08T17:55:38Z</time>
</trkpt>
<trkpt lat="36.714942932128906" lon="-118.41018676757813">
<ele>3824</ele>
<time>2016-10-08T17:56:46Z</time>
</trkpt>
<trkpt lat="36.714962005615234" lon="-118.41024017333984">
<ele>3830</ele>
<time>2016-10-08T17:57:17Z</time>
</trkpt>
<trkpt lat="36.71490478515625" lon="-118.41031646728516">
<ele>3830</ele>
<time>2016-10-08T17:58:02Z</time>
</trkpt>
<trkpt lat="36.7148323059082" lon="-118.41033172607422">
<ele>3835</ele>
<time>2016-10-08T17:58:59Z</time>
</trkpt>
<trkpt lat="36.71477127075195" lon="-118.410400390625">
<ele>3841</ele>
<time>2016-10-08T17:59:59Z</time>
</trkpt>
<trkpt lat="36.71472930908203" lon="-118.4104232788086">
<ele>3843</ele>
<time>2016-10-08T18:00:17Z</time>
</trkpt>
<trkpt lat="36.71468734741211" lon="-118.41044616699219">
<ele>3847</ele>
<time>2016-10-08T18:01:18Z</time>
</trkpt>
<trkpt lat="36.71467208862305" lon="-118.41053771972656">
<ele>3850</ele>
<time>2016-10-08T18:01:55Z</time>
</trkpt>
<trkpt lat="36.714622497558594" lon="-118.41053771972656">
<ele>3859</ele>
<time>2016-10-08T18:03:13Z</time>
</trkpt>
<trkpt lat="36.71459197998047" lon="-118.4106216430664">
<ele>3866</ele>
<time>2016-10-08T18:03:47Z</time>
</trkpt>
<trkpt lat="36.71455383300781" lon="-118.41065216064453">
<ele>3873</ele>
<time>2016-10-08T18:04:19Z</time>
</trkpt>
<trkpt lat="36.71460723876953" lon="-118.41069793701172">
<ele>3878</ele>
<time>2016-10-08T18:11:50Z</time>
</trkpt>
<trkpt lat="36.71457290649414" lon="-118.41073608398438">
<ele>3881</ele>
<time>2016-10-08T18:12:02Z</time>
</trkpt>
<trkpt lat="36.71461486816406" lon="-118.4107894897461">
<ele>3889</ele>
<time>2016-10-08T18:12:40Z</time>
</trkpt>
<trkpt lat="36.714569091796875" lon="-118.41078186035156">
<ele>3889</ele>
<time>2016-10-08T18:12:59Z</time>
</trkpt>
<trkpt lat="36.71452713012695" lon="-118.4107894897461">
<ele>3888</ele>
<time>2016-10-08T18:13:25Z</time>
</trkpt>
<trkpt lat="36.7144775390625" lon="-118.41079711914063">
<ele>3890</ele>
<time>2016-10-08T18:13:35Z</time>
</trkpt>
<trkpt lat="36.714473724365234" lon="-118.41085815429688">
<ele>3893</ele>
<time>2016-10-08T18:14:08Z</time>
</trkpt>
<trkpt lat="36.714439392089844" lon="-118.41090393066406">
<ele>3901</ele>
<time>2016-10-08T18:15:15Z</time>
</trkpt>
<trkpt lat="36.71443176269531" lon="-118.41100311279297">
<ele>3909</ele>
<time>2016-10-08T18:15:37Z</time>
</trkpt>
<trkpt lat="36.71438980102539" lon="-118.4110107421875">
<ele>3909</ele>
<time>2016-10-08T18:16:15Z</time>
</trkpt>
<trkpt lat="36.714332580566406" lon="-118.41102600097656">
<ele>3915</ele>
<time>2016-10-08T18:17:04Z</time>
</trkpt>
<trkpt lat="36.71428298950195" lon="-118.41105651855469">
<ele>3927</ele>
<time>2016-10-08T18:18:25Z</time>
</trkpt>
<trkpt lat="36.71424102783203" lon="-118.41107940673828">
<ele>3923</ele>
<time>2016-10-08T18:19:01Z</time>
</trkpt>
<trkpt lat="36.71426773071289" lon="-118.41117095947266">
<ele>3929</ele>
<time>2016-10-08T18:19:43Z</time>
</trkpt>
<trkpt lat="36.71427917480469" lon="-118.4112319946289">
<ele>3925</ele>
<time>2016-10-08T18:20:00Z</time>
</trkpt>
<trkpt lat="36.7142219543457" lon="-118.41131591796875">
<ele>3927</ele>
<time>2016-10-08T18:20:47Z</time>
</trkpt>
<trkpt lat="36.71419143676758" lon="-118.41140747070313">
<ele>3947</ele>
<time>2016-10-08T18:22:54Z</time>
</trkpt>
<trkpt lat="36.71417236328125" lon="-118.41146087646484">
<ele>3949</ele>
<time>2016-10-08T18:23:13Z</time>
</trkpt>
<trkpt lat="36.71413040161133" lon="-118.41139221191406">
<ele>3958</ele>
<time>2016-10-08T18:24:20Z</time>
</trkpt>
<trkpt lat="36.71409606933594" lon="-118.41145324707031">
<ele>3962</ele>
<time>2016-10-08T18:24:48Z</time>
</trkpt>
<trkpt lat="36.71405792236328" lon="-118.41149139404297">
<ele>3958</ele>
<time>2016-10-08T18:25:03Z</time>
</trkpt>
<trkpt lat="36.714019775390625" lon="-118.41144561767578">
<ele>3964</ele>
<time>2016-10-08T18:25:25Z</time>
</trkpt>
<trkpt lat="36.713993072509766" lon="-118.41149139404297">
<ele>3961</ele>
<time>2016-10-08T18:25:59Z</time>
</trkpt>
<trkpt lat="36.713932037353516" lon="-118.41156005859375">
<ele>3972</ele>
<time>2016-10-08T18:27:10Z</time>
</trkpt>
<trkpt lat="36.713897705078125" lon="-118.41160583496094">
<ele>3976</ele>
<time>2016-10-08T18:27:18Z</time>
</trkpt>
<trkpt lat="36.71385192871094" lon="-118.41161346435547">
<ele>3977</ele>
<time>2016-10-08T18:27:24Z</time>
</trkpt>
<trkpt lat="36.713863372802734" lon="-118.41152954101563">
<ele>3982</ele>
<time>2016-10-08T18:28:01Z</time>
</trkpt>
<trkpt lat="36.713809967041016" lon="-118.41150665283203">
<ele>3982</ele>
<time>2016-10-08T18:28:37Z</time>
</trkpt>
</trkseg>
</trk>
<trk>
<name><![CDATA[10081129]]></name>
<number>21</number>
<extensions><topografix:color>ff000066</topografix:color></extensions>
<trkseg>
<trkpt lat="36.713844299316406" lon="-118.4115219116211">
<ele>3976</ele>
<time>2016-10-08T18:29:06Z</time>
</trkpt>
<trkpt lat="36.71379470825195" lon="-118.41154479980469">
<ele>3979</ele>
<time>2016-10-08T18:29:43Z</time>
</trkpt>
<trkpt lat="36.7137451171875" lon="-118.41153717041016">
<ele>3980</ele>
<time>2016-10-08T18:29:49Z</time>
</trkpt>
<trkpt lat="36.71369934082031" lon="-118.41151428222656">
<ele>3980</ele>
<time>2016-10-08T18:30:05Z</time>
</trkpt>
<trkpt lat="36.71365737915039" lon="-118.41153717041016">
<ele>3978</ele>
<time>2016-10-08T18:30:18Z</time>
</trkpt>
<trkpt lat="36.71360778808594" lon="-118.41152954101563">
<ele>3978</ele>
<time>2016-10-08T18:30:24Z</time>
</trkpt>
<trkpt lat="36.713565826416016" lon="-118.41148376464844">
<ele>3979</ele>
<time>2016-10-08T18:30:32Z</time>
</trkpt>
<trkpt lat="36.71352005004883" lon="-118.41146850585938">
<ele>3977</ele>
<time>2016-10-08T18:31:00Z</time>
</trkpt>
<trkpt lat="36.713497161865234" lon="-118.41141510009766">
<ele>3980</ele>
<time>2016-10-08T18:31:06Z</time>
</trkpt>
<trkpt lat="36.7134895324707" lon="-118.4113540649414">
<ele>3973</ele>
<time>2016-10-08T18:31:43Z</time>
</trkpt>
<trkpt lat="36.71344757080078" lon="-118.41133880615234">
<ele>3973</ele>
<time>2016-10-08T18:31:53Z</time>
</trkpt>
<trkpt lat="36.71340560913086" lon="-118.41130828857422">
<ele>3967</ele>
<time>2016-10-08T18:32:11Z</time>
</trkpt>
<trkpt lat="36.713401794433594" lon="-118.41123962402344">
<ele>3964</ele>
<time>2016-10-08T18:32:41Z</time>
</trkpt>
<trkpt lat="36.71338653564453" lon="-118.41118621826172">
<ele>3964</ele>
<time>2016-10-08T18:32:54Z</time>
</trkpt>
<trkpt lat="36.71338653564453" lon="-118.4111328125">
<ele>3966</ele>
<time>2016-10-08T18:33:08Z</time>
</trkpt>
<trkpt lat="36.713375091552734" lon="-118.41107177734375">
<ele>3967</ele>
<time>2016-10-08T18:33:36Z</time>
</trkpt>
<trkpt lat="36.713409423828125" lon="-118.41098022460938">
<ele>3974</ele>
<time>2016-10-08T18:34:35Z</time>
</trkpt>
<trkpt lat="36.713417053222656" lon="-118.41091918945313">
<ele>3976</ele>
<time>2016-10-08T18:34:45Z</time>
</trkpt>
<trkpt lat="36.71338653564453" lon="-118.41088104248047">
<ele>3983</ele>
<time>2016-10-08T18:35:22Z</time>
</trkpt>
<trkpt lat="36.71340560913086" lon="-118.41082763671875">
<ele>3984</ele>
<time>2016-10-08T18:35:39Z</time>
</trkpt>
<trkpt lat="36.713321685791016" lon="-118.41082763671875">
<ele>3988</ele>
<time>2016-10-08T18:36:28Z</time>
</trkpt>
<trkpt lat="36.713294982910156" lon="-118.41077423095703">
<ele>3989</ele>
<time>2016-10-08T18:36:55Z</time>
</trkpt>
<trkpt lat="36.71329879760742" lon="-118.41071319580078">
<ele>3989</ele>
<time>2016-10-08T18:37:01Z</time>
</trkpt>
<trkpt lat="36.71330261230469" lon="-118.4106216430664">
<ele>3995</ele>
<time>2016-10-08T18:37:18Z</time>
</trkpt>
<trkpt lat="36.713314056396484" lon="-118.41056060791016">
<ele>3994</ele>
<time>2016-10-08T18:37:37Z</time>
</trkpt>
<trkpt lat="36.713321685791016" lon="-118.41045379638672">
<ele>4003</ele>
<time>2016-10-08T18:38:30Z</time>
</trkpt>
<trkpt lat="36.71330642700195" lon="-118.41039276123047">
<ele>4000</ele>
<time>2016-10-08T18:38:45Z</time>
</trkpt>
<trkpt lat="36.71323776245117" lon="-118.4104232788086">
<ele>4009</ele>
<time>2016-10-08T18:39:50Z</time>
</trkpt>
<trkpt lat="36.71318435668945" lon="-118.4104232788086">
<ele>4014</ele>
<time>2016-10-08T18:40:31Z</time>
</trkpt>
<trkpt lat="36.71315383911133" lon="-118.41046905517578">
<ele>4017</ele>
<time>2016-10-08T18:44:06Z</time>
</trkpt>
<trkpt lat="36.713172912597656" lon="-118.41041564941406">
<ele>4017</ele>
<time>2016-10-08T18:44:49Z</time>
</trkpt>
<trkpt lat="36.71318435668945" lon="-118.41047668457031">
<ele>4019</ele>
<time>2016-10-08T18:44:59Z</time>
</trkpt>
<trkpt lat="36.713138580322266" lon="-118.41045379638672">
<ele>4021</ele>
<time>2016-10-08T18:46:06Z</time>
</trkpt>
<trkpt lat="36.713172912597656" lon="-118.4104232788086">
<ele>4020</ele>
<time>2016-10-08T18:47:00Z</time>
</trkpt>
<trkpt lat="36.7132453918457" lon="-118.41039276123047">
<ele>4004</ele>
<time>2016-10-08T18:50:35Z</time>
</trkpt>
<trkpt lat="36.713287353515625" lon="-118.41041564941406">
<ele>3998</ele>
<time>2016-10-08T18:51:04Z</time>
</trkpt>
</trkseg>
</trk>
<trk>
<name><![CDATA[10081151]]></name>
<number>22</number>
<extensions><topografix:color>ff000066</topografix:color></extensions>
<trkseg>
<trkpt lat="36.713279724121094" lon="-118.4104232788086">
<ele>3998</ele>
<time>2016-10-08T18:51:21Z</time>
</trkpt>
<trkpt lat="36.71332550048828" lon="-118.41043090820313">
<ele>4002</ele>
<time>2016-10-08T18:51:40Z</time>
</trkpt>
<trkpt lat="36.71331787109375" lon="-118.41048431396484">
<ele>3998</ele>
<time>2016-10-08T18:52:10Z</time>
</trkpt>
<trkpt lat="36.71331787109375" lon="-118.4105453491211">
<ele>3996</ele>
<time>2016-10-08T18:52:17Z</time>
</trkpt>
<trkpt lat="36.71330642700195" lon="-118.41060638427734">
<ele>3998</ele>
<time>2016-10-08T18:52:24Z</time>
</trkpt>
<trkpt lat="36.713314056396484" lon="-118.4106674194336">
<ele>3994</ele>
<time>2016-10-08T18:53:00Z</time>
</trkpt>
<trkpt lat="36.713279724121094" lon="-118.41077423095703">
<ele>3991</ele>
<time>2016-10-08T18:53:10Z</time>
</trkpt>
<trkpt lat="36.713314056396484" lon="-118.41082763671875">
<ele>3991</ele>
<time>2016-10-08T18:53:16Z</time>
</trkpt>
<trkpt lat="36.71335983276367" lon="-118.41085052490234">
<ele>3991</ele>
<time>2016-10-08T18:53:37Z</time>
</trkpt>
<trkpt lat="36.71339416503906" lon="-118.410888671875">
<ele>3988</ele>
<time>2016-10-08T18:53:53Z</time>
</trkpt>
<trkpt lat="36.71337127685547" lon="-118.41093444824219">
<ele>3983</ele>
<time>2016-10-08T18:54:08Z</time>
</trkpt>
<trkpt lat="36.71339416503906" lon="-118.41098022460938">
<ele>3973</ele>
<time>2016-10-08T18:54:55Z</time>
</trkpt>
<trkpt lat="36.71337127685547" lon="-118.41104125976563">
<ele>3972</ele>
<time>2016-10-08T18:55:25Z</time>
</trkpt>
<trkpt lat="36.71337127685547" lon="-118.41109466552734">
<ele>3973</ele>
<time>2016-10-08T18:55:38Z</time>
</trkpt>
<trkpt lat="36.71336364746094" lon="-118.4111557006836">
<ele>3967</ele>
<time>2016-10-08T18:55:59Z</time>
</trkpt>
<trkpt lat="36.713382720947266" lon="-118.41121673583984">
<ele>3964</ele>
<time>2016-10-08T18:56:05Z</time>
</trkpt>
<trkpt lat="36.713436126708984" lon="-118.41131591796875">
<ele>3960</ele>
<time>2016-10-08T18:56:18Z</time>
</trkpt>
<trkpt lat="36.71346664428711" lon="-118.41139221191406">
<ele>3967</ele>
<time>2016-10-08T18:56:53Z</time>
</trkpt>
<trkpt lat="36.71351623535156" lon="-118.41149139404297">
<ele>3965</ele>
<time>2016-10-08T18:57:04Z</time>
</trkpt>
<trkpt lat="36.713600158691406" lon="-118.41152954101563">
<ele>3975</ele>
<time>2016-10-08T18:58:33Z</time>
</trkpt>
<trkpt lat="36.713653564453125" lon="-118.41151428222656">
<ele>3976</ele>
<time>2016-10-08T18:58:44Z</time>
</trkpt>
<trkpt lat="36.71372985839844" lon="-118.4115219116211">
<ele>3977</ele>
<time>2016-10-08T18:58:55Z</time>
</trkpt>
<trkpt lat="36.71381759643555" lon="-118.41153717041016">
<ele>3986</ele>
<time>2016-10-08T18:59:46Z</time>
</trkpt>
<trkpt lat="36.7138671875" lon="-118.41153717041016">
<ele>3986</ele>
<time>2016-10-08T19:00:02Z</time>
</trkpt>
<trkpt lat="36.71390914916992" lon="-118.41156005859375">
<ele>3981</ele>
<time>2016-10-08T19:00:56Z</time>
</trkpt>
<trkpt lat="36.713958740234375" lon="-118.41162872314453">
<ele>3973</ele>
<time>2016-10-08T19:01:32Z</time>
</trkpt>
<trkpt lat="36.71400451660156" lon="-118.41162872314453">
<ele>3969</ele>
<time>2016-10-08T19:01:51Z</time>
</trkpt>
<trkpt lat="36.714027404785156" lon="-118.41158294677734">
<ele>3970</ele>
<time>2016-10-08T19:02:02Z</time>
</trkpt>
<trkpt lat="36.71404266357422" lon="-118.4115219116211">
<ele>3967</ele>
<time>2016-10-08T19:02:16Z</time>
</trkpt>
<trkpt lat="36.71406555175781" lon="-118.41146850585938">
<ele>3964</ele>
<time>2016-10-08T19:02:46Z</time>
</trkpt>
<trkpt lat="36.71409225463867" lon="-118.41141510009766">
<ele>3956</ele>
<time>2016-10-08T19:03:15Z</time>
</trkpt>
<trkpt lat="36.71408462524414" lon="-118.41136169433594">
<ele>3955</ele>
<time>2016-10-08T19:03:41Z</time>
</trkpt>
<trkpt lat="36.71409606933594" lon="-118.41129302978516">
<ele>3951</ele>
<time>2016-10-08T19:05:06Z</time>
</trkpt>
<trkpt lat="36.71404266357422" lon="-118.41127014160156">
<ele>3945</ele>
<time>2016-10-08T19:05:49Z</time>
</trkpt>
<trkpt lat="36.71409225463867" lon="-118.4112777709961">
<ele>3945</ele>
<time>2016-10-08T19:05:56Z</time>
</trkpt>
<trkpt lat="36.714149475097656" lon="-118.41126251220703">
<ele>3940</ele>
<time>2016-10-08T19:06:36Z</time>
</trkpt>
<trkpt lat="36.7141227722168" lon="-118.41121673583984">
<ele>3936</ele>
<time>2016-10-08T19:07:04Z</time>
</trkpt>
<trkpt lat="36.71416473388672" lon="-118.41120147705078">
<ele>3934</ele>
<time>2016-10-08T19:07:16Z</time>
</trkpt>
<trkpt lat="36.714202880859375" lon="-118.41117095947266">
<ele>3923</ele>
<time>2016-10-08T19:07:53Z</time>
</trkpt>
<trkpt lat="36.7142333984375" lon="-118.41120910644531">
<ele>3923</ele>
<time>2016-10-08T19:08:01Z</time>
</trkpt>
<trkpt lat="36.7142448425293" lon="-118.4111557006836">
<ele>3919</ele>
<time>2016-10-08T19:08:19Z</time>
</trkpt>
<trkpt lat="36.71427536010742" lon="-118.41105651855469">
<ele>3919</ele>
<time>2016-10-08T19:08:25Z</time>
</trkpt>
<trkpt lat="36.71430969238281" lon="-118.41110229492188">
<ele>3918</ele>
<time>2016-10-08T19:08:43Z</time>
</trkpt>
<trkpt lat="36.71435546875" lon="-118.41109466552734">
<ele>3913</ele>
<time>2016-10-08T19:09:11Z</time>
</trkpt>
<trkpt lat="36.71438980102539" lon="-118.41102600097656">
<ele>3911</ele>
<time>2016-10-08T19:09:35Z</time>
</trkpt>
<trkpt lat="36.714359283447266" lon="-118.41098022460938">
<ele>3906</ele>
<time>2016-10-08T19:10:01Z</time>
</trkpt>
<trkpt lat="36.714324951171875" lon="-118.41090393066406">
<ele>3904</ele>
<time>2016-10-08T19:10:14Z</time>
</trkpt>
<trkpt lat="36.714359283447266" lon="-118.41085815429688">
<ele>3902</ele>
<time>2016-10-08T19:10:21Z</time>
</trkpt>
<trkpt lat="36.714385986328125" lon="-118.41090393066406">
<ele>3900</ele>
<time>2016-10-08T19:10:45Z</time>
</trkpt>
<trkpt lat="36.71440887451172" lon="-118.41085052490234">
<ele>3896</ele>
<time>2016-10-08T19:11:01Z</time>
</trkpt>
<trkpt lat="36.714351654052734" lon="-118.41082763671875">
<ele>3896</ele>
<time>2016-10-08T19:11:37Z</time>
</trkpt>
<trkpt lat="36.71439743041992" lon="-118.41081237792969">
<ele>3892</ele>
<time>2016-10-08T19:12:02Z</time>
</trkpt>
<trkpt lat="36.714439392089844" lon="-118.41078186035156">
<ele>3894</ele>
<time>2016-10-08T19:12:10Z</time>
</trkpt>
<trkpt lat="36.714481353759766" lon="-118.41077423095703">
<ele>3893</ele>
<time>2016-10-08T19:12:21Z</time>
</trkpt>
<trkpt lat="36.71452331542969" lon="-118.4107437133789">
<ele>3887</ele>
<time>2016-10-08T19:12:32Z</time>
</trkpt>
<trkpt lat="36.71452331542969" lon="-118.41069030761719">
<ele>3888</ele>
<time>2016-10-08T19:12:57Z</time>
</trkpt>
<trkpt lat="36.714603424072266" lon="-118.41064453125">
<ele>3882</ele>
<time>2016-10-08T19:14:39Z</time>
</trkpt>
<trkpt lat="36.71465301513672" lon="-118.41062927246094">
<ele>3877</ele>
<time>2016-10-08T19:15:21Z</time>
</trkpt>
<trkpt lat="36.71462631225586" lon="-118.41068267822266">
<ele>3868</ele>
<time>2016-10-08T19:15:46Z</time>
</trkpt>
<trkpt lat="36.71467590332031" lon="-118.41065979003906">
<ele>3867</ele>
<time>2016-10-08T19:16:15Z</time>
</trkpt>
<trkpt lat="36.71467590332031" lon="-118.41056060791016">
<ele>3869</ele>
<time>2016-10-08T19:16:34Z</time>
</trkpt>
<trkpt lat="36.71464920043945" lon="-118.41051483154297">
<ele>3863</ele>
<time>2016-10-08T19:16:44Z</time>
</trkpt>
<trkpt lat="36.71468734741211" lon="-118.41046142578125">
<ele>3860</ele>
<time>2016-10-08T19:16:59Z</time>
</trkpt>
<trkpt lat="36.7147331237793" lon="-118.41046905517578">
<ele>3859</ele>
<time>2016-10-08T19:17:08Z</time>
</trkpt>
<trkpt lat="36.71472930908203" lon="-118.4105224609375">
<ele>3854</ele>
<time>2016-10-08T19:17:20Z</time>
</trkpt>
<trkpt lat="36.71478271484375" lon="-118.4104995727539">
<ele>3853</ele>
<time>2016-10-08T19:17:29Z</time>
</trkpt>
<trkpt lat="36.71481704711914" lon="-118.41045379638672">
<ele>3851</ele>
<time>2016-10-08T19:18:16Z</time>
</trkpt>
<trkpt lat="36.714847564697266" lon="-118.4103775024414">
<ele>3846</ele>
<time>2016-10-08T19:18:40Z</time>
</trkpt>
<trkpt lat="36.71488571166992" lon="-118.41034698486328">
<ele>3839</ele>
<time>2016-10-08T19:19:11Z</time>
</trkpt>
<trkpt lat="36.714874267578125" lon="-118.4102783203125">
<ele>3836</ele>
<time>2016-10-08T19:19:52Z</time>
</trkpt>
<trkpt lat="36.714900970458984" lon="-118.41022491455078">
<ele>3835</ele>
<time>2016-10-08T19:20:05Z</time>
</trkpt>
<trkpt lat="36.714969635009766" lon="-118.41020202636719">
<ele>3821</ele>
<time>2016-10-08T19:21:19Z</time>
</trkpt>
<trkpt lat="36.71502685546875" lon="-118.41015625">
<ele>3821</ele>
<time>2016-10-08T19:21:25Z</time>
</trkpt>
<trkpt lat="36.71505355834961" lon="-118.41010284423828">
<ele>3820</ele>
<time>2016-10-08T19:21:49Z</time>
</trkpt>
<trkpt lat="36.715084075927734" lon="-118.4100570678711">
<ele>3815</ele>
<time>2016-10-08T19:22:06Z</time>
</trkpt>
<trkpt lat="36.715110778808594" lon="-118.4100112915039">
<ele>3817</ele>
<time>2016-10-08T19:22:20Z</time>
</trkpt>
<trkpt lat="36.715152740478516" lon="-118.4100341796875">
<ele>3809</ele>
<time>2016-10-08T19:22:37Z</time>
</trkpt>
<trkpt lat="36.71517562866211" lon="-118.41008758544922">
<ele>3812</ele>
<time>2016-10-08T19:22:49Z</time>
</trkpt>
<trkpt lat="36.71515655517578" lon="-118.41014862060547">
<ele>3814</ele>
<time>2016-10-08T19:23:03Z</time>
</trkpt>
<trkpt lat="36.71513366699219" lon="-118.41019439697266">
<ele>3804</ele>
<time>2016-10-08T19:23:18Z</time>
</trkpt>
<trkpt lat="36.715187072753906" lon="-118.4102554321289">
<ele>3805</ele>
<time>2016-10-08T19:23:52Z</time>
</trkpt>
<trkpt lat="36.71521759033203" lon="-118.4103012084961">
<ele>3806</ele>
<time>2016-10-08T19:24:00Z</time>
</trkpt>
<trkpt lat="36.71517562866211" lon="-118.41032409667969">
<ele>3797</ele>
<time>2016-10-08T19:24:10Z</time>
</trkpt>
<trkpt lat="36.71520233154297" lon="-118.4103775024414">
<ele>3804</ele>
<time>2016-10-08T19:24:32Z</time>
</trkpt>
<trkpt lat="36.71516799926758" lon="-118.41041564941406">
<ele>3802</ele>
<time>2016-10-08T19:24:38Z</time>
</trkpt>
<trkpt lat="36.71519470214844" lon="-118.41046142578125">
<ele>3799</ele>
<time>2016-10-08T19:24:55Z</time>
</trkpt>
<trkpt lat="36.71525573730469" lon="-118.4105224609375">
<ele>3791</ele>
<time>2016-10-08T19:26:17Z</time>
</trkpt>
<trkpt lat="36.71529769897461" lon="-118.41059875488281">
<ele>3789</ele>
<time>2016-10-08T19:26:26Z</time>
</trkpt>
<trkpt lat="36.71528625488281" lon="-118.41065979003906">
<ele>3785</ele>
<time>2016-10-08T19:26:42Z</time>
</trkpt>
<trkpt lat="36.71528625488281" lon="-118.41060638427734">
<ele>3783</ele>
<time>2016-10-08T19:26:51Z</time>
</trkpt>
<trkpt lat="36.71532440185547" lon="-118.41067504882813">
<ele>3771</ele>
<time>2016-10-08T19:27:36Z</time>
</trkpt>
<trkpt lat="36.715354919433594" lon="-118.41071319580078">
<ele>3768</ele>
<time>2016-10-08T19:27:52Z</time>
</trkpt>
<trkpt lat="36.715396881103516" lon="-118.41073608398438">
<ele>3766</ele>
<time>2016-10-08T19:28:02Z</time>
</trkpt>
<trkpt lat="36.715423583984375" lon="-118.41078186035156">
<ele>3768</ele>
<time>2016-10-08T19:28:12Z</time>
</trkpt>
<trkpt lat="36.715484619140625" lon="-118.4107894897461">
<ele>3765</ele>
<time>2016-10-08T19:28:30Z</time>
</trkpt>
<trkpt lat="36.715511322021484" lon="-118.41084289550781">
<ele>3763</ele>
<time>2016-10-08T19:28:52Z</time>
</trkpt>
<trkpt lat="36.71556091308594" lon="-118.41083526611328">
<ele>3754</ele>
<time>2016-10-08T19:29:18Z</time>
</trkpt>
<trkpt lat="36.71562194824219" lon="-118.41083526611328">
<ele>3749</ele>
<time>2016-10-08T19:29:29Z</time>
</trkpt>
<trkpt lat="36.71566390991211" lon="-118.41080474853516">
<ele>3749</ele>
<time>2016-10-08T19:29:37Z</time>
</trkpt>
<trkpt lat="36.71570587158203" lon="-118.41077423095703">
<ele>3749</ele>
<time>2016-10-08T19:29:43Z</time>
</trkpt>
<trkpt lat="36.715728759765625" lon="-118.41082000732422">
<ele>3745</ele>
<time>2016-10-08T19:29:55Z</time>
</trkpt>
<trkpt lat="36.71577453613281" lon="-118.41081237792969">
<ele>3746</ele>
<time>2016-10-08T19:30:03Z</time>
</trkpt>
<trkpt lat="36.7158203125" lon="-118.41083526611328">
<ele>3740</ele>
<time>2016-10-08T19:30:10Z</time>
</trkpt>
<trkpt lat="36.715789794921875" lon="-118.41093444824219">
<ele>3740</ele>
<time>2016-10-08T19:30:31Z</time>
</trkpt>
<trkpt lat="36.7158317565918" lon="-118.41094970703125">
<ele>3739</ele>
<time>2016-10-08T19:31:18Z</time>
</trkpt>
<trkpt lat="36.71588134765625" lon="-118.41094970703125">
<ele>3748</ele>
<time>2016-10-08T19:31:39Z</time>
</trkpt>
<trkpt lat="36.71596145629883" lon="-118.410888671875">
<ele>3744</ele>
<time>2016-10-08T19:31:54Z</time>
</trkpt>
<trkpt lat="36.71599197387695" lon="-118.41085052490234">
<ele>3739</ele>
<time>2016-10-08T19:32:15Z</time>
</trkpt>
<trkpt lat="36.71596145629883" lon="-118.41091918945313">
<ele>3732</ele>
<time>2016-10-08T19:32:36Z</time>
</trkpt>
<trkpt lat="36.716007232666016" lon="-118.4109115600586">
<ele>3732</ele>
<time>2016-10-08T19:33:10Z</time>
</trkpt>
<trkpt lat="36.7160530090332" lon="-118.41090393066406">
<ele>3730</ele>
<time>2016-10-08T19:34:11Z</time>
</trkpt>
<trkpt lat="36.71614074707031" lon="-118.41087341308594">
<ele>3733</ele>
<time>2016-10-08T19:34:39Z</time>
</trkpt>
<trkpt lat="36.7161865234375" lon="-118.41089630126953">
<ele>3732</ele>
<time>2016-10-08T19:35:21Z</time>
</trkpt>
<trkpt lat="36.71630859375" lon="-118.41085052490234">
<ele>3736</ele>
<time>2016-10-08T19:35:40Z</time>
</trkpt>
<trkpt lat="36.71629333496094" lon="-118.41080474853516">
<ele>3730</ele>
<time>2016-10-08T19:36:14Z</time>
</trkpt>
<trkpt lat="36.71632385253906" lon="-118.41071319580078">
<ele>3728</ele>
<time>2016-10-08T19:36:58Z</time>
</trkpt>
<trkpt lat="36.71636199951172" lon="-118.41065979003906">
<ele>3720</ele>
<time>2016-10-08T19:37:36Z</time>
</trkpt>
<trkpt lat="36.716373443603516" lon="-118.41056060791016">
<ele>3712</ele>
<time>2016-10-08T19:38:37Z</time>
</trkpt>
<trkpt lat="36.71641159057617" lon="-118.4105224609375">
<ele>3710</ele>
<time>2016-10-08T19:38:43Z</time>
</trkpt>
<trkpt lat="36.716453552246094" lon="-118.41041564941406">
<ele>3706</ele>
<time>2016-10-08T19:39:09Z</time>
</trkpt>
<trkpt lat="36.71645736694336" lon="-118.41036224365234">
<ele>3704</ele>
<time>2016-10-08T19:39:15Z</time>
</trkpt>
<trkpt lat="36.71647262573242" lon="-118.4103012084961">
<ele>3707</ele>
<time>2016-10-08T19:39:21Z</time>
</trkpt>
<trkpt lat="36.71647262573242" lon="-118.41024780273438">
<ele>3704</ele>
<time>2016-10-08T19:39:29Z</time>
</trkpt>
<trkpt lat="36.716468811035156" lon="-118.41018676757813">
<ele>3706</ele>
<time>2016-10-08T19:40:08Z</time>
</trkpt>
<trkpt lat="36.71644592285156" lon="-118.41014099121094">
<ele>3702</ele>
<time>2016-10-08T19:40:16Z</time>
</trkpt>
<trkpt lat="36.7164306640625" lon="-118.4100570678711">
<ele>3704</ele>
<time>2016-10-08T19:40:46Z</time>
</trkpt>
<trkpt lat="36.716426849365234" lon="-118.40999603271484">
<ele>3707</ele>
<time>2016-10-08T19:40:54Z</time>
</trkpt>
<trkpt lat="36.71644973754883" lon="-118.40994262695313">
<ele>3704</ele>
<time>2016-10-08T19:41:04Z</time>
</trkpt>
<trkpt lat="36.71640396118164" lon="-118.40985107421875">
<ele>3700</ele>
<time>2016-10-08T19:41:15Z</time>
</trkpt>
<trkpt lat="36.7164421081543" lon="-118.40975189208984">
<ele>3693</ele>
<time>2016-10-08T19:41:29Z</time>
</trkpt>
<trkpt lat="36.71641159057617" lon="-118.40971374511719">
<ele>3697</ele>
<time>2016-10-08T19:41:39Z</time>
</trkpt>
<trkpt lat="36.71640396118164" lon="-118.40965270996094">
<ele>3694</ele>
<time>2016-10-08T19:41:48Z</time>
</trkpt>
<trkpt lat="36.716453552246094" lon="-118.40962982177734">
<ele>3706</ele>
<time>2016-10-08T19:42:51Z</time>
</trkpt>
<trkpt lat="36.71647262573242" lon="-118.40968322753906">
<ele>3702</ele>
<time>2016-10-08T19:43:19Z</time>
</trkpt>
<trkpt lat="36.71643829345703" lon="-118.40963745117188">
<ele>3705</ele>
<time>2016-10-08T19:44:30Z</time>
</trkpt>
<trkpt lat="36.716392517089844" lon="-118.40966033935547">
<ele>3704</ele>
<time>2016-10-08T19:44:43Z</time>
</trkpt>
<trkpt lat="36.71635055541992" lon="-118.40962982177734">
<ele>3699</ele>
<time>2016-10-08T19:44:51Z</time>
</trkpt>
<trkpt lat="36.71632385253906" lon="-118.40957641601563">
<ele>3702</ele>
<time>2016-10-08T19:45:17Z</time>
</trkpt>
<trkpt lat="36.71627426147461" lon="-118.4095230102539">
<ele>3700</ele>
<time>2016-10-08T19:45:31Z</time>
</trkpt>
<trkpt lat="36.71627426147461" lon="-118.40946197509766">
<ele>3702</ele>
<time>2016-10-08T19:45:40Z</time>
</trkpt>
<trkpt lat="36.71625518798828" lon="-118.4094009399414">
<ele>3702</ele>
<time>2016-10-08T19:45:54Z</time>
</trkpt>
<trkpt lat="36.716251373291016" lon="-118.40933990478516">
<ele>3699</ele>
<time>2016-10-08T19:46:17Z</time>
</trkpt>
<trkpt lat="36.71620559692383" lon="-118.40925598144531">
<ele>3695</ele>
<time>2016-10-08T19:46:33Z</time>
</trkpt>
<trkpt lat="36.716182708740234" lon="-118.4092025756836">
<ele>3687</ele>
<time>2016-10-08T19:46:49Z</time>
</trkpt>
<trkpt lat="36.716190338134766" lon="-118.40914154052734">
<ele>3684</ele>
<time>2016-10-08T19:47:04Z</time>
</trkpt>
<trkpt lat="36.71617126464844" lon="-118.4090576171875">
<ele>3684</ele>
<time>2016-10-08T19:47:32Z</time>
</trkpt>
<trkpt lat="36.71620559692383" lon="-118.40901184082031">
<ele>3683</ele>
<time>2016-10-08T19:47:43Z</time>
</trkpt>
<trkpt lat="36.71622848510742" lon="-118.40896606445313">
<ele>3669</ele>
<time>2016-10-08T19:48:19Z</time>
</trkpt>
<trkpt lat="36.716209411621094" lon="-118.40890502929688">
<ele>3671</ele>
<time>2016-10-08T19:48:49Z</time>
</trkpt>
<trkpt lat="36.716243743896484" lon="-118.40886688232422">
<ele>3669</ele>
<time>2016-10-08T19:49:13Z</time>
</trkpt>
<trkpt lat="36.716270446777344" lon="-118.40877532958984">
<ele>3667</ele>
<time>2016-10-08T19:49:31Z</time>
</trkpt>
<trkpt lat="36.716285705566406" lon="-118.4087142944336">
<ele>3664</ele>
<time>2016-10-08T19:49:46Z</time>
</trkpt>
<trkpt lat="36.71628952026367" lon="-118.40866088867188">
<ele>3657</ele>
<time>2016-10-08T19:50:05Z</time>
</trkpt>
<trkpt lat="36.716304779052734" lon="-118.40856170654297">
<ele>3653</ele>
<time>2016-10-08T19:50:39Z</time>
</trkpt>
<trkpt lat="36.71634292602539" lon="-118.40852355957031">
<ele>3647</ele>
<time>2016-10-08T19:51:08Z</time>
</trkpt>
<trkpt lat="36.71636199951172" lon="-118.4084701538086">
<ele>3640</ele>
<time>2016-10-08T19:51:34Z</time>
</trkpt>
<trkpt lat="36.71639633178711" lon="-118.40843200683594">
<ele>3641</ele>
<time>2016-10-08T19:51:46Z</time>
</trkpt>
<trkpt lat="36.7164421081543" lon="-118.40843963623047">
<ele>3644</ele>
<time>2016-10-08T19:51:55Z</time>
</trkpt>
<trkpt lat="36.71648406982422" lon="-118.4084243774414">
<ele>3647</ele>
<time>2016-10-08T19:52:12Z</time>
</trkpt>
<trkpt lat="36.716529846191406" lon="-118.40839385986328">
<ele>3641</ele>
<time>2016-10-08T19:52:36Z</time>
</trkpt>
<trkpt lat="36.716548919677734" lon="-118.40834045410156">
<ele>3637</ele>
<time>2016-10-08T19:52:46Z</time>
</trkpt>
<trkpt lat="36.716575622558594" lon="-118.40829467773438">
<ele>3634</ele>
<time>2016-10-08T19:53:11Z</time>
</trkpt>
<trkpt lat="36.71663284301758" lon="-118.40834045410156">
<ele>3634</ele>
<time>2016-10-08T19:53:34Z</time>
</trkpt>
<trkpt lat="36.716670989990234" lon="-118.40837097167969">
<ele>3635</ele>
<time>2016-10-08T19:53:51Z</time>
</trkpt>
<trkpt lat="36.71670150756836" lon="-118.40841674804688">
<ele>3632</ele>
<time>2016-10-08T19:54:20Z</time>
</trkpt>
<trkpt lat="36.71672821044922" lon="-118.40847778320313">
<ele>3630</ele>
<time>2016-10-08T19:54:35Z</time>
</trkpt>
<trkpt lat="36.716773986816406" lon="-118.40850067138672">
<ele>3630</ele>
<time>2016-10-08T19:54:46Z</time>
</trkpt>
<trkpt lat="36.716861724853516" lon="-118.40848541259766">
<ele>3626</ele>
<time>2016-10-08T19:55:00Z</time>
</trkpt>
<trkpt lat="36.71685028076172" lon="-118.40843200683594">
<ele>3617</ele>
<time>2016-10-08T19:55:18Z</time>
</trkpt>
<trkpt lat="36.716915130615234" lon="-118.40838623046875">
<ele>3615</ele>
<time>2016-10-08T19:55:27Z</time>
</trkpt>
<trkpt lat="36.716957092285156" lon="-118.40835571289063">
<ele>3617</ele>
<time>2016-10-08T19:55:47Z</time>
</trkpt>
<trkpt lat="36.71700668334961" lon="-118.40835571289063">
<ele>3618</ele>
<time>2016-10-08T19:56:03Z</time>
</trkpt>
<trkpt lat="36.7170524597168" lon="-118.4083480834961">
<ele>3613</ele>
<time>2016-10-08T19:56:17Z</time>
</trkpt>
<trkpt lat="36.717063903808594" lon="-118.40828704833984">
<ele>3605</ele>
<time>2016-10-08T19:57:05Z</time>
</trkpt>
<trkpt lat="36.71704864501953" lon="-118.4082260131836">
<ele>3604</ele>
<time>2016-10-08T19:57:20Z</time>
</trkpt>
<trkpt lat="36.71709442138672" lon="-118.408203125">
<ele>3604</ele>
<time>2016-10-08T19:57:31Z</time>
</trkpt>
<trkpt lat="36.717140197753906" lon="-118.40821075439453">
<ele>3603</ele>
<time>2016-10-08T19:57:40Z</time>
</trkpt>
<trkpt lat="36.717185974121094" lon="-118.408203125">
<ele>3595</ele>
<time>2016-10-08T19:58:05Z</time>
</trkpt>
<trkpt lat="36.71723175048828" lon="-118.40817260742188">
<ele>3594</ele>
<time>2016-10-08T19:58:13Z</time>
</trkpt>
<trkpt lat="36.717323303222656" lon="-118.40814208984375">
<ele>3583</ele>
<time>2016-10-08T19:58:47Z</time>
</trkpt>
<trkpt lat="36.717369079589844" lon="-118.40812683105469">
<ele>3582</ele>
<time>2016-10-08T19:58:53Z</time>
</trkpt>
<trkpt lat="36.717411041259766" lon="-118.40809631347656">
<ele>3582</ele>
<time>2016-10-08T19:58:59Z</time>
</trkpt>
<trkpt lat="36.71745681762695" lon="-118.4080810546875">
<ele>3578</ele>
<time>2016-10-08T19:59:21Z</time>
</trkpt>
<trkpt lat="36.717506408691406" lon="-118.40807342529297">
<ele>3578</ele>
<time>2016-10-08T19:59:29Z</time>
</trkpt>
<trkpt lat="36.71754837036133" lon="-118.40805053710938">
<ele>3579</ele>
<time>2016-10-08T19:59:36Z</time>
</trkpt>
<trkpt lat="36.717594146728516" lon="-118.40802764892578">
<ele>3578</ele>
<time>2016-10-08T19:59:47Z</time>
</trkpt>
<trkpt lat="36.71754837036133" lon="-118.40801239013672">
<ele>3577</ele>
<time>2016-10-08T20:00:10Z</time>
</trkpt>
<trkpt lat="36.717498779296875" lon="-118.40794372558594">
<ele>3573</ele>
<time>2016-10-08T20:00:33Z</time>
</trkpt>
<trkpt lat="36.7175407409668" lon="-118.40792083740234">
<ele>3571</ele>
<time>2016-10-08T20:00:56Z</time>
</trkpt>
<trkpt lat="36.71756362915039" lon="-118.40786743164063">
<ele>3566</ele>
<time>2016-10-08T20:01:13Z</time>
</trkpt>
<trkpt lat="36.71757507324219" lon="-118.40778350830078">
<ele>3569</ele>
<time>2016-10-08T20:01:38Z</time>
</trkpt>
<trkpt lat="36.71758270263672" lon="-118.40772247314453">
<ele>3562</ele>
<time>2016-10-08T20:02:01Z</time>
</trkpt>
<trkpt lat="36.71767807006836" lon="-118.40775299072266">
<ele>3561</ele>
<time>2016-10-08T20:02:15Z</time>
</trkpt>
<trkpt lat="36.71772766113281" lon="-118.40775299072266">
<ele>3559</ele>
<time>2016-10-08T20:02:21Z</time>
</trkpt>
<trkpt lat="36.717777252197266" lon="-118.40776824951172">
<ele>3555</ele>
<time>2016-10-08T20:02:30Z</time>
</trkpt>
<trkpt lat="36.717811584472656" lon="-118.40773010253906">
<ele>3552</ele>
<time>2016-10-08T20:02:38Z</time>
</trkpt>
<trkpt lat="36.7177734375" lon="-118.40769958496094">
<ele>3550</ele>
<time>2016-10-08T20:02:52Z</time>
</trkpt>
<trkpt lat="36.71776580810547" lon="-118.40763854980469">
<ele>3547</ele>
<time>2016-10-08T20:03:20Z</time>
</trkpt>
<trkpt lat="36.717769622802734" lon="-118.40757751464844">
<ele>3544</ele>
<time>2016-10-08T20:03:48Z</time>
</trkpt>
<trkpt lat="36.717769622802734" lon="-118.40752410888672">
<ele>3549</ele>
<time>2016-10-08T20:04:16Z</time>
</trkpt>
<trkpt lat="36.71782684326172" lon="-118.40750122070313">
<ele>3549</ele>
<time>2016-10-08T20:04:36Z</time>
</trkpt>
<trkpt lat="36.717872619628906" lon="-118.40747833251953">
<ele>3547</ele>
<time>2016-10-08T20:04:50Z</time>
</trkpt>
<trkpt lat="36.71796417236328" lon="-118.40745544433594">
<ele>3539</ele>
<time>2016-10-08T20:05:48Z</time>
</trkpt>
<trkpt lat="36.7180061340332" lon="-118.40747833251953">
<ele>3530</ele>
<time>2016-10-08T20:06:04Z</time>
</trkpt>
<trkpt lat="36.71805191040039" lon="-118.407470703125">
<ele>3528</ele>
<time>2016-10-08T20:06:12Z</time>
</trkpt>
<trkpt lat="36.71811294555664" lon="-118.40742492675781">
<ele>3537</ele>
<time>2016-10-08T20:09:15Z</time>
</trkpt>
<trkpt lat="36.718162536621094" lon="-118.40742492675781">
<ele>3528</ele>
<time>2016-10-08T20:09:50Z</time>
</trkpt>
<trkpt lat="36.71820831298828" lon="-118.40740203857422">
<ele>3531</ele>
<time>2016-10-08T20:10:04Z</time>
</trkpt>
<trkpt lat="36.718231201171875" lon="-118.40735626220703">
<ele>3537</ele>
<time>2016-10-08T20:10:17Z</time>
</trkpt>
<trkpt lat="36.71831512451172" lon="-118.40734100341797">
<ele>3534</ele>
<time>2016-10-08T20:10:53Z</time>
</trkpt>
<trkpt lat="36.71836471557617" lon="-118.40734100341797">
<ele>3535</ele>
<time>2016-10-08T20:11:00Z</time>
</trkpt>
<trkpt lat="36.71841049194336" lon="-118.40731811523438">
<ele>3538</ele>
<time>2016-10-08T20:11:09Z</time>
</trkpt>
<trkpt lat="36.7184944152832" lon="-118.4073257446289">
<ele>3525</ele>
<time>2016-10-08T20:12:21Z</time>
</trkpt>
<trkpt lat="36.718536376953125" lon="-118.4073486328125">
<ele>3517</ele>
<time>2016-10-08T20:13:11Z</time>
</trkpt>
<trkpt lat="36.718605041503906" lon="-118.4073715209961">
<ele>3515</ele>
<time>2016-10-08T20:13:29Z</time>
</trkpt>
<trkpt lat="36.718692779541016" lon="-118.40744018554688">
<ele>3511</ele>
<time>2016-10-08T20:13:44Z</time>
</trkpt>
<trkpt lat="36.718727111816406" lon="-118.407470703125">
<ele>3507</ele>
<time>2016-10-08T20:14:03Z</time>
</trkpt>
<trkpt lat="36.718772888183594" lon="-118.40748596191406">
<ele>3504</ele>
<time>2016-10-08T20:14:13Z</time>
</trkpt>
<trkpt lat="36.718841552734375" lon="-118.40744018554688">
<ele>3509</ele>
<time>2016-10-08T20:14:38Z</time>
</trkpt>
<trkpt lat="36.718875885009766" lon="-118.40740203857422">
<ele>3513</ele>
<time>2016-10-08T20:14:44Z</time>
</trkpt>
<trkpt lat="36.71892166137695" lon="-118.40743255615234">
<ele>3510</ele>
<time>2016-10-08T20:14:53Z</time>
</trkpt>
<trkpt lat="36.71896743774414" lon="-118.4074478149414">
<ele>3509</ele>
<time>2016-10-08T20:15:05Z</time>
</trkpt>
<trkpt lat="36.719017028808594" lon="-118.40743255615234">
<ele>3511</ele>
<time>2016-10-08T20:15:12Z</time>
</trkpt>
<trkpt lat="36.71907043457031" lon="-118.40739440917969">
<ele>3514</ele>
<time>2016-10-08T20:15:21Z</time>
</trkpt>
<trkpt lat="36.7191047668457" lon="-118.4073486328125">
<ele>3506</ele>
<time>2016-10-08T20:16:06Z</time>
</trkpt>
<trkpt lat="36.71913528442383" lon="-118.40730285644531">
<ele>3503</ele>
<time>2016-10-08T20:16:21Z</time>
</trkpt>
<trkpt lat="36.71913528442383" lon="-118.40724182128906">
<ele>3501</ele>
<time>2016-10-08T20:16:30Z</time>
</trkpt>
<trkpt lat="36.7191162109375" lon="-118.40718078613281">
<ele>3500</ele>
<time>2016-10-08T20:16:44Z</time>
</trkpt>
<trkpt lat="36.7191276550293" lon="-118.4071273803711">
<ele>3504</ele>
<time>2016-10-08T20:16:56Z</time>
</trkpt>
<trkpt lat="36.71912384033203" lon="-118.40706634521484">
<ele>3506</ele>
<time>2016-10-08T20:17:03Z</time>
</trkpt>
<trkpt lat="36.71915054321289" lon="-118.40701293945313">
<ele>3504</ele>
<time>2016-10-08T20:17:11Z</time>
</trkpt>
<trkpt lat="36.719139099121094" lon="-118.4069595336914">
<ele>3509</ele>
<time>2016-10-08T20:17:20Z</time>
</trkpt>
<trkpt lat="36.71918869018555" lon="-118.40696716308594">
<ele>3503</ele>
<time>2016-10-08T20:17:27Z</time>
</trkpt>
<trkpt lat="36.71921920776367" lon="-118.40701293945313">
<ele>3505</ele>
<time>2016-10-08T20:17:35Z</time>
</trkpt>
<trkpt lat="36.71926498413086" lon="-118.40702056884766">
<ele>3507</ele>
<time>2016-10-08T20:17:46Z</time>
</trkpt>
<trkpt lat="36.71931076049805" lon="-118.40702819824219">
<ele>3512</ele>
<time>2016-10-08T20:17:56Z</time>
</trkpt>
<trkpt lat="36.719356536865234" lon="-118.40706634521484">
<ele>3514</ele>
<time>2016-10-08T20:18:02Z</time>
</trkpt>
<trkpt lat="36.71940612792969" lon="-118.40708923339844">
<ele>3511</ele>
<time>2016-10-08T20:18:10Z</time>
</trkpt>
<trkpt lat="36.719459533691406" lon="-118.40708923339844">
<ele>3509</ele>
<time>2016-10-08T20:18:31Z</time>
</trkpt>
<trkpt lat="36.71950912475586" lon="-118.40707397460938">
<ele>3506</ele>
<time>2016-10-08T20:18:42Z</time>
</trkpt>
<trkpt lat="36.71955108642578" lon="-118.40709686279297">
<ele>3511</ele>
<time>2016-10-08T20:18:54Z</time>
</trkpt>
<trkpt lat="36.7195930480957" lon="-118.4071273803711">
<ele>3509</ele>
<time>2016-10-08T20:19:01Z</time>
</trkpt>
<trkpt lat="36.719642639160156" lon="-118.40713500976563">
<ele>3512</ele>
<time>2016-10-08T20:19:07Z</time>
</trkpt>
<trkpt lat="36.719688415527344" lon="-118.40711212158203">
<ele>3510</ele>
<time>2016-10-08T20:19:13Z</time>
</trkpt>
<trkpt lat="36.719730377197266" lon="-118.40714263916016">
<ele>3512</ele>
<time>2016-10-08T20:19:21Z</time>
</trkpt>
<trkpt lat="36.719783782958984" lon="-118.40716552734375">
<ele>3511</ele>
<time>2016-10-08T20:19:30Z</time>
</trkpt>
<trkpt lat="36.71983337402344" lon="-118.40715789794922">
<ele>3517</ele>
<time>2016-10-08T20:19:38Z</time>
</trkpt>
<trkpt lat="36.719879150390625" lon="-118.4071273803711">
<ele>3519</ele>
<time>2016-10-08T20:19:44Z</time>
</trkpt>
<trkpt lat="36.719932556152344" lon="-118.4071273803711">
<ele>3518</ele>
<time>2016-10-08T20:19:50Z</time>
</trkpt>
<trkpt lat="36.720027923583984" lon="-118.4071273803711">
<ele>3519</ele>
<time>2016-10-08T20:20:06Z</time>
</trkpt>
<trkpt lat="36.72007369995117" lon="-118.40714263916016">
<ele>3520</ele>
<time>2016-10-08T20:20:13Z</time>
</trkpt>
<trkpt lat="36.720149993896484" lon="-118.40715789794922">
<ele>3524</ele>
<time>2016-10-08T20:20:29Z</time>
</trkpt>
<trkpt lat="36.7202033996582" lon="-118.40717315673828">
<ele>3527</ele>
<time>2016-10-08T20:20:37Z</time>
</trkpt>
<trkpt lat="36.72024917602539" lon="-118.40718841552734">
<ele>3529</ele>
<time>2016-10-08T20:20:43Z</time>
</trkpt>
<trkpt lat="36.72029495239258" lon="-118.40718078613281">
<ele>3533</ele>
<time>2016-10-08T20:20:56Z</time>
</trkpt>
<trkpt lat="36.72034454345703" lon="-118.40717315673828">
<ele>3529</ele>
<time>2016-10-08T20:21:04Z</time>
</trkpt>
<trkpt lat="36.72039031982422" lon="-118.40718078613281">
<ele>3529</ele>
<time>2016-10-08T20:21:10Z</time>
</trkpt>
<trkpt lat="36.72047805786133" lon="-118.4072036743164">
<ele>3527</ele>
<time>2016-10-08T20:21:28Z</time>
</trkpt>
<trkpt lat="36.72052764892578" lon="-118.40721130371094">
<ele>3526</ele>
<time>2016-10-08T20:21:34Z</time>
</trkpt>
<trkpt lat="36.72056579589844" lon="-118.40718078613281">
<ele>3522</ele>
<time>2016-10-08T20:21:50Z</time>
</trkpt>
<trkpt lat="36.72058868408203" lon="-118.40723419189453">
<ele>3521</ele>
<time>2016-10-08T20:22:04Z</time>
</trkpt>
<trkpt lat="36.72063446044922" lon="-118.40727233886719">
<ele>3524</ele>
<time>2016-10-08T20:22:10Z</time>
</trkpt>
<trkpt lat="36.72067642211914" lon="-118.40730285644531">
<ele>3524</ele>
<time>2016-10-08T20:22:19Z</time>
</trkpt>
<trkpt lat="36.72072982788086" lon="-118.40735626220703">
<ele>3523</ele>
<time>2016-10-08T20:22:29Z</time>
</trkpt>
<trkpt lat="36.7208251953125" lon="-118.40736389160156">
<ele>3527</ele>
<time>2016-10-08T20:22:41Z</time>
</trkpt>
<trkpt lat="36.72087478637695" lon="-118.40736389160156">
<ele>3526</ele>
<time>2016-10-08T20:22:48Z</time>
</trkpt>
<trkpt lat="36.720924377441406" lon="-118.40734100341797">
<ele>3529</ele>
<time>2016-10-08T20:22:58Z</time>
</trkpt>
<trkpt lat="36.720970153808594" lon="-118.40731048583984">
<ele>3526</ele>
<time>2016-10-08T20:23:04Z</time>
</trkpt>
<trkpt lat="36.72101593017578" lon="-118.40731048583984">
<ele>3527</ele>
<time>2016-10-08T20:23:11Z</time>
</trkpt>
<trkpt lat="36.72106170654297" lon="-118.4073257446289">
<ele>3521</ele>
<time>2016-10-08T20:23:18Z</time>
</trkpt>
<trkpt lat="36.72114181518555" lon="-118.40733337402344">
<ele>3524</ele>
<time>2016-10-08T20:23:32Z</time>
</trkpt>
<trkpt lat="36.721092224121094" lon="-118.40733337402344">
<ele>3518</ele>
<time>2016-10-08T20:23:57Z</time>
</trkpt>
<trkpt lat="36.72114562988281" lon="-118.40734100341797">
<ele>3506</ele>
<time>2016-10-08T20:24:35Z</time>
</trkpt>
<trkpt lat="36.72118377685547" lon="-118.4073715209961">
<ele>3504</ele>
<time>2016-10-08T20:24:46Z</time>
</trkpt>
<trkpt lat="36.721229553222656" lon="-118.40738677978516">
<ele>3506</ele>
<time>2016-10-08T20:24:54Z</time>
</trkpt>
<trkpt lat="36.721282958984375" lon="-118.40737915039063">
<ele>3499</ele>
<time>2016-10-08T20:25:08Z</time>
</trkpt>
<trkpt lat="36.7213020324707" lon="-118.40744018554688">
<ele>3495</ele>
<time>2016-10-08T20:25:15Z</time>
</trkpt>
<trkpt lat="36.72138977050781" lon="-118.40743255615234">
<ele>3489</ele>
<time>2016-10-08T20:25:29Z</time>
</trkpt>
<trkpt lat="36.721431732177734" lon="-118.40745544433594">
<ele>3486</ele>
<time>2016-10-08T20:25:39Z</time>
</trkpt>
<trkpt lat="36.72148513793945" lon="-118.40746307373047">
<ele>3484</ele>
<time>2016-10-08T20:25:51Z</time>
</trkpt>
<trkpt lat="36.72152328491211" lon="-118.4074935913086">
<ele>3482</ele>
<time>2016-10-08T20:25:57Z</time>
</trkpt>
<trkpt lat="36.72159957885742" lon="-118.40756225585938">
<ele>3485</ele>
<time>2016-10-08T20:26:15Z</time>
</trkpt>
<trkpt lat="36.72167205810547" lon="-118.40762329101563">
<ele>3486</ele>
<time>2016-10-08T20:26:26Z</time>
</trkpt>
<trkpt lat="36.721717834472656" lon="-118.40764617919922">
<ele>3484</ele>
<time>2016-10-08T20:26:46Z</time>
</trkpt>
<trkpt lat="36.721763610839844" lon="-118.40766906738281">
<ele>3482</ele>
<time>2016-10-08T20:26:55Z</time>
</trkpt>
<trkpt lat="36.72180938720703" lon="-118.4076919555664">
<ele>3483</ele>
<time>2016-10-08T20:27:04Z</time>
</trkpt>
<trkpt lat="36.72184371948242" lon="-118.40772247314453">
<ele>3483</ele>
<time>2016-10-08T20:27:12Z</time>
</trkpt>
<trkpt lat="36.72188949584961" lon="-118.40775299072266">
<ele>3481</ele>
<time>2016-10-08T20:27:20Z</time>
</trkpt>
<trkpt lat="36.72193908691406" lon="-118.40773010253906">
<ele>3482</ele>
<time>2016-10-08T20:27:36Z</time>
</trkpt>
<trkpt lat="36.72198486328125" lon="-118.40774536132813">
<ele>3483</ele>
<time>2016-10-08T20:27:48Z</time>
</trkpt>
<trkpt lat="36.72199249267578" lon="-118.40780639648438">
<ele>3480</ele>
<time>2016-10-08T20:28:12Z</time>
</trkpt>
<trkpt lat="36.721954345703125" lon="-118.40787506103516">
<ele>3487</ele>
<time>2016-10-08T20:28:45Z</time>
</trkpt>
<trkpt lat="36.72193908691406" lon="-118.4079360961914">
<ele>3494</ele>
<time>2016-10-08T20:28:56Z</time>
</trkpt>
<trkpt lat="36.72196960449219" lon="-118.40801239013672">
<ele>3501</ele>
<time>2016-10-08T20:29:56Z</time>
</trkpt>
<trkpt lat="36.722007751464844" lon="-118.40805053710938">
<ele>3504</ele>
<time>2016-10-08T20:30:15Z</time>
</trkpt>
<trkpt lat="36.7220344543457" lon="-118.40811920166016">
<ele>3502</ele>
<time>2016-10-08T20:30:33Z</time>
</trkpt>
<trkpt lat="36.722068786621094" lon="-118.40815734863281">
<ele>3498</ele>
<time>2016-10-08T20:30:43Z</time>
</trkpt>
</trkseg>
</trk>
<trk>
<name><![CDATA[10081331]]></name>
<number>23</number>
<extensions><topografix:color>ff000066</topografix:color></extensions>
<trkseg>
<trkpt lat="36.722103118896484" lon="-118.40816497802734">
<ele>3499</ele>
<time>2016-10-08T20:31:05Z</time>
</trkpt>
<trkpt lat="36.72214889526367" lon="-118.40814971923828">
<ele>3499</ele>
<time>2016-10-08T20:31:16Z</time>
</trkpt>
<trkpt lat="36.722190856933594" lon="-118.40812683105469">
<ele>3501</ele>
<time>2016-10-08T20:31:29Z</time>
</trkpt>
<trkpt lat="36.722190856933594" lon="-118.4080581665039">
<ele>3509</ele>
<time>2016-10-08T20:31:35Z</time>
</trkpt>
<trkpt lat="36.72221374511719" lon="-118.40800476074219">
<ele>3508</ele>
<time>2016-10-08T20:31:48Z</time>
</trkpt>
<trkpt lat="36.722312927246094" lon="-118.40802764892578">
<ele>3505</ele>
<time>2016-10-08T20:31:59Z</time>
</trkpt>
<trkpt lat="36.72235870361328" lon="-118.40802001953125">
<ele>3508</ele>
<time>2016-10-08T20:32:06Z</time>
</trkpt>
<trkpt lat="36.72240447998047" lon="-118.40803527832031">
<ele>3504</ele>
<time>2016-10-08T20:32:16Z</time>
</trkpt>
<trkpt lat="36.72248840332031" lon="-118.40809631347656">
<ele>3503</ele>
<time>2016-10-08T20:32:53Z</time>
</trkpt>
<trkpt lat="36.7225341796875" lon="-118.40811157226563">
<ele>3503</ele>
<time>2016-10-08T20:33:10Z</time>
</trkpt>
<trkpt lat="36.72257614135742" lon="-118.40813446044922">
<ele>3498</ele>
<time>2016-10-08T20:33:16Z</time>
</trkpt>
<trkpt lat="36.72261047363281" lon="-118.40809631347656">
<ele>3502</ele>
<time>2016-10-08T20:34:18Z</time>
</trkpt>
<trkpt lat="36.72266387939453" lon="-118.40809631347656">
<ele>3500</ele>
<time>2016-10-08T20:34:25Z</time>
</trkpt>
<trkpt lat="36.72270202636719" lon="-118.40813446044922">
<ele>3494</ele>
<time>2016-10-08T20:34:41Z</time>
</trkpt>
<trkpt lat="36.722747802734375" lon="-118.40814971923828">
<ele>3494</ele>
<time>2016-10-08T20:34:47Z</time>
</trkpt>
<trkpt lat="36.72278594970703" lon="-118.4081802368164">
<ele>3489</ele>
<time>2016-10-08T20:35:00Z</time>
</trkpt>
<trkpt lat="36.72283172607422" lon="-118.40818786621094">
<ele>3487</ele>
<time>2016-10-08T20:35:16Z</time>
</trkpt>
<trkpt lat="36.72285842895508" lon="-118.40824127197266">
<ele>3486</ele>
<time>2016-10-08T20:35:24Z</time>
</trkpt>
<trkpt lat="36.722877502441406" lon="-118.40829467773438">
<ele>3485</ele>
<time>2016-10-08T20:35:30Z</time>
</trkpt>
<trkpt lat="36.7229118347168" lon="-118.40833282470703">
<ele>3486</ele>
<time>2016-10-08T20:35:37Z</time>
</trkpt>
<trkpt lat="36.72295379638672" lon="-118.4083251953125">
<ele>3490</ele>
<time>2016-10-08T20:35:49Z</time>
</trkpt>
<trkpt lat="36.7230339050293" lon="-118.40838623046875">
<ele>3482</ele>
<time>2016-10-08T20:36:10Z</time>
</trkpt>
<trkpt lat="36.72311019897461" lon="-118.40840911865234">
<ele>3491</ele>
<time>2016-10-08T20:36:25Z</time>
</trkpt>
<trkpt lat="36.72316360473633" lon="-118.40839385986328">
<ele>3487</ele>
<time>2016-10-08T20:36:52Z</time>
</trkpt>
<trkpt lat="36.723209381103516" lon="-118.40840911865234">
<ele>3489</ele>
<time>2016-10-08T20:36:58Z</time>
</trkpt>
<trkpt lat="36.72328186035156" lon="-118.4084243774414">
<ele>3483</ele>
<time>2016-10-08T20:37:08Z</time>
</trkpt>
<trkpt lat="36.723331451416016" lon="-118.408447265625">
<ele>3484</ele>
<time>2016-10-08T20:37:17Z</time>
</trkpt>
<trkpt lat="36.723365783691406" lon="-118.40849304199219">
<ele>3483</ele>
<time>2016-10-08T20:37:26Z</time>
</trkpt>
<trkpt lat="36.72346115112305" lon="-118.40850830078125">
<ele>3477</ele>
<time>2016-10-08T20:37:55Z</time>
</trkpt>
<trkpt lat="36.72353744506836" lon="-118.40855407714844">
<ele>3475</ele>
<time>2016-10-08T20:38:17Z</time>
</trkpt>
<trkpt lat="36.723636627197266" lon="-118.4085922241211">
<ele>3478</ele>
<time>2016-10-08T20:38:29Z</time>
</trkpt>
<trkpt lat="36.72368621826172" lon="-118.40858459472656">
<ele>3476</ele>
<time>2016-10-08T20:38:40Z</time>
</trkpt>
<trkpt lat="36.723731994628906" lon="-118.40860748291016">
<ele>3479</ele>
<time>2016-10-08T20:38:48Z</time>
</trkpt>
<trkpt lat="36.723777770996094" lon="-118.40863037109375">
<ele>3476</ele>
<time>2016-10-08T20:38:57Z</time>
</trkpt>
<trkpt lat="36.72384262084961" lon="-118.40868377685547">
<ele>3471</ele>
<time>2016-10-08T20:39:21Z</time>
</trkpt>
<trkpt lat="36.72393035888672" lon="-118.40872955322266">
<ele>3468</ele>
<time>2016-10-08T20:39:31Z</time>
</trkpt>
<trkpt lat="36.724021911621094" lon="-118.40870666503906">
<ele>3469</ele>
<time>2016-10-08T20:39:41Z</time>
</trkpt>
<trkpt lat="36.724063873291016" lon="-118.40873718261719">
<ele>3467</ele>
<time>2016-10-08T20:39:50Z</time>
</trkpt>
<trkpt lat="36.72411346435547" lon="-118.40874481201172">
<ele>3467</ele>
<time>2016-10-08T20:39:56Z</time>
</trkpt>
<trkpt lat="36.724159240722656" lon="-118.40873718261719">
<ele>3465</ele>
<time>2016-10-08T20:40:04Z</time>
</trkpt>
<trkpt lat="36.72418975830078" lon="-118.40878295898438">
<ele>3463</ele>
<time>2016-10-08T20:40:17Z</time>
</trkpt>
<trkpt lat="36.72422409057617" lon="-118.40882110595703">
<ele>3463</ele>
<time>2016-10-08T20:40:28Z</time>
</trkpt>
<trkpt lat="36.724266052246094" lon="-118.4088134765625">
<ele>3465</ele>
<time>2016-10-08T20:40:46Z</time>
</trkpt>
<trkpt lat="36.72431182861328" lon="-118.40885162353516">
<ele>3463</ele>
<time>2016-10-08T20:40:54Z</time>
</trkpt>
<trkpt lat="36.72434997558594" lon="-118.40888977050781">
<ele>3462</ele>
<time>2016-10-08T20:41:00Z</time>
</trkpt>
<trkpt lat="36.72440719604492" lon="-118.40897369384766">
<ele>3459</ele>
<time>2016-10-08T20:41:08Z</time>
</trkpt>
<trkpt lat="36.72444534301758" lon="-118.40900421142578">
<ele>3459</ele>
<time>2016-10-08T20:41:14Z</time>
</trkpt>
<trkpt lat="36.72447204589844" lon="-118.4090576171875">
<ele>3456</ele>
<time>2016-10-08T20:41:22Z</time>
</trkpt>
<trkpt lat="36.72451400756836" lon="-118.40917205810547">
<ele>3453</ele>
<time>2016-10-08T20:41:34Z</time>
</trkpt>
<trkpt lat="36.72455978393555" lon="-118.4091567993164">
<ele>3454</ele>
<time>2016-10-08T20:41:40Z</time>
</trkpt>
<trkpt lat="36.724609375" lon="-118.40914916992188">
<ele>3452</ele>
<time>2016-10-08T20:41:46Z</time>
</trkpt>
<trkpt lat="36.72471618652344" lon="-118.4091796875">
<ele>3447</ele>
<time>2016-10-08T20:41:55Z</time>
</trkpt>
<trkpt lat="36.724761962890625" lon="-118.4091567993164">
<ele>3445</ele>
<time>2016-10-08T20:42:04Z</time>
</trkpt>
<trkpt lat="36.724815368652344" lon="-118.40913391113281">
<ele>3446</ele>
<time>2016-10-08T20:42:11Z</time>
</trkpt>
<trkpt lat="36.72486114501953" lon="-118.40911102294922">
<ele>3449</ele>
<time>2016-10-08T20:42:30Z</time>
</trkpt>
<trkpt lat="36.72489547729492" lon="-118.40907287597656">
<ele>3442</ele>
<time>2016-10-08T20:42:48Z</time>
</trkpt>
<trkpt lat="36.724945068359375" lon="-118.40904998779297">
<ele>3444</ele>
<time>2016-10-08T20:42:58Z</time>
</trkpt>
<trkpt lat="36.7249870300293" lon="-118.40906524658203">
<ele>3439</ele>
<time>2016-10-08T20:43:04Z</time>
</trkpt>
<trkpt lat="36.725032806396484" lon="-118.40908813476563">
<ele>3432</ele>
<time>2016-10-08T20:43:13Z</time>
</trkpt>
<trkpt lat="36.7251091003418" lon="-118.4091567993164">
<ele>3432</ele>
<time>2016-10-08T20:43:27Z</time>
</trkpt>
<trkpt lat="36.72515106201172" lon="-118.40912628173828">
<ele>3427</ele>
<time>2016-10-08T20:43:37Z</time>
</trkpt>
<trkpt lat="36.725189208984375" lon="-118.40908813476563">
<ele>3430</ele>
<time>2016-10-08T20:43:49Z</time>
</trkpt>
<trkpt lat="36.72521209716797" lon="-118.40902709960938">
<ele>3435</ele>
<time>2016-10-08T20:43:55Z</time>
</trkpt>
<trkpt lat="36.72527313232422" lon="-118.40900421142578">
<ele>3426</ele>
<time>2016-10-08T20:44:17Z</time>
</trkpt>
<trkpt lat="36.72531509399414" lon="-118.40898132324219">
<ele>3426</ele>
<time>2016-10-08T20:44:26Z</time>
</trkpt>
<trkpt lat="36.72536087036133" lon="-118.40898895263672">
<ele>3430</ele>
<time>2016-10-08T20:44:35Z</time>
</trkpt>
<trkpt lat="36.725399017333984" lon="-118.40902709960938">
<ele>3424</ele>
<time>2016-10-08T20:44:50Z</time>
</trkpt>
<trkpt lat="36.72544479370117" lon="-118.40904235839844">
<ele>3427</ele>
<time>2016-10-08T20:45:04Z</time>
</trkpt>
<trkpt lat="36.72553634643555" lon="-118.4090805053711">
<ele>3429</ele>
<time>2016-10-08T20:45:22Z</time>
</trkpt>
<trkpt lat="36.725563049316406" lon="-118.4090347290039">
<ele>3425</ele>
<time>2016-10-08T20:45:38Z</time>
</trkpt>
<trkpt lat="36.725608825683594" lon="-118.40901184082031">
<ele>3429</ele>
<time>2016-10-08T20:45:46Z</time>
</trkpt>
<trkpt lat="36.72563171386719" lon="-118.40896606445313">
<ele>3422</ele>
<time>2016-10-08T20:46:00Z</time>
</trkpt>
<trkpt lat="36.7257080078125" lon="-118.40896606445313">
<ele>3413</ele>
<time>2016-10-08T20:46:13Z</time>
</trkpt>
<trkpt lat="36.72574996948242" lon="-118.40898132324219">
<ele>3413</ele>
<time>2016-10-08T20:46:23Z</time>
</trkpt>
<trkpt lat="36.72579574584961" lon="-118.40897369384766">
<ele>3413</ele>
<time>2016-10-08T20:46:48Z</time>
</trkpt>
<trkpt lat="36.7258415222168" lon="-118.40894317626953">
<ele>3410</ele>
<time>2016-10-08T20:46:56Z</time>
</trkpt>
<trkpt lat="36.725921630859375" lon="-118.40895080566406">
<ele>3402</ele>
<time>2016-10-08T20:47:28Z</time>
</trkpt>
<trkpt lat="36.7259635925293" lon="-118.40898895263672">
<ele>3394</ele>
<time>2016-10-08T20:47:34Z</time>
</trkpt>
<trkpt lat="36.72598648071289" lon="-118.408935546875">
<ele>3397</ele>
<time>2016-10-08T20:47:40Z</time>
</trkpt>
<trkpt lat="36.72603225708008" lon="-118.40894317626953">
<ele>3401</ele>
<time>2016-10-08T20:47:54Z</time>
</trkpt>
<trkpt lat="36.726104736328125" lon="-118.40892028808594">
<ele>3390</ele>
<time>2016-10-08T20:48:17Z</time>
</trkpt>
<trkpt lat="36.72613525390625" lon="-118.40887451171875">
<ele>3388</ele>
<time>2016-10-08T20:48:25Z</time>
</trkpt>
<trkpt lat="36.72613525390625" lon="-118.4088134765625">
<ele>3390</ele>
<time>2016-10-08T20:48:34Z</time>
</trkpt>
<trkpt lat="36.72618103027344" lon="-118.4088363647461">
<ele>3384</ele>
<time>2016-10-08T20:48:41Z</time>
</trkpt>
<trkpt lat="36.72626876831055" lon="-118.4088363647461">
<ele>3380</ele>
<time>2016-10-08T20:48:55Z</time>
</trkpt>
<trkpt lat="36.726318359375" lon="-118.40882873535156">
<ele>3383</ele>
<time>2016-10-08T20:49:01Z</time>
</trkpt>
<trkpt lat="36.72637939453125" lon="-118.40882110595703">
<ele>3381</ele>
<time>2016-10-08T20:49:13Z</time>
</trkpt>
<trkpt lat="36.72642135620117" lon="-118.40884399414063">
<ele>3378</ele>
<time>2016-10-08T20:49:21Z</time>
</trkpt>
<trkpt lat="36.726470947265625" lon="-118.40884399414063">
<ele>3379</ele>
<time>2016-10-08T20:49:28Z</time>
</trkpt>
<trkpt lat="36.7265739440918" lon="-118.40886688232422">
<ele>3376</ele>
<time>2016-10-08T20:49:36Z</time>
</trkpt>
<trkpt lat="36.726619720458984" lon="-118.40888977050781">
<ele>3374</ele>
<time>2016-10-08T20:49:44Z</time>
</trkpt>
<trkpt lat="36.726707458496094" lon="-118.40890502929688">
<ele>3370</ele>
<time>2016-10-08T20:49:56Z</time>
</trkpt>
<trkpt lat="36.7267951965332" lon="-118.40890502929688">
<ele>3359</ele>
<time>2016-10-08T20:50:22Z</time>
</trkpt>
<trkpt lat="36.726871490478516" lon="-118.4088363647461">
<ele>3363</ele>
<time>2016-10-08T20:50:28Z</time>
</trkpt>
<trkpt lat="36.726951599121094" lon="-118.40876770019531">
<ele>3367</ele>
<time>2016-10-08T20:50:53Z</time>
</trkpt>
<trkpt lat="36.726966857910156" lon="-118.4087142944336">
<ele>3362</ele>
<time>2016-10-08T20:51:23Z</time>
</trkpt>
<trkpt lat="36.727012634277344" lon="-118.4087142944336">
<ele>3355</ele>
<time>2016-10-08T20:51:34Z</time>
</trkpt>
<trkpt lat="36.727054595947266" lon="-118.40869903564453">
<ele>3350</ele>
<time>2016-10-08T20:52:00Z</time>
</trkpt>
<trkpt lat="36.72712707519531" lon="-118.40867614746094">
<ele>3346</ele>
<time>2016-10-08T20:52:27Z</time>
</trkpt>
<trkpt lat="36.727169036865234" lon="-118.40864562988281">
<ele>3331</ele>
<time>2016-10-08T20:52:57Z</time>
</trkpt>
<trkpt lat="36.727230072021484" lon="-118.40869140625">
<ele>3322</ele>
<time>2016-10-08T20:53:48Z</time>
</trkpt>
<trkpt lat="36.727272033691406" lon="-118.4086685180664">
<ele>3326</ele>
<time>2016-10-08T20:53:56Z</time>
</trkpt>
<trkpt lat="36.727317810058594" lon="-118.40866088867188">
<ele>3330</ele>
<time>2016-10-08T20:54:05Z</time>
</trkpt>
<trkpt lat="36.72736358642578" lon="-118.40863037109375">
<ele>3327</ele>
<time>2016-10-08T20:54:13Z</time>
</trkpt>
<trkpt lat="36.72740936279297" lon="-118.40859985351563">
<ele>3330</ele>
<time>2016-10-08T20:54:24Z</time>
</trkpt>
<trkpt lat="36.727455139160156" lon="-118.4085693359375">
<ele>3320</ele>
<time>2016-10-08T20:54:31Z</time>
</trkpt>
<trkpt lat="36.72749710083008" lon="-118.4085464477539">
<ele>3315</ele>
<time>2016-10-08T20:54:47Z</time>
</trkpt>
<trkpt lat="36.7275390625" lon="-118.40853118896484">
<ele>3302</ele>
<time>2016-10-08T20:54:58Z</time>
</trkpt>
<trkpt lat="36.72761154174805" lon="-118.40847778320313">
<ele>3305</ele>
<time>2016-10-08T20:55:11Z</time>
</trkpt>
<trkpt lat="36.72768783569336" lon="-118.408447265625">
<ele>3310</ele>
<time>2016-10-08T20:55:36Z</time>
</trkpt>
<trkpt lat="36.727718353271484" lon="-118.40849304199219">
<ele>3311</ele>
<time>2016-10-08T20:55:45Z</time>
</trkpt>
<trkpt lat="36.727760314941406" lon="-118.40851593017578">
<ele>3307</ele>
<time>2016-10-08T20:55:52Z</time>
</trkpt>
<trkpt lat="36.727806091308594" lon="-118.40850830078125">
<ele>3310</ele>
<time>2016-10-08T20:56:14Z</time>
</trkpt>
<trkpt lat="36.72787857055664" lon="-118.40843200683594">
<ele>3312</ele>
<time>2016-10-08T20:56:24Z</time>
</trkpt>
<trkpt lat="36.7279167175293" lon="-118.40847778320313">
<ele>3307</ele>
<time>2016-10-08T20:56:33Z</time>
</trkpt>
<trkpt lat="36.727962493896484" lon="-118.40845489501953">
<ele>3305</ele>
<time>2016-10-08T20:56:41Z</time>
</trkpt>
<trkpt lat="36.728023529052734" lon="-118.40836334228516">
<ele>3298</ele>
<time>2016-10-08T20:56:50Z</time>
</trkpt>
<trkpt lat="36.72807693481445" lon="-118.40836334228516">
<ele>3302</ele>
<time>2016-10-08T20:56:56Z</time>
</trkpt>
<trkpt lat="36.7281494140625" lon="-118.40840911865234">
<ele>3303</ele>
<time>2016-10-08T20:57:05Z</time>
</trkpt>
<trkpt lat="36.728214263916016" lon="-118.40847778320313">
<ele>3305</ele>
<time>2016-10-08T20:57:13Z</time>
</trkpt>
<trkpt lat="36.72831726074219" lon="-118.40849304199219">
<ele>3293</ele>
<time>2016-10-08T20:57:25Z</time>
</trkpt>
<trkpt lat="36.72838592529297" lon="-118.4085464477539">
<ele>3293</ele>
<time>2016-10-08T20:57:36Z</time>
</trkpt>
<trkpt lat="36.72846221923828" lon="-118.40851593017578">
<ele>3291</ele>
<time>2016-10-08T20:57:45Z</time>
</trkpt>
<trkpt lat="36.728515625" lon="-118.40850830078125">
<ele>3284</ele>
<time>2016-10-08T20:58:05Z</time>
</trkpt>
<trkpt lat="36.72856140136719" lon="-118.40853881835938">
<ele>3284</ele>
<time>2016-10-08T20:58:16Z</time>
</trkpt>
<trkpt lat="36.7286491394043" lon="-118.40849304199219">
<ele>3281</ele>
<time>2016-10-08T20:58:27Z</time>
</trkpt>
<trkpt lat="36.72868347167969" lon="-118.408447265625">
<ele>3276</ele>
<time>2016-10-08T20:58:34Z</time>
</trkpt>
<trkpt lat="36.72871398925781" lon="-118.40838623046875">
<ele>3272</ele>
<time>2016-10-08T20:58:41Z</time>
</trkpt>
<trkpt lat="36.7287483215332" lon="-118.4083480834961">
<ele>3275</ele>
<time>2016-10-08T20:58:50Z</time>
</trkpt>
<trkpt lat="36.728755950927734" lon="-118.40828704833984">
<ele>3278</ele>
<time>2016-10-08T20:58:56Z</time>
</trkpt>
<trkpt lat="36.72881317138672" lon="-118.40834045410156">
<ele>3295</ele>
<time>2016-10-08T21:00:51Z</time>
</trkpt>
<trkpt lat="36.728824615478516" lon="-118.40846252441406">
<ele>3295</ele>
<time>2016-10-08T21:00:59Z</time>
</trkpt>
<trkpt lat="36.7288703918457" lon="-118.40853118896484">
<ele>3285</ele>
<time>2016-10-08T21:01:05Z</time>
</trkpt>
<trkpt lat="36.72895431518555" lon="-118.40858459472656">
<ele>3285</ele>
<time>2016-10-08T21:01:14Z</time>
</trkpt>
<trkpt lat="36.72902297973633" lon="-118.40867614746094">
<ele>3287</ele>
<time>2016-10-08T21:01:20Z</time>
</trkpt>
<trkpt lat="36.72908020019531" lon="-118.40877532958984">
<ele>3289</ele>
<time>2016-10-08T21:01:30Z</time>
</trkpt>
<trkpt lat="36.729129791259766" lon="-118.40888214111328">
<ele>3284</ele>
<time>2016-10-08T21:01:38Z</time>
</trkpt>
<trkpt lat="36.72916030883789" lon="-118.40892028808594">
<ele>3296</ele>
<time>2016-10-08T21:01:48Z</time>
</trkpt>
<trkpt lat="36.729190826416016" lon="-118.40897369384766">
<ele>3292</ele>
<time>2016-10-08T21:01:55Z</time>
</trkpt>
<trkpt lat="36.72923278808594" lon="-118.4090576171875">
<ele>3289</ele>
<time>2016-10-08T21:02:05Z</time>
</trkpt>
<trkpt lat="36.7292594909668" lon="-118.40911102294922">
<ele>3289</ele>
<time>2016-10-08T21:02:11Z</time>
</trkpt>
<trkpt lat="36.729278564453125" lon="-118.40916442871094">
<ele>3288</ele>
<time>2016-10-08T21:02:21Z</time>
</trkpt>
<trkpt lat="36.729286193847656" lon="-118.40922546386719">
<ele>3284</ele>
<time>2016-10-08T21:02:28Z</time>
</trkpt>
<trkpt lat="36.729312896728516" lon="-118.40927124023438">
<ele>3282</ele>
<time>2016-10-08T21:02:37Z</time>
</trkpt>
<trkpt lat="36.72936248779297" lon="-118.40928649902344">
<ele>3279</ele>
<time>2016-10-08T21:02:50Z</time>
</trkpt>
<trkpt lat="36.729408264160156" lon="-118.40931701660156">
<ele>3276</ele>
<time>2016-10-08T21:02:58Z</time>
</trkpt>
<trkpt lat="36.729434967041016" lon="-118.40936279296875">
<ele>3275</ele>
<time>2016-10-08T21:03:04Z</time>
</trkpt>
<trkpt lat="36.7294921875" lon="-118.40937042236328">
<ele>3274</ele>
<time>2016-10-08T21:03:10Z</time>
</trkpt>
<trkpt lat="36.72952651977539" lon="-118.40940856933594">
<ele>3273</ele>
<time>2016-10-08T21:03:16Z</time>
</trkpt>
<trkpt lat="36.729583740234375" lon="-118.40953063964844">
<ele>3279</ele>
<time>2016-10-08T21:03:24Z</time>
</trkpt>
<trkpt lat="36.729644775390625" lon="-118.40961456298828">
<ele>3273</ele>
<time>2016-10-08T21:03:34Z</time>
</trkpt>
<trkpt lat="36.729713439941406" lon="-118.4096908569336">
<ele>3274</ele>
<time>2016-10-08T21:03:51Z</time>
</trkpt>
<trkpt lat="36.72970962524414" lon="-118.40982818603516">
<ele>3272</ele>
<time>2016-10-08T21:03:59Z</time>
</trkpt>
<trkpt lat="36.729736328125" lon="-118.40989685058594">
<ele>3277</ele>
<time>2016-10-08T21:04:05Z</time>
</trkpt>
<trkpt lat="36.72977828979492" lon="-118.40992736816406">
<ele>3281</ele>
<time>2016-10-08T21:04:20Z</time>
</trkpt>
<trkpt lat="36.72979736328125" lon="-118.40998077392578">
<ele>3280</ele>
<time>2016-10-08T21:04:27Z</time>
</trkpt>
<trkpt lat="36.729801177978516" lon="-118.4100341796875">
<ele>3279</ele>
<time>2016-10-08T21:04:34Z</time>
</trkpt>
<trkpt lat="36.72980880737305" lon="-118.4101791381836">
<ele>3276</ele>
<time>2016-10-08T21:04:42Z</time>
</trkpt>
<trkpt lat="36.72984313964844" lon="-118.4101333618164">
<ele>3271</ele>
<time>2016-10-08T21:04:59Z</time>
</trkpt>
<trkpt lat="36.72993087768555" lon="-118.4101333618164">
<ele>3273</ele>
<time>2016-10-08T21:05:09Z</time>
</trkpt>
<trkpt lat="36.729942321777344" lon="-118.41020202636719">
<ele>3271</ele>
<time>2016-10-08T21:05:16Z</time>
</trkpt>
<trkpt lat="36.72997283935547" lon="-118.4102554321289">
<ele>3269</ele>
<time>2016-10-08T21:05:22Z</time>
</trkpt>
<trkpt lat="36.730064392089844" lon="-118.4102783203125">
<ele>3275</ele>
<time>2016-10-08T21:05:33Z</time>
</trkpt>
<trkpt lat="36.730098724365234" lon="-118.41031646728516">
<ele>3276</ele>
<time>2016-10-08T21:05:41Z</time>
</trkpt>
<trkpt lat="36.730186462402344" lon="-118.41036224365234">
<ele>3273</ele>
<time>2016-10-08T21:05:53Z</time>
</trkpt>
<trkpt lat="36.730201721191406" lon="-118.4104232788086">
<ele>3272</ele>
<time>2016-10-08T21:06:03Z</time>
</trkpt>
<trkpt lat="36.730247497558594" lon="-118.41045379638672">
<ele>3271</ele>
<time>2016-10-08T21:06:10Z</time>
</trkpt>
<trkpt lat="36.7303352355957" lon="-118.41046905517578">
<ele>3280</ele>
<time>2016-10-08T21:06:38Z</time>
</trkpt>
<trkpt lat="36.730384826660156" lon="-118.41047668457031">
<ele>3278</ele>
<time>2016-10-08T21:06:44Z</time>
</trkpt>
<trkpt lat="36.730438232421875" lon="-118.4105453491211">
<ele>3275</ele>
<time>2016-10-08T21:06:55Z</time>
</trkpt>
<trkpt lat="36.73047637939453" lon="-118.41056823730469">
<ele>3275</ele>
<time>2016-10-08T21:07:02Z</time>
</trkpt>
<trkpt lat="36.73054885864258" lon="-118.41056823730469">
<ele>3266</ele>
<time>2016-10-08T21:07:12Z</time>
</trkpt>
<trkpt lat="36.73064422607422" lon="-118.41055297851563">
<ele>3272</ele>
<time>2016-10-08T21:07:21Z</time>
</trkpt>
<trkpt lat="36.730712890625" lon="-118.41063690185547">
<ele>3278</ele>
<time>2016-10-08T21:07:33Z</time>
</trkpt>
<trkpt lat="36.73073959350586" lon="-118.41069030761719">
<ele>3276</ele>
<time>2016-10-08T21:07:42Z</time>
</trkpt>
<trkpt lat="36.73078155517578" lon="-118.41072082519531">
<ele>3278</ele>
<time>2016-10-08T21:07:50Z</time>
</trkpt>
<trkpt lat="36.7308235168457" lon="-118.4107437133789">
<ele>3277</ele>
<time>2016-10-08T21:08:03Z</time>
</trkpt>
<trkpt lat="36.73088455200195" lon="-118.41073608398438">
<ele>3277</ele>
<time>2016-10-08T21:08:19Z</time>
</trkpt>
<trkpt lat="36.730926513671875" lon="-118.41077423095703">
<ele>3274</ele>
<time>2016-10-08T21:08:26Z</time>
</trkpt>
<trkpt lat="36.730960845947266" lon="-118.41082000732422">
<ele>3277</ele>
<time>2016-10-08T21:08:33Z</time>
</trkpt>
<trkpt lat="36.73101043701172" lon="-118.41082000732422">
<ele>3275</ele>
<time>2016-10-08T21:08:40Z</time>
</trkpt>
<trkpt lat="36.73106002807617" lon="-118.41082000732422">
<ele>3274</ele>
<time>2016-10-08T21:08:50Z</time>
</trkpt>
<trkpt lat="36.73111343383789" lon="-118.41082000732422">
<ele>3276</ele>
<time>2016-10-08T21:08:57Z</time>
</trkpt>
<trkpt lat="36.73120880126953" lon="-118.41081237792969">
<ele>3273</ele>
<time>2016-10-08T21:09:05Z</time>
</trkpt>
<trkpt lat="36.7313117980957" lon="-118.41082000732422">
<ele>3270</ele>
<time>2016-10-08T21:09:15Z</time>
</trkpt>
<trkpt lat="36.731414794921875" lon="-118.41078186035156">
<ele>3274</ele>
<time>2016-10-08T21:09:24Z</time>
</trkpt>
<trkpt lat="36.73152160644531" lon="-118.41079711914063">
<ele>3276</ele>
<time>2016-10-08T21:09:31Z</time>
</trkpt>
<trkpt lat="36.731624603271484" lon="-118.41080474853516">
<ele>3280</ele>
<time>2016-10-08T21:09:38Z</time>
</trkpt>
<trkpt lat="36.73173141479492" lon="-118.41081237792969">
<ele>3278</ele>
<time>2016-10-08T21:09:46Z</time>
</trkpt>
<trkpt lat="36.73183059692383" lon="-118.41084289550781">
<ele>3278</ele>
<time>2016-10-08T21:09:54Z</time>
</trkpt>
<trkpt lat="36.73191833496094" lon="-118.41090393066406">
<ele>3281</ele>
<time>2016-10-08T21:10:02Z</time>
</trkpt>
<trkpt lat="36.73194885253906" lon="-118.41097259521484">
<ele>3281</ele>
<time>2016-10-08T21:10:09Z</time>
</trkpt>
<trkpt lat="36.732051849365234" lon="-118.41102600097656">
<ele>3272</ele>
<time>2016-10-08T21:10:29Z</time>
</trkpt>
<trkpt lat="36.73210525512695" lon="-118.4110336303711">
<ele>3271</ele>
<time>2016-10-08T21:10:35Z</time>
</trkpt>
<trkpt lat="36.73219680786133" lon="-118.41108703613281">
<ele>3274</ele>
<time>2016-10-08T21:10:48Z</time>
</trkpt>
<trkpt lat="36.73223114013672" lon="-118.41114044189453">
<ele>3272</ele>
<time>2016-10-08T21:10:59Z</time>
</trkpt>
<trkpt lat="36.73227310180664" lon="-118.41122436523438">
<ele>3272</ele>
<time>2016-10-08T21:11:11Z</time>
</trkpt>
<trkpt lat="36.73231506347656" lon="-118.4112548828125">
<ele>3273</ele>
<time>2016-10-08T21:11:17Z</time>
</trkpt>
<trkpt lat="36.732364654541016" lon="-118.4113540649414">
<ele>3269</ele>
<time>2016-10-08T21:11:27Z</time>
</trkpt>
<trkpt lat="36.73238754272461" lon="-118.41141510009766">
<ele>3275</ele>
<time>2016-10-08T21:11:34Z</time>
</trkpt>
<trkpt lat="36.732425689697266" lon="-118.41145324707031">
<ele>3276</ele>
<time>2016-10-08T21:11:45Z</time>
</trkpt>
<trkpt lat="36.73248291015625" lon="-118.41154479980469">
<ele>3268</ele>
<time>2016-10-08T21:11:56Z</time>
</trkpt>
<trkpt lat="36.73252487182617" lon="-118.41158294677734">
<ele>3264</ele>
<time>2016-10-08T21:12:05Z</time>
</trkpt>
<trkpt lat="36.73257064819336" lon="-118.41156005859375">
<ele>3266</ele>
<time>2016-10-08T21:12:12Z</time>
</trkpt>
<trkpt lat="36.73262023925781" lon="-118.41156005859375">
<ele>3269</ele>
<time>2016-10-08T21:12:19Z</time>
</trkpt>
<trkpt lat="36.73265838623047" lon="-118.41151428222656">
<ele>3269</ele>
<time>2016-10-08T21:12:26Z</time>
</trkpt>
<trkpt lat="36.73274612426758" lon="-118.41153717041016">
<ele>3272</ele>
<time>2016-10-08T21:12:34Z</time>
</trkpt>
<trkpt lat="36.73284912109375" lon="-118.41153717041016">
<ele>3274</ele>
<time>2016-10-08T21:12:43Z</time>
</trkpt>
<trkpt lat="36.73290252685547" lon="-118.41155242919922">
<ele>3276</ele>
<time>2016-10-08T21:12:51Z</time>
</trkpt>
<trkpt lat="36.73301696777344" lon="-118.41159057617188">
<ele>3278</ele>
<time>2016-10-08T21:12:59Z</time>
</trkpt>
<trkpt lat="36.733070373535156" lon="-118.41160583496094">
<ele>3277</ele>
<time>2016-10-08T21:13:05Z</time>
</trkpt>
<trkpt lat="36.73316192626953" lon="-118.4115982055664">
<ele>3277</ele>
<time>2016-10-08T21:13:16Z</time>
</trkpt>
<trkpt lat="36.73321533203125" lon="-118.41167449951172">
<ele>3275</ele>
<time>2016-10-08T21:13:36Z</time>
</trkpt>
<trkpt lat="36.73326110839844" lon="-118.41168975830078">
<ele>3275</ele>
<time>2016-10-08T21:13:48Z</time>
</trkpt>
<trkpt lat="36.73331069946289" lon="-118.41168212890625">
<ele>3274</ele>
<time>2016-10-08T21:13:54Z</time>
</trkpt>
<trkpt lat="36.733360290527344" lon="-118.41165161132813">
<ele>3275</ele>
<time>2016-10-08T21:14:05Z</time>
</trkpt>
<trkpt lat="36.733402252197266" lon="-118.41162109375">
<ele>3278</ele>
<time>2016-10-08T21:14:12Z</time>
</trkpt>
<trkpt lat="36.733489990234375" lon="-118.4116439819336">
<ele>3279</ele>
<time>2016-10-08T21:14:20Z</time>
</trkpt>
<trkpt lat="36.733585357666016" lon="-118.41167449951172">
<ele>3279</ele>
<time>2016-10-08T21:14:31Z</time>
</trkpt>
<trkpt lat="36.733680725097656" lon="-118.4117202758789">
<ele>3281</ele>
<time>2016-10-08T21:14:38Z</time>
</trkpt>
<trkpt lat="36.73379135131836" lon="-118.41173553466797">
<ele>3275</ele>
<time>2016-10-08T21:14:49Z</time>
</trkpt>
<trkpt lat="36.73388671875" lon="-118.41175842285156">
<ele>3282</ele>
<time>2016-10-08T21:14:56Z</time>
</trkpt>
<trkpt lat="36.73397445678711" lon="-118.41177368164063">
<ele>3277</ele>
<time>2016-10-08T21:15:05Z</time>
</trkpt>
<trkpt lat="36.734031677246094" lon="-118.41187286376953">
<ele>3279</ele>
<time>2016-10-08T21:15:12Z</time>
</trkpt>
<trkpt lat="36.73411178588867" lon="-118.41189575195313">
<ele>3276</ele>
<time>2016-10-08T21:15:32Z</time>
</trkpt>
<trkpt lat="36.734214782714844" lon="-118.41191101074219">
<ele>3282</ele>
<time>2016-10-08T21:15:42Z</time>
</trkpt>
<trkpt lat="36.734317779541016" lon="-118.41194152832031">
<ele>3279</ele>
<time>2016-10-08T21:15:51Z</time>
</trkpt>
<trkpt lat="36.734397888183594" lon="-118.41201782226563">
<ele>3276</ele>
<time>2016-10-08T21:15:59Z</time>
</trkpt>
<trkpt lat="36.734458923339844" lon="-118.41209411621094">
<ele>3274</ele>
<time>2016-10-08T21:16:05Z</time>
</trkpt>
<trkpt lat="36.7345085144043" lon="-118.41211700439453">
<ele>3270</ele>
<time>2016-10-08T21:16:12Z</time>
</trkpt>
<trkpt lat="36.7346076965332" lon="-118.41217041015625">
<ele>3276</ele>
<time>2016-10-08T21:16:20Z</time>
</trkpt>
<trkpt lat="36.73469924926758" lon="-118.41217041015625">
<ele>3276</ele>
<time>2016-10-08T21:16:33Z</time>
</trkpt>
<trkpt lat="36.7347412109375" lon="-118.41214752197266">
<ele>3278</ele>
<time>2016-10-08T21:16:40Z</time>
</trkpt>
<trkpt lat="36.73481369018555" lon="-118.41209411621094">
<ele>3276</ele>
<time>2016-10-08T21:16:50Z</time>
</trkpt>
<trkpt lat="36.734901428222656" lon="-118.41207122802734">
<ele>3278</ele>
<time>2016-10-08T21:17:03Z</time>
</trkpt>
<trkpt lat="36.7349739074707" lon="-118.41207122802734">
<ele>3279</ele>
<time>2016-10-08T21:17:11Z</time>
</trkpt>
<trkpt lat="36.735069274902344" lon="-118.41206359863281">
<ele>3273</ele>
<time>2016-10-08T21:17:20Z</time>
</trkpt>
<trkpt lat="36.735137939453125" lon="-118.41197204589844">
<ele>3274</ele>
<time>2016-10-08T21:17:30Z</time>
</trkpt>
<trkpt lat="36.73517608642578" lon="-118.41193389892578">
<ele>3276</ele>
<time>2016-10-08T21:17:39Z</time>
</trkpt>
<trkpt lat="36.73528289794922" lon="-118.41197204589844">
<ele>3275</ele>
<time>2016-10-08T21:17:45Z</time>
</trkpt>
<trkpt lat="36.735382080078125" lon="-118.4120101928711">
<ele>3277</ele>
<time>2016-10-08T21:17:51Z</time>
</trkpt>
<trkpt lat="36.73548889160156" lon="-118.41203308105469">
<ele>3277</ele>
<time>2016-10-08T21:18:00Z</time>
</trkpt>
<trkpt lat="36.73558807373047" lon="-118.41195678710938">
<ele>3275</ele>
<time>2016-10-08T21:18:09Z</time>
</trkpt>
<trkpt lat="36.735626220703125" lon="-118.41191101074219">
<ele>3277</ele>
<time>2016-10-08T21:18:21Z</time>
</trkpt>
<trkpt lat="36.73566818237305" lon="-118.41187286376953">
<ele>3276</ele>
<time>2016-10-08T21:18:30Z</time>
</trkpt>
<trkpt lat="36.73576736450195" lon="-118.41184997558594">
<ele>3272</ele>
<time>2016-10-08T21:18:36Z</time>
</trkpt>
<trkpt lat="36.735877990722656" lon="-118.41182708740234">
<ele>3271</ele>
<time>2016-10-08T21:18:49Z</time>
</trkpt>
<trkpt lat="36.73591995239258" lon="-118.41191864013672">
<ele>3269</ele>
<time>2016-10-08T21:19:02Z</time>
</trkpt>
<trkpt lat="36.73598861694336" lon="-118.41191864013672">
<ele>3275</ele>
<time>2016-10-08T21:19:27Z</time>
</trkpt>
<trkpt lat="36.736045837402344" lon="-118.41193389892578">
<ele>3276</ele>
<time>2016-10-08T21:19:34Z</time>
</trkpt>
<trkpt lat="36.73616027832031" lon="-118.41194915771484">
<ele>3269</ele>
<time>2016-10-08T21:19:42Z</time>
</trkpt>
<trkpt lat="36.73624801635742" lon="-118.41201782226563">
<ele>3270</ele>
<time>2016-10-08T21:19:48Z</time>
</trkpt>
<trkpt lat="36.7362174987793" lon="-118.41206359863281">
<ele>3272</ele>
<time>2016-10-08T21:20:05Z</time>
</trkpt>
<trkpt lat="36.736209869384766" lon="-118.41212463378906">
<ele>3270</ele>
<time>2016-10-08T21:20:16Z</time>
</trkpt>
<trkpt lat="36.7362174987793" lon="-118.41217803955078">
<ele>3268</ele>
<time>2016-10-08T21:20:24Z</time>
</trkpt>
<trkpt lat="36.736202239990234" lon="-118.4122314453125">
<ele>3266</ele>
<time>2016-10-08T21:20:31Z</time>
</trkpt>
<trkpt lat="36.73619079589844" lon="-118.41229248046875">
<ele>3265</ele>
<time>2016-10-08T21:20:37Z</time>
</trkpt>
<trkpt lat="36.7362174987793" lon="-118.41234588623047">
<ele>3261</ele>
<time>2016-10-08T21:20:45Z</time>
</trkpt>
<trkpt lat="36.736305236816406" lon="-118.41238403320313">
<ele>3263</ele>
<time>2016-10-08T21:20:54Z</time>
</trkpt>
<trkpt lat="36.73635482788086" lon="-118.4123764038086">
<ele>3264</ele>
<time>2016-10-08T21:21:02Z</time>
</trkpt>
<trkpt lat="36.73642349243164" lon="-118.412353515625">
<ele>3264</ele>
<time>2016-10-08T21:21:09Z</time>
</trkpt>
<trkpt lat="36.73646926879883" lon="-118.41233825683594">
<ele>3260</ele>
<time>2016-10-08T21:21:16Z</time>
</trkpt>
<trkpt lat="36.736488342285156" lon="-118.41227722167969">
<ele>3263</ele>
<time>2016-10-08T21:21:23Z</time>
</trkpt>
<trkpt lat="36.7365608215332" lon="-118.41220092773438">
<ele>3262</ele>
<time>2016-10-08T21:21:30Z</time>
</trkpt>
<trkpt lat="36.73666763305664" lon="-118.41217041015625">
<ele>3266</ele>
<time>2016-10-08T21:21:39Z</time>
</trkpt>
<trkpt lat="36.73674392700195" lon="-118.41209411621094">
<ele>3266</ele>
<time>2016-10-08T21:21:50Z</time>
</trkpt>
<trkpt lat="36.736839294433594" lon="-118.41202545166016">
<ele>3265</ele>
<time>2016-10-08T21:22:03Z</time>
</trkpt>
<trkpt lat="36.73695755004883" lon="-118.41202545166016">
<ele>3270</ele>
<time>2016-10-08T21:22:12Z</time>
</trkpt>
<trkpt lat="36.7370719909668" lon="-118.41204071044922">
<ele>3266</ele>
<time>2016-10-08T21:22:21Z</time>
</trkpt>
<trkpt lat="36.737117767333984" lon="-118.41203308105469">
<ele>3267</ele>
<time>2016-10-08T21:22:30Z</time>
</trkpt>
<trkpt lat="36.73716354370117" lon="-118.4120101928711">
<ele>3263</ele>
<time>2016-10-08T21:22:41Z</time>
</trkpt>
<trkpt lat="36.73720932006836" lon="-118.41203308105469">
<ele>3259</ele>
<time>2016-10-08T21:22:54Z</time>
</trkpt>
<trkpt lat="36.73725509643555" lon="-118.41202545166016">
<ele>3260</ele>
<time>2016-10-08T21:23:01Z</time>
</trkpt>
<trkpt lat="36.73733901977539" lon="-118.41204833984375">
<ele>3257</ele>
<time>2016-10-08T21:23:19Z</time>
</trkpt>
</trkseg>
</trk>
<trk>
<name><![CDATA[10081423]]></name>
<number>24</number>
<extensions><topografix:color>ff000066</topografix:color></extensions>
<trkseg>
<trkpt lat="36.73737335205078" lon="-118.41204833984375">
<ele>3261</ele>
<time>2016-10-08T21:23:42Z</time>
</trkpt>
<trkpt lat="36.73736572265625" lon="-118.412109375">
<ele>3264</ele>
<time>2016-10-08T21:23:57Z</time>
</trkpt>
<trkpt lat="36.73739242553711" lon="-118.41215515136719">
<ele>3262</ele>
<time>2016-10-08T21:24:19Z</time>
</trkpt>
<trkpt lat="36.7374267578125" lon="-118.41220092773438">
<ele>3266</ele>
<time>2016-10-08T21:24:30Z</time>
</trkpt>
<trkpt lat="36.73749923706055" lon="-118.41226196289063">
<ele>3254</ele>
<time>2016-10-08T21:24:57Z</time>
</trkpt>
<trkpt lat="36.73759078979492" lon="-118.41228485107422">
<ele>3262</ele>
<time>2016-10-08T21:25:16Z</time>
</trkpt>
<trkpt lat="36.737613677978516" lon="-118.4122314453125">
<ele>3258</ele>
<time>2016-10-08T21:25:29Z</time>
</trkpt>
<trkpt lat="36.73765182495117" lon="-118.41226196289063">
<ele>3254</ele>
<time>2016-10-08T21:25:38Z</time>
</trkpt>
<trkpt lat="36.73762512207031" lon="-118.41231536865234">
<ele>3248</ele>
<time>2016-10-08T21:25:52Z</time>
</trkpt>
<trkpt lat="36.73764419555664" lon="-118.41236114501953">
<ele>3245</ele>
<time>2016-10-08T21:26:00Z</time>
</trkpt>
<trkpt lat="36.73771286010742" lon="-118.4124526977539">
<ele>3239</ele>
<time>2016-10-08T21:26:13Z</time>
</trkpt>
<trkpt lat="36.73775863647461" lon="-118.41246032714844">
<ele>3237</ele>
<time>2016-10-08T21:26:23Z</time>
</trkpt>
<trkpt lat="36.7378044128418" lon="-118.41248321533203">
<ele>3237</ele>
<time>2016-10-08T21:26:30Z</time>
</trkpt>
<trkpt lat="36.737850189208984" lon="-118.41249084472656">
<ele>3232</ele>
<time>2016-10-08T21:26:39Z</time>
</trkpt>
<trkpt lat="36.73785400390625" lon="-118.41243743896484">
<ele>3234</ele>
<time>2016-10-08T21:27:05Z</time>
</trkpt>
<trkpt lat="36.73790740966797" lon="-118.41243743896484">
<ele>3237</ele>
<time>2016-10-08T21:27:13Z</time>
</trkpt>
<trkpt lat="36.73795700073242" lon="-118.41242218017578">
<ele>3234</ele>
<time>2016-10-08T21:27:25Z</time>
</trkpt>
<trkpt lat="36.73796081542969" lon="-118.412353515625">
<ele>3233</ele>
<time>2016-10-08T21:27:33Z</time>
</trkpt>
<trkpt lat="36.73799133300781" lon="-118.41231536865234">
<ele>3237</ele>
<time>2016-10-08T21:27:40Z</time>
</trkpt>
<trkpt lat="36.73802185058594" lon="-118.41226196289063">
<ele>3239</ele>
<time>2016-10-08T21:27:46Z</time>
</trkpt>
<trkpt lat="36.73811340332031" lon="-118.41224670410156">
<ele>3245</ele>
<time>2016-10-08T21:28:00Z</time>
</trkpt>
<trkpt lat="36.73814010620117" lon="-118.41219329833984">
<ele>3238</ele>
<time>2016-10-08T21:28:18Z</time>
</trkpt>
<trkpt lat="36.73818588256836" lon="-118.41217803955078">
<ele>3239</ele>
<time>2016-10-08T21:28:35Z</time>
</trkpt>
<trkpt lat="36.73824691772461" lon="-118.41217041015625">
<ele>3234</ele>
<time>2016-10-08T21:28:52Z</time>
</trkpt>
<trkpt lat="36.73833084106445" lon="-118.412109375">
<ele>3233</ele>
<time>2016-10-08T21:29:01Z</time>
</trkpt>
<trkpt lat="36.73835754394531" lon="-118.41205596923828">
<ele>3234</ele>
<time>2016-10-08T21:29:12Z</time>
</trkpt>
<trkpt lat="36.738426208496094" lon="-118.41197204589844">
<ele>3233</ele>
<time>2016-10-08T21:29:21Z</time>
</trkpt>
<trkpt lat="36.738460540771484" lon="-118.41188049316406">
<ele>3218</ele>
<time>2016-10-08T21:29:58Z</time>
</trkpt>
<trkpt lat="36.738525390625" lon="-118.41185760498047">
<ele>3213</ele>
<time>2016-10-08T21:30:08Z</time>
</trkpt>
<trkpt lat="36.738616943359375" lon="-118.41181182861328">
<ele>3207</ele>
<time>2016-10-08T21:30:22Z</time>
</trkpt>
<trkpt lat="36.738712310791016" lon="-118.4117660522461">
<ele>3196</ele>
<time>2016-10-08T21:30:34Z</time>
</trkpt>
<trkpt lat="36.73876190185547" lon="-118.41177368164063">
<ele>3205</ele>
<time>2016-10-08T21:30:40Z</time>
</trkpt>
<trkpt lat="36.73882293701172" lon="-118.41173553466797">
<ele>3203</ele>
<time>2016-10-08T21:30:49Z</time>
</trkpt>
<trkpt lat="36.73891830444336" lon="-118.41169738769531">
<ele>3203</ele>
<time>2016-10-08T21:31:03Z</time>
</trkpt>
<trkpt lat="36.73896026611328" lon="-118.41166687011719">
<ele>3203</ele>
<time>2016-10-08T21:31:18Z</time>
</trkpt>
<trkpt lat="36.739009857177734" lon="-118.41165161132813">
<ele>3194</ele>
<time>2016-10-08T21:31:27Z</time>
</trkpt>
<trkpt lat="36.739051818847656" lon="-118.41162872314453">
<ele>3192</ele>
<time>2016-10-08T21:31:40Z</time>
</trkpt>
<trkpt lat="36.73912811279297" lon="-118.41160583496094">
<ele>3190</ele>
<time>2016-10-08T21:31:46Z</time>
</trkpt>
<trkpt lat="36.739219665527344" lon="-118.41155242919922">
<ele>3188</ele>
<time>2016-10-08T21:31:53Z</time>
</trkpt>
<trkpt lat="36.73930740356445" lon="-118.41150665283203">
<ele>3193</ele>
<time>2016-10-08T21:32:00Z</time>
</trkpt>
<trkpt lat="36.739402770996094" lon="-118.41146087646484">
<ele>3193</ele>
<time>2016-10-08T21:32:09Z</time>
</trkpt>
<trkpt lat="36.739501953125" lon="-118.41146850585938">
<ele>3196</ele>
<time>2016-10-08T21:32:17Z</time>
</trkpt>
<trkpt lat="36.73956298828125" lon="-118.4114990234375">
<ele>3197</ele>
<time>2016-10-08T21:32:23Z</time>
</trkpt>
<trkpt lat="36.739662170410156" lon="-118.41151428222656">
<ele>3194</ele>
<time>2016-10-08T21:32:31Z</time>
</trkpt>
<trkpt lat="36.73976135253906" lon="-118.4114761352539">
<ele>3193</ele>
<time>2016-10-08T21:32:39Z</time>
</trkpt>
<trkpt lat="36.7398567199707" lon="-118.41146087646484">
<ele>3197</ele>
<time>2016-10-08T21:32:45Z</time>
</trkpt>
<trkpt lat="36.739952087402344" lon="-118.41142272949219">
<ele>3192</ele>
<time>2016-10-08T21:32:52Z</time>
</trkpt>
<trkpt lat="36.74002456665039" lon="-118.4113540649414">
<ele>3188</ele>
<time>2016-10-08T21:33:00Z</time>
</trkpt>
<trkpt lat="36.740116119384766" lon="-118.41131591796875">
<ele>3184</ele>
<time>2016-10-08T21:33:10Z</time>
</trkpt>
<trkpt lat="36.740211486816406" lon="-118.41129302978516">
<ele>3185</ele>
<time>2016-10-08T21:33:18Z</time>
</trkpt>
<trkpt lat="36.74026107788086" lon="-118.41131591796875">
<ele>3181</ele>
<time>2016-10-08T21:33:25Z</time>
</trkpt>
<trkpt lat="36.74030685424805" lon="-118.41132354736328">
<ele>3181</ele>
<time>2016-10-08T21:33:31Z</time>
</trkpt>
<trkpt lat="36.740413665771484" lon="-118.41134643554688">
<ele>3183</ele>
<time>2016-10-08T21:33:38Z</time>
</trkpt>
<trkpt lat="36.74051284790039" lon="-118.411376953125">
<ele>3190</ele>
<time>2016-10-08T21:33:50Z</time>
</trkpt>
<trkpt lat="36.74061584472656" lon="-118.411376953125">
<ele>3189</ele>
<time>2016-10-08T21:33:57Z</time>
</trkpt>
<trkpt lat="36.74070358276367" lon="-118.41138458251953">
<ele>3195</ele>
<time>2016-10-08T21:34:03Z</time>
</trkpt>
<trkpt lat="36.740814208984375" lon="-118.411376953125">
<ele>3196</ele>
<time>2016-10-08T21:34:13Z</time>
</trkpt>
<trkpt lat="36.74092483520508" lon="-118.41139221191406">
<ele>3196</ele>
<time>2016-10-08T21:34:21Z</time>
</trkpt>
<trkpt lat="36.74102783203125" lon="-118.41136169433594">
<ele>3194</ele>
<time>2016-10-08T21:34:32Z</time>
</trkpt>
<trkpt lat="36.741050720214844" lon="-118.41141510009766">
<ele>3193</ele>
<time>2016-10-08T21:34:40Z</time>
</trkpt>
<trkpt lat="36.74110794067383" lon="-118.41143035888672">
<ele>3194</ele>
<time>2016-10-08T21:34:47Z</time>
</trkpt>
<trkpt lat="36.741207122802734" lon="-118.41144561767578">
<ele>3192</ele>
<time>2016-10-08T21:34:55Z</time>
</trkpt>
<trkpt lat="36.741241455078125" lon="-118.4114990234375">
<ele>3192</ele>
<time>2016-10-08T21:35:13Z</time>
</trkpt>
<trkpt lat="36.74131393432617" lon="-118.41158294677734">
<ele>3188</ele>
<time>2016-10-08T21:35:24Z</time>
</trkpt>
<trkpt lat="36.74135971069336" lon="-118.41157531738281">
<ele>3186</ele>
<time>2016-10-08T21:35:34Z</time>
</trkpt>
<trkpt lat="36.741458892822266" lon="-118.41156768798828">
<ele>3198</ele>
<time>2016-10-08T21:35:42Z</time>
</trkpt>
<trkpt lat="36.74155044555664" lon="-118.4115982055664">
<ele>3192</ele>
<time>2016-10-08T21:36:07Z</time>
</trkpt>
<trkpt lat="36.741641998291016" lon="-118.41163635253906">
<ele>3191</ele>
<time>2016-10-08T21:36:19Z</time>
</trkpt>
<trkpt lat="36.74174499511719" lon="-118.41165161132813">
<ele>3196</ele>
<time>2016-10-08T21:36:29Z</time>
</trkpt>
<trkpt lat="36.741825103759766" lon="-118.41172790527344">
<ele>3189</ele>
<time>2016-10-08T21:36:39Z</time>
</trkpt>
<trkpt lat="36.741886138916016" lon="-118.4117202758789">
<ele>3182</ele>
<time>2016-10-08T21:37:01Z</time>
</trkpt>
<trkpt lat="36.74198913574219" lon="-118.4117431640625">
<ele>3191</ele>
<time>2016-10-08T21:37:10Z</time>
</trkpt>
<trkpt lat="36.74203109741211" lon="-118.41168212890625">
<ele>3187</ele>
<time>2016-10-08T21:37:28Z</time>
</trkpt>
<trkpt lat="36.741981506347656" lon="-118.41159057617188">
<ele>3186</ele>
<time>2016-10-08T21:37:39Z</time>
</trkpt>
<trkpt lat="36.74205780029297" lon="-118.41158294677734">
<ele>3191</ele>
<time>2016-10-08T21:37:46Z</time>
</trkpt>
<trkpt lat="36.74215316772461" lon="-118.41155242919922">
<ele>3191</ele>
<time>2016-10-08T21:37:54Z</time>
</trkpt>
<trkpt lat="36.742183685302734" lon="-118.4114990234375">
<ele>3191</ele>
<time>2016-10-08T21:38:00Z</time>
</trkpt>
<trkpt lat="36.74224853515625" lon="-118.41141510009766">
<ele>3193</ele>
<time>2016-10-08T21:38:11Z</time>
</trkpt>
<trkpt lat="36.74235153198242" lon="-118.4113998413086">
<ele>3196</ele>
<time>2016-10-08T21:38:19Z</time>
</trkpt>
<trkpt lat="36.74237823486328" lon="-118.41134643554688">
<ele>3189</ele>
<time>2016-10-08T21:38:27Z</time>
</trkpt>
<trkpt lat="36.7424201965332" lon="-118.4112548828125">
<ele>3187</ele>
<time>2016-10-08T21:38:37Z</time>
</trkpt>
<trkpt lat="36.74248123168945" lon="-118.41118621826172">
<ele>3185</ele>
<time>2016-10-08T21:38:50Z</time>
</trkpt>
<trkpt lat="36.742469787597656" lon="-118.41111755371094">
<ele>3184</ele>
<time>2016-10-08T21:38:58Z</time>
</trkpt>
<trkpt lat="36.74254608154297" lon="-118.41104888916016">
<ele>3176</ele>
<time>2016-10-08T21:39:07Z</time>
</trkpt>
<trkpt lat="36.742637634277344" lon="-118.41111755371094">
<ele>3177</ele>
<time>2016-10-08T21:39:15Z</time>
</trkpt>
<trkpt lat="36.74273681640625" lon="-118.41110229492188">
<ele>3175</ele>
<time>2016-10-08T21:39:24Z</time>
</trkpt>
<trkpt lat="36.74283981323242" lon="-118.41112518310547">
<ele>3173</ele>
<time>2016-10-08T21:39:33Z</time>
</trkpt>
<trkpt lat="36.74288558959961" lon="-118.41111755371094">
<ele>3176</ele>
<time>2016-10-08T21:39:40Z</time>
</trkpt>
<trkpt lat="36.74302291870117" lon="-118.41106414794922">
<ele>3175</ele>
<time>2016-10-08T21:39:49Z</time>
</trkpt>
<trkpt lat="36.74311828613281" lon="-118.41101837158203">
<ele>3174</ele>
<time>2016-10-08T21:39:56Z</time>
</trkpt>
<trkpt lat="36.74320983886719" lon="-118.41094207763672">
<ele>3173</ele>
<time>2016-10-08T21:40:05Z</time>
</trkpt>
<trkpt lat="36.743324279785156" lon="-118.41091918945313">
<ele>3174</ele>
<time>2016-10-08T21:40:13Z</time>
</trkpt>
<trkpt lat="36.74345779418945" lon="-118.41087341308594">
<ele>3166</ele>
<time>2016-10-08T21:40:21Z</time>
</trkpt>
<trkpt lat="36.743553161621094" lon="-118.41085052490234">
<ele>3167</ele>
<time>2016-10-08T21:40:29Z</time>
</trkpt>
<trkpt lat="36.7436637878418" lon="-118.41080474853516">
<ele>3165</ele>
<time>2016-10-08T21:40:39Z</time>
</trkpt>
<trkpt lat="36.74372100830078" lon="-118.41075897216797">
<ele>3162</ele>
<time>2016-10-08T21:40:48Z</time>
</trkpt>
<trkpt lat="36.74380874633789" lon="-118.41079711914063">
<ele>3160</ele>
<time>2016-10-08T21:41:10Z</time>
</trkpt>
<trkpt lat="36.74381637573242" lon="-118.41085052490234">
<ele>3165</ele>
<time>2016-10-08T21:41:20Z</time>
</trkpt>
<trkpt lat="36.743900299072266" lon="-118.41089630126953">
<ele>3163</ele>
<time>2016-10-08T21:41:28Z</time>
</trkpt>
<trkpt lat="36.74394226074219" lon="-118.41093444824219">
<ele>3161</ele>
<time>2016-10-08T21:41:35Z</time>
</trkpt>
<trkpt lat="36.74400329589844" lon="-118.41098022460938">
<ele>3157</ele>
<time>2016-10-08T21:41:42Z</time>
</trkpt>
<trkpt lat="36.74404525756836" lon="-118.41102600097656">
<ele>3158</ele>
<time>2016-10-08T21:41:48Z</time>
</trkpt>
<trkpt lat="36.744083404541016" lon="-118.41107177734375">
<ele>3166</ele>
<time>2016-10-08T21:42:04Z</time>
</trkpt>
<trkpt lat="36.74418258666992" lon="-118.41106414794922">
<ele>3168</ele>
<time>2016-10-08T21:42:12Z</time>
</trkpt>
<trkpt lat="36.744224548339844" lon="-118.41101837158203">
<ele>3167</ele>
<time>2016-10-08T21:42:18Z</time>
</trkpt>
<trkpt lat="36.74432373046875" lon="-118.41099548339844">
<ele>3166</ele>
<time>2016-10-08T21:42:31Z</time>
</trkpt>
<trkpt lat="36.74436950683594" lon="-118.41098022460938">
<ele>3166</ele>
<time>2016-10-08T21:42:40Z</time>
</trkpt>
<trkpt lat="36.74443435668945" lon="-118.41099548339844">
<ele>3166</ele>
<time>2016-10-08T21:42:49Z</time>
</trkpt>
<trkpt lat="36.74448776245117" lon="-118.41104125976563">
<ele>3163</ele>
<time>2016-10-08T21:43:05Z</time>
</trkpt>
<trkpt lat="36.744537353515625" lon="-118.41105651855469">
<ele>3161</ele>
<time>2016-10-08T21:43:13Z</time>
</trkpt>
<trkpt lat="36.74458312988281" lon="-118.41106414794922">
<ele>3162</ele>
<time>2016-10-08T21:43:29Z</time>
</trkpt>
<trkpt lat="36.74467849731445" lon="-118.41102600097656">
<ele>3158</ele>
<time>2016-10-08T21:43:39Z</time>
</trkpt>
<trkpt lat="36.7447395324707" lon="-118.41096496582031">
<ele>3159</ele>
<time>2016-10-08T21:43:48Z</time>
</trkpt>
<trkpt lat="36.74482727050781" lon="-118.41092681884766">
<ele>3156</ele>
<time>2016-10-08T21:43:57Z</time>
</trkpt>
<trkpt lat="36.744911193847656" lon="-118.41087341308594">
<ele>3154</ele>
<time>2016-10-08T21:44:05Z</time>
</trkpt>
<trkpt lat="36.7449951171875" lon="-118.41081237792969">
<ele>3153</ele>
<time>2016-10-08T21:44:16Z</time>
</trkpt>
<trkpt lat="36.74507522583008" lon="-118.41071319580078">
<ele>3157</ele>
<time>2016-10-08T21:44:23Z</time>
</trkpt>
<trkpt lat="36.745155334472656" lon="-118.4106216430664">
<ele>3157</ele>
<time>2016-10-08T21:44:29Z</time>
</trkpt>
<trkpt lat="36.74521255493164" lon="-118.41053009033203">
<ele>3157</ele>
<time>2016-10-08T21:44:42Z</time>
</trkpt>
<trkpt lat="36.7452507019043" lon="-118.4104995727539">
<ele>3162</ele>
<time>2016-10-08T21:44:49Z</time>
</trkpt>
<trkpt lat="36.74533462524414" lon="-118.41044616699219">
<ele>3157</ele>
<time>2016-10-08T21:45:00Z</time>
</trkpt>
<trkpt lat="36.74536895751953" lon="-118.41040802001953">
<ele>3156</ele>
<time>2016-10-08T21:45:07Z</time>
</trkpt>
<trkpt lat="36.745452880859375" lon="-118.41033935546875">
<ele>3153</ele>
<time>2016-10-08T21:45:15Z</time>
</trkpt>
<trkpt lat="36.745540618896484" lon="-118.4102554321289">
<ele>3149</ele>
<time>2016-10-08T21:45:21Z</time>
</trkpt>
<trkpt lat="36.74561309814453" lon="-118.41016387939453">
<ele>3150</ele>
<time>2016-10-08T21:45:31Z</time>
</trkpt>
<trkpt lat="36.745628356933594" lon="-118.41011047363281">
<ele>3148</ele>
<time>2016-10-08T21:45:38Z</time>
</trkpt>
<trkpt lat="36.74571228027344" lon="-118.4100570678711">
<ele>3143</ele>
<time>2016-10-08T21:45:45Z</time>
</trkpt>
<trkpt lat="36.74581527709961" lon="-118.41000366210938">
<ele>3145</ele>
<time>2016-10-08T21:45:52Z</time>
</trkpt>
<trkpt lat="36.745845794677734" lon="-118.40995025634766">
<ele>3140</ele>
<time>2016-10-08T21:45:58Z</time>
</trkpt>
<trkpt lat="36.74595260620117" lon="-118.409912109375">
<ele>3140</ele>
<time>2016-10-08T21:46:05Z</time>
</trkpt>
<trkpt lat="36.74601745605469" lon="-118.40984344482422">
<ele>3134</ele>
<time>2016-10-08T21:46:14Z</time>
</trkpt>
<trkpt lat="36.746063232421875" lon="-118.40982055664063">
<ele>3132</ele>
<time>2016-10-08T21:46:20Z</time>
</trkpt>
<trkpt lat="36.74615478515625" lon="-118.4097671508789">
<ele>3127</ele>
<time>2016-10-08T21:46:31Z</time>
</trkpt>
<trkpt lat="36.746280670166016" lon="-118.4097671508789">
<ele>3127</ele>
<time>2016-10-08T21:46:38Z</time>
</trkpt>
<trkpt lat="36.74639892578125" lon="-118.40970611572266">
<ele>3123</ele>
<time>2016-10-08T21:46:47Z</time>
</trkpt>
<trkpt lat="36.746517181396484" lon="-118.40972137451172">
<ele>3121</ele>
<time>2016-10-08T21:46:56Z</time>
</trkpt>
<trkpt lat="36.74662780761719" lon="-118.40972137451172">
<ele>3123</ele>
<time>2016-10-08T21:47:04Z</time>
</trkpt>
<trkpt lat="36.74672317504883" lon="-118.40974426269531">
<ele>3124</ele>
<time>2016-10-08T21:47:11Z</time>
</trkpt>
<trkpt lat="36.74677276611328" lon="-118.40975189208984">
<ele>3125</ele>
<time>2016-10-08T21:47:18Z</time>
</trkpt>
<trkpt lat="36.74680709838867" lon="-118.40971374511719">
<ele>3124</ele>
<time>2016-10-08T21:47:25Z</time>
</trkpt>
<trkpt lat="36.746864318847656" lon="-118.40970611572266">
<ele>3129</ele>
<time>2016-10-08T21:47:31Z</time>
</trkpt>
<trkpt lat="36.74691390991211" lon="-118.40972900390625">
<ele>3126</ele>
<time>2016-10-08T21:47:37Z</time>
</trkpt>
<trkpt lat="36.74700164794922" lon="-118.40979766845703">
<ele>3129</ele>
<time>2016-10-08T21:47:45Z</time>
</trkpt>
<trkpt lat="36.7470817565918" lon="-118.40982055664063">
<ele>3126</ele>
<time>2016-10-08T21:47:55Z</time>
</trkpt>
<trkpt lat="36.74720001220703" lon="-118.40983581542969">
<ele>3118</ele>
<time>2016-10-08T21:48:02Z</time>
</trkpt>
<trkpt lat="36.74730682373047" lon="-118.40982055664063">
<ele>3118</ele>
<time>2016-10-08T21:48:10Z</time>
</trkpt>
<trkpt lat="36.74732208251953" lon="-118.4097671508789">
<ele>3115</ele>
<time>2016-10-08T21:48:17Z</time>
</trkpt>
<trkpt lat="36.74742889404297" lon="-118.40975189208984">
<ele>3118</ele>
<time>2016-10-08T21:48:24Z</time>
</trkpt>
<trkpt lat="36.747528076171875" lon="-118.40975189208984">
<ele>3124</ele>
<time>2016-10-08T21:48:31Z</time>
</trkpt>
<trkpt lat="36.74762725830078" lon="-118.40975189208984">
<ele>3126</ele>
<time>2016-10-08T21:48:38Z</time>
</trkpt>
<trkpt lat="36.747737884521484" lon="-118.40966796875">
<ele>3132</ele>
<time>2016-10-08T21:48:46Z</time>
</trkpt>
<trkpt lat="36.747840881347656" lon="-118.4096450805664">
<ele>3137</ele>
<time>2016-10-08T21:48:54Z</time>
</trkpt>
<trkpt lat="36.747989654541016" lon="-118.40961456298828">
<ele>3140</ele>
<time>2016-10-08T21:49:01Z</time>
</trkpt>
<trkpt lat="36.74808883666992" lon="-118.40958404541016">
<ele>3136</ele>
<time>2016-10-08T21:49:10Z</time>
</trkpt>
<trkpt lat="36.748146057128906" lon="-118.40959930419922">
<ele>3131</ele>
<time>2016-10-08T21:49:19Z</time>
</trkpt>
<trkpt lat="36.748233795166016" lon="-118.40957641601563">
<ele>3125</ele>
<time>2016-10-08T21:49:28Z</time>
</trkpt>
<trkpt lat="36.74830627441406" lon="-118.40950012207031">
<ele>3121</ele>
<time>2016-10-08T21:49:39Z</time>
</trkpt>
<trkpt lat="36.74838638305664" lon="-118.40949249267578">
<ele>3119</ele>
<time>2016-10-08T21:49:46Z</time>
</trkpt>
<trkpt lat="36.74848175048828" lon="-118.4095230102539">
<ele>3120</ele>
<time>2016-10-08T21:49:55Z</time>
</trkpt>
<trkpt lat="36.74851989746094" lon="-118.40955352783203">
<ele>3114</ele>
<time>2016-10-08T21:50:02Z</time>
</trkpt>
<trkpt lat="36.748619079589844" lon="-118.40953063964844">
<ele>3124</ele>
<time>2016-10-08T21:50:10Z</time>
</trkpt>
<trkpt lat="36.74866485595703" lon="-118.40950012207031">
<ele>3118</ele>
<time>2016-10-08T21:50:18Z</time>
</trkpt>
<trkpt lat="36.748775482177734" lon="-118.40950012207031">
<ele>3116</ele>
<time>2016-10-08T21:50:24Z</time>
</trkpt>
<trkpt lat="36.748836517333984" lon="-118.4094467163086">
<ele>3111</ele>
<time>2016-10-08T21:50:32Z</time>
</trkpt>
<trkpt lat="36.74888610839844" lon="-118.40937042236328">
<ele>3100</ele>
<time>2016-10-08T21:50:59Z</time>
</trkpt>
<trkpt lat="36.748836517333984" lon="-118.40936279296875">
<ele>3091</ele>
<time>2016-10-08T21:51:05Z</time>
</trkpt>
<trkpt lat="36.748802185058594" lon="-118.40931701660156">
<ele>3091</ele>
<time>2016-10-08T21:51:13Z</time>
</trkpt>
<trkpt lat="36.748844146728516" lon="-118.40921783447266">
<ele>3097</ele>
<time>2016-10-08T21:51:24Z</time>
</trkpt>
<trkpt lat="36.74894714355469" lon="-118.4092025756836">
<ele>3093</ele>
<time>2016-10-08T21:51:31Z</time>
</trkpt>
<trkpt lat="36.748966217041016" lon="-118.4091567993164">
<ele>3090</ele>
<time>2016-10-08T21:51:40Z</time>
</trkpt>
<trkpt lat="36.74892044067383" lon="-118.40909576416016">
<ele>3088</ele>
<time>2016-10-08T21:51:46Z</time>
</trkpt>
<trkpt lat="36.74893569946289" lon="-118.40904235839844">
<ele>3088</ele>
<time>2016-10-08T21:51:54Z</time>
</trkpt>
<trkpt lat="36.74900817871094" lon="-118.40898132324219">
<ele>3088</ele>
<time>2016-10-08T21:52:07Z</time>
</trkpt>
<trkpt lat="36.74907302856445" lon="-118.40897369384766">
<ele>3088</ele>
<time>2016-10-08T21:52:13Z</time>
</trkpt>
<trkpt lat="36.749122619628906" lon="-118.40898132324219">
<ele>3090</ele>
<time>2016-10-08T21:52:19Z</time>
</trkpt>
<trkpt lat="36.7490348815918" lon="-118.4089584350586">
<ele>3090</ele>
<time>2016-10-08T21:52:30Z</time>
</trkpt>
<trkpt lat="36.7490119934082" lon="-118.40890502929688">
<ele>3084</ele>
<time>2016-10-08T21:52:39Z</time>
</trkpt>
<trkpt lat="36.749061584472656" lon="-118.40884399414063">
<ele>3086</ele>
<time>2016-10-08T21:52:47Z</time>
</trkpt>
<trkpt lat="36.74909591674805" lon="-118.40880584716797">
<ele>3085</ele>
<time>2016-10-08T21:53:01Z</time>
</trkpt>
<trkpt lat="36.749210357666016" lon="-118.40876007080078">
<ele>3090</ele>
<time>2016-10-08T21:53:08Z</time>
</trkpt>
<trkpt lat="36.74931716918945" lon="-118.40873718261719">
<ele>3087</ele>
<time>2016-10-08T21:53:18Z</time>
</trkpt>
<trkpt lat="36.749366760253906" lon="-118.40876007080078">
<ele>3084</ele>
<time>2016-10-08T21:53:31Z</time>
</trkpt>
<trkpt lat="36.74946212768555" lon="-118.40876007080078">
<ele>3082</ele>
<time>2016-10-08T21:53:37Z</time>
</trkpt>
<trkpt lat="36.74956512451172" lon="-118.4087905883789">
<ele>3085</ele>
<time>2016-10-08T21:53:46Z</time>
</trkpt>
<trkpt lat="36.749610900878906" lon="-118.40879821777344">
<ele>3078</ele>
<time>2016-10-08T21:53:54Z</time>
</trkpt>
<trkpt lat="36.74962615966797" lon="-118.40874481201172">
<ele>3072</ele>
<time>2016-10-08T21:54:05Z</time>
</trkpt>
<trkpt lat="36.749671936035156" lon="-118.40872192382813">
<ele>3076</ele>
<time>2016-10-08T21:54:12Z</time>
</trkpt>
<trkpt lat="36.749778747558594" lon="-118.40870666503906">
<ele>3076</ele>
<time>2016-10-08T21:54:20Z</time>
</trkpt>
<trkpt lat="36.74982833862305" lon="-118.40860748291016">
<ele>3073</ele>
<time>2016-10-08T21:54:30Z</time>
</trkpt>
<trkpt lat="36.74991989135742" lon="-118.40856170654297">
<ele>3070</ele>
<time>2016-10-08T21:54:41Z</time>
</trkpt>
<trkpt lat="36.749977111816406" lon="-118.40852355957031">
<ele>3069</ele>
<time>2016-10-08T21:54:49Z</time>
</trkpt>
<trkpt lat="36.75001907348633" lon="-118.40850067138672">
<ele>3068</ele>
<time>2016-10-08T21:54:55Z</time>
</trkpt>
<trkpt lat="36.75004577636719" lon="-118.40845489501953">
<ele>3070</ele>
<time>2016-10-08T21:55:02Z</time>
</trkpt>
<trkpt lat="36.75009536743164" lon="-118.40843200683594">
<ele>3062</ele>
<time>2016-10-08T21:55:12Z</time>
</trkpt>
<trkpt lat="36.750144958496094" lon="-118.408447265625">
<ele>3061</ele>
<time>2016-10-08T21:55:27Z</time>
</trkpt>
<trkpt lat="36.75019073486328" lon="-118.4084243774414">
<ele>3061</ele>
<time>2016-10-08T21:55:35Z</time>
</trkpt>
<trkpt lat="36.75029373168945" lon="-118.40841674804688">
<ele>3055</ele>
<time>2016-10-08T21:55:42Z</time>
</trkpt>
<trkpt lat="36.750389099121094" lon="-118.40840148925781">
<ele>3052</ele>
<time>2016-10-08T21:55:51Z</time>
</trkpt>
<trkpt lat="36.75041961669922" lon="-118.40836334228516">
<ele>3047</ele>
<time>2016-10-08T21:55:57Z</time>
</trkpt>
<trkpt lat="36.75047302246094" lon="-118.4083480834961">
<ele>3046</ele>
<time>2016-10-08T21:56:04Z</time>
</trkpt>
<trkpt lat="36.75052261352539" lon="-118.40834045410156">
<ele>3048</ele>
<time>2016-10-08T21:56:13Z</time>
</trkpt>
<trkpt lat="36.75060272216797" lon="-118.40828704833984">
<ele>3046</ele>
<time>2016-10-08T21:56:47Z</time>
</trkpt>
<trkpt lat="36.75063705444336" lon="-118.40824890136719">
<ele>3049</ele>
<time>2016-10-08T21:56:53Z</time>
</trkpt>
<trkpt lat="36.75068283081055" lon="-118.4082260131836">
<ele>3048</ele>
<time>2016-10-08T21:56:59Z</time>
</trkpt>
<trkpt lat="36.750728607177734" lon="-118.40824127197266">
<ele>3049</ele>
<time>2016-10-08T21:57:05Z</time>
</trkpt>
<trkpt lat="36.750823974609375" lon="-118.40826416015625">
<ele>3051</ele>
<time>2016-10-08T21:57:16Z</time>
</trkpt>
<trkpt lat="36.7508659362793" lon="-118.4082260131836">
<ele>3045</ele>
<time>2016-10-08T21:57:24Z</time>
</trkpt>
<trkpt lat="36.750877380371094" lon="-118.40816497802734">
<ele>3041</ele>
<time>2016-10-08T21:57:32Z</time>
</trkpt>
<trkpt lat="36.750953674316406" lon="-118.4081039428711">
<ele>3043</ele>
<time>2016-10-08T21:57:42Z</time>
</trkpt>
<trkpt lat="36.751041412353516" lon="-118.40806579589844">
<ele>3045</ele>
<time>2016-10-08T21:57:58Z</time>
</trkpt>
<trkpt lat="36.75109100341797" lon="-118.4080581665039">
<ele>3042</ele>
<time>2016-10-08T21:58:16Z</time>
</trkpt>
<trkpt lat="36.751136779785156" lon="-118.40802001953125">
<ele>3040</ele>
<time>2016-10-08T21:58:29Z</time>
</trkpt>
<trkpt lat="36.75117111206055" lon="-118.4079818725586">
<ele>3039</ele>
<time>2016-10-08T21:58:35Z</time>
</trkpt>
<trkpt lat="36.751163482666016" lon="-118.40791320800781">
<ele>3036</ele>
<time>2016-10-08T21:58:42Z</time>
</trkpt>
<trkpt lat="36.75127410888672" lon="-118.40790557861328">
<ele>3031</ele>
<time>2016-10-08T21:58:51Z</time>
</trkpt>
<trkpt lat="36.751319885253906" lon="-118.40789794921875">
<ele>3031</ele>
<time>2016-10-08T21:59:08Z</time>
</trkpt>
<trkpt lat="36.751365661621094" lon="-118.40786743164063">
<ele>3026</ele>
<time>2016-10-08T21:59:14Z</time>
</trkpt>
<trkpt lat="36.75144958496094" lon="-118.40780639648438">
<ele>3028</ele>
<time>2016-10-08T21:59:41Z</time>
</trkpt>
<trkpt lat="36.751556396484375" lon="-118.40780639648438">
<ele>3023</ele>
<time>2016-10-08T21:59:48Z</time>
</trkpt>
<trkpt lat="36.751583099365234" lon="-118.40776062011719">
<ele>3028</ele>
<time>2016-10-08T21:59:54Z</time>
</trkpt>
<trkpt lat="36.7515869140625" lon="-118.40765380859375">
<ele>3029</ele>
<time>2016-10-08T22:00:11Z</time>
</trkpt>
<trkpt lat="36.751548767089844" lon="-118.40760803222656">
<ele>3026</ele>
<time>2016-10-08T22:00:19Z</time>
</trkpt>
<trkpt lat="36.75156784057617" lon="-118.40752410888672">
<ele>3027</ele>
<time>2016-10-08T22:00:30Z</time>
</trkpt>
<trkpt lat="36.7515754699707" lon="-118.40745544433594">
<ele>3017</ele>
<time>2016-10-08T22:00:37Z</time>
</trkpt>
<trkpt lat="36.75153732299805" lon="-118.40731048583984">
<ele>3017</ele>
<time>2016-10-08T22:00:47Z</time>
</trkpt>
<trkpt lat="36.75157928466797" lon="-118.40718841552734">
<ele>3011</ele>
<time>2016-10-08T22:00:55Z</time>
</trkpt>
<trkpt lat="36.75156021118164" lon="-118.40707397460938">
<ele>3013</ele>
<time>2016-10-08T22:01:02Z</time>
</trkpt>
<trkpt lat="36.75157928466797" lon="-118.40695190429688">
<ele>3015</ele>
<time>2016-10-08T22:01:10Z</time>
</trkpt>
<trkpt lat="36.75164031982422" lon="-118.40685272216797">
<ele>3012</ele>
<time>2016-10-08T22:01:18Z</time>
</trkpt>
<trkpt lat="36.751678466796875" lon="-118.40673828125">
<ele>3015</ele>
<time>2016-10-08T22:01:25Z</time>
</trkpt>
<trkpt lat="36.7517204284668" lon="-118.4066162109375">
<ele>3014</ele>
<time>2016-10-08T22:01:34Z</time>
</trkpt>
<trkpt lat="36.75176239013672" lon="-118.40658569335938">
<ele>3011</ele>
<time>2016-10-08T22:01:42Z</time>
</trkpt>
<trkpt lat="36.75185012817383" lon="-118.40653228759766">
<ele>3011</ele>
<time>2016-10-08T22:01:51Z</time>
</trkpt>
<trkpt lat="36.75188446044922" lon="-118.40648651123047">
<ele>3010</ele>
<time>2016-10-08T22:01:58Z</time>
</trkpt>
<trkpt lat="36.751914978027344" lon="-118.40644836425781">
<ele>3006</ele>
<time>2016-10-08T22:02:16Z</time>
</trkpt>
</trkseg>
</trk>
<trk>
<name><![CDATA[10081503]]></name>
<number>25</number>
<extensions><topografix:color>ff000066</topografix:color></extensions>
<trkseg>
<trkpt lat="36.75190353393555" lon="-118.40644836425781">
<ele>3009</ele>
<time>2016-10-08T22:03:05Z</time>
</trkpt>
<trkpt lat="36.751888275146484" lon="-118.40638732910156">
<ele>3009</ele>
<time>2016-10-08T22:03:12Z</time>
</trkpt>
<trkpt lat="36.75187301635742" lon="-118.40632629394531">
<ele>3014</ele>
<time>2016-10-08T22:03:19Z</time>
</trkpt>
<trkpt lat="36.7519416809082" lon="-118.40638732910156">
<ele>3013</ele>
<time>2016-10-08T22:03:26Z</time>
</trkpt>
<trkpt lat="36.751953125" lon="-118.40644073486328">
<ele>3013</ele>
<time>2016-10-08T22:03:37Z</time>
</trkpt>
<trkpt lat="36.75190353393555" lon="-118.40643310546875">
<ele>3006</ele>
<time>2016-10-08T22:05:21Z</time>
</trkpt>
<trkpt lat="36.7519416809082" lon="-118.40646362304688">
<ele>3014</ele>
<time>2016-10-08T22:05:54Z</time>
</trkpt>
<trkpt lat="36.751949310302734" lon="-118.4066162109375">
<ele>3006</ele>
<time>2016-10-08T22:09:13Z</time>
</trkpt>
<trkpt lat="36.751861572265625" lon="-118.40653228759766">
<ele>3019</ele>
<time>2016-10-08T22:09:34Z</time>
</trkpt>
<trkpt lat="36.75189971923828" lon="-118.40647888183594">
<ele>3016</ele>
<time>2016-10-08T22:09:42Z</time>
</trkpt>
<trkpt lat="36.751949310302734" lon="-118.40637969970703">
<ele>3016</ele>
<time>2016-10-08T22:09:50Z</time>
</trkpt>
<trkpt lat="36.75200271606445" lon="-118.4063720703125">
<ele>3015</ele>
<time>2016-10-08T22:09:56Z</time>
</trkpt>
<trkpt lat="36.752159118652344" lon="-118.4062728881836">
<ele>3015</ele>
<time>2016-10-08T22:10:04Z</time>
</trkpt>
<trkpt lat="36.75226593017578" lon="-118.40621185302734">
<ele>3015</ele>
<time>2016-10-08T22:10:10Z</time>
</trkpt>
<trkpt lat="36.75236892700195" lon="-118.40617370605469">
<ele>3014</ele>
<time>2016-10-08T22:10:18Z</time>
</trkpt>
<trkpt lat="36.75240707397461" lon="-118.40614318847656">
<ele>3014</ele>
<time>2016-10-08T22:10:24Z</time>
</trkpt>
<trkpt lat="36.7524528503418" lon="-118.40604400634766">
<ele>3008</ele>
<time>2016-10-08T22:10:33Z</time>
</trkpt>
<trkpt lat="36.752532958984375" lon="-118.40596008300781">
<ele>3006</ele>
<time>2016-10-08T22:10:42Z</time>
</trkpt>
<trkpt lat="36.75261306762695" lon="-118.40585327148438">
<ele>3004</ele>
<time>2016-10-08T22:10:51Z</time>
</trkpt>
<trkpt lat="36.752742767333984" lon="-118.40576934814453">
<ele>3009</ele>
<time>2016-10-08T22:10:58Z</time>
</trkpt>
<trkpt lat="36.75278091430664" lon="-118.4057388305664">
<ele>3004</ele>
<time>2016-10-08T22:11:05Z</time>
</trkpt>
<trkpt lat="36.7528190612793" lon="-118.40570068359375">
<ele>2998</ele>
<time>2016-10-08T22:11:17Z</time>
</trkpt>
<trkpt lat="36.75291442871094" lon="-118.40570068359375">
<ele>2996</ele>
<time>2016-10-08T22:11:27Z</time>
</trkpt>
<trkpt lat="36.75301742553711" lon="-118.40568542480469">
<ele>3000</ele>
<time>2016-10-08T22:11:33Z</time>
</trkpt>
<trkpt lat="36.75313949584961" lon="-118.40567779541016">
<ele>2998</ele>
<time>2016-10-08T22:11:41Z</time>
</trkpt>
<trkpt lat="36.75325393676758" lon="-118.40569305419922">
<ele>2995</ele>
<time>2016-10-08T22:11:48Z</time>
</trkpt>
<trkpt lat="36.75341033935547" lon="-118.40567016601563">
<ele>2995</ele>
<time>2016-10-08T22:11:55Z</time>
</trkpt>
<trkpt lat="36.7535285949707" lon="-118.40567779541016">
<ele>2993</ele>
<time>2016-10-08T22:12:01Z</time>
</trkpt>
<trkpt lat="36.753658294677734" lon="-118.40570831298828">
<ele>2984</ele>
<time>2016-10-08T22:12:11Z</time>
</trkpt>
<trkpt lat="36.753753662109375" lon="-118.40569305419922">
<ele>2981</ele>
<time>2016-10-08T22:12:18Z</time>
</trkpt>
<trkpt lat="36.75386047363281" lon="-118.40569305419922">
<ele>2981</ele>
<time>2016-10-08T22:12:24Z</time>
</trkpt>
<trkpt lat="36.7540168762207" lon="-118.40563201904297">
<ele>2975</ele>
<time>2016-10-08T22:12:33Z</time>
</trkpt>
<trkpt lat="36.75410461425781" lon="-118.40563201904297">
<ele>2968</ele>
<time>2016-10-08T22:12:42Z</time>
</trkpt>
<trkpt lat="36.754150390625" lon="-118.40565490722656">
<ele>2968</ele>
<time>2016-10-08T22:12:48Z</time>
</trkpt>
<trkpt lat="36.75425720214844" lon="-118.40570068359375">
<ele>2971</ele>
<time>2016-10-08T22:12:54Z</time>
</trkpt>
<trkpt lat="36.75436019897461" lon="-118.40576171875">
<ele>2974</ele>
<time>2016-10-08T22:13:02Z</time>
</trkpt>
<trkpt lat="36.75444412231445" lon="-118.40579223632813">
<ele>2974</ele>
<time>2016-10-08T22:13:16Z</time>
</trkpt>
<trkpt lat="36.75448989868164" lon="-118.40579986572266">
<ele>2970</ele>
<time>2016-10-08T22:13:23Z</time>
</trkpt>
<trkpt lat="36.754554748535156" lon="-118.40579986572266">
<ele>2967</ele>
<time>2016-10-08T22:13:30Z</time>
</trkpt>
<trkpt lat="36.75465393066406" lon="-118.40581512451172">
<ele>2967</ele>
<time>2016-10-08T22:13:36Z</time>
</trkpt>
<trkpt lat="36.75475311279297" lon="-118.40583801269531">
<ele>2964</ele>
<time>2016-10-08T22:13:44Z</time>
</trkpt>
<trkpt lat="36.754798889160156" lon="-118.40584564208984">
<ele>2963</ele>
<time>2016-10-08T22:13:51Z</time>
</trkpt>
<trkpt lat="36.75489044189453" lon="-118.40585327148438">
<ele>2954</ele>
<time>2016-10-08T22:13:58Z</time>
</trkpt>
<trkpt lat="36.75497055053711" lon="-118.4058837890625">
<ele>2951</ele>
<time>2016-10-08T22:14:05Z</time>
</trkpt>
<trkpt lat="36.755062103271484" lon="-118.4058837890625">
<ele>2947</ele>
<time>2016-10-08T22:14:22Z</time>
</trkpt>
<trkpt lat="36.755096435546875" lon="-118.40584564208984">
<ele>2944</ele>
<time>2016-10-08T22:14:31Z</time>
</trkpt>
<trkpt lat="36.75516128540039" lon="-118.40576171875">
<ele>2940</ele>
<time>2016-10-08T22:14:38Z</time>
</trkpt>
<trkpt lat="36.75526809692383" lon="-118.40579986572266">
<ele>2945</ele>
<time>2016-10-08T22:14:44Z</time>
</trkpt>
<trkpt lat="36.75535202026367" lon="-118.40585327148438">
<ele>2939</ele>
<time>2016-10-08T22:14:52Z</time>
</trkpt>
<trkpt lat="36.75544738769531" lon="-118.4058609008789">
<ele>2935</ele>
<time>2016-10-08T22:15:02Z</time>
</trkpt>
<trkpt lat="36.75551223754883" lon="-118.40583801269531">
<ele>2935</ele>
<time>2016-10-08T22:15:10Z</time>
</trkpt>
<trkpt lat="36.755558013916016" lon="-118.40580749511719">
<ele>2934</ele>
<time>2016-10-08T22:15:17Z</time>
</trkpt>
<trkpt lat="36.75558853149414" lon="-118.40571594238281">
<ele>2933</ele>
<time>2016-10-08T22:15:26Z</time>
</trkpt>
<trkpt lat="36.755592346191406" lon="-118.40564727783203">
<ele>2931</ele>
<time>2016-10-08T22:15:32Z</time>
</trkpt>
<trkpt lat="36.75563430786133" lon="-118.4056167602539">
<ele>2933</ele>
<time>2016-10-08T22:15:40Z</time>
</trkpt>
<trkpt lat="36.755638122558594" lon="-118.40554809570313">
<ele>2928</ele>
<time>2016-10-08T22:15:48Z</time>
</trkpt>
<trkpt lat="36.75567626953125" lon="-118.40550994873047">
<ele>2921</ele>
<time>2016-10-08T22:15:56Z</time>
</trkpt>
<trkpt lat="36.755706787109375" lon="-118.40547180175781">
<ele>2917</ele>
<time>2016-10-08T22:16:02Z</time>
</trkpt>
<trkpt lat="36.75566864013672" lon="-118.40538787841797">
<ele>2911</ele>
<time>2016-10-08T22:16:12Z</time>
</trkpt>
<trkpt lat="36.75569534301758" lon="-118.40533447265625">
<ele>2912</ele>
<time>2016-10-08T22:16:21Z</time>
</trkpt>
<trkpt lat="36.75579071044922" lon="-118.40531921386719">
<ele>2911</ele>
<time>2016-10-08T22:16:29Z</time>
</trkpt>
<trkpt lat="36.755897521972656" lon="-118.40533447265625">
<ele>2908</ele>
<time>2016-10-08T22:16:38Z</time>
</trkpt>
<trkpt lat="36.756004333496094" lon="-118.4053726196289">
<ele>2907</ele>
<time>2016-10-08T22:16:48Z</time>
</trkpt>
<trkpt lat="36.756103515625" lon="-118.40541076660156">
<ele>2904</ele>
<time>2016-10-08T22:16:56Z</time>
</trkpt>
<trkpt lat="36.75617599487305" lon="-118.4054946899414">
<ele>2904</ele>
<time>2016-10-08T22:17:05Z</time>
</trkpt>
<trkpt lat="36.75627899169922" lon="-118.4054946899414">
<ele>2901</ele>
<time>2016-10-08T22:17:14Z</time>
</trkpt>
<trkpt lat="36.756370544433594" lon="-118.40554809570313">
<ele>2899</ele>
<time>2016-10-08T22:17:25Z</time>
</trkpt>
<trkpt lat="36.7564582824707" lon="-118.40555572509766">
<ele>2893</ele>
<time>2016-10-08T22:17:34Z</time>
</trkpt>
<trkpt lat="36.756561279296875" lon="-118.40550231933594">
<ele>2889</ele>
<time>2016-10-08T22:17:43Z</time>
</trkpt>
<trkpt lat="36.75663757324219" lon="-118.40541076660156">
<ele>2885</ele>
<time>2016-10-08T22:17:50Z</time>
</trkpt>
<trkpt lat="36.756717681884766" lon="-118.40534210205078">
<ele>2880</ele>
<time>2016-10-08T22:18:05Z</time>
</trkpt>
<trkpt lat="36.756752014160156" lon="-118.40530395507813">
<ele>2878</ele>
<time>2016-10-08T22:18:11Z</time>
</trkpt>
<trkpt lat="36.75678634643555" lon="-118.40525817871094">
<ele>2876</ele>
<time>2016-10-08T22:18:20Z</time>
</trkpt>
<trkpt lat="36.75687026977539" lon="-118.40520477294922">
<ele>2875</ele>
<time>2016-10-08T22:18:27Z</time>
</trkpt>
<trkpt lat="36.75687789916992" lon="-118.40514373779297">
<ele>2872</ele>
<time>2016-10-08T22:18:34Z</time>
</trkpt>
<trkpt lat="36.75685501098633" lon="-118.40509033203125">
<ele>2875</ele>
<time>2016-10-08T22:18:40Z</time>
</trkpt>
<trkpt lat="36.75678253173828" lon="-118.40501403808594">
<ele>2872</ele>
<time>2016-10-08T22:18:52Z</time>
</trkpt>
<trkpt lat="36.756832122802734" lon="-118.405029296875">
<ele>2878</ele>
<time>2016-10-08T22:19:33Z</time>
</trkpt>
<trkpt lat="36.756919860839844" lon="-118.40504455566406">
<ele>2878</ele>
<time>2016-10-08T22:19:44Z</time>
</trkpt>
<trkpt lat="36.756954193115234" lon="-118.4050064086914">
<ele>2878</ele>
<time>2016-10-08T22:19:54Z</time>
</trkpt>
<trkpt lat="36.756980895996094" lon="-118.40491485595703">
<ele>2876</ele>
<time>2016-10-08T22:20:05Z</time>
</trkpt>
<trkpt lat="36.757057189941406" lon="-118.40483093261719">
<ele>2875</ele>
<time>2016-10-08T22:20:15Z</time>
</trkpt>
<trkpt lat="36.75709915161133" lon="-118.40479278564453">
<ele>2876</ele>
<time>2016-10-08T22:20:28Z</time>
</trkpt>
<trkpt lat="36.75713348388672" lon="-118.40483856201172">
<ele>2878</ele>
<time>2016-10-08T22:20:40Z</time>
</trkpt>
<trkpt lat="36.75715637207031" lon="-118.40489196777344">
<ele>2881</ele>
<time>2016-10-08T22:20:46Z</time>
</trkpt>
<trkpt lat="36.757198333740234" lon="-118.40491485595703">
<ele>2882</ele>
<time>2016-10-08T22:20:57Z</time>
</trkpt>
<trkpt lat="36.75724792480469" lon="-118.40499114990234">
<ele>2882</ele>
<time>2016-10-08T22:21:05Z</time>
</trkpt>
<trkpt lat="36.75729751586914" lon="-118.4050064086914">
<ele>2881</ele>
<time>2016-10-08T22:21:11Z</time>
</trkpt>
<trkpt lat="36.757347106933594" lon="-118.40497589111328">
<ele>2879</ele>
<time>2016-10-08T22:21:18Z</time>
</trkpt>
<trkpt lat="36.75739288330078" lon="-118.40495300292969">
<ele>2879</ele>
<time>2016-10-08T22:21:27Z</time>
</trkpt>
<trkpt lat="36.757442474365234" lon="-118.40495300292969">
<ele>2878</ele>
<time>2016-10-08T22:21:34Z</time>
</trkpt>
<trkpt lat="36.75754928588867" lon="-118.40495300292969">
<ele>2879</ele>
<time>2016-10-08T22:21:43Z</time>
</trkpt>
<trkpt lat="36.75764083862305" lon="-118.40493774414063">
<ele>2876</ele>
<time>2016-10-08T22:21:50Z</time>
</trkpt>
<trkpt lat="36.75775146484375" lon="-118.40494537353516">
<ele>2874</ele>
<time>2016-10-08T22:21:57Z</time>
</trkpt>
<trkpt lat="36.75785446166992" lon="-118.40494537353516">
<ele>2877</ele>
<time>2016-10-08T22:22:05Z</time>
</trkpt>
<trkpt lat="36.75796890258789" lon="-118.40494537353516">
<ele>2878</ele>
<time>2016-10-08T22:22:12Z</time>
</trkpt>
<trkpt lat="36.7580680847168" lon="-118.40494537353516">
<ele>2881</ele>
<time>2016-10-08T22:22:21Z</time>
</trkpt>
<trkpt lat="36.758155822753906" lon="-118.40501403808594">
<ele>2880</ele>
<time>2016-10-08T22:22:33Z</time>
</trkpt>
<trkpt lat="36.75825881958008" lon="-118.4050521850586">
<ele>2880</ele>
<time>2016-10-08T22:22:45Z</time>
</trkpt>
<trkpt lat="36.75836181640625" lon="-118.40509033203125">
<ele>2882</ele>
<time>2016-10-08T22:22:53Z</time>
</trkpt>
<trkpt lat="36.75844955444336" lon="-118.40515899658203">
<ele>2886</ele>
<time>2016-10-08T22:23:01Z</time>
</trkpt>
<trkpt lat="36.758541107177734" lon="-118.40523529052734">
<ele>2880</ele>
<time>2016-10-08T22:23:08Z</time>
</trkpt>
<trkpt lat="36.75862121582031" lon="-118.40530395507813">
<ele>2884</ele>
<time>2016-10-08T22:23:16Z</time>
</trkpt>
<trkpt lat="36.758705139160156" lon="-118.4053726196289">
<ele>2885</ele>
<time>2016-10-08T22:23:23Z</time>
</trkpt>
<trkpt lat="36.7587776184082" lon="-118.40545654296875">
<ele>2880</ele>
<time>2016-10-08T22:23:29Z</time>
</trkpt>
<trkpt lat="36.75885009765625" lon="-118.40555572509766">
<ele>2874</ele>
<time>2016-10-08T22:23:38Z</time>
</trkpt>
<trkpt lat="36.758934020996094" lon="-118.40564727783203">
<ele>2875</ele>
<time>2016-10-08T22:23:44Z</time>
</trkpt>
<trkpt lat="36.758995056152344" lon="-118.40575408935547">
<ele>2874</ele>
<time>2016-10-08T22:23:50Z</time>
</trkpt>
<trkpt lat="36.75902557373047" lon="-118.40586853027344">
<ele>2880</ele>
<time>2016-10-08T22:23:59Z</time>
</trkpt>
<trkpt lat="36.759063720703125" lon="-118.40594482421875">
<ele>2879</ele>
<time>2016-10-08T22:24:05Z</time>
</trkpt>
<trkpt lat="36.759098052978516" lon="-118.40607452392578">
<ele>2883</ele>
<time>2016-10-08T22:24:11Z</time>
</trkpt>
<trkpt lat="36.759090423583984" lon="-118.40621185302734">
<ele>2887</ele>
<time>2016-10-08T22:24:18Z</time>
</trkpt>
<trkpt lat="36.759098052978516" lon="-118.4063491821289">
<ele>2886</ele>
<time>2016-10-08T22:24:25Z</time>
</trkpt>
<trkpt lat="36.75910949707031" lon="-118.4064712524414">
<ele>2884</ele>
<time>2016-10-08T22:24:33Z</time>
</trkpt>
<trkpt lat="36.75911331176758" lon="-118.4065933227539">
<ele>2881</ele>
<time>2016-10-08T22:24:39Z</time>
</trkpt>
<trkpt lat="36.75912857055664" lon="-118.40673065185547">
<ele>2881</ele>
<time>2016-10-08T22:24:46Z</time>
</trkpt>
<trkpt lat="36.759151458740234" lon="-118.4068374633789">
<ele>2880</ele>
<time>2016-10-08T22:24:53Z</time>
</trkpt>
<trkpt lat="36.759185791015625" lon="-118.4069595336914">
<ele>2880</ele>
<time>2016-10-08T22:24:59Z</time>
</trkpt>
<trkpt lat="36.75923156738281" lon="-118.40703582763672">
<ele>2880</ele>
<time>2016-10-08T22:25:05Z</time>
</trkpt>
<trkpt lat="36.75931930541992" lon="-118.40709686279297">
<ele>2877</ele>
<time>2016-10-08T22:25:13Z</time>
</trkpt>
<trkpt lat="36.759403228759766" lon="-118.40717315673828">
<ele>2875</ele>
<time>2016-10-08T22:25:22Z</time>
</trkpt>
<trkpt lat="36.75941848754883" lon="-118.40730285644531">
<ele>2875</ele>
<time>2016-10-08T22:25:30Z</time>
</trkpt>
<trkpt lat="36.75942611694336" lon="-118.4074478149414">
<ele>2876</ele>
<time>2016-10-08T22:25:38Z</time>
</trkpt>
<trkpt lat="36.759483337402344" lon="-118.40756225585938">
<ele>2875</ele>
<time>2016-10-08T22:25:48Z</time>
</trkpt>
<trkpt lat="36.75950241088867" lon="-118.40767669677734">
<ele>2874</ele>
<time>2016-10-08T22:25:59Z</time>
</trkpt>
<trkpt lat="36.759521484375" lon="-118.40776824951172">
<ele>2873</ele>
<time>2016-10-08T22:26:05Z</time>
</trkpt>
<trkpt lat="36.75956726074219" lon="-118.40788269042969">
<ele>2872</ele>
<time>2016-10-08T22:26:11Z</time>
</trkpt>
<trkpt lat="36.75962829589844" lon="-118.40798950195313">
<ele>2869</ele>
<time>2016-10-08T22:26:18Z</time>
</trkpt>
<trkpt lat="36.759674072265625" lon="-118.40809631347656">
<ele>2869</ele>
<time>2016-10-08T22:26:25Z</time>
</trkpt>
<trkpt lat="36.759700775146484" lon="-118.40821075439453">
<ele>2874</ele>
<time>2016-10-08T22:26:32Z</time>
</trkpt>
<trkpt lat="36.75975036621094" lon="-118.4083251953125">
<ele>2874</ele>
<time>2016-10-08T22:26:42Z</time>
</trkpt>
<trkpt lat="36.759803771972656" lon="-118.40843963623047">
<ele>2874</ele>
<time>2016-10-08T22:26:50Z</time>
</trkpt>
<trkpt lat="36.75986099243164" lon="-118.40853881835938">
<ele>2874</ele>
<time>2016-10-08T22:26:57Z</time>
</trkpt>
<trkpt lat="36.75992965698242" lon="-118.4085922241211">
<ele>2872</ele>
<time>2016-10-08T22:27:10Z</time>
</trkpt>
<trkpt lat="36.76002502441406" lon="-118.40859985351563">
<ele>2876</ele>
<time>2016-10-08T22:27:16Z</time>
</trkpt>
<trkpt lat="36.76007080078125" lon="-118.40859985351563">
<ele>2877</ele>
<time>2016-10-08T22:27:23Z</time>
</trkpt>
<trkpt lat="36.760108947753906" lon="-118.40864562988281">
<ele>2876</ele>
<time>2016-10-08T22:27:31Z</time>
</trkpt>
<trkpt lat="36.76019287109375" lon="-118.40859985351563">
<ele>2873</ele>
<time>2016-10-08T22:27:40Z</time>
</trkpt>
<trkpt lat="36.760231018066406" lon="-118.40857696533203">
<ele>2880</ele>
<time>2016-10-08T22:27:59Z</time>
</trkpt>
<trkpt lat="36.76028060913086" lon="-118.40860748291016">
<ele>2881</ele>
<time>2016-10-08T22:28:24Z</time>
</trkpt>
<trkpt lat="36.76026153564453" lon="-118.40866088867188">
<ele>2882</ele>
<time>2016-10-08T22:29:41Z</time>
</trkpt>
<trkpt lat="36.760284423828125" lon="-118.4087142944336">
<ele>2879</ele>
<time>2016-10-08T22:29:47Z</time>
</trkpt>
<trkpt lat="36.76031494140625" lon="-118.40876007080078">
<ele>2879</ele>
<time>2016-10-08T22:29:54Z</time>
</trkpt>
<trkpt lat="36.76032638549805" lon="-118.40888214111328">
<ele>2878</ele>
<time>2016-10-08T22:30:03Z</time>
</trkpt>
<trkpt lat="36.76034927368164" lon="-118.40897369384766">
<ele>2876</ele>
<time>2016-10-08T22:30:09Z</time>
</trkpt>
<trkpt lat="36.76034927368164" lon="-118.40910339355469">
<ele>2881</ele>
<time>2016-10-08T22:30:18Z</time>
</trkpt>
<trkpt lat="36.76034927368164" lon="-118.40922546386719">
<ele>2881</ele>
<time>2016-10-08T22:30:27Z</time>
</trkpt>
<trkpt lat="36.76032638549805" lon="-118.40927124023438">
<ele>2882</ele>
<time>2016-10-08T22:30:35Z</time>
</trkpt>
<trkpt lat="36.76036834716797" lon="-118.40937805175781">
<ele>2891</ele>
<time>2016-10-08T22:30:44Z</time>
</trkpt>
<trkpt lat="36.7603759765625" lon="-118.40950775146484">
<ele>2888</ele>
<time>2016-10-08T22:30:53Z</time>
</trkpt>
<trkpt lat="36.76038360595703" lon="-118.40962982177734">
<ele>2887</ele>
<time>2016-10-08T22:31:02Z</time>
</trkpt>
<trkpt lat="36.76036834716797" lon="-118.40969848632813">
<ele>2889</ele>
<time>2016-10-08T22:31:09Z</time>
</trkpt>
<trkpt lat="36.76036834716797" lon="-118.4098129272461">
<ele>2888</ele>
<time>2016-10-08T22:31:17Z</time>
</trkpt>
<trkpt lat="36.76039123535156" lon="-118.4099349975586">
<ele>2883</ele>
<time>2016-10-08T22:31:24Z</time>
</trkpt>
<trkpt lat="36.76036834716797" lon="-118.4100570678711">
<ele>2878</ele>
<time>2016-10-08T22:31:32Z</time>
</trkpt>
<trkpt lat="36.760345458984375" lon="-118.41017150878906">
<ele>2877</ele>
<time>2016-10-08T22:31:41Z</time>
</trkpt>
<trkpt lat="36.760276794433594" lon="-118.4102783203125">
<ele>2875</ele>
<time>2016-10-08T22:31:49Z</time>
</trkpt>
<trkpt lat="36.76024627685547" lon="-118.41040802001953">
<ele>2875</ele>
<time>2016-10-08T22:31:58Z</time>
</trkpt>
<trkpt lat="36.76027297973633" lon="-118.41050720214844">
<ele>2877</ele>
<time>2016-10-08T22:32:05Z</time>
</trkpt>
<trkpt lat="36.760276794433594" lon="-118.41063690185547">
<ele>2877</ele>
<time>2016-10-08T22:32:14Z</time>
</trkpt>
<trkpt lat="36.760276794433594" lon="-118.41069793701172">
<ele>2880</ele>
<time>2016-10-08T22:32:20Z</time>
</trkpt>
<trkpt lat="36.760250091552734" lon="-118.4107437133789">
<ele>2885</ele>
<time>2016-10-08T22:32:47Z</time>
</trkpt>
<trkpt lat="36.76030731201172" lon="-118.41085052490234">
<ele>2888</ele>
<time>2016-10-08T22:32:56Z</time>
</trkpt>
<trkpt lat="36.760379791259766" lon="-118.41091918945313">
<ele>2884</ele>
<time>2016-10-08T22:33:05Z</time>
</trkpt>
<trkpt lat="36.76048278808594" lon="-118.41091918945313">
<ele>2881</ele>
<time>2016-10-08T22:33:13Z</time>
</trkpt>
<trkpt lat="36.760581970214844" lon="-118.41093444824219">
<ele>2884</ele>
<time>2016-10-08T22:33:23Z</time>
</trkpt>
<trkpt lat="36.76061248779297" lon="-118.41105651855469">
<ele>2877</ele>
<time>2016-10-08T22:33:32Z</time>
</trkpt>
<trkpt lat="36.76063537597656" lon="-118.41117858886719">
<ele>2878</ele>
<time>2016-10-08T22:33:42Z</time>
</trkpt>
<trkpt lat="36.760650634765625" lon="-118.41130828857422">
<ele>2879</ele>
<time>2016-10-08T22:33:51Z</time>
</trkpt>
<trkpt lat="36.760643005371094" lon="-118.41136932373047">
<ele>2881</ele>
<time>2016-10-08T22:33:58Z</time>
</trkpt>
<trkpt lat="36.760658264160156" lon="-118.41143035888672">
<ele>2885</ele>
<time>2016-10-08T22:34:05Z</time>
</trkpt>
<trkpt lat="36.76068878173828" lon="-118.41148376464844">
<ele>2886</ele>
<time>2016-10-08T22:34:14Z</time>
</trkpt>
<trkpt lat="36.76071548461914" lon="-118.41152954101563">
<ele>2885</ele>
<time>2016-10-08T22:34:20Z</time>
</trkpt>
<trkpt lat="36.7607421875" lon="-118.41156768798828">
<ele>2888</ele>
<time>2016-10-08T22:34:30Z</time>
</trkpt>
<trkpt lat="36.76077651977539" lon="-118.41152954101563">
<ele>2892</ele>
<time>2016-10-08T22:34:49Z</time>
</trkpt>
<trkpt lat="36.76081085205078" lon="-118.41148376464844">
<ele>2891</ele>
<time>2016-10-08T22:34:55Z</time>
</trkpt>
<trkpt lat="36.760841369628906" lon="-118.41144561767578">
<ele>2893</ele>
<time>2016-10-08T22:35:03Z</time>
</trkpt>
<trkpt lat="36.76089096069336" lon="-118.41144561767578">
<ele>2895</ele>
<time>2016-10-08T22:35:15Z</time>
</trkpt>
<trkpt lat="36.76092529296875" lon="-118.41149139404297">
<ele>2891</ele>
<time>2016-10-08T22:35:23Z</time>
</trkpt>
<trkpt lat="36.76097106933594" lon="-118.41148376464844">
<ele>2894</ele>
<time>2016-10-08T22:35:29Z</time>
</trkpt>
<trkpt lat="36.76100540161133" lon="-118.41144561767578">
<ele>2893</ele>
<time>2016-10-08T22:35:44Z</time>
</trkpt>
<trkpt lat="36.76104736328125" lon="-118.41141510009766">
<ele>2895</ele>
<time>2016-10-08T22:35:52Z</time>
</trkpt>
<trkpt lat="36.76108932495117" lon="-118.41139221191406">
<ele>2905</ele>
<time>2016-10-08T22:36:00Z</time>
</trkpt>
<trkpt lat="36.76112747192383" lon="-118.41131591796875">
<ele>2900</ele>
<time>2016-10-08T22:36:14Z</time>
</trkpt>
<trkpt lat="36.76115798950195" lon="-118.41127014160156">
<ele>2899</ele>
<time>2016-10-08T22:36:21Z</time>
</trkpt>
<trkpt lat="36.76120376586914" lon="-118.41124725341797">
<ele>2896</ele>
<time>2016-10-08T22:36:29Z</time>
</trkpt>
<trkpt lat="36.76125717163086" lon="-118.4111328125">
<ele>2907</ele>
<time>2016-10-08T22:36:42Z</time>
</trkpt>
<trkpt lat="36.76133728027344" lon="-118.4111557006836">
<ele>2913</ele>
<time>2016-10-08T22:36:53Z</time>
</trkpt>
<trkpt lat="36.7613410949707" lon="-118.41121673583984">
<ele>2917</ele>
<time>2016-10-08T22:37:02Z</time>
</trkpt>
<trkpt lat="36.7613525390625" lon="-118.41130065917969">
<ele>2918</ele>
<time>2016-10-08T22:37:12Z</time>
</trkpt>
<trkpt lat="36.761356353759766" lon="-118.41136169433594">
<ele>2918</ele>
<time>2016-10-08T22:37:18Z</time>
</trkpt>
<trkpt lat="36.76139450073242" lon="-118.4113998413086">
<ele>2922</ele>
<time>2016-10-08T22:37:27Z</time>
</trkpt>
<trkpt lat="36.761436462402344" lon="-118.41143035888672">
<ele>2921</ele>
<time>2016-10-08T22:37:33Z</time>
</trkpt>
<trkpt lat="36.76144027709961" lon="-118.41149139404297">
<ele>2924</ele>
<time>2016-10-08T22:37:39Z</time>
</trkpt>
<trkpt lat="36.7614860534668" lon="-118.4115219116211">
<ele>2921</ele>
<time>2016-10-08T22:37:48Z</time>
</trkpt>
<trkpt lat="36.76156234741211" lon="-118.41153717041016">
<ele>2919</ele>
<time>2016-10-08T22:38:05Z</time>
</trkpt>
<trkpt lat="36.76160430908203" lon="-118.41151428222656">
<ele>2913</ele>
<time>2016-10-08T22:38:20Z</time>
</trkpt>
<trkpt lat="36.761634826660156" lon="-118.41146850585938">
<ele>2915</ele>
<time>2016-10-08T22:38:27Z</time>
</trkpt>
<trkpt lat="36.76164627075195" lon="-118.4113998413086">
<ele>2911</ele>
<time>2016-10-08T22:38:33Z</time>
</trkpt>
<trkpt lat="36.76169204711914" lon="-118.41128540039063">
<ele>2910</ele>
<time>2016-10-08T22:38:43Z</time>
</trkpt>
<trkpt lat="36.76173782348633" lon="-118.41116333007813">
<ele>2914</ele>
<time>2016-10-08T22:38:52Z</time>
</trkpt>
<trkpt lat="36.76177978515625" lon="-118.4110336303711">
<ele>2920</ele>
<time>2016-10-08T22:39:00Z</time>
</trkpt>
<trkpt lat="36.761817932128906" lon="-118.41089630126953">
<ele>2924</ele>
<time>2016-10-08T22:39:08Z</time>
</trkpt>
<trkpt lat="36.76188278198242" lon="-118.41077423095703">
<ele>2927</ele>
<time>2016-10-08T22:39:16Z</time>
</trkpt>
<trkpt lat="36.76191711425781" lon="-118.4106674194336">
<ele>2928</ele>
<time>2016-10-08T22:39:24Z</time>
</trkpt>
<trkpt lat="36.761959075927734" lon="-118.4105453491211">
<ele>2927</ele>
<time>2016-10-08T22:39:34Z</time>
</trkpt>
<trkpt lat="36.76198196411133" lon="-118.41040802001953">
<ele>2930</ele>
<time>2016-10-08T22:39:43Z</time>
</trkpt>
<trkpt lat="36.761985778808594" lon="-118.4102783203125">
<ele>2938</ele>
<time>2016-10-08T22:39:58Z</time>
</trkpt>
<trkpt lat="36.76198959350586" lon="-118.41022491455078">
<ele>2942</ele>
<time>2016-10-08T22:40:25Z</time>
</trkpt>
<trkpt lat="36.762020111083984" lon="-118.41011810302734">
<ele>2940</ele>
<time>2016-10-08T22:40:35Z</time>
</trkpt>
<trkpt lat="36.76202392578125" lon="-118.41004943847656">
<ele>2943</ele>
<time>2016-10-08T22:40:41Z</time>
</trkpt>
<trkpt lat="36.76205062866211" lon="-118.40999603271484">
<ele>2945</ele>
<time>2016-10-08T22:40:48Z</time>
</trkpt>
<trkpt lat="36.762115478515625" lon="-118.4098892211914">
<ele>2942</ele>
<time>2016-10-08T22:40:58Z</time>
</trkpt>
<trkpt lat="36.76216506958008" lon="-118.4098129272461">
<ele>2941</ele>
<time>2016-10-08T22:41:05Z</time>
</trkpt>
<trkpt lat="36.762184143066406" lon="-118.40975952148438">
<ele>2941</ele>
<time>2016-10-08T22:41:11Z</time>
</trkpt>
<trkpt lat="36.76224136352539" lon="-118.40966033935547">
<ele>2948</ele>
<time>2016-10-08T22:41:21Z</time>
</trkpt>
<trkpt lat="36.762271881103516" lon="-118.40960693359375">
<ele>2947</ele>
<time>2016-10-08T22:41:30Z</time>
</trkpt>
<trkpt lat="36.7623176574707" lon="-118.40950012207031">
<ele>2949</ele>
<time>2016-10-08T22:41:40Z</time>
</trkpt>
<trkpt lat="36.76236343383789" lon="-118.40948486328125">
<ele>2950</ele>
<time>2016-10-08T22:41:48Z</time>
</trkpt>
<trkpt lat="36.76239013671875" lon="-118.40943908691406">
<ele>2948</ele>
<time>2016-10-08T22:41:56Z</time>
</trkpt>
<trkpt lat="36.76239013671875" lon="-118.40937805175781">
<ele>2950</ele>
<time>2016-10-08T22:42:04Z</time>
</trkpt>
<trkpt lat="36.76243209838867" lon="-118.40931701660156">
<ele>2956</ele>
<time>2016-10-08T22:42:15Z</time>
</trkpt>
<trkpt lat="36.76246643066406" lon="-118.40926361083984">
<ele>2958</ele>
<time>2016-10-08T22:42:21Z</time>
</trkpt>
<trkpt lat="36.76249694824219" lon="-118.40921783447266">
<ele>2964</ele>
<time>2016-10-08T22:42:27Z</time>
</trkpt>
<trkpt lat="36.76253128051758" lon="-118.40917205810547">
<ele>2965</ele>
<time>2016-10-08T22:42:35Z</time>
</trkpt>
<trkpt lat="36.7625732421875" lon="-118.40914154052734">
<ele>2964</ele>
<time>2016-10-08T22:42:53Z</time>
</trkpt>
<trkpt lat="36.76255798339844" lon="-118.40901184082031">
<ele>2966</ele>
<time>2016-10-08T22:43:02Z</time>
</trkpt>
<trkpt lat="36.7625732421875" lon="-118.40892791748047">
<ele>2969</ele>
<time>2016-10-08T22:43:14Z</time>
</trkpt>
<trkpt lat="36.76263427734375" lon="-118.4088363647461">
<ele>2968</ele>
<time>2016-10-08T22:43:26Z</time>
</trkpt>
<trkpt lat="36.762664794921875" lon="-118.40878295898438">
<ele>2967</ele>
<time>2016-10-08T22:43:32Z</time>
</trkpt>
<trkpt lat="36.76271057128906" lon="-118.4086685180664">
<ele>2967</ele>
<time>2016-10-08T22:43:42Z</time>
</trkpt>
<trkpt lat="36.762752532958984" lon="-118.40856170654297">
<ele>2964</ele>
<time>2016-10-08T22:43:52Z</time>
</trkpt>
<trkpt lat="36.76280212402344" lon="-118.40856170654297">
<ele>2967</ele>
<time>2016-10-08T22:44:00Z</time>
</trkpt>
<trkpt lat="36.762847900390625" lon="-118.40860748291016">
<ele>2977</ele>
<time>2016-10-08T22:44:25Z</time>
</trkpt>
<trkpt lat="36.76286697387695" lon="-118.4085464477539">
<ele>2983</ele>
<time>2016-10-08T22:44:35Z</time>
</trkpt>
<trkpt lat="36.762882232666016" lon="-118.40849304199219">
<ele>2981</ele>
<time>2016-10-08T22:44:41Z</time>
</trkpt>
<trkpt lat="36.762943267822266" lon="-118.40839385986328">
<ele>2983</ele>
<time>2016-10-08T22:44:50Z</time>
</trkpt>
<trkpt lat="36.76300048828125" lon="-118.40828704833984">
<ele>2980</ele>
<time>2016-10-08T22:44:57Z</time>
</trkpt>
<trkpt lat="36.763038635253906" lon="-118.40819549560547">
<ele>2977</ele>
<time>2016-10-08T22:45:05Z</time>
</trkpt>
<trkpt lat="36.763057708740234" lon="-118.40813446044922">
<ele>2980</ele>
<time>2016-10-08T22:45:11Z</time>
</trkpt>
<trkpt lat="36.763084411621094" lon="-118.4080810546875">
<ele>2980</ele>
<time>2016-10-08T22:45:17Z</time>
</trkpt>
<trkpt lat="36.763153076171875" lon="-118.40801239013672">
<ele>2979</ele>
<time>2016-10-08T22:45:32Z</time>
</trkpt>
<trkpt lat="36.76320266723633" lon="-118.40803527832031">
<ele>2989</ele>
<time>2016-10-08T22:46:40Z</time>
</trkpt>
<trkpt lat="36.76323699951172" lon="-118.40808868408203">
<ele>2992</ele>
<time>2016-10-08T22:46:47Z</time>
</trkpt>
<trkpt lat="36.763221740722656" lon="-118.408203125">
<ele>2992</ele>
<time>2016-10-08T22:46:59Z</time>
</trkpt>
<trkpt lat="36.76326370239258" lon="-118.40828704833984">
<ele>2991</ele>
<time>2016-10-08T22:47:12Z</time>
</trkpt>
<trkpt lat="36.763309478759766" lon="-118.40828704833984">
<ele>2994</ele>
<time>2016-10-08T22:47:19Z</time>
</trkpt>
<trkpt lat="36.76333999633789" lon="-118.40833282470703">
<ele>2995</ele>
<time>2016-10-08T22:47:25Z</time>
</trkpt>
<trkpt lat="36.76336669921875" lon="-118.40828704833984">
<ele>3000</ele>
<time>2016-10-08T22:47:42Z</time>
</trkpt>
<trkpt lat="36.7634162902832" lon="-118.40826416015625">
<ele>3000</ele>
<time>2016-10-08T22:47:51Z</time>
</trkpt>
<trkpt lat="36.76346206665039" lon="-118.40825653076172">
<ele>3007</ele>
<time>2016-10-08T22:47:57Z</time>
</trkpt>
<trkpt lat="36.76350021362305" lon="-118.408203125">
<ele>3003</ele>
<time>2016-10-08T22:48:04Z</time>
</trkpt>
<trkpt lat="36.763511657714844" lon="-118.40814208984375">
<ele>3003</ele>
<time>2016-10-08T22:48:10Z</time>
</trkpt>
<trkpt lat="36.7635498046875" lon="-118.40802001953125">
<ele>3006</ele>
<time>2016-10-08T22:48:22Z</time>
</trkpt>
<trkpt lat="36.763572692871094" lon="-118.40797424316406">
<ele>3007</ele>
<time>2016-10-08T22:48:28Z</time>
</trkpt>
<trkpt lat="36.76359176635742" lon="-118.40792083740234">
<ele>3008</ele>
<time>2016-10-08T22:48:40Z</time>
</trkpt>
<trkpt lat="36.763633728027344" lon="-118.40787506103516">
<ele>3007</ele>
<time>2016-10-08T22:48:46Z</time>
</trkpt>
<trkpt lat="36.76371765136719" lon="-118.40780639648438">
<ele>3009</ele>
<time>2016-10-08T22:48:57Z</time>
</trkpt>
<trkpt lat="36.76374435424805" lon="-118.40787506103516">
<ele>3014</ele>
<time>2016-10-08T22:49:20Z</time>
</trkpt>
<trkpt lat="36.76377868652344" lon="-118.40792083740234">
<ele>3019</ele>
<time>2016-10-08T22:49:29Z</time>
</trkpt>
<trkpt lat="36.76378631591797" lon="-118.40798950195313">
<ele>3017</ele>
<time>2016-10-08T22:49:37Z</time>
</trkpt>
<trkpt lat="36.76381301879883" lon="-118.40811920166016">
<ele>3012</ele>
<time>2016-10-08T22:49:47Z</time>
</trkpt>
<trkpt lat="36.76382064819336" lon="-118.40824127197266">
<ele>3011</ele>
<time>2016-10-08T22:49:56Z</time>
</trkpt>
<trkpt lat="36.76384353637695" lon="-118.40837860107422">
<ele>3010</ele>
<time>2016-10-08T22:50:04Z</time>
</trkpt>
<trkpt lat="36.76387405395508" lon="-118.408447265625">
<ele>3013</ele>
<time>2016-10-08T22:50:15Z</time>
</trkpt>
<trkpt lat="36.76387023925781" lon="-118.40850067138672">
<ele>3016</ele>
<time>2016-10-08T22:50:21Z</time>
</trkpt>
<trkpt lat="36.763919830322266" lon="-118.40849304199219">
<ele>3020</ele>
<time>2016-10-08T22:50:51Z</time>
</trkpt>
<trkpt lat="36.76395034790039" lon="-118.4085693359375">
<ele>3021</ele>
<time>2016-10-08T22:51:29Z</time>
</trkpt>
<trkpt lat="36.763999938964844" lon="-118.4085464477539">
<ele>3013</ele>
<time>2016-10-08T22:51:44Z</time>
</trkpt>
<trkpt lat="36.764076232910156" lon="-118.40846252441406">
<ele>3014</ele>
<time>2016-10-08T22:51:53Z</time>
</trkpt>
<trkpt lat="36.764137268066406" lon="-118.40837097167969">
<ele>3022</ele>
<time>2016-10-08T22:52:01Z</time>
</trkpt>
<trkpt lat="36.764198303222656" lon="-118.40827941894531">
<ele>3024</ele>
<time>2016-10-08T22:52:10Z</time>
</trkpt>
<trkpt lat="36.764251708984375" lon="-118.4081802368164">
<ele>3024</ele>
<time>2016-10-08T22:52:18Z</time>
</trkpt>
<trkpt lat="36.764320373535156" lon="-118.4080810546875">
<ele>3027</ele>
<time>2016-10-08T22:52:27Z</time>
</trkpt>
<trkpt lat="36.764408111572266" lon="-118.40807342529297">
<ele>3034</ele>
<time>2016-10-08T22:52:36Z</time>
</trkpt>
<trkpt lat="36.76450729370117" lon="-118.40802001953125">
<ele>3031</ele>
<time>2016-10-08T22:52:45Z</time>
</trkpt>
<trkpt lat="36.76455307006836" lon="-118.4079818725586">
<ele>3036</ele>
<time>2016-10-08T22:52:51Z</time>
</trkpt>
<trkpt lat="36.764610290527344" lon="-118.40788269042969">
<ele>3032</ele>
<time>2016-10-08T22:53:00Z</time>
</trkpt>
<trkpt lat="36.764686584472656" lon="-118.40786743164063">
<ele>3031</ele>
<time>2016-10-08T22:53:11Z</time>
</trkpt>
<trkpt lat="36.76477813720703" lon="-118.40784454345703">
<ele>3035</ele>
<time>2016-10-08T22:53:23Z</time>
</trkpt>
<trkpt lat="36.76487731933594" lon="-118.4078369140625">
<ele>3032</ele>
<time>2016-10-08T22:53:34Z</time>
</trkpt>
<trkpt lat="36.764930725097656" lon="-118.40782928466797">
<ele>3034</ele>
<time>2016-10-08T22:53:41Z</time>
</trkpt>
<trkpt lat="36.7650146484375" lon="-118.40789031982422">
<ele>3034</ele>
<time>2016-10-08T22:53:52Z</time>
</trkpt>
<trkpt lat="36.76506042480469" lon="-118.4078598022461">
<ele>3036</ele>
<time>2016-10-08T22:54:00Z</time>
</trkpt>
<trkpt lat="36.765132904052734" lon="-118.40790557861328">
<ele>3039</ele>
<time>2016-10-08T22:54:54Z</time>
</trkpt>
<trkpt lat="36.765174865722656" lon="-118.4079360961914">
<ele>3038</ele>
<time>2016-10-08T22:55:00Z</time>
</trkpt>
<trkpt lat="36.76518630981445" lon="-118.40803527832031">
<ele>3043</ele>
<time>2016-10-08T22:55:11Z</time>
</trkpt>
<trkpt lat="36.76515579223633" lon="-118.40814208984375">
<ele>3044</ele>
<time>2016-10-08T22:55:21Z</time>
</trkpt>
<trkpt lat="36.7651252746582" lon="-118.40824127197266">
<ele>3041</ele>
<time>2016-10-08T22:55:41Z</time>
</trkpt>
<trkpt lat="36.7651252746582" lon="-118.4083023071289">
<ele>3041</ele>
<time>2016-10-08T22:55:48Z</time>
</trkpt>
<trkpt lat="36.765132904052734" lon="-118.40836334228516">
<ele>3043</ele>
<time>2016-10-08T22:55:55Z</time>
</trkpt>
<trkpt lat="36.765174865722656" lon="-118.40838623046875">
<ele>3039</ele>
<time>2016-10-08T22:56:01Z</time>
</trkpt>
<trkpt lat="36.76525115966797" lon="-118.40833282470703">
<ele>3043</ele>
<time>2016-10-08T22:56:19Z</time>
</trkpt>
<trkpt lat="36.76530075073242" lon="-118.40833282470703">
<ele>3046</ele>
<time>2016-10-08T22:56:40Z</time>
</trkpt>
<trkpt lat="36.76523208618164" lon="-118.40843963623047">
<ele>3056</ele>
<time>2016-10-08T22:56:48Z</time>
</trkpt>
<trkpt lat="36.765235900878906" lon="-118.40850067138672">
<ele>3054</ele>
<time>2016-10-08T22:56:54Z</time>
</trkpt>
<trkpt lat="36.765262603759766" lon="-118.40856170654297">
<ele>3054</ele>
<time>2016-10-08T22:57:05Z</time>
</trkpt>
<trkpt lat="36.76530838012695" lon="-118.4085464477539">
<ele>3052</ele>
<time>2016-10-08T22:57:12Z</time>
</trkpt>
<trkpt lat="36.76533889770508" lon="-118.4085922241211">
<ele>3053</ele>
<time>2016-10-08T22:57:20Z</time>
</trkpt>
<trkpt lat="36.76533126831055" lon="-118.40865325927734">
<ele>3056</ele>
<time>2016-10-08T22:57:26Z</time>
</trkpt>
<trkpt lat="36.7653694152832" lon="-118.40862274169922">
<ele>3062</ele>
<time>2016-10-08T22:57:45Z</time>
</trkpt>
<trkpt lat="36.76539993286133" lon="-118.4085693359375">
<ele>3064</ele>
<time>2016-10-08T22:57:53Z</time>
</trkpt>
<trkpt lat="36.76544189453125" lon="-118.40853118896484">
<ele>3063</ele>
<time>2016-10-08T22:57:59Z</time>
</trkpt>
<trkpt lat="36.76548385620117" lon="-118.40851593017578">
<ele>3066</ele>
<time>2016-10-08T22:58:05Z</time>
</trkpt>
<trkpt lat="36.76552963256836" lon="-118.40850067138672">
<ele>3066</ele>
<time>2016-10-08T22:58:12Z</time>
</trkpt>
<trkpt lat="36.76555252075195" lon="-118.408447265625">
<ele>3066</ele>
<time>2016-10-08T22:58:23Z</time>
</trkpt>
<trkpt lat="36.76564407348633" lon="-118.40840148925781">
<ele>3071</ele>
<time>2016-10-08T22:58:34Z</time>
</trkpt>
<trkpt lat="36.765724182128906" lon="-118.40834045410156">
<ele>3072</ele>
<time>2016-10-08T22:58:48Z</time>
</trkpt>
<trkpt lat="36.76578903198242" lon="-118.40824890136719">
<ele>3073</ele>
<time>2016-10-08T22:59:00Z</time>
</trkpt>
<trkpt lat="36.76585006713867" lon="-118.40814971923828">
<ele>3070</ele>
<time>2016-10-08T22:59:15Z</time>
</trkpt>
<trkpt lat="36.76587677001953" lon="-118.40802764892578">
<ele>3072</ele>
<time>2016-10-08T22:59:23Z</time>
</trkpt>
<trkpt lat="36.765907287597656" lon="-118.40790557861328">
<ele>3071</ele>
<time>2016-10-08T22:59:33Z</time>
</trkpt>
<trkpt lat="36.765926361083984" lon="-118.40784454345703">
<ele>3075</ele>
<time>2016-10-08T22:59:39Z</time>
</trkpt>
<trkpt lat="36.76591491699219" lon="-118.40773010253906">
<ele>3081</ele>
<time>2016-10-08T23:00:04Z</time>
</trkpt>
<trkpt lat="36.76591873168945" lon="-118.4078140258789">
<ele>3086</ele>
<time>2016-10-08T23:01:12Z</time>
</trkpt>
<trkpt lat="36.76591491699219" lon="-118.4079360961914">
<ele>3086</ele>
<time>2016-10-08T23:01:19Z</time>
</trkpt>
<trkpt lat="36.765926361083984" lon="-118.40799713134766">
<ele>3086</ele>
<time>2016-10-08T23:01:25Z</time>
</trkpt>
<trkpt lat="36.76594924926758" lon="-118.40811920166016">
<ele>3084</ele>
<time>2016-10-08T23:01:39Z</time>
</trkpt>
<trkpt lat="36.76596450805664" lon="-118.40823364257813">
<ele>3084</ele>
<time>2016-10-08T23:01:45Z</time>
</trkpt>
<trkpt lat="36.765953063964844" lon="-118.40835571289063">
<ele>3085</ele>
<time>2016-10-08T23:01:55Z</time>
</trkpt>
<trkpt lat="36.765953063964844" lon="-118.4084243774414">
<ele>3083</ele>
<time>2016-10-08T23:02:01Z</time>
</trkpt>
<trkpt lat="36.76594161987305" lon="-118.40853881835938">
<ele>3086</ele>
<time>2016-10-08T23:02:09Z</time>
</trkpt>
<trkpt lat="36.76594543457031" lon="-118.40865325927734">
<ele>3082</ele>
<time>2016-10-08T23:02:20Z</time>
</trkpt>
</trkseg>
</trk>
<trk>
<name><![CDATA[10081628]]></name>
<number>26</number>
<extensions><topografix:color>ff000066</topografix:color></extensions>
<trkseg>
<trkpt lat="36.77288818359375" lon="-118.40454864501953">
<ele>3224</ele>
<time>2016-10-08T23:28:11Z</time>
</trkpt>
<trkpt lat="36.77293014526367" lon="-118.40457916259766">
<ele>3225</ele>
<time>2016-10-08T23:32:26Z</time>
</trkpt>
<trkpt lat="36.77301788330078" lon="-118.40452575683594">
<ele>3221</ele>
<time>2016-10-08T23:32:38Z</time>
</trkpt>
<trkpt lat="36.77301788330078" lon="-118.4043960571289">
<ele>3218</ele>
<time>2016-10-08T23:32:46Z</time>
</trkpt>
<trkpt lat="36.773033142089844" lon="-118.4042739868164">
<ele>3218</ele>
<time>2016-10-08T23:32:55Z</time>
</trkpt>
<trkpt lat="36.773075103759766" lon="-118.40414428710938">
<ele>3216</ele>
<time>2016-10-08T23:33:04Z</time>
</trkpt>
<trkpt lat="36.77309036254883" lon="-118.40408325195313">
<ele>3215</ele>
<time>2016-10-08T23:33:10Z</time>
</trkpt>
<trkpt lat="36.77310562133789" lon="-118.40394592285156">
<ele>3213</ele>
<time>2016-10-08T23:33:17Z</time>
</trkpt>
<trkpt lat="36.773094177246094" lon="-118.40382385253906">
<ele>3216</ele>
<time>2016-10-08T23:33:23Z</time>
</trkpt>
<trkpt lat="36.77312088012695" lon="-118.40370178222656">
<ele>3214</ele>
<time>2016-10-08T23:33:31Z</time>
</trkpt>
<trkpt lat="36.773162841796875" lon="-118.40357971191406">
<ele>3209</ele>
<time>2016-10-08T23:33:39Z</time>
</trkpt>
<trkpt lat="36.77320098876953" lon="-118.40345001220703">
<ele>3210</ele>
<time>2016-10-08T23:33:48Z</time>
</trkpt>
<trkpt lat="36.77324676513672" lon="-118.40333557128906">
<ele>3208</ele>
<time>2016-10-08T23:33:57Z</time>
</trkpt>
<trkpt lat="36.773250579833984" lon="-118.40320587158203">
<ele>3207</ele>
<time>2016-10-08T23:34:05Z</time>
</trkpt>
<trkpt lat="36.77324676513672" lon="-118.40306854248047">
<ele>3209</ele>
<time>2016-10-08T23:34:11Z</time>
</trkpt>
<trkpt lat="36.77324295043945" lon="-118.40292358398438">
<ele>3207</ele>
<time>2016-10-08T23:34:19Z</time>
</trkpt>
<trkpt lat="36.77318572998047" lon="-118.40282440185547">
<ele>3210</ele>
<time>2016-10-08T23:34:30Z</time>
</trkpt>
<trkpt lat="36.7731819152832" lon="-118.40276336669922">
<ele>3209</ele>
<time>2016-10-08T23:34:36Z</time>
</trkpt>
<trkpt lat="36.77310562133789" lon="-118.40269470214844">
<ele>3211</ele>
<time>2016-10-08T23:34:43Z</time>
</trkpt>
<trkpt lat="36.77302551269531" lon="-118.40262603759766">
<ele>3214</ele>
<time>2016-10-08T23:34:50Z</time>
</trkpt>
<trkpt lat="36.77294921875" lon="-118.40255737304688">
<ele>3221</ele>
<time>2016-10-08T23:34:58Z</time>
</trkpt>
<trkpt lat="36.77286148071289" lon="-118.40251159667969">
<ele>3223</ele>
<time>2016-10-08T23:35:05Z</time>
</trkpt>
<trkpt lat="36.772830963134766" lon="-118.40245819091797">
<ele>3219</ele>
<time>2016-10-08T23:35:11Z</time>
</trkpt>
<trkpt lat="36.772735595703125" lon="-118.40241241455078">
<ele>3210</ele>
<time>2016-10-08T23:35:19Z</time>
</trkpt>
<trkpt lat="36.77267837524414" lon="-118.40232849121094">
<ele>3209</ele>
<time>2016-10-08T23:35:27Z</time>
</trkpt>
<trkpt lat="36.77263641357422" lon="-118.40220642089844">
<ele>3209</ele>
<time>2016-10-08T23:35:33Z</time>
</trkpt>
<trkpt lat="36.77260208129883" lon="-118.4020767211914">
<ele>3212</ele>
<time>2016-10-08T23:35:39Z</time>
</trkpt>
<trkpt lat="36.77259826660156" lon="-118.40196228027344">
<ele>3213</ele>
<time>2016-10-08T23:35:46Z</time>
</trkpt>
<trkpt lat="36.772613525390625" lon="-118.4018325805664">
<ele>3211</ele>
<time>2016-10-08T23:35:56Z</time>
</trkpt>
<trkpt lat="36.772621154785156" lon="-118.40177154541016">
<ele>3210</ele>
<time>2016-10-08T23:36:03Z</time>
</trkpt>
<trkpt lat="36.7725944519043" lon="-118.40169525146484">
<ele>3206</ele>
<time>2016-10-08T23:36:11Z</time>
</trkpt>
<trkpt lat="36.772518157958984" lon="-118.40160369873047">
<ele>3204</ele>
<time>2016-10-08T23:36:21Z</time>
</trkpt>
<trkpt lat="36.772438049316406" lon="-118.40153503417969">
<ele>3208</ele>
<time>2016-10-08T23:36:28Z</time>
</trkpt>
<trkpt lat="36.77238845825195" lon="-118.40143585205078">
<ele>3210</ele>
<time>2016-10-08T23:36:35Z</time>
</trkpt>
<trkpt lat="36.77230453491211" lon="-118.40135955810547">
<ele>3211</ele>
<time>2016-10-08T23:36:42Z</time>
</trkpt>
<trkpt lat="36.772216796875" lon="-118.40129089355469">
<ele>3212</ele>
<time>2016-10-08T23:36:49Z</time>
</trkpt>
<trkpt lat="36.77214813232422" lon="-118.40119171142578">
<ele>3207</ele>
<time>2016-10-08T23:36:58Z</time>
</trkpt>
<trkpt lat="36.7720947265625" lon="-118.40108489990234">
<ele>3206</ele>
<time>2016-10-08T23:37:05Z</time>
</trkpt>
<trkpt lat="36.772064208984375" lon="-118.40095520019531">
<ele>3208</ele>
<time>2016-10-08T23:37:11Z</time>
</trkpt>
<trkpt lat="36.772037506103516" lon="-118.40083312988281">
<ele>3208</ele>
<time>2016-10-08T23:37:20Z</time>
</trkpt>
<trkpt lat="36.77201843261719" lon="-118.40070343017578">
<ele>3207</ele>
<time>2016-10-08T23:37:28Z</time>
</trkpt>
<trkpt lat="36.77200698852539" lon="-118.40058135986328">
<ele>3209</ele>
<time>2016-10-08T23:37:34Z</time>
</trkpt>
<trkpt lat="36.7719841003418" lon="-118.40045928955078">
<ele>3211</ele>
<time>2016-10-08T23:37:40Z</time>
</trkpt>
<trkpt lat="36.77196502685547" lon="-118.40033721923828">
<ele>3216</ele>
<time>2016-10-08T23:37:48Z</time>
</trkpt>
<trkpt lat="36.77191925048828" lon="-118.40023040771484">
<ele>3213</ele>
<time>2016-10-08T23:37:57Z</time>
</trkpt>
<trkpt lat="36.77190017700195" lon="-118.40017700195313">
<ele>3210</ele>
<time>2016-10-08T23:38:04Z</time>
</trkpt>
<trkpt lat="36.77191162109375" lon="-118.40009307861328">
<ele>3212</ele>
<time>2016-10-08T23:38:11Z</time>
</trkpt>
<trkpt lat="36.77190017700195" lon="-118.39996337890625">
<ele>3211</ele>
<time>2016-10-08T23:38:20Z</time>
</trkpt>
<trkpt lat="36.771854400634766" lon="-118.39986419677734">
<ele>3208</ele>
<time>2016-10-08T23:38:30Z</time>
</trkpt>
<trkpt lat="36.77180099487305" lon="-118.39976501464844">
<ele>3213</ele>
<time>2016-10-08T23:38:39Z</time>
</trkpt>
<trkpt lat="36.77172088623047" lon="-118.39967346191406">
<ele>3218</ele>
<time>2016-10-08T23:38:49Z</time>
</trkpt>
<trkpt lat="36.77165603637695" lon="-118.39959716796875">
<ele>3217</ele>
<time>2016-10-08T23:38:58Z</time>
</trkpt>
<trkpt lat="36.77161407470703" lon="-118.39949035644531">
<ele>3215</ele>
<time>2016-10-08T23:39:09Z</time>
</trkpt>
<trkpt lat="36.771583557128906" lon="-118.3993911743164">
<ele>3212</ele>
<time>2016-10-08T23:39:15Z</time>
</trkpt>
<trkpt lat="36.771549224853516" lon="-118.3992919921875">
<ele>3212</ele>
<time>2016-10-08T23:39:22Z</time>
</trkpt>
<trkpt lat="36.7714958190918" lon="-118.3991928100586">
<ele>3213</ele>
<time>2016-10-08T23:39:30Z</time>
</trkpt>
<trkpt lat="36.77145004272461" lon="-118.3990707397461">
<ele>3219</ele>
<time>2016-10-08T23:39:38Z</time>
</trkpt>
<trkpt lat="36.771461486816406" lon="-118.3989486694336">
<ele>3218</ele>
<time>2016-10-08T23:39:44Z</time>
</trkpt>
<trkpt lat="36.77143859863281" lon="-118.3988265991211">
<ele>3217</ele>
<time>2016-10-08T23:39:51Z</time>
</trkpt>
<trkpt lat="36.77147674560547" lon="-118.3987045288086">
<ele>3215</ele>
<time>2016-10-08T23:39:58Z</time>
</trkpt>
<trkpt lat="36.7714729309082" lon="-118.39856719970703">
<ele>3214</ele>
<time>2016-10-08T23:40:06Z</time>
</trkpt>
<trkpt lat="36.77150344848633" lon="-118.39842987060547">
<ele>3215</ele>
<time>2016-10-08T23:40:15Z</time>
</trkpt>
<trkpt lat="36.7714729309082" lon="-118.39830017089844">
<ele>3216</ele>
<time>2016-10-08T23:40:26Z</time>
</trkpt>
<trkpt lat="36.77143478393555" lon="-118.398193359375">
<ele>3219</ele>
<time>2016-10-08T23:40:34Z</time>
</trkpt>
<trkpt lat="36.77142333984375" lon="-118.39813232421875">
<ele>3217</ele>
<time>2016-10-08T23:40:40Z</time>
</trkpt>
<trkpt lat="36.77142333984375" lon="-118.39801788330078">
<ele>3218</ele>
<time>2016-10-08T23:40:49Z</time>
</trkpt>
<trkpt lat="36.77143478393555" lon="-118.39795684814453">
<ele>3216</ele>
<time>2016-10-08T23:40:56Z</time>
</trkpt>
<trkpt lat="36.771453857421875" lon="-118.39789581298828">
<ele>3216</ele>
<time>2016-10-08T23:41:02Z</time>
</trkpt>
<trkpt lat="36.77143478393555" lon="-118.39776611328125">
<ele>3217</ele>
<time>2016-10-08T23:41:09Z</time>
</trkpt>
<trkpt lat="36.77136993408203" lon="-118.39769744873047">
<ele>3220</ele>
<time>2016-10-08T23:41:15Z</time>
</trkpt>
<trkpt lat="36.77131271362305" lon="-118.3975830078125">
<ele>3220</ele>
<time>2016-10-08T23:41:22Z</time>
</trkpt>
<trkpt lat="36.77128601074219" lon="-118.3974609375">
<ele>3219</ele>
<time>2016-10-08T23:41:31Z</time>
</trkpt>
<trkpt lat="36.771263122558594" lon="-118.3973388671875">
<ele>3220</ele>
<time>2016-10-08T23:41:37Z</time>
</trkpt>
<trkpt lat="36.77125549316406" lon="-118.39720916748047">
<ele>3223</ele>
<time>2016-10-08T23:41:48Z</time>
</trkpt>
<trkpt lat="36.771240234375" lon="-118.39707946777344">
<ele>3223</ele>
<time>2016-10-08T23:41:56Z</time>
</trkpt>
<trkpt lat="36.771217346191406" lon="-118.39695739746094">
<ele>3227</ele>
<time>2016-10-08T23:42:03Z</time>
</trkpt>
<trkpt lat="36.771244049072266" lon="-118.3968505859375">
<ele>3229</ele>
<time>2016-10-08T23:42:11Z</time>
</trkpt>
<trkpt lat="36.771236419677734" lon="-118.39678192138672">
<ele>3230</ele>
<time>2016-10-08T23:42:17Z</time>
</trkpt>
<trkpt lat="36.77120590209961" lon="-118.39665985107422">
<ele>3229</ele>
<time>2016-10-08T23:42:25Z</time>
</trkpt>
<trkpt lat="36.77121353149414" lon="-118.39654541015625">
<ele>3226</ele>
<time>2016-10-08T23:42:34Z</time>
</trkpt>
<trkpt lat="36.77116775512695" lon="-118.39652252197266">
<ele>3225</ele>
<time>2016-10-08T23:42:54Z</time>
</trkpt>
<trkpt lat="36.771175384521484" lon="-118.39640808105469">
<ele>3228</ele>
<time>2016-10-08T23:43:02Z</time>
</trkpt>
<trkpt lat="36.771236419677734" lon="-118.39629364013672">
<ele>3227</ele>
<time>2016-10-08T23:43:10Z</time>
</trkpt>
<trkpt lat="36.77129364013672" lon="-118.39616394042969">
<ele>3229</ele>
<time>2016-10-08T23:43:19Z</time>
</trkpt>
<trkpt lat="36.771358489990234" lon="-118.39606475830078">
<ele>3231</ele>
<time>2016-10-08T23:43:28Z</time>
</trkpt>
<trkpt lat="36.77139663696289" lon="-118.39595794677734">
<ele>3230</ele>
<time>2016-10-08T23:43:35Z</time>
</trkpt>
<trkpt lat="36.771461486816406" lon="-118.3958511352539">
<ele>3233</ele>
<time>2016-10-08T23:43:45Z</time>
</trkpt>
<trkpt lat="36.77149963378906" lon="-118.39581298828125">
<ele>3235</ele>
<time>2016-10-08T23:43:51Z</time>
</trkpt>
<trkpt lat="36.77153396606445" lon="-118.3957748413086">
<ele>3237</ele>
<time>2016-10-08T23:43:58Z</time>
</trkpt>
<trkpt lat="36.77159881591797" lon="-118.39566802978516">
<ele>3235</ele>
<time>2016-10-08T23:44:10Z</time>
</trkpt>
<trkpt lat="36.77164077758789" lon="-118.3956298828125">
<ele>3234</ele>
<time>2016-10-08T23:44:17Z</time>
</trkpt>
<trkpt lat="36.77164077758789" lon="-118.39556884765625">
<ele>3230</ele>
<time>2016-10-08T23:44:23Z</time>
</trkpt>
<trkpt lat="36.771629333496094" lon="-118.39545440673828">
<ele>3229</ele>
<time>2016-10-08T23:44:31Z</time>
</trkpt>
<trkpt lat="36.77165222167969" lon="-118.39533996582031">
<ele>3229</ele>
<time>2016-10-08T23:44:41Z</time>
</trkpt>
<trkpt lat="36.77165222167969" lon="-118.395263671875">
<ele>3233</ele>
<time>2016-10-08T23:44:47Z</time>
</trkpt>
<trkpt lat="36.771690368652344" lon="-118.39515686035156">
<ele>3232</ele>
<time>2016-10-08T23:44:56Z</time>
</trkpt>
<trkpt lat="36.77174377441406" lon="-118.39505004882813">
<ele>3234</ele>
<time>2016-10-08T23:45:06Z</time>
</trkpt>
<trkpt lat="36.77179718017578" lon="-118.39494323730469">
<ele>3237</ele>
<time>2016-10-08T23:45:16Z</time>
</trkpt>
<trkpt lat="36.771793365478516" lon="-118.3948745727539">
<ele>3238</ele>
<time>2016-10-08T23:45:24Z</time>
</trkpt>
<trkpt lat="36.77175521850586" lon="-118.39476013183594">
<ele>3243</ele>
<time>2016-10-08T23:45:32Z</time>
</trkpt>
<trkpt lat="36.77177429199219" lon="-118.39463806152344">
<ele>3243</ele>
<time>2016-10-08T23:45:40Z</time>
</trkpt>
<trkpt lat="36.77178192138672" lon="-118.3945083618164">
<ele>3241</ele>
<time>2016-10-08T23:45:48Z</time>
</trkpt>
<trkpt lat="36.771759033203125" lon="-118.39440155029297">
<ele>3234</ele>
<time>2016-10-08T23:45:56Z</time>
</trkpt>
<trkpt lat="36.771732330322266" lon="-118.39427947998047">
<ele>3238</ele>
<time>2016-10-08T23:46:04Z</time>
</trkpt>
<trkpt lat="36.771751403808594" lon="-118.3941650390625">
<ele>3238</ele>
<time>2016-10-08T23:46:11Z</time>
</trkpt>
<trkpt lat="36.77174758911133" lon="-118.39404296875">
<ele>3240</ele>
<time>2016-10-08T23:46:19Z</time>
</trkpt>
<trkpt lat="36.771732330322266" lon="-118.39392852783203">
<ele>3243</ele>
<time>2016-10-08T23:46:28Z</time>
</trkpt>
<trkpt lat="36.77171325683594" lon="-118.39381408691406">
<ele>3243</ele>
<time>2016-10-08T23:46:37Z</time>
</trkpt>
<trkpt lat="36.77167892456055" lon="-118.39370727539063">
<ele>3247</ele>
<time>2016-10-08T23:46:45Z</time>
</trkpt>
<trkpt lat="36.77168273925781" lon="-118.39364624023438">
<ele>3246</ele>
<time>2016-10-08T23:46:52Z</time>
</trkpt>
<trkpt lat="36.771663665771484" lon="-118.39359283447266">
<ele>3243</ele>
<time>2016-10-08T23:46:59Z</time>
</trkpt>
<trkpt lat="36.77162170410156" lon="-118.3935546875">
<ele>3240</ele>
<time>2016-10-08T23:47:05Z</time>
</trkpt>
<trkpt lat="36.77161407470703" lon="-118.39349365234375">
<ele>3240</ele>
<time>2016-10-08T23:47:11Z</time>
</trkpt>
<trkpt lat="36.771602630615234" lon="-118.3934326171875">
<ele>3238</ele>
<time>2016-10-08T23:47:17Z</time>
</trkpt>
<trkpt lat="36.771583557128906" lon="-118.39330291748047">
<ele>3239</ele>
<time>2016-10-08T23:47:25Z</time>
</trkpt>
<trkpt lat="36.77151870727539" lon="-118.39322662353516">
<ele>3240</ele>
<time>2016-10-08T23:47:33Z</time>
</trkpt>
<trkpt lat="36.77146530151367" lon="-118.39312744140625">
<ele>3243</ele>
<time>2016-10-08T23:47:41Z</time>
</trkpt>
<trkpt lat="36.77138137817383" lon="-118.39305877685547">
<ele>3246</ele>
<time>2016-10-08T23:47:50Z</time>
</trkpt>
<trkpt lat="36.77132034301758" lon="-118.3929672241211">
<ele>3252</ele>
<time>2016-10-08T23:47:59Z</time>
</trkpt>
<trkpt lat="36.771297454833984" lon="-118.39290618896484">
<ele>3251</ele>
<time>2016-10-08T23:48:05Z</time>
</trkpt>
<trkpt lat="36.7712516784668" lon="-118.39285278320313">
<ele>3253</ele>
<time>2016-10-08T23:48:11Z</time>
</trkpt>
<trkpt lat="36.771202087402344" lon="-118.39274597167969">
<ele>3252</ele>
<time>2016-10-08T23:48:18Z</time>
</trkpt>
<trkpt lat="36.77117919921875" lon="-118.39261627197266">
<ele>3252</ele>
<time>2016-10-08T23:48:24Z</time>
</trkpt>
<trkpt lat="36.771156311035156" lon="-118.39249420166016">
<ele>3255</ele>
<time>2016-10-08T23:48:32Z</time>
</trkpt>
<trkpt lat="36.771141052246094" lon="-118.39237213134766">
<ele>3258</ele>
<time>2016-10-08T23:48:40Z</time>
</trkpt>
<trkpt lat="36.7711296081543" lon="-118.3923110961914">
<ele>3258</ele>
<time>2016-10-08T23:48:46Z</time>
</trkpt>
<trkpt lat="36.77117919921875" lon="-118.39221954345703">
<ele>3259</ele>
<time>2016-10-08T23:48:56Z</time>
</trkpt>
<trkpt lat="36.77122497558594" lon="-118.3922119140625">
<ele>3260</ele>
<time>2016-10-08T23:49:04Z</time>
</trkpt>
<trkpt lat="36.77127456665039" lon="-118.39214324951172">
<ele>3269</ele>
<time>2016-10-08T23:50:00Z</time>
</trkpt>
<trkpt lat="36.771339416503906" lon="-118.39205932617188">
<ele>3272</ele>
<time>2016-10-08T23:50:11Z</time>
</trkpt>
<trkpt lat="36.77134323120117" lon="-118.39199829101563">
<ele>3272</ele>
<time>2016-10-08T23:50:18Z</time>
</trkpt>
<trkpt lat="36.77130126953125" lon="-118.39196014404297">
<ele>3268</ele>
<time>2016-10-08T23:50:27Z</time>
</trkpt>
<trkpt lat="36.771263122558594" lon="-118.391845703125">
<ele>3263</ele>
<time>2016-10-08T23:50:37Z</time>
</trkpt>
<trkpt lat="36.77127456665039" lon="-118.39171600341797">
<ele>3263</ele>
<time>2016-10-08T23:50:46Z</time>
</trkpt>
<trkpt lat="36.77123260498047" lon="-118.39168548583984">
<ele>3260</ele>
<time>2016-10-08T23:50:54Z</time>
</trkpt>
<trkpt lat="36.77119827270508" lon="-118.39163208007813">
<ele>3260</ele>
<time>2016-10-08T23:51:00Z</time>
</trkpt>
<trkpt lat="36.77115249633789" lon="-118.39152526855469">
<ele>3254</ele>
<time>2016-10-08T23:51:11Z</time>
</trkpt>
<trkpt lat="36.77110290527344" lon="-118.39142608642578">
<ele>3252</ele>
<time>2016-10-08T23:51:17Z</time>
</trkpt>
<trkpt lat="36.77102279663086" lon="-118.39131164550781">
<ele>3255</ele>
<time>2016-10-08T23:51:25Z</time>
</trkpt>
<trkpt lat="36.770965576171875" lon="-118.3912124633789">
<ele>3257</ele>
<time>2016-10-08T23:51:31Z</time>
</trkpt>
<trkpt lat="36.77092742919922" lon="-118.39109802246094">
<ele>3260</ele>
<time>2016-10-08T23:51:40Z</time>
</trkpt>
<trkpt lat="36.7708854675293" lon="-118.39106750488281">
<ele>3261</ele>
<time>2016-10-08T23:51:46Z</time>
</trkpt>
<trkpt lat="36.77085494995117" lon="-118.3910140991211">
<ele>3265</ele>
<time>2016-10-08T23:51:52Z</time>
</trkpt>
<trkpt lat="36.7708740234375" lon="-118.39087677001953">
<ele>3271</ele>
<time>2016-10-08T23:52:01Z</time>
</trkpt>
<trkpt lat="36.7708854675293" lon="-118.39075469970703">
<ele>3274</ele>
<time>2016-10-08T23:52:10Z</time>
</trkpt>
<trkpt lat="36.770877838134766" lon="-118.39063262939453">
<ele>3277</ele>
<time>2016-10-08T23:52:21Z</time>
</trkpt>
<trkpt lat="36.77095413208008" lon="-118.39056396484375">
<ele>3283</ele>
<time>2016-10-08T23:52:39Z</time>
</trkpt>
<trkpt lat="36.77100372314453" lon="-118.39054870605469">
<ele>3286</ele>
<time>2016-10-08T23:52:48Z</time>
</trkpt>
<trkpt lat="36.77104949951172" lon="-118.39051055908203">
<ele>3289</ele>
<time>2016-10-08T23:52:58Z</time>
</trkpt>
<trkpt lat="36.77109146118164" lon="-118.39041137695313">
<ele>3282</ele>
<time>2016-10-08T23:53:10Z</time>
</trkpt>
<trkpt lat="36.77098846435547" lon="-118.39034271240234">
<ele>3285</ele>
<time>2016-10-08T23:53:18Z</time>
</trkpt>
<trkpt lat="36.77093505859375" lon="-118.39024353027344">
<ele>3285</ele>
<time>2016-10-08T23:53:26Z</time>
</trkpt>
<trkpt lat="36.770957946777344" lon="-118.39012145996094">
<ele>3285</ele>
<time>2016-10-08T23:53:36Z</time>
</trkpt>
<trkpt lat="36.77094268798828" lon="-118.39005279541016">
<ele>3285</ele>
<time>2016-10-08T23:53:45Z</time>
</trkpt>
<trkpt lat="36.770973205566406" lon="-118.38993072509766">
<ele>3285</ele>
<time>2016-10-08T23:53:53Z</time>
</trkpt>
<trkpt lat="36.770973205566406" lon="-118.38985443115234">
<ele>3293</ele>
<time>2016-10-08T23:54:16Z</time>
</trkpt>
<trkpt lat="36.771034240722656" lon="-118.3897476196289">
<ele>3293</ele>
<time>2016-10-08T23:54:25Z</time>
</trkpt>
<trkpt lat="36.77104568481445" lon="-118.38969421386719">
<ele>3291</ele>
<time>2016-10-08T23:54:31Z</time>
</trkpt>
<trkpt lat="36.77107238769531" lon="-118.38964080810547">
<ele>3297</ele>
<time>2016-10-08T23:54:38Z</time>
</trkpt>
<trkpt lat="36.77104187011719" lon="-118.38960266113281">
<ele>3302</ele>
<time>2016-10-08T23:54:44Z</time>
</trkpt>
<trkpt lat="36.771034240722656" lon="-118.38948059082031">
<ele>3302</ele>
<time>2016-10-08T23:54:54Z</time>
</trkpt>
<trkpt lat="36.77105712890625" lon="-118.38935852050781">
<ele>3302</ele>
<time>2016-10-08T23:55:02Z</time>
</trkpt>
<trkpt lat="36.771034240722656" lon="-118.38923645019531">
<ele>3302</ele>
<time>2016-10-08T23:55:11Z</time>
</trkpt>
<trkpt lat="36.77098083496094" lon="-118.38914489746094">
<ele>3301</ele>
<time>2016-10-08T23:55:23Z</time>
</trkpt>
<trkpt lat="36.77095413208008" lon="-118.38909912109375">
<ele>3303</ele>
<time>2016-10-08T23:55:33Z</time>
</trkpt>
<trkpt lat="36.77093505859375" lon="-118.38904571533203">
<ele>3301</ele>
<time>2016-10-08T23:55:46Z</time>
</trkpt>
<trkpt lat="36.77090072631836" lon="-118.38892364501953">
<ele>3309</ele>
<time>2016-10-08T23:55:53Z</time>
</trkpt>
<trkpt lat="36.77090072631836" lon="-118.38880920410156">
<ele>3307</ele>
<time>2016-10-08T23:56:01Z</time>
</trkpt>
<trkpt lat="36.77097702026367" lon="-118.38872528076172">
<ele>3307</ele>
<time>2016-10-08T23:56:09Z</time>
</trkpt>
<trkpt lat="36.771034240722656" lon="-118.388671875">
<ele>3308</ele>
<time>2016-10-08T23:56:15Z</time>
</trkpt>
<trkpt lat="36.7711067199707" lon="-118.38860321044922">
<ele>3306</ele>
<time>2016-10-08T23:56:29Z</time>
</trkpt>
<trkpt lat="36.77116012573242" lon="-118.38861846923828">
<ele>3308</ele>
<time>2016-10-08T23:56:35Z</time>
</trkpt>
<trkpt lat="36.77120590209961" lon="-118.38861083984375">
<ele>3309</ele>
<time>2016-10-08T23:56:42Z</time>
</trkpt>
<trkpt lat="36.77125549316406" lon="-118.38850402832031">
<ele>3311</ele>
<time>2016-10-08T23:56:52Z</time>
</trkpt>
<trkpt lat="36.771305084228516" lon="-118.38839721679688">
<ele>3312</ele>
<time>2016-10-08T23:57:03Z</time>
</trkpt>
<trkpt lat="36.77135467529297" lon="-118.3883285522461">
<ele>3309</ele>
<time>2016-10-08T23:57:24Z</time>
</trkpt>
<trkpt lat="36.77139663696289" lon="-118.38822174072266">
<ele>3309</ele>
<time>2016-10-08T23:57:36Z</time>
</trkpt>
<trkpt lat="36.771400451660156" lon="-118.3881607055664">
<ele>3312</ele>
<time>2016-10-08T23:57:44Z</time>
</trkpt>
<trkpt lat="36.77143478393555" lon="-118.38811492919922">
<ele>3311</ele>
<time>2016-10-08T23:57:50Z</time>
</trkpt>
<trkpt lat="36.7714729309082" lon="-118.38807678222656">
<ele>3311</ele>
<time>2016-10-08T23:57:56Z</time>
</trkpt>
<trkpt lat="36.771480560302734" lon="-118.38800811767578">
<ele>3313</ele>
<time>2016-10-08T23:58:02Z</time>
</trkpt>
<trkpt lat="36.77153778076172" lon="-118.38790893554688">
<ele>3314</ele>
<time>2016-10-08T23:58:11Z</time>
</trkpt>
<trkpt lat="36.77157211303711" lon="-118.38786315917969">
<ele>3315</ele>
<time>2016-10-08T23:58:17Z</time>
</trkpt>
<trkpt lat="36.7716178894043" lon="-118.38776397705078">
<ele>3317</ele>
<time>2016-10-08T23:58:25Z</time>
</trkpt>
<trkpt lat="36.771629333496094" lon="-118.3876953125">
<ele>3311</ele>
<time>2016-10-08T23:58:31Z</time>
</trkpt>
<trkpt lat="36.77164840698242" lon="-118.3875732421875">
<ele>3312</ele>
<time>2016-10-08T23:58:40Z</time>
</trkpt>
<trkpt lat="36.77164840698242" lon="-118.38751220703125">
<ele>3317</ele>
<time>2016-10-08T23:58:46Z</time>
</trkpt>
<trkpt lat="36.771636962890625" lon="-118.38745880126953">
<ele>3315</ele>
<time>2016-10-08T23:59:02Z</time>
</trkpt>
<trkpt lat="36.77165603637695" lon="-118.38739013671875">
<ele>3315</ele>
<time>2016-10-08T23:59:08Z</time>
</trkpt>
<trkpt lat="36.7717170715332" lon="-118.3873062133789">
<ele>3317</ele>
<time>2016-10-08T23:59:16Z</time>
</trkpt>
<trkpt lat="36.771728515625" lon="-118.38717651367188">
<ele>3321</ele>
<time>2016-10-08T23:59:24Z</time>
</trkpt>
<trkpt lat="36.77172088623047" lon="-118.38704681396484">
<ele>3321</ele>
<time>2016-10-08T23:59:31Z</time>
</trkpt>
<trkpt lat="36.771705627441406" lon="-118.38691711425781">
<ele>3319</ele>
<time>2016-10-08T23:59:40Z</time>
</trkpt>
<trkpt lat="36.77174758911133" lon="-118.38682556152344">
<ele>3318</ele>
<time>2016-10-08T23:59:49Z</time>
</trkpt>
<trkpt lat="36.77177810668945" lon="-118.38671112060547">
<ele>3323</ele>
<time>2016-10-08T23:59:57Z</time>
</trkpt>
<trkpt lat="36.771793365478516" lon="-118.38658905029297">
<ele>3325</ele>
<time>2016-10-09T00:00:08Z</time>
</trkpt>
<trkpt lat="36.77178192138672" lon="-118.38650512695313">
<ele>3324</ele>
<time>2016-10-09T00:00:19Z</time>
</trkpt>
<trkpt lat="36.77175521850586" lon="-118.38639068603516">
<ele>3327</ele>
<time>2016-10-09T00:00:29Z</time>
</trkpt>
<trkpt lat="36.771759033203125" lon="-118.3863296508789">
<ele>3327</ele>
<time>2016-10-09T00:00:35Z</time>
</trkpt>
<trkpt lat="36.771751403808594" lon="-118.38626098632813">
<ele>3327</ele>
<time>2016-10-09T00:00:42Z</time>
</trkpt>
<trkpt lat="36.77175521850586" lon="-118.3862075805664">
<ele>3329</ele>
<time>2016-10-09T00:00:48Z</time>
</trkpt>
<trkpt lat="36.77177429199219" lon="-118.38615417480469">
<ele>3327</ele>
<time>2016-10-09T00:00:54Z</time>
</trkpt>
<trkpt lat="36.771812438964844" lon="-118.3861083984375">
<ele>3325</ele>
<time>2016-10-09T00:01:04Z</time>
</trkpt>
<trkpt lat="36.771793365478516" lon="-118.38602447509766">
<ele>3331</ele>
<time>2016-10-09T00:01:53Z</time>
</trkpt>
<trkpt lat="36.77180480957031" lon="-118.38594055175781">
<ele>3331</ele>
<time>2016-10-09T00:02:16Z</time>
</trkpt>
<trkpt lat="36.771820068359375" lon="-118.38582611083984">
<ele>3332</ele>
<time>2016-10-09T00:02:24Z</time>
</trkpt>
<trkpt lat="36.771854400634766" lon="-118.38571166992188">
<ele>3331</ele>
<time>2016-10-09T00:02:33Z</time>
</trkpt>
<trkpt lat="36.77188491821289" lon="-118.3855972290039">
<ele>3329</ele>
<time>2016-10-09T00:02:43Z</time>
</trkpt>
<trkpt lat="36.77189254760742" lon="-118.38546752929688">
<ele>3331</ele>
<time>2016-10-09T00:02:53Z</time>
</trkpt>
<trkpt lat="36.77186965942383" lon="-118.3853530883789">
<ele>3333</ele>
<time>2016-10-09T00:03:04Z</time>
</trkpt>
<trkpt lat="36.77190399169922" lon="-118.38526916503906">
<ele>3336</ele>
<time>2016-10-09T00:03:11Z</time>
</trkpt>
<trkpt lat="36.77191162109375" lon="-118.38520050048828">
<ele>3339</ele>
<time>2016-10-09T00:03:22Z</time>
</trkpt>
<trkpt lat="36.77191925048828" lon="-118.38513946533203">
<ele>3337</ele>
<time>2016-10-09T00:03:28Z</time>
</trkpt>
<trkpt lat="36.77192306518555" lon="-118.38507843017578">
<ele>3338</ele>
<time>2016-10-09T00:03:34Z</time>
</trkpt>
<trkpt lat="36.77190399169922" lon="-118.38502502441406">
<ele>3337</ele>
<time>2016-10-09T00:03:40Z</time>
</trkpt>
<trkpt lat="36.771915435791016" lon="-118.38497161865234">
<ele>3340</ele>
<time>2016-10-09T00:03:50Z</time>
</trkpt>
<trkpt lat="36.77188491821289" lon="-118.38491821289063">
<ele>3343</ele>
<time>2016-10-09T00:04:02Z</time>
</trkpt>
<trkpt lat="36.77190399169922" lon="-118.38485717773438">
<ele>3344</ele>
<time>2016-10-09T00:04:08Z</time>
</trkpt>
<trkpt lat="36.77187728881836" lon="-118.384765625">
<ele>3340</ele>
<time>2016-10-09T00:04:16Z</time>
</trkpt>
<trkpt lat="36.77192306518555" lon="-118.38468933105469">
<ele>3346</ele>
<time>2016-10-09T00:04:37Z</time>
</trkpt>
<trkpt lat="36.771907806396484" lon="-118.38463592529297">
<ele>3346</ele>
<time>2016-10-09T00:04:48Z</time>
</trkpt>
<trkpt lat="36.7718620300293" lon="-118.3845443725586">
<ele>3349</ele>
<time>2016-10-09T00:05:00Z</time>
</trkpt>
<trkpt lat="36.771873474121094" lon="-118.38446044921875">
<ele>3351</ele>
<time>2016-10-09T00:05:20Z</time>
</trkpt>
<trkpt lat="36.771881103515625" lon="-118.38440704345703">
<ele>3348</ele>
<time>2016-10-09T00:05:26Z</time>
</trkpt>
<trkpt lat="36.77187728881836" lon="-118.38434600830078">
<ele>3348</ele>
<time>2016-10-09T00:05:32Z</time>
</trkpt>
<trkpt lat="36.77188491821289" lon="-118.38429260253906">
<ele>3348</ele>
<time>2016-10-09T00:05:41Z</time>
</trkpt>
<trkpt lat="36.77185821533203" lon="-118.38424682617188">
<ele>3351</ele>
<time>2016-10-09T00:05:48Z</time>
</trkpt>
<trkpt lat="36.771881103515625" lon="-118.38419342041016">
<ele>3352</ele>
<time>2016-10-09T00:05:54Z</time>
</trkpt>
<trkpt lat="36.771888732910156" lon="-118.3841323852539">
<ele>3355</ele>
<time>2016-10-09T00:06:01Z</time>
</trkpt>
<trkpt lat="36.77190017700195" lon="-118.38407135009766">
<ele>3352</ele>
<time>2016-10-09T00:06:07Z</time>
</trkpt>
<trkpt lat="36.77189636230469" lon="-118.3840103149414">
<ele>3356</ele>
<time>2016-10-09T00:06:23Z</time>
</trkpt>
<trkpt lat="36.77190017700195" lon="-118.38394927978516">
<ele>3358</ele>
<time>2016-10-09T00:06:33Z</time>
</trkpt>
<trkpt lat="36.77190399169922" lon="-118.3838882446289">
<ele>3355</ele>
<time>2016-10-09T00:06:41Z</time>
</trkpt>
<trkpt lat="36.771942138671875" lon="-118.38385009765625">
<ele>3357</ele>
<time>2016-10-09T00:06:49Z</time>
</trkpt>
<trkpt lat="36.771934509277344" lon="-118.3837890625">
<ele>3357</ele>
<time>2016-10-09T00:07:04Z</time>
</trkpt>
<trkpt lat="36.771934509277344" lon="-118.38372802734375">
<ele>3359</ele>
<time>2016-10-09T00:07:10Z</time>
</trkpt>
<trkpt lat="36.77192687988281" lon="-118.38365173339844">
<ele>3363</ele>
<time>2016-10-09T00:07:18Z</time>
</trkpt>
<trkpt lat="36.77197265625" lon="-118.38368225097656">
<ele>3365</ele>
<time>2016-10-09T00:07:42Z</time>
</trkpt>
<trkpt lat="36.772064208984375" lon="-118.38368225097656">
<ele>3365</ele>
<time>2016-10-09T00:07:52Z</time>
</trkpt>
<trkpt lat="36.77210235595703" lon="-118.38378143310547">
<ele>3369</ele>
<time>2016-10-09T00:08:01Z</time>
</trkpt>
<trkpt lat="36.77215576171875" lon="-118.3838882446289">
<ele>3370</ele>
<time>2016-10-09T00:08:08Z</time>
</trkpt>
<trkpt lat="36.772186279296875" lon="-118.3839340209961">
<ele>3370</ele>
<time>2016-10-09T00:08:15Z</time>
</trkpt>
<trkpt lat="36.77223205566406" lon="-118.38404846191406">
<ele>3368</ele>
<time>2016-10-09T00:08:24Z</time>
</trkpt>
<trkpt lat="36.77226638793945" lon="-118.38416290283203">
<ele>3372</ele>
<time>2016-10-09T00:08:31Z</time>
</trkpt>
<trkpt lat="36.77229690551758" lon="-118.38421630859375">
<ele>3370</ele>
<time>2016-10-09T00:08:37Z</time>
</trkpt>
<trkpt lat="36.7723274230957" lon="-118.38434600830078">
<ele>3370</ele>
<time>2016-10-09T00:08:47Z</time>
</trkpt>
<trkpt lat="36.77233123779297" lon="-118.38440704345703">
<ele>3372</ele>
<time>2016-10-09T00:08:54Z</time>
</trkpt>
<trkpt lat="36.772377014160156" lon="-118.38450622558594">
<ele>3374</ele>
<time>2016-10-09T00:09:00Z</time>
</trkpt>
<trkpt lat="36.77241897583008" lon="-118.38461303710938">
<ele>3374</ele>
<time>2016-10-09T00:09:07Z</time>
</trkpt>
<trkpt lat="36.772457122802734" lon="-118.38471984863281">
<ele>3375</ele>
<time>2016-10-09T00:09:15Z</time>
</trkpt>
<trkpt lat="36.77250289916992" lon="-118.38482666015625">
<ele>3375</ele>
<time>2016-10-09T00:09:28Z</time>
</trkpt>
<trkpt lat="36.772525787353516" lon="-118.38477325439453">
<ele>3376</ele>
<time>2016-10-09T00:09:43Z</time>
</trkpt>
<trkpt lat="36.772544860839844" lon="-118.38471984863281">
<ele>3375</ele>
<time>2016-10-09T00:09:49Z</time>
</trkpt>
<trkpt lat="36.772579193115234" lon="-118.38468170166016">
<ele>3378</ele>
<time>2016-10-09T00:09:58Z</time>
</trkpt>
<trkpt lat="36.772605895996094" lon="-118.38459014892578">
<ele>3385</ele>
<time>2016-10-09T00:10:20Z</time>
</trkpt>
<trkpt lat="36.77263259887695" lon="-118.38447570800781">
<ele>3382</ele>
<time>2016-10-09T00:10:30Z</time>
</trkpt>
<trkpt lat="36.77266311645508" lon="-118.38443756103516">
<ele>3382</ele>
<time>2016-10-09T00:10:39Z</time>
</trkpt>
<trkpt lat="36.7726936340332" lon="-118.38439178466797">
<ele>3390</ele>
<time>2016-10-09T00:10:45Z</time>
</trkpt>
<trkpt lat="36.772708892822266" lon="-118.38433074951172">
<ele>3385</ele>
<time>2016-10-09T00:10:53Z</time>
</trkpt>
<trkpt lat="36.7727165222168" lon="-118.38426971435547">
<ele>3386</ele>
<time>2016-10-09T00:11:05Z</time>
</trkpt>
<trkpt lat="36.77273178100586" lon="-118.38420867919922">
<ele>3386</ele>
<time>2016-10-09T00:11:11Z</time>
</trkpt>
<trkpt lat="36.77276611328125" lon="-118.38409423828125">
<ele>3387</ele>
<time>2016-10-09T00:11:20Z</time>
</trkpt>
<trkpt lat="36.772789001464844" lon="-118.38404083251953">
<ele>3387</ele>
<time>2016-10-09T00:11:27Z</time>
</trkpt>
<trkpt lat="36.77281188964844" lon="-118.38399505615234">
<ele>3390</ele>
<time>2016-10-09T00:11:33Z</time>
</trkpt>
<trkpt lat="36.772796630859375" lon="-118.38386535644531">
<ele>3385</ele>
<time>2016-10-09T00:15:09Z</time>
</trkpt>
<trkpt lat="36.77280044555664" lon="-118.38375854492188">
<ele>3396</ele>
<time>2016-10-09T00:15:27Z</time>
</trkpt>
<trkpt lat="36.77280807495117" lon="-118.38369750976563">
<ele>3396</ele>
<time>2016-10-09T00:15:33Z</time>
</trkpt>
<trkpt lat="36.77285385131836" lon="-118.38358306884766">
<ele>3397</ele>
<time>2016-10-09T00:15:47Z</time>
</trkpt>
<trkpt lat="36.772857666015625" lon="-118.38352966308594">
<ele>3396</ele>
<time>2016-10-09T00:15:53Z</time>
</trkpt>
<trkpt lat="36.772865295410156" lon="-118.38346862792969">
<ele>3395</ele>
<time>2016-10-09T00:15:59Z</time>
</trkpt>
<trkpt lat="36.77285385131836" lon="-118.38340759277344">
<ele>3393</ele>
<time>2016-10-09T00:16:05Z</time>
</trkpt>
<trkpt lat="36.77285385131836" lon="-118.38330078125">
<ele>3390</ele>
<time>2016-10-09T00:16:17Z</time>
</trkpt>
<trkpt lat="36.7728385925293" lon="-118.38323974609375">
<ele>3393</ele>
<time>2016-10-09T00:16:24Z</time>
</trkpt>
<trkpt lat="36.77281951904297" lon="-118.3831787109375">
<ele>3394</ele>
<time>2016-10-09T00:16:30Z</time>
</trkpt>
<trkpt lat="36.7728157043457" lon="-118.38312530517578">
<ele>3399</ele>
<time>2016-10-09T00:16:42Z</time>
</trkpt>
<trkpt lat="36.77281188964844" lon="-118.38306427001953">
<ele>3399</ele>
<time>2016-10-09T00:16:48Z</time>
</trkpt>
<trkpt lat="36.77286911010742" lon="-118.3829574584961">
<ele>3399</ele>
<time>2016-10-09T00:16:56Z</time>
</trkpt>
<trkpt lat="36.77286911010742" lon="-118.3828353881836">
<ele>3399</ele>
<time>2016-10-09T00:17:05Z</time>
</trkpt>
<trkpt lat="36.77283477783203" lon="-118.38275909423828">
<ele>3401</ele>
<time>2016-10-09T00:17:11Z</time>
</trkpt>
<trkpt lat="36.77284240722656" lon="-118.38269805908203">
<ele>3404</ele>
<time>2016-10-09T00:17:17Z</time>
</trkpt>
<trkpt lat="36.772823333740234" lon="-118.38265228271484">
<ele>3405</ele>
<time>2016-10-09T00:17:23Z</time>
</trkpt>
<trkpt lat="36.772865295410156" lon="-118.38253784179688">
<ele>3405</ele>
<time>2016-10-09T00:17:32Z</time>
</trkpt>
<trkpt lat="36.77293395996094" lon="-118.38243865966797">
<ele>3407</ele>
<time>2016-10-09T00:17:41Z</time>
</trkpt>
<trkpt lat="36.77292251586914" lon="-118.38237762451172">
<ele>3406</ele>
<time>2016-10-09T00:17:48Z</time>
</trkpt>
<trkpt lat="36.77289962768555" lon="-118.38226318359375">
<ele>3404</ele>
<time>2016-10-09T00:17:57Z</time>
</trkpt>
<trkpt lat="36.77293014526367" lon="-118.38215637207031">
<ele>3408</ele>
<time>2016-10-09T00:18:08Z</time>
</trkpt>
<trkpt lat="36.7729377746582" lon="-118.38207244873047">
<ele>3412</ele>
<time>2016-10-09T00:18:20Z</time>
</trkpt>
<trkpt lat="36.77294921875" lon="-118.38201904296875">
<ele>3414</ele>
<time>2016-10-09T00:18:43Z</time>
</trkpt>
<trkpt lat="36.772972106933594" lon="-118.3819580078125">
<ele>3413</ele>
<time>2016-10-09T00:18:50Z</time>
</trkpt>
<trkpt lat="36.77295684814453" lon="-118.38184356689453">
<ele>3417</ele>
<time>2016-10-09T00:19:01Z</time>
</trkpt>
<trkpt lat="36.77298355102539" lon="-118.38172149658203">
<ele>3417</ele>
<time>2016-10-09T00:19:09Z</time>
</trkpt>
<trkpt lat="36.77300262451172" lon="-118.38164520263672">
<ele>3416</ele>
<time>2016-10-09T00:19:17Z</time>
</trkpt>
<trkpt lat="36.77299880981445" lon="-118.38157653808594">
<ele>3416</ele>
<time>2016-10-09T00:19:23Z</time>
</trkpt>
<trkpt lat="36.77304458618164" lon="-118.38150787353516">
<ele>3420</ele>
<time>2016-10-09T00:19:33Z</time>
</trkpt>
<trkpt lat="36.77308654785156" lon="-118.38153839111328">
<ele>3422</ele>
<time>2016-10-09T00:19:40Z</time>
</trkpt>
<trkpt lat="36.77313995361328" lon="-118.38155364990234">
<ele>3420</ele>
<time>2016-10-09T00:20:01Z</time>
</trkpt>
<trkpt lat="36.773223876953125" lon="-118.38163757324219">
<ele>3423</ele>
<time>2016-10-09T00:20:11Z</time>
</trkpt>
<trkpt lat="36.77326202392578" lon="-118.3816909790039">
<ele>3421</ele>
<time>2016-10-09T00:20:17Z</time>
</trkpt>
<trkpt lat="36.773319244384766" lon="-118.38179016113281">
<ele>3424</ele>
<time>2016-10-09T00:20:24Z</time>
</trkpt>
<trkpt lat="36.77336883544922" lon="-118.38189697265625">
<ele>3425</ele>
<time>2016-10-09T00:20:32Z</time>
</trkpt>
<trkpt lat="36.7734375" lon="-118.38198852539063">
<ele>3426</ele>
<time>2016-10-09T00:20:41Z</time>
</trkpt>
<trkpt lat="36.77348709106445" lon="-118.38201141357422">
<ele>3426</ele>
<time>2016-10-09T00:20:47Z</time>
</trkpt>
<trkpt lat="36.77352523803711" lon="-118.38204956054688">
<ele>3430</ele>
<time>2016-10-09T00:20:54Z</time>
</trkpt>
<trkpt lat="36.773555755615234" lon="-118.38209533691406">
<ele>3430</ele>
<time>2016-10-09T00:21:01Z</time>
</trkpt>
<trkpt lat="36.773590087890625" lon="-118.38201904296875">
<ele>3430</ele>
<time>2016-10-09T00:21:27Z</time>
</trkpt>
<trkpt lat="36.77362060546875" lon="-118.38196563720703">
<ele>3433</ele>
<time>2016-10-09T00:21:34Z</time>
</trkpt>
<trkpt lat="36.7736701965332" lon="-118.3819351196289">
<ele>3435</ele>
<time>2016-10-09T00:21:41Z</time>
</trkpt>
<trkpt lat="36.7736930847168" lon="-118.38188934326172">
<ele>3438</ele>
<time>2016-10-09T00:21:51Z</time>
</trkpt>
<trkpt lat="36.77372741699219" lon="-118.38185119628906">
<ele>3440</ele>
<time>2016-10-09T00:22:02Z</time>
</trkpt>
<trkpt lat="36.773719787597656" lon="-118.38177490234375">
<ele>3439</ele>
<time>2016-10-09T00:22:26Z</time>
</trkpt>
<trkpt lat="36.77374267578125" lon="-118.38172149658203">
<ele>3440</ele>
<time>2016-10-09T00:22:32Z</time>
</trkpt>
<trkpt lat="36.7737922668457" lon="-118.3816909790039">
<ele>3440</ele>
<time>2016-10-09T00:22:38Z</time>
</trkpt>
<trkpt lat="36.773841857910156" lon="-118.38170623779297">
<ele>3438</ele>
<time>2016-10-09T00:22:47Z</time>
</trkpt>
<trkpt lat="36.77388381958008" lon="-118.38172912597656">
<ele>3439</ele>
<time>2016-10-09T00:22:56Z</time>
</trkpt>
<trkpt lat="36.77390670776367" lon="-118.38167572021484">
<ele>3440</ele>
<time>2016-10-09T00:23:06Z</time>
</trkpt>
<trkpt lat="36.7739372253418" lon="-118.38157653808594">
<ele>3451</ele>
<time>2016-10-09T00:23:34Z</time>
</trkpt>
<trkpt lat="36.77389907836914" lon="-118.38153076171875">
<ele>3450</ele>
<time>2016-10-09T00:23:46Z</time>
</trkpt>
<trkpt lat="36.77385711669922" lon="-118.38143157958984">
<ele>3454</ele>
<time>2016-10-09T00:23:57Z</time>
</trkpt>
<trkpt lat="36.773834228515625" lon="-118.38137817382813">
<ele>3455</ele>
<time>2016-10-09T00:24:03Z</time>
</trkpt>
<trkpt lat="36.7737922668457" lon="-118.38134002685547">
<ele>3454</ele>
<time>2016-10-09T00:24:10Z</time>
</trkpt>
<trkpt lat="36.77378463745117" lon="-118.38127899169922">
<ele>3454</ele>
<time>2016-10-09T00:24:23Z</time>
</trkpt>
<trkpt lat="36.77377700805664" lon="-118.38121795654297">
<ele>3458</ele>
<time>2016-10-09T00:24:31Z</time>
</trkpt>
<trkpt lat="36.773765563964844" lon="-118.38116455078125">
<ele>3456</ele>
<time>2016-10-09T00:24:39Z</time>
</trkpt>
<trkpt lat="36.773738861083984" lon="-118.38111877441406">
<ele>3457</ele>
<time>2016-10-09T00:24:49Z</time>
</trkpt>
<trkpt lat="36.77371597290039" lon="-118.38106536865234">
<ele>3460</ele>
<time>2016-10-09T00:24:57Z</time>
</trkpt>
<trkpt lat="36.773780822753906" lon="-118.38107299804688">
<ele>3462</ele>
<time>2016-10-09T00:25:22Z</time>
</trkpt>
<trkpt lat="36.773780822753906" lon="-118.38101196289063">
<ele>3465</ele>
<time>2016-10-09T00:25:52Z</time>
</trkpt>
<trkpt lat="36.77375793457031" lon="-118.3809585571289">
<ele>3468</ele>
<time>2016-10-09T00:25:59Z</time>
</trkpt>
<trkpt lat="36.77375411987305" lon="-118.38088989257813">
<ele>3470</ele>
<time>2016-10-09T00:26:06Z</time>
</trkpt>
<trkpt lat="36.773780822753906" lon="-118.38079833984375">
<ele>3473</ele>
<time>2016-10-09T00:26:17Z</time>
</trkpt>
<trkpt lat="36.773773193359375" lon="-118.3807373046875">
<ele>3474</ele>
<time>2016-10-09T00:26:26Z</time>
</trkpt>
<trkpt lat="36.77375793457031" lon="-118.38068389892578">
<ele>3475</ele>
<time>2016-10-09T00:26:47Z</time>
</trkpt>
<trkpt lat="36.773773193359375" lon="-118.38063049316406">
<ele>3476</ele>
<time>2016-10-09T00:27:44Z</time>
</trkpt>
<trkpt lat="36.77377700805664" lon="-118.38056945800781">
<ele>3480</ele>
<time>2016-10-09T00:27:53Z</time>
</trkpt>
<trkpt lat="36.7737922668457" lon="-118.3805160522461">
<ele>3478</ele>
<time>2016-10-09T00:28:02Z</time>
</trkpt>
<trkpt lat="36.77379608154297" lon="-118.38046264648438">
<ele>3479</ele>
<time>2016-10-09T00:28:08Z</time>
</trkpt>
<trkpt lat="36.77376937866211" lon="-118.38037109375">
<ele>3480</ele>
<time>2016-10-09T00:28:17Z</time>
</trkpt>
<trkpt lat="36.77376937866211" lon="-118.38031005859375">
<ele>3478</ele>
<time>2016-10-09T00:28:26Z</time>
</trkpt>
<trkpt lat="36.773780822753906" lon="-118.3802490234375">
<ele>3479</ele>
<time>2016-10-09T00:28:34Z</time>
</trkpt>
<trkpt lat="36.7737922668457" lon="-118.38019561767578">
<ele>3482</ele>
<time>2016-10-09T00:28:40Z</time>
</trkpt>
<trkpt lat="36.77378845214844" lon="-118.380126953125">
<ele>3482</ele>
<time>2016-10-09T00:28:48Z</time>
</trkpt>
<trkpt lat="36.7738151550293" lon="-118.38007354736328">
<ele>3485</ele>
<time>2016-10-09T00:29:03Z</time>
</trkpt>
<trkpt lat="36.7738037109375" lon="-118.37999725341797">
<ele>3486</ele>
<time>2016-10-09T00:29:20Z</time>
</trkpt>
<trkpt lat="36.773780822753906" lon="-118.37993621826172">
<ele>3490</ele>
<time>2016-10-09T00:29:30Z</time>
</trkpt>
<trkpt lat="36.77376174926758" lon="-118.37987518310547">
<ele>3493</ele>
<time>2016-10-09T00:29:37Z</time>
</trkpt>
<trkpt lat="36.773780822753906" lon="-118.3797607421875">
<ele>3494</ele>
<time>2016-10-09T00:29:48Z</time>
</trkpt>
<trkpt lat="36.773765563964844" lon="-118.379638671875">
<ele>3496</ele>
<time>2016-10-09T00:30:17Z</time>
</trkpt>
<trkpt lat="36.77376174926758" lon="-118.37957763671875">
<ele>3498</ele>
<time>2016-10-09T00:30:25Z</time>
</trkpt>
<trkpt lat="36.77375411987305" lon="-118.37952423095703">
<ele>3500</ele>
<time>2016-10-09T00:30:33Z</time>
</trkpt>
<trkpt lat="36.77376174926758" lon="-118.37946319580078">
<ele>3502</ele>
<time>2016-10-09T00:30:43Z</time>
</trkpt>
<trkpt lat="36.77375793457031" lon="-118.37940216064453">
<ele>3504</ele>
<time>2016-10-09T00:30:53Z</time>
</trkpt>
<trkpt lat="36.773738861083984" lon="-118.37934875488281">
<ele>3505</ele>
<time>2016-10-09T00:31:04Z</time>
</trkpt>
<trkpt lat="36.773773193359375" lon="-118.37925720214844">
<ele>3502</ele>
<time>2016-10-09T00:31:17Z</time>
</trkpt>
<trkpt lat="36.773773193359375" lon="-118.37918853759766">
<ele>3503</ele>
<time>2016-10-09T00:31:23Z</time>
</trkpt>
<trkpt lat="36.773765563964844" lon="-118.3791275024414">
<ele>3506</ele>
<time>2016-10-09T00:31:30Z</time>
</trkpt>
<trkpt lat="36.773773193359375" lon="-118.37906646728516">
<ele>3508</ele>
<time>2016-10-09T00:31:38Z</time>
</trkpt>
<trkpt lat="36.77376937866211" lon="-118.3790054321289">
<ele>3511</ele>
<time>2016-10-09T00:31:47Z</time>
</trkpt>
<trkpt lat="36.77374267578125" lon="-118.37891387939453">
<ele>3511</ele>
<time>2016-10-09T00:32:17Z</time>
</trkpt>
<trkpt lat="36.77373504638672" lon="-118.37886047363281">
<ele>3512</ele>
<time>2016-10-09T00:32:24Z</time>
</trkpt>
<trkpt lat="36.77373123168945" lon="-118.37879943847656">
<ele>3512</ele>
<time>2016-10-09T00:32:30Z</time>
</trkpt>
<trkpt lat="36.773712158203125" lon="-118.37874603271484">
<ele>3516</ele>
<time>2016-10-09T00:32:39Z</time>
</trkpt>
<trkpt lat="36.77371597290039" lon="-118.3786849975586">
<ele>3517</ele>
<time>2016-10-09T00:32:56Z</time>
</trkpt>
<trkpt lat="36.773704528808594" lon="-118.37863159179688">
<ele>3521</ele>
<time>2016-10-09T00:33:05Z</time>
</trkpt>
<trkpt lat="36.77366638183594" lon="-118.3785400390625">
<ele>3523</ele>
<time>2016-10-09T00:33:15Z</time>
</trkpt>
<trkpt lat="36.77363204956055" lon="-118.37848663330078">
<ele>3525</ele>
<time>2016-10-09T00:33:21Z</time>
</trkpt>
<trkpt lat="36.77360153198242" lon="-118.37837219238281">
<ele>3524</ele>
<time>2016-10-09T00:33:31Z</time>
</trkpt>
<trkpt lat="36.773590087890625" lon="-118.37831115722656">
<ele>3523</ele>
<time>2016-10-09T00:33:40Z</time>
</trkpt>
<trkpt lat="36.77357482910156" lon="-118.37825775146484">
<ele>3527</ele>
<time>2016-10-09T00:33:47Z</time>
</trkpt>
<trkpt lat="36.773536682128906" lon="-118.37821960449219">
<ele>3528</ele>
<time>2016-10-09T00:33:53Z</time>
</trkpt>
<trkpt lat="36.77349090576172" lon="-118.37820434570313">
<ele>3530</ele>
<time>2016-10-09T00:34:08Z</time>
</trkpt>
<trkpt lat="36.77345657348633" lon="-118.37812805175781">
<ele>3533</ele>
<time>2016-10-09T00:34:18Z</time>
</trkpt>
<trkpt lat="36.77345275878906" lon="-118.37806701660156">
<ele>3532</ele>
<time>2016-10-09T00:34:25Z</time>
</trkpt>
<trkpt lat="36.7734375" lon="-118.37801361083984">
<ele>3535</ele>
<time>2016-10-09T00:34:34Z</time>
</trkpt>
<trkpt lat="36.773414611816406" lon="-118.37796020507813">
<ele>3536</ele>
<time>2016-10-09T00:34:40Z</time>
</trkpt>
<trkpt lat="36.773399353027344" lon="-118.3779067993164">
<ele>3533</ele>
<time>2016-10-09T00:34:47Z</time>
</trkpt>
<trkpt lat="36.77336502075195" lon="-118.37786865234375">
<ele>3535</ele>
<time>2016-10-09T00:34:54Z</time>
</trkpt>
<trkpt lat="36.7733154296875" lon="-118.37784576416016">
<ele>3538</ele>
<time>2016-10-09T00:35:02Z</time>
</trkpt>
<trkpt lat="36.7733039855957" lon="-118.3777847290039">
<ele>3538</ele>
<time>2016-10-09T00:35:10Z</time>
</trkpt>
<trkpt lat="36.77334976196289" lon="-118.37776947021484">
<ele>3535</ele>
<time>2016-10-09T00:35:23Z</time>
</trkpt>
<trkpt lat="36.77344512939453" lon="-118.37779998779297">
<ele>3529</ele>
<time>2016-10-09T00:35:32Z</time>
</trkpt>
<trkpt lat="36.77354049682617" lon="-118.37786102294922">
<ele>3526</ele>
<time>2016-10-09T00:35:40Z</time>
</trkpt>
<trkpt lat="36.77360916137695" lon="-118.37796020507813">
<ele>3528</ele>
<time>2016-10-09T00:35:50Z</time>
</trkpt>
<trkpt lat="36.77367401123047" lon="-118.3780517578125">
<ele>3526</ele>
<time>2016-10-09T00:35:57Z</time>
</trkpt>
<trkpt lat="36.77364730834961" lon="-118.37799835205078">
<ele>3531</ele>
<time>2016-10-09T00:36:08Z</time>
</trkpt>
<trkpt lat="36.77362060546875" lon="-118.37793731689453">
<ele>3536</ele>
<time>2016-10-09T00:36:17Z</time>
</trkpt>
<trkpt lat="36.773616790771484" lon="-118.37786865234375">
<ele>3535</ele>
<time>2016-10-09T00:36:23Z</time>
</trkpt>
<trkpt lat="36.773582458496094" lon="-118.37782287597656">
<ele>3539</ele>
<time>2016-10-09T00:36:29Z</time>
</trkpt>
<trkpt lat="36.773536682128906" lon="-118.37771606445313">
<ele>3540</ele>
<time>2016-10-09T00:36:41Z</time>
</trkpt>
<trkpt lat="36.77349853515625" lon="-118.377685546875">
<ele>3543</ele>
<time>2016-10-09T00:36:50Z</time>
</trkpt>
<trkpt lat="36.7735595703125" lon="-118.3777084350586">
<ele>3545</ele>
<time>2016-10-09T00:37:29Z</time>
</trkpt>
<trkpt lat="36.773643493652344" lon="-118.3777847290039">
<ele>3542</ele>
<time>2016-10-09T00:37:37Z</time>
</trkpt>
<trkpt lat="36.773685455322266" lon="-118.37782287597656">
<ele>3541</ele>
<time>2016-10-09T00:37:43Z</time>
</trkpt>
<trkpt lat="36.77372741699219" lon="-118.37786865234375">
<ele>3541</ele>
<time>2016-10-09T00:37:49Z</time>
</trkpt>
<trkpt lat="36.77376174926758" lon="-118.37791442871094">
<ele>3542</ele>
<time>2016-10-09T00:37:55Z</time>
</trkpt>
<trkpt lat="36.77384567260742" lon="-118.37801361083984">
<ele>3545</ele>
<time>2016-10-09T00:38:03Z</time>
</trkpt>
<trkpt lat="36.773826599121094" lon="-118.37789916992188">
<ele>3550</ele>
<time>2016-10-09T00:38:19Z</time>
</trkpt>
<trkpt lat="36.7738151550293" lon="-118.37784576416016">
<ele>3552</ele>
<time>2016-10-09T00:38:27Z</time>
</trkpt>
<trkpt lat="36.7737922668457" lon="-118.37779235839844">
<ele>3548</ele>
<time>2016-10-09T00:38:33Z</time>
</trkpt>
<trkpt lat="36.773765563964844" lon="-118.37774658203125">
<ele>3553</ele>
<time>2016-10-09T00:38:40Z</time>
</trkpt>
<trkpt lat="36.77375030517578" lon="-118.377685546875">
<ele>3553</ele>
<time>2016-10-09T00:38:46Z</time>
</trkpt>
<trkpt lat="36.77373123168945" lon="-118.37763977050781">
<ele>3557</ele>
<time>2016-10-09T00:38:52Z</time>
</trkpt>
<trkpt lat="36.77369689941406" lon="-118.37760162353516">
<ele>3559</ele>
<time>2016-10-09T00:38:58Z</time>
</trkpt>
<trkpt lat="36.77366638183594" lon="-118.37755584716797">
<ele>3558</ele>
<time>2016-10-09T00:39:08Z</time>
</trkpt>
<trkpt lat="36.773616790771484" lon="-118.37748718261719">
<ele>3563</ele>
<time>2016-10-09T00:39:17Z</time>
</trkpt>
<trkpt lat="36.773582458496094" lon="-118.37744140625">
<ele>3563</ele>
<time>2016-10-09T00:39:23Z</time>
</trkpt>
<trkpt lat="36.773555755615234" lon="-118.3773193359375">
<ele>3560</ele>
<time>2016-10-09T00:39:31Z</time>
</trkpt>
<trkpt lat="36.773494720458984" lon="-118.37723541259766">
<ele>3563</ele>
<time>2016-10-09T00:39:39Z</time>
</trkpt>
<trkpt lat="36.7734489440918" lon="-118.37722778320313">
<ele>3562</ele>
<time>2016-10-09T00:39:45Z</time>
</trkpt>
<trkpt lat="36.773399353027344" lon="-118.37713623046875">
<ele>3560</ele>
<time>2016-10-09T00:40:01Z</time>
</trkpt>
<trkpt lat="36.77339172363281" lon="-118.3770751953125">
<ele>3559</ele>
<time>2016-10-09T00:40:18Z</time>
</trkpt>
<trkpt lat="36.77335739135742" lon="-118.37702941894531">
<ele>3559</ele>
<time>2016-10-09T00:40:24Z</time>
</trkpt>
<trkpt lat="36.773319244384766" lon="-118.37698364257813">
<ele>3560</ele>
<time>2016-10-09T00:40:32Z</time>
</trkpt>
<trkpt lat="36.77324676513672" lon="-118.37689971923828">
<ele>3561</ele>
<time>2016-10-09T00:40:42Z</time>
</trkpt>
<trkpt lat="36.77322006225586" lon="-118.37684631347656">
<ele>3564</ele>
<time>2016-10-09T00:40:48Z</time>
</trkpt>
<trkpt lat="36.77318572998047" lon="-118.37680053710938">
<ele>3568</ele>
<time>2016-10-09T00:40:54Z</time>
</trkpt>
<trkpt lat="36.773136138916016" lon="-118.37677764892578">
<ele>3568</ele>
<time>2016-10-09T00:41:04Z</time>
</trkpt>
<trkpt lat="36.773075103759766" lon="-118.37670135498047">
<ele>3566</ele>
<time>2016-10-09T00:41:11Z</time>
</trkpt>
<trkpt lat="36.77312469482422" lon="-118.3766098022461">
<ele>3571</ele>
<time>2016-10-09T00:41:38Z</time>
</trkpt>
<trkpt lat="36.77314758300781" lon="-118.37655639648438">
<ele>3569</ele>
<time>2016-10-09T00:41:44Z</time>
</trkpt>
</trkseg>
</trk>
<trk>
<name><![CDATA[10081742]]></name>
<number>27</number>
<extensions><topografix:color>ff000066</topografix:color></extensions>
<trkseg>
<trkpt lat="36.77314376831055" lon="-118.37653350830078">
<ele>3570</ele>
<time>2016-10-09T00:42:12Z</time>
</trkpt>
<trkpt lat="36.7731819152832" lon="-118.37649536132813">
<ele>3572</ele>
<time>2016-10-09T00:42:32Z</time>
</trkpt>
<trkpt lat="36.77326202392578" lon="-118.37641906738281">
<ele>3571</ele>
<time>2016-10-09T00:42:41Z</time>
</trkpt>
<trkpt lat="36.77330780029297" lon="-118.37643432617188">
<ele>3565</ele>
<time>2016-10-09T00:43:21Z</time>
</trkpt>
<trkpt lat="36.773345947265625" lon="-118.37639617919922">
<ele>3565</ele>
<time>2016-10-09T00:43:33Z</time>
</trkpt>
<trkpt lat="36.77335739135742" lon="-118.3763427734375">
<ele>3564</ele>
<time>2016-10-09T00:43:39Z</time>
</trkpt>
<trkpt lat="36.77339553833008" lon="-118.37623596191406">
<ele>3564</ele>
<time>2016-10-09T00:43:49Z</time>
</trkpt>
<trkpt lat="36.77351379394531" lon="-118.3760757446289">
<ele>3568</ele>
<time>2016-10-09T00:43:56Z</time>
</trkpt>
<trkpt lat="36.773651123046875" lon="-118.37596893310547">
<ele>3564</ele>
<time>2016-10-09T00:44:05Z</time>
</trkpt>
<trkpt lat="36.77367401123047" lon="-118.37582397460938">
<ele>3561</ele>
<time>2016-10-09T00:44:11Z</time>
</trkpt>
<trkpt lat="36.7737922668457" lon="-118.37569427490234">
<ele>3559</ele>
<time>2016-10-09T00:44:18Z</time>
</trkpt>
<trkpt lat="36.77387237548828" lon="-118.37560272216797">
<ele>3559</ele>
<time>2016-10-09T00:44:27Z</time>
</trkpt>
<trkpt lat="36.77392578125" lon="-118.37550354003906">
<ele>3556</ele>
<time>2016-10-09T00:44:33Z</time>
</trkpt>
<trkpt lat="36.77397155761719" lon="-118.37538146972656">
<ele>3548</ele>
<time>2016-10-09T00:44:43Z</time>
</trkpt>
<trkpt lat="36.7739372253418" lon="-118.37544250488281">
<ele>3560</ele>
<time>2016-10-09T00:44:49Z</time>
</trkpt>
<trkpt lat="36.773895263671875" lon="-118.37541961669922">
<ele>3556</ele>
<time>2016-10-09T00:44:55Z</time>
</trkpt>
<trkpt lat="36.773887634277344" lon="-118.37529754638672">
<ele>3552</ele>
<time>2016-10-09T00:45:02Z</time>
</trkpt>
<trkpt lat="36.773887634277344" lon="-118.37517547607422">
<ele>3545</ele>
<time>2016-10-09T00:45:08Z</time>
</trkpt>
<trkpt lat="36.77389144897461" lon="-118.37505340576172">
<ele>3538</ele>
<time>2016-10-09T00:45:20Z</time>
</trkpt>
<trkpt lat="36.77387237548828" lon="-118.37493133544922">
<ele>3536</ele>
<time>2016-10-09T00:45:29Z</time>
</trkpt>
<trkpt lat="36.77385330200195" lon="-118.37480926513672">
<ele>3546</ele>
<time>2016-10-09T00:45:38Z</time>
</trkpt>
<trkpt lat="36.77379608154297" lon="-118.37470245361328">
<ele>3527</ele>
<time>2016-10-09T00:45:46Z</time>
</trkpt>
<trkpt lat="36.773773193359375" lon="-118.3746566772461">
<ele>3523</ele>
<time>2016-10-09T00:45:52Z</time>
</trkpt>
<trkpt lat="36.77375030517578" lon="-118.37460327148438">
<ele>3520</ele>
<time>2016-10-09T00:46:00Z</time>
</trkpt>
<trkpt lat="36.77366638183594" lon="-118.37458801269531">
<ele>3518</ele>
<time>2016-10-09T00:46:10Z</time>
</trkpt>
<trkpt lat="36.77360534667969" lon="-118.37454223632813">
<ele>3512</ele>
<time>2016-10-09T00:46:20Z</time>
</trkpt>
<trkpt lat="36.77360153198242" lon="-118.3744888305664">
<ele>3509</ele>
<time>2016-10-09T00:46:26Z</time>
</trkpt>
<trkpt lat="36.77358627319336" lon="-118.37442779541016">
<ele>3507</ele>
<time>2016-10-09T00:46:32Z</time>
</trkpt>
<trkpt lat="36.7735595703125" lon="-118.37429809570313">
<ele>3500</ele>
<time>2016-10-09T00:46:42Z</time>
</trkpt>
<trkpt lat="36.7735710144043" lon="-118.37417602539063">
<ele>3498</ele>
<time>2016-10-09T00:46:50Z</time>
</trkpt>
<trkpt lat="36.77357482910156" lon="-118.37406158447266">
<ele>3501</ele>
<time>2016-10-09T00:46:59Z</time>
</trkpt>
<trkpt lat="36.773590087890625" lon="-118.37393951416016">
<ele>3503</ele>
<time>2016-10-09T00:47:07Z</time>
</trkpt>
<trkpt lat="36.77360534667969" lon="-118.37382507324219">
<ele>3498</ele>
<time>2016-10-09T00:47:21Z</time>
</trkpt>
<trkpt lat="36.773624420166016" lon="-118.37370300292969">
<ele>3493</ele>
<time>2016-10-09T00:47:28Z</time>
</trkpt>
<trkpt lat="36.77358627319336" lon="-118.37358856201172">
<ele>3489</ele>
<time>2016-10-09T00:47:36Z</time>
</trkpt>
<trkpt lat="36.77358627319336" lon="-118.37346649169922">
<ele>3526</ele>
<time>2016-10-09T00:47:43Z</time>
</trkpt>
<trkpt lat="36.773590087890625" lon="-118.37334442138672">
<ele>3492</ele>
<time>2016-10-09T00:47:52Z</time>
</trkpt>
<trkpt lat="36.77359390258789" lon="-118.37322235107422">
<ele>3498</ele>
<time>2016-10-09T00:48:02Z</time>
</trkpt>
<trkpt lat="36.77360534667969" lon="-118.37310028076172">
<ele>3489</ele>
<time>2016-10-09T00:48:10Z</time>
</trkpt>
<trkpt lat="36.77357482910156" lon="-118.37301635742188">
<ele>3507</ele>
<time>2016-10-09T00:48:17Z</time>
</trkpt>
<trkpt lat="36.773555755615234" lon="-118.37289428710938">
<ele>3495</ele>
<time>2016-10-09T00:48:26Z</time>
</trkpt>
<trkpt lat="36.773563385009766" lon="-118.3728256225586">
<ele>3489</ele>
<time>2016-10-09T00:48:40Z</time>
</trkpt>
<trkpt lat="36.77357864379883" lon="-118.37269592285156">
<ele>3480</ele>
<time>2016-10-09T00:48:46Z</time>
</trkpt>
<trkpt lat="36.773597717285156" lon="-118.37252044677734">
<ele>3476</ele>
<time>2016-10-09T00:48:54Z</time>
</trkpt>
<trkpt lat="36.77359390258789" lon="-118.37239074707031">
<ele>3475</ele>
<time>2016-10-09T00:49:02Z</time>
</trkpt>
<trkpt lat="36.77362060546875" lon="-118.37226867675781">
<ele>3472</ele>
<time>2016-10-09T00:49:09Z</time>
</trkpt>
<trkpt lat="36.773624420166016" lon="-118.37213897705078">
<ele>3470</ele>
<time>2016-10-09T00:49:15Z</time>
</trkpt>
<trkpt lat="36.77361297607422" lon="-118.37199401855469">
<ele>3472</ele>
<time>2016-10-09T00:49:22Z</time>
</trkpt>
<trkpt lat="36.77365493774414" lon="-118.37186431884766">
<ele>3468</ele>
<time>2016-10-09T00:49:29Z</time>
</trkpt>
<trkpt lat="36.77364730834961" lon="-118.37174224853516">
<ele>3466</ele>
<time>2016-10-09T00:49:35Z</time>
</trkpt>
<trkpt lat="36.77363967895508" lon="-118.37161254882813">
<ele>3466</ele>
<time>2016-10-09T00:49:41Z</time>
</trkpt>
<trkpt lat="36.77365493774414" lon="-118.37149810791016">
<ele>3465</ele>
<time>2016-10-09T00:49:48Z</time>
</trkpt>
<trkpt lat="36.773658752441406" lon="-118.3713607788086">
<ele>3462</ele>
<time>2016-10-09T00:49:55Z</time>
</trkpt>
<trkpt lat="36.773685455322266" lon="-118.37124633789063">
<ele>3463</ele>
<time>2016-10-09T00:50:01Z</time>
</trkpt>
<trkpt lat="36.773658752441406" lon="-118.37109375">
<ele>3463</ele>
<time>2016-10-09T00:50:08Z</time>
</trkpt>
<trkpt lat="36.77370071411133" lon="-118.37096405029297">
<ele>3459</ele>
<time>2016-10-09T00:50:15Z</time>
</trkpt>
<trkpt lat="36.773738861083984" lon="-118.370849609375">
<ele>3456</ele>
<time>2016-10-09T00:50:21Z</time>
</trkpt>
<trkpt lat="36.77376174926758" lon="-118.37071228027344">
<ele>3451</ele>
<time>2016-10-09T00:50:29Z</time>
</trkpt>
<trkpt lat="36.77375030517578" lon="-118.37057495117188">
<ele>3451</ele>
<time>2016-10-09T00:50:35Z</time>
</trkpt>
<trkpt lat="36.773773193359375" lon="-118.37044525146484">
<ele>3451</ele>
<time>2016-10-09T00:50:42Z</time>
</trkpt>
<trkpt lat="36.77373504638672" lon="-118.37031555175781">
<ele>3449</ele>
<time>2016-10-09T00:50:48Z</time>
</trkpt>
<trkpt lat="36.77376937866211" lon="-118.37017822265625">
<ele>3449</ele>
<time>2016-10-09T00:50:56Z</time>
</trkpt>
<trkpt lat="36.773746490478516" lon="-118.37005615234375">
<ele>3450</ele>
<time>2016-10-09T00:51:02Z</time>
</trkpt>
<trkpt lat="36.77375793457031" lon="-118.36992645263672">
<ele>3450</ele>
<time>2016-10-09T00:51:11Z</time>
</trkpt>
<trkpt lat="36.773712158203125" lon="-118.36978912353516">
<ele>3449</ele>
<time>2016-10-09T00:51:18Z</time>
</trkpt>
<trkpt lat="36.773681640625" lon="-118.36966705322266">
<ele>3442</ele>
<time>2016-10-09T00:51:26Z</time>
</trkpt>
<trkpt lat="36.773624420166016" lon="-118.36955261230469">
<ele>3442</ele>
<time>2016-10-09T00:51:32Z</time>
</trkpt>
<trkpt lat="36.7735595703125" lon="-118.36943817138672">
<ele>3441</ele>
<time>2016-10-09T00:51:39Z</time>
</trkpt>
<trkpt lat="36.77350997924805" lon="-118.36933135986328">
<ele>3439</ele>
<time>2016-10-09T00:51:45Z</time>
</trkpt>
<trkpt lat="36.77341842651367" lon="-118.36917114257813">
<ele>3435</ele>
<time>2016-10-09T00:51:54Z</time>
</trkpt>
<trkpt lat="36.773380279541016" lon="-118.3690414428711">
<ele>3435</ele>
<time>2016-10-09T00:52:01Z</time>
</trkpt>
<trkpt lat="36.7733039855957" lon="-118.36888122558594">
<ele>3433</ele>
<time>2016-10-09T00:52:09Z</time>
</trkpt>
<trkpt lat="36.77324676513672" lon="-118.3687744140625">
<ele>3436</ele>
<time>2016-10-09T00:52:15Z</time>
</trkpt>
<trkpt lat="36.7732048034668" lon="-118.36866760253906">
<ele>3432</ele>
<time>2016-10-09T00:52:21Z</time>
</trkpt>
<trkpt lat="36.77311706542969" lon="-118.36849975585938">
<ele>3431</ele>
<time>2016-10-09T00:52:30Z</time>
</trkpt>
<trkpt lat="36.773101806640625" lon="-118.36837005615234">
<ele>3432</ele>
<time>2016-10-09T00:52:37Z</time>
</trkpt>
<trkpt lat="36.773048400878906" lon="-118.36834716796875">
<ele>3431</ele>
<time>2016-10-09T00:52:43Z</time>
</trkpt>
<trkpt lat="36.77298355102539" lon="-118.36827850341797">
<ele>3431</ele>
<time>2016-10-09T00:52:50Z</time>
</trkpt>
<trkpt lat="36.772918701171875" lon="-118.3681869506836">
<ele>3425</ele>
<time>2016-10-09T00:52:59Z</time>
</trkpt>
<trkpt lat="36.77290725708008" lon="-118.36813354492188">
<ele>3421</ele>
<time>2016-10-09T00:53:06Z</time>
</trkpt>
<trkpt lat="36.77281951904297" lon="-118.36810302734375">
<ele>3414</ele>
<time>2016-10-09T00:53:21Z</time>
</trkpt>
<trkpt lat="36.7727165222168" lon="-118.36813354492188">
<ele>3412</ele>
<time>2016-10-09T00:53:30Z</time>
</trkpt>
<trkpt lat="36.77261734008789" lon="-118.36807250976563">
<ele>3406</ele>
<time>2016-10-09T00:53:38Z</time>
</trkpt>
<trkpt lat="36.77250671386719" lon="-118.36803436279297">
<ele>3405</ele>
<time>2016-10-09T00:53:45Z</time>
</trkpt>
<trkpt lat="36.77242660522461" lon="-118.36795806884766">
<ele>3402</ele>
<time>2016-10-09T00:53:53Z</time>
</trkpt>
<trkpt lat="36.772361755371094" lon="-118.36785125732422">
<ele>3402</ele>
<time>2016-10-09T00:54:00Z</time>
</trkpt>
<trkpt lat="36.772315979003906" lon="-118.3678207397461">
<ele>3398</ele>
<time>2016-10-09T00:54:06Z</time>
</trkpt>
<trkpt lat="36.7722282409668" lon="-118.36775207519531">
<ele>3401</ele>
<time>2016-10-09T00:54:12Z</time>
</trkpt>
<trkpt lat="36.77217483520508" lon="-118.36764526367188">
<ele>3400</ele>
<time>2016-10-09T00:54:18Z</time>
</trkpt>
<trkpt lat="36.77206039428711" lon="-118.36752319335938">
<ele>3398</ele>
<time>2016-10-09T00:54:27Z</time>
</trkpt>
<trkpt lat="36.771968841552734" lon="-118.36742401123047">
<ele>3398</ele>
<time>2016-10-09T00:54:34Z</time>
</trkpt>
<trkpt lat="36.77189254760742" lon="-118.36731719970703">
<ele>3397</ele>
<time>2016-10-09T00:54:40Z</time>
</trkpt>
<trkpt lat="36.77185821533203" lon="-118.36723327636719">
<ele>3397</ele>
<time>2016-10-09T00:54:48Z</time>
</trkpt>
<trkpt lat="36.771751403808594" lon="-118.36725616455078">
<ele>3394</ele>
<time>2016-10-09T00:54:56Z</time>
</trkpt>
<trkpt lat="36.77171325683594" lon="-118.3672103881836">
<ele>3394</ele>
<time>2016-10-09T00:55:02Z</time>
</trkpt>
<trkpt lat="36.77163314819336" lon="-118.36713409423828">
<ele>3392</ele>
<time>2016-10-09T00:55:10Z</time>
</trkpt>
<trkpt lat="36.77155303955078" lon="-118.36711883544922">
<ele>3388</ele>
<time>2016-10-09T00:55:16Z</time>
</trkpt>
<trkpt lat="36.7714729309082" lon="-118.3671875">
<ele>3384</ele>
<time>2016-10-09T00:55:25Z</time>
</trkpt>
<trkpt lat="36.77133560180664" lon="-118.36724090576172">
<ele>3386</ele>
<time>2016-10-09T00:55:33Z</time>
</trkpt>
<trkpt lat="36.771236419677734" lon="-118.36729431152344">
<ele>3385</ele>
<time>2016-10-09T00:55:40Z</time>
</trkpt>
<trkpt lat="36.77113342285156" lon="-118.3673095703125">
<ele>3384</ele>
<time>2016-10-09T00:55:50Z</time>
</trkpt>
<trkpt lat="36.77103042602539" lon="-118.36737060546875">
<ele>3386</ele>
<time>2016-10-09T00:55:56Z</time>
</trkpt>
<trkpt lat="36.771053314208984" lon="-118.3673095703125">
<ele>3379</ele>
<time>2016-10-09T00:56:05Z</time>
</trkpt>
<trkpt lat="36.77113342285156" lon="-118.36722564697266">
<ele>3377</ele>
<time>2016-10-09T00:56:12Z</time>
</trkpt>
<trkpt lat="36.77122116088867" lon="-118.36712646484375">
<ele>3376</ele>
<time>2016-10-09T00:56:20Z</time>
</trkpt>
<trkpt lat="36.77113342285156" lon="-118.36713409423828">
<ele>3372</ele>
<time>2016-10-09T00:56:36Z</time>
</trkpt>
<trkpt lat="36.77104187011719" lon="-118.36720275878906">
<ele>3372</ele>
<time>2016-10-09T00:56:43Z</time>
</trkpt>
<trkpt lat="36.77103805541992" lon="-118.36712646484375">
<ele>3371</ele>
<time>2016-10-09T00:56:50Z</time>
</trkpt>
<trkpt lat="36.771095275878906" lon="-118.36702728271484">
<ele>3373</ele>
<time>2016-10-09T00:56:59Z</time>
</trkpt>
<trkpt lat="36.77116775512695" lon="-118.36695861816406">
<ele>3371</ele>
<time>2016-10-09T00:57:05Z</time>
</trkpt>
<trkpt lat="36.77125930786133" lon="-118.36692810058594">
<ele>3371</ele>
<time>2016-10-09T00:57:12Z</time>
</trkpt>
<trkpt lat="36.77131652832031" lon="-118.36688995361328">
<ele>3370</ele>
<time>2016-10-09T00:57:18Z</time>
</trkpt>
<trkpt lat="36.77141571044922" lon="-118.36682891845703">
<ele>3370</ele>
<time>2016-10-09T00:57:27Z</time>
</trkpt>
<trkpt lat="36.77135467529297" lon="-118.36682891845703">
<ele>3371</ele>
<time>2016-10-09T00:57:36Z</time>
</trkpt>
<trkpt lat="36.77125549316406" lon="-118.36680603027344">
<ele>3369</ele>
<time>2016-10-09T00:57:42Z</time>
</trkpt>
<trkpt lat="36.77115249633789" lon="-118.3667984008789">
<ele>3364</ele>
<time>2016-10-09T00:57:50Z</time>
</trkpt>
<trkpt lat="36.77109146118164" lon="-118.3667984008789">
<ele>3365</ele>
<time>2016-10-09T00:57:56Z</time>
</trkpt>
<trkpt lat="36.77098846435547" lon="-118.36685180664063">
<ele>3363</ele>
<time>2016-10-09T00:58:03Z</time>
</trkpt>
<trkpt lat="36.77090072631836" lon="-118.36685943603516">
<ele>3361</ele>
<time>2016-10-09T00:58:12Z</time>
</trkpt>
<trkpt lat="36.77088928222656" lon="-118.36674499511719">
<ele>3360</ele>
<time>2016-10-09T00:58:23Z</time>
</trkpt>
<trkpt lat="36.770877838134766" lon="-118.36669158935547">
<ele>3355</ele>
<time>2016-10-09T00:58:29Z</time>
</trkpt>
<trkpt lat="36.770877838134766" lon="-118.36662292480469">
<ele>3354</ele>
<time>2016-10-09T00:58:35Z</time>
</trkpt>
<trkpt lat="36.770835876464844" lon="-118.36658477783203">
<ele>3352</ele>
<time>2016-10-09T00:58:42Z</time>
</trkpt>
<trkpt lat="36.77082824707031" lon="-118.36648559570313">
<ele>3350</ele>
<time>2016-10-09T00:59:03Z</time>
</trkpt>
<trkpt lat="36.77077865600586" lon="-118.3664779663086">
<ele>3348</ele>
<time>2016-10-09T00:59:10Z</time>
</trkpt>
<trkpt lat="36.77068328857422" lon="-118.36651611328125">
<ele>3348</ele>
<time>2016-10-09T00:59:16Z</time>
</trkpt>
<trkpt lat="36.770599365234375" lon="-118.36656951904297">
<ele>3348</ele>
<time>2016-10-09T00:59:23Z</time>
</trkpt>
<trkpt lat="36.77054214477539" lon="-118.36666870117188">
<ele>3347</ele>
<time>2016-10-09T00:59:31Z</time>
</trkpt>
<trkpt lat="36.7704963684082" lon="-118.36669158935547">
<ele>3355</ele>
<time>2016-10-09T00:59:56Z</time>
</trkpt>
<trkpt lat="36.77051544189453" lon="-118.36662292480469">
<ele>3345</ele>
<time>2016-10-09T01:00:06Z</time>
</trkpt>
<trkpt lat="36.7705192565918" lon="-118.36653900146484">
<ele>3344</ele>
<time>2016-10-09T01:00:12Z</time>
</trkpt>
<trkpt lat="36.77055358886719" lon="-118.36641693115234">
<ele>3344</ele>
<time>2016-10-09T01:00:19Z</time>
</trkpt>
<trkpt lat="36.770626068115234" lon="-118.36634063720703">
<ele>3344</ele>
<time>2016-10-09T01:00:26Z</time>
</trkpt>
<trkpt lat="36.770721435546875" lon="-118.3663101196289">
<ele>3343</ele>
<time>2016-10-09T01:00:33Z</time>
</trkpt>
<trkpt lat="36.770774841308594" lon="-118.36629486083984">
<ele>3343</ele>
<time>2016-10-09T01:00:40Z</time>
</trkpt>
<trkpt lat="36.77085876464844" lon="-118.36625671386719">
<ele>3346</ele>
<time>2016-10-09T01:00:48Z</time>
</trkpt>
<trkpt lat="36.77090072631836" lon="-118.36622619628906">
<ele>3338</ele>
<time>2016-10-09T01:00:54Z</time>
</trkpt>
<trkpt lat="36.77088165283203" lon="-118.36617279052734">
<ele>3332</ele>
<time>2016-10-09T01:01:03Z</time>
</trkpt>
<trkpt lat="36.77092742919922" lon="-118.36615753173828">
<ele>3332</ele>
<time>2016-10-09T01:01:09Z</time>
</trkpt>
<trkpt lat="36.77101516723633" lon="-118.36617279052734">
<ele>3332</ele>
<time>2016-10-09T01:01:16Z</time>
</trkpt>
<trkpt lat="36.771114349365234" lon="-118.36618041992188">
<ele>3327</ele>
<time>2016-10-09T01:01:23Z</time>
</trkpt>
<trkpt lat="36.77122116088867" lon="-118.3661880493164">
<ele>3331</ele>
<time>2016-10-09T01:01:31Z</time>
</trkpt>
<trkpt lat="36.77132034301758" lon="-118.36620330810547">
<ele>3326</ele>
<time>2016-10-09T01:01:38Z</time>
</trkpt>
<trkpt lat="36.771419525146484" lon="-118.36617279052734">
<ele>3324</ele>
<time>2016-10-09T01:01:44Z</time>
</trkpt>
<trkpt lat="36.771514892578125" lon="-118.36611938476563">
<ele>3326</ele>
<time>2016-10-09T01:01:50Z</time>
</trkpt>
<trkpt lat="36.77159118652344" lon="-118.36605834960938">
<ele>3326</ele>
<time>2016-10-09T01:01:56Z</time>
</trkpt>
<trkpt lat="36.77167892456055" lon="-118.36599731445313">
<ele>3325</ele>
<time>2016-10-09T01:02:03Z</time>
</trkpt>
<trkpt lat="36.77178955078125" lon="-118.36598205566406">
<ele>3322</ele>
<time>2016-10-09T01:02:09Z</time>
</trkpt>
<trkpt lat="36.771888732910156" lon="-118.3659439086914">
<ele>3323</ele>
<time>2016-10-09T01:02:15Z</time>
</trkpt>
<trkpt lat="36.77200698852539" lon="-118.36592102050781">
<ele>3322</ele>
<time>2016-10-09T01:02:23Z</time>
</trkpt>
<trkpt lat="36.77208709716797" lon="-118.3658676147461">
<ele>3320</ele>
<time>2016-10-09T01:02:30Z</time>
</trkpt>
<trkpt lat="36.77214813232422" lon="-118.36575317382813">
<ele>3316</ele>
<time>2016-10-09T01:02:38Z</time>
</trkpt>
<trkpt lat="36.77220916748047" lon="-118.36566162109375">
<ele>3312</ele>
<time>2016-10-09T01:02:44Z</time>
</trkpt>
<trkpt lat="36.77228927612305" lon="-118.3655776977539">
<ele>3309</ele>
<time>2016-10-09T01:02:51Z</time>
</trkpt>
<trkpt lat="36.772369384765625" lon="-118.36551666259766">
<ele>3306</ele>
<time>2016-10-09T01:02:57Z</time>
</trkpt>
<trkpt lat="36.77244186401367" lon="-118.36543273925781">
<ele>3306</ele>
<time>2016-10-09T01:03:04Z</time>
</trkpt>
<trkpt lat="36.77247619628906" lon="-118.3653793334961">
<ele>3307</ele>
<time>2016-10-09T01:03:10Z</time>
</trkpt>
<trkpt lat="36.77250289916992" lon="-118.3652114868164">
<ele>3312</ele>
<time>2016-10-09T01:03:18Z</time>
</trkpt>
<trkpt lat="36.772499084472656" lon="-118.36507415771484">
<ele>3311</ele>
<time>2016-10-09T01:03:26Z</time>
</trkpt>
<trkpt lat="36.772499084472656" lon="-118.36495208740234">
<ele>3311</ele>
<time>2016-10-09T01:03:33Z</time>
</trkpt>
<trkpt lat="36.77251052856445" lon="-118.36483001708984">
<ele>3309</ele>
<time>2016-10-09T01:03:40Z</time>
</trkpt>
<trkpt lat="36.772422790527344" lon="-118.36476135253906">
<ele>3304</ele>
<time>2016-10-09T01:03:49Z</time>
</trkpt>
<trkpt lat="36.772335052490234" lon="-118.36473083496094">
<ele>3300</ele>
<time>2016-10-09T01:03:56Z</time>
</trkpt>
<trkpt lat="36.77225112915039" lon="-118.3646469116211">
<ele>3295</ele>
<time>2016-10-09T01:04:06Z</time>
</trkpt>
<trkpt lat="36.77219009399414" lon="-118.36461639404297">
<ele>3295</ele>
<time>2016-10-09T01:04:12Z</time>
</trkpt>
<trkpt lat="36.77217483520508" lon="-118.36449432373047">
<ele>3293</ele>
<time>2016-10-09T01:04:20Z</time>
</trkpt>
<trkpt lat="36.77214813232422" lon="-118.36437225341797">
<ele>3292</ele>
<time>2016-10-09T01:04:28Z</time>
</trkpt>
<trkpt lat="36.772098541259766" lon="-118.36429595947266">
<ele>3290</ele>
<time>2016-10-09T01:04:38Z</time>
</trkpt>
<trkpt lat="36.77198791503906" lon="-118.36431121826172">
<ele>3287</ele>
<time>2016-10-09T01:04:59Z</time>
</trkpt>
<trkpt lat="36.77188491821289" lon="-118.3642807006836">
<ele>3284</ele>
<time>2016-10-09T01:05:08Z</time>
</trkpt>
<trkpt lat="36.77184295654297" lon="-118.36418151855469">
<ele>3281</ele>
<time>2016-10-09T01:05:15Z</time>
</trkpt>
<trkpt lat="36.77189254760742" lon="-118.36408233642578">
<ele>3284</ele>
<time>2016-10-09T01:05:21Z</time>
</trkpt>
<trkpt lat="36.771949768066406" lon="-118.36397552490234">
<ele>3282</ele>
<time>2016-10-09T01:05:27Z</time>
</trkpt>
<trkpt lat="36.771949768066406" lon="-118.36386108398438">
<ele>3279</ele>
<time>2016-10-09T01:05:35Z</time>
</trkpt>
<trkpt lat="36.77194595336914" lon="-118.36373138427734">
<ele>3276</ele>
<time>2016-10-09T01:05:43Z</time>
</trkpt>
<trkpt lat="36.77194595336914" lon="-118.36358642578125">
<ele>3274</ele>
<time>2016-10-09T01:05:50Z</time>
</trkpt>
<trkpt lat="36.77196502685547" lon="-118.36347198486328">
<ele>3275</ele>
<time>2016-10-09T01:05:56Z</time>
</trkpt>
<trkpt lat="36.771907806396484" lon="-118.36336517333984">
<ele>3276</ele>
<time>2016-10-09T01:06:02Z</time>
</trkpt>
<trkpt lat="36.77189254760742" lon="-118.36328125">
<ele>3275</ele>
<time>2016-10-09T01:06:12Z</time>
</trkpt>
</trkseg>
</trk>
<trk>
<name><![CDATA[10081806]]></name>
<number>28</number>
<extensions><topografix:color>ff000066</topografix:color></extensions>
<trkseg>
<trkpt lat="36.77191925048828" lon="-118.36325073242188">
<ele>3268</ele>
<time>2016-10-09T01:06:35Z</time>
</trkpt>
<trkpt lat="36.77191162109375" lon="-118.3631820678711">
<ele>3264</ele>
<time>2016-10-09T01:06:53Z</time>
</trkpt>
<trkpt lat="36.771854400634766" lon="-118.36307525634766">
<ele>3268</ele>
<time>2016-10-09T01:07:01Z</time>
</trkpt>
<trkpt lat="36.77183532714844" lon="-118.36294555664063">
<ele>3267</ele>
<time>2016-10-09T01:07:09Z</time>
</trkpt>
<trkpt lat="36.77180480957031" lon="-118.36282348632813">
<ele>3264</ele>
<time>2016-10-09T01:07:16Z</time>
</trkpt>
<trkpt lat="36.771751403808594" lon="-118.36272430419922">
<ele>3261</ele>
<time>2016-10-09T01:07:23Z</time>
</trkpt>
<trkpt lat="36.77167892456055" lon="-118.36263275146484">
<ele>3259</ele>
<time>2016-10-09T01:07:31Z</time>
</trkpt>
<trkpt lat="36.77157974243164" lon="-118.3625717163086">
<ele>3257</ele>
<time>2016-10-09T01:07:41Z</time>
</trkpt>
<trkpt lat="36.771488189697266" lon="-118.36250305175781">
<ele>3255</ele>
<time>2016-10-09T01:07:49Z</time>
</trkpt>
<trkpt lat="36.771419525146484" lon="-118.36241149902344">
<ele>3253</ele>
<time>2016-10-09T01:07:56Z</time>
</trkpt>
<trkpt lat="36.77134704589844" lon="-118.36233520507813">
<ele>3251</ele>
<time>2016-10-09T01:08:02Z</time>
</trkpt>
<trkpt lat="36.771270751953125" lon="-118.36225128173828">
<ele>3254</ele>
<time>2016-10-09T01:08:08Z</time>
</trkpt>
<trkpt lat="36.77119445800781" lon="-118.36216735839844">
<ele>3254</ele>
<time>2016-10-09T01:08:15Z</time>
</trkpt>
<trkpt lat="36.77117156982422" lon="-118.36204528808594">
<ele>3256</ele>
<time>2016-10-09T01:08:23Z</time>
</trkpt>
<trkpt lat="36.77113342285156" lon="-118.36192321777344">
<ele>3254</ele>
<time>2016-10-09T01:08:31Z</time>
</trkpt>
<trkpt lat="36.77111053466797" lon="-118.3617935180664">
<ele>3253</ele>
<time>2016-10-09T01:08:39Z</time>
</trkpt>
<trkpt lat="36.77107238769531" lon="-118.36166381835938">
<ele>3253</ele>
<time>2016-10-09T01:08:46Z</time>
</trkpt>
<trkpt lat="36.77106475830078" lon="-118.36153411865234">
<ele>3254</ele>
<time>2016-10-09T01:08:53Z</time>
</trkpt>
<trkpt lat="36.771018981933594" lon="-118.36135864257813">
<ele>3251</ele>
<time>2016-10-09T01:09:01Z</time>
</trkpt>
<trkpt lat="36.77100372314453" lon="-118.3612289428711">
<ele>3246</ele>
<time>2016-10-09T01:09:08Z</time>
</trkpt>
<trkpt lat="36.770999908447266" lon="-118.36109924316406">
<ele>3247</ele>
<time>2016-10-09T01:09:15Z</time>
</trkpt>
<trkpt lat="36.770973205566406" lon="-118.3609619140625">
<ele>3249</ele>
<time>2016-10-09T01:09:23Z</time>
</trkpt>
<trkpt lat="36.77095031738281" lon="-118.36084747314453">
<ele>3249</ele>
<time>2016-10-09T01:09:29Z</time>
</trkpt>
<trkpt lat="36.77096176147461" lon="-118.36071014404297">
<ele>3250</ele>
<time>2016-10-09T01:09:36Z</time>
</trkpt>
<trkpt lat="36.77097702026367" lon="-118.360595703125">
<ele>3247</ele>
<time>2016-10-09T01:09:42Z</time>
</trkpt>
<trkpt lat="36.77098083496094" lon="-118.36046600341797">
<ele>3248</ele>
<time>2016-10-09T01:09:49Z</time>
</trkpt>
<trkpt lat="36.77097702026367" lon="-118.3603286743164">
<ele>3243</ele>
<time>2016-10-09T01:09:57Z</time>
</trkpt>
<trkpt lat="36.770957946777344" lon="-118.3602066040039">
<ele>3241</ele>
<time>2016-10-09T01:10:05Z</time>
</trkpt>
<trkpt lat="36.77091598510742" lon="-118.3600845336914">
<ele>3243</ele>
<time>2016-10-09T01:10:12Z</time>
</trkpt>
<trkpt lat="36.77092361450195" lon="-118.3599624633789">
<ele>3237</ele>
<time>2016-10-09T01:10:19Z</time>
</trkpt>
<trkpt lat="36.770931243896484" lon="-118.35984802246094">
<ele>3240</ele>
<time>2016-10-09T01:10:26Z</time>
</trkpt>
<trkpt lat="36.77096176147461" lon="-118.35972595214844">
<ele>3240</ele>
<time>2016-10-09T01:10:32Z</time>
</trkpt>
<trkpt lat="36.7710075378418" lon="-118.35961151123047">
<ele>3242</ele>
<time>2016-10-09T01:10:42Z</time>
</trkpt>
<trkpt lat="36.771018981933594" lon="-118.3594741821289">
<ele>3243</ele>
<time>2016-10-09T01:10:50Z</time>
</trkpt>
<trkpt lat="36.77104187011719" lon="-118.3593521118164">
<ele>3246</ele>
<time>2016-10-09T01:10:57Z</time>
</trkpt>
<trkpt lat="36.77106475830078" lon="-118.35922241210938">
<ele>3244</ele>
<time>2016-10-09T01:11:06Z</time>
</trkpt>
<trkpt lat="36.771080017089844" lon="-118.35910034179688">
<ele>3238</ele>
<time>2016-10-09T01:11:16Z</time>
</trkpt>
<trkpt lat="36.77107620239258" lon="-118.35902404785156">
<ele>3235</ele>
<time>2016-10-09T01:11:23Z</time>
</trkpt>
<trkpt lat="36.77112579345703" lon="-118.35892486572266">
<ele>3235</ele>
<time>2016-10-09T01:11:31Z</time>
</trkpt>
<trkpt lat="36.77116775512695" lon="-118.35884094238281">
<ele>3240</ele>
<time>2016-10-09T01:11:43Z</time>
</trkpt>
<trkpt lat="36.771148681640625" lon="-118.35872650146484">
<ele>3232</ele>
<time>2016-10-09T01:11:53Z</time>
</trkpt>
<trkpt lat="36.77113342285156" lon="-118.35860443115234">
<ele>3269</ele>
<time>2016-10-09T01:12:13Z</time>
</trkpt>
<trkpt lat="36.771095275878906" lon="-118.35850524902344">
<ele>3231</ele>
<time>2016-10-09T01:12:19Z</time>
</trkpt>
<trkpt lat="36.7711296081543" lon="-118.35838317871094">
<ele>3220</ele>
<time>2016-10-09T01:12:26Z</time>
</trkpt>
<trkpt lat="36.77117156982422" lon="-118.3582992553711">
<ele>3221</ele>
<time>2016-10-09T01:12:35Z</time>
</trkpt>
<trkpt lat="36.77125549316406" lon="-118.35822296142578">
<ele>3280</ele>
<time>2016-10-09T01:12:42Z</time>
</trkpt>
<trkpt lat="36.771263122558594" lon="-118.35816192626953">
<ele>3224</ele>
<time>2016-10-09T01:12:48Z</time>
</trkpt>
<trkpt lat="36.771305084228516" lon="-118.35812377929688">
<ele>3224</ele>
<time>2016-10-09T01:12:54Z</time>
</trkpt>
<trkpt lat="36.771324157714844" lon="-118.35807800292969">
<ele>3223</ele>
<time>2016-10-09T01:13:00Z</time>
</trkpt>
<trkpt lat="36.77132797241211" lon="-118.35797119140625">
<ele>3225</ele>
<time>2016-10-09T01:13:19Z</time>
</trkpt>
<trkpt lat="36.7713737487793" lon="-118.35785675048828">
<ele>3220</ele>
<time>2016-10-09T01:13:28Z</time>
</trkpt>
<trkpt lat="36.771446228027344" lon="-118.35780334472656">
<ele>3222</ele>
<time>2016-10-09T01:13:45Z</time>
</trkpt>
<trkpt lat="36.7714958190918" lon="-118.3577880859375">
<ele>3222</ele>
<time>2016-10-09T01:13:51Z</time>
</trkpt>
<trkpt lat="36.77152633666992" lon="-118.35774230957031">
<ele>3220</ele>
<time>2016-10-09T01:13:57Z</time>
</trkpt>
<trkpt lat="36.77153778076172" lon="-118.35768127441406">
<ele>3218</ele>
<time>2016-10-09T01:14:04Z</time>
</trkpt>
<trkpt lat="36.77153778076172" lon="-118.35761260986328">
<ele>3242</ele>
<time>2016-10-09T01:14:11Z</time>
</trkpt>
<trkpt lat="36.77153778076172" lon="-118.35755920410156">
<ele>3222</ele>
<time>2016-10-09T01:14:19Z</time>
</trkpt>
<trkpt lat="36.77149963378906" lon="-118.3575210571289">
<ele>3212</ele>
<time>2016-10-09T01:14:34Z</time>
</trkpt>
<trkpt lat="36.77145767211914" lon="-118.35749053955078">
<ele>3210</ele>
<time>2016-10-09T01:14:46Z</time>
</trkpt>
<trkpt lat="36.77149200439453" lon="-118.35737609863281">
<ele>3207</ele>
<time>2016-10-09T01:14:59Z</time>
</trkpt>
<trkpt lat="36.77151870727539" lon="-118.35731506347656">
<ele>3206</ele>
<time>2016-10-09T01:15:05Z</time>
</trkpt>
<trkpt lat="36.771522521972656" lon="-118.35725402832031">
<ele>3206</ele>
<time>2016-10-09T01:15:11Z</time>
</trkpt>
<trkpt lat="36.77153015136719" lon="-118.35719299316406">
<ele>3209</ele>
<time>2016-10-09T01:15:17Z</time>
</trkpt>
<trkpt lat="36.771514892578125" lon="-118.35707092285156">
<ele>3205</ele>
<time>2016-10-09T01:15:35Z</time>
</trkpt>
<trkpt lat="36.771484375" lon="-118.35702514648438">
<ele>3206</ele>
<time>2016-10-09T01:15:43Z</time>
</trkpt>
<trkpt lat="36.7714729309082" lon="-118.35697174072266">
<ele>3205</ele>
<time>2016-10-09T01:15:51Z</time>
</trkpt>
<trkpt lat="36.77151107788086" lon="-118.35692596435547">
<ele>3200</ele>
<time>2016-10-09T01:16:02Z</time>
</trkpt>
<trkpt lat="36.77153778076172" lon="-118.35686492919922">
<ele>3281</ele>
<time>2016-10-09T01:16:10Z</time>
</trkpt>
<trkpt lat="36.77157974243164" lon="-118.35675811767578">
<ele>3209</ele>
<time>2016-10-09T01:16:19Z</time>
</trkpt>
<trkpt lat="36.77156448364258" lon="-118.35665893554688">
<ele>3200</ele>
<time>2016-10-09T01:16:58Z</time>
</trkpt>
<trkpt lat="36.771522521972656" lon="-118.3565444946289">
<ele>3200</ele>
<time>2016-10-09T01:17:10Z</time>
</trkpt>
<trkpt lat="36.77149963378906" lon="-118.35649108886719">
<ele>3196</ele>
<time>2016-10-09T01:17:16Z</time>
</trkpt>
<trkpt lat="36.771453857421875" lon="-118.35646057128906">
<ele>3192</ele>
<time>2016-10-09T01:17:24Z</time>
</trkpt>
<trkpt lat="36.77144241333008" lon="-118.35639953613281">
<ele>3187</ele>
<time>2016-10-09T01:17:33Z</time>
</trkpt>
<trkpt lat="36.77140808105469" lon="-118.35633850097656">
<ele>3184</ele>
<time>2016-10-09T01:17:44Z</time>
</trkpt>
<trkpt lat="36.77137756347656" lon="-118.35629272460938">
<ele>3183</ele>
<time>2016-10-09T01:17:51Z</time>
</trkpt>
<trkpt lat="36.771278381347656" lon="-118.35631561279297">
<ele>3180</ele>
<time>2016-10-09T01:18:02Z</time>
</trkpt>
<trkpt lat="36.7712516784668" lon="-118.35619354248047">
<ele>3180</ele>
<time>2016-10-09T01:18:11Z</time>
</trkpt>
<trkpt lat="36.771263122558594" lon="-118.3560791015625">
<ele>3174</ele>
<time>2016-10-09T01:18:20Z</time>
</trkpt>
<trkpt lat="36.77128601074219" lon="-118.35594940185547">
<ele>3173</ele>
<time>2016-10-09T01:18:27Z</time>
</trkpt>
<trkpt lat="36.77125549316406" lon="-118.35584259033203">
<ele>3171</ele>
<time>2016-10-09T01:18:35Z</time>
</trkpt>
<trkpt lat="36.77122497558594" lon="-118.35574340820313">
<ele>3167</ele>
<time>2016-10-09T01:18:49Z</time>
</trkpt>
<trkpt lat="36.771141052246094" lon="-118.35570526123047">
<ele>3191</ele>
<time>2016-10-09T01:19:05Z</time>
</trkpt>
<trkpt lat="36.77106857299805" lon="-118.35574340820313">
<ele>3170</ele>
<time>2016-10-09T01:19:15Z</time>
</trkpt>
<trkpt lat="36.7709846496582" lon="-118.3558120727539">
<ele>3161</ele>
<time>2016-10-09T01:19:23Z</time>
</trkpt>
<trkpt lat="36.77094268798828" lon="-118.35582733154297">
<ele>3159</ele>
<time>2016-10-09T01:19:29Z</time>
</trkpt>
<trkpt lat="36.770877838134766" lon="-118.35584259033203">
<ele>3158</ele>
<time>2016-10-09T01:19:35Z</time>
</trkpt>
<trkpt lat="36.77083206176758" lon="-118.35580444335938">
<ele>3154</ele>
<time>2016-10-09T01:19:41Z</time>
</trkpt>
<trkpt lat="36.77078628540039" lon="-118.35579681396484">
<ele>3155</ele>
<time>2016-10-09T01:19:47Z</time>
</trkpt>
<trkpt lat="36.770687103271484" lon="-118.35575866699219">
<ele>3152</ele>
<time>2016-10-09T01:19:59Z</time>
</trkpt>
<trkpt lat="36.77058410644531" lon="-118.3557357788086">
<ele>3150</ele>
<time>2016-10-09T01:20:07Z</time>
</trkpt>
<trkpt lat="36.770511627197266" lon="-118.35564422607422">
<ele>3152</ele>
<time>2016-10-09T01:20:15Z</time>
</trkpt>
<trkpt lat="36.77042007446289" lon="-118.35558319091797">
<ele>3151</ele>
<time>2016-10-09T01:20:24Z</time>
</trkpt>
<trkpt lat="36.770408630371094" lon="-118.35552215576172">
<ele>3151</ele>
<time>2016-10-09T01:20:30Z</time>
</trkpt>
<trkpt lat="36.77029800415039" lon="-118.35540771484375">
<ele>3150</ele>
<time>2016-10-09T01:20:38Z</time>
</trkpt>
<trkpt lat="36.77022933959961" lon="-118.3553237915039">
<ele>3147</ele>
<time>2016-10-09T01:20:44Z</time>
</trkpt>
<trkpt lat="36.7701416015625" lon="-118.35526275634766">
<ele>3147</ele>
<time>2016-10-09T01:20:51Z</time>
</trkpt>
<trkpt lat="36.77009963989258" lon="-118.35514831542969">
<ele>3240</ele>
<time>2016-10-09T01:20:59Z</time>
</trkpt>
<trkpt lat="36.77002716064453" lon="-118.35506439208984">
<ele>3154</ele>
<time>2016-10-09T01:21:06Z</time>
</trkpt>
<trkpt lat="36.770015716552734" lon="-118.35494995117188">
<ele>3142</ele>
<time>2016-10-09T01:21:12Z</time>
</trkpt>
<trkpt lat="36.77001190185547" lon="-118.35479736328125">
<ele>3147</ele>
<time>2016-10-09T01:21:19Z</time>
</trkpt>
<trkpt lat="36.77003860473633" lon="-118.35466766357422">
<ele>3146</ele>
<time>2016-10-09T01:21:25Z</time>
</trkpt>
<trkpt lat="36.77009582519531" lon="-118.35456085205078">
<ele>3173</ele>
<time>2016-10-09T01:21:33Z</time>
</trkpt>
<trkpt lat="36.77010726928711" lon="-118.35447692871094">
<ele>3150</ele>
<time>2016-10-09T01:21:39Z</time>
</trkpt>
<trkpt lat="36.77017593383789" lon="-118.35436248779297">
<ele>3169</ele>
<time>2016-10-09T01:21:45Z</time>
</trkpt>
<trkpt lat="36.77022933959961" lon="-118.35426330566406">
<ele>3146</ele>
<time>2016-10-09T01:21:53Z</time>
</trkpt>
<trkpt lat="36.77029800415039" lon="-118.3541488647461">
<ele>3155</ele>
<time>2016-10-09T01:22:01Z</time>
</trkpt>
<trkpt lat="36.770301818847656" lon="-118.35403442382813">
<ele>3141</ele>
<time>2016-10-09T01:22:10Z</time>
</trkpt>
<trkpt lat="36.77033233642578" lon="-118.35391998291016">
<ele>3141</ele>
<time>2016-10-09T01:22:19Z</time>
</trkpt>
<trkpt lat="36.770381927490234" lon="-118.35382080078125">
<ele>3143</ele>
<time>2016-10-09T01:22:28Z</time>
</trkpt>
<trkpt lat="36.77039337158203" lon="-118.353759765625">
<ele>3139</ele>
<time>2016-10-09T01:22:34Z</time>
</trkpt>
<trkpt lat="36.77046203613281" lon="-118.35368347167969">
<ele>3138</ele>
<time>2016-10-09T01:22:47Z</time>
</trkpt>
<trkpt lat="36.77056121826172" lon="-118.35360717773438">
<ele>3137</ele>
<time>2016-10-09T01:22:53Z</time>
</trkpt>
<trkpt lat="36.77060317993164" lon="-118.35356903076172">
<ele>3133</ele>
<time>2016-10-09T01:22:59Z</time>
</trkpt>
<trkpt lat="36.770668029785156" lon="-118.35346221923828">
<ele>3131</ele>
<time>2016-10-09T01:23:05Z</time>
</trkpt>
<trkpt lat="36.77070236206055" lon="-118.35334777832031">
<ele>3130</ele>
<time>2016-10-09T01:23:13Z</time>
</trkpt>
<trkpt lat="36.7707633972168" lon="-118.3532485961914">
<ele>3128</ele>
<time>2016-10-09T01:23:21Z</time>
</trkpt>
<trkpt lat="36.770843505859375" lon="-118.35320281982422">
<ele>3131</ele>
<time>2016-10-09T01:23:32Z</time>
</trkpt>
<trkpt lat="36.77091979980469" lon="-118.35316467285156">
<ele>3129</ele>
<time>2016-10-09T01:23:40Z</time>
</trkpt>
<trkpt lat="36.77101516723633" lon="-118.35311126708984">
<ele>3128</ele>
<time>2016-10-09T01:23:48Z</time>
</trkpt>
<trkpt lat="36.77108383178711" lon="-118.35301208496094">
<ele>3127</ele>
<time>2016-10-09T01:23:56Z</time>
</trkpt>
<trkpt lat="36.77103042602539" lon="-118.35301208496094">
<ele>3126</ele>
<time>2016-10-09T01:24:08Z</time>
</trkpt>
<trkpt lat="36.770938873291016" lon="-118.3530502319336">
<ele>3125</ele>
<time>2016-10-09T01:24:14Z</time>
</trkpt>
<trkpt lat="36.770957946777344" lon="-118.35292053222656">
<ele>3128</ele>
<time>2016-10-09T01:24:24Z</time>
</trkpt>
<trkpt lat="36.77094268798828" lon="-118.35279846191406">
<ele>3125</ele>
<time>2016-10-09T01:24:31Z</time>
</trkpt>
<trkpt lat="36.77091979980469" lon="-118.35270690917969">
<ele>3126</ele>
<time>2016-10-09T01:24:45Z</time>
</trkpt>
<trkpt lat="36.77092742919922" lon="-118.35264587402344">
<ele>3118</ele>
<time>2016-10-09T01:24:52Z</time>
</trkpt>
<trkpt lat="36.77089309692383" lon="-118.3525390625">
<ele>3113</ele>
<time>2016-10-09T01:25:06Z</time>
</trkpt>
<trkpt lat="36.77094268798828" lon="-118.35242462158203">
<ele>3110</ele>
<time>2016-10-09T01:25:16Z</time>
</trkpt>
<trkpt lat="36.77092742919922" lon="-118.35235595703125">
<ele>3200</ele>
<time>2016-10-09T01:25:23Z</time>
</trkpt>
<trkpt lat="36.77091979980469" lon="-118.35222625732422">
<ele>3122</ele>
<time>2016-10-09T01:25:30Z</time>
</trkpt>
<trkpt lat="36.77084732055664" lon="-118.35221862792969">
<ele>3102</ele>
<time>2016-10-09T01:25:45Z</time>
</trkpt>
<trkpt lat="36.770751953125" lon="-118.35224151611328">
<ele>3104</ele>
<time>2016-10-09T01:25:54Z</time>
</trkpt>
<trkpt lat="36.77070617675781" lon="-118.35212707519531">
<ele>3085</ele>
<time>2016-10-09T01:26:05Z</time>
</trkpt>
<trkpt lat="36.77067565917969" lon="-118.35200500488281">
<ele>3082</ele>
<time>2016-10-09T01:26:13Z</time>
</trkpt>
<trkpt lat="36.7706298828125" lon="-118.35198211669922">
<ele>3081</ele>
<time>2016-10-09T01:26:23Z</time>
</trkpt>
<trkpt lat="36.77057647705078" lon="-118.35188293457031">
<ele>3128</ele>
<time>2016-10-09T01:26:30Z</time>
</trkpt>
<trkpt lat="36.77056121826172" lon="-118.35176849365234">
<ele>3082</ele>
<time>2016-10-09T01:26:39Z</time>
</trkpt>
<trkpt lat="36.77051544189453" lon="-118.35177612304688">
<ele>3075</ele>
<time>2016-10-09T01:26:58Z</time>
</trkpt>
<trkpt lat="36.77047348022461" lon="-118.35176086425781">
<ele>3074</ele>
<time>2016-10-09T01:27:04Z</time>
</trkpt>
<trkpt lat="36.77052688598633" lon="-118.35176849365234">
<ele>3099</ele>
<time>2016-10-09T01:27:12Z</time>
</trkpt>
<trkpt lat="36.770626068115234" lon="-118.35172271728516">
<ele>3080</ele>
<time>2016-10-09T01:27:19Z</time>
</trkpt>
<trkpt lat="36.77073287963867" lon="-118.3516845703125">
<ele>3092</ele>
<time>2016-10-09T01:27:26Z</time>
</trkpt>
<trkpt lat="36.77076721191406" lon="-118.35162353515625">
<ele>3138</ele>
<time>2016-10-09T01:27:33Z</time>
</trkpt>
<trkpt lat="36.77083969116211" lon="-118.35157012939453">
<ele>3094</ele>
<time>2016-10-09T01:27:39Z</time>
</trkpt>
<trkpt lat="36.77092742919922" lon="-118.35153198242188">
<ele>3086</ele>
<time>2016-10-09T01:27:45Z</time>
</trkpt>
<trkpt lat="36.7708740234375" lon="-118.35143280029297">
<ele>3076</ele>
<time>2016-10-09T01:28:18Z</time>
</trkpt>
<trkpt lat="36.770896911621094" lon="-118.351318359375">
<ele>3071</ele>
<time>2016-10-09T01:28:26Z</time>
</trkpt>
<trkpt lat="36.77088165283203" lon="-118.3511962890625">
<ele>3065</ele>
<time>2016-10-09T01:28:34Z</time>
</trkpt>
<trkpt lat="36.77083969116211" lon="-118.35113525390625">
<ele>3102</ele>
<time>2016-10-09T01:28:40Z</time>
</trkpt>
<trkpt lat="36.77079391479492" lon="-118.35103607177734">
<ele>3077</ele>
<time>2016-10-09T01:28:49Z</time>
</trkpt>
<trkpt lat="36.77076721191406" lon="-118.3509750366211">
<ele>3070</ele>
<time>2016-10-09T01:28:55Z</time>
</trkpt>
<trkpt lat="36.77073287963867" lon="-118.35084533691406">
<ele>3117</ele>
<time>2016-10-09T01:29:02Z</time>
</trkpt>
<trkpt lat="36.77070617675781" lon="-118.35071563720703">
<ele>3146</ele>
<time>2016-10-09T01:29:08Z</time>
</trkpt>
<trkpt lat="36.7706184387207" lon="-118.35065460205078">
<ele>3124</ele>
<time>2016-10-09T01:29:16Z</time>
</trkpt>
<trkpt lat="36.77054214477539" lon="-118.35059356689453">
<ele>3066</ele>
<time>2016-10-09T01:29:24Z</time>
</trkpt>
<trkpt lat="36.77048873901367" lon="-118.3504867553711">
<ele>3053</ele>
<time>2016-10-09T01:29:32Z</time>
</trkpt>
<trkpt lat="36.77046585083008" lon="-118.35037994384766">
<ele>3041</ele>
<time>2016-10-09T01:29:40Z</time>
</trkpt>
<trkpt lat="36.77040481567383" lon="-118.35031127929688">
<ele>3038</ele>
<time>2016-10-09T01:29:49Z</time>
</trkpt>
<trkpt lat="36.770320892333984" lon="-118.35025787353516">
<ele>3056</ele>
<time>2016-10-09T01:29:58Z</time>
</trkpt>
<trkpt lat="36.77027893066406" lon="-118.35023498535156">
<ele>3098</ele>
<time>2016-10-09T01:30:04Z</time>
</trkpt>
<trkpt lat="36.77018356323242" lon="-118.35018157958984">
<ele>3081</ele>
<time>2016-10-09T01:30:11Z</time>
</trkpt>
<trkpt lat="36.77006530761719" lon="-118.3500747680664">
<ele>3047</ele>
<time>2016-10-09T01:30:19Z</time>
</trkpt>
<trkpt lat="36.77008819580078" lon="-118.3499526977539">
<ele>3086</ele>
<time>2016-10-09T01:30:25Z</time>
</trkpt>
<trkpt lat="36.77020263671875" lon="-118.34983825683594">
<ele>3045</ele>
<time>2016-10-09T01:30:34Z</time>
</trkpt>
<trkpt lat="36.77021408081055" lon="-118.34972381591797">
<ele>3029</ele>
<time>2016-10-09T01:30:45Z</time>
</trkpt>
<trkpt lat="36.770164489746094" lon="-118.34970092773438">
<ele>3029</ele>
<time>2016-10-09T01:30:53Z</time>
</trkpt>
<trkpt lat="36.770164489746094" lon="-118.34960174560547">
<ele>3025</ele>
<time>2016-10-09T01:31:12Z</time>
</trkpt>
<trkpt lat="36.77015686035156" lon="-118.34954833984375">
<ele>3022</ele>
<time>2016-10-09T01:31:19Z</time>
</trkpt>
<trkpt lat="36.770145416259766" lon="-118.3494873046875">
<ele>3021</ele>
<time>2016-10-09T01:31:28Z</time>
</trkpt>
<trkpt lat="36.77012634277344" lon="-118.34940338134766">
<ele>3019</ele>
<time>2016-10-09T01:31:35Z</time>
</trkpt>
<trkpt lat="36.77008819580078" lon="-118.34934997558594">
<ele>3019</ele>
<time>2016-10-09T01:31:52Z</time>
</trkpt>
<trkpt lat="36.76998519897461" lon="-118.34932708740234">
<ele>3017</ele>
<time>2016-10-09T01:31:59Z</time>
</trkpt>
<trkpt lat="36.769927978515625" lon="-118.34923553466797">
<ele>3011</ele>
<time>2016-10-09T01:32:06Z</time>
</trkpt>
<trkpt lat="36.77002716064453" lon="-118.34919738769531">
<ele>3054</ele>
<time>2016-10-09T01:32:12Z</time>
</trkpt>
<trkpt lat="36.770137786865234" lon="-118.34918212890625">
<ele>3089</ele>
<time>2016-10-09T01:32:20Z</time>
</trkpt>
<trkpt lat="36.77009201049805" lon="-118.34910583496094">
<ele>3008</ele>
<time>2016-10-09T01:32:30Z</time>
</trkpt>
<trkpt lat="36.77007293701172" lon="-118.34900665283203">
<ele>3000</ele>
<time>2016-10-09T01:32:43Z</time>
</trkpt>
<trkpt lat="36.77019119262695" lon="-118.3489990234375">
<ele>2998</ele>
<time>2016-10-09T01:32:50Z</time>
</trkpt>
<trkpt lat="36.770294189453125" lon="-118.34900665283203">
<ele>2996</ele>
<time>2016-10-09T01:32:56Z</time>
</trkpt>
<trkpt lat="36.77045822143555" lon="-118.34898376464844">
<ele>2994</ele>
<time>2016-10-09T01:33:05Z</time>
</trkpt>
<trkpt lat="36.77041244506836" lon="-118.34893035888672">
<ele>2995</ele>
<time>2016-10-09T01:33:20Z</time>
</trkpt>
<trkpt lat="36.77030944824219" lon="-118.34890747070313">
<ele>3087</ele>
<time>2016-10-09T01:33:26Z</time>
</trkpt>
<trkpt lat="36.770240783691406" lon="-118.34880065917969">
<ele>3015</ele>
<time>2016-10-09T01:33:32Z</time>
</trkpt>
<trkpt lat="36.77014923095703" lon="-118.3487548828125">
<ele>3000</ele>
<time>2016-10-09T01:33:40Z</time>
</trkpt>
<trkpt lat="36.7701416015625" lon="-118.34869384765625">
<ele>2992</ele>
<time>2016-10-09T01:33:46Z</time>
</trkpt>
<trkpt lat="36.770233154296875" lon="-118.34871673583984">
<ele>2985</ele>
<time>2016-10-09T01:33:54Z</time>
</trkpt>
<trkpt lat="36.77033615112305" lon="-118.34876251220703">
<ele>2982</ele>
<time>2016-10-09T01:34:01Z</time>
</trkpt>
<trkpt lat="36.77043151855469" lon="-118.34880065917969">
<ele>2982</ele>
<time>2016-10-09T01:34:07Z</time>
</trkpt>
<trkpt lat="36.77054214477539" lon="-118.34880828857422">
<ele>2980</ele>
<time>2016-10-09T01:34:14Z</time>
</trkpt>
<trkpt lat="36.770652770996094" lon="-118.34879302978516">
<ele>2978</ele>
<time>2016-10-09T01:34:22Z</time>
</trkpt>
<trkpt lat="36.77075958251953" lon="-118.34877014160156">
<ele>2978</ele>
<time>2016-10-09T01:34:31Z</time>
</trkpt>
<trkpt lat="36.770870208740234" lon="-118.34874725341797">
<ele>2980</ele>
<time>2016-10-09T01:34:38Z</time>
</trkpt>
<trkpt lat="36.77092742919922" lon="-118.34868621826172">
<ele>3151</ele>
<time>2016-10-09T01:34:49Z</time>
</trkpt>
<trkpt lat="36.77094650268555" lon="-118.34857177734375">
<ele>3001</ele>
<time>2016-10-09T01:34:59Z</time>
</trkpt>
<trkpt lat="36.77098083496094" lon="-118.3485336303711">
<ele>2983</ele>
<time>2016-10-09T01:35:05Z</time>
</trkpt>
<trkpt lat="36.77097702026367" lon="-118.34848022460938">
<ele>2970</ele>
<time>2016-10-09T01:35:13Z</time>
</trkpt>
<trkpt lat="36.771018981933594" lon="-118.34844207763672">
<ele>2965</ele>
<time>2016-10-09T01:35:19Z</time>
</trkpt>
<trkpt lat="36.771114349365234" lon="-118.348388671875">
<ele>3002</ele>
<time>2016-10-09T01:35:30Z</time>
</trkpt>
<trkpt lat="36.77122497558594" lon="-118.34835052490234">
<ele>2973</ele>
<time>2016-10-09T01:35:39Z</time>
</trkpt>
<trkpt lat="36.771236419677734" lon="-118.34822082519531">
<ele>2962</ele>
<time>2016-10-09T01:35:52Z</time>
</trkpt>
<trkpt lat="36.77121353149414" lon="-118.34810638427734">
<ele>2956</ele>
<time>2016-10-09T01:36:01Z</time>
</trkpt>
<trkpt lat="36.771263122558594" lon="-118.34796142578125">
<ele>2957</ele>
<time>2016-10-09T01:36:07Z</time>
</trkpt>
<trkpt lat="36.77128219604492" lon="-118.34783935546875">
<ele>2956</ele>
<time>2016-10-09T01:36:13Z</time>
</trkpt>
<trkpt lat="36.771305084228516" lon="-118.34771728515625">
<ele>2954</ele>
<time>2016-10-09T01:36:19Z</time>
</trkpt>
<trkpt lat="36.77135467529297" lon="-118.34759521484375">
<ele>2953</ele>
<time>2016-10-09T01:36:27Z</time>
</trkpt>
<trkpt lat="36.77138900756836" lon="-118.34747314453125">
<ele>2952</ele>
<time>2016-10-09T01:36:35Z</time>
</trkpt>
<trkpt lat="36.771446228027344" lon="-118.34735870361328">
<ele>2947</ele>
<time>2016-10-09T01:36:46Z</time>
</trkpt>
<trkpt lat="36.771480560302734" lon="-118.34725189208984">
<ele>2949</ele>
<time>2016-10-09T01:36:54Z</time>
</trkpt>
<trkpt lat="36.77153396606445" lon="-118.34713745117188">
<ele>2945</ele>
<time>2016-10-09T01:37:04Z</time>
</trkpt>
<trkpt lat="36.77156448364258" lon="-118.34700775146484">
<ele>2945</ele>
<time>2016-10-09T01:37:13Z</time>
</trkpt>
<trkpt lat="36.77161407470703" lon="-118.34690856933594">
<ele>2943</ele>
<time>2016-10-09T01:37:20Z</time>
</trkpt>
<trkpt lat="36.771636962890625" lon="-118.3467788696289">
<ele>2938</ele>
<time>2016-10-09T01:37:26Z</time>
</trkpt>
<trkpt lat="36.77165985107422" lon="-118.34664916992188">
<ele>2935</ele>
<time>2016-10-09T01:37:33Z</time>
</trkpt>
<trkpt lat="36.77170181274414" lon="-118.34657287597656">
<ele>2930</ele>
<time>2016-10-09T01:37:39Z</time>
</trkpt>
<trkpt lat="36.77174377441406" lon="-118.34645080566406">
<ele>2937</ele>
<time>2016-10-09T01:37:45Z</time>
</trkpt>
<trkpt lat="36.77174758911133" lon="-118.3463363647461">
<ele>2934</ele>
<time>2016-10-09T01:37:51Z</time>
</trkpt>
<trkpt lat="36.771793365478516" lon="-118.3462142944336">
<ele>2936</ele>
<time>2016-10-09T01:37:59Z</time>
</trkpt>
<trkpt lat="36.77182388305664" lon="-118.34607696533203">
<ele>2948</ele>
<time>2016-10-09T01:38:06Z</time>
</trkpt>
<trkpt lat="36.77187728881836" lon="-118.34597778320313">
<ele>2928</ele>
<time>2016-10-09T01:38:16Z</time>
</trkpt>
<trkpt lat="36.771907806396484" lon="-118.34586334228516">
<ele>2925</ele>
<time>2016-10-09T01:38:26Z</time>
</trkpt>
<trkpt lat="36.771888732910156" lon="-118.34580993652344">
<ele>2925</ele>
<time>2016-10-09T01:38:32Z</time>
</trkpt>
<trkpt lat="36.771820068359375" lon="-118.3457260131836">
<ele>3098</ele>
<time>2016-10-09T01:38:43Z</time>
</trkpt>
<trkpt lat="36.77178192138672" lon="-118.34569549560547">
<ele>2973</ele>
<time>2016-10-09T01:38:49Z</time>
</trkpt>
<trkpt lat="36.771751403808594" lon="-118.34564971923828">
<ele>2956</ele>
<time>2016-10-09T01:38:57Z</time>
</trkpt>
<trkpt lat="36.77177047729492" lon="-118.34552001953125">
<ele>2933</ele>
<time>2016-10-09T01:39:03Z</time>
</trkpt>
<trkpt lat="36.771820068359375" lon="-118.34540557861328">
<ele>3084</ele>
<time>2016-10-09T01:39:10Z</time>
</trkpt>
<trkpt lat="36.7718620300293" lon="-118.34529113769531">
<ele>2926</ele>
<time>2016-10-09T01:39:18Z</time>
</trkpt>
<trkpt lat="36.77192306518555" lon="-118.34516906738281">
<ele>3044</ele>
<time>2016-10-09T01:39:25Z</time>
</trkpt>
<trkpt lat="36.7719612121582" lon="-118.34510040283203">
<ele>2933</ele>
<time>2016-10-09T01:39:34Z</time>
</trkpt>
<trkpt lat="36.77191925048828" lon="-118.34513092041016">
<ele>2948</ele>
<time>2016-10-09T01:39:45Z</time>
</trkpt>
<trkpt lat="36.771873474121094" lon="-118.34513092041016">
<ele>2910</ele>
<time>2016-10-09T01:39:56Z</time>
</trkpt>
<trkpt lat="36.77187728881836" lon="-118.3450698852539">
<ele>2907</ele>
<time>2016-10-09T01:40:04Z</time>
</trkpt>
<trkpt lat="36.77183532714844" lon="-118.34503936767578">
<ele>2904</ele>
<time>2016-10-09T01:40:10Z</time>
</trkpt>
<trkpt lat="36.77174758911133" lon="-118.34500122070313">
<ele>3160</ele>
<time>2016-10-09T01:40:19Z</time>
</trkpt>
<trkpt lat="36.77170181274414" lon="-118.34501647949219">
<ele>2996</ele>
<time>2016-10-09T01:40:28Z</time>
</trkpt>
<trkpt lat="36.77167510986328" lon="-118.34492492675781">
<ele>2909</ele>
<time>2016-10-09T01:40:38Z</time>
</trkpt>
<trkpt lat="36.77174377441406" lon="-118.34481048583984">
<ele>2908</ele>
<time>2016-10-09T01:40:44Z</time>
</trkpt>
<trkpt lat="36.77183532714844" lon="-118.34467315673828">
<ele>3136</ele>
<time>2016-10-09T01:40:53Z</time>
</trkpt>
<trkpt lat="36.77192306518555" lon="-118.3446044921875">
<ele>2952</ele>
<time>2016-10-09T01:41:00Z</time>
</trkpt>
<trkpt lat="36.77202606201172" lon="-118.34456634521484">
<ele>2970</ele>
<time>2016-10-09T01:41:06Z</time>
</trkpt>
<trkpt lat="36.77211380004883" lon="-118.34451293945313">
<ele>2913</ele>
<time>2016-10-09T01:41:12Z</time>
</trkpt>
<trkpt lat="36.77219772338867" lon="-118.3444595336914">
<ele>2894</ele>
<time>2016-10-09T01:41:18Z</time>
</trkpt>
<trkpt lat="36.772300720214844" lon="-118.34439849853516">
<ele>2891</ele>
<time>2016-10-09T01:41:25Z</time>
</trkpt>
<trkpt lat="36.77239227294922" lon="-118.34436798095703">
<ele>3094</ele>
<time>2016-10-09T01:41:33Z</time>
</trkpt>
<trkpt lat="36.772464752197266" lon="-118.34432220458984">
<ele>2929</ele>
<time>2016-10-09T01:41:41Z</time>
</trkpt>
<trkpt lat="36.77244567871094" lon="-118.34426879882813">
<ele>3077</ele>
<time>2016-10-09T01:41:47Z</time>
</trkpt>
<trkpt lat="36.772457122802734" lon="-118.34420776367188">
<ele>2925</ele>
<time>2016-10-09T01:41:54Z</time>
</trkpt>
<trkpt lat="36.77241897583008" lon="-118.3440933227539">
<ele>2882</ele>
<time>2016-10-09T01:42:05Z</time>
</trkpt>
<trkpt lat="36.77241516113281" lon="-118.34403228759766">
<ele>2932</ele>
<time>2016-10-09T01:42:12Z</time>
</trkpt>
<trkpt lat="36.77237319946289" lon="-118.343994140625">
<ele>3039</ele>
<time>2016-10-09T01:42:24Z</time>
</trkpt>
<trkpt lat="36.772335052490234" lon="-118.34395599365234">
<ele>2887</ele>
<time>2016-10-09T01:42:30Z</time>
</trkpt>
<trkpt lat="36.77229309082031" lon="-118.3438720703125">
<ele>2867</ele>
<time>2016-10-09T01:42:41Z</time>
</trkpt>
<trkpt lat="36.77227783203125" lon="-118.34381103515625">
<ele>2861</ele>
<time>2016-10-09T01:42:52Z</time>
</trkpt>
<trkpt lat="36.77233123779297" lon="-118.34371185302734">
<ele>2925</ele>
<time>2016-10-09T01:43:13Z</time>
</trkpt>
<trkpt lat="36.77237319946289" lon="-118.34368133544922">
<ele>2878</ele>
<time>2016-10-09T01:43:19Z</time>
</trkpt>
<trkpt lat="36.772281646728516" lon="-118.3436279296875">
<ele>2910</ele>
<time>2016-10-09T01:43:32Z</time>
</trkpt>
<trkpt lat="36.77227783203125" lon="-118.34356689453125">
<ele>2854</ele>
<time>2016-10-09T01:43:42Z</time>
</trkpt>
<trkpt lat="36.77232360839844" lon="-118.34347534179688">
<ele>2853</ele>
<time>2016-10-09T01:43:55Z</time>
</trkpt>
<trkpt lat="36.77236557006836" lon="-118.34345245361328">
<ele>2849</ele>
<time>2016-10-09T01:44:03Z</time>
</trkpt>
<trkpt lat="36.7723388671875" lon="-118.34339904785156">
<ele>2902</ele>
<time>2016-10-09T01:44:17Z</time>
</trkpt>
<trkpt lat="36.772300720214844" lon="-118.34336853027344">
<ele>2846</ele>
<time>2016-10-09T01:44:29Z</time>
</trkpt>
<trkpt lat="36.77231979370117" lon="-118.34330749511719">
<ele>2838</ele>
<time>2016-10-09T01:44:45Z</time>
</trkpt>
<trkpt lat="36.7723388671875" lon="-118.34325408935547">
<ele>2836</ele>
<time>2016-10-09T01:44:54Z</time>
</trkpt>
<trkpt lat="36.77232360839844" lon="-118.34320068359375">
<ele>2833</ele>
<time>2016-10-09T01:45:07Z</time>
</trkpt>
<trkpt lat="36.77233123779297" lon="-118.3431396484375">
<ele>2829</ele>
<time>2016-10-09T01:45:25Z</time>
</trkpt>
<trkpt lat="36.772342681884766" lon="-118.3430404663086">
<ele>2823</ele>
<time>2016-10-09T01:45:41Z</time>
</trkpt>
<trkpt lat="36.772335052490234" lon="-118.34297943115234">
<ele>2825</ele>
<time>2016-10-09T01:45:47Z</time>
</trkpt>
<trkpt lat="36.772315979003906" lon="-118.34292602539063">
<ele>2818</ele>
<time>2016-10-09T01:45:57Z</time>
</trkpt>
<trkpt lat="36.77233123779297" lon="-118.3428726196289">
<ele>2814</ele>
<time>2016-10-09T01:46:16Z</time>
</trkpt>
<trkpt lat="36.77232360839844" lon="-118.34281921386719">
<ele>2815</ele>
<time>2016-10-09T01:46:22Z</time>
</trkpt>
<trkpt lat="36.77234649658203" lon="-118.34276580810547">
<ele>2806</ele>
<time>2016-10-09T01:46:33Z</time>
</trkpt>
<trkpt lat="36.772377014160156" lon="-118.34270477294922">
<ele>2806</ele>
<time>2016-10-09T01:46:43Z</time>
</trkpt>
<trkpt lat="36.772369384765625" lon="-118.34264373779297">
<ele>2798</ele>
<time>2016-10-09T01:46:51Z</time>
</trkpt>
<trkpt lat="36.77244186401367" lon="-118.3425521850586">
<ele>2793</ele>
<time>2016-10-09T01:47:00Z</time>
</trkpt>
<trkpt lat="36.77244186401367" lon="-118.34244537353516">
<ele>2790</ele>
<time>2016-10-09T01:47:12Z</time>
</trkpt>
<trkpt lat="36.77244567871094" lon="-118.34231567382813">
<ele>2794</ele>
<time>2016-10-09T01:47:23Z</time>
</trkpt>
<trkpt lat="36.7723503112793" lon="-118.34229278564453">
<ele>2788</ele>
<time>2016-10-09T01:47:31Z</time>
</trkpt>
<trkpt lat="36.772254943847656" lon="-118.34227752685547">
<ele>2785</ele>
<time>2016-10-09T01:47:38Z</time>
</trkpt>
<trkpt lat="36.772159576416016" lon="-118.34227752685547">
<ele>2784</ele>
<time>2016-10-09T01:47:44Z</time>
</trkpt>
<trkpt lat="36.77204513549805" lon="-118.34227752685547">
<ele>2780</ele>
<time>2016-10-09T01:47:52Z</time>
</trkpt>
<trkpt lat="36.77192306518555" lon="-118.34229278564453">
<ele>2779</ele>
<time>2016-10-09T01:48:00Z</time>
</trkpt>
<trkpt lat="36.77183151245117" lon="-118.34227752685547">
<ele>2779</ele>
<time>2016-10-09T01:48:06Z</time>
</trkpt>
<trkpt lat="36.77167892456055" lon="-118.34225463867188">
<ele>2778</ele>
<time>2016-10-09T01:48:13Z</time>
</trkpt>
<trkpt lat="36.771636962890625" lon="-118.3423080444336">
<ele>2777</ele>
<time>2016-10-09T01:48:35Z</time>
</trkpt>
<trkpt lat="36.77167892456055" lon="-118.34225463867188">
<ele>2776</ele>
<time>2016-10-09T01:49:09Z</time>
</trkpt>
<trkpt lat="36.771785736083984" lon="-118.34220123291016">
<ele>2776</ele>
<time>2016-10-09T01:49:15Z</time>
</trkpt>
<trkpt lat="36.771873474121094" lon="-118.34212493896484">
<ele>2778</ele>
<time>2016-10-09T01:49:22Z</time>
</trkpt>
<trkpt lat="36.77197265625" lon="-118.34203338623047">
<ele>2777</ele>
<time>2016-10-09T01:49:29Z</time>
</trkpt>
<trkpt lat="36.772090911865234" lon="-118.34196472167969">
<ele>2778</ele>
<time>2016-10-09T01:49:35Z</time>
</trkpt>
<trkpt lat="36.772178649902344" lon="-118.3418960571289">
<ele>2778</ele>
<time>2016-10-09T01:49:41Z</time>
</trkpt>
<trkpt lat="36.772274017333984" lon="-118.34180450439453">
<ele>2774</ele>
<time>2016-10-09T01:49:48Z</time>
</trkpt>
<trkpt lat="36.77236557006836" lon="-118.34174346923828">
<ele>2776</ele>
<time>2016-10-09T01:49:54Z</time>
</trkpt>
<trkpt lat="36.77238845825195" lon="-118.34162139892578">
<ele>2774</ele>
<time>2016-10-09T01:50:00Z</time>
</trkpt>
<trkpt lat="36.77241134643555" lon="-118.34149169921875">
<ele>2771</ele>
<time>2016-10-09T01:50:07Z</time>
</trkpt>
<trkpt lat="36.772457122802734" lon="-118.34136199951172">
<ele>2771</ele>
<time>2016-10-09T01:50:15Z</time>
</trkpt>
<trkpt lat="36.77249526977539" lon="-118.34123992919922">
<ele>2764</ele>
<time>2016-10-09T01:50:22Z</time>
</trkpt>
<trkpt lat="36.77254104614258" lon="-118.34121704101563">
<ele>2759</ele>
<time>2016-10-09T01:50:31Z</time>
</trkpt>
</trkseg>
</trk>
<trk>
<name><![CDATA[disappoint]]></name>
<number>29</number>
<extensions><topografix:color>ff000066</topografix:color></extensions>
<trkseg>
<trkpt lat="37.12532424926758" lon="-118.437744140625">
<ele>2357</ele>
<time>2016-10-10T11:09:18Z</time>
</trkpt>
<trkpt lat="37.12528991699219" lon="-118.43778991699219">
<ele>2358</ele>
<time>2016-10-10T11:09:27Z</time>
</trkpt>
<trkpt lat="37.125240325927734" lon="-118.43781280517578">
<ele>2355</ele>
<time>2016-10-10T11:09:48Z</time>
</trkpt>
<trkpt lat="37.12517547607422" lon="-118.43790435791016">
<ele>2353</ele>
<time>2016-10-10T11:09:57Z</time>
</trkpt>
<trkpt lat="37.12511444091797" lon="-118.43798828125">
<ele>2352</ele>
<time>2016-10-10T11:10:07Z</time>
</trkpt>
<trkpt lat="37.125091552734375" lon="-118.4381103515625">
<ele>2350</ele>
<time>2016-10-10T11:10:15Z</time>
</trkpt>
<trkpt lat="37.125057220458984" lon="-118.4382095336914">
<ele>2347</ele>
<time>2016-10-10T11:10:23Z</time>
</trkpt>
<trkpt lat="37.12498092651367" lon="-118.43830108642578">
<ele>2353</ele>
<time>2016-10-10T11:10:30Z</time>
</trkpt>
<trkpt lat="37.124961853027344" lon="-118.43842315673828">
<ele>2349</ele>
<time>2016-10-10T11:10:38Z</time>
</trkpt>
<trkpt lat="37.124942779541016" lon="-118.43856048583984">
<ele>2350</ele>
<time>2016-10-10T11:10:46Z</time>
</trkpt>
<trkpt lat="37.12489700317383" lon="-118.43867492675781">
<ele>2351</ele>
<time>2016-10-10T11:10:53Z</time>
</trkpt>
<trkpt lat="37.124881744384766" lon="-118.43880462646484">
<ele>2350</ele>
<time>2016-10-10T11:10:59Z</time>
</trkpt>
<trkpt lat="37.1248664855957" lon="-118.43893432617188">
<ele>2347</ele>
<time>2016-10-10T11:11:08Z</time>
</trkpt>
<trkpt lat="37.124847412109375" lon="-118.4390640258789">
<ele>2345</ele>
<time>2016-10-10T11:11:15Z</time>
</trkpt>
<trkpt lat="37.12478256225586" lon="-118.43917083740234">
<ele>2344</ele>
<time>2016-10-10T11:11:22Z</time>
</trkpt>
<trkpt lat="37.1247444152832" lon="-118.43929290771484">
<ele>2343</ele>
<time>2016-10-10T11:11:31Z</time>
</trkpt>
<trkpt lat="37.124691009521484" lon="-118.43941497802734">
<ele>2346</ele>
<time>2016-10-10T11:11:37Z</time>
</trkpt>
<trkpt lat="37.1246223449707" lon="-118.43949890136719">
<ele>2347</ele>
<time>2016-10-10T11:11:48Z</time>
</trkpt>
<trkpt lat="37.12456130981445" lon="-118.43961334228516">
<ele>2341</ele>
<time>2016-10-10T11:11:54Z</time>
</trkpt>
<trkpt lat="37.124507904052734" lon="-118.43972778320313">
<ele>2342</ele>
<time>2016-10-10T11:12:00Z</time>
</trkpt>
<trkpt lat="37.12450408935547" lon="-118.43985748291016">
<ele>2341</ele>
<time>2016-10-10T11:12:07Z</time>
</trkpt>
<trkpt lat="37.12452697753906" lon="-118.43997192382813">
<ele>2339</ele>
<time>2016-10-10T11:12:17Z</time>
</trkpt>
<trkpt lat="37.12455368041992" lon="-118.44007873535156">
<ele>2344</ele>
<time>2016-10-10T11:12:26Z</time>
</trkpt>
<trkpt lat="37.12461853027344" lon="-118.44015502929688">
<ele>2339</ele>
<time>2016-10-10T11:12:35Z</time>
</trkpt>
<trkpt lat="37.124568939208984" lon="-118.44027709960938">
<ele>2346</ele>
<time>2016-10-10T11:12:43Z</time>
</trkpt>
<trkpt lat="37.12453079223633" lon="-118.4404067993164">
<ele>2347</ele>
<time>2016-10-10T11:12:51Z</time>
</trkpt>
<trkpt lat="37.12449645996094" lon="-118.44053649902344">
<ele>2350</ele>
<time>2016-10-10T11:12:57Z</time>
</trkpt>
<trkpt lat="37.12453079223633" lon="-118.44066619873047">
<ele>2351</ele>
<time>2016-10-10T11:13:07Z</time>
</trkpt>
<trkpt lat="37.12459182739258" lon="-118.4407730102539">
<ele>2350</ele>
<time>2016-10-10T11:13:15Z</time>
</trkpt>
<trkpt lat="37.12458419799805" lon="-118.44084167480469">
<ele>2355</ele>
<time>2016-10-10T11:13:21Z</time>
</trkpt>
<trkpt lat="37.12452697753906" lon="-118.44097900390625">
<ele>2353</ele>
<time>2016-10-10T11:13:28Z</time>
</trkpt>
<trkpt lat="37.12455368041992" lon="-118.44107818603516">
<ele>2354</ele>
<time>2016-10-10T11:13:36Z</time>
</trkpt>
<trkpt lat="37.124603271484375" lon="-118.44108581542969">
<ele>2357</ele>
<time>2016-10-10T11:13:42Z</time>
</trkpt>
<trkpt lat="37.12466812133789" lon="-118.44114685058594">
<ele>2356</ele>
<time>2016-10-10T11:13:52Z</time>
</trkpt>
<trkpt lat="37.12468338012695" lon="-118.44120788574219">
<ele>2355</ele>
<time>2016-10-10T11:13:59Z</time>
</trkpt>
<trkpt lat="37.124717712402344" lon="-118.44115447998047">
<ele>2360</ele>
<time>2016-10-10T11:14:09Z</time>
</trkpt>
<trkpt lat="37.124725341796875" lon="-118.44107818603516">
<ele>2364</ele>
<time>2016-10-10T11:14:18Z</time>
</trkpt>
<trkpt lat="37.12476348876953" lon="-118.4410171508789">
<ele>2365</ele>
<time>2016-10-10T11:14:24Z</time>
</trkpt>
<trkpt lat="37.124820709228516" lon="-118.44091796875">
<ele>2370</ele>
<time>2016-10-10T11:14:35Z</time>
</trkpt>
<trkpt lat="37.12483596801758" lon="-118.44105529785156">
<ele>2367</ele>
<time>2016-10-10T11:14:43Z</time>
</trkpt>
<trkpt lat="37.12482833862305" lon="-118.44116973876953">
<ele>2364</ele>
<time>2016-10-10T11:14:54Z</time>
</trkpt>
<trkpt lat="37.12481689453125" lon="-118.44129943847656">
<ele>2368</ele>
<time>2016-10-10T11:15:03Z</time>
</trkpt>
<trkpt lat="37.124778747558594" lon="-118.44141387939453">
<ele>2367</ele>
<time>2016-10-10T11:15:12Z</time>
</trkpt>
<trkpt lat="37.1247673034668" lon="-118.4415283203125">
<ele>2370</ele>
<time>2016-10-10T11:15:18Z</time>
</trkpt>
<trkpt lat="37.124759674072266" lon="-118.441650390625">
<ele>2368</ele>
<time>2016-10-10T11:15:30Z</time>
</trkpt>
<trkpt lat="37.12470245361328" lon="-118.44175720214844">
<ele>2366</ele>
<time>2016-10-10T11:15:40Z</time>
</trkpt>
<trkpt lat="37.12467575073242" lon="-118.44181060791016">
<ele>2371</ele>
<time>2016-10-10T11:15:46Z</time>
</trkpt>
<trkpt lat="37.1246337890625" lon="-118.44184112548828">
<ele>2374</ele>
<time>2016-10-10T11:15:52Z</time>
</trkpt>
<trkpt lat="37.124610900878906" lon="-118.44190216064453">
<ele>2371</ele>
<time>2016-10-10T11:15:59Z</time>
</trkpt>
<trkpt lat="37.12454605102539" lon="-118.44197845458984">
<ele>2373</ele>
<time>2016-10-10T11:16:11Z</time>
</trkpt>
<trkpt lat="37.12446212768555" lon="-118.4420394897461">
<ele>2374</ele>
<time>2016-10-10T11:16:17Z</time>
</trkpt>
<trkpt lat="37.12440872192383" lon="-118.44215393066406">
<ele>2369</ele>
<time>2016-10-10T11:16:26Z</time>
</trkpt>
<trkpt lat="37.124359130859375" lon="-118.4422607421875">
<ele>2372</ele>
<time>2016-10-10T11:16:35Z</time>
</trkpt>
<trkpt lat="37.124305725097656" lon="-118.44236755371094">
<ele>2373</ele>
<time>2016-10-10T11:16:44Z</time>
</trkpt>
<trkpt lat="37.12429428100586" lon="-118.44242858886719">
<ele>2378</ele>
<time>2016-10-10T11:16:50Z</time>
</trkpt>
<trkpt lat="37.12421798706055" lon="-118.4425048828125">
<ele>2379</ele>
<time>2016-10-10T11:17:00Z</time>
</trkpt>
<trkpt lat="37.124141693115234" lon="-118.44258880615234">
<ele>2378</ele>
<time>2016-10-10T11:17:09Z</time>
</trkpt>
<trkpt lat="37.124080657958984" lon="-118.44268798828125">
<ele>2378</ele>
<time>2016-10-10T11:17:17Z</time>
</trkpt>
<trkpt lat="37.12399673461914" lon="-118.44277954101563">
<ele>2376</ele>
<time>2016-10-10T11:17:28Z</time>
</trkpt>
<trkpt lat="37.12392044067383" lon="-118.44286346435547">
<ele>2374</ele>
<time>2016-10-10T11:17:35Z</time>
</trkpt>
<trkpt lat="37.123878479003906" lon="-118.44290161132813">
<ele>2378</ele>
<time>2016-10-10T11:17:41Z</time>
</trkpt>
<trkpt lat="37.12382507324219" lon="-118.44292449951172">
<ele>2384</ele>
<time>2016-10-10T11:17:52Z</time>
</trkpt>
<trkpt lat="37.123756408691406" lon="-118.4430160522461">
<ele>2388</ele>
<time>2016-10-10T11:18:00Z</time>
</trkpt>
<trkpt lat="37.12368392944336" lon="-118.44309997558594">
<ele>2389</ele>
<time>2016-10-10T11:18:07Z</time>
</trkpt>
<trkpt lat="37.12358856201172" lon="-118.44315338134766">
<ele>2393</ele>
<time>2016-10-10T11:18:16Z</time>
</trkpt>
<trkpt lat="37.1235237121582" lon="-118.44319152832031">
<ele>2390</ele>
<time>2016-10-10T11:18:28Z</time>
</trkpt>
<trkpt lat="37.12342071533203" lon="-118.44320678710938">
<ele>2391</ele>
<time>2016-10-10T11:18:36Z</time>
</trkpt>
<trkpt lat="37.12333297729492" lon="-118.44328308105469">
<ele>2390</ele>
<time>2016-10-10T11:18:44Z</time>
</trkpt>
<trkpt lat="37.123287200927734" lon="-118.44329833984375">
<ele>2393</ele>
<time>2016-10-10T11:18:50Z</time>
</trkpt>
<trkpt lat="37.123191833496094" lon="-118.4433364868164">
<ele>2393</ele>
<time>2016-10-10T11:19:00Z</time>
</trkpt>
<trkpt lat="37.123085021972656" lon="-118.44336700439453">
<ele>2395</ele>
<time>2016-10-10T11:19:08Z</time>
</trkpt>
<trkpt lat="37.12300491333008" lon="-118.44342803955078">
<ele>2397</ele>
<time>2016-10-10T11:19:18Z</time>
</trkpt>
<trkpt lat="37.12294387817383" lon="-118.44352722167969">
<ele>2395</ele>
<time>2016-10-10T11:19:25Z</time>
</trkpt>
<trkpt lat="37.12287902832031" lon="-118.4436264038086">
<ele>2392</ele>
<time>2016-10-10T11:19:32Z</time>
</trkpt>
<trkpt lat="37.122798919677734" lon="-118.4437026977539">
<ele>2393</ele>
<time>2016-10-10T11:19:40Z</time>
</trkpt>
<trkpt lat="37.12273406982422" lon="-118.44380187988281">
<ele>2392</ele>
<time>2016-10-10T11:19:47Z</time>
</trkpt>
<trkpt lat="37.1226806640625" lon="-118.44390869140625">
<ele>2397</ele>
<time>2016-10-10T11:19:56Z</time>
</trkpt>
<trkpt lat="37.122623443603516" lon="-118.44400024414063">
<ele>2399</ele>
<time>2016-10-10T11:20:07Z</time>
</trkpt>
<trkpt lat="37.12260437011719" lon="-118.44406127929688">
<ele>2401</ele>
<time>2016-10-10T11:20:13Z</time>
</trkpt>
<trkpt lat="37.122520446777344" lon="-118.4441146850586">
<ele>2400</ele>
<time>2016-10-10T11:20:23Z</time>
</trkpt>
<trkpt lat="37.12242889404297" lon="-118.44414520263672">
<ele>2405</ele>
<time>2016-10-10T11:20:32Z</time>
</trkpt>
<trkpt lat="37.12234115600586" lon="-118.44420623779297">
<ele>2409</ele>
<time>2016-10-10T11:20:43Z</time>
</trkpt>
<trkpt lat="37.12224578857422" lon="-118.44425201416016">
<ele>2408</ele>
<time>2016-10-10T11:20:53Z</time>
</trkpt>
<trkpt lat="37.122154235839844" lon="-118.4442367553711">
<ele>2409</ele>
<time>2016-10-10T11:21:08Z</time>
</trkpt>
<trkpt lat="37.12211227416992" lon="-118.44427490234375">
<ele>2405</ele>
<time>2016-10-10T11:21:16Z</time>
</trkpt>
<trkpt lat="37.12197494506836" lon="-118.44425964355469">
<ele>2412</ele>
<time>2016-10-10T11:21:24Z</time>
</trkpt>
<trkpt lat="37.12193298339844" lon="-118.4442367553711">
<ele>2417</ele>
<time>2016-10-10T11:21:33Z</time>
</trkpt>
<trkpt lat="37.12188720703125" lon="-118.44424438476563">
<ele>2419</ele>
<time>2016-10-10T11:21:40Z</time>
</trkpt>
<trkpt lat="37.121788024902344" lon="-118.44424438476563">
<ele>2416</ele>
<time>2016-10-10T11:21:49Z</time>
</trkpt>
<trkpt lat="37.12169647216797" lon="-118.44422149658203">
<ele>2420</ele>
<time>2016-10-10T11:21:57Z</time>
</trkpt>
<trkpt lat="37.121585845947266" lon="-118.44422912597656">
<ele>2415</ele>
<time>2016-10-10T11:22:05Z</time>
</trkpt>
<trkpt lat="37.12154006958008" lon="-118.44422912597656">
<ele>2417</ele>
<time>2016-10-10T11:22:11Z</time>
</trkpt>
<trkpt lat="37.121463775634766" lon="-118.44420623779297">
<ele>2413</ele>
<time>2016-10-10T11:22:18Z</time>
</trkpt>
<trkpt lat="37.12137222290039" lon="-118.44425201416016">
<ele>2411</ele>
<time>2016-10-10T11:22:29Z</time>
</trkpt>
<trkpt lat="37.12126541137695" lon="-118.44425201416016">
<ele>2415</ele>
<time>2016-10-10T11:22:38Z</time>
</trkpt>
<trkpt lat="37.12117004394531" lon="-118.44426727294922">
<ele>2420</ele>
<time>2016-10-10T11:22:45Z</time>
</trkpt>
<trkpt lat="37.12107467651367" lon="-118.44430541992188">
<ele>2417</ele>
<time>2016-10-10T11:22:54Z</time>
</trkpt>
<trkpt lat="37.1209831237793" lon="-118.44429779052734">
<ele>2418</ele>
<time>2016-10-10T11:23:04Z</time>
</trkpt>
<trkpt lat="37.12088394165039" lon="-118.44429016113281">
<ele>2417</ele>
<time>2016-10-10T11:23:13Z</time>
</trkpt>
<trkpt lat="37.12080001831055" lon="-118.44434356689453">
<ele>2422</ele>
<time>2016-10-10T11:23:23Z</time>
</trkpt>
<trkpt lat="37.120697021484375" lon="-118.44436645507813">
<ele>2416</ele>
<time>2016-10-10T11:23:33Z</time>
</trkpt>
<trkpt lat="37.12059783935547" lon="-118.44438171386719">
<ele>2415</ele>
<time>2016-10-10T11:23:40Z</time>
</trkpt>
<trkpt lat="37.12049865722656" lon="-118.44437408447266">
<ele>2418</ele>
<time>2016-10-10T11:23:49Z</time>
</trkpt>
<trkpt lat="37.12039566040039" lon="-118.44440460205078">
<ele>2417</ele>
<time>2016-10-10T11:23:57Z</time>
</trkpt>
<trkpt lat="37.12029266357422" lon="-118.44441986083984">
<ele>2421</ele>
<time>2016-10-10T11:24:08Z</time>
</trkpt>
<trkpt lat="37.12019729614258" lon="-118.44440460205078">
<ele>2420</ele>
<time>2016-10-10T11:24:16Z</time>
</trkpt>
<trkpt lat="37.12014389038086" lon="-118.44445037841797">
<ele>2423</ele>
<time>2016-10-10T11:24:24Z</time>
</trkpt>
<trkpt lat="37.12010192871094" lon="-118.4444808959961">
<ele>2427</ele>
<time>2016-10-10T11:24:32Z</time>
</trkpt>
<trkpt lat="37.119998931884766" lon="-118.44451141357422">
<ele>2422</ele>
<time>2016-10-10T11:24:40Z</time>
</trkpt>
<trkpt lat="37.11989974975586" lon="-118.44452667236328">
<ele>2427</ele>
<time>2016-10-10T11:24:49Z</time>
</trkpt>
<trkpt lat="37.11980438232422" lon="-118.44454193115234">
<ele>2434</ele>
<time>2016-10-10T11:24:59Z</time>
</trkpt>
<trkpt lat="37.119754791259766" lon="-118.44453430175781">
<ele>2436</ele>
<time>2016-10-10T11:25:08Z</time>
</trkpt>
<trkpt lat="37.11965560913086" lon="-118.444580078125">
<ele>2434</ele>
<time>2016-10-10T11:25:18Z</time>
</trkpt>
<trkpt lat="37.119564056396484" lon="-118.44461822509766">
<ele>2431</ele>
<time>2016-10-10T11:25:25Z</time>
</trkpt>
<trkpt lat="37.11948013305664" lon="-118.44467163085938">
<ele>2427</ele>
<time>2016-10-10T11:25:34Z</time>
</trkpt>
<trkpt lat="37.119380950927734" lon="-118.4447250366211">
<ele>2427</ele>
<time>2016-10-10T11:25:42Z</time>
</trkpt>
<trkpt lat="37.11928939819336" lon="-118.44477844238281">
<ele>2426</ele>
<time>2016-10-10T11:25:50Z</time>
</trkpt>
<trkpt lat="37.119197845458984" lon="-118.44480895996094">
<ele>2428</ele>
<time>2016-10-10T11:26:00Z</time>
</trkpt>
<trkpt lat="37.119102478027344" lon="-118.44485473632813">
<ele>2433</ele>
<time>2016-10-10T11:26:10Z</time>
</trkpt>
<trkpt lat="37.119022369384766" lon="-118.44486236572266">
<ele>2441</ele>
<time>2016-10-10T11:26:18Z</time>
</trkpt>
<trkpt lat="37.11893081665039" lon="-118.4449234008789">
<ele>2442</ele>
<time>2016-10-10T11:26:28Z</time>
</trkpt>
<trkpt lat="37.118892669677734" lon="-118.44495391845703">
<ele>2445</ele>
<time>2016-10-10T11:26:36Z</time>
</trkpt>
<trkpt lat="37.11885070800781" lon="-118.44499206542969">
<ele>2445</ele>
<time>2016-10-10T11:26:42Z</time>
</trkpt>
<trkpt lat="37.1187629699707" lon="-118.44503784179688">
<ele>2448</ele>
<time>2016-10-10T11:26:52Z</time>
</trkpt>
<trkpt lat="37.1186637878418" lon="-118.445068359375">
<ele>2449</ele>
<time>2016-10-10T11:27:01Z</time>
</trkpt>
<trkpt lat="37.11857604980469" lon="-118.44510650634766">
<ele>2450</ele>
<time>2016-10-10T11:27:12Z</time>
</trkpt>
<trkpt lat="37.1185188293457" lon="-118.44515228271484">
<ele>2450</ele>
<time>2016-10-10T11:27:18Z</time>
</trkpt>
<trkpt lat="37.11845397949219" lon="-118.44525146484375">
<ele>2448</ele>
<time>2016-10-10T11:27:25Z</time>
</trkpt>
<trkpt lat="37.11837387084961" lon="-118.44532775878906">
<ele>2454</ele>
<time>2016-10-10T11:27:40Z</time>
</trkpt>
<trkpt lat="37.1182975769043" lon="-118.44525909423828">
<ele>2461</ele>
<time>2016-10-10T11:27:49Z</time>
</trkpt>
<trkpt lat="37.1182746887207" lon="-118.4453125">
<ele>2455</ele>
<time>2016-10-10T11:27:58Z</time>
</trkpt>
<trkpt lat="37.11833953857422" lon="-118.44539642333984">
<ele>2456</ele>
<time>2016-10-10T11:28:09Z</time>
</trkpt>
<trkpt lat="37.11834716796875" lon="-118.44548034667969">
<ele>2461</ele>
<time>2016-10-10T11:28:27Z</time>
</trkpt>
<trkpt lat="37.11825180053711" lon="-118.44550323486328">
<ele>2462</ele>
<time>2016-10-10T11:28:35Z</time>
</trkpt>
<trkpt lat="37.11819839477539" lon="-118.44549560546875">
<ele>2461</ele>
<time>2016-10-10T11:28:41Z</time>
</trkpt>
<trkpt lat="37.1181526184082" lon="-118.44548034667969">
<ele>2468</ele>
<time>2016-10-10T11:28:50Z</time>
</trkpt>
<trkpt lat="37.11812210083008" lon="-118.4454345703125">
<ele>2468</ele>
<time>2016-10-10T11:28:56Z</time>
</trkpt>
<trkpt lat="37.1180305480957" lon="-118.44535827636719">
<ele>2466</ele>
<time>2016-10-10T11:29:04Z</time>
</trkpt>
<trkpt lat="37.11794662475586" lon="-118.44526672363281">
<ele>2465</ele>
<time>2016-10-10T11:29:13Z</time>
</trkpt>
<trkpt lat="37.11785888671875" lon="-118.4451904296875">
<ele>2466</ele>
<time>2016-10-10T11:29:22Z</time>
</trkpt>
<trkpt lat="37.11775588989258" lon="-118.4451904296875">
<ele>2467</ele>
<time>2016-10-10T11:29:28Z</time>
</trkpt>
<trkpt lat="37.117645263671875" lon="-118.4451904296875">
<ele>2468</ele>
<time>2016-10-10T11:29:35Z</time>
</trkpt>
<trkpt lat="37.11754608154297" lon="-118.44518280029297">
<ele>2467</ele>
<time>2016-10-10T11:29:42Z</time>
</trkpt>
<trkpt lat="37.11745071411133" lon="-118.44522094726563">
<ele>2466</ele>
<time>2016-10-10T11:29:51Z</time>
</trkpt>
<trkpt lat="37.11735916137695" lon="-118.44525146484375">
<ele>2468</ele>
<time>2016-10-10T11:30:02Z</time>
</trkpt>
<trkpt lat="37.117305755615234" lon="-118.44534301757813">
<ele>2466</ele>
<time>2016-10-10T11:30:11Z</time>
</trkpt>
<trkpt lat="37.11724090576172" lon="-118.44532012939453">
<ele>2464</ele>
<time>2016-10-10T11:30:18Z</time>
</trkpt>
<trkpt lat="37.117191314697266" lon="-118.44542694091797">
<ele>2465</ele>
<time>2016-10-10T11:30:25Z</time>
</trkpt>
<trkpt lat="37.11709213256836" lon="-118.44547271728516">
<ele>2460</ele>
<time>2016-10-10T11:30:34Z</time>
</trkpt>
<trkpt lat="37.11705017089844" lon="-118.4455795288086">
<ele>2461</ele>
<time>2016-10-10T11:30:42Z</time>
</trkpt>
<trkpt lat="37.11697006225586" lon="-118.4456558227539">
<ele>2466</ele>
<time>2016-10-10T11:30:50Z</time>
</trkpt>
<trkpt lat="37.116878509521484" lon="-118.44567108154297">
<ele>2468</ele>
<time>2016-10-10T11:30:58Z</time>
</trkpt>
<trkpt lat="37.11677169799805" lon="-118.44569396972656">
<ele>2475</ele>
<time>2016-10-10T11:31:07Z</time>
</trkpt>
<trkpt lat="37.11669921875" lon="-118.44579315185547">
<ele>2472</ele>
<time>2016-10-10T11:31:15Z</time>
</trkpt>
<trkpt lat="37.116634368896484" lon="-118.44583892822266">
<ele>2468</ele>
<time>2016-10-10T11:31:25Z</time>
</trkpt>
<trkpt lat="37.116539001464844" lon="-118.4458999633789">
<ele>2470</ele>
<time>2016-10-10T11:31:36Z</time>
</trkpt>
<trkpt lat="37.1164436340332" lon="-118.44596099853516">
<ele>2469</ele>
<time>2016-10-10T11:31:44Z</time>
</trkpt>
<trkpt lat="37.11635971069336" lon="-118.44599914550781">
<ele>2472</ele>
<time>2016-10-10T11:31:54Z</time>
</trkpt>
<trkpt lat="37.11629867553711" lon="-118.44610595703125">
<ele>2477</ele>
<time>2016-10-10T11:32:03Z</time>
</trkpt>
<trkpt lat="37.1161994934082" lon="-118.44612121582031">
<ele>2476</ele>
<time>2016-10-10T11:32:10Z</time>
</trkpt>
<trkpt lat="37.11611557006836" lon="-118.4461669921875">
<ele>2483</ele>
<time>2016-10-10T11:32:25Z</time>
</trkpt>
<trkpt lat="37.11610412597656" lon="-118.44622039794922">
<ele>2481</ele>
<time>2016-10-10T11:32:32Z</time>
</trkpt>
<trkpt lat="37.11613845825195" lon="-118.4462661743164">
<ele>2480</ele>
<time>2016-10-10T11:32:39Z</time>
</trkpt>
<trkpt lat="37.1160774230957" lon="-118.44636535644531">
<ele>2483</ele>
<time>2016-10-10T11:32:47Z</time>
</trkpt>
<trkpt lat="37.115989685058594" lon="-118.4463882446289">
<ele>2487</ele>
<time>2016-10-10T11:32:58Z</time>
</trkpt>
<trkpt lat="37.11589813232422" lon="-118.4464340209961">
<ele>2488</ele>
<time>2016-10-10T11:33:06Z</time>
</trkpt>
<trkpt lat="37.11579895019531" lon="-118.44645690917969">
<ele>2491</ele>
<time>2016-10-10T11:33:18Z</time>
</trkpt>
<trkpt lat="37.11575698852539" lon="-118.44649505615234">
<ele>2498</ele>
<time>2016-10-10T11:33:24Z</time>
</trkpt>
<trkpt lat="37.11566925048828" lon="-118.44652557373047">
<ele>2499</ele>
<time>2016-10-10T11:33:36Z</time>
</trkpt>
<trkpt lat="37.115562438964844" lon="-118.4465560913086">
<ele>2498</ele>
<time>2016-10-10T11:33:46Z</time>
</trkpt>
<trkpt lat="37.11546325683594" lon="-118.44657897949219">
<ele>2502</ele>
<time>2016-10-10T11:33:56Z</time>
</trkpt>
<trkpt lat="37.115440368652344" lon="-118.4466323852539">
<ele>2501</ele>
<time>2016-10-10T11:34:02Z</time>
</trkpt>
<trkpt lat="37.11547088623047" lon="-118.4466781616211">
<ele>2498</ele>
<time>2016-10-10T11:34:09Z</time>
</trkpt>
<trkpt lat="37.11545181274414" lon="-118.44673156738281">
<ele>2500</ele>
<time>2016-10-10T11:34:15Z</time>
</trkpt>
<trkpt lat="37.115386962890625" lon="-118.44672393798828">
<ele>2508</ele>
<time>2016-10-10T11:34:25Z</time>
</trkpt>
<trkpt lat="37.11528396606445" lon="-118.44672393798828">
<ele>2506</ele>
<time>2016-10-10T11:34:31Z</time>
</trkpt>
<trkpt lat="37.11520767211914" lon="-118.44678497314453">
<ele>2500</ele>
<time>2016-10-10T11:34:40Z</time>
</trkpt>
<trkpt lat="37.11514663696289" lon="-118.44677734375">
<ele>2496</ele>
<time>2016-10-10T11:34:46Z</time>
</trkpt>
<trkpt lat="37.115055084228516" lon="-118.44677734375">
<ele>2498</ele>
<time>2016-10-10T11:34:54Z</time>
</trkpt>
<trkpt lat="37.11495590209961" lon="-118.44676208496094">
<ele>2502</ele>
<time>2016-10-10T11:35:03Z</time>
</trkpt>
<trkpt lat="37.11491012573242" lon="-118.44676971435547">
<ele>2509</ele>
<time>2016-10-10T11:35:10Z</time>
</trkpt>
<trkpt lat="37.114810943603516" lon="-118.4468002319336">
<ele>2513</ele>
<time>2016-10-10T11:35:18Z</time>
</trkpt>
<trkpt lat="37.11471939086914" lon="-118.44679260253906">
<ele>2508</ele>
<time>2016-10-10T11:35:27Z</time>
</trkpt>
<trkpt lat="37.11461639404297" lon="-118.44681549072266">
<ele>2504</ele>
<time>2016-10-10T11:35:36Z</time>
</trkpt>
<trkpt lat="37.114524841308594" lon="-118.44683837890625">
<ele>2503</ele>
<time>2016-10-10T11:35:43Z</time>
</trkpt>
<trkpt lat="37.11445236206055" lon="-118.44693756103516">
<ele>2500</ele>
<time>2016-10-10T11:35:52Z</time>
</trkpt>
<trkpt lat="37.11436462402344" lon="-118.44699096679688">
<ele>2499</ele>
<time>2016-10-10T11:36:02Z</time>
</trkpt>
<trkpt lat="37.114280700683594" lon="-118.44706726074219">
<ele>2502</ele>
<time>2016-10-10T11:36:13Z</time>
</trkpt>
<trkpt lat="37.114219665527344" lon="-118.44715881347656">
<ele>2501</ele>
<time>2016-10-10T11:36:23Z</time>
</trkpt>
<trkpt lat="37.11417007446289" lon="-118.447265625">
<ele>2505</ele>
<time>2016-10-10T11:36:35Z</time>
</trkpt>
<trkpt lat="37.114166259765625" lon="-118.44738006591797">
<ele>2503</ele>
<time>2016-10-10T11:36:45Z</time>
</trkpt>
<trkpt lat="37.1141357421875" lon="-118.44742584228516">
<ele>2506</ele>
<time>2016-10-10T11:36:53Z</time>
</trkpt>
<trkpt lat="37.114105224609375" lon="-118.44754791259766">
<ele>2511</ele>
<time>2016-10-10T11:37:06Z</time>
</trkpt>
<trkpt lat="37.114013671875" lon="-118.44761657714844">
<ele>2513</ele>
<time>2016-10-10T11:37:15Z</time>
</trkpt>
<trkpt lat="37.11393356323242" lon="-118.44770812988281">
<ele>2514</ele>
<time>2016-10-10T11:37:23Z</time>
</trkpt>
<trkpt lat="37.113868713378906" lon="-118.44781494140625">
<ele>2523</ele>
<time>2016-10-10T11:37:32Z</time>
</trkpt>
<trkpt lat="37.11384201049805" lon="-118.44786071777344">
<ele>2517</ele>
<time>2016-10-10T11:37:38Z</time>
</trkpt>
<trkpt lat="37.11381149291992" lon="-118.44791412353516">
<ele>2517</ele>
<time>2016-10-10T11:37:44Z</time>
</trkpt>
<trkpt lat="37.11379623413086" lon="-118.44803619384766">
<ele>2517</ele>
<time>2016-10-10T11:37:54Z</time>
</trkpt>
<trkpt lat="37.11371994018555" lon="-118.4480972290039">
<ele>2525</ele>
<time>2016-10-10T11:38:07Z</time>
</trkpt>
<trkpt lat="37.11369323730469" lon="-118.4481430053711">
<ele>2529</ele>
<time>2016-10-10T11:38:16Z</time>
</trkpt>
<trkpt lat="37.11363220214844" lon="-118.44817352294922">
<ele>2529</ele>
<time>2016-10-10T11:38:24Z</time>
</trkpt>
<trkpt lat="37.113548278808594" lon="-118.44824981689453">
<ele>2526</ele>
<time>2016-10-10T11:38:33Z</time>
</trkpt>
<trkpt lat="37.11346435546875" lon="-118.44828796386719">
<ele>2525</ele>
<time>2016-10-10T11:38:42Z</time>
</trkpt>
<trkpt lat="37.113365173339844" lon="-118.44832611083984">
<ele>2525</ele>
<time>2016-10-10T11:38:53Z</time>
</trkpt>
<trkpt lat="37.1132698059082" lon="-118.44830322265625">
<ele>2528</ele>
<time>2016-10-10T11:39:04Z</time>
</trkpt>
<trkpt lat="37.113224029541016" lon="-118.44829559326172">
<ele>2533</ele>
<time>2016-10-10T11:39:10Z</time>
</trkpt>
<trkpt lat="37.11312484741211" lon="-118.44831848144531">
<ele>2533</ele>
<time>2016-10-10T11:39:18Z</time>
</trkpt>
<trkpt lat="37.113075256347656" lon="-118.44831085205078">
<ele>2535</ele>
<time>2016-10-10T11:39:26Z</time>
</trkpt>
<trkpt lat="37.112979888916016" lon="-118.4483413696289">
<ele>2540</ele>
<time>2016-10-10T11:39:34Z</time>
</trkpt>
<trkpt lat="37.112937927246094" lon="-118.44835662841797">
<ele>2538</ele>
<time>2016-10-10T11:39:45Z</time>
</trkpt>
<trkpt lat="37.11285400390625" lon="-118.44840240478516">
<ele>2541</ele>
<time>2016-10-10T11:39:54Z</time>
</trkpt>
<trkpt lat="37.11280822753906" lon="-118.44837951660156">
<ele>2539</ele>
<time>2016-10-10T11:40:03Z</time>
</trkpt>
<trkpt lat="37.112762451171875" lon="-118.44837951660156">
<ele>2545</ele>
<time>2016-10-10T11:40:10Z</time>
</trkpt>
<trkpt lat="37.11271286010742" lon="-118.4483871459961">
<ele>2544</ele>
<time>2016-10-10T11:40:18Z</time>
</trkpt>
<trkpt lat="37.11266326904297" lon="-118.44839477539063">
<ele>2546</ele>
<time>2016-10-10T11:40:25Z</time>
</trkpt>
<trkpt lat="37.11258316040039" lon="-118.44847869873047">
<ele>2546</ele>
<time>2016-10-10T11:40:34Z</time>
</trkpt>
<trkpt lat="37.112518310546875" lon="-118.44857025146484">
<ele>2545</ele>
<time>2016-10-10T11:40:43Z</time>
</trkpt>
<trkpt lat="37.11248016357422" lon="-118.44860076904297">
<ele>2546</ele>
<time>2016-10-10T11:40:49Z</time>
</trkpt>
<trkpt lat="37.11244583129883" lon="-118.44865417480469">
<ele>2541</ele>
<time>2016-10-10T11:40:56Z</time>
</trkpt>
<trkpt lat="37.11238479614258" lon="-118.44874572753906">
<ele>2545</ele>
<time>2016-10-10T11:41:04Z</time>
</trkpt>
<trkpt lat="37.11229705810547" lon="-118.44877624511719">
<ele>2547</ele>
<time>2016-10-10T11:41:18Z</time>
</trkpt>
<trkpt lat="37.112247467041016" lon="-118.44873809814453">
<ele>2545</ele>
<time>2016-10-10T11:41:26Z</time>
</trkpt>
<trkpt lat="37.11215591430664" lon="-118.44879150390625">
<ele>2548</ele>
<time>2016-10-10T11:41:39Z</time>
</trkpt>
<trkpt lat="37.112117767333984" lon="-118.44882202148438">
<ele>2550</ele>
<time>2016-10-10T11:41:47Z</time>
</trkpt>
<trkpt lat="37.112064361572266" lon="-118.4488296508789">
<ele>2554</ele>
<time>2016-10-10T11:41:54Z</time>
</trkpt>
<trkpt lat="37.11201858520508" lon="-118.4488525390625">
<ele>2554</ele>
<time>2016-10-10T11:42:02Z</time>
</trkpt>
<trkpt lat="37.1119270324707" lon="-118.44891357421875">
<ele>2549</ele>
<time>2016-10-10T11:42:10Z</time>
</trkpt>
<trkpt lat="37.11187744140625" lon="-118.44892120361328">
<ele>2551</ele>
<time>2016-10-10T11:42:17Z</time>
</trkpt>
<trkpt lat="37.111846923828125" lon="-118.448974609375">
<ele>2553</ele>
<time>2016-10-10T11:42:25Z</time>
</trkpt>
<trkpt lat="37.11180114746094" lon="-118.44898223876953">
<ele>2559</ele>
<time>2016-10-10T11:42:36Z</time>
</trkpt>
<trkpt lat="37.11175537109375" lon="-118.4489517211914">
<ele>2559</ele>
<time>2016-10-10T11:42:42Z</time>
</trkpt>
<trkpt lat="37.11170959472656" lon="-118.44890594482422">
<ele>2560</ele>
<time>2016-10-10T11:42:48Z</time>
</trkpt>
<trkpt lat="37.11162185668945" lon="-118.4488754272461">
<ele>2564</ele>
<time>2016-10-10T11:42:56Z</time>
</trkpt>
<trkpt lat="37.11158752441406" lon="-118.44892883300781">
<ele>2565</ele>
<time>2016-10-10T11:43:03Z</time>
</trkpt>
<trkpt lat="37.111541748046875" lon="-118.44894409179688">
<ele>2566</ele>
<time>2016-10-10T11:43:09Z</time>
</trkpt>
<trkpt lat="37.11149215698242" lon="-118.4489517211914">
<ele>2568</ele>
<time>2016-10-10T11:43:16Z</time>
</trkpt>
<trkpt lat="37.1114501953125" lon="-118.44900512695313">
<ele>2571</ele>
<time>2016-10-10T11:43:24Z</time>
</trkpt>
<trkpt lat="37.11140441894531" lon="-118.44902801513672">
<ele>2572</ele>
<time>2016-10-10T11:43:32Z</time>
</trkpt>
<trkpt lat="37.11134338378906" lon="-118.44910430908203">
<ele>2576</ele>
<time>2016-10-10T11:43:46Z</time>
</trkpt>
<trkpt lat="37.11125183105469" lon="-118.44904327392578">
<ele>2577</ele>
<time>2016-10-10T11:43:58Z</time>
</trkpt>
<trkpt lat="37.111202239990234" lon="-118.44902801513672">
<ele>2580</ele>
<time>2016-10-10T11:44:04Z</time>
</trkpt>
<trkpt lat="37.11116409301758" lon="-118.4490737915039">
<ele>2578</ele>
<time>2016-10-10T11:44:11Z</time>
</trkpt>
<trkpt lat="37.11115264892578" lon="-118.44913482666016">
<ele>2577</ele>
<time>2016-10-10T11:44:17Z</time>
</trkpt>
<trkpt lat="37.111122131347656" lon="-118.4491958618164">
<ele>2574</ele>
<time>2016-10-10T11:44:23Z</time>
</trkpt>
<trkpt lat="37.11113357543945" lon="-118.44924926757813">
<ele>2574</ele>
<time>2016-10-10T11:44:29Z</time>
</trkpt>
<trkpt lat="37.111114501953125" lon="-118.44930267333984">
<ele>2575</ele>
<time>2016-10-10T11:44:37Z</time>
</trkpt>
<trkpt lat="37.111106872558594" lon="-118.4493637084961">
<ele>2577</ele>
<time>2016-10-10T11:44:44Z</time>
</trkpt>
<trkpt lat="37.111087799072266" lon="-118.44941711425781">
<ele>2583</ele>
<time>2016-10-10T11:44:50Z</time>
</trkpt>
<trkpt lat="37.11103820800781" lon="-118.44937896728516">
<ele>2588</ele>
<time>2016-10-10T11:45:00Z</time>
</trkpt>
<trkpt lat="37.110984802246094" lon="-118.44943237304688">
<ele>2587</ele>
<time>2016-10-10T11:45:11Z</time>
</trkpt>
<trkpt lat="37.110992431640625" lon="-118.44950103759766">
<ele>2591</ele>
<time>2016-10-10T11:45:18Z</time>
</trkpt>
<trkpt lat="37.11103820800781" lon="-118.44953155517578">
<ele>2590</ele>
<time>2016-10-10T11:45:43Z</time>
</trkpt>
<trkpt lat="37.111000061035156" lon="-118.44947814941406">
<ele>2587</ele>
<time>2016-10-10T11:46:55Z</time>
</trkpt>
<trkpt lat="37.11095428466797" lon="-118.44944763183594">
<ele>2579</ele>
<time>2016-10-10T11:47:05Z</time>
</trkpt>
<trkpt lat="37.110984802246094" lon="-118.44949340820313">
<ele>2584</ele>
<time>2016-10-10T11:47:43Z</time>
</trkpt>
<trkpt lat="37.11101150512695" lon="-118.4495620727539">
<ele>2587</ele>
<time>2016-10-10T11:49:07Z</time>
</trkpt>
<trkpt lat="37.11094665527344" lon="-118.44954681396484">
<ele>2602</ele>
<time>2016-10-10T11:49:26Z</time>
</trkpt>
<trkpt lat="37.110904693603516" lon="-118.44953155517578">
<ele>2600</ele>
<time>2016-10-10T11:49:34Z</time>
</trkpt>
<trkpt lat="37.11079788208008" lon="-118.44953155517578">
<ele>2605</ele>
<time>2016-10-10T11:49:47Z</time>
</trkpt>
<trkpt lat="37.11070251464844" lon="-118.44951629638672">
<ele>2604</ele>
<time>2016-10-10T11:49:57Z</time>
</trkpt>
<trkpt lat="37.1106071472168" lon="-118.44950866699219">
<ele>2602</ele>
<time>2016-10-10T11:50:08Z</time>
</trkpt>
<trkpt lat="37.110504150390625" lon="-118.44952392578125">
<ele>2602</ele>
<time>2016-10-10T11:50:18Z</time>
</trkpt>
<trkpt lat="37.11040496826172" lon="-118.44953918457031">
<ele>2599</ele>
<time>2016-10-10T11:50:25Z</time>
</trkpt>
<trkpt lat="37.11035919189453" lon="-118.44953155517578">
<ele>2607</ele>
<time>2016-10-10T11:50:38Z</time>
</trkpt>
<trkpt lat="37.11030578613281" lon="-118.44954681396484">
<ele>2606</ele>
<time>2016-10-10T11:50:45Z</time>
</trkpt>
<trkpt lat="37.11023712158203" lon="-118.44963073730469">
<ele>2604</ele>
<time>2016-10-10T11:50:56Z</time>
</trkpt>
<trkpt lat="37.11018371582031" lon="-118.44971466064453">
<ele>2605</ele>
<time>2016-10-10T11:51:04Z</time>
</trkpt>
<trkpt lat="37.1100959777832" lon="-118.44966888427734">
<ele>2611</ele>
<time>2016-10-10T11:51:15Z</time>
</trkpt>
<trkpt lat="37.110042572021484" lon="-118.44965362548828">
<ele>2610</ele>
<time>2016-10-10T11:51:26Z</time>
</trkpt>
<trkpt lat="37.109954833984375" lon="-118.44971466064453">
<ele>2609</ele>
<time>2016-10-10T11:51:40Z</time>
</trkpt>
<trkpt lat="37.109920501708984" lon="-118.44966888427734">
<ele>2608</ele>
<time>2016-10-10T11:51:56Z</time>
</trkpt>
<trkpt lat="37.109886169433594" lon="-118.44962310791016">
<ele>2610</ele>
<time>2016-10-10T11:52:04Z</time>
</trkpt>
<trkpt lat="37.109840393066406" lon="-118.44963836669922">
<ele>2609</ele>
<time>2016-10-10T11:52:13Z</time>
</trkpt>
<trkpt lat="37.10980224609375" lon="-118.44959259033203">
<ele>2600</ele>
<time>2016-10-10T11:54:18Z</time>
</trkpt>
<trkpt lat="37.10984420776367" lon="-118.44961547851563">
<ele>2601</ele>
<time>2016-10-10T11:54:44Z</time>
</trkpt>
<trkpt lat="37.109798431396484" lon="-118.44963836669922">
<ele>2601</ele>
<time>2016-10-10T11:55:01Z</time>
</trkpt>
</trkseg>
</trk>
<trk>
<name><![CDATA[10100455]]></name>
<number>30</number>
<extensions><topografix:color>ff000066</topografix:color></extensions>
<trkseg>
<trkpt lat="37.10981369018555" lon="-118.44962310791016">
<ele>2604</ele>
<time>2016-10-10T11:55:14Z</time>
</trkpt>
<trkpt lat="37.109840393066406" lon="-118.44967651367188">
<ele>2612</ele>
<time>2016-10-10T11:55:26Z</time>
</trkpt>
<trkpt lat="37.10979080200195" lon="-118.44963836669922">
<ele>2617</ele>
<time>2016-10-10T11:55:48Z</time>
</trkpt>
<trkpt lat="37.10969543457031" lon="-118.44963073730469">
<ele>2614</ele>
<time>2016-10-10T11:55:56Z</time>
</trkpt>
<trkpt lat="37.10960006713867" lon="-118.4496078491211">
<ele>2617</ele>
<time>2016-10-10T11:56:04Z</time>
</trkpt>
<trkpt lat="37.10953903198242" lon="-118.44971466064453">
<ele>2619</ele>
<time>2016-10-10T11:56:14Z</time>
</trkpt>
<trkpt lat="37.109493255615234" lon="-118.4498291015625">
<ele>2620</ele>
<time>2016-10-10T11:56:22Z</time>
</trkpt>
<trkpt lat="37.10943603515625" lon="-118.4499282836914">
<ele>2616</ele>
<time>2016-10-10T11:56:29Z</time>
</trkpt>
<trkpt lat="37.1093635559082" lon="-118.44999694824219">
<ele>2614</ele>
<time>2016-10-10T11:56:37Z</time>
</trkpt>
<trkpt lat="37.10927200317383" lon="-118.4500503540039">
<ele>2613</ele>
<time>2016-10-10T11:56:47Z</time>
</trkpt>
<trkpt lat="37.10918426513672" lon="-118.45011901855469">
<ele>2615</ele>
<time>2016-10-10T11:56:56Z</time>
</trkpt>
<trkpt lat="37.10911178588867" lon="-118.4501953125">
<ele>2614</ele>
<time>2016-10-10T11:57:04Z</time>
</trkpt>
<trkpt lat="37.10905838012695" lon="-118.45018005371094">
<ele>2624</ele>
<time>2016-10-10T11:57:10Z</time>
</trkpt>
<trkpt lat="37.10895538330078" lon="-118.45014190673828">
<ele>2625</ele>
<time>2016-10-10T11:57:19Z</time>
</trkpt>
<trkpt lat="37.1088752746582" lon="-118.45005798339844">
<ele>2624</ele>
<time>2016-10-10T11:57:33Z</time>
</trkpt>
<trkpt lat="37.10884475708008" lon="-118.45001983642578">
<ele>2623</ele>
<time>2016-10-10T11:57:39Z</time>
</trkpt>
<trkpt lat="37.10869216918945" lon="-118.44996643066406">
<ele>2620</ele>
<time>2016-10-10T11:57:46Z</time>
</trkpt>
<trkpt lat="37.10856628417969" lon="-118.44985961914063">
<ele>2622</ele>
<time>2016-10-10T11:57:59Z</time>
</trkpt>
<trkpt lat="37.10847854614258" lon="-118.44978332519531">
<ele>2618</ele>
<time>2016-10-10T11:58:10Z</time>
</trkpt>
<trkpt lat="37.1083984375" lon="-118.44970703125">
<ele>2620</ele>
<time>2016-10-10T11:58:18Z</time>
</trkpt>
<trkpt lat="37.108367919921875" lon="-118.44966125488281">
<ele>2621</ele>
<time>2016-10-10T11:58:24Z</time>
</trkpt>
<trkpt lat="37.1082878112793" lon="-118.44960021972656">
<ele>2619</ele>
<time>2016-10-10T11:58:39Z</time>
</trkpt>
<trkpt lat="37.10824966430664" lon="-118.4495620727539">
<ele>2620</ele>
<time>2016-10-10T11:58:46Z</time>
</trkpt>
<trkpt lat="37.10823059082031" lon="-118.44950103759766">
<ele>2627</ele>
<time>2016-10-10T11:59:29Z</time>
</trkpt>
<trkpt lat="37.1081428527832" lon="-118.44944763183594">
<ele>2625</ele>
<time>2016-10-10T11:59:40Z</time>
</trkpt>
<trkpt lat="37.10810470581055" lon="-118.44941711425781">
<ele>2626</ele>
<time>2016-10-10T11:59:46Z</time>
</trkpt>
<trkpt lat="37.10801315307617" lon="-118.44939422607422">
<ele>2626</ele>
<time>2016-10-10T11:59:57Z</time>
</trkpt>
<trkpt lat="37.1079216003418" lon="-118.44938659667969">
<ele>2628</ele>
<time>2016-10-10T12:00:08Z</time>
</trkpt>
<trkpt lat="37.10783386230469" lon="-118.44934844970703">
<ele>2630</ele>
<time>2016-10-10T12:00:18Z</time>
</trkpt>
<trkpt lat="37.1077880859375" lon="-118.44933319091797">
<ele>2632</ele>
<time>2016-10-10T12:00:24Z</time>
</trkpt>
<trkpt lat="37.10774230957031" lon="-118.44933319091797">
<ele>2630</ele>
<time>2016-10-10T12:00:30Z</time>
</trkpt>
<trkpt lat="37.10774612426758" lon="-118.44939422607422">
<ele>2630</ele>
<time>2016-10-10T12:00:45Z</time>
</trkpt>
<trkpt lat="37.107757568359375" lon="-118.44944763183594">
<ele>2630</ele>
<time>2016-10-10T12:00:51Z</time>
</trkpt>
<trkpt lat="37.10773468017578" lon="-118.44950866699219">
<ele>2634</ele>
<time>2016-10-10T12:00:58Z</time>
</trkpt>
<trkpt lat="37.1076774597168" lon="-118.44952392578125">
<ele>2630</ele>
<time>2016-10-10T12:01:04Z</time>
</trkpt>
<trkpt lat="37.10762023925781" lon="-118.44950866699219">
<ele>2635</ele>
<time>2016-10-10T12:01:20Z</time>
</trkpt>
<trkpt lat="37.10757064819336" lon="-118.44950103759766">
<ele>2643</ele>
<time>2016-10-10T12:01:29Z</time>
</trkpt>
<trkpt lat="37.107521057128906" lon="-118.44949340820313">
<ele>2642</ele>
<time>2016-10-10T12:01:42Z</time>
</trkpt>
<trkpt lat="37.10747146606445" lon="-118.44950103759766">
<ele>2647</ele>
<time>2016-10-10T12:01:50Z</time>
</trkpt>
<trkpt lat="37.107425689697266" lon="-118.44950866699219">
<ele>2645</ele>
<time>2016-10-10T12:02:00Z</time>
</trkpt>
<trkpt lat="37.10737991333008" lon="-118.44949340820313">
<ele>2652</ele>
<time>2016-10-10T12:02:08Z</time>
</trkpt>
<trkpt lat="37.10732650756836" lon="-118.44947052001953">
<ele>2652</ele>
<time>2016-10-10T12:02:14Z</time>
</trkpt>
<trkpt lat="37.10723114013672" lon="-118.449462890625">
<ele>2652</ele>
<time>2016-10-10T12:02:26Z</time>
</trkpt>
<trkpt lat="37.1071891784668" lon="-118.44942474365234">
<ele>2655</ele>
<time>2016-10-10T12:02:35Z</time>
</trkpt>
<trkpt lat="37.10714340209961" lon="-118.44941711425781">
<ele>2653</ele>
<time>2016-10-10T12:02:42Z</time>
</trkpt>
<trkpt lat="37.1070442199707" lon="-118.44941711425781">
<ele>2652</ele>
<time>2016-10-10T12:02:52Z</time>
</trkpt>
<trkpt lat="37.106956481933594" lon="-118.44934844970703">
<ele>2655</ele>
<time>2016-10-10T12:03:02Z</time>
</trkpt>
<trkpt lat="37.10690689086914" lon="-118.44934844970703">
<ele>2656</ele>
<time>2016-10-10T12:03:10Z</time>
</trkpt>
<trkpt lat="37.10682678222656" lon="-118.44933319091797">
<ele>2655</ele>
<time>2016-10-10T12:03:19Z</time>
</trkpt>
<trkpt lat="37.10677719116211" lon="-118.44934844970703">
<ele>2659</ele>
<time>2016-10-10T12:03:27Z</time>
</trkpt>
<trkpt lat="37.106727600097656" lon="-118.44932556152344">
<ele>2656</ele>
<time>2016-10-10T12:03:35Z</time>
</trkpt>
<trkpt lat="37.10668182373047" lon="-118.44929504394531">
<ele>2659</ele>
<time>2016-10-10T12:03:46Z</time>
</trkpt>
<trkpt lat="37.10663986206055" lon="-118.44926452636719">
<ele>2659</ele>
<time>2016-10-10T12:03:52Z</time>
</trkpt>
<trkpt lat="37.106590270996094" lon="-118.44928741455078">
<ele>2657</ele>
<time>2016-10-10T12:04:04Z</time>
</trkpt>
<trkpt lat="37.106529235839844" lon="-118.44923400878906">
<ele>2661</ele>
<time>2016-10-10T12:04:20Z</time>
</trkpt>
<trkpt lat="37.106483459472656" lon="-118.44924926757813">
<ele>2660</ele>
<time>2016-10-10T12:04:29Z</time>
</trkpt>
<trkpt lat="37.1064453125" lon="-118.44928741455078">
<ele>2660</ele>
<time>2016-10-10T12:04:36Z</time>
</trkpt>
<trkpt lat="37.10641098022461" lon="-118.44933319091797">
<ele>2661</ele>
<time>2016-10-10T12:04:42Z</time>
</trkpt>
<trkpt lat="37.10633087158203" lon="-118.44938659667969">
<ele>2662</ele>
<time>2016-10-10T12:04:52Z</time>
</trkpt>
<trkpt lat="37.10628128051758" lon="-118.44938659667969">
<ele>2665</ele>
<time>2016-10-10T12:05:03Z</time>
</trkpt>
<trkpt lat="37.10623550415039" lon="-118.44940185546875">
<ele>2667</ele>
<time>2016-10-10T12:05:11Z</time>
</trkpt>
<trkpt lat="37.10616683959961" lon="-118.44937896728516">
<ele>2664</ele>
<time>2016-10-10T12:05:19Z</time>
</trkpt>
<trkpt lat="37.10621643066406" lon="-118.44944763183594">
<ele>2675</ele>
<time>2016-10-10T12:05:26Z</time>
</trkpt>
<trkpt lat="37.106285095214844" lon="-118.44952392578125">
<ele>2675</ele>
<time>2016-10-10T12:05:33Z</time>
</trkpt>
<trkpt lat="37.106239318847656" lon="-118.44949340820313">
<ele>2675</ele>
<time>2016-10-10T12:05:41Z</time>
</trkpt>
<trkpt lat="37.106201171875" lon="-118.44952392578125">
<ele>2674</ele>
<time>2016-10-10T12:05:54Z</time>
</trkpt>
<trkpt lat="37.10615539550781" lon="-118.44950866699219">
<ele>2676</ele>
<time>2016-10-10T12:06:08Z</time>
</trkpt>
<trkpt lat="37.10607147216797" lon="-118.44950866699219">
<ele>2674</ele>
<time>2016-10-10T12:06:21Z</time>
</trkpt>
<trkpt lat="37.1060676574707" lon="-118.44957733154297">
<ele>2673</ele>
<time>2016-10-10T12:06:27Z</time>
</trkpt>
<trkpt lat="37.1060791015625" lon="-118.44963836669922">
<ele>2672</ele>
<time>2016-10-10T12:06:33Z</time>
</trkpt>
<trkpt lat="37.106075286865234" lon="-118.44973754882813">
<ele>2673</ele>
<time>2016-10-10T12:06:45Z</time>
</trkpt>
<trkpt lat="37.10605239868164" lon="-118.44979095458984">
<ele>2670</ele>
<time>2016-10-10T12:06:51Z</time>
</trkpt>
<trkpt lat="37.10603332519531" lon="-118.44984436035156">
<ele>2667</ele>
<time>2016-10-10T12:06:58Z</time>
</trkpt>
<trkpt lat="37.10601043701172" lon="-118.44989776611328">
<ele>2667</ele>
<time>2016-10-10T12:07:04Z</time>
</trkpt>
<trkpt lat="37.10597610473633" lon="-118.44994354248047">
<ele>2662</ele>
<time>2016-10-10T12:07:12Z</time>
</trkpt>
<trkpt lat="37.10597610473633" lon="-118.45001983642578">
<ele>2661</ele>
<time>2016-10-10T12:07:20Z</time>
</trkpt>
<trkpt lat="37.10602951049805" lon="-118.45012664794922">
<ele>2660</ele>
<time>2016-10-10T12:07:30Z</time>
</trkpt>
<trkpt lat="37.10603713989258" lon="-118.45018005371094">
<ele>2659</ele>
<time>2016-10-10T12:07:37Z</time>
</trkpt>
<trkpt lat="37.10603713989258" lon="-118.4503173828125">
<ele>2659</ele>
<time>2016-10-10T12:07:47Z</time>
</trkpt>
<trkpt lat="37.106040954589844" lon="-118.45043182373047">
<ele>2662</ele>
<time>2016-10-10T12:07:56Z</time>
</trkpt>
<trkpt lat="37.10601806640625" lon="-118.45054626464844">
<ele>2665</ele>
<time>2016-10-10T12:08:07Z</time>
</trkpt>
<trkpt lat="37.10597229003906" lon="-118.45063018798828">
<ele>2664</ele>
<time>2016-10-10T12:08:22Z</time>
</trkpt>
<trkpt lat="37.10594940185547" lon="-118.45068359375">
<ele>2666</ele>
<time>2016-10-10T12:08:31Z</time>
</trkpt>
<trkpt lat="37.10593032836914" lon="-118.45073699951172">
<ele>2675</ele>
<time>2016-10-10T12:08:40Z</time>
</trkpt>
<trkpt lat="37.10591506958008" lon="-118.45082092285156">
<ele>2675</ele>
<time>2016-10-10T12:08:50Z</time>
</trkpt>
<trkpt lat="37.10595703125" lon="-118.45079040527344">
<ele>2685</ele>
<time>2016-10-10T12:09:01Z</time>
</trkpt>
<trkpt lat="37.10597610473633" lon="-118.45073699951172">
<ele>2693</ele>
<time>2016-10-10T12:09:12Z</time>
</trkpt>
<trkpt lat="37.10599136352539" lon="-118.45064544677734">
<ele>2698</ele>
<time>2016-10-10T12:09:24Z</time>
</trkpt>
<trkpt lat="37.10599136352539" lon="-118.45052337646484">
<ele>2700</ele>
<time>2016-10-10T12:09:39Z</time>
</trkpt>
<trkpt lat="37.10595703125" lon="-118.45048522949219">
<ele>2700</ele>
<time>2016-10-10T12:09:45Z</time>
</trkpt>
<trkpt lat="37.10593795776367" lon="-118.45042419433594">
<ele>2703</ele>
<time>2016-10-10T12:09:52Z</time>
</trkpt>
<trkpt lat="37.10593032836914" lon="-118.45037078857422">
<ele>2709</ele>
<time>2016-10-10T12:09:59Z</time>
</trkpt>
<trkpt lat="37.10590362548828" lon="-118.45024871826172">
<ele>2714</ele>
<time>2016-10-10T12:10:11Z</time>
</trkpt>
<trkpt lat="37.10588455200195" lon="-118.4501953125">
<ele>2716</ele>
<time>2016-10-10T12:10:19Z</time>
</trkpt>
<trkpt lat="37.105873107910156" lon="-118.45025634765625">
<ele>2711</ele>
<time>2016-10-10T12:10:28Z</time>
</trkpt>
<trkpt lat="37.105831146240234" lon="-118.45030212402344">
<ele>2707</ele>
<time>2016-10-10T12:10:34Z</time>
</trkpt>
<trkpt lat="37.10577392578125" lon="-118.45039367675781">
<ele>2704</ele>
<time>2016-10-10T12:10:47Z</time>
</trkpt>
<trkpt lat="37.10572814941406" lon="-118.4504165649414">
<ele>2701</ele>
<time>2016-10-10T12:10:53Z</time>
</trkpt>
<trkpt lat="37.10570526123047" lon="-118.45046997070313">
<ele>2702</ele>
<time>2016-10-10T12:11:01Z</time>
</trkpt>
<trkpt lat="37.105690002441406" lon="-118.4505844116211">
<ele>2703</ele>
<time>2016-10-10T12:11:11Z</time>
</trkpt>
<trkpt lat="37.10578155517578" lon="-118.45061492919922">
<ele>2714</ele>
<time>2016-10-10T12:11:21Z</time>
</trkpt>
<trkpt lat="37.10576629638672" lon="-118.4505615234375">
<ele>2718</ele>
<time>2016-10-10T12:11:30Z</time>
</trkpt>
<trkpt lat="37.105770111083984" lon="-118.45050048828125">
<ele>2723</ele>
<time>2016-10-10T12:11:38Z</time>
</trkpt>
<trkpt lat="37.105751037597656" lon="-118.450439453125">
<ele>2728</ele>
<time>2016-10-10T12:11:45Z</time>
</trkpt>
<trkpt lat="37.10575485229492" lon="-118.45037078857422">
<ele>2732</ele>
<time>2016-10-10T12:11:58Z</time>
</trkpt>
<trkpt lat="37.105709075927734" lon="-118.45034790039063">
<ele>2732</ele>
<time>2016-10-10T12:12:06Z</time>
</trkpt>
<trkpt lat="37.10566711425781" lon="-118.45037841796875">
<ele>2730</ele>
<time>2016-10-10T12:12:12Z</time>
</trkpt>
<trkpt lat="37.10560607910156" lon="-118.45040130615234">
<ele>2726</ele>
<time>2016-10-10T12:12:21Z</time>
</trkpt>
<trkpt lat="37.105552673339844" lon="-118.45042419433594">
<ele>2721</ele>
<time>2016-10-10T12:12:29Z</time>
</trkpt>
<trkpt lat="37.10551452636719" lon="-118.45045471191406">
<ele>2722</ele>
<time>2016-10-10T12:12:36Z</time>
</trkpt>
<trkpt lat="37.105491638183594" lon="-118.45050811767578">
<ele>2722</ele>
<time>2016-10-10T12:12:43Z</time>
</trkpt>
<trkpt lat="37.105472564697266" lon="-118.45056915283203">
<ele>2722</ele>
<time>2016-10-10T12:12:49Z</time>
</trkpt>
<trkpt lat="37.105464935302734" lon="-118.45063018798828">
<ele>2722</ele>
<time>2016-10-10T12:12:55Z</time>
</trkpt>
<trkpt lat="37.10542297363281" lon="-118.45066833496094">
<ele>2720</ele>
<time>2016-10-10T12:13:03Z</time>
</trkpt>
<trkpt lat="37.10540771484375" lon="-118.45076751708984">
<ele>2723</ele>
<time>2016-10-10T12:13:14Z</time>
</trkpt>
<trkpt lat="37.10536193847656" lon="-118.45082092285156">
<ele>2724</ele>
<time>2016-10-10T12:13:26Z</time>
</trkpt>
<trkpt lat="37.10531997680664" lon="-118.4508285522461">
<ele>2725</ele>
<time>2016-10-10T12:13:33Z</time>
</trkpt>
<trkpt lat="37.10527038574219" lon="-118.45083618164063">
<ele>2725</ele>
<time>2016-10-10T12:13:42Z</time>
</trkpt>
<trkpt lat="37.10525131225586" lon="-118.45088958740234">
<ele>2726</ele>
<time>2016-10-10T12:13:48Z</time>
</trkpt>
<trkpt lat="37.105228424072266" lon="-118.45101165771484">
<ele>2725</ele>
<time>2016-10-10T12:13:58Z</time>
</trkpt>
<trkpt lat="37.10523986816406" lon="-118.45108032226563">
<ele>2727</ele>
<time>2016-10-10T12:14:04Z</time>
</trkpt>
<trkpt lat="37.105308532714844" lon="-118.45120239257813">
<ele>2730</ele>
<time>2016-10-10T12:14:11Z</time>
</trkpt>
<trkpt lat="37.10530471801758" lon="-118.4512710571289">
<ele>2731</ele>
<time>2016-10-10T12:14:21Z</time>
</trkpt>
<trkpt lat="37.105316162109375" lon="-118.45133972167969">
<ele>2732</ele>
<time>2016-10-10T12:14:30Z</time>
</trkpt>
<trkpt lat="37.105316162109375" lon="-118.45140075683594">
<ele>2731</ele>
<time>2016-10-10T12:14:37Z</time>
</trkpt>
<trkpt lat="37.105281829833984" lon="-118.45144653320313">
<ele>2732</ele>
<time>2016-10-10T12:14:46Z</time>
</trkpt>
<trkpt lat="37.1053352355957" lon="-118.4515609741211">
<ele>2734</ele>
<time>2016-10-10T12:14:53Z</time>
</trkpt>
<trkpt lat="37.105316162109375" lon="-118.45150756835938">
<ele>2741</ele>
<time>2016-10-10T12:15:05Z</time>
</trkpt>
<trkpt lat="37.1053466796875" lon="-118.451416015625">
<ele>2749</ele>
<time>2016-10-10T12:15:21Z</time>
</trkpt>
<trkpt lat="37.10531997680664" lon="-118.45137023925781">
<ele>2748</ele>
<time>2016-10-10T12:15:28Z</time>
</trkpt>
<trkpt lat="37.10529708862305" lon="-118.4513168334961">
<ele>2749</ele>
<time>2016-10-10T12:15:34Z</time>
</trkpt>
<trkpt lat="37.10529327392578" lon="-118.45125579833984">
<ele>2753</ele>
<time>2016-10-10T12:15:49Z</time>
</trkpt>
<trkpt lat="37.105289459228516" lon="-118.4511947631836">
<ele>2754</ele>
<time>2016-10-10T12:15:55Z</time>
</trkpt>
<trkpt lat="37.105281829833984" lon="-118.45114135742188">
<ele>2754</ele>
<time>2016-10-10T12:16:01Z</time>
</trkpt>
<trkpt lat="37.105255126953125" lon="-118.4510269165039">
<ele>2756</ele>
<time>2016-10-10T12:16:11Z</time>
</trkpt>
<trkpt lat="37.10521697998047" lon="-118.45095825195313">
<ele>2758</ele>
<time>2016-10-10T12:16:20Z</time>
</trkpt>
<trkpt lat="37.10520935058594" lon="-118.45089721679688">
<ele>2758</ele>
<time>2016-10-10T12:16:26Z</time>
</trkpt>
<trkpt lat="37.10521697998047" lon="-118.45084381103516">
<ele>2762</ele>
<time>2016-10-10T12:16:32Z</time>
</trkpt>
<trkpt lat="37.1052131652832" lon="-118.45077514648438">
<ele>2764</ele>
<time>2016-10-10T12:16:39Z</time>
</trkpt>
<trkpt lat="37.105228424072266" lon="-118.45072174072266">
<ele>2767</ele>
<time>2016-10-10T12:16:50Z</time>
</trkpt>
<trkpt lat="37.10517883300781" lon="-118.45061492919922">
<ele>2767</ele>
<time>2016-10-10T12:17:00Z</time>
</trkpt>
<trkpt lat="37.10515213012695" lon="-118.4505615234375">
<ele>2767</ele>
<time>2016-10-10T12:17:06Z</time>
</trkpt>
<trkpt lat="37.10513687133789" lon="-118.45050048828125">
<ele>2769</ele>
<time>2016-10-10T12:17:13Z</time>
</trkpt>
<trkpt lat="37.10512924194336" lon="-118.45044708251953">
<ele>2766</ele>
<time>2016-10-10T12:17:21Z</time>
</trkpt>
<trkpt lat="37.105064392089844" lon="-118.45033264160156">
<ele>2766</ele>
<time>2016-10-10T12:17:29Z</time>
</trkpt>
<trkpt lat="37.10506057739258" lon="-118.45027923583984">
<ele>2767</ele>
<time>2016-10-10T12:17:39Z</time>
</trkpt>
<trkpt lat="37.10506820678711" lon="-118.4502182006836">
<ele>2769</ele>
<time>2016-10-10T12:17:48Z</time>
</trkpt>
<trkpt lat="37.10500717163086" lon="-118.45011901855469">
<ele>2768</ele>
<time>2016-10-10T12:17:55Z</time>
</trkpt>
<trkpt lat="37.104957580566406" lon="-118.4501724243164">
<ele>2766</ele>
<time>2016-10-10T12:18:23Z</time>
</trkpt>
<trkpt lat="37.10492706298828" lon="-118.4502182006836">
<ele>2761</ele>
<time>2016-10-10T12:18:30Z</time>
</trkpt>
<trkpt lat="37.10489273071289" lon="-118.4503173828125">
<ele>2761</ele>
<time>2016-10-10T12:18:40Z</time>
</trkpt>
<trkpt lat="37.104862213134766" lon="-118.45036315917969">
<ele>2761</ele>
<time>2016-10-10T12:18:47Z</time>
</trkpt>
<trkpt lat="37.10485076904297" lon="-118.45042419433594">
<ele>2762</ele>
<time>2016-10-10T12:18:53Z</time>
</trkpt>
<trkpt lat="37.10483169555664" lon="-118.45047760009766">
<ele>2765</ele>
<time>2016-10-10T12:19:00Z</time>
</trkpt>
<trkpt lat="37.104827880859375" lon="-118.45053100585938">
<ele>2767</ele>
<time>2016-10-10T12:19:06Z</time>
</trkpt>
<trkpt lat="37.104854583740234" lon="-118.45059204101563">
<ele>2771</ele>
<time>2016-10-10T12:19:13Z</time>
</trkpt>
<trkpt lat="37.10491180419922" lon="-118.45060729980469">
<ele>2775</ele>
<time>2016-10-10T12:19:19Z</time>
</trkpt>
<trkpt lat="37.104957580566406" lon="-118.45059967041016">
<ele>2776</ele>
<time>2016-10-10T12:19:28Z</time>
</trkpt>
<trkpt lat="37.10495376586914" lon="-118.45049285888672">
<ele>2777</ele>
<time>2016-10-10T12:19:37Z</time>
</trkpt>
<trkpt lat="37.10493850708008" lon="-118.45036315917969">
<ele>2780</ele>
<time>2016-10-10T12:19:49Z</time>
</trkpt>
<trkpt lat="37.104862213134766" lon="-118.45028686523438">
<ele>2779</ele>
<time>2016-10-10T12:19:57Z</time>
</trkpt>
<trkpt lat="37.104854583740234" lon="-118.45016479492188">
<ele>2783</ele>
<time>2016-10-10T12:20:07Z</time>
</trkpt>
<trkpt lat="37.1048583984375" lon="-118.45004272460938">
<ele>2786</ele>
<time>2016-10-10T12:20:14Z</time>
</trkpt>
<trkpt lat="37.10482406616211" lon="-118.44992065429688">
<ele>2791</ele>
<time>2016-10-10T12:20:23Z</time>
</trkpt>
<trkpt lat="37.104862213134766" lon="-118.44981384277344">
<ele>2791</ele>
<time>2016-10-10T12:20:33Z</time>
</trkpt>
<trkpt lat="37.104854583740234" lon="-118.44969940185547">
<ele>2793</ele>
<time>2016-10-10T12:20:44Z</time>
</trkpt>
<trkpt lat="37.10481643676758" lon="-118.4495620727539">
<ele>2788</ele>
<time>2016-10-10T12:20:55Z</time>
</trkpt>
<trkpt lat="37.10483932495117" lon="-118.44951629638672">
<ele>2790</ele>
<time>2016-10-10T12:21:02Z</time>
</trkpt>
<trkpt lat="37.10483169555664" lon="-118.449462890625">
<ele>2789</ele>
<time>2016-10-10T12:21:08Z</time>
</trkpt>
<trkpt lat="37.10483169555664" lon="-118.44940185546875">
<ele>2790</ele>
<time>2016-10-10T12:21:14Z</time>
</trkpt>
<trkpt lat="37.10478591918945" lon="-118.44939422607422">
<ele>2791</ele>
<time>2016-10-10T12:21:23Z</time>
</trkpt>
<trkpt lat="37.10478210449219" lon="-118.4493408203125">
<ele>2792</ele>
<time>2016-10-10T12:21:29Z</time>
</trkpt>
<trkpt lat="37.10474395751953" lon="-118.44921875">
<ele>2795</ele>
<time>2016-10-10T12:21:37Z</time>
</trkpt>
<trkpt lat="37.10475540161133" lon="-118.4490966796875">
<ele>2798</ele>
<time>2016-10-10T12:21:47Z</time>
</trkpt>
<trkpt lat="37.104766845703125" lon="-118.44903564453125">
<ele>2794</ele>
<time>2016-10-10T12:21:55Z</time>
</trkpt>
<trkpt lat="37.10478591918945" lon="-118.448974609375">
<ele>2796</ele>
<time>2016-10-10T12:22:02Z</time>
</trkpt>
<trkpt lat="37.10478591918945" lon="-118.44891357421875">
<ele>2795</ele>
<time>2016-10-10T12:22:08Z</time>
</trkpt>
<trkpt lat="37.10477828979492" lon="-118.4488296508789">
<ele>2795</ele>
<time>2016-10-10T12:22:14Z</time>
</trkpt>
<trkpt lat="37.10475540161133" lon="-118.4488754272461">
<ele>2794</ele>
<time>2016-10-10T12:22:32Z</time>
</trkpt>
<trkpt lat="37.10470199584961" lon="-118.44898223876953">
<ele>2793</ele>
<time>2016-10-10T12:22:42Z</time>
</trkpt>
<trkpt lat="37.10466003417969" lon="-118.44908905029297">
<ele>2794</ele>
<time>2016-10-10T12:22:50Z</time>
</trkpt>
<trkpt lat="37.104583740234375" lon="-118.44916534423828">
<ele>2795</ele>
<time>2016-10-10T12:23:02Z</time>
</trkpt>
<trkpt lat="37.10451889038086" lon="-118.4492416381836">
<ele>2794</ele>
<time>2016-10-10T12:23:12Z</time>
</trkpt>
<trkpt lat="37.104469299316406" lon="-118.44929504394531">
<ele>2796</ele>
<time>2016-10-10T12:23:20Z</time>
</trkpt>
<trkpt lat="37.10445022583008" lon="-118.44935607910156">
<ele>2796</ele>
<time>2016-10-10T12:23:27Z</time>
</trkpt>
<trkpt lat="37.10441589355469" lon="-118.44939422607422">
<ele>2795</ele>
<time>2016-10-10T12:23:34Z</time>
</trkpt>
<trkpt lat="37.10442352294922" lon="-118.44952392578125">
<ele>2799</ele>
<time>2016-10-10T12:23:45Z</time>
</trkpt>
<trkpt lat="37.10437774658203" lon="-118.44963073730469">
<ele>2802</ele>
<time>2016-10-10T12:23:56Z</time>
</trkpt>
<trkpt lat="37.10433578491211" lon="-118.44967651367188">
<ele>2798</ele>
<time>2016-10-10T12:24:05Z</time>
</trkpt>
<trkpt lat="37.10431671142578" lon="-118.4497299194336">
<ele>2800</ele>
<time>2016-10-10T12:24:12Z</time>
</trkpt>
<trkpt lat="37.10427474975586" lon="-118.4498062133789">
<ele>2801</ele>
<time>2016-10-10T12:24:19Z</time>
</trkpt>
<trkpt lat="37.104251861572266" lon="-118.44985961914063">
<ele>2801</ele>
<time>2016-10-10T12:24:25Z</time>
</trkpt>
<trkpt lat="37.10423278808594" lon="-118.44996643066406">
<ele>2802</ele>
<time>2016-10-10T12:24:36Z</time>
</trkpt>
<trkpt lat="37.10421371459961" lon="-118.45002746582031">
<ele>2803</ele>
<time>2016-10-10T12:24:44Z</time>
</trkpt>
<trkpt lat="37.10419464111328" lon="-118.45008087158203">
<ele>2801</ele>
<time>2016-10-10T12:24:51Z</time>
</trkpt>
<trkpt lat="37.10417556762695" lon="-118.45014190673828">
<ele>2802</ele>
<time>2016-10-10T12:24:57Z</time>
</trkpt>
<trkpt lat="37.10417556762695" lon="-118.45020294189453">
<ele>2801</ele>
<time>2016-10-10T12:25:04Z</time>
</trkpt>
<trkpt lat="37.10416030883789" lon="-118.45026397705078">
<ele>2802</ele>
<time>2016-10-10T12:25:10Z</time>
</trkpt>
<trkpt lat="37.104148864746094" lon="-118.45033264160156">
<ele>2807</ele>
<time>2016-10-10T12:25:32Z</time>
</trkpt>
<trkpt lat="37.10411071777344" lon="-118.45036315917969">
<ele>2806</ele>
<time>2016-10-10T12:25:39Z</time>
</trkpt>
<trkpt lat="37.104095458984375" lon="-118.4504165649414">
<ele>2819</ele>
<time>2016-10-10T12:26:01Z</time>
</trkpt>
<trkpt lat="37.10403060913086" lon="-118.45049285888672">
<ele>2815</ele>
<time>2016-10-10T12:26:14Z</time>
</trkpt>
<trkpt lat="37.10406494140625" lon="-118.45052337646484">
<ele>2815</ele>
<time>2016-10-10T12:26:24Z</time>
</trkpt>
<trkpt lat="37.104068756103516" lon="-118.4505844116211">
<ele>2816</ele>
<time>2016-10-10T12:26:31Z</time>
</trkpt>
<trkpt lat="37.104061126708984" lon="-118.45064544677734">
<ele>2819</ele>
<time>2016-10-10T12:26:41Z</time>
</trkpt>
<trkpt lat="37.104042053222656" lon="-118.45075988769531">
<ele>2822</ele>
<time>2016-10-10T12:26:52Z</time>
</trkpt>
<trkpt lat="37.10402297973633" lon="-118.4508056640625">
<ele>2827</ele>
<time>2016-10-10T12:26:58Z</time>
</trkpt>
<trkpt lat="37.1040153503418" lon="-118.45092010498047">
<ele>2826</ele>
<time>2016-10-10T12:27:25Z</time>
</trkpt>
<trkpt lat="37.1040153503418" lon="-118.45101928710938">
<ele>2824</ele>
<time>2016-10-10T12:27:35Z</time>
</trkpt>
<trkpt lat="37.10403060913086" lon="-118.4510726928711">
<ele>2825</ele>
<time>2016-10-10T12:27:42Z</time>
</trkpt>
<trkpt lat="37.10406494140625" lon="-118.45111083984375">
<ele>2829</ele>
<time>2016-10-10T12:27:53Z</time>
</trkpt>
<trkpt lat="37.10411071777344" lon="-118.45121002197266">
<ele>2832</ele>
<time>2016-10-10T12:28:04Z</time>
</trkpt>
<trkpt lat="37.104122161865234" lon="-118.45127868652344">
<ele>2829</ele>
<time>2016-10-10T12:28:14Z</time>
</trkpt>
<trkpt lat="37.10414505004883" lon="-118.45134735107422">
<ele>2831</ele>
<time>2016-10-10T12:28:21Z</time>
</trkpt>
<trkpt lat="37.10422134399414" lon="-118.45142364501953">
<ele>2830</ele>
<time>2016-10-10T12:28:29Z</time>
</trkpt>
<trkpt lat="37.104248046875" lon="-118.45146942138672">
<ele>2832</ele>
<time>2016-10-10T12:28:35Z</time>
</trkpt>
<trkpt lat="37.104217529296875" lon="-118.45150756835938">
<ele>2830</ele>
<time>2016-10-10T12:28:41Z</time>
</trkpt>
<trkpt lat="37.1042366027832" lon="-118.45157623291016">
<ele>2838</ele>
<time>2016-10-10T12:28:49Z</time>
</trkpt>
<trkpt lat="37.104251861572266" lon="-118.45169830322266">
<ele>2837</ele>
<time>2016-10-10T12:28:59Z</time>
</trkpt>
<trkpt lat="37.10427474975586" lon="-118.45175170898438">
<ele>2837</ele>
<time>2016-10-10T12:29:06Z</time>
</trkpt>
<trkpt lat="37.10432434082031" lon="-118.45182800292969">
<ele>2837</ele>
<time>2016-10-10T12:29:14Z</time>
</trkpt>
<trkpt lat="37.10432815551758" lon="-118.45188903808594">
<ele>2839</ele>
<time>2016-10-10T12:29:26Z</time>
</trkpt>
<trkpt lat="37.1043586730957" lon="-118.45194244384766">
<ele>2843</ele>
<time>2016-10-10T12:29:32Z</time>
</trkpt>
<trkpt lat="37.1043701171875" lon="-118.4520034790039">
<ele>2843</ele>
<time>2016-10-10T12:29:38Z</time>
</trkpt>
<trkpt lat="37.104373931884766" lon="-118.45205688476563">
<ele>2845</ele>
<time>2016-10-10T12:29:45Z</time>
</trkpt>
<trkpt lat="37.10439682006836" lon="-118.45211029052734">
<ele>2847</ele>
<time>2016-10-10T12:29:53Z</time>
</trkpt>
<trkpt lat="37.10443878173828" lon="-118.45215606689453">
<ele>2849</ele>
<time>2016-10-10T12:29:59Z</time>
</trkpt>
<trkpt lat="37.104515075683594" lon="-118.45223999023438">
<ele>2844</ele>
<time>2016-10-10T12:30:12Z</time>
</trkpt>
<trkpt lat="37.10453796386719" lon="-118.45232391357422">
<ele>2844</ele>
<time>2016-10-10T12:30:18Z</time>
</trkpt>
<trkpt lat="37.10456466674805" lon="-118.45245361328125">
<ele>2843</ele>
<time>2016-10-10T12:30:25Z</time>
</trkpt>
<trkpt lat="37.104576110839844" lon="-118.45256042480469">
<ele>2844</ele>
<time>2016-10-10T12:30:36Z</time>
</trkpt>
<trkpt lat="37.10460662841797" lon="-118.4526138305664">
<ele>2848</ele>
<time>2016-10-10T12:30:45Z</time>
</trkpt>
<trkpt lat="37.10464859008789" lon="-118.45272064208984">
<ele>2855</ele>
<time>2016-10-10T12:31:00Z</time>
</trkpt>
<trkpt lat="37.10469055175781" lon="-118.45275115966797">
<ele>2855</ele>
<time>2016-10-10T12:31:07Z</time>
</trkpt>
<trkpt lat="37.1047248840332" lon="-118.45281219482422">
<ele>2862</ele>
<time>2016-10-10T12:31:27Z</time>
</trkpt>
<trkpt lat="37.104736328125" lon="-118.45286560058594">
<ele>2857</ele>
<time>2016-10-10T12:31:35Z</time>
</trkpt>
<trkpt lat="37.104774475097656" lon="-118.4529037475586">
<ele>2859</ele>
<time>2016-10-10T12:31:45Z</time>
</trkpt>
<trkpt lat="37.10472869873047" lon="-118.45284271240234">
<ele>2866</ele>
<time>2016-10-10T12:32:51Z</time>
</trkpt>
<trkpt lat="37.10470962524414" lon="-118.45289611816406">
<ele>2865</ele>
<time>2016-10-10T12:33:00Z</time>
</trkpt>
<trkpt lat="37.10468673706055" lon="-118.45294952392578">
<ele>2863</ele>
<time>2016-10-10T12:33:14Z</time>
</trkpt>
<trkpt lat="37.104652404785156" lon="-118.45298767089844">
<ele>2859</ele>
<time>2016-10-10T12:33:20Z</time>
</trkpt>
<trkpt lat="37.104637145996094" lon="-118.4531021118164">
<ele>2859</ele>
<time>2016-10-10T12:33:29Z</time>
</trkpt>
<trkpt lat="37.10468292236328" lon="-118.45321655273438">
<ele>2862</ele>
<time>2016-10-10T12:33:40Z</time>
</trkpt>
<trkpt lat="37.104698181152344" lon="-118.4532699584961">
<ele>2865</ele>
<time>2016-10-10T12:33:51Z</time>
</trkpt>
<trkpt lat="37.104652404785156" lon="-118.45328521728516">
<ele>2870</ele>
<time>2016-10-10T12:34:06Z</time>
</trkpt>
<trkpt lat="37.10460662841797" lon="-118.45331573486328">
<ele>2871</ele>
<time>2016-10-10T12:34:14Z</time>
</trkpt>
<trkpt lat="37.104557037353516" lon="-118.45333862304688">
<ele>2872</ele>
<time>2016-10-10T12:34:20Z</time>
</trkpt>
<trkpt lat="37.10454177856445" lon="-118.4533920288086">
<ele>2880</ele>
<time>2016-10-10T12:34:46Z</time>
</trkpt>
<trkpt lat="37.10459518432617" lon="-118.45341491699219">
<ele>2879</ele>
<time>2016-10-10T12:34:54Z</time>
</trkpt>
<trkpt lat="37.1046142578125" lon="-118.45346069335938">
<ele>2880</ele>
<time>2016-10-10T12:35:02Z</time>
</trkpt>
<trkpt lat="37.10454559326172" lon="-118.45352172851563">
<ele>2888</ele>
<time>2016-10-10T12:35:21Z</time>
</trkpt>
<trkpt lat="37.10449981689453" lon="-118.45353698730469">
<ele>2887</ele>
<time>2016-10-10T12:35:32Z</time>
</trkpt>
<trkpt lat="37.104557037353516" lon="-118.45357513427734">
<ele>2888</ele>
<time>2016-10-10T12:35:46Z</time>
</trkpt>
<trkpt lat="37.10464859008789" lon="-118.45361328125">
<ele>2889</ele>
<time>2016-10-10T12:35:56Z</time>
</trkpt>
<trkpt lat="37.1046028137207" lon="-118.45361328125">
<ele>2895</ele>
<time>2016-10-10T12:36:07Z</time>
</trkpt>
<trkpt lat="37.10454177856445" lon="-118.4536361694336">
<ele>2896</ele>
<time>2016-10-10T12:36:19Z</time>
</trkpt>
<trkpt lat="37.10445022583008" lon="-118.45362854003906">
<ele>2897</ele>
<time>2016-10-10T12:36:32Z</time>
</trkpt>
<trkpt lat="37.10440444946289" lon="-118.45364379882813">
<ele>2896</ele>
<time>2016-10-10T12:36:39Z</time>
</trkpt>
<trkpt lat="37.104454040527344" lon="-118.45366668701172">
<ele>2898</ele>
<time>2016-10-10T12:36:54Z</time>
</trkpt>
<trkpt lat="37.104408264160156" lon="-118.45372009277344">
<ele>2896</ele>
<time>2016-10-10T12:37:12Z</time>
</trkpt>
<trkpt lat="37.104347229003906" lon="-118.45372009277344">
<ele>2898</ele>
<time>2016-10-10T12:37:21Z</time>
</trkpt>
<trkpt lat="37.10429763793945" lon="-118.4537124633789">
<ele>2898</ele>
<time>2016-10-10T12:37:29Z</time>
</trkpt>
<trkpt lat="37.1042366027832" lon="-118.45378112792969">
<ele>2902</ele>
<time>2016-10-10T12:37:46Z</time>
</trkpt>
<trkpt lat="37.10427474975586" lon="-118.45381927490234">
<ele>2905</ele>
<time>2016-10-10T12:38:02Z</time>
</trkpt>
<trkpt lat="37.10436248779297" lon="-118.45384216308594">
<ele>2907</ele>
<time>2016-10-10T12:38:12Z</time>
</trkpt>
<trkpt lat="37.10442352294922" lon="-118.45388793945313">
<ele>2908</ele>
<time>2016-10-10T12:38:21Z</time>
</trkpt>
<trkpt lat="37.10445022583008" lon="-118.45393371582031">
<ele>2909</ele>
<time>2016-10-10T12:38:32Z</time>
</trkpt>
<trkpt lat="37.104488372802734" lon="-118.45397186279297">
<ele>2910</ele>
<time>2016-10-10T12:38:38Z</time>
</trkpt>
<trkpt lat="37.10445022583008" lon="-118.45401763916016">
<ele>2911</ele>
<time>2016-10-10T12:38:44Z</time>
</trkpt>
<trkpt lat="37.1043586730957" lon="-118.4540023803711">
<ele>2914</ele>
<time>2016-10-10T12:38:53Z</time>
</trkpt>
<trkpt lat="37.104312896728516" lon="-118.45401763916016">
<ele>2914</ele>
<time>2016-10-10T12:39:03Z</time>
</trkpt>
<trkpt lat="37.1043815612793" lon="-118.45404052734375">
<ele>2917</ele>
<time>2016-10-10T12:39:25Z</time>
</trkpt>
<trkpt lat="37.10447311401367" lon="-118.45407104492188">
<ele>2918</ele>
<time>2016-10-10T12:39:35Z</time>
</trkpt>
<trkpt lat="37.104530334472656" lon="-118.45416259765625">
<ele>2913</ele>
<time>2016-10-10T12:39:49Z</time>
</trkpt>
<trkpt lat="37.104488372802734" lon="-118.45418548583984">
<ele>2921</ele>
<time>2016-10-10T12:40:03Z</time>
</trkpt>
<trkpt lat="37.10444259643555" lon="-118.45420837402344">
<ele>2920</ele>
<time>2016-10-10T12:40:11Z</time>
</trkpt>
<trkpt lat="37.10440444946289" lon="-118.45429992675781">
<ele>2922</ele>
<time>2016-10-10T12:40:25Z</time>
</trkpt>
<trkpt lat="37.104408264160156" lon="-118.45436096191406">
<ele>2922</ele>
<time>2016-10-10T12:40:43Z</time>
</trkpt>
<trkpt lat="37.10445785522461" lon="-118.454345703125">
<ele>2930</ele>
<time>2016-10-10T12:40:58Z</time>
</trkpt>
<trkpt lat="37.1045036315918" lon="-118.45436096191406">
<ele>2932</ele>
<time>2016-10-10T12:41:07Z</time>
</trkpt>
<trkpt lat="37.104454040527344" lon="-118.45437622070313">
<ele>2940</ele>
<time>2016-10-10T12:41:20Z</time>
</trkpt>
<trkpt lat="37.1043586730957" lon="-118.45436096191406">
<ele>2938</ele>
<time>2016-10-10T12:41:28Z</time>
</trkpt>
<trkpt lat="37.10431671142578" lon="-118.45439910888672">
<ele>2938</ele>
<time>2016-10-10T12:41:34Z</time>
</trkpt>
<trkpt lat="37.10427474975586" lon="-118.4544448852539">
<ele>2936</ele>
<time>2016-10-10T12:41:41Z</time>
</trkpt>
<trkpt lat="37.1042594909668" lon="-118.45450592041016">
<ele>2938</ele>
<time>2016-10-10T12:41:48Z</time>
</trkpt>
<trkpt lat="37.104270935058594" lon="-118.45455932617188">
<ele>2939</ele>
<time>2016-10-10T12:41:58Z</time>
</trkpt>
<trkpt lat="37.10423278808594" lon="-118.45458221435547">
<ele>2945</ele>
<time>2016-10-10T12:42:06Z</time>
</trkpt>
<trkpt lat="37.10420227050781" lon="-118.45466613769531">
<ele>2940</ele>
<time>2016-10-10T12:42:23Z</time>
</trkpt>
<trkpt lat="37.104129791259766" lon="-118.45475006103516">
<ele>2945</ele>
<time>2016-10-10T12:42:29Z</time>
</trkpt>
<trkpt lat="37.104026794433594" lon="-118.45476531982422">
<ele>2943</ele>
<time>2016-10-10T12:42:36Z</time>
</trkpt>
<trkpt lat="37.103912353515625" lon="-118.45478820800781">
<ele>2944</ele>
<time>2016-10-10T12:42:44Z</time>
</trkpt>
<trkpt lat="37.10382080078125" lon="-118.45480346679688">
<ele>2939</ele>
<time>2016-10-10T12:43:02Z</time>
</trkpt>
<trkpt lat="37.103782653808594" lon="-118.45484924316406">
<ele>2939</ele>
<time>2016-10-10T12:43:11Z</time>
</trkpt>
<trkpt lat="37.103702545166016" lon="-118.45486450195313">
<ele>2940</ele>
<time>2016-10-10T12:43:18Z</time>
</trkpt>
<trkpt lat="37.10365295410156" lon="-118.45487213134766">
<ele>2941</ele>
<time>2016-10-10T12:43:26Z</time>
</trkpt>
<trkpt lat="37.1036262512207" lon="-118.45491790771484">
<ele>2944</ele>
<time>2016-10-10T12:43:32Z</time>
</trkpt>
<trkpt lat="37.103572845458984" lon="-118.45491027832031">
<ele>2950</ele>
<time>2016-10-10T12:43:49Z</time>
</trkpt>
<trkpt lat="37.10346984863281" lon="-118.45489501953125">
<ele>2954</ele>
<time>2016-10-10T12:44:01Z</time>
</trkpt>
<trkpt lat="37.10342788696289" lon="-118.45491790771484">
<ele>2958</ele>
<time>2016-10-10T12:44:08Z</time>
</trkpt>
<trkpt lat="37.10336685180664" lon="-118.45491790771484">
<ele>2962</ele>
<time>2016-10-10T12:44:21Z</time>
</trkpt>
<trkpt lat="37.103328704833984" lon="-118.45494842529297">
<ele>2960</ele>
<time>2016-10-10T12:44:27Z</time>
</trkpt>
<trkpt lat="37.10329055786133" lon="-118.4549789428711">
<ele>2958</ele>
<time>2016-10-10T12:44:34Z</time>
</trkpt>
<trkpt lat="37.103240966796875" lon="-118.45497131347656">
<ele>2958</ele>
<time>2016-10-10T12:44:41Z</time>
</trkpt>
<trkpt lat="37.10319900512695" lon="-118.45494842529297">
<ele>2956</ele>
<time>2016-10-10T12:44:54Z</time>
</trkpt>
<trkpt lat="37.103118896484375" lon="-118.4549789428711">
<ele>2960</ele>
<time>2016-10-10T12:45:06Z</time>
</trkpt>
<trkpt lat="37.10305404663086" lon="-118.4550552368164">
<ele>2949</ele>
<time>2016-10-10T12:45:18Z</time>
</trkpt>
<trkpt lat="37.10298538208008" lon="-118.45497131347656">
<ele>2956</ele>
<time>2016-10-10T12:45:26Z</time>
</trkpt>
<trkpt lat="37.10294723510742" lon="-118.4548568725586">
<ele>2962</ele>
<time>2016-10-10T12:45:33Z</time>
</trkpt>
<trkpt lat="37.10285568237305" lon="-118.45480346679688">
<ele>2962</ele>
<time>2016-10-10T12:45:40Z</time>
</trkpt>
<trkpt lat="37.102752685546875" lon="-118.45479583740234">
<ele>2966</ele>
<time>2016-10-10T12:45:46Z</time>
</trkpt>
<trkpt lat="37.102657318115234" lon="-118.45481872558594">
<ele>2963</ele>
<time>2016-10-10T12:45:55Z</time>
</trkpt>
<trkpt lat="37.10258483886719" lon="-118.45488739013672">
<ele>2966</ele>
<time>2016-10-10T12:46:04Z</time>
</trkpt>
<trkpt lat="37.10250473022461" lon="-118.45496368408203">
<ele>2964</ele>
<time>2016-10-10T12:46:12Z</time>
</trkpt>
<trkpt lat="37.10248947143555" lon="-118.45503997802734">
<ele>2964</ele>
<time>2016-10-10T12:46:18Z</time>
</trkpt>
<trkpt lat="37.10247802734375" lon="-118.4551010131836">
<ele>2962</ele>
<time>2016-10-10T12:46:25Z</time>
</trkpt>
<trkpt lat="37.10240173339844" lon="-118.45516967773438">
<ele>2957</ele>
<time>2016-10-10T12:46:34Z</time>
</trkpt>
<trkpt lat="37.10238265991211" lon="-118.45523071289063">
<ele>2958</ele>
<time>2016-10-10T12:46:41Z</time>
</trkpt>
<trkpt lat="37.102352142333984" lon="-118.45532989501953">
<ele>2961</ele>
<time>2016-10-10T12:46:50Z</time>
</trkpt>
<trkpt lat="37.102264404296875" lon="-118.45536804199219">
<ele>2957</ele>
<time>2016-10-10T12:46:58Z</time>
</trkpt>
<trkpt lat="37.10222244262695" lon="-118.4553451538086">
<ele>2954</ele>
<time>2016-10-10T12:47:05Z</time>
</trkpt>
<trkpt lat="37.102142333984375" lon="-118.45533752441406">
<ele>2947</ele>
<time>2016-10-10T12:47:14Z</time>
</trkpt>
<trkpt lat="37.10210037231445" lon="-118.45530700683594">
<ele>2947</ele>
<time>2016-10-10T12:47:20Z</time>
</trkpt>
<trkpt lat="37.102020263671875" lon="-118.45526885986328">
<ele>2947</ele>
<time>2016-10-10T12:47:27Z</time>
</trkpt>
<trkpt lat="37.1019172668457" lon="-118.455322265625">
<ele>2951</ele>
<time>2016-10-10T12:47:36Z</time>
</trkpt>
<trkpt lat="37.10184860229492" lon="-118.4554214477539">
<ele>2951</ele>
<time>2016-10-10T12:47:45Z</time>
</trkpt>
<trkpt lat="37.101844787597656" lon="-118.45548248291016">
<ele>2954</ele>
<time>2016-10-10T12:47:52Z</time>
</trkpt>
<trkpt lat="37.101802825927734" lon="-118.45551300048828">
<ele>2955</ele>
<time>2016-10-10T12:47:59Z</time>
</trkpt>
<trkpt lat="37.10172653198242" lon="-118.45559692382813">
<ele>2951</ele>
<time>2016-10-10T12:48:08Z</time>
</trkpt>
<trkpt lat="37.10164260864258" lon="-118.45561218261719">
<ele>2954</ele>
<time>2016-10-10T12:48:14Z</time>
</trkpt>
<trkpt lat="37.101539611816406" lon="-118.45562744140625">
<ele>2958</ele>
<time>2016-10-10T12:48:24Z</time>
</trkpt>
<trkpt lat="37.1014518737793" lon="-118.45567321777344">
<ele>2949</ele>
<time>2016-10-10T12:48:32Z</time>
</trkpt>
<trkpt lat="37.10137176513672" lon="-118.45573425292969">
<ele>2945</ele>
<time>2016-10-10T12:48:46Z</time>
</trkpt>
<trkpt lat="37.10129165649414" lon="-118.45579528808594">
<ele>2952</ele>
<time>2016-10-10T12:48:56Z</time>
</trkpt>
<trkpt lat="37.101192474365234" lon="-118.45582580566406">
<ele>2952</ele>
<time>2016-10-10T12:49:04Z</time>
</trkpt>
<trkpt lat="37.10112762451172" lon="-118.4559097290039">
<ele>2951</ele>
<time>2016-10-10T12:49:11Z</time>
</trkpt>
<trkpt lat="37.10104751586914" lon="-118.4559555053711">
<ele>2946</ele>
<time>2016-10-10T12:49:20Z</time>
</trkpt>
<trkpt lat="37.1009521484375" lon="-118.45598602294922">
<ele>2940</ele>
<time>2016-10-10T12:49:30Z</time>
</trkpt>
<trkpt lat="37.10085678100586" lon="-118.45601654052734">
<ele>2945</ele>
<time>2016-10-10T12:49:41Z</time>
</trkpt>
<trkpt lat="37.100807189941406" lon="-118.45601654052734">
<ele>2947</ele>
<time>2016-10-10T12:49:48Z</time>
</trkpt>
<trkpt lat="37.10071563720703" lon="-118.45606231689453">
<ele>2948</ele>
<time>2016-10-10T12:49:58Z</time>
</trkpt>
<trkpt lat="37.100624084472656" lon="-118.45608520507813">
<ele>2949</ele>
<time>2016-10-10T12:50:07Z</time>
</trkpt>
<trkpt lat="37.100555419921875" lon="-118.45610809326172">
<ele>2947</ele>
<time>2016-10-10T12:50:14Z</time>
</trkpt>
<trkpt lat="37.10048294067383" lon="-118.4561767578125">
<ele>2950</ele>
<time>2016-10-10T12:50:23Z</time>
</trkpt>
<trkpt lat="37.10039520263672" lon="-118.45625305175781">
<ele>2952</ele>
<time>2016-10-10T12:50:31Z</time>
</trkpt>
<trkpt lat="37.10032272338867" lon="-118.45633697509766">
<ele>2952</ele>
<time>2016-10-10T12:50:39Z</time>
</trkpt>
<trkpt lat="37.100311279296875" lon="-118.45639038085938">
<ele>2946</ele>
<time>2016-10-10T12:50:48Z</time>
</trkpt>
<trkpt lat="37.10028839111328" lon="-118.45645141601563">
<ele>2947</ele>
<time>2016-10-10T12:50:57Z</time>
</trkpt>
<trkpt lat="37.100196838378906" lon="-118.45650482177734">
<ele>2950</ele>
<time>2016-10-10T12:51:07Z</time>
</trkpt>
<trkpt lat="37.10012435913086" lon="-118.45655822753906">
<ele>2957</ele>
<time>2016-10-10T12:51:14Z</time>
</trkpt>
<trkpt lat="37.10003662109375" lon="-118.45653533935547">
<ele>2950</ele>
<time>2016-10-10T12:51:22Z</time>
</trkpt>
<trkpt lat="37.09994125366211" lon="-118.45648956298828">
<ele>2952</ele>
<time>2016-10-10T12:51:31Z</time>
</trkpt>
<trkpt lat="37.0998420715332" lon="-118.45647430419922">
<ele>2953</ele>
<time>2016-10-10T12:51:40Z</time>
</trkpt>
<trkpt lat="37.0997428894043" lon="-118.4564437866211">
<ele>2950</ele>
<time>2016-10-10T12:51:49Z</time>
</trkpt>
<trkpt lat="37.09969711303711" lon="-118.45643615722656">
<ele>2941</ele>
<time>2016-10-10T12:52:05Z</time>
</trkpt>
<trkpt lat="37.099666595458984" lon="-118.4565200805664">
<ele>2941</ele>
<time>2016-10-10T12:52:24Z</time>
</trkpt>
<trkpt lat="37.09967803955078" lon="-118.45661926269531">
<ele>2937</ele>
<time>2016-10-10T12:52:38Z</time>
</trkpt>
<trkpt lat="37.09967803955078" lon="-118.45668029785156">
<ele>2938</ele>
<time>2016-10-10T12:52:44Z</time>
</trkpt>
<trkpt lat="37.099647521972656" lon="-118.45671844482422">
<ele>2934</ele>
<time>2016-10-10T12:52:51Z</time>
</trkpt>
<trkpt lat="37.099632263183594" lon="-118.4566650390625">
<ele>2932</ele>
<time>2016-10-10T12:52:57Z</time>
</trkpt>
<trkpt lat="37.09954071044922" lon="-118.45665740966797">
<ele>2928</ele>
<time>2016-10-10T12:53:06Z</time>
</trkpt>
<trkpt lat="37.09946060180664" lon="-118.45663452148438">
<ele>2924</ele>
<time>2016-10-10T12:53:14Z</time>
</trkpt>
<trkpt lat="37.09938049316406" lon="-118.4565658569336">
<ele>2920</ele>
<time>2016-10-10T12:53:28Z</time>
</trkpt>
<trkpt lat="37.09932327270508" lon="-118.45658111572266">
<ele>2921</ele>
<time>2016-10-10T12:53:34Z</time>
</trkpt>
<trkpt lat="37.09928512573242" lon="-118.45667266845703">
<ele>2923</ele>
<time>2016-10-10T12:53:48Z</time>
</trkpt>
<trkpt lat="37.0992431640625" lon="-118.45669555664063">
<ele>2925</ele>
<time>2016-10-10T12:53:54Z</time>
</trkpt>
<trkpt lat="37.099220275878906" lon="-118.45675659179688">
<ele>2922</ele>
<time>2016-10-10T12:54:00Z</time>
</trkpt>
<trkpt lat="37.09918975830078" lon="-118.45679473876953">
<ele>2921</ele>
<time>2016-10-10T12:54:06Z</time>
</trkpt>
<trkpt lat="37.099143981933594" lon="-118.45681762695313">
<ele>2925</ele>
<time>2016-10-10T12:54:12Z</time>
</trkpt>
<trkpt lat="37.099082946777344" lon="-118.45684051513672">
<ele>2925</ele>
<time>2016-10-10T12:54:20Z</time>
</trkpt>
<trkpt lat="37.09904098510742" lon="-118.45685577392578">
<ele>2926</ele>
<time>2016-10-10T12:54:27Z</time>
</trkpt>
<trkpt lat="37.09899139404297" lon="-118.45687103271484">
<ele>2928</ele>
<time>2016-10-10T12:54:33Z</time>
</trkpt>
<trkpt lat="37.09901809692383" lon="-118.45692443847656">
<ele>2927</ele>
<time>2016-10-10T12:54:47Z</time>
</trkpt>
<trkpt lat="37.09906768798828" lon="-118.45694732666016">
<ele>2925</ele>
<time>2016-10-10T12:54:53Z</time>
</trkpt>
<trkpt lat="37.099124908447266" lon="-118.45703125">
<ele>2917</ele>
<time>2016-10-10T12:55:14Z</time>
</trkpt>
<trkpt lat="37.0991096496582" lon="-118.45708465576172">
<ele>2917</ele>
<time>2016-10-10T12:55:22Z</time>
</trkpt>
<trkpt lat="37.09906005859375" lon="-118.45709991455078">
<ele>2914</ele>
<time>2016-10-10T12:55:28Z</time>
</trkpt>
<trkpt lat="37.09901809692383" lon="-118.45707702636719">
<ele>2911</ele>
<time>2016-10-10T12:55:34Z</time>
</trkpt>
<trkpt lat="37.09898376464844" lon="-118.45712280273438">
<ele>2911</ele>
<time>2016-10-10T12:55:41Z</time>
</trkpt>
<trkpt lat="37.09893798828125" lon="-118.45711517333984">
<ele>2909</ele>
<time>2016-10-10T12:55:49Z</time>
</trkpt>
<trkpt lat="37.09885787963867" lon="-118.45713806152344">
<ele>2908</ele>
<time>2016-10-10T12:56:04Z</time>
</trkpt>
<trkpt lat="37.098812103271484" lon="-118.4571762084961">
<ele>2907</ele>
<time>2016-10-10T12:56:10Z</time>
</trkpt>
<trkpt lat="37.098724365234375" lon="-118.45719146728516">
<ele>2906</ele>
<time>2016-10-10T12:56:19Z</time>
</trkpt>
<trkpt lat="37.09867858886719" lon="-118.45716857910156">
<ele>2911</ele>
<time>2016-10-10T12:56:26Z</time>
</trkpt>
<trkpt lat="37.098636627197266" lon="-118.45714569091797">
<ele>2914</ele>
<time>2016-10-10T12:56:34Z</time>
</trkpt>
<trkpt lat="37.09858703613281" lon="-118.45712280273438">
<ele>2915</ele>
<time>2016-10-10T12:56:40Z</time>
</trkpt>
<trkpt lat="37.09854507446289" lon="-118.45709991455078">
<ele>2911</ele>
<time>2016-10-10T12:56:47Z</time>
</trkpt>
<trkpt lat="37.0984992980957" lon="-118.4571304321289">
<ele>2911</ele>
<time>2016-10-10T12:56:54Z</time>
</trkpt>
<trkpt lat="37.098453521728516" lon="-118.45713806152344">
<ele>2912</ele>
<time>2016-10-10T12:57:00Z</time>
</trkpt>
<trkpt lat="37.09840774536133" lon="-118.45713806152344">
<ele>2910</ele>
<time>2016-10-10T12:57:06Z</time>
</trkpt>
<trkpt lat="37.09832763671875" lon="-118.4571533203125">
<ele>2908</ele>
<time>2016-10-10T12:57:14Z</time>
</trkpt>
<trkpt lat="37.0982780456543" lon="-118.45716094970703">
<ele>2913</ele>
<time>2016-10-10T12:57:22Z</time>
</trkpt>
<trkpt lat="37.09823989868164" lon="-118.45719146728516">
<ele>2915</ele>
<time>2016-10-10T12:57:29Z</time>
</trkpt>
<trkpt lat="37.098209381103516" lon="-118.45724487304688">
<ele>2913</ele>
<time>2016-10-10T12:57:35Z</time>
</trkpt>
<trkpt lat="37.09817886352539" lon="-118.45729064941406">
<ele>2914</ele>
<time>2016-10-10T12:57:43Z</time>
</trkpt>
<trkpt lat="37.0981330871582" lon="-118.45738983154297">
<ele>2912</ele>
<time>2016-10-10T12:58:06Z</time>
</trkpt>
<trkpt lat="37.09809112548828" lon="-118.45744323730469">
<ele>2910</ele>
<time>2016-10-10T12:58:36Z</time>
</trkpt>
<trkpt lat="37.098045349121094" lon="-118.45741271972656">
<ele>2912</ele>
<time>2016-10-10T12:58:46Z</time>
</trkpt>
<trkpt lat="37.09803009033203" lon="-118.45735168457031">
<ele>2915</ele>
<time>2016-10-10T12:58:52Z</time>
</trkpt>
<trkpt lat="37.09798812866211" lon="-118.45732116699219">
<ele>2917</ele>
<time>2016-10-10T12:59:13Z</time>
</trkpt>
<trkpt lat="37.09794998168945" lon="-118.45728302001953">
<ele>2919</ele>
<time>2016-10-10T12:59:25Z</time>
</trkpt>
<trkpt lat="37.09790802001953" lon="-118.45730590820313">
<ele>2921</ele>
<time>2016-10-10T12:59:32Z</time>
</trkpt>
<trkpt lat="37.097869873046875" lon="-118.45734405517578">
<ele>2920</ele>
<time>2016-10-10T12:59:38Z</time>
</trkpt>
<trkpt lat="37.097782135009766" lon="-118.4572982788086">
<ele>2916</ele>
<time>2016-10-10T12:59:53Z</time>
</trkpt>
<trkpt lat="37.09773635864258" lon="-118.45728302001953">
<ele>2914</ele>
<time>2016-10-10T13:00:01Z</time>
</trkpt>
<trkpt lat="37.097679138183594" lon="-118.45728302001953">
<ele>2917</ele>
<time>2016-10-10T13:00:08Z</time>
</trkpt>
<trkpt lat="37.09760665893555" lon="-118.45726776123047">
<ele>2918</ele>
<time>2016-10-10T13:00:19Z</time>
</trkpt>
<trkpt lat="37.09757614135742" lon="-118.45722198486328">
<ele>2921</ele>
<time>2016-10-10T13:00:27Z</time>
</trkpt>
<trkpt lat="37.097476959228516" lon="-118.45722961425781">
<ele>2923</ele>
<time>2016-10-10T13:00:37Z</time>
</trkpt>
<trkpt lat="37.0974006652832" lon="-118.45722961425781">
<ele>2926</ele>
<time>2016-10-10T13:01:00Z</time>
</trkpt>
<trkpt lat="37.09733200073242" lon="-118.45721435546875">
<ele>2921</ele>
<time>2016-10-10T13:01:24Z</time>
</trkpt>
<trkpt lat="37.097251892089844" lon="-118.45728302001953">
<ele>2920</ele>
<time>2016-10-10T13:01:34Z</time>
</trkpt>
<trkpt lat="37.09721374511719" lon="-118.45738983154297">
<ele>2921</ele>
<time>2016-10-10T13:01:46Z</time>
</trkpt>
<trkpt lat="37.097232818603516" lon="-118.45751190185547">
<ele>2921</ele>
<time>2016-10-10T13:01:56Z</time>
</trkpt>
<trkpt lat="37.097164154052734" lon="-118.45759582519531">
<ele>2920</ele>
<time>2016-10-10T13:02:07Z</time>
</trkpt>
<trkpt lat="37.09722137451172" lon="-118.45767211914063">
<ele>2920</ele>
<time>2016-10-10T13:02:22Z</time>
</trkpt>
<trkpt lat="37.097320556640625" lon="-118.4577407836914">
<ele>2921</ele>
<time>2016-10-10T13:02:32Z</time>
</trkpt>
<trkpt lat="37.097328186035156" lon="-118.45779418945313">
<ele>2921</ele>
<time>2016-10-10T13:02:39Z</time>
</trkpt>
<trkpt lat="37.097312927246094" lon="-118.45785522460938">
<ele>2922</ele>
<time>2016-10-10T13:02:45Z</time>
</trkpt>
<trkpt lat="37.097267150878906" lon="-118.45787811279297">
<ele>2923</ele>
<time>2016-10-10T13:02:51Z</time>
</trkpt>
<trkpt lat="37.097171783447266" lon="-118.45793151855469">
<ele>2927</ele>
<time>2016-10-10T13:03:01Z</time>
</trkpt>
<trkpt lat="37.097198486328125" lon="-118.45797729492188">
<ele>2925</ele>
<time>2016-10-10T13:03:13Z</time>
</trkpt>
<trkpt lat="37.0971794128418" lon="-118.45804595947266">
<ele>2919</ele>
<time>2016-10-10T13:03:20Z</time>
</trkpt>
<trkpt lat="37.09711837768555" lon="-118.4581527709961">
<ele>2921</ele>
<time>2016-10-10T13:03:31Z</time>
</trkpt>
<trkpt lat="37.097068786621094" lon="-118.45814514160156">
<ele>2918</ele>
<time>2016-10-10T13:03:38Z</time>
</trkpt>
<trkpt lat="37.097023010253906" lon="-118.45816040039063">
<ele>2919</ele>
<time>2016-10-10T13:03:45Z</time>
</trkpt>
<trkpt lat="37.09693145751953" lon="-118.4582290649414">
<ele>2915</ele>
<time>2016-10-10T13:03:55Z</time>
</trkpt>
<trkpt lat="37.096832275390625" lon="-118.45824432373047">
<ele>2917</ele>
<time>2016-10-10T13:04:06Z</time>
</trkpt>
<trkpt lat="37.09675979614258" lon="-118.45822143554688">
<ele>2917</ele>
<time>2016-10-10T13:04:18Z</time>
</trkpt>
<trkpt lat="37.09667205810547" lon="-118.45829010009766">
<ele>2917</ele>
<time>2016-10-10T13:04:29Z</time>
</trkpt>
<trkpt lat="37.09662628173828" lon="-118.45829772949219">
<ele>2919</ele>
<time>2016-10-10T13:04:42Z</time>
</trkpt>
<trkpt lat="37.096595764160156" lon="-118.45825958251953">
<ele>2918</ele>
<time>2016-10-10T13:04:56Z</time>
</trkpt>
<trkpt lat="37.09659194946289" lon="-118.45819854736328">
<ele>2924</ele>
<time>2016-10-10T13:05:12Z</time>
</trkpt>
<trkpt lat="37.096588134765625" lon="-118.45830535888672">
<ele>2922</ele>
<time>2016-10-10T13:05:32Z</time>
</trkpt>
<trkpt lat="37.09654235839844" lon="-118.45832061767578">
<ele>2925</ele>
<time>2016-10-10T13:05:40Z</time>
</trkpt>
<trkpt lat="37.09654235839844" lon="-118.45838165283203">
<ele>2928</ele>
<time>2016-10-10T13:05:50Z</time>
</trkpt>
<trkpt lat="37.09650421142578" lon="-118.45841217041016">
<ele>2925</ele>
<time>2016-10-10T13:05:56Z</time>
</trkpt>
<trkpt lat="37.096466064453125" lon="-118.45845794677734">
<ele>2927</ele>
<time>2016-10-10T13:06:04Z</time>
</trkpt>
<trkpt lat="37.0964241027832" lon="-118.45848846435547">
<ele>2927</ele>
<time>2016-10-10T13:06:11Z</time>
</trkpt>
<trkpt lat="37.09636306762695" lon="-118.45848083496094">
<ele>2927</ele>
<time>2016-10-10T13:06:22Z</time>
</trkpt>
<trkpt lat="37.096343994140625" lon="-118.45854187011719">
<ele>2925</ele>
<time>2016-10-10T13:06:35Z</time>
</trkpt>
<trkpt lat="37.0963249206543" lon="-118.45860290527344">
<ele>2927</ele>
<time>2016-10-10T13:06:43Z</time>
</trkpt>
<trkpt lat="37.0963020324707" lon="-118.45864868164063">
<ele>2928</ele>
<time>2016-10-10T13:06:56Z</time>
</trkpt>
<trkpt lat="37.096336364746094" lon="-118.45868682861328">
<ele>2929</ele>
<time>2016-10-10T13:07:02Z</time>
</trkpt>
<trkpt lat="37.096336364746094" lon="-118.45880889892578">
<ele>2926</ele>
<time>2016-10-10T13:07:11Z</time>
</trkpt>
<trkpt lat="37.096351623535156" lon="-118.45889282226563">
<ele>2929</ele>
<time>2016-10-10T13:07:22Z</time>
</trkpt>
<trkpt lat="37.096370697021484" lon="-118.45894622802734">
<ele>2928</ele>
<time>2016-10-10T13:07:28Z</time>
</trkpt>
<trkpt lat="37.09642028808594" lon="-118.45906066894531">
<ele>2931</ele>
<time>2016-10-10T13:07:39Z</time>
</trkpt>
<trkpt lat="37.096439361572266" lon="-118.45911407470703">
<ele>2929</ele>
<time>2016-10-10T13:07:45Z</time>
</trkpt>
<trkpt lat="37.0964241027832" lon="-118.45916748046875">
<ele>2927</ele>
<time>2016-10-10T13:08:06Z</time>
</trkpt>
<trkpt lat="37.09435272216797" lon="-118.46150970458984">
<ele>3042</ele>
<time>2016-10-10T13:25:01Z</time>
</trkpt>
</trkseg>
</trk>
<trk>
<name><![CDATA[10100625]]></name>
<number>31</number>
<extensions><topografix:color>ff000066</topografix:color></extensions>
<trkseg>
<trkpt lat="37.0943603515625" lon="-118.4615707397461">
<ele>3050</ele>
<time>2016-10-10T13:25:35Z</time>
</trkpt>
<trkpt lat="37.094417572021484" lon="-118.46157836914063">
<ele>3053</ele>
<time>2016-10-10T13:25:52Z</time>
</trkpt>
<trkpt lat="37.0943717956543" lon="-118.4615478515625">
<ele>3060</ele>
<time>2016-10-10T13:25:58Z</time>
</trkpt>
<trkpt lat="37.09426498413086" lon="-118.46157836914063">
<ele>3050</ele>
<time>2016-10-10T13:26:06Z</time>
</trkpt>
<trkpt lat="37.0942497253418" lon="-118.46163940429688">
<ele>3048</ele>
<time>2016-10-10T13:26:52Z</time>
</trkpt>
<trkpt lat="37.094234466552734" lon="-118.46170043945313">
<ele>3046</ele>
<time>2016-10-10T13:26:58Z</time>
</trkpt>
<trkpt lat="37.09418869018555" lon="-118.46170043945313">
<ele>3046</ele>
<time>2016-10-10T13:27:16Z</time>
</trkpt>
<trkpt lat="37.09415817260742" lon="-118.46175384521484">
<ele>3040</ele>
<time>2016-10-10T13:27:38Z</time>
</trkpt>
<trkpt lat="37.094146728515625" lon="-118.46180725097656">
<ele>3042</ele>
<time>2016-10-10T13:27:46Z</time>
</trkpt>
<trkpt lat="37.0941162109375" lon="-118.46185302734375">
<ele>3043</ele>
<time>2016-10-10T13:27:53Z</time>
</trkpt>
<trkpt lat="37.094017028808594" lon="-118.46187591552734">
<ele>3048</ele>
<time>2016-10-10T13:28:03Z</time>
</trkpt>
<trkpt lat="37.093997955322266" lon="-118.46182250976563">
<ele>3049</ele>
<time>2016-10-10T13:28:15Z</time>
</trkpt>
<trkpt lat="37.09395980834961" lon="-118.46178436279297">
<ele>3050</ele>
<time>2016-10-10T13:28:21Z</time>
</trkpt>
<trkpt lat="37.09397888183594" lon="-118.46173095703125">
<ele>3052</ele>
<time>2016-10-10T13:28:27Z</time>
</trkpt>
<trkpt lat="37.09403610229492" lon="-118.46163940429688">
<ele>3053</ele>
<time>2016-10-10T13:28:37Z</time>
</trkpt>
<trkpt lat="37.094017028808594" lon="-118.46157836914063">
<ele>3055</ele>
<time>2016-10-10T13:28:44Z</time>
</trkpt>
<trkpt lat="37.09404373168945" lon="-118.46153259277344">
<ele>3062</ele>
<time>2016-10-10T13:29:06Z</time>
</trkpt>
<trkpt lat="37.09405517578125" lon="-118.46147918701172">
<ele>3059</ele>
<time>2016-10-10T13:29:12Z</time>
</trkpt>
<trkpt lat="37.09403991699219" lon="-118.46136474609375">
<ele>3063</ele>
<time>2016-10-10T13:29:22Z</time>
</trkpt>
<trkpt lat="37.09400939941406" lon="-118.46125030517578">
<ele>3064</ele>
<time>2016-10-10T13:29:33Z</time>
</trkpt>
<trkpt lat="37.093963623046875" lon="-118.46122741699219">
<ele>3061</ele>
<time>2016-10-10T13:29:40Z</time>
</trkpt>
<trkpt lat="37.0938606262207" lon="-118.46118927001953">
<ele>3053</ele>
<time>2016-10-10T13:29:53Z</time>
</trkpt>
<trkpt lat="37.09381103515625" lon="-118.46109008789063">
<ele>3055</ele>
<time>2016-10-10T13:30:01Z</time>
</trkpt>
<trkpt lat="37.09379196166992" lon="-118.46102905273438">
<ele>3056</ele>
<time>2016-10-10T13:30:07Z</time>
</trkpt>
<trkpt lat="37.09374237060547" lon="-118.4610366821289">
<ele>3057</ele>
<time>2016-10-10T13:30:14Z</time>
</trkpt>
<trkpt lat="37.09365463256836" lon="-118.46099853515625">
<ele>3055</ele>
<time>2016-10-10T13:30:24Z</time>
</trkpt>
<trkpt lat="37.09360885620117" lon="-118.46097564697266">
<ele>3058</ele>
<time>2016-10-10T13:30:30Z</time>
</trkpt>
<trkpt lat="37.09353256225586" lon="-118.46089172363281">
<ele>3057</ele>
<time>2016-10-10T13:30:42Z</time>
</trkpt>
<trkpt lat="37.09349060058594" lon="-118.46086120605469">
<ele>3061</ele>
<time>2016-10-10T13:30:48Z</time>
</trkpt>
<trkpt lat="37.09343719482422" lon="-118.46088409423828">
<ele>3061</ele>
<time>2016-10-10T13:30:55Z</time>
</trkpt>
<trkpt lat="37.09339904785156" lon="-118.46085357666016">
<ele>3059</ele>
<time>2016-10-10T13:31:01Z</time>
</trkpt>
<trkpt lat="37.0933952331543" lon="-118.4607925415039">
<ele>3065</ele>
<time>2016-10-10T13:31:09Z</time>
</trkpt>
<trkpt lat="37.0933837890625" lon="-118.46067810058594">
<ele>3067</ele>
<time>2016-10-10T13:31:19Z</time>
</trkpt>
<trkpt lat="37.09334945678711" lon="-118.46063232421875">
<ele>3062</ele>
<time>2016-10-10T13:31:25Z</time>
</trkpt>
<trkpt lat="37.09333801269531" lon="-118.4605484008789">
<ele>3062</ele>
<time>2016-10-10T13:31:35Z</time>
</trkpt>
<trkpt lat="37.093360900878906" lon="-118.46049499511719">
<ele>3061</ele>
<time>2016-10-10T13:31:43Z</time>
</trkpt>
<trkpt lat="37.0933952331543" lon="-118.46046447753906">
<ele>3062</ele>
<time>2016-10-10T13:31:53Z</time>
</trkpt>
<trkpt lat="37.09345245361328" lon="-118.4604721069336">
<ele>3061</ele>
<time>2016-10-10T13:31:59Z</time>
</trkpt>
<trkpt lat="37.093502044677734" lon="-118.4604721069336">
<ele>3059</ele>
<time>2016-10-10T13:32:05Z</time>
</trkpt>
<trkpt lat="37.09351348876953" lon="-118.46041870117188">
<ele>3057</ele>
<time>2016-10-10T13:32:11Z</time>
</trkpt>
<trkpt lat="37.093528747558594" lon="-118.4603500366211">
<ele>3056</ele>
<time>2016-10-10T13:32:17Z</time>
</trkpt>
<trkpt lat="37.09358215332031" lon="-118.46024322509766">
<ele>3058</ele>
<time>2016-10-10T13:32:26Z</time>
</trkpt>
<trkpt lat="37.09358215332031" lon="-118.46017456054688">
<ele>3056</ele>
<time>2016-10-10T13:32:32Z</time>
</trkpt>
<trkpt lat="37.093570709228516" lon="-118.46011352539063">
<ele>3052</ele>
<time>2016-10-10T13:32:43Z</time>
</trkpt>
<trkpt lat="37.09357452392578" lon="-118.46005249023438">
<ele>3053</ele>
<time>2016-10-10T13:32:49Z</time>
</trkpt>
<trkpt lat="37.093544006347656" lon="-118.4599380493164">
<ele>3054</ele>
<time>2016-10-10T13:32:57Z</time>
</trkpt>
<trkpt lat="37.09352111816406" lon="-118.4598159790039">
<ele>3056</ele>
<time>2016-10-10T13:33:08Z</time>
</trkpt>
<trkpt lat="37.093482971191406" lon="-118.45977783203125">
<ele>3055</ele>
<time>2016-10-10T13:33:14Z</time>
</trkpt>
<trkpt lat="37.09343338012695" lon="-118.45976257324219">
<ele>3057</ele>
<time>2016-10-10T13:33:24Z</time>
</trkpt>
<trkpt lat="37.093379974365234" lon="-118.45976257324219">
<ele>3058</ele>
<time>2016-10-10T13:33:32Z</time>
</trkpt>
<trkpt lat="37.093299865722656" lon="-118.45975494384766">
<ele>3060</ele>
<time>2016-10-10T13:33:40Z</time>
</trkpt>
<trkpt lat="37.0932502746582" lon="-118.45976257324219">
<ele>3059</ele>
<time>2016-10-10T13:33:48Z</time>
</trkpt>
<trkpt lat="37.0932502746582" lon="-118.45970153808594">
<ele>3060</ele>
<time>2016-10-10T13:33:59Z</time>
</trkpt>
<trkpt lat="37.09327697753906" lon="-118.45964813232422">
<ele>3056</ele>
<time>2016-10-10T13:34:06Z</time>
</trkpt>
<trkpt lat="37.093299865722656" lon="-118.4595947265625">
<ele>3054</ele>
<time>2016-10-10T13:34:13Z</time>
</trkpt>
<trkpt lat="37.09334182739258" lon="-118.4595718383789">
<ele>3058</ele>
<time>2016-10-10T13:34:25Z</time>
</trkpt>
<trkpt lat="37.09337615966797" lon="-118.45953369140625">
<ele>3056</ele>
<time>2016-10-10T13:34:33Z</time>
</trkpt>
<trkpt lat="37.093406677246094" lon="-118.45947265625">
<ele>3061</ele>
<time>2016-10-10T13:34:50Z</time>
</trkpt>
<trkpt lat="37.09342575073242" lon="-118.45941925048828">
<ele>3062</ele>
<time>2016-10-10T13:34:58Z</time>
</trkpt>
<trkpt lat="37.09342575073242" lon="-118.45929718017578">
<ele>3060</ele>
<time>2016-10-10T13:35:06Z</time>
</trkpt>
<trkpt lat="37.09344482421875" lon="-118.45924377441406">
<ele>3061</ele>
<time>2016-10-10T13:35:13Z</time>
</trkpt>
<trkpt lat="37.09343719482422" lon="-118.45918273925781">
<ele>3071</ele>
<time>2016-10-10T13:35:30Z</time>
</trkpt>
<trkpt lat="37.093387603759766" lon="-118.45915222167969">
<ele>3066</ele>
<time>2016-10-10T13:35:40Z</time>
</trkpt>
<trkpt lat="37.09333038330078" lon="-118.45905303955078">
<ele>3073</ele>
<time>2016-10-10T13:35:50Z</time>
</trkpt>
<trkpt lat="37.09334945678711" lon="-118.458984375">
<ele>3073</ele>
<time>2016-10-10T13:36:03Z</time>
</trkpt>
<trkpt lat="37.09334182739258" lon="-118.45893096923828">
<ele>3072</ele>
<time>2016-10-10T13:36:17Z</time>
</trkpt>
<trkpt lat="37.093318939208984" lon="-118.45887756347656">
<ele>3074</ele>
<time>2016-10-10T13:36:28Z</time>
</trkpt>
<trkpt lat="37.093318939208984" lon="-118.45879364013672">
<ele>3079</ele>
<time>2016-10-10T13:36:47Z</time>
</trkpt>
<trkpt lat="37.09327697753906" lon="-118.4587631225586">
<ele>3081</ele>
<time>2016-10-10T13:36:55Z</time>
</trkpt>
<trkpt lat="37.093299865722656" lon="-118.45870208740234">
<ele>3083</ele>
<time>2016-10-10T13:37:01Z</time>
</trkpt>
<trkpt lat="37.09326171875" lon="-118.45858764648438">
<ele>3087</ele>
<time>2016-10-10T13:37:11Z</time>
</trkpt>
<trkpt lat="37.09320831298828" lon="-118.4585952758789">
<ele>3089</ele>
<time>2016-10-10T13:37:18Z</time>
</trkpt>
<trkpt lat="37.09316635131836" lon="-118.4586181640625">
<ele>3088</ele>
<time>2016-10-10T13:37:25Z</time>
</trkpt>
<trkpt lat="37.09312057495117" lon="-118.45861053466797">
<ele>3085</ele>
<time>2016-10-10T13:37:32Z</time>
</trkpt>
<trkpt lat="37.093040466308594" lon="-118.4586181640625">
<ele>3087</ele>
<time>2016-10-10T13:37:39Z</time>
</trkpt>
<trkpt lat="37.093013763427734" lon="-118.45856475830078">
<ele>3086</ele>
<time>2016-10-10T13:37:48Z</time>
</trkpt>
<trkpt lat="37.09294891357422" lon="-118.4584732055664">
<ele>3086</ele>
<time>2016-10-10T13:38:00Z</time>
</trkpt>
<trkpt lat="37.092926025390625" lon="-118.45842742919922">
<ele>3082</ele>
<time>2016-10-10T13:38:06Z</time>
</trkpt>
<trkpt lat="37.09288024902344" lon="-118.45840454101563">
<ele>3084</ele>
<time>2016-10-10T13:38:12Z</time>
</trkpt>
<trkpt lat="37.09282302856445" lon="-118.45838928222656">
<ele>3089</ele>
<time>2016-10-10T13:38:19Z</time>
</trkpt>
<trkpt lat="37.0927848815918" lon="-118.45835876464844">
<ele>3095</ele>
<time>2016-10-10T13:38:26Z</time>
</trkpt>
<trkpt lat="37.092769622802734" lon="-118.45826721191406">
<ele>3099</ele>
<time>2016-10-10T13:38:35Z</time>
</trkpt>
<trkpt lat="37.09278106689453" lon="-118.45820617675781">
<ele>3097</ele>
<time>2016-10-10T13:38:41Z</time>
</trkpt>
<trkpt lat="37.09281921386719" lon="-118.45816802978516">
<ele>3098</ele>
<time>2016-10-10T13:38:47Z</time>
</trkpt>
<trkpt lat="37.09278106689453" lon="-118.4581298828125">
<ele>3096</ele>
<time>2016-10-10T13:38:53Z</time>
</trkpt>
<trkpt lat="37.092777252197266" lon="-118.45806884765625">
<ele>3095</ele>
<time>2016-10-10T13:39:00Z</time>
</trkpt>
<trkpt lat="37.09282684326172" lon="-118.45807647705078">
<ele>3096</ele>
<time>2016-10-10T13:39:06Z</time>
</trkpt>
<trkpt lat="37.09285354614258" lon="-118.4580307006836">
<ele>3099</ele>
<time>2016-10-10T13:39:13Z</time>
</trkpt>
<trkpt lat="37.09284973144531" lon="-118.45796966552734">
<ele>3096</ele>
<time>2016-10-10T13:39:19Z</time>
</trkpt>
<trkpt lat="37.09288024902344" lon="-118.45792388916016">
<ele>3098</ele>
<time>2016-10-10T13:39:28Z</time>
</trkpt>
<trkpt lat="37.092918395996094" lon="-118.45785522460938">
<ele>3096</ele>
<time>2016-10-10T13:39:40Z</time>
</trkpt>
<trkpt lat="37.0929069519043" lon="-118.45774841308594">
<ele>3094</ele>
<time>2016-10-10T13:39:48Z</time>
</trkpt>
<trkpt lat="37.09286117553711" lon="-118.45772552490234">
<ele>3093</ele>
<time>2016-10-10T13:39:54Z</time>
</trkpt>
<trkpt lat="37.092811584472656" lon="-118.45769500732422">
<ele>3092</ele>
<time>2016-10-10T13:40:01Z</time>
</trkpt>
<trkpt lat="37.092716217041016" lon="-118.45767211914063">
<ele>3086</ele>
<time>2016-10-10T13:40:13Z</time>
</trkpt>
<trkpt lat="37.09262466430664" lon="-118.4576416015625">
<ele>3084</ele>
<time>2016-10-10T13:40:21Z</time>
</trkpt>
<trkpt lat="37.092525482177734" lon="-118.4576416015625">
<ele>3090</ele>
<time>2016-10-10T13:40:29Z</time>
</trkpt>
<trkpt lat="37.09245300292969" lon="-118.45764923095703">
<ele>3090</ele>
<time>2016-10-10T13:40:35Z</time>
</trkpt>
<trkpt lat="37.09235382080078" lon="-118.45767974853516">
<ele>3089</ele>
<time>2016-10-10T13:40:44Z</time>
</trkpt>
<trkpt lat="37.092254638671875" lon="-118.45768737792969">
<ele>3097</ele>
<time>2016-10-10T13:40:52Z</time>
</trkpt>
<trkpt lat="37.09220504760742" lon="-118.45770263671875">
<ele>3095</ele>
<time>2016-10-10T13:40:58Z</time>
</trkpt>
<trkpt lat="37.09212112426758" lon="-118.4576187133789">
<ele>3094</ele>
<time>2016-10-10T13:41:05Z</time>
</trkpt>
<trkpt lat="37.09202575683594" lon="-118.45756530761719">
<ele>3099</ele>
<time>2016-10-10T13:41:15Z</time>
</trkpt>
<trkpt lat="37.09197235107422" lon="-118.4575424194336">
<ele>3093</ele>
<time>2016-10-10T13:41:22Z</time>
</trkpt>
<trkpt lat="37.09188461303711" lon="-118.45750427246094">
<ele>3090</ele>
<time>2016-10-10T13:41:34Z</time>
</trkpt>
<trkpt lat="37.091827392578125" lon="-118.45745086669922">
<ele>3094</ele>
<time>2016-10-10T13:41:41Z</time>
</trkpt>
<trkpt lat="37.09174346923828" lon="-118.4573974609375">
<ele>3093</ele>
<time>2016-10-10T13:41:51Z</time>
</trkpt>
<trkpt lat="37.09170913696289" lon="-118.45735168457031">
<ele>3090</ele>
<time>2016-10-10T13:41:57Z</time>
</trkpt>
<trkpt lat="37.09164047241211" lon="-118.45732879638672">
<ele>3099</ele>
<time>2016-10-10T13:43:35Z</time>
</trkpt>
<trkpt lat="37.09169006347656" lon="-118.45732116699219">
<ele>3103</ele>
<time>2016-10-10T13:44:34Z</time>
</trkpt>
<trkpt lat="37.09172058105469" lon="-118.457275390625">
<ele>3105</ele>
<time>2016-10-10T13:45:11Z</time>
</trkpt>
<trkpt lat="37.091705322265625" lon="-118.45716857910156">
<ele>3108</ele>
<time>2016-10-10T13:47:26Z</time>
</trkpt>
<trkpt lat="37.09172821044922" lon="-118.45709991455078">
<ele>3111</ele>
<time>2016-10-10T13:48:05Z</time>
</trkpt>
<trkpt lat="37.09172439575195" lon="-118.45703887939453">
<ele>3105</ele>
<time>2016-10-10T13:48:19Z</time>
</trkpt>
<trkpt lat="37.09177780151367" lon="-118.45701599121094">
<ele>3098</ele>
<time>2016-10-10T13:53:13Z</time>
</trkpt>
<trkpt lat="37.09178924560547" lon="-118.45695495605469">
<ele>3097</ele>
<time>2016-10-10T13:53:32Z</time>
</trkpt>
<trkpt lat="37.09171676635742" lon="-118.45696258544922">
<ele>3101</ele>
<time>2016-10-10T13:53:42Z</time>
</trkpt>
<trkpt lat="37.091697692871094" lon="-118.45690155029297">
<ele>3095</ele>
<time>2016-10-10T13:54:07Z</time>
</trkpt>
<trkpt lat="37.09172439575195" lon="-118.456787109375">
<ele>3095</ele>
<time>2016-10-10T13:54:24Z</time>
</trkpt>
<trkpt lat="37.091678619384766" lon="-118.45669555664063">
<ele>3099</ele>
<time>2016-10-10T13:54:49Z</time>
</trkpt>
<trkpt lat="37.09163284301758" lon="-118.4566650390625">
<ele>3099</ele>
<time>2016-10-10T13:54:57Z</time>
</trkpt>
<trkpt lat="37.091583251953125" lon="-118.45655059814453">
<ele>3100</ele>
<time>2016-10-10T13:55:07Z</time>
</trkpt>
<trkpt lat="37.09163284301758" lon="-118.45645141601563">
<ele>3098</ele>
<time>2016-10-10T13:55:16Z</time>
</trkpt>
<trkpt lat="37.09162521362305" lon="-118.45639038085938">
<ele>3101</ele>
<time>2016-10-10T13:55:25Z</time>
</trkpt>
<trkpt lat="37.091609954833984" lon="-118.45633697509766">
<ele>3104</ele>
<time>2016-10-10T13:56:18Z</time>
</trkpt>
<trkpt lat="37.09164047241211" lon="-118.456298828125">
<ele>3105</ele>
<time>2016-10-10T13:56:26Z</time>
</trkpt>
<trkpt lat="37.09160232543945" lon="-118.45622253417969">
<ele>3101</ele>
<time>2016-10-10T13:56:43Z</time>
</trkpt>
<trkpt lat="37.091556549072266" lon="-118.4561996459961">
<ele>3101</ele>
<time>2016-10-10T13:56:53Z</time>
</trkpt>
<trkpt lat="37.09150695800781" lon="-118.45619201660156">
<ele>3107</ele>
<time>2016-10-10T13:57:10Z</time>
</trkpt>
<trkpt lat="37.09144973754883" lon="-118.45616912841797">
<ele>3111</ele>
<time>2016-10-10T13:57:17Z</time>
</trkpt>
<trkpt lat="37.091400146484375" lon="-118.45619201660156">
<ele>3111</ele>
<time>2016-10-10T13:57:32Z</time>
</trkpt>
<trkpt lat="37.09138488769531" lon="-118.45613861083984">
<ele>3116</ele>
<time>2016-10-10T13:57:45Z</time>
</trkpt>
<trkpt lat="37.09135437011719" lon="-118.45609283447266">
<ele>3114</ele>
<time>2016-10-10T13:57:54Z</time>
</trkpt>
<trkpt lat="37.09132385253906" lon="-118.45604705810547">
<ele>3110</ele>
<time>2016-10-10T13:58:04Z</time>
</trkpt>
<trkpt lat="37.0912971496582" lon="-118.45600128173828">
<ele>3102</ele>
<time>2016-10-10T13:58:29Z</time>
</trkpt>
<trkpt lat="37.0912971496582" lon="-118.4560546875">
<ele>3094</ele>
<time>2016-10-10T13:58:35Z</time>
</trkpt>
<trkpt lat="37.091270446777344" lon="-118.45600128173828">
<ele>3095</ele>
<time>2016-10-10T13:58:56Z</time>
</trkpt>
<trkpt lat="37.09126281738281" lon="-118.45594024658203">
<ele>3102</ele>
<time>2016-10-10T13:59:12Z</time>
</trkpt>
<trkpt lat="37.09120178222656" lon="-118.45592498779297">
<ele>3103</ele>
<time>2016-10-10T13:59:45Z</time>
</trkpt>
<trkpt lat="37.091163635253906" lon="-118.45588684082031">
<ele>3106</ele>
<time>2016-10-10T13:59:58Z</time>
</trkpt>
<trkpt lat="37.09112548828125" lon="-118.45585632324219">
<ele>3108</ele>
<time>2016-10-10T14:00:12Z</time>
</trkpt>
<trkpt lat="37.091068267822266" lon="-118.45577239990234">
<ele>3110</ele>
<time>2016-10-10T14:00:25Z</time>
</trkpt>
<trkpt lat="37.091041564941406" lon="-118.45572662353516">
<ele>3110</ele>
<time>2016-10-10T14:00:35Z</time>
</trkpt>
<trkpt lat="37.09099578857422" lon="-118.45573425292969">
<ele>3112</ele>
<time>2016-10-10T14:00:49Z</time>
</trkpt>
<trkpt lat="37.090946197509766" lon="-118.45571899414063">
<ele>3113</ele>
<time>2016-10-10T14:01:00Z</time>
</trkpt>
<trkpt lat="37.090904235839844" lon="-118.45569610595703">
<ele>3114</ele>
<time>2016-10-10T14:01:24Z</time>
</trkpt>
<trkpt lat="37.09086608886719" lon="-118.45565795898438">
<ele>3115</ele>
<time>2016-10-10T14:01:32Z</time>
</trkpt>
<trkpt lat="37.09084701538086" lon="-118.45560455322266">
<ele>3119</ele>
<time>2016-10-10T14:01:57Z</time>
</trkpt>
<trkpt lat="37.0908317565918" lon="-118.45555114746094">
<ele>3123</ele>
<time>2016-10-10T14:02:23Z</time>
</trkpt>
<trkpt lat="37.09083938598633" lon="-118.45549011230469">
<ele>3128</ele>
<time>2016-10-10T14:02:55Z</time>
</trkpt>
<trkpt lat="37.090789794921875" lon="-118.45549774169922">
<ele>3132</ele>
<time>2016-10-10T14:03:08Z</time>
</trkpt>
<trkpt lat="37.09074401855469" lon="-118.45550537109375">
<ele>3136</ele>
<time>2016-10-10T14:03:30Z</time>
</trkpt>
<trkpt lat="37.09066390991211" lon="-118.45549011230469">
<ele>3136</ele>
<time>2016-10-10T14:03:55Z</time>
</trkpt>
<trkpt lat="37.09062194824219" lon="-118.4554672241211">
<ele>3136</ele>
<time>2016-10-10T14:04:05Z</time>
</trkpt>
<trkpt lat="37.090572357177734" lon="-118.45545196533203">
<ele>3139</ele>
<time>2016-10-10T14:04:23Z</time>
</trkpt>
<trkpt lat="37.09049987792969" lon="-118.45542907714844">
<ele>3138</ele>
<time>2016-10-10T14:04:51Z</time>
</trkpt>
<trkpt lat="37.09046173095703" lon="-118.45539855957031">
<ele>3139</ele>
<time>2016-10-10T14:05:06Z</time>
</trkpt>
<trkpt lat="37.09047317504883" lon="-118.4553451538086">
<ele>3139</ele>
<time>2016-10-10T14:05:23Z</time>
</trkpt>
<trkpt lat="37.09041213989258" lon="-118.4552993774414">
<ele>3138</ele>
<time>2016-10-10T14:05:46Z</time>
</trkpt>
<trkpt lat="37.090370178222656" lon="-118.45527648925781">
<ele>3147</ele>
<time>2016-10-10T14:06:05Z</time>
</trkpt>
<trkpt lat="37.09032440185547" lon="-118.45525360107422">
<ele>3152</ele>
<time>2016-10-10T14:06:22Z</time>
</trkpt>
<trkpt lat="37.09027862548828" lon="-118.45524597167969">
<ele>3154</ele>
<time>2016-10-10T14:06:30Z</time>
</trkpt>
<trkpt lat="37.09022521972656" lon="-118.45521545410156">
<ele>3151</ele>
<time>2016-10-10T14:07:20Z</time>
</trkpt>
<trkpt lat="37.0901985168457" lon="-118.45516967773438">
<ele>3158</ele>
<time>2016-10-10T14:07:30Z</time>
</trkpt>
<trkpt lat="37.090126037597656" lon="-118.45518493652344">
<ele>3162</ele>
<time>2016-10-10T14:07:46Z</time>
</trkpt>
<trkpt lat="37.0900993347168" lon="-118.45513916015625">
<ele>3163</ele>
<time>2016-10-10T14:08:25Z</time>
</trkpt>
<trkpt lat="37.09003448486328" lon="-118.45509338378906">
<ele>3161</ele>
<time>2016-10-10T14:09:13Z</time>
</trkpt>
<trkpt lat="37.089988708496094" lon="-118.4551010131836">
<ele>3169</ele>
<time>2016-10-10T14:09:25Z</time>
</trkpt>
<trkpt lat="37.08995056152344" lon="-118.45513153076172">
<ele>3167</ele>
<time>2016-10-10T14:09:33Z</time>
</trkpt>
<trkpt lat="37.08989715576172" lon="-118.45515441894531">
<ele>3168</ele>
<time>2016-10-10T14:09:47Z</time>
</trkpt>
<trkpt lat="37.08985137939453" lon="-118.4551773071289">
<ele>3167</ele>
<time>2016-10-10T14:09:54Z</time>
</trkpt>
<trkpt lat="37.08982849121094" lon="-118.45513153076172">
<ele>3171</ele>
<time>2016-10-10T14:10:24Z</time>
</trkpt>
<trkpt lat="37.08977127075195" lon="-118.45516204833984">
<ele>3171</ele>
<time>2016-10-10T14:10:54Z</time>
</trkpt>
<trkpt lat="37.0897216796875" lon="-118.45515441894531">
<ele>3173</ele>
<time>2016-10-10T14:11:08Z</time>
</trkpt>
<trkpt lat="37.08967971801758" lon="-118.45516967773438">
<ele>3175</ele>
<time>2016-10-10T14:11:24Z</time>
</trkpt>
<trkpt lat="37.08965301513672" lon="-118.4552230834961">
<ele>3184</ele>
<time>2016-10-10T14:11:52Z</time>
</trkpt>
<trkpt lat="37.089603424072266" lon="-118.45523071289063">
<ele>3183</ele>
<time>2016-10-10T14:11:59Z</time>
</trkpt>
<trkpt lat="37.08955764770508" lon="-118.45524597167969">
<ele>3191</ele>
<time>2016-10-10T14:12:12Z</time>
</trkpt>
<trkpt lat="37.089508056640625" lon="-118.45524597167969">
<ele>3194</ele>
<time>2016-10-10T14:12:27Z</time>
</trkpt>
<trkpt lat="37.089447021484375" lon="-118.45521545410156">
<ele>3195</ele>
<time>2016-10-10T14:12:44Z</time>
</trkpt>
<trkpt lat="37.08940124511719" lon="-118.45519256591797">
<ele>3195</ele>
<time>2016-10-10T14:13:00Z</time>
</trkpt>
<trkpt lat="37.08935546875" lon="-118.4551773071289">
<ele>3200</ele>
<time>2016-10-10T14:13:19Z</time>
</trkpt>
<trkpt lat="37.08930587768555" lon="-118.45516967773438">
<ele>3205</ele>
<time>2016-10-10T14:13:43Z</time>
</trkpt>
<trkpt lat="37.08926773071289" lon="-118.45513153076172">
<ele>3203</ele>
<time>2016-10-10T14:13:51Z</time>
</trkpt>
<trkpt lat="37.0892219543457" lon="-118.45512390136719">
<ele>3202</ele>
<time>2016-10-10T14:14:03Z</time>
</trkpt>
<trkpt lat="37.089176177978516" lon="-118.45512390136719">
<ele>3200</ele>
<time>2016-10-10T14:14:15Z</time>
</trkpt>
<trkpt lat="37.08909606933594" lon="-118.45512390136719">
<ele>3202</ele>
<time>2016-10-10T14:14:59Z</time>
</trkpt>
<trkpt lat="37.089046478271484" lon="-118.45510864257813">
<ele>3210</ele>
<time>2016-10-10T14:15:14Z</time>
</trkpt>
<trkpt lat="37.088958740234375" lon="-118.45507049560547">
<ele>3217</ele>
<time>2016-10-10T14:15:45Z</time>
</trkpt>
<trkpt lat="37.08890914916992" lon="-118.455078125">
<ele>3219</ele>
<time>2016-10-10T14:15:54Z</time>
</trkpt>
<trkpt lat="37.088863372802734" lon="-118.45506286621094">
<ele>3222</ele>
<time>2016-10-10T14:16:06Z</time>
</trkpt>
<trkpt lat="37.08881759643555" lon="-118.45503997802734">
<ele>3220</ele>
<time>2016-10-10T14:16:18Z</time>
</trkpt>
<trkpt lat="37.08876419067383" lon="-118.45503234863281">
<ele>3220</ele>
<time>2016-10-10T14:16:33Z</time>
</trkpt>
<trkpt lat="37.08871841430664" lon="-118.45499420166016">
<ele>3220</ele>
<time>2016-10-10T14:16:45Z</time>
</trkpt>
<trkpt lat="37.08866882324219" lon="-118.45497131347656">
<ele>3218</ele>
<time>2016-10-10T14:16:57Z</time>
</trkpt>
<trkpt lat="37.088645935058594" lon="-118.45491790771484">
<ele>3221</ele>
<time>2016-10-10T14:17:17Z</time>
</trkpt>
<trkpt lat="37.08860778808594" lon="-118.45488739013672">
<ele>3219</ele>
<time>2016-10-10T14:17:26Z</time>
</trkpt>
<trkpt lat="37.08856964111328" lon="-118.45484924316406">
<ele>3220</ele>
<time>2016-10-10T14:17:33Z</time>
</trkpt>
<trkpt lat="37.088558197021484" lon="-118.45477294921875">
<ele>3223</ele>
<time>2016-10-10T14:17:53Z</time>
</trkpt>
<trkpt lat="37.088531494140625" lon="-118.45472717285156">
<ele>3223</ele>
<time>2016-10-10T14:18:01Z</time>
</trkpt>
<trkpt lat="37.08848571777344" lon="-118.45472717285156">
<ele>3222</ele>
<time>2016-10-10T14:18:16Z</time>
</trkpt>
<trkpt lat="37.088436126708984" lon="-118.45470428466797">
<ele>3223</ele>
<time>2016-10-10T14:18:23Z</time>
</trkpt>
<trkpt lat="37.08835983276367" lon="-118.45464324951172">
<ele>3228</ele>
<time>2016-10-10T14:18:58Z</time>
</trkpt>
<trkpt lat="37.08831787109375" lon="-118.45462036132813">
<ele>3226</ele>
<time>2016-10-10T14:19:13Z</time>
</trkpt>
<trkpt lat="37.088279724121094" lon="-118.45458984375">
<ele>3222</ele>
<time>2016-10-10T14:19:22Z</time>
</trkpt>
<trkpt lat="37.088233947753906" lon="-118.45459747314453">
<ele>3222</ele>
<time>2016-10-10T14:19:32Z</time>
</trkpt>
<trkpt lat="37.088165283203125" lon="-118.4546127319336">
<ele>3235</ele>
<time>2016-10-10T14:19:57Z</time>
</trkpt>
<trkpt lat="37.0881233215332" lon="-118.45458984375">
<ele>3240</ele>
<time>2016-10-10T14:20:15Z</time>
</trkpt>
<trkpt lat="37.088043212890625" lon="-118.45453643798828">
<ele>3241</ele>
<time>2016-10-10T14:20:55Z</time>
</trkpt>
<trkpt lat="37.08802032470703" lon="-118.45448303222656">
<ele>3241</ele>
<time>2016-10-10T14:21:09Z</time>
</trkpt>
<trkpt lat="37.08797836303711" lon="-118.45445251464844">
<ele>3243</ele>
<time>2016-10-10T14:21:27Z</time>
</trkpt>
<trkpt lat="37.08793640136719" lon="-118.45447540283203">
<ele>3241</ele>
<time>2016-10-10T14:21:34Z</time>
</trkpt>
<trkpt lat="37.087886810302734" lon="-118.4544677734375">
<ele>3245</ele>
<time>2016-10-10T14:21:51Z</time>
</trkpt>
<trkpt lat="37.08784484863281" lon="-118.45451354980469">
<ele>3250</ele>
<time>2016-10-10T14:22:00Z</time>
</trkpt>
<trkpt lat="37.087791442871094" lon="-118.45450592041016">
<ele>3251</ele>
<time>2016-10-10T14:22:07Z</time>
</trkpt>
<trkpt lat="37.087745666503906" lon="-118.45449829101563">
<ele>3255</ele>
<time>2016-10-10T14:22:15Z</time>
</trkpt>
<trkpt lat="37.08769989013672" lon="-118.45448303222656">
<ele>3260</ele>
<time>2016-10-10T14:22:28Z</time>
</trkpt>
<trkpt lat="37.087615966796875" lon="-118.45447540283203">
<ele>3264</ele>
<time>2016-10-10T14:22:45Z</time>
</trkpt>
<trkpt lat="37.08757781982422" lon="-118.45442962646484">
<ele>3263</ele>
<time>2016-10-10T14:22:52Z</time>
</trkpt>
<trkpt lat="37.08753204345703" lon="-118.45439910888672">
<ele>3263</ele>
<time>2016-10-10T14:22:58Z</time>
</trkpt>
<trkpt lat="37.087486267089844" lon="-118.45438385009766">
<ele>3261</ele>
<time>2016-10-10T14:23:04Z</time>
</trkpt>
<trkpt lat="37.08739471435547" lon="-118.454345703125">
<ele>3263</ele>
<time>2016-10-10T14:23:14Z</time>
</trkpt>
<trkpt lat="37.08730697631836" lon="-118.45427703857422">
<ele>3266</ele>
<time>2016-10-10T14:23:22Z</time>
</trkpt>
<trkpt lat="37.08726119995117" lon="-118.45426940917969">
<ele>3259</ele>
<time>2016-10-10T14:23:33Z</time>
</trkpt>
<trkpt lat="37.08719253540039" lon="-118.45423889160156">
<ele>3262</ele>
<time>2016-10-10T14:23:42Z</time>
</trkpt>
<trkpt lat="37.08713912963867" lon="-118.4542465209961">
<ele>3258</ele>
<time>2016-10-10T14:23:49Z</time>
</trkpt>
<trkpt lat="37.087093353271484" lon="-118.45427703857422">
<ele>3259</ele>
<time>2016-10-10T14:23:55Z</time>
</trkpt>
<trkpt lat="37.086997985839844" lon="-118.4543228149414">
<ele>3258</ele>
<time>2016-10-10T14:24:05Z</time>
</trkpt>
<trkpt lat="37.0869026184082" lon="-118.4543228149414">
<ele>3257</ele>
<time>2016-10-10T14:24:15Z</time>
</trkpt>
<trkpt lat="37.08681106567383" lon="-118.45426940917969">
<ele>3258</ele>
<time>2016-10-10T14:24:23Z</time>
</trkpt>
<trkpt lat="37.08671569824219" lon="-118.45428466796875">
<ele>3258</ele>
<time>2016-10-10T14:24:31Z</time>
</trkpt>
<trkpt lat="37.08663558959961" lon="-118.45425415039063">
<ele>3265</ele>
<time>2016-10-10T14:24:41Z</time>
</trkpt>
<trkpt lat="37.0865592956543" lon="-118.45417022705078">
<ele>3263</ele>
<time>2016-10-10T14:24:52Z</time>
</trkpt>
<trkpt lat="37.086570739746094" lon="-118.45423126220703">
<ele>3260</ele>
<time>2016-10-10T14:25:16Z</time>
</trkpt>
<trkpt lat="37.086570739746094" lon="-118.45429229736328">
<ele>3261</ele>
<time>2016-10-10T14:25:22Z</time>
</trkpt>
<trkpt lat="37.08659744262695" lon="-118.4543685913086">
<ele>3264</ele>
<time>2016-10-10T14:25:40Z</time>
</trkpt>
<trkpt lat="37.08662033081055" lon="-118.45441436767578">
<ele>3264</ele>
<time>2016-10-10T14:26:03Z</time>
</trkpt>
<trkpt lat="37.08661651611328" lon="-118.45447540283203">
<ele>3268</ele>
<time>2016-10-10T14:26:09Z</time>
</trkpt>
<trkpt lat="37.086605072021484" lon="-118.45441436767578">
<ele>3271</ele>
<time>2016-10-10T14:26:26Z</time>
</trkpt>
<trkpt lat="37.086647033691406" lon="-118.45447540283203">
<ele>3276</ele>
<time>2016-10-10T14:27:35Z</time>
</trkpt>
<trkpt lat="37.086612701416016" lon="-118.45442962646484">
<ele>3274</ele>
<time>2016-10-10T14:28:06Z</time>
</trkpt>
<trkpt lat="37.08660888671875" lon="-118.45435333251953">
<ele>3279</ele>
<time>2016-10-10T14:28:52Z</time>
</trkpt>
<trkpt lat="37.08661651611328" lon="-118.45442199707031">
<ele>3264</ele>
<time>2016-10-10T14:33:32Z</time>
</trkpt>
<trkpt lat="37.08671188354492" lon="-118.45429229736328">
<ele>3288</ele>
<time>2016-10-10T14:45:05Z</time>
</trkpt>
<trkpt lat="37.08662033081055" lon="-118.45440673828125">
<ele>3274</ele>
<time>2016-10-10T14:45:25Z</time>
</trkpt>
<trkpt lat="37.08660125732422" lon="-118.45435333251953">
<ele>3274</ele>
<time>2016-10-10T14:45:34Z</time>
</trkpt>
<trkpt lat="37.08658218383789" lon="-118.45426940917969">
<ele>3269</ele>
<time>2016-10-10T14:45:42Z</time>
</trkpt>
<trkpt lat="37.08649826049805" lon="-118.4542007446289">
<ele>3271</ele>
<time>2016-10-10T14:45:51Z</time>
</trkpt>
<trkpt lat="37.086456298828125" lon="-118.45417785644531">
<ele>3271</ele>
<time>2016-10-10T14:46:05Z</time>
</trkpt>
<trkpt lat="37.08640670776367" lon="-118.45416259765625">
<ele>3273</ele>
<time>2016-10-10T14:46:11Z</time>
</trkpt>
<trkpt lat="37.086368560791016" lon="-118.4541244506836">
<ele>3273</ele>
<time>2016-10-10T14:46:17Z</time>
</trkpt>
<trkpt lat="37.08633041381836" lon="-118.45409393310547">
<ele>3276</ele>
<time>2016-10-10T14:46:23Z</time>
</trkpt>
<trkpt lat="37.086246490478516" lon="-118.45407104492188">
<ele>3278</ele>
<time>2016-10-10T14:46:43Z</time>
</trkpt>
<trkpt lat="37.08620071411133" lon="-118.45404815673828">
<ele>3277</ele>
<time>2016-10-10T14:46:50Z</time>
</trkpt>
<trkpt lat="37.08610153198242" lon="-118.45403289794922">
<ele>3279</ele>
<time>2016-10-10T14:47:02Z</time>
</trkpt>
<trkpt lat="37.08605194091797" lon="-118.45403289794922">
<ele>3279</ele>
<time>2016-10-10T14:47:14Z</time>
</trkpt>
<trkpt lat="37.08600616455078" lon="-118.45404052734375">
<ele>3281</ele>
<time>2016-10-10T14:47:22Z</time>
</trkpt>
<trkpt lat="37.085960388183594" lon="-118.45404815673828">
<ele>3282</ele>
<time>2016-10-10T14:47:32Z</time>
</trkpt>
<trkpt lat="37.085880279541016" lon="-118.4540023803711">
<ele>3283</ele>
<time>2016-10-10T14:47:43Z</time>
</trkpt>
<trkpt lat="37.08583068847656" lon="-118.45401763916016">
<ele>3284</ele>
<time>2016-10-10T14:47:49Z</time>
</trkpt>
<trkpt lat="37.0858154296875" lon="-118.45407104492188">
<ele>3292</ele>
<time>2016-10-10T14:48:00Z</time>
</trkpt>
<trkpt lat="37.08576583862305" lon="-118.45409393310547">
<ele>3284</ele>
<time>2016-10-10T14:48:34Z</time>
</trkpt>
<trkpt lat="37.085693359375" lon="-118.4541015625">
<ele>3286</ele>
<time>2016-10-10T14:48:41Z</time>
</trkpt>
<trkpt lat="37.085662841796875" lon="-118.45405578613281">
<ele>3288</ele>
<time>2016-10-10T14:48:56Z</time>
</trkpt>
<trkpt lat="37.08562088012695" lon="-118.45402526855469">
<ele>3291</ele>
<time>2016-10-10T14:49:07Z</time>
</trkpt>
<trkpt lat="37.085575103759766" lon="-118.45403289794922">
<ele>3293</ele>
<time>2016-10-10T14:49:13Z</time>
</trkpt>
<trkpt lat="37.08552932739258" lon="-118.45402526855469">
<ele>3290</ele>
<time>2016-10-10T14:49:22Z</time>
</trkpt>
<trkpt lat="37.08548355102539" lon="-118.45403289794922">
<ele>3298</ele>
<time>2016-10-10T14:49:33Z</time>
</trkpt>
<trkpt lat="37.08542251586914" lon="-118.45401000976563">
<ele>3298</ele>
<time>2016-10-10T14:49:45Z</time>
</trkpt>
<trkpt lat="37.0853271484375" lon="-118.4540023803711">
<ele>3298</ele>
<time>2016-10-10T14:50:12Z</time>
</trkpt>
<trkpt lat="37.08527755737305" lon="-118.45401000976563">
<ele>3298</ele>
<time>2016-10-10T14:50:19Z</time>
</trkpt>
<trkpt lat="37.08523178100586" lon="-118.45404815673828">
<ele>3298</ele>
<time>2016-10-10T14:50:39Z</time>
</trkpt>
<trkpt lat="37.085147857666016" lon="-118.45411682128906">
<ele>3301</ele>
<time>2016-10-10T14:50:49Z</time>
</trkpt>
<trkpt lat="37.08509826660156" lon="-118.45410919189453">
<ele>3302</ele>
<time>2016-10-10T14:51:01Z</time>
</trkpt>
<trkpt lat="37.085052490234375" lon="-118.45408630371094">
<ele>3301</ele>
<time>2016-10-10T14:51:09Z</time>
</trkpt>
<trkpt lat="37.08502960205078" lon="-118.45403289794922">
<ele>3306</ele>
<time>2016-10-10T14:51:16Z</time>
</trkpt>
<trkpt lat="37.08500289916992" lon="-118.45408630371094">
<ele>3309</ele>
<time>2016-10-10T14:51:24Z</time>
</trkpt>
<trkpt lat="37.084922790527344" lon="-118.45408630371094">
<ele>3310</ele>
<time>2016-10-10T14:51:36Z</time>
</trkpt>
<trkpt lat="37.08488082885742" lon="-118.45411682128906">
<ele>3310</ele>
<time>2016-10-10T14:52:04Z</time>
</trkpt>
<trkpt lat="37.08478927612305" lon="-118.45409393310547">
<ele>3313</ele>
<time>2016-10-10T14:52:12Z</time>
</trkpt>
<trkpt lat="37.084774017333984" lon="-118.45415496826172">
<ele>3314</ele>
<time>2016-10-10T14:52:22Z</time>
</trkpt>
<trkpt lat="37.08473205566406" lon="-118.45419311523438">
<ele>3309</ele>
<time>2016-10-10T14:52:28Z</time>
</trkpt>
<trkpt lat="37.084686279296875" lon="-118.45418548583984">
<ele>3312</ele>
<time>2016-10-10T14:52:34Z</time>
</trkpt>
<trkpt lat="37.084617614746094" lon="-118.45420837402344">
<ele>3318</ele>
<time>2016-10-10T14:52:41Z</time>
</trkpt>
<trkpt lat="37.08452224731445" lon="-118.4542236328125">
<ele>3314</ele>
<time>2016-10-10T14:52:51Z</time>
</trkpt>
<trkpt lat="37.0844841003418" lon="-118.45418548583984">
<ele>3320</ele>
<time>2016-10-10T14:52:58Z</time>
</trkpt>
<trkpt lat="37.08443832397461" lon="-118.45420837402344">
<ele>3322</ele>
<time>2016-10-10T14:53:06Z</time>
</trkpt>
<trkpt lat="37.08436584472656" lon="-118.45415496826172">
<ele>3321</ele>
<time>2016-10-10T14:53:18Z</time>
</trkpt>
<trkpt lat="37.084320068359375" lon="-118.45416259765625">
<ele>3319</ele>
<time>2016-10-10T14:53:25Z</time>
</trkpt>
<trkpt lat="37.0842170715332" lon="-118.45419311523438">
<ele>3317</ele>
<time>2016-10-10T14:53:34Z</time>
</trkpt>
<trkpt lat="37.08415222167969" lon="-118.4542236328125">
<ele>3314</ele>
<time>2016-10-10T14:53:47Z</time>
</trkpt>
<trkpt lat="37.084102630615234" lon="-118.45421600341797">
<ele>3317</ele>
<time>2016-10-10T14:53:55Z</time>
</trkpt>
<trkpt lat="37.08405685424805" lon="-118.45423126220703">
<ele>3319</ele>
<time>2016-10-10T14:54:02Z</time>
</trkpt>
<trkpt lat="37.084007263183594" lon="-118.45425415039063">
<ele>3317</ele>
<time>2016-10-10T14:54:11Z</time>
</trkpt>
<trkpt lat="37.08395767211914" lon="-118.45423889160156">
<ele>3322</ele>
<time>2016-10-10T14:54:17Z</time>
</trkpt>
<trkpt lat="37.08391189575195" lon="-118.45421600341797">
<ele>3326</ele>
<time>2016-10-10T14:54:23Z</time>
</trkpt>
<trkpt lat="37.08384704589844" lon="-118.45421600341797">
<ele>3328</ele>
<time>2016-10-10T14:54:36Z</time>
</trkpt>
<trkpt lat="37.08375930786133" lon="-118.45415496826172">
<ele>3326</ele>
<time>2016-10-10T14:54:44Z</time>
</trkpt>
<trkpt lat="37.08369827270508" lon="-118.45404815673828">
<ele>3327</ele>
<time>2016-10-10T14:54:53Z</time>
</trkpt>
<trkpt lat="37.08367156982422" lon="-118.45393371582031">
<ele>3325</ele>
<time>2016-10-10T14:55:00Z</time>
</trkpt>
<trkpt lat="37.08364486694336" lon="-118.45381927490234">
<ele>3327</ele>
<time>2016-10-10T14:55:10Z</time>
</trkpt>
<trkpt lat="37.083595275878906" lon="-118.45377349853516">
<ele>3324</ele>
<time>2016-10-10T14:55:21Z</time>
</trkpt>
<trkpt lat="37.08364486694336" lon="-118.45380401611328">
<ele>3313</ele>
<time>2016-10-10T14:55:41Z</time>
</trkpt>
<trkpt lat="37.083648681640625" lon="-118.45375061035156">
<ele>3316</ele>
<time>2016-10-10T14:56:11Z</time>
</trkpt>
<trkpt lat="37.0836067199707" lon="-118.45372009277344">
<ele>3319</ele>
<time>2016-10-10T14:56:24Z</time>
</trkpt>
</trkseg>
</trk>
<trk>
<name><![CDATA[10100758]]></name>
<number>32</number>
<extensions><topografix:color>ff000066</topografix:color></extensions>
<trkseg>
<trkpt lat="37.08363342285156" lon="-118.45378875732422">
<ele>3327</ele>
<time>2016-10-10T14:58:41Z</time>
</trkpt>
<trkpt lat="37.08360290527344" lon="-118.4538345336914">
<ele>3330</ele>
<time>2016-10-10T15:00:25Z</time>
</trkpt>
<trkpt lat="37.0836181640625" lon="-118.45388793945313">
<ele>3326</ele>
<time>2016-10-10T15:00:31Z</time>
</trkpt>
<trkpt lat="37.08359146118164" lon="-118.45394134521484">
<ele>3329</ele>
<time>2016-10-10T15:00:37Z</time>
</trkpt>
<trkpt lat="37.083595275878906" lon="-118.4540023803711">
<ele>3325</ele>
<time>2016-10-10T15:00:50Z</time>
</trkpt>
<trkpt lat="37.08355712890625" lon="-118.45411682128906">
<ele>3331</ele>
<time>2016-10-10T15:01:03Z</time>
</trkpt>
<trkpt lat="37.083499908447266" lon="-118.45420837402344">
<ele>3331</ele>
<time>2016-10-10T15:01:11Z</time>
</trkpt>
<trkpt lat="37.08345413208008" lon="-118.45423126220703">
<ele>3332</ele>
<time>2016-10-10T15:01:18Z</time>
</trkpt>
<trkpt lat="37.08335876464844" lon="-118.45426940917969">
<ele>3328</ele>
<time>2016-10-10T15:01:29Z</time>
</trkpt>
<trkpt lat="37.08326721191406" lon="-118.45430755615234">
<ele>3329</ele>
<time>2016-10-10T15:01:39Z</time>
</trkpt>
<trkpt lat="37.08322525024414" lon="-118.45433044433594">
<ele>3332</ele>
<time>2016-10-10T15:01:45Z</time>
</trkpt>
<trkpt lat="37.08317947387695" lon="-118.4543685913086">
<ele>3334</ele>
<time>2016-10-10T15:02:00Z</time>
</trkpt>
<trkpt lat="37.083126068115234" lon="-118.45436096191406">
<ele>3331</ele>
<time>2016-10-10T15:02:08Z</time>
</trkpt>
<trkpt lat="37.08308792114258" lon="-118.4543228149414">
<ele>3330</ele>
<time>2016-10-10T15:02:16Z</time>
</trkpt>
<trkpt lat="37.083038330078125" lon="-118.4543228149414">
<ele>3331</ele>
<time>2016-10-10T15:02:24Z</time>
</trkpt>
<trkpt lat="37.08295440673828" lon="-118.4543685913086">
<ele>3335</ele>
<time>2016-10-10T15:02:43Z</time>
</trkpt>
<trkpt lat="37.0828742980957" lon="-118.45429229736328">
<ele>3334</ele>
<time>2016-10-10T15:02:53Z</time>
</trkpt>
<trkpt lat="37.08283233642578" lon="-118.4542465209961">
<ele>3335</ele>
<time>2016-10-10T15:03:07Z</time>
</trkpt>
<trkpt lat="37.08283233642578" lon="-118.45415496826172">
<ele>3335</ele>
<time>2016-10-10T15:03:47Z</time>
</trkpt>
<trkpt lat="37.08285903930664" lon="-118.4541015625">
<ele>3337</ele>
<time>2016-10-10T15:03:53Z</time>
</trkpt>
<trkpt lat="37.08284378051758" lon="-118.45404815673828">
<ele>3331</ele>
<time>2016-10-10T15:04:01Z</time>
</trkpt>
<trkpt lat="37.08285140991211" lon="-118.45399475097656">
<ele>3333</ele>
<time>2016-10-10T15:04:08Z</time>
</trkpt>
<trkpt lat="37.082847595214844" lon="-118.45393371582031">
<ele>3331</ele>
<time>2016-10-10T15:04:18Z</time>
</trkpt>
<trkpt lat="37.08283233642578" lon="-118.45387268066406">
<ele>3332</ele>
<time>2016-10-10T15:04:26Z</time>
</trkpt>
<trkpt lat="37.082801818847656" lon="-118.4538345336914">
<ele>3331</ele>
<time>2016-10-10T15:04:33Z</time>
</trkpt>
<trkpt lat="37.082740783691406" lon="-118.45379638671875">
<ele>3330</ele>
<time>2016-10-10T15:04:41Z</time>
</trkpt>
<trkpt lat="37.08269500732422" lon="-118.45377349853516">
<ele>3329</ele>
<time>2016-10-10T15:04:51Z</time>
</trkpt>
<trkpt lat="37.0827522277832" lon="-118.45376586914063">
<ele>3335</ele>
<time>2016-10-10T15:05:05Z</time>
</trkpt>
<trkpt lat="37.082759857177734" lon="-118.45370483398438">
<ele>3336</ele>
<time>2016-10-10T15:05:25Z</time>
</trkpt>
<trkpt lat="37.08271408081055" lon="-118.45359802246094">
<ele>3333</ele>
<time>2016-10-10T15:05:34Z</time>
</trkpt>
<trkpt lat="37.08272171020508" lon="-118.45349884033203">
<ele>3336</ele>
<time>2016-10-10T15:05:41Z</time>
</trkpt>
<trkpt lat="37.08267593383789" lon="-118.45348358154297">
<ele>3339</ele>
<time>2016-10-10T15:06:36Z</time>
</trkpt>
<trkpt lat="37.08267593383789" lon="-118.45340728759766">
<ele>3343</ele>
<time>2016-10-10T15:06:53Z</time>
</trkpt>
<trkpt lat="37.0826530456543" lon="-118.45330047607422">
<ele>3343</ele>
<time>2016-10-10T15:07:03Z</time>
</trkpt>
<trkpt lat="37.082679748535156" lon="-118.45317840576172">
<ele>3343</ele>
<time>2016-10-10T15:07:18Z</time>
</trkpt>
<trkpt lat="37.08274459838867" lon="-118.45308685302734">
<ele>3344</ele>
<time>2016-10-10T15:07:30Z</time>
</trkpt>
<trkpt lat="37.082672119140625" lon="-118.45306396484375">
<ele>3347</ele>
<time>2016-10-10T15:07:53Z</time>
</trkpt>
<trkpt lat="37.08262634277344" lon="-118.45307922363281">
<ele>3349</ele>
<time>2016-10-10T15:08:02Z</time>
</trkpt>
<trkpt lat="37.082576751708984" lon="-118.45308685302734">
<ele>3350</ele>
<time>2016-10-10T15:08:10Z</time>
</trkpt>
<trkpt lat="37.08253479003906" lon="-118.45311737060547">
<ele>3350</ele>
<time>2016-10-10T15:08:16Z</time>
</trkpt>
<trkpt lat="37.08253479003906" lon="-118.45305633544922">
<ele>3353</ele>
<time>2016-10-10T15:08:34Z</time>
</trkpt>
<trkpt lat="37.082481384277344" lon="-118.4530029296875">
<ele>3350</ele>
<time>2016-10-10T15:09:00Z</time>
</trkpt>
<trkpt lat="37.08244705200195" lon="-118.45295715332031">
<ele>3353</ele>
<time>2016-10-10T15:09:06Z</time>
</trkpt>
<trkpt lat="37.082374572753906" lon="-118.45294952392578">
<ele>3356</ele>
<time>2016-10-10T15:09:20Z</time>
</trkpt>
<trkpt lat="37.082359313964844" lon="-118.45289611816406">
<ele>3359</ele>
<time>2016-10-10T15:09:34Z</time>
</trkpt>
<trkpt lat="37.08230972290039" lon="-118.45284271240234">
<ele>3369</ele>
<time>2016-10-10T15:09:58Z</time>
</trkpt>
<trkpt lat="37.08226776123047" lon="-118.45281982421875">
<ele>3370</ele>
<time>2016-10-10T15:10:14Z</time>
</trkpt>
<trkpt lat="37.08222198486328" lon="-118.45285034179688">
<ele>3371</ele>
<time>2016-10-10T15:10:32Z</time>
</trkpt>
<trkpt lat="37.082176208496094" lon="-118.45284271240234">
<ele>3376</ele>
<time>2016-10-10T15:10:42Z</time>
</trkpt>
<trkpt lat="37.08214569091797" lon="-118.45288848876953">
<ele>3377</ele>
<time>2016-10-10T15:10:55Z</time>
</trkpt>
<trkpt lat="37.08209991455078" lon="-118.452880859375">
<ele>3378</ele>
<time>2016-10-10T15:11:11Z</time>
</trkpt>
<trkpt lat="37.082054138183594" lon="-118.4529037475586">
<ele>3380</ele>
<time>2016-10-10T15:11:32Z</time>
</trkpt>
<trkpt lat="37.082008361816406" lon="-118.45291137695313">
<ele>3382</ele>
<time>2016-10-10T15:11:54Z</time>
</trkpt>
<trkpt lat="37.08198928833008" lon="-118.4528579711914">
<ele>3383</ele>
<time>2016-10-10T15:12:10Z</time>
</trkpt>
<trkpt lat="37.08199691772461" lon="-118.45279693603516">
<ele>3387</ele>
<time>2016-10-10T15:12:27Z</time>
</trkpt>
<trkpt lat="37.08196258544922" lon="-118.45275115966797">
<ele>3390</ele>
<time>2016-10-10T15:12:40Z</time>
</trkpt>
<trkpt lat="37.082008361816406" lon="-118.4527587890625">
<ele>3395</ele>
<time>2016-10-10T15:12:52Z</time>
</trkpt>
<trkpt lat="37.081932067871094" lon="-118.45281982421875">
<ele>3398</ele>
<time>2016-10-10T15:13:58Z</time>
</trkpt>
<trkpt lat="37.081886291503906" lon="-118.45280456542969">
<ele>3402</ele>
<time>2016-10-10T15:14:18Z</time>
</trkpt>
<trkpt lat="37.08186340332031" lon="-118.45275115966797">
<ele>3401</ele>
<time>2016-10-10T15:14:41Z</time>
</trkpt>
<trkpt lat="37.081787109375" lon="-118.45280456542969">
<ele>3413</ele>
<time>2016-10-10T15:15:32Z</time>
</trkpt>
<trkpt lat="37.08180236816406" lon="-118.45286560058594">
<ele>3423</ele>
<time>2016-10-10T15:15:54Z</time>
</trkpt>
<trkpt lat="37.081764221191406" lon="-118.4529037475586">
<ele>3424</ele>
<time>2016-10-10T15:16:07Z</time>
</trkpt>
<trkpt lat="37.08171081542969" lon="-118.45279693603516">
<ele>3422</ele>
<time>2016-10-10T15:16:29Z</time>
</trkpt>
<trkpt lat="37.081642150878906" lon="-118.45287322998047">
<ele>3423</ele>
<time>2016-10-10T15:16:49Z</time>
</trkpt>
<trkpt lat="37.081607818603516" lon="-118.45284271240234">
<ele>3423</ele>
<time>2016-10-10T15:17:09Z</time>
</trkpt>
<trkpt lat="37.08156967163086" lon="-118.45280456542969">
<ele>3431</ele>
<time>2016-10-10T15:17:32Z</time>
</trkpt>
<trkpt lat="37.08150100708008" lon="-118.45281982421875">
<ele>3440</ele>
<time>2016-10-10T15:18:12Z</time>
</trkpt>
<trkpt lat="37.08145523071289" lon="-118.45281219482422">
<ele>3442</ele>
<time>2016-10-10T15:18:19Z</time>
</trkpt>
<trkpt lat="37.08143615722656" lon="-118.45286560058594">
<ele>3447</ele>
<time>2016-10-10T15:18:39Z</time>
</trkpt>
<trkpt lat="37.08138656616211" lon="-118.45288848876953">
<ele>3447</ele>
<time>2016-10-10T15:18:57Z</time>
</trkpt>
<trkpt lat="37.081356048583984" lon="-118.45283508300781">
<ele>3446</ele>
<time>2016-10-10T15:19:03Z</time>
</trkpt>
<trkpt lat="37.0813102722168" lon="-118.45282745361328">
<ele>3447</ele>
<time>2016-10-10T15:19:11Z</time>
</trkpt>
<trkpt lat="37.0812873840332" lon="-118.45277404785156">
<ele>3443</ele>
<time>2016-10-10T15:19:23Z</time>
</trkpt>
<trkpt lat="37.081207275390625" lon="-118.4527587890625">
<ele>3445</ele>
<time>2016-10-10T15:19:51Z</time>
</trkpt>
<trkpt lat="37.0811653137207" lon="-118.4527359008789">
<ele>3449</ele>
<time>2016-10-10T15:20:21Z</time>
</trkpt>
<trkpt lat="37.081085205078125" lon="-118.45266723632813">
<ele>3453</ele>
<time>2016-10-10T15:20:30Z</time>
</trkpt>
<trkpt lat="37.08108901977539" lon="-118.45260620117188">
<ele>3454</ele>
<time>2016-10-10T15:20:36Z</time>
</trkpt>
<trkpt lat="37.081077575683594" lon="-118.4525375366211">
<ele>3458</ele>
<time>2016-10-10T15:20:42Z</time>
</trkpt>
<trkpt lat="37.08102798461914" lon="-118.4525375366211">
<ele>3452</ele>
<time>2016-10-10T15:20:49Z</time>
</trkpt>
<trkpt lat="37.08097457885742" lon="-118.45252990722656">
<ele>3455</ele>
<time>2016-10-10T15:20:56Z</time>
</trkpt>
<trkpt lat="37.080928802490234" lon="-118.45249938964844">
<ele>3457</ele>
<time>2016-10-10T15:21:02Z</time>
</trkpt>
<trkpt lat="37.08088684082031" lon="-118.45247650146484">
<ele>3458</ele>
<time>2016-10-10T15:21:08Z</time>
</trkpt>
<trkpt lat="37.080806732177734" lon="-118.45240020751953">
<ele>3457</ele>
<time>2016-10-10T15:21:14Z</time>
</trkpt>
<trkpt lat="37.080753326416016" lon="-118.4524154663086">
<ele>3460</ele>
<time>2016-10-10T15:21:21Z</time>
</trkpt>
<trkpt lat="37.08070755004883" lon="-118.45240783691406">
<ele>3462</ele>
<time>2016-10-10T15:21:28Z</time>
</trkpt>
<trkpt lat="37.080596923828125" lon="-118.45240020751953">
<ele>3464</ele>
<time>2016-10-10T15:21:36Z</time>
</trkpt>
<trkpt lat="37.080543518066406" lon="-118.45238494873047">
<ele>3462</ele>
<time>2016-10-10T15:21:42Z</time>
</trkpt>
<trkpt lat="37.080482482910156" lon="-118.4523696899414">
<ele>3455</ele>
<time>2016-10-10T15:23:52Z</time>
</trkpt>
<trkpt lat="37.080528259277344" lon="-118.45234680175781">
<ele>3457</ele>
<time>2016-10-10T15:24:28Z</time>
</trkpt>
<trkpt lat="37.08027267456055" lon="-118.45207977294922">
<ele>3458</ele>
<time>2016-10-10T15:27:47Z</time>
</trkpt>
</trkseg>
</trk>
<trk>
<name><![CDATA[10100828]]></name>
<number>33</number>
<extensions><topografix:color>ff000066</topografix:color></extensions>
<trkseg>
<trkpt lat="37.08030319213867" lon="-118.45206451416016">
<ele>3460</ele>
<time>2016-10-10T15:28:54Z</time>
</trkpt>
<trkpt lat="37.08025360107422" lon="-118.45207977294922">
<ele>3460</ele>
<time>2016-10-10T15:29:30Z</time>
</trkpt>
<trkpt lat="37.08024215698242" lon="-118.45220947265625">
<ele>3456</ele>
<time>2016-10-10T15:29:44Z</time>
</trkpt>
<trkpt lat="37.08021545410156" lon="-118.45233154296875">
<ele>3464</ele>
<time>2016-10-10T15:30:04Z</time>
</trkpt>
<trkpt lat="37.08018493652344" lon="-118.45237731933594">
<ele>3465</ele>
<time>2016-10-10T15:30:11Z</time>
</trkpt>
<trkpt lat="37.08020782470703" lon="-118.45243072509766">
<ele>3464</ele>
<time>2016-10-10T15:30:18Z</time>
</trkpt>
<trkpt lat="37.080177307128906" lon="-118.45247650146484">
<ele>3464</ele>
<time>2016-10-10T15:30:25Z</time>
</trkpt>
<trkpt lat="37.08016586303711" lon="-118.45254516601563">
<ele>3466</ele>
<time>2016-10-10T15:30:37Z</time>
</trkpt>
<trkpt lat="37.08013916015625" lon="-118.45259094238281">
<ele>3467</ele>
<time>2016-10-10T15:30:46Z</time>
</trkpt>
<trkpt lat="37.08012008666992" lon="-118.45264434814453">
<ele>3472</ele>
<time>2016-10-10T15:31:11Z</time>
</trkpt>
<trkpt lat="37.08012390136719" lon="-118.45270538330078">
<ele>3479</ele>
<time>2016-10-10T15:31:20Z</time>
</trkpt>
<trkpt lat="37.08013153076172" lon="-118.45276641845703">
<ele>3481</ele>
<time>2016-10-10T15:31:33Z</time>
</trkpt>
<trkpt lat="37.080101013183594" lon="-118.45281219482422">
<ele>3483</ele>
<time>2016-10-10T15:31:48Z</time>
</trkpt>
<trkpt lat="37.08000564575195" lon="-118.45285034179688">
<ele>3477</ele>
<time>2016-10-10T15:32:04Z</time>
</trkpt>
<trkpt lat="37.0799560546875" lon="-118.4528579711914">
<ele>3478</ele>
<time>2016-10-10T15:32:12Z</time>
</trkpt>
<trkpt lat="37.07992935180664" lon="-118.4529037475586">
<ele>3482</ele>
<time>2016-10-10T15:32:32Z</time>
</trkpt>
<trkpt lat="37.07988357543945" lon="-118.4529037475586">
<ele>3482</ele>
<time>2016-10-10T15:32:41Z</time>
</trkpt>
<trkpt lat="37.07982635498047" lon="-118.45288848876953">
<ele>3485</ele>
<time>2016-10-10T15:34:08Z</time>
</trkpt>
<trkpt lat="37.07978057861328" lon="-118.45288848876953">
<ele>3483</ele>
<time>2016-10-10T15:34:14Z</time>
</trkpt>
<trkpt lat="37.079673767089844" lon="-118.4529037475586">
<ele>3486</ele>
<time>2016-10-10T15:34:25Z</time>
</trkpt>
<trkpt lat="37.07963180541992" lon="-118.45293426513672">
<ele>3487</ele>
<time>2016-10-10T15:34:32Z</time>
</trkpt>
<trkpt lat="37.07965087890625" lon="-118.45299530029297">
<ele>3488</ele>
<time>2016-10-10T15:34:46Z</time>
</trkpt>
<trkpt lat="37.079559326171875" lon="-118.45297241210938">
<ele>3486</ele>
<time>2016-10-10T15:35:01Z</time>
</trkpt>
<trkpt lat="37.07951736450195" lon="-118.4530029296875">
<ele>3494</ele>
<time>2016-10-10T15:35:15Z</time>
</trkpt>
<trkpt lat="37.07948303222656" lon="-118.45304107666016">
<ele>3492</ele>
<time>2016-10-10T15:35:28Z</time>
</trkpt>
<trkpt lat="37.07943344116211" lon="-118.4530258178711">
<ele>3501</ele>
<time>2016-10-10T15:35:52Z</time>
</trkpt>
<trkpt lat="37.07940673828125" lon="-118.45308685302734">
<ele>3497</ele>
<time>2016-10-10T15:36:17Z</time>
</trkpt>
<trkpt lat="37.07941436767578" lon="-118.45314025878906">
<ele>3500</ele>
<time>2016-10-10T15:36:33Z</time>
</trkpt>
<trkpt lat="37.07940673828125" lon="-118.45320129394531">
<ele>3502</ele>
<time>2016-10-10T15:36:46Z</time>
</trkpt>
<trkpt lat="37.079376220703125" lon="-118.4532470703125">
<ele>3503</ele>
<time>2016-10-10T15:36:54Z</time>
</trkpt>
<trkpt lat="37.07932662963867" lon="-118.45323944091797">
<ele>3507</ele>
<time>2016-10-10T15:37:02Z</time>
</trkpt>
<trkpt lat="37.079280853271484" lon="-118.45323181152344">
<ele>3509</ele>
<time>2016-10-10T15:37:16Z</time>
</trkpt>
<trkpt lat="37.07923126220703" lon="-118.4532241821289">
<ele>3506</ele>
<time>2016-10-10T15:37:28Z</time>
</trkpt>
<trkpt lat="37.07918167114258" lon="-118.45323181152344">
<ele>3508</ele>
<time>2016-10-10T15:37:36Z</time>
</trkpt>
<trkpt lat="37.07917404174805" lon="-118.45329284667969">
<ele>3513</ele>
<time>2016-10-10T15:37:48Z</time>
</trkpt>
<trkpt lat="37.07920837402344" lon="-118.45333099365234">
<ele>3516</ele>
<time>2016-10-10T15:37:54Z</time>
</trkpt>
<trkpt lat="37.07917404174805" lon="-118.45328521728516">
<ele>3515</ele>
<time>2016-10-10T15:38:14Z</time>
</trkpt>
<trkpt lat="37.07914352416992" lon="-118.4532470703125">
<ele>3518</ele>
<time>2016-10-10T15:38:39Z</time>
</trkpt>
<trkpt lat="37.07908248901367" lon="-118.45323181152344">
<ele>3521</ele>
<time>2016-10-10T15:38:46Z</time>
</trkpt>
<trkpt lat="37.079097747802734" lon="-118.45331573486328">
<ele>3519</ele>
<time>2016-10-10T15:39:13Z</time>
</trkpt>
<trkpt lat="37.07908248901367" lon="-118.45326232910156">
<ele>3516</ele>
<time>2016-10-10T15:39:32Z</time>
</trkpt>
<trkpt lat="37.079036712646484" lon="-118.45327758789063">
<ele>3518</ele>
<time>2016-10-10T15:39:39Z</time>
</trkpt>
<trkpt lat="37.07900619506836" lon="-118.45323181152344">
<ele>3518</ele>
<time>2016-10-10T15:39:49Z</time>
</trkpt>
<trkpt lat="37.078914642333984" lon="-118.45319366455078">
<ele>3517</ele>
<time>2016-10-10T15:40:01Z</time>
</trkpt>
<trkpt lat="37.078834533691406" lon="-118.45326232910156">
<ele>3514</ele>
<time>2016-10-10T15:40:11Z</time>
</trkpt>
<trkpt lat="37.078758239746094" lon="-118.45335388183594">
<ele>3516</ele>
<time>2016-10-10T15:40:21Z</time>
</trkpt>
<trkpt lat="37.07867431640625" lon="-118.45341491699219">
<ele>3519</ele>
<time>2016-10-10T15:40:30Z</time>
</trkpt>
<trkpt lat="37.078575134277344" lon="-118.45342254638672">
<ele>3521</ele>
<time>2016-10-10T15:40:38Z</time>
</trkpt>
<trkpt lat="37.07850646972656" lon="-118.4533920288086">
<ele>3516</ele>
<time>2016-10-10T15:40:54Z</time>
</trkpt>
<trkpt lat="37.078453063964844" lon="-118.45338439941406">
<ele>3517</ele>
<time>2016-10-10T15:41:09Z</time>
</trkpt>
<trkpt lat="37.078330993652344" lon="-118.453369140625">
<ele>3517</ele>
<time>2016-10-10T15:41:15Z</time>
</trkpt>
<trkpt lat="37.07829284667969" lon="-118.45333862304688">
<ele>3520</ele>
<time>2016-10-10T15:41:25Z</time>
</trkpt>
<trkpt lat="37.07820129394531" lon="-118.45332336425781">
<ele>3517</ele>
<time>2016-10-10T15:41:38Z</time>
</trkpt>
<trkpt lat="37.07810592651367" lon="-118.45333099365234">
<ele>3514</ele>
<time>2016-10-10T15:41:48Z</time>
</trkpt>
<trkpt lat="37.07805252075195" lon="-118.45337677001953">
<ele>3519</ele>
<time>2016-10-10T15:42:04Z</time>
</trkpt>
<trkpt lat="37.0780029296875" lon="-118.45338439941406">
<ele>3521</ele>
<time>2016-10-10T15:42:13Z</time>
</trkpt>
<trkpt lat="37.077972412109375" lon="-118.45343017578125">
<ele>3520</ele>
<time>2016-10-10T15:42:19Z</time>
</trkpt>
<trkpt lat="37.0780143737793" lon="-118.4534683227539">
<ele>3522</ele>
<time>2016-10-10T15:42:30Z</time>
</trkpt>
<trkpt lat="37.07801055908203" lon="-118.45352935791016">
<ele>3525</ele>
<time>2016-10-10T15:42:36Z</time>
</trkpt>
<trkpt lat="37.077903747558594" lon="-118.45355224609375">
<ele>3529</ele>
<time>2016-10-10T15:42:51Z</time>
</trkpt>
<trkpt lat="37.077816009521484" lon="-118.45354461669922">
<ele>3528</ele>
<time>2016-10-10T15:42:59Z</time>
</trkpt>
<trkpt lat="37.0777702331543" lon="-118.45357513427734">
<ele>3530</ele>
<time>2016-10-10T15:43:08Z</time>
</trkpt>
<trkpt lat="37.07772445678711" lon="-118.45356750488281">
<ele>3531</ele>
<time>2016-10-10T15:43:19Z</time>
</trkpt>
<trkpt lat="37.07771301269531" lon="-118.45362854003906">
<ele>3533</ele>
<time>2016-10-10T15:43:39Z</time>
</trkpt>
<trkpt lat="37.077667236328125" lon="-118.4536361694336">
<ele>3534</ele>
<time>2016-10-10T15:43:45Z</time>
</trkpt>
<trkpt lat="37.077571868896484" lon="-118.45367431640625">
<ele>3525</ele>
<time>2016-10-10T15:43:53Z</time>
</trkpt>
<trkpt lat="37.077518463134766" lon="-118.45370483398438">
<ele>3527</ele>
<time>2016-10-10T15:43:59Z</time>
</trkpt>
<trkpt lat="37.07747268676758" lon="-118.4537353515625">
<ele>3531</ele>
<time>2016-10-10T15:44:06Z</time>
</trkpt>
<trkpt lat="37.07743835449219" lon="-118.45369720458984">
<ele>3530</ele>
<time>2016-10-10T15:44:53Z</time>
</trkpt>
<trkpt lat="37.07744216918945" lon="-118.45378112792969">
<ele>3541</ele>
<time>2016-10-10T15:45:30Z</time>
</trkpt>
<trkpt lat="37.07743835449219" lon="-118.45384979248047">
<ele>3536</ele>
<time>2016-10-10T15:45:42Z</time>
</trkpt>
<trkpt lat="37.0774040222168" lon="-118.45388793945313">
<ele>3535</ele>
<time>2016-10-10T15:45:50Z</time>
</trkpt>
<trkpt lat="37.07734298706055" lon="-118.45394134521484">
<ele>3534</ele>
<time>2016-10-10T15:46:04Z</time>
</trkpt>
<trkpt lat="37.077232360839844" lon="-118.45394134521484">
<ele>3534</ele>
<time>2016-10-10T15:46:11Z</time>
</trkpt>
<trkpt lat="37.0771369934082" lon="-118.45398712158203">
<ele>3529</ele>
<time>2016-10-10T15:46:24Z</time>
</trkpt>
<trkpt lat="37.07706832885742" lon="-118.45401763916016">
<ele>3538</ele>
<time>2016-10-10T15:46:38Z</time>
</trkpt>
<trkpt lat="37.07699203491211" lon="-118.45401000976563">
<ele>3539</ele>
<time>2016-10-10T15:47:05Z</time>
</trkpt>
<trkpt lat="37.076942443847656" lon="-118.45404815673828">
<ele>3540</ele>
<time>2016-10-10T15:47:15Z</time>
</trkpt>
<trkpt lat="37.076839447021484" lon="-118.4540023803711">
<ele>3542</ele>
<time>2016-10-10T15:47:41Z</time>
</trkpt>
<trkpt lat="37.07678985595703" lon="-118.45398712158203">
<ele>3541</ele>
<time>2016-10-10T15:47:54Z</time>
</trkpt>
<trkpt lat="37.07676315307617" lon="-118.45393371582031">
<ele>3541</ele>
<time>2016-10-10T15:48:01Z</time>
</trkpt>
<trkpt lat="37.07672119140625" lon="-118.4538803100586">
<ele>3543</ele>
<time>2016-10-10T15:48:09Z</time>
</trkpt>
<trkpt lat="37.07674789428711" lon="-118.45393371582031">
<ele>3539</ele>
<time>2016-10-10T15:48:25Z</time>
</trkpt>
<trkpt lat="37.076683044433594" lon="-118.45391082763672">
<ele>3539</ele>
<time>2016-10-10T15:49:48Z</time>
</trkpt>
<trkpt lat="37.07661819458008" lon="-118.45391845703125">
<ele>3538</ele>
<time>2016-10-10T15:49:54Z</time>
</trkpt>
<trkpt lat="37.07651901245117" lon="-118.4538803100586">
<ele>3536</ele>
<time>2016-10-10T15:50:04Z</time>
</trkpt>
<trkpt lat="37.07646560668945" lon="-118.45386505126953">
<ele>3536</ele>
<time>2016-10-10T15:50:10Z</time>
</trkpt>
<trkpt lat="37.07645797729492" lon="-118.45380401611328">
<ele>3540</ele>
<time>2016-10-10T15:50:19Z</time>
</trkpt>
<trkpt lat="37.07643508911133" lon="-118.45386505126953">
<ele>3538</ele>
<time>2016-10-10T15:50:54Z</time>
</trkpt>
<trkpt lat="37.0764274597168" lon="-118.4539794921875">
<ele>3542</ele>
<time>2016-10-10T15:51:11Z</time>
</trkpt>
<trkpt lat="37.076385498046875" lon="-118.4540023803711">
<ele>3548</ele>
<time>2016-10-10T15:51:31Z</time>
</trkpt>
<trkpt lat="37.07632827758789" lon="-118.4540023803711">
<ele>3550</ele>
<time>2016-10-10T15:51:38Z</time>
</trkpt>
<trkpt lat="37.07627487182617" lon="-118.45398712158203">
<ele>3550</ele>
<time>2016-10-10T15:51:53Z</time>
</trkpt>
<trkpt lat="37.07622528076172" lon="-118.45401763916016">
<ele>3552</ele>
<time>2016-10-10T15:52:08Z</time>
</trkpt>
<trkpt lat="37.0761833190918" lon="-118.45404815673828">
<ele>3554</ele>
<time>2016-10-10T15:52:26Z</time>
</trkpt>
<trkpt lat="37.076141357421875" lon="-118.45401763916016">
<ele>3554</ele>
<time>2016-10-10T15:52:32Z</time>
</trkpt>
<trkpt lat="37.076133728027344" lon="-118.4540786743164">
<ele>3548</ele>
<time>2016-10-10T15:52:38Z</time>
</trkpt>
<trkpt lat="37.076168060302734" lon="-118.45413208007813">
<ele>3551</ele>
<time>2016-10-10T15:52:47Z</time>
</trkpt>
<trkpt lat="37.07609558105469" lon="-118.45415496826172">
<ele>3555</ele>
<time>2016-10-10T15:53:03Z</time>
</trkpt>
<trkpt lat="37.07606887817383" lon="-118.45410919189453">
<ele>3561</ele>
<time>2016-10-10T15:53:21Z</time>
</trkpt>
<trkpt lat="37.07602310180664" lon="-118.45410919189453">
<ele>3546</ele>
<time>2016-10-10T15:53:43Z</time>
</trkpt>
<trkpt lat="37.07597732543945" lon="-118.45417022705078">
<ele>3550</ele>
<time>2016-10-10T15:54:02Z</time>
</trkpt>
<trkpt lat="37.07590866088867" lon="-118.45426177978516">
<ele>3551</ele>
<time>2016-10-10T15:54:11Z</time>
</trkpt>
<trkpt lat="37.075862884521484" lon="-118.45423126220703">
<ele>3551</ele>
<time>2016-10-10T15:54:18Z</time>
</trkpt>
<trkpt lat="37.07579803466797" lon="-118.45413970947266">
<ele>3554</ele>
<time>2016-10-10T15:54:25Z</time>
</trkpt>
<trkpt lat="37.075801849365234" lon="-118.45403289794922">
<ele>3566</ele>
<time>2016-10-10T15:56:11Z</time>
</trkpt>
<trkpt lat="37.07574462890625" lon="-118.45403289794922">
<ele>3564</ele>
<time>2016-10-10T15:58:38Z</time>
</trkpt>
<trkpt lat="37.07578659057617" lon="-118.45402526855469">
<ele>3562</ele>
<time>2016-10-10T15:58:54Z</time>
</trkpt>
<trkpt lat="37.07582473754883" lon="-118.45406341552734">
<ele>3562</ele>
<time>2016-10-10T15:59:01Z</time>
</trkpt>
<trkpt lat="37.075870513916016" lon="-118.45407104492188">
<ele>3560</ele>
<time>2016-10-10T15:59:27Z</time>
</trkpt>
<trkpt lat="37.075904846191406" lon="-118.45401763916016">
<ele>3558</ele>
<time>2016-10-10T15:59:34Z</time>
</trkpt>
<trkpt lat="37.075965881347656" lon="-118.4539566040039">
<ele>3560</ele>
<time>2016-10-10T15:59:54Z</time>
</trkpt>
<trkpt lat="37.07592010498047" lon="-118.45398712158203">
<ele>3560</ele>
<time>2016-10-10T16:00:11Z</time>
</trkpt>
<trkpt lat="37.075862884521484" lon="-118.45399475097656">
<ele>3562</ele>
<time>2016-10-10T16:00:18Z</time>
</trkpt>
<trkpt lat="37.075775146484375" lon="-118.4539794921875">
<ele>3561</ele>
<time>2016-10-10T16:00:26Z</time>
</trkpt>
<trkpt lat="37.075679779052734" lon="-118.45399475097656">
<ele>3558</ele>
<time>2016-10-10T16:00:35Z</time>
</trkpt>
<trkpt lat="37.07563781738281" lon="-118.45403289794922">
<ele>3559</ele>
<time>2016-10-10T16:00:42Z</time>
</trkpt>
<trkpt lat="37.0755615234375" lon="-118.45404052734375">
<ele>3558</ele>
<time>2016-10-10T16:00:54Z</time>
</trkpt>
<trkpt lat="37.075523376464844" lon="-118.45407104492188">
<ele>3561</ele>
<time>2016-10-10T16:01:01Z</time>
</trkpt>
<trkpt lat="37.075477600097656" lon="-118.45409393310547">
<ele>3560</ele>
<time>2016-10-10T16:01:14Z</time>
</trkpt>
<trkpt lat="37.07539367675781" lon="-118.45416259765625">
<ele>3558</ele>
<time>2016-10-10T16:01:22Z</time>
</trkpt>
<trkpt lat="37.075313568115234" lon="-118.45409393310547">
<ele>3554</ele>
<time>2016-10-10T16:01:29Z</time>
</trkpt>
<trkpt lat="37.07526397705078" lon="-118.45410919189453">
<ele>3553</ele>
<time>2016-10-10T16:01:38Z</time>
</trkpt>
<trkpt lat="37.07522964477539" lon="-118.45414733886719">
<ele>3551</ele>
<time>2016-10-10T16:01:47Z</time>
</trkpt>
<trkpt lat="37.075164794921875" lon="-118.4542236328125">
<ele>3551</ele>
<time>2016-10-10T16:01:54Z</time>
</trkpt>
<trkpt lat="37.07508087158203" lon="-118.45423889160156">
<ele>3557</ele>
<time>2016-10-10T16:02:08Z</time>
</trkpt>
<trkpt lat="37.07503128051758" lon="-118.45420837402344">
<ele>3560</ele>
<time>2016-10-10T16:02:35Z</time>
</trkpt>
<trkpt lat="37.07499694824219" lon="-118.45415496826172">
<ele>3565</ele>
<time>2016-10-10T16:02:41Z</time>
</trkpt>
<trkpt lat="37.07490921020508" lon="-118.45410919189453">
<ele>3559</ele>
<time>2016-10-10T16:02:53Z</time>
</trkpt>
<trkpt lat="37.07485580444336" lon="-118.4540786743164">
<ele>3560</ele>
<time>2016-10-10T16:03:01Z</time>
</trkpt>
<trkpt lat="37.074771881103516" lon="-118.45401000976563">
<ele>3560</ele>
<time>2016-10-10T16:03:09Z</time>
</trkpt>
<trkpt lat="37.07471466064453" lon="-118.45391845703125">
<ele>3563</ele>
<time>2016-10-10T16:03:22Z</time>
</trkpt>
<trkpt lat="37.07468032836914" lon="-118.4538803100586">
<ele>3562</ele>
<time>2016-10-10T16:03:30Z</time>
</trkpt>
<trkpt lat="37.07460403442383" lon="-118.45380401611328">
<ele>3564</ele>
<time>2016-10-10T16:03:39Z</time>
</trkpt>
<trkpt lat="37.0745849609375" lon="-118.45374298095703">
<ele>3567</ele>
<time>2016-10-10T16:03:54Z</time>
</trkpt>
<trkpt lat="37.07453536987305" lon="-118.45372772216797">
<ele>3567</ele>
<time>2016-10-10T16:04:01Z</time>
</trkpt>
<trkpt lat="37.07444763183594" lon="-118.45368957519531">
<ele>3569</ele>
<time>2016-10-10T16:04:09Z</time>
</trkpt>
<trkpt lat="37.07440185546875" lon="-118.45366668701172">
<ele>3565</ele>
<time>2016-10-10T16:04:19Z</time>
</trkpt>
<trkpt lat="37.074371337890625" lon="-118.45372009277344">
<ele>3567</ele>
<time>2016-10-10T16:05:00Z</time>
</trkpt>
<trkpt lat="37.07435989379883" lon="-118.45378112792969">
<ele>3566</ele>
<time>2016-10-10T16:05:08Z</time>
</trkpt>
<trkpt lat="37.07434844970703" lon="-118.4538345336914">
<ele>3565</ele>
<time>2016-10-10T16:05:15Z</time>
</trkpt>
<trkpt lat="37.074302673339844" lon="-118.4539566040039">
<ele>3565</ele>
<time>2016-10-10T16:05:29Z</time>
</trkpt>
<trkpt lat="37.07423400878906" lon="-118.45403289794922">
<ele>3563</ele>
<time>2016-10-10T16:05:38Z</time>
</trkpt>
<trkpt lat="37.074214935302734" lon="-118.45397186279297">
<ele>3568</ele>
<time>2016-10-10T16:05:46Z</time>
</trkpt>
<trkpt lat="37.07417297363281" lon="-118.45398712158203">
<ele>3572</ele>
<time>2016-10-10T16:05:54Z</time>
</trkpt>
<trkpt lat="37.074127197265625" lon="-118.4539566040039">
<ele>3574</ele>
<time>2016-10-10T16:06:02Z</time>
</trkpt>
<trkpt lat="37.0740852355957" lon="-118.45392608642578">
<ele>3576</ele>
<time>2016-10-10T16:06:10Z</time>
</trkpt>
<trkpt lat="37.074031829833984" lon="-118.45391082763672">
<ele>3579</ele>
<time>2016-10-10T16:06:23Z</time>
</trkpt>
<trkpt lat="37.07400894165039" lon="-118.4539566040039">
<ele>3579</ele>
<time>2016-10-10T16:06:30Z</time>
</trkpt>
<trkpt lat="37.073944091796875" lon="-118.45401000976563">
<ele>3580</ele>
<time>2016-10-10T16:07:05Z</time>
</trkpt>
<trkpt lat="37.07389831542969" lon="-118.4540023803711">
<ele>3584</ele>
<time>2016-10-10T16:07:17Z</time>
</trkpt>
<trkpt lat="37.07381057739258" lon="-118.45401763916016">
<ele>3585</ele>
<time>2016-10-10T16:07:29Z</time>
</trkpt>
<trkpt lat="37.07374572753906" lon="-118.45406341552734">
<ele>3588</ele>
<time>2016-10-10T16:07:42Z</time>
</trkpt>
<trkpt lat="37.07368469238281" lon="-118.45405578613281">
<ele>3593</ele>
<time>2016-10-10T16:08:08Z</time>
</trkpt>
<trkpt lat="37.07364273071289" lon="-118.45408630371094">
<ele>3594</ele>
<time>2016-10-10T16:08:18Z</time>
</trkpt>
<trkpt lat="37.07360076904297" lon="-118.45411682128906">
<ele>3593</ele>
<time>2016-10-10T16:08:24Z</time>
</trkpt>
<trkpt lat="37.073551177978516" lon="-118.45410919189453">
<ele>3595</ele>
<time>2016-10-10T16:08:31Z</time>
</trkpt>
<trkpt lat="37.073490142822266" lon="-118.45413970947266">
<ele>3594</ele>
<time>2016-10-10T16:09:12Z</time>
</trkpt>
<trkpt lat="37.07344436645508" lon="-118.45414733886719">
<ele>3596</ele>
<time>2016-10-10T16:09:31Z</time>
</trkpt>
<trkpt lat="37.073429107666016" lon="-118.4542007446289">
<ele>3601</ele>
<time>2016-10-10T16:09:54Z</time>
</trkpt>
<trkpt lat="37.0733757019043" lon="-118.45418548583984">
<ele>3601</ele>
<time>2016-10-10T16:10:07Z</time>
</trkpt>
<trkpt lat="37.073333740234375" lon="-118.4542007446289">
<ele>3601</ele>
<time>2016-10-10T16:10:14Z</time>
</trkpt>
<trkpt lat="37.073299407958984" lon="-118.45429992675781">
<ele>3610</ele>
<time>2016-10-10T16:11:00Z</time>
</trkpt>
<trkpt lat="37.0732536315918" lon="-118.45428466796875">
<ele>3610</ele>
<time>2016-10-10T16:11:20Z</time>
</trkpt>
<trkpt lat="37.07320785522461" lon="-118.45429229736328">
<ele>3611</ele>
<time>2016-10-10T16:11:50Z</time>
</trkpt>
<trkpt lat="37.073184967041016" lon="-118.454345703125">
<ele>3613</ele>
<time>2016-10-10T16:12:06Z</time>
</trkpt>
<trkpt lat="37.073143005371094" lon="-118.45437622070313">
<ele>3617</ele>
<time>2016-10-10T16:12:22Z</time>
</trkpt>
<trkpt lat="37.073123931884766" lon="-118.4543228149414">
<ele>3623</ele>
<time>2016-10-10T16:12:39Z</time>
</trkpt>
<trkpt lat="37.0731201171875" lon="-118.45440673828125">
<ele>3625</ele>
<time>2016-10-10T16:14:30Z</time>
</trkpt>
<trkpt lat="37.07305145263672" lon="-118.45447540283203">
<ele>3628</ele>
<time>2016-10-10T16:15:01Z</time>
</trkpt>
<trkpt lat="37.0730094909668" lon="-118.45445251464844">
<ele>3628</ele>
<time>2016-10-10T16:15:17Z</time>
</trkpt>
<trkpt lat="37.072959899902344" lon="-118.4544448852539">
<ele>3629</ele>
<time>2016-10-10T16:15:42Z</time>
</trkpt>
<trkpt lat="37.07291793823242" lon="-118.45441436767578">
<ele>3626</ele>
<time>2016-10-10T16:15:49Z</time>
</trkpt>
<trkpt lat="37.07290267944336" lon="-118.45451354980469">
<ele>3623</ele>
<time>2016-10-10T16:16:03Z</time>
</trkpt>
<trkpt lat="37.072818756103516" lon="-118.45458984375">
<ele>3622</ele>
<time>2016-10-10T16:16:11Z</time>
</trkpt>
<trkpt lat="37.072776794433594" lon="-118.45457458496094">
<ele>3617</ele>
<time>2016-10-10T16:16:21Z</time>
</trkpt>
<trkpt lat="37.07268142700195" lon="-118.45459747314453">
<ele>3613</ele>
<time>2016-10-10T16:16:32Z</time>
</trkpt>
<trkpt lat="37.072669982910156" lon="-118.45465850830078">
<ele>3617</ele>
<time>2016-10-10T16:16:46Z</time>
</trkpt>
<trkpt lat="37.0726318359375" lon="-118.45470428466797">
<ele>3617</ele>
<time>2016-10-10T16:16:52Z</time>
</trkpt>
<trkpt lat="37.07258605957031" lon="-118.45475006103516">
<ele>3616</ele>
<time>2016-10-10T16:16:59Z</time>
</trkpt>
<trkpt lat="37.07253646850586" lon="-118.45475769042969">
<ele>3614</ele>
<time>2016-10-10T16:17:54Z</time>
</trkpt>
<trkpt lat="37.0725212097168" lon="-118.45481872558594">
<ele>3616</ele>
<time>2016-10-10T16:18:20Z</time>
</trkpt>
<trkpt lat="37.07242202758789" lon="-118.45487213134766">
<ele>3614</ele>
<time>2016-10-10T16:18:33Z</time>
</trkpt>
<trkpt lat="37.07234573364258" lon="-118.4549560546875">
<ele>3615</ele>
<time>2016-10-10T16:18:43Z</time>
</trkpt>
<trkpt lat="37.07229995727539" lon="-118.45503997802734">
<ele>3618</ele>
<time>2016-10-10T16:19:02Z</time>
</trkpt>
<trkpt lat="37.072296142578125" lon="-118.4551010131836">
<ele>3619</ele>
<time>2016-10-10T16:19:08Z</time>
</trkpt>
<trkpt lat="37.07229995727539" lon="-118.45516204833984">
<ele>3620</ele>
<time>2016-10-10T16:19:25Z</time>
</trkpt>
<trkpt lat="37.072303771972656" lon="-118.4552230834961">
<ele>3620</ele>
<time>2016-10-10T16:19:33Z</time>
</trkpt>
<trkpt lat="37.072349548339844" lon="-118.4552230834961">
<ele>3623</ele>
<time>2016-10-10T16:19:49Z</time>
</trkpt>
<trkpt lat="37.072418212890625" lon="-118.45528411865234">
<ele>3629</ele>
<time>2016-10-10T16:20:23Z</time>
</trkpt>
<trkpt lat="37.07246017456055" lon="-118.45530700683594">
<ele>3626</ele>
<time>2016-10-10T16:20:30Z</time>
</trkpt>
<trkpt lat="37.07250213623047" lon="-118.45528411865234">
<ele>3626</ele>
<time>2016-10-10T16:20:48Z</time>
</trkpt>
<trkpt lat="37.072513580322266" lon="-118.45535278320313">
<ele>3623</ele>
<time>2016-10-10T16:21:05Z</time>
</trkpt>
<trkpt lat="37.07255554199219" lon="-118.45538330078125">
<ele>3625</ele>
<time>2016-10-10T16:21:20Z</time>
</trkpt>
<trkpt lat="37.072601318359375" lon="-118.45538330078125">
<ele>3640</ele>
<time>2016-10-10T16:21:51Z</time>
</trkpt>
<trkpt lat="37.07258987426758" lon="-118.45545196533203">
<ele>3644</ele>
<time>2016-10-10T16:22:01Z</time>
</trkpt>
<trkpt lat="37.07256317138672" lon="-118.45550537109375">
<ele>3645</ele>
<time>2016-10-10T16:22:11Z</time>
</trkpt>
<trkpt lat="37.07252883911133" lon="-118.4555435180664">
<ele>3653</ele>
<time>2016-10-10T16:23:54Z</time>
</trkpt>
<trkpt lat="37.072540283203125" lon="-118.45559692382813">
<ele>3652</ele>
<time>2016-10-10T16:24:02Z</time>
</trkpt>
<trkpt lat="37.07258987426758" lon="-118.45561218261719">
<ele>3659</ele>
<time>2016-10-10T16:24:43Z</time>
</trkpt>
<trkpt lat="37.07263946533203" lon="-118.45561981201172">
<ele>3661</ele>
<time>2016-10-10T16:24:53Z</time>
</trkpt>
<trkpt lat="37.072608947753906" lon="-118.4556655883789">
<ele>3660</ele>
<time>2016-10-10T16:25:06Z</time>
</trkpt>
<trkpt lat="37.072547912597656" lon="-118.45563507080078">
<ele>3649</ele>
<time>2016-10-10T16:28:30Z</time>
</trkpt>
</trkseg>
</trk>
<trk>
<name><![CDATA[10100928]]></name>
<number>34</number>
<extensions><topografix:color>ff000066</topografix:color></extensions>
<trkseg>
<trkpt lat="37.072547912597656" lon="-118.45561981201172">
<ele>3649</ele>
<time>2016-10-10T16:28:41Z</time>
</trkpt>
<trkpt lat="37.07258224487305" lon="-118.45565795898438">
<ele>3654</ele>
<time>2016-10-10T16:29:00Z</time>
</trkpt>
<trkpt lat="37.0726203918457" lon="-118.45570373535156">
<ele>3659</ele>
<time>2016-10-10T16:29:50Z</time>
</trkpt>
<trkpt lat="37.07257843017578" lon="-118.45572662353516">
<ele>3655</ele>
<time>2016-10-10T16:32:16Z</time>
</trkpt>
<trkpt lat="37.07254409790039" lon="-118.45578002929688">
<ele>3651</ele>
<time>2016-10-10T16:32:37Z</time>
</trkpt>
<trkpt lat="37.07257843017578" lon="-118.45582580566406">
<ele>3653</ele>
<time>2016-10-10T16:32:52Z</time>
</trkpt>
<trkpt lat="37.07261657714844" lon="-118.45586395263672">
<ele>3650</ele>
<time>2016-10-10T16:33:01Z</time>
</trkpt>
<trkpt lat="37.072593688964844" lon="-118.45591735839844">
<ele>3654</ele>
<time>2016-10-10T16:33:10Z</time>
</trkpt>
<trkpt lat="37.0726432800293" lon="-118.45591735839844">
<ele>3656</ele>
<time>2016-10-10T16:33:21Z</time>
</trkpt>
<trkpt lat="37.072689056396484" lon="-118.45594024658203">
<ele>3658</ele>
<time>2016-10-10T16:33:28Z</time>
</trkpt>
<trkpt lat="37.07262420654297" lon="-118.45600891113281">
<ele>3650</ele>
<time>2016-10-10T16:33:53Z</time>
</trkpt>
<trkpt lat="37.072669982910156" lon="-118.45603942871094">
<ele>3650</ele>
<time>2016-10-10T16:34:08Z</time>
</trkpt>
<trkpt lat="37.072654724121094" lon="-118.45610046386719">
<ele>3655</ele>
<time>2016-10-10T16:34:27Z</time>
</trkpt>
<trkpt lat="37.07261657714844" lon="-118.45613861083984">
<ele>3653</ele>
<time>2016-10-10T16:34:38Z</time>
</trkpt>
<trkpt lat="37.07257080078125" lon="-118.45619201660156">
<ele>3652</ele>
<time>2016-10-10T16:35:33Z</time>
</trkpt>
<trkpt lat="37.07249069213867" lon="-118.45616149902344">
<ele>3651</ele>
<time>2016-10-10T16:37:14Z</time>
</trkpt>
<trkpt lat="37.07244873046875" lon="-118.4561767578125">
<ele>3655</ele>
<time>2016-10-10T16:37:38Z</time>
</trkpt>
<trkpt lat="37.072391510009766" lon="-118.4561996459961">
<ele>3654</ele>
<time>2016-10-10T16:37:50Z</time>
</trkpt>
<trkpt lat="37.072357177734375" lon="-118.45623779296875">
<ele>3652</ele>
<time>2016-10-10T16:37:56Z</time>
</trkpt>
<trkpt lat="37.07231521606445" lon="-118.4562759399414">
<ele>3655</ele>
<time>2016-10-10T16:38:12Z</time>
</trkpt>
<trkpt lat="37.07221984863281" lon="-118.45626831054688">
<ele>3646</ele>
<time>2016-10-10T16:38:25Z</time>
</trkpt>
<trkpt lat="37.07217025756836" lon="-118.45628356933594">
<ele>3655</ele>
<time>2016-10-10T16:39:08Z</time>
</trkpt>
<trkpt lat="37.072120666503906" lon="-118.45628356933594">
<ele>3656</ele>
<time>2016-10-10T16:39:35Z</time>
</trkpt>
<trkpt lat="37.07204818725586" lon="-118.45630645751953">
<ele>3668</ele>
<time>2016-10-10T16:40:33Z</time>
</trkpt>
<trkpt lat="37.07200241088867" lon="-118.45634460449219">
<ele>3673</ele>
<time>2016-10-10T16:40:55Z</time>
</trkpt>
<trkpt lat="37.07195281982422" lon="-118.45633697509766">
<ele>3672</ele>
<time>2016-10-10T16:41:10Z</time>
</trkpt>
<trkpt lat="37.07187271118164" lon="-118.45635986328125">
<ele>3673</ele>
<time>2016-10-10T16:42:22Z</time>
</trkpt>
<trkpt lat="37.07183837890625" lon="-118.4563980102539">
<ele>3672</ele>
<time>2016-10-10T16:42:29Z</time>
</trkpt>
<trkpt lat="37.071807861328125" lon="-118.45651245117188">
<ele>3684</ele>
<time>2016-10-10T16:43:20Z</time>
</trkpt>
<trkpt lat="37.0717887878418" lon="-118.4565658569336">
<ele>3684</ele>
<time>2016-10-10T16:43:33Z</time>
</trkpt>
<trkpt lat="37.07176971435547" lon="-118.45662689208984">
<ele>3685</ele>
<time>2016-10-10T16:43:55Z</time>
</trkpt>
<trkpt lat="37.07172393798828" lon="-118.45661926269531">
<ele>3683</ele>
<time>2016-10-10T16:44:08Z</time>
</trkpt>
<trkpt lat="37.071678161621094" lon="-118.45660400390625">
<ele>3684</ele>
<time>2016-10-10T16:44:29Z</time>
</trkpt>
<trkpt lat="37.07160186767578" lon="-118.45662689208984">
<ele>3684</ele>
<time>2016-10-10T16:46:08Z</time>
</trkpt>
<trkpt lat="37.07157897949219" lon="-118.45668029785156">
<ele>3686</ele>
<time>2016-10-10T16:46:16Z</time>
</trkpt>
<trkpt lat="37.07157516479492" lon="-118.45661926269531">
<ele>3685</ele>
<time>2016-10-10T16:46:32Z</time>
</trkpt>
<trkpt lat="37.071510314941406" lon="-118.4565658569336">
<ele>3690</ele>
<time>2016-10-10T16:47:04Z</time>
</trkpt>
<trkpt lat="37.07148361206055" lon="-118.45661926269531">
<ele>3685</ele>
<time>2016-10-10T16:47:25Z</time>
</trkpt>
<trkpt lat="37.07143020629883" lon="-118.45663452148438">
<ele>3688</ele>
<time>2016-10-10T16:47:52Z</time>
</trkpt>
<trkpt lat="37.071434020996094" lon="-118.4566879272461">
<ele>3699</ele>
<time>2016-10-10T16:48:24Z</time>
</trkpt>
<trkpt lat="37.07136535644531" lon="-118.45673370361328">
<ele>3695</ele>
<time>2016-10-10T16:49:40Z</time>
</trkpt>
<trkpt lat="37.07131576538086" lon="-118.4566421508789">
<ele>3701</ele>
<time>2016-10-10T16:51:26Z</time>
</trkpt>
<trkpt lat="37.071258544921875" lon="-118.45665740966797">
<ele>3706</ele>
<time>2016-10-10T16:52:41Z</time>
</trkpt>
<trkpt lat="37.07123947143555" lon="-118.45674133300781">
<ele>3714</ele>
<time>2016-10-10T16:54:00Z</time>
</trkpt>
<trkpt lat="37.071205139160156" lon="-118.45670318603516">
<ele>3708</ele>
<time>2016-10-10T16:54:32Z</time>
</trkpt>
<trkpt lat="37.07115936279297" lon="-118.45670318603516">
<ele>3705</ele>
<time>2016-10-10T16:54:59Z</time>
</trkpt>
<trkpt lat="37.071109771728516" lon="-118.45671844482422">
<ele>3700</ele>
<time>2016-10-10T16:55:14Z</time>
</trkpt>
<trkpt lat="37.071075439453125" lon="-118.45675659179688">
<ele>3702</ele>
<time>2016-10-10T16:55:38Z</time>
</trkpt>
<trkpt lat="37.071067810058594" lon="-118.45682525634766">
<ele>3707</ele>
<time>2016-10-10T16:56:02Z</time>
</trkpt>
<trkpt lat="37.07103729248047" lon="-118.45677947998047">
<ele>3699</ele>
<time>2016-10-10T16:56:31Z</time>
</trkpt>
<trkpt lat="37.071083068847656" lon="-118.45684051513672">
<ele>3710</ele>
<time>2016-10-10T16:58:38Z</time>
</trkpt>
<trkpt lat="37.07109451293945" lon="-118.45677185058594">
<ele>3710</ele>
<time>2016-10-10T17:00:04Z</time>
</trkpt>
<trkpt lat="37.07103729248047" lon="-118.45679473876953">
<ele>3710</ele>
<time>2016-10-10T17:05:41Z</time>
</trkpt>
<trkpt lat="37.07098388671875" lon="-118.45679473876953">
<ele>3706</ele>
<time>2016-10-10T17:06:03Z</time>
</trkpt>
<trkpt lat="37.07094192504883" lon="-118.45680236816406">
<ele>3706</ele>
<time>2016-10-10T17:09:00Z</time>
</trkpt>
<trkpt lat="37.07088088989258" lon="-118.45682525634766">
<ele>3708</ele>
<time>2016-10-10T17:12:11Z</time>
</trkpt>
<trkpt lat="37.07086181640625" lon="-118.45677185058594">
<ele>3709</ele>
<time>2016-10-10T17:12:32Z</time>
</trkpt>
<trkpt lat="37.0707893371582" lon="-118.456787109375">
<ele>3705</ele>
<time>2016-10-10T17:14:09Z</time>
</trkpt>
<trkpt lat="37.07077407836914" lon="-118.45684814453125">
<ele>3713</ele>
<time>2016-10-10T17:15:41Z</time>
</trkpt>
<trkpt lat="37.07071304321289" lon="-118.45679473876953">
<ele>3700</ele>
<time>2016-10-10T17:18:05Z</time>
</trkpt>
<trkpt lat="37.0706672668457" lon="-118.45683288574219">
<ele>3706</ele>
<time>2016-10-10T17:19:30Z</time>
</trkpt>
<trkpt lat="37.07063293457031" lon="-118.45687103271484">
<ele>3712</ele>
<time>2016-10-10T17:20:15Z</time>
</trkpt>
<trkpt lat="37.070587158203125" lon="-118.45684814453125">
<ele>3718</ele>
<time>2016-10-10T17:20:42Z</time>
</trkpt>
<trkpt lat="37.070556640625" lon="-118.45690155029297">
<ele>3712</ele>
<time>2016-10-10T17:21:04Z</time>
</trkpt>
<trkpt lat="37.07047653198242" lon="-118.45695495605469">
<ele>3722</ele>
<time>2016-10-10T17:22:10Z</time>
</trkpt>
<trkpt lat="37.070396423339844" lon="-118.45693969726563">
<ele>3713</ele>
<time>2016-10-10T17:23:38Z</time>
</trkpt>
<trkpt lat="37.0704345703125" lon="-118.45697784423828">
<ele>3719</ele>
<time>2016-10-10T17:24:07Z</time>
</trkpt>
<trkpt lat="37.07038879394531" lon="-118.45698547363281">
<ele>3726</ele>
<time>2016-10-10T17:24:30Z</time>
</trkpt>
<trkpt lat="37.070350646972656" lon="-118.45694732666016">
<ele>3725</ele>
<time>2016-10-10T17:24:37Z</time>
</trkpt>
<trkpt lat="37.07040786743164" lon="-118.45691680908203">
<ele>3729</ele>
<time>2016-10-10T17:24:50Z</time>
</trkpt>
<trkpt lat="37.07038116455078" lon="-118.45697021484375">
<ele>3725</ele>
<time>2016-10-10T17:25:07Z</time>
</trkpt>
<trkpt lat="37.0703125" lon="-118.45695495605469">
<ele>3730</ele>
<time>2016-10-10T17:26:28Z</time>
</trkpt>
<trkpt lat="37.07027053833008" lon="-118.4568862915039">
<ele>3733</ele>
<time>2016-10-10T17:27:04Z</time>
</trkpt>
</trkseg>
</trk>
<trk>
<name><![CDATA[10101232]]></name>
<number>35</number>
<extensions><topografix:color>ff000066</topografix:color></extensions>
<trkseg>
<trkpt lat="37.06662368774414" lon="-118.4552230834961">
<ele>3772</ele>
<time>2016-10-10T19:32:47Z</time>
</trkpt>
<trkpt lat="37.06658172607422" lon="-118.45519256591797">
<ele>3755</ele>
<time>2016-10-10T19:33:47Z</time>
</trkpt>
<trkpt lat="37.06654739379883" lon="-118.45515441894531">
<ele>3755</ele>
<time>2016-10-10T19:34:00Z</time>
</trkpt>
<trkpt lat="37.06656265258789" lon="-118.4551010131836">
<ele>3755</ele>
<time>2016-10-10T19:34:10Z</time>
</trkpt>
<trkpt lat="37.066524505615234" lon="-118.45507049560547">
<ele>3748</ele>
<time>2016-10-10T19:34:42Z</time>
</trkpt>
<trkpt lat="37.06647872924805" lon="-118.4550552368164">
<ele>3744</ele>
<time>2016-10-10T19:34:58Z</time>
</trkpt>
<trkpt lat="37.06646728515625" lon="-118.45499420166016">
<ele>3740</ele>
<time>2016-10-10T19:35:16Z</time>
</trkpt>
<trkpt lat="37.066463470458984" lon="-118.4549331665039">
<ele>3736</ele>
<time>2016-10-10T19:35:26Z</time>
</trkpt>
<trkpt lat="37.06643295288086" lon="-118.45488739013672">
<ele>3734</ele>
<time>2016-10-10T19:35:41Z</time>
</trkpt>
<trkpt lat="37.06638717651367" lon="-118.45486450195313">
<ele>3731</ele>
<time>2016-10-10T19:35:51Z</time>
</trkpt>
<trkpt lat="37.06636047363281" lon="-118.45481872558594">
<ele>3728</ele>
<time>2016-10-10T19:36:12Z</time>
</trkpt>
<trkpt lat="37.066314697265625" lon="-118.45478820800781">
<ele>3725</ele>
<time>2016-10-10T19:36:21Z</time>
</trkpt>
<trkpt lat="37.06632614135742" lon="-118.4547348022461">
<ele>3731</ele>
<time>2016-10-10T19:36:39Z</time>
</trkpt>
<trkpt lat="37.06632614135742" lon="-118.45468139648438">
<ele>3721</ele>
<time>2016-10-10T19:37:01Z</time>
</trkpt>
<trkpt lat="37.066287994384766" lon="-118.45465087890625">
<ele>3722</ele>
<time>2016-10-10T19:37:13Z</time>
</trkpt>
<trkpt lat="37.066246032714844" lon="-118.45455932617188">
<ele>3726</ele>
<time>2016-10-10T19:39:56Z</time>
</trkpt>
<trkpt lat="37.06621551513672" lon="-118.45451354980469">
<ele>3712</ele>
<time>2016-10-10T19:40:21Z</time>
</trkpt>
<trkpt lat="37.066165924072266" lon="-118.45449829101563">
<ele>3713</ele>
<time>2016-10-10T19:40:36Z</time>
</trkpt>
<trkpt lat="37.06612014770508" lon="-118.45448303222656">
<ele>3707</ele>
<time>2016-10-10T19:43:47Z</time>
</trkpt>
<trkpt lat="37.066078186035156" lon="-118.45449829101563">
<ele>3721</ele>
<time>2016-10-10T19:49:30Z</time>
</trkpt>
<trkpt lat="37.0660400390625" lon="-118.4544677734375">
<ele>3723</ele>
<time>2016-10-10T19:49:45Z</time>
</trkpt>
<trkpt lat="37.06608963012695" lon="-118.45449829101563">
<ele>3713</ele>
<time>2016-10-10T19:50:15Z</time>
</trkpt>
<trkpt lat="37.066062927246094" lon="-118.45440673828125">
<ele>3708</ele>
<time>2016-10-10T19:50:57Z</time>
</trkpt>
<trkpt lat="37.066062927246094" lon="-118.45431518554688">
<ele>3711</ele>
<time>2016-10-10T19:52:11Z</time>
</trkpt>
</trkseg>
</trk>
<trk>
<name><![CDATA[10101347]]></name>
<number>36</number>
<extensions><topografix:color>ff000066</topografix:color></extensions>
<trkseg>
<trkpt lat="37.06718063354492" lon="-118.45123291015625">
<ele>3782</ele>
<time>2016-10-10T20:47:14Z</time>
</trkpt>
<trkpt lat="37.06722640991211" lon="-118.45121765136719">
<ele>3789</ele>
<time>2016-10-10T20:48:01Z</time>
</trkpt>
<trkpt lat="37.067237854003906" lon="-118.45115661621094">
<ele>3791</ele>
<time>2016-10-10T20:48:23Z</time>
</trkpt>
<trkpt lat="37.067283630371094" lon="-118.45116424560547">
<ele>3795</ele>
<time>2016-10-10T20:48:56Z</time>
</trkpt>
<trkpt lat="37.06728744506836" lon="-118.45122528076172">
<ele>3793</ele>
<time>2016-10-10T20:49:08Z</time>
</trkpt>
<trkpt lat="37.06733322143555" lon="-118.45121765136719">
<ele>3802</ele>
<time>2016-10-10T20:49:28Z</time>
</trkpt>
<trkpt lat="37.067378997802734" lon="-118.45121765136719">
<ele>3804</ele>
<time>2016-10-10T20:50:08Z</time>
</trkpt>
<trkpt lat="37.06742477416992" lon="-118.45120239257813">
<ele>3804</ele>
<time>2016-10-10T20:50:36Z</time>
</trkpt>
<trkpt lat="37.06747055053711" lon="-118.45120239257813">
<ele>3808</ele>
<time>2016-10-10T20:51:01Z</time>
</trkpt>
<trkpt lat="37.06749725341797" lon="-118.45124816894531">
<ele>3817</ele>
<time>2016-10-10T20:51:39Z</time>
</trkpt>
<trkpt lat="37.067501068115234" lon="-118.4511947631836">
<ele>3815</ele>
<time>2016-10-10T20:52:05Z</time>
</trkpt>
<trkpt lat="37.06755828857422" lon="-118.45122528076172">
<ele>3820</ele>
<time>2016-10-10T20:52:22Z</time>
</trkpt>
<trkpt lat="37.0676155090332" lon="-118.45121002197266">
<ele>3826</ele>
<time>2016-10-10T20:53:26Z</time>
</trkpt>
<trkpt lat="37.067665100097656" lon="-118.45121765136719">
<ele>3826</ele>
<time>2016-10-10T20:53:39Z</time>
</trkpt>
<trkpt lat="37.0676155090332" lon="-118.45121765136719">
<ele>3828</ele>
<time>2016-10-10T20:54:03Z</time>
</trkpt>
<trkpt lat="37.06768035888672" lon="-118.45120239257813">
<ele>3828</ele>
<time>2016-10-10T20:54:32Z</time>
</trkpt>
<trkpt lat="37.06772994995117" lon="-118.4511947631836">
<ele>3826</ele>
<time>2016-10-10T20:54:38Z</time>
</trkpt>
<trkpt lat="37.06777572631836" lon="-118.45121002197266">
<ele>3832</ele>
<time>2016-10-10T20:55:02Z</time>
</trkpt>
<trkpt lat="37.06782531738281" lon="-118.45124053955078">
<ele>3841</ele>
<time>2016-10-10T20:56:42Z</time>
</trkpt>
<trkpt lat="37.067874908447266" lon="-118.45123291015625">
<ele>3844</ele>
<time>2016-10-10T20:57:11Z</time>
</trkpt>
<trkpt lat="37.06792449951172" lon="-118.45130920410156">
<ele>3854</ele>
<time>2016-10-10T21:00:37Z</time>
</trkpt>
<trkpt lat="37.06791687011719" lon="-118.45137023925781">
<ele>3851</ele>
<time>2016-10-10T21:01:01Z</time>
</trkpt>
<trkpt lat="37.06798553466797" lon="-118.45142364501953">
<ele>3857</ele>
<time>2016-10-10T21:02:07Z</time>
</trkpt>
<trkpt lat="37.06803512573242" lon="-118.45144653320313">
<ele>3858</ele>
<time>2016-10-10T21:02:24Z</time>
</trkpt>
<trkpt lat="37.06808090209961" lon="-118.45150756835938">
<ele>3867</ele>
<time>2016-10-10T21:03:33Z</time>
</trkpt>
<trkpt lat="37.06809997558594" lon="-118.4515609741211">
<ele>3867</ele>
<time>2016-10-10T21:03:42Z</time>
</trkpt>
<trkpt lat="37.06812286376953" lon="-118.45161437988281">
<ele>3866</ele>
<time>2016-10-10T21:04:06Z</time>
</trkpt>
<trkpt lat="37.06808090209961" lon="-118.4516372680664">
<ele>3864</ele>
<time>2016-10-10T21:05:14Z</time>
</trkpt>
<trkpt lat="37.06803894042969" lon="-118.45167541503906">
<ele>3851</ele>
<time>2016-10-10T21:05:57Z</time>
</trkpt>
<trkpt lat="37.06808090209961" lon="-118.45159912109375">
<ele>3861</ele>
<time>2016-10-10T21:06:41Z</time>
</trkpt>
<trkpt lat="37.06812286376953" lon="-118.4515609741211">
<ele>3860</ele>
<time>2016-10-10T21:06:56Z</time>
</trkpt>
<trkpt lat="37.06814956665039" lon="-118.45150756835938">
<ele>3867</ele>
<time>2016-10-10T21:08:14Z</time>
</trkpt>
<trkpt lat="37.068206787109375" lon="-118.45146179199219">
<ele>3869</ele>
<time>2016-10-10T21:09:32Z</time>
</trkpt>
<trkpt lat="37.06821823120117" lon="-118.45140075683594">
<ele>3874</ele>
<time>2016-10-10T21:10:04Z</time>
</trkpt>
<trkpt lat="37.068260192871094" lon="-118.45136260986328">
<ele>3879</ele>
<time>2016-10-10T21:10:14Z</time>
</trkpt>
<trkpt lat="37.0682487487793" lon="-118.45130157470703">
<ele>3883</ele>
<time>2016-10-10T21:10:26Z</time>
</trkpt>
<trkpt lat="37.06824493408203" lon="-118.45124053955078">
<ele>3880</ele>
<time>2016-10-10T21:10:39Z</time>
</trkpt>
<trkpt lat="37.06828308105469" lon="-118.45121002197266">
<ele>3882</ele>
<time>2016-10-10T21:11:03Z</time>
</trkpt>
<trkpt lat="37.06834030151367" lon="-118.45115661621094">
<ele>3893</ele>
<time>2016-10-10T21:11:34Z</time>
</trkpt>
<trkpt lat="37.068382263183594" lon="-118.45112609863281">
<ele>3893</ele>
<time>2016-10-10T21:11:55Z</time>
</trkpt>
<trkpt lat="37.06837844848633" lon="-118.4510726928711">
<ele>3889</ele>
<time>2016-10-10T21:12:07Z</time>
</trkpt>
<trkpt lat="37.06840515136719" lon="-118.45100402832031">
<ele>3893</ele>
<time>2016-10-10T21:12:31Z</time>
</trkpt>
<trkpt lat="37.06839370727539" lon="-118.45094299316406">
<ele>3887</ele>
<time>2016-10-10T21:13:06Z</time>
</trkpt>
<trkpt lat="37.06843185424805" lon="-118.45089721679688">
<ele>3892</ele>
<time>2016-10-10T21:13:37Z</time>
</trkpt>
<trkpt lat="37.068389892578125" lon="-118.45085906982422">
<ele>3894</ele>
<time>2016-10-10T21:13:55Z</time>
</trkpt>
<trkpt lat="37.06840515136719" lon="-118.45079040527344">
<ele>3897</ele>
<time>2016-10-10T21:14:26Z</time>
</trkpt>
<trkpt lat="37.068397521972656" lon="-118.45073699951172">
<ele>3897</ele>
<time>2016-10-10T21:15:01Z</time>
</trkpt>
<trkpt lat="37.068424224853516" lon="-118.4506607055664">
<ele>3898</ele>
<time>2016-10-10T21:16:09Z</time>
</trkpt>
<trkpt lat="37.06852722167969" lon="-118.45068359375">
<ele>3894</ele>
<time>2016-10-10T21:16:22Z</time>
</trkpt>
<trkpt lat="37.068580627441406" lon="-118.45063018798828">
<ele>3896</ele>
<time>2016-10-10T21:16:33Z</time>
</trkpt>
<trkpt lat="37.068565368652344" lon="-118.45057678222656">
<ele>3894</ele>
<time>2016-10-10T21:16:45Z</time>
</trkpt>
<trkpt lat="37.06857681274414" lon="-118.45051574707031">
<ele>3897</ele>
<time>2016-10-10T21:17:04Z</time>
</trkpt>
<trkpt lat="37.06863021850586" lon="-118.45050048828125">
<ele>3900</ele>
<time>2016-10-10T21:17:13Z</time>
</trkpt>
<trkpt lat="37.06871032714844" lon="-118.45048522949219">
<ele>3908</ele>
<time>2016-10-10T21:17:55Z</time>
</trkpt>
<trkpt lat="37.06875991821289" lon="-118.45050048828125">
<ele>3900</ele>
<time>2016-10-10T21:18:14Z</time>
</trkpt>
<trkpt lat="37.06870651245117" lon="-118.45050811767578">
<ele>3913</ele>
<time>2016-10-10T21:18:33Z</time>
</trkpt>
<trkpt lat="37.06867218017578" lon="-118.4505386352539">
<ele>3914</ele>
<time>2016-10-10T21:18:41Z</time>
</trkpt>
<trkpt lat="37.0687255859375" lon="-118.45045471191406">
<ele>3909</ele>
<time>2016-10-10T21:19:50Z</time>
</trkpt>
<trkpt lat="37.06871032714844" lon="-118.45040130615234">
<ele>3908</ele>
<time>2016-10-10T21:20:00Z</time>
</trkpt>
<trkpt lat="37.0687370300293" lon="-118.45035552978516">
<ele>3912</ele>
<time>2016-10-10T21:20:07Z</time>
</trkpt>
<trkpt lat="37.0687370300293" lon="-118.4502944946289">
<ele>3909</ele>
<time>2016-10-10T21:20:13Z</time>
</trkpt>
<trkpt lat="37.06880569458008" lon="-118.45025634765625">
<ele>3916</ele>
<time>2016-10-10T21:21:12Z</time>
</trkpt>
<trkpt lat="37.06880569458008" lon="-118.4501724243164">
<ele>3919</ele>
<time>2016-10-10T21:21:22Z</time>
</trkpt>
<trkpt lat="37.068843841552734" lon="-118.45014190673828">
<ele>3917</ele>
<time>2016-10-10T21:21:52Z</time>
</trkpt>
<trkpt lat="37.068870544433594" lon="-118.45005798339844">
<ele>3917</ele>
<time>2016-10-10T21:22:51Z</time>
</trkpt>
<trkpt lat="37.06889343261719" lon="-118.45000457763672">
<ele>3919</ele>
<time>2016-10-10T21:23:09Z</time>
</trkpt>
<trkpt lat="37.068904876708984" lon="-118.44992065429688">
<ele>3925</ele>
<time>2016-10-10T21:23:51Z</time>
</trkpt>
<trkpt lat="37.06889724731445" lon="-118.4498519897461">
<ele>3926</ele>
<time>2016-10-10T21:24:43Z</time>
</trkpt>
<trkpt lat="37.06895065307617" lon="-118.44986724853516">
<ele>3926</ele>
<time>2016-10-10T21:25:10Z</time>
</trkpt>
<trkpt lat="37.06899642944336" lon="-118.44989013671875">
<ele>3922</ele>
<time>2016-10-10T21:26:08Z</time>
</trkpt>
<trkpt lat="37.068939208984375" lon="-118.44990539550781">
<ele>3929</ele>
<time>2016-10-10T21:27:56Z</time>
</trkpt>
<trkpt lat="37.06888198852539" lon="-118.4498519897461">
<ele>3930</ele>
<time>2016-10-10T21:29:37Z</time>
</trkpt>
<trkpt lat="37.06892395019531" lon="-118.44976806640625">
<ele>3921</ele>
<time>2016-10-10T21:32:40Z</time>
</trkpt>
<trkpt lat="37.06889343261719" lon="-118.44972229003906">
<ele>3926</ele>
<time>2016-10-10T21:33:02Z</time>
</trkpt>
<trkpt lat="37.06885528564453" lon="-118.44975280761719">
<ele>3925</ele>
<time>2016-10-10T21:33:14Z</time>
</trkpt>
<trkpt lat="37.06890106201172" lon="-118.44972229003906">
<ele>3925</ele>
<time>2016-10-10T21:33:26Z</time>
</trkpt>
<trkpt lat="37.068946838378906" lon="-118.44970703125">
<ele>3904</ele>
<time>2016-10-10T21:34:01Z</time>
</trkpt>
<trkpt lat="37.06890106201172" lon="-118.44972229003906">
<ele>3913</ele>
<time>2016-10-10T21:34:23Z</time>
</trkpt>
<trkpt lat="37.06886291503906" lon="-118.4496841430664">
<ele>3914</ele>
<time>2016-10-10T21:34:31Z</time>
</trkpt>
<trkpt lat="37.068824768066406" lon="-118.44964599609375">
<ele>3913</ele>
<time>2016-10-10T21:34:37Z</time>
</trkpt>
<trkpt lat="37.068851470947266" lon="-118.44959259033203">
<ele>3914</ele>
<time>2016-10-10T21:34:51Z</time>
</trkpt>
<trkpt lat="37.06885528564453" lon="-118.44953155517578">
<ele>3917</ele>
<time>2016-10-10T21:35:00Z</time>
</trkpt>
<trkpt lat="37.068878173828125" lon="-118.44962310791016">
<ele>3916</ele>
<time>2016-10-10T21:37:32Z</time>
</trkpt>
<trkpt lat="37.068912506103516" lon="-118.44966125488281">
<ele>3914</ele>
<time>2016-10-10T21:38:14Z</time>
</trkpt>
<trkpt lat="37.068912506103516" lon="-118.4496078491211">
<ele>3922</ele>
<time>2016-10-10T21:39:06Z</time>
</trkpt>
<trkpt lat="37.06893539428711" lon="-118.44953918457031">
<ele>3923</ele>
<time>2016-10-10T21:39:42Z</time>
</trkpt>
<trkpt lat="37.06896209716797" lon="-118.4494857788086">
<ele>3922</ele>
<time>2016-10-10T21:40:03Z</time>
</trkpt>
<trkpt lat="37.069007873535156" lon="-118.44947052001953">
<ele>3924</ele>
<time>2016-10-10T21:40:12Z</time>
</trkpt>
<trkpt lat="37.069053649902344" lon="-118.44947052001953">
<ele>3930</ele>
<time>2016-10-10T21:42:08Z</time>
</trkpt>
<trkpt lat="37.06900405883789" lon="-118.4494857788086">
<ele>3931</ele>
<time>2016-10-10T21:42:31Z</time>
</trkpt>
<trkpt lat="37.06895446777344" lon="-118.4494857788086">
<ele>3927</ele>
<time>2016-10-10T21:42:45Z</time>
</trkpt>
<trkpt lat="37.06890106201172" lon="-118.44944763183594">
<ele>3926</ele>
<time>2016-10-10T21:43:14Z</time>
</trkpt>
<trkpt lat="37.06895065307617" lon="-118.44945526123047">
<ele>3929</ele>
<time>2016-10-10T21:44:13Z</time>
</trkpt>
<trkpt lat="37.068904876708984" lon="-118.44944763183594">
<ele>3922</ele>
<time>2016-10-10T21:45:08Z</time>
</trkpt>
<trkpt lat="37.0689582824707" lon="-118.44951629638672">
<ele>3930</ele>
<time>2016-10-10T21:46:36Z</time>
</trkpt>
<trkpt lat="37.06899642944336" lon="-118.44947052001953">
<ele>3937</ele>
<time>2016-10-10T21:48:56Z</time>
</trkpt>
<trkpt lat="37.06901168823242" lon="-118.44938659667969">
<ele>3942</ele>
<time>2016-10-10T21:50:00Z</time>
</trkpt>
<trkpt lat="37.06898498535156" lon="-118.44947814941406">
<ele>3946</ele>
<time>2016-10-10T21:51:39Z</time>
</trkpt>
<trkpt lat="37.0689582824707" lon="-118.44952392578125">
<ele>3951</ele>
<time>2016-10-10T21:52:34Z</time>
</trkpt>
<trkpt lat="37.069000244140625" lon="-118.44950103759766">
<ele>3941</ele>
<time>2016-10-10T21:53:02Z</time>
</trkpt>
<trkpt lat="37.069000244140625" lon="-118.4494400024414">
<ele>3940</ele>
<time>2016-10-10T21:53:09Z</time>
</trkpt>
<trkpt lat="37.069026947021484" lon="-118.44934844970703">
<ele>3937</ele>
<time>2016-10-10T21:53:46Z</time>
</trkpt>
<trkpt lat="37.06904602050781" lon="-118.4492416381836">
<ele>3938</ele>
<time>2016-10-10T21:54:06Z</time>
</trkpt>
<trkpt lat="37.069087982177734" lon="-118.4491958618164">
<ele>3935</ele>
<time>2016-10-10T21:54:20Z</time>
</trkpt>
<trkpt lat="37.06913757324219" lon="-118.44918060302734">
<ele>3936</ele>
<time>2016-10-10T21:54:30Z</time>
</trkpt>
<trkpt lat="37.06918716430664" lon="-118.44921112060547">
<ele>3941</ele>
<time>2016-10-10T21:54:39Z</time>
</trkpt>
<trkpt lat="37.06923294067383" lon="-118.4491958618164">
<ele>3944</ele>
<time>2016-10-10T21:54:52Z</time>
</trkpt>
<trkpt lat="37.06926345825195" lon="-118.44912719726563">
<ele>3951</ele>
<time>2016-10-10T21:55:54Z</time>
</trkpt>
<trkpt lat="37.069313049316406" lon="-118.44912719726563">
<ele>3954</ele>
<time>2016-10-10T21:56:05Z</time>
</trkpt>
<trkpt lat="37.06926727294922" lon="-118.44904327392578">
<ele>3959</ele>
<time>2016-10-10T21:56:35Z</time>
</trkpt>
<trkpt lat="37.06930923461914" lon="-118.44901275634766">
<ele>3960</ele>
<time>2016-10-10T21:56:41Z</time>
</trkpt>
<trkpt lat="37.06935119628906" lon="-118.448974609375">
<ele>3957</ele>
<time>2016-10-10T21:56:51Z</time>
</trkpt>
<trkpt lat="37.06936264038086" lon="-118.44891357421875">
<ele>3956</ele>
<time>2016-10-10T21:56:58Z</time>
</trkpt>
<trkpt lat="37.06939697265625" lon="-118.44886779785156">
<ele>3956</ele>
<time>2016-10-10T21:57:11Z</time>
</trkpt>
<trkpt lat="37.069374084472656" lon="-118.44878387451172">
<ele>3957</ele>
<time>2016-10-10T21:57:22Z</time>
</trkpt>
<trkpt lat="37.06941604614258" lon="-118.44881439208984">
<ele>3956</ele>
<time>2016-10-10T21:57:40Z</time>
</trkpt>
<trkpt lat="37.06940460205078" lon="-118.44886779785156">
<ele>3955</ele>
<time>2016-10-10T21:57:47Z</time>
</trkpt>
<trkpt lat="37.069358825683594" lon="-118.44884490966797">
<ele>3953</ele>
<time>2016-10-10T21:57:56Z</time>
</trkpt>
<trkpt lat="37.069313049316406" lon="-118.4488525390625">
<ele>3950</ele>
<time>2016-10-10T21:58:09Z</time>
</trkpt>
<trkpt lat="37.06924819946289" lon="-118.44877624511719">
<ele>3953</ele>
<time>2016-10-10T21:58:19Z</time>
</trkpt>
<trkpt lat="37.06920623779297" lon="-118.44874572753906">
<ele>3956</ele>
<time>2016-10-10T21:58:26Z</time>
</trkpt>
<trkpt lat="37.06917953491211" lon="-118.44869995117188">
<ele>3957</ele>
<time>2016-10-10T21:58:39Z</time>
</trkpt>
<trkpt lat="37.069244384765625" lon="-118.44866180419922">
<ele>3950</ele>
<time>2016-10-10T21:59:35Z</time>
</trkpt>
<trkpt lat="37.069252014160156" lon="-118.44860076904297">
<ele>3955</ele>
<time>2016-10-10T21:59:58Z</time>
</trkpt>
<trkpt lat="37.06923294067383" lon="-118.44851684570313">
<ele>3961</ele>
<time>2016-10-10T22:00:24Z</time>
</trkpt>
<trkpt lat="37.06922149658203" lon="-118.4484634399414">
<ele>3968</ele>
<time>2016-10-10T22:01:13Z</time>
</trkpt>
<trkpt lat="37.06919860839844" lon="-118.44851684570313">
<ele>3965</ele>
<time>2016-10-10T22:01:30Z</time>
</trkpt>
<trkpt lat="37.06920623779297" lon="-118.44857788085938">
<ele>3968</ele>
<time>2016-10-10T22:01:43Z</time>
</trkpt>
<trkpt lat="37.069210052490234" lon="-118.4486312866211">
<ele>3965</ele>
<time>2016-10-10T22:01:55Z</time>
</trkpt>
<trkpt lat="37.06917953491211" lon="-118.44874572753906">
<ele>3974</ele>
<time>2016-10-10T22:02:29Z</time>
</trkpt>
<trkpt lat="37.06919479370117" lon="-118.44879913330078">
<ele>3969</ele>
<time>2016-10-10T22:02:48Z</time>
</trkpt>
<trkpt lat="37.06920623779297" lon="-118.4488525390625">
<ele>3967</ele>
<time>2016-10-10T22:02:58Z</time>
</trkpt>
<trkpt lat="37.06924819946289" lon="-118.44891357421875">
<ele>3962</ele>
<time>2016-10-10T22:03:08Z</time>
</trkpt>
<trkpt lat="37.06931686401367" lon="-118.44894409179688">
<ele>3963</ele>
<time>2016-10-10T22:03:14Z</time>
</trkpt>
<trkpt lat="37.069358825683594" lon="-118.44892120361328">
<ele>3962</ele>
<time>2016-10-10T22:03:21Z</time>
</trkpt>
<trkpt lat="37.06940841674805" lon="-118.44893646240234">
<ele>3957</ele>
<time>2016-10-10T22:03:28Z</time>
</trkpt>
<trkpt lat="37.06936264038086" lon="-118.44896697998047">
<ele>3952</ele>
<time>2016-10-10T22:03:53Z</time>
</trkpt>
<trkpt lat="37.069339752197266" lon="-118.44902038574219">
<ele>3954</ele>
<time>2016-10-10T22:04:01Z</time>
</trkpt>
<trkpt lat="37.06932067871094" lon="-118.44908142089844">
<ele>3956</ele>
<time>2016-10-10T22:04:13Z</time>
</trkpt>
<trkpt lat="37.06929397583008" lon="-118.44913482666016">
<ele>3956</ele>
<time>2016-10-10T22:04:36Z</time>
</trkpt>
<trkpt lat="37.06926345825195" lon="-118.44918060302734">
<ele>3959</ele>
<time>2016-10-10T22:04:53Z</time>
</trkpt>
<trkpt lat="37.069175720214844" lon="-118.44920349121094">
<ele>3958</ele>
<time>2016-10-10T22:05:26Z</time>
</trkpt>
<trkpt lat="37.06913375854492" lon="-118.44918823242188">
<ele>3948</ele>
<time>2016-10-10T22:05:44Z</time>
</trkpt>
<trkpt lat="37.06909942626953" lon="-118.44922637939453">
<ele>3943</ele>
<time>2016-10-10T22:06:07Z</time>
</trkpt>
<trkpt lat="37.06902313232422" lon="-118.44927978515625">
<ele>3932</ele>
<time>2016-10-10T22:06:38Z</time>
</trkpt>
<trkpt lat="37.069053649902344" lon="-118.44933319091797">
<ele>3938</ele>
<time>2016-10-10T22:06:57Z</time>
</trkpt>
<trkpt lat="37.069026947021484" lon="-118.44938659667969">
<ele>3946</ele>
<time>2016-10-10T22:07:10Z</time>
</trkpt>
<trkpt lat="37.06900405883789" lon="-118.4494400024414">
<ele>3940</ele>
<time>2016-10-10T22:07:39Z</time>
</trkpt>
<trkpt lat="37.06897735595703" lon="-118.4494857788086">
<ele>3941</ele>
<time>2016-10-10T22:08:05Z</time>
</trkpt>
<trkpt lat="37.06901931762695" lon="-118.44942474365234">
<ele>3930</ele>
<time>2016-10-10T22:08:35Z</time>
</trkpt>
<trkpt lat="37.0689811706543" lon="-118.449462890625">
<ele>3929</ele>
<time>2016-10-10T22:09:08Z</time>
</trkpt>
<trkpt lat="37.06894302368164" lon="-118.44952392578125">
<ele>3930</ele>
<time>2016-10-10T22:09:56Z</time>
</trkpt>
<trkpt lat="37.06900405883789" lon="-118.449462890625">
<ele>3919</ele>
<time>2016-10-10T22:11:09Z</time>
</trkpt>
<trkpt lat="37.06893539428711" lon="-118.44949340820313">
<ele>3920</ele>
<time>2016-10-10T22:11:47Z</time>
</trkpt>
<trkpt lat="37.068946838378906" lon="-118.44954681396484">
<ele>3911</ele>
<time>2016-10-10T22:12:06Z</time>
</trkpt>
<trkpt lat="37.06891632080078" lon="-118.4495849609375">
<ele>3915</ele>
<time>2016-10-10T22:12:43Z</time>
</trkpt>
<trkpt lat="37.06890869140625" lon="-118.44965362548828">
<ele>3916</ele>
<time>2016-10-10T22:12:57Z</time>
</trkpt>
<trkpt lat="37.06886672973633" lon="-118.44967651367188">
<ele>3919</ele>
<time>2016-10-10T22:13:11Z</time>
</trkpt>
<trkpt lat="37.068878173828125" lon="-118.44973754882813">
<ele>3907</ele>
<time>2016-10-10T22:13:36Z</time>
</trkpt>
<trkpt lat="37.06892013549805" lon="-118.44976806640625">
<ele>3902</ele>
<time>2016-10-10T22:14:07Z</time>
</trkpt>
<trkpt lat="37.06890106201172" lon="-118.44982147216797">
<ele>3920</ele>
<time>2016-10-10T22:14:55Z</time>
</trkpt>
<trkpt lat="37.068946838378906" lon="-118.44983673095703">
<ele>3918</ele>
<time>2016-10-10T22:16:38Z</time>
</trkpt>
<trkpt lat="37.06890869140625" lon="-118.4499282836914">
<ele>3925</ele>
<time>2016-10-10T22:17:49Z</time>
</trkpt>
<trkpt lat="37.06887435913086" lon="-118.45000457763672">
<ele>3918</ele>
<time>2016-10-10T22:18:31Z</time>
</trkpt>
<trkpt lat="37.06884765625" lon="-118.45005798339844">
<ele>3923</ele>
<time>2016-10-10T22:18:44Z</time>
</trkpt>
<trkpt lat="37.06882095336914" lon="-118.45010375976563">
<ele>3922</ele>
<time>2016-10-10T22:18:52Z</time>
</trkpt>
<trkpt lat="37.06881332397461" lon="-118.45018005371094">
<ele>3923</ele>
<time>2016-10-10T22:20:10Z</time>
</trkpt>
<trkpt lat="37.06879425048828" lon="-118.45024108886719">
<ele>3914</ele>
<time>2016-10-10T22:20:43Z</time>
</trkpt>
<trkpt lat="37.06877136230469" lon="-118.4502944946289">
<ele>3913</ele>
<time>2016-10-10T22:21:00Z</time>
</trkpt>
<trkpt lat="37.068748474121094" lon="-118.45036315917969">
<ele>3907</ele>
<time>2016-10-10T22:21:31Z</time>
</trkpt>
<trkpt lat="37.0687255859375" lon="-118.4504165649414">
<ele>3907</ele>
<time>2016-10-10T22:21:39Z</time>
</trkpt>
<trkpt lat="37.06873321533203" lon="-118.45049285888672">
<ele>3905</ele>
<time>2016-10-10T22:23:14Z</time>
</trkpt>
<trkpt lat="37.068763732910156" lon="-118.4505386352539">
<ele>3900</ele>
<time>2016-10-10T22:27:14Z</time>
</trkpt>
<trkpt lat="37.06867980957031" lon="-118.45050811767578">
<ele>3897</ele>
<time>2016-10-10T22:31:59Z</time>
</trkpt>
<trkpt lat="37.06863021850586" lon="-118.45049285888672">
<ele>3898</ele>
<time>2016-10-10T22:32:08Z</time>
</trkpt>
<trkpt lat="37.068626403808594" lon="-118.4505844116211">
<ele>3892</ele>
<time>2016-10-10T22:32:38Z</time>
</trkpt>
<trkpt lat="37.0685920715332" lon="-118.45063018798828">
<ele>3880</ele>
<time>2016-10-10T22:32:59Z</time>
</trkpt>
<trkpt lat="37.06854248046875" lon="-118.45065307617188">
<ele>3877</ele>
<time>2016-10-10T22:34:41Z</time>
</trkpt>
<trkpt lat="37.06854248046875" lon="-118.4507064819336">
<ele>3876</ele>
<time>2016-10-10T22:34:59Z</time>
</trkpt>
<trkpt lat="37.068511962890625" lon="-118.45075225830078">
<ele>3885</ele>
<time>2016-10-10T22:35:11Z</time>
</trkpt>
<trkpt lat="37.06844711303711" lon="-118.45077514648438">
<ele>3891</ele>
<time>2016-10-10T22:35:51Z</time>
</trkpt>
<trkpt lat="37.0684814453125" lon="-118.45081329345703">
<ele>3878</ele>
<time>2016-10-10T22:36:29Z</time>
</trkpt>
<trkpt lat="37.06843948364258" lon="-118.45084381103516">
<ele>3886</ele>
<time>2016-10-10T22:36:49Z</time>
</trkpt>
<trkpt lat="37.06843566894531" lon="-118.4509048461914">
<ele>3884</ele>
<time>2016-10-10T22:37:10Z</time>
</trkpt>
<trkpt lat="37.06846237182617" lon="-118.45098876953125">
<ele>3884</ele>
<time>2016-10-10T22:37:41Z</time>
</trkpt>
<trkpt lat="37.06850814819336" lon="-118.45099639892578">
<ele>3879</ele>
<time>2016-10-10T22:40:14Z</time>
</trkpt>
<trkpt lat="37.0684814453125" lon="-118.4510498046875">
<ele>3878</ele>
<time>2016-10-10T22:40:53Z</time>
</trkpt>
<trkpt lat="37.068443298339844" lon="-118.45101165771484">
<ele>3881</ele>
<time>2016-10-10T22:41:05Z</time>
</trkpt>
<trkpt lat="37.06840133666992" lon="-118.45098114013672">
<ele>3883</ele>
<time>2016-10-10T22:41:14Z</time>
</trkpt>
<trkpt lat="37.068359375" lon="-118.45100402832031">
<ele>3875</ele>
<time>2016-10-10T22:41:43Z</time>
</trkpt>
<trkpt lat="37.06831359863281" lon="-118.45098876953125">
<ele>3871</ele>
<time>2016-10-10T22:41:52Z</time>
</trkpt>
<trkpt lat="37.06825637817383" lon="-118.45098876953125">
<ele>3879</ele>
<time>2016-10-10T22:42:25Z</time>
</trkpt>
<trkpt lat="37.06821060180664" lon="-118.45098876953125">
<ele>3885</ele>
<time>2016-10-10T22:42:49Z</time>
</trkpt>
<trkpt lat="37.068241119384766" lon="-118.4510498046875">
<ele>3875</ele>
<time>2016-10-10T22:43:24Z</time>
</trkpt>
<trkpt lat="37.06826400756836" lon="-118.45111846923828">
<ele>3869</ele>
<time>2016-10-10T22:43:33Z</time>
</trkpt>
<trkpt lat="37.06828308105469" lon="-118.451171875">
<ele>3874</ele>
<time>2016-10-10T22:43:41Z</time>
</trkpt>
<trkpt lat="37.0682487487793" lon="-118.45121765136719">
<ele>3878</ele>
<time>2016-10-10T22:43:50Z</time>
</trkpt>
<trkpt lat="37.06827163696289" lon="-118.45132446289063">
<ele>3873</ele>
<time>2016-10-10T22:44:53Z</time>
</trkpt>
<trkpt lat="37.068275451660156" lon="-118.45138549804688">
<ele>3872</ele>
<time>2016-10-10T22:45:03Z</time>
</trkpt>
<trkpt lat="37.06825256347656" lon="-118.4514389038086">
<ele>3868</ele>
<time>2016-10-10T22:45:10Z</time>
</trkpt>
<trkpt lat="37.068241119384766" lon="-118.45154571533203">
<ele>3866</ele>
<time>2016-10-10T22:45:29Z</time>
</trkpt>
<trkpt lat="37.06819534301758" lon="-118.4515380859375">
<ele>3861</ele>
<time>2016-10-10T22:46:00Z</time>
</trkpt>
<trkpt lat="37.06814193725586" lon="-118.45158386230469">
<ele>3864</ele>
<time>2016-10-10T22:46:25Z</time>
</trkpt>
<trkpt lat="37.068115234375" lon="-118.4515380859375">
<ele>3861</ele>
<time>2016-10-10T22:46:40Z</time>
</trkpt>
<trkpt lat="37.068077087402344" lon="-118.45156860351563">
<ele>3860</ele>
<time>2016-10-10T22:47:09Z</time>
</trkpt>
<trkpt lat="37.068050384521484" lon="-118.45167541503906">
<ele>3857</ele>
<time>2016-10-10T22:47:25Z</time>
</trkpt>
<trkpt lat="37.06805419921875" lon="-118.45172882080078">
<ele>3862</ele>
<time>2016-10-10T22:47:56Z</time>
</trkpt>
<trkpt lat="37.06801223754883" lon="-118.45176696777344">
<ele>3849</ele>
<time>2016-10-10T22:48:03Z</time>
</trkpt>
</trkseg>
</trk>
<trk>
<name><![CDATA[10101633]]></name>
<number>37</number>
<extensions><topografix:color>ff000066</topografix:color></extensions>
<trkseg>
<trkpt lat="37.06649398803711" lon="-118.45243835449219">
<ele>3708</ele>
<time>2016-10-10T23:33:26Z</time>
</trkpt>
<trkpt lat="37.066444396972656" lon="-118.45243835449219">
<ele>3705</ele>
<time>2016-10-10T23:35:47Z</time>
</trkpt>
<trkpt lat="37.066490173339844" lon="-118.45242309570313">
<ele>3703</ele>
<time>2016-10-10T23:35:53Z</time>
</trkpt>
<trkpt lat="37.066463470458984" lon="-118.45237731933594">
<ele>3708</ele>
<time>2016-10-10T23:36:16Z</time>
</trkpt>
<trkpt lat="37.066375732421875" lon="-118.45240783691406">
<ele>3710</ele>
<time>2016-10-10T23:36:32Z</time>
</trkpt>
<trkpt lat="37.066322326660156" lon="-118.4524154663086">
<ele>3710</ele>
<time>2016-10-10T23:36:42Z</time>
</trkpt>
<trkpt lat="37.06627655029297" lon="-118.45244598388672">
<ele>3709</ele>
<time>2016-10-10T23:36:51Z</time>
</trkpt>
<trkpt lat="37.06623458862305" lon="-118.45246887207031">
<ele>3707</ele>
<time>2016-10-10T23:36:58Z</time>
</trkpt>
<trkpt lat="37.066184997558594" lon="-118.45246124267578">
<ele>3709</ele>
<time>2016-10-10T23:37:04Z</time>
</trkpt>
<trkpt lat="37.06613540649414" lon="-118.45246124267578">
<ele>3707</ele>
<time>2016-10-10T23:37:18Z</time>
</trkpt>
<trkpt lat="37.06608963012695" lon="-118.45246887207031">
<ele>3710</ele>
<time>2016-10-10T23:37:32Z</time>
</trkpt>
<trkpt lat="37.066043853759766" lon="-118.45250701904297">
<ele>3711</ele>
<time>2016-10-10T23:37:41Z</time>
</trkpt>
<trkpt lat="37.066001892089844" lon="-118.45254516601563">
<ele>3709</ele>
<time>2016-10-10T23:37:47Z</time>
</trkpt>
<trkpt lat="37.06597137451172" lon="-118.45259094238281">
<ele>3710</ele>
<time>2016-10-10T23:38:01Z</time>
</trkpt>
<trkpt lat="37.065982818603516" lon="-118.45265197753906">
<ele>3703</ele>
<time>2016-10-10T23:38:10Z</time>
</trkpt>
<trkpt lat="37.06603240966797" lon="-118.45263671875">
<ele>3697</ele>
<time>2016-10-10T23:38:20Z</time>
</trkpt>
<trkpt lat="37.06603240966797" lon="-118.45272064208984">
<ele>3697</ele>
<time>2016-10-10T23:38:36Z</time>
</trkpt>
<trkpt lat="37.06599044799805" lon="-118.45275115966797">
<ele>3698</ele>
<time>2016-10-10T23:38:44Z</time>
</trkpt>
<trkpt lat="37.06593322753906" lon="-118.45277404785156">
<ele>3696</ele>
<time>2016-10-10T23:38:50Z</time>
</trkpt>
<trkpt lat="37.06587219238281" lon="-118.4528579711914">
<ele>3699</ele>
<time>2016-10-10T23:39:05Z</time>
</trkpt>
<trkpt lat="37.06585693359375" lon="-118.45291900634766">
<ele>3694</ele>
<time>2016-10-10T23:39:13Z</time>
</trkpt>
<trkpt lat="37.0658073425293" lon="-118.45291900634766">
<ele>3692</ele>
<time>2016-10-10T23:39:20Z</time>
</trkpt>
<trkpt lat="37.06574630737305" lon="-118.45294189453125">
<ele>3695</ele>
<time>2016-10-10T23:39:34Z</time>
</trkpt>
<trkpt lat="37.06566619873047" lon="-118.4530029296875">
<ele>3695</ele>
<time>2016-10-10T23:39:43Z</time>
</trkpt>
<trkpt lat="37.06562423706055" lon="-118.45304107666016">
<ele>3692</ele>
<time>2016-10-10T23:39:49Z</time>
</trkpt>
<trkpt lat="37.06554412841797" lon="-118.4531021118164">
<ele>3690</ele>
<time>2016-10-10T23:40:00Z</time>
</trkpt>
<trkpt lat="37.065494537353516" lon="-118.453125">
<ele>3688</ele>
<time>2016-10-10T23:40:06Z</time>
</trkpt>
<trkpt lat="37.065452575683594" lon="-118.45316314697266">
<ele>3690</ele>
<time>2016-10-10T23:40:16Z</time>
</trkpt>
<trkpt lat="37.06541061401367" lon="-118.45320892333984">
<ele>3687</ele>
<time>2016-10-10T23:40:24Z</time>
</trkpt>
<trkpt lat="37.06534957885742" lon="-118.45320892333984">
<ele>3687</ele>
<time>2016-10-10T23:40:31Z</time>
</trkpt>
<trkpt lat="37.065303802490234" lon="-118.45320892333984">
<ele>3686</ele>
<time>2016-10-10T23:40:37Z</time>
</trkpt>
<trkpt lat="37.06525802612305" lon="-118.45319366455078">
<ele>3683</ele>
<time>2016-10-10T23:40:49Z</time>
</trkpt>
<trkpt lat="37.065208435058594" lon="-118.45319366455078">
<ele>3684</ele>
<time>2016-10-10T23:40:58Z</time>
</trkpt>
<trkpt lat="37.06515121459961" lon="-118.45320129394531">
<ele>3684</ele>
<time>2016-10-10T23:41:04Z</time>
</trkpt>
<trkpt lat="37.065128326416016" lon="-118.45325469970703">
<ele>3683</ele>
<time>2016-10-10T23:41:14Z</time>
</trkpt>
<trkpt lat="37.06508255004883" lon="-118.4532699584961">
<ele>3679</ele>
<time>2016-10-10T23:41:24Z</time>
</trkpt>
<trkpt lat="37.065025329589844" lon="-118.45330810546875">
<ele>3676</ele>
<time>2016-10-10T23:41:33Z</time>
</trkpt>
<trkpt lat="37.06498336791992" lon="-118.45335388183594">
<ele>3674</ele>
<time>2016-10-10T23:41:43Z</time>
</trkpt>
<trkpt lat="37.0649528503418" lon="-118.45339965820313">
<ele>3672</ele>
<time>2016-10-10T23:41:52Z</time>
</trkpt>
<trkpt lat="37.06490707397461" lon="-118.45341491699219">
<ele>3670</ele>
<time>2016-10-10T23:41:58Z</time>
</trkpt>
<trkpt lat="37.06486129760742" lon="-118.45340728759766">
<ele>3667</ele>
<time>2016-10-10T23:42:07Z</time>
</trkpt>
<trkpt lat="37.06483840942383" lon="-118.45346069335938">
<ele>3667</ele>
<time>2016-10-10T23:42:13Z</time>
</trkpt>
<trkpt lat="37.064796447753906" lon="-118.45348358154297">
<ele>3663</ele>
<time>2016-10-10T23:42:19Z</time>
</trkpt>
<trkpt lat="37.064727783203125" lon="-118.45344543457031">
<ele>3664</ele>
<time>2016-10-10T23:42:26Z</time>
</trkpt>
<trkpt lat="37.06464767456055" lon="-118.45338439941406">
<ele>3659</ele>
<time>2016-10-10T23:42:35Z</time>
</trkpt>
<trkpt lat="37.064598083496094" lon="-118.453369140625">
<ele>3660</ele>
<time>2016-10-10T23:42:41Z</time>
</trkpt>
<trkpt lat="37.064552307128906" lon="-118.453369140625">
<ele>3657</ele>
<time>2016-10-10T23:42:47Z</time>
</trkpt>
<trkpt lat="37.0644416809082" lon="-118.4533462524414">
<ele>3662</ele>
<time>2016-10-10T23:42:55Z</time>
</trkpt>
<trkpt lat="37.0643424987793" lon="-118.45333862304688">
<ele>3660</ele>
<time>2016-10-10T23:43:02Z</time>
</trkpt>
<trkpt lat="37.064266204833984" lon="-118.45342254638672">
<ele>3658</ele>
<time>2016-10-10T23:43:17Z</time>
</trkpt>
<trkpt lat="37.064231872558594" lon="-118.45346069335938">
<ele>3657</ele>
<time>2016-10-10T23:43:24Z</time>
</trkpt>
<trkpt lat="37.06419372558594" lon="-118.45349884033203">
<ele>3656</ele>
<time>2016-10-10T23:43:30Z</time>
</trkpt>
<trkpt lat="37.06410217285156" lon="-118.45344543457031">
<ele>3649</ele>
<time>2016-10-10T23:43:39Z</time>
</trkpt>
<trkpt lat="37.06405258178711" lon="-118.45344543457031">
<ele>3653</ele>
<time>2016-10-10T23:43:45Z</time>
</trkpt>
<trkpt lat="37.06400680541992" lon="-118.4534683227539">
<ele>3648</ele>
<time>2016-10-10T23:43:52Z</time>
</trkpt>
<trkpt lat="37.063926696777344" lon="-118.45346069335938">
<ele>3646</ele>
<time>2016-10-10T23:44:39Z</time>
</trkpt>
<trkpt lat="37.06382751464844" lon="-118.45348358154297">
<ele>3646</ele>
<time>2016-10-10T23:44:47Z</time>
</trkpt>
<trkpt lat="37.063724517822266" lon="-118.45352935791016">
<ele>3642</ele>
<time>2016-10-10T23:44:59Z</time>
</trkpt>
<trkpt lat="37.06367874145508" lon="-118.45352172851563">
<ele>3637</ele>
<time>2016-10-10T23:45:11Z</time>
</trkpt>
<trkpt lat="37.06358337402344" lon="-118.45353698730469">
<ele>3638</ele>
<time>2016-10-10T23:45:22Z</time>
</trkpt>
<trkpt lat="37.06351852416992" lon="-118.45347595214844">
<ele>3637</ele>
<time>2016-10-10T23:45:31Z</time>
</trkpt>
<trkpt lat="37.063480377197266" lon="-118.45343017578125">
<ele>3635</ele>
<time>2016-10-10T23:45:38Z</time>
</trkpt>
<trkpt lat="37.06345748901367" lon="-118.45337677001953">
<ele>3631</ele>
<time>2016-10-10T23:45:53Z</time>
</trkpt>
<trkpt lat="37.063411712646484" lon="-118.45335388183594">
<ele>3630</ele>
<time>2016-10-10T23:46:00Z</time>
</trkpt>
<trkpt lat="37.06333923339844" lon="-118.45329284667969">
<ele>3631</ele>
<time>2016-10-10T23:46:32Z</time>
</trkpt>
<trkpt lat="37.06333541870117" lon="-118.45323944091797">
<ele>3626</ele>
<time>2016-10-10T23:46:41Z</time>
</trkpt>
<trkpt lat="37.06327819824219" lon="-118.45323944091797">
<ele>3624</ele>
<time>2016-10-10T23:46:53Z</time>
</trkpt>
<trkpt lat="37.063232421875" lon="-118.4532470703125">
<ele>3627</ele>
<time>2016-10-10T23:47:05Z</time>
</trkpt>
<trkpt lat="37.06318664550781" lon="-118.45320129394531">
<ele>3627</ele>
<time>2016-10-10T23:47:11Z</time>
</trkpt>
<trkpt lat="37.06313705444336" lon="-118.45320892333984">
<ele>3627</ele>
<time>2016-10-10T23:47:24Z</time>
</trkpt>
<trkpt lat="37.063087463378906" lon="-118.4532470703125">
<ele>3623</ele>
<time>2016-10-10T23:47:33Z</time>
</trkpt>
<trkpt lat="37.06304168701172" lon="-118.45323944091797">
<ele>3618</ele>
<time>2016-10-10T23:47:40Z</time>
</trkpt>
<trkpt lat="37.062992095947266" lon="-118.45323944091797">
<ele>3621</ele>
<time>2016-10-10T23:48:00Z</time>
</trkpt>
<trkpt lat="37.06293869018555" lon="-118.45323944091797">
<ele>3617</ele>
<time>2016-10-10T23:48:19Z</time>
</trkpt>
<trkpt lat="37.062870025634766" lon="-118.45327758789063">
<ele>3622</ele>
<time>2016-10-10T23:48:30Z</time>
</trkpt>
<trkpt lat="37.062828063964844" lon="-118.45329284667969">
<ele>3615</ele>
<time>2016-10-10T23:48:36Z</time>
</trkpt>
<trkpt lat="37.06275939941406" lon="-118.4532241821289">
<ele>3611</ele>
<time>2016-10-10T23:48:47Z</time>
</trkpt>
<trkpt lat="37.06270980834961" lon="-118.45321655273438">
<ele>3610</ele>
<time>2016-10-10T23:48:53Z</time>
</trkpt>
<trkpt lat="37.06267166137695" lon="-118.45318603515625">
<ele>3613</ele>
<time>2016-10-10T23:48:59Z</time>
</trkpt>
<trkpt lat="37.062599182128906" lon="-118.45315551757813">
<ele>3612</ele>
<time>2016-10-10T23:50:52Z</time>
</trkpt>
<trkpt lat="37.06250762939453" lon="-118.45310974121094">
<ele>3607</ele>
<time>2016-10-10T23:51:08Z</time>
</trkpt>
<trkpt lat="37.06245422363281" lon="-118.45309448242188">
<ele>3603</ele>
<time>2016-10-10T23:51:20Z</time>
</trkpt>
<trkpt lat="37.06241226196289" lon="-118.45299530029297">
<ele>3600</ele>
<time>2016-10-10T23:51:31Z</time>
</trkpt>
<trkpt lat="37.06237030029297" lon="-118.45301818847656">
<ele>3598</ele>
<time>2016-10-10T23:51:41Z</time>
</trkpt>
<trkpt lat="37.06232452392578" lon="-118.45301055908203">
<ele>3597</ele>
<time>2016-10-10T23:51:50Z</time>
</trkpt>
<trkpt lat="37.06228256225586" lon="-118.4530258178711">
<ele>3596</ele>
<time>2016-10-10T23:52:00Z</time>
</trkpt>
<trkpt lat="37.06223678588867" lon="-118.45305633544922">
<ele>3597</ele>
<time>2016-10-10T23:52:10Z</time>
</trkpt>
<trkpt lat="37.06219482421875" lon="-118.4530258178711">
<ele>3595</ele>
<time>2016-10-10T23:52:18Z</time>
</trkpt>
<trkpt lat="37.0621223449707" lon="-118.4529800415039">
<ele>3592</ele>
<time>2016-10-10T23:52:26Z</time>
</trkpt>
<trkpt lat="37.062076568603516" lon="-118.45295715332031">
<ele>3589</ele>
<time>2016-10-10T23:52:33Z</time>
</trkpt>
<trkpt lat="37.06202697753906" lon="-118.45293426513672">
<ele>3584</ele>
<time>2016-10-10T23:52:39Z</time>
</trkpt>
<trkpt lat="37.06193161010742" lon="-118.45288848876953">
<ele>3584</ele>
<time>2016-10-10T23:52:47Z</time>
</trkpt>
<trkpt lat="37.0618782043457" lon="-118.4529037475586">
<ele>3583</ele>
<time>2016-10-10T23:53:03Z</time>
</trkpt>
<trkpt lat="37.061767578125" lon="-118.45287322998047">
<ele>3582</ele>
<time>2016-10-10T23:53:10Z</time>
</trkpt>
<trkpt lat="37.061668395996094" lon="-118.45284271240234">
<ele>3578</ele>
<time>2016-10-10T23:53:17Z</time>
</trkpt>
<trkpt lat="37.06159973144531" lon="-118.45283508300781">
<ele>3577</ele>
<time>2016-10-10T23:53:30Z</time>
</trkpt>
<trkpt lat="37.061500549316406" lon="-118.45281982421875">
<ele>3577</ele>
<time>2016-10-10T23:53:39Z</time>
</trkpt>
<trkpt lat="37.061466217041016" lon="-118.4527816772461">
<ele>3576</ele>
<time>2016-10-10T23:53:47Z</time>
</trkpt>
</trkseg>
</trk>
<trk>
<name><![CDATA[10110816]]></name>
<number>38</number>
<extensions><topografix:color>ff000066</topografix:color></extensions>
<trkseg>
<trkpt lat="37.06034851074219" lon="-118.48558044433594">
<ele>3206</ele>
<time>2016-10-11T15:16:30Z</time>
</trkpt>
<trkpt lat="37.060333251953125" lon="-118.4854965209961">
<ele>3197</ele>
<time>2016-10-11T15:16:41Z</time>
</trkpt>
<trkpt lat="37.060306549072266" lon="-118.48554992675781">
<ele>3201</ele>
<time>2016-10-11T15:17:01Z</time>
</trkpt>
<trkpt lat="37.0602912902832" lon="-118.48560333251953">
<ele>3207</ele>
<time>2016-10-11T15:18:56Z</time>
</trkpt>
<trkpt lat="37.06028366088867" lon="-118.48566436767578">
<ele>3210</ele>
<time>2016-10-11T15:19:16Z</time>
</trkpt>
<trkpt lat="37.060279846191406" lon="-118.48572540283203">
<ele>3211</ele>
<time>2016-10-11T15:19:23Z</time>
</trkpt>
<trkpt lat="37.06029510498047" lon="-118.48578643798828">
<ele>3210</ele>
<time>2016-10-11T15:19:32Z</time>
</trkpt>
<trkpt lat="37.06031036376953" lon="-118.48584747314453">
<ele>3211</ele>
<time>2016-10-11T15:19:38Z</time>
</trkpt>
<trkpt lat="37.0603141784668" lon="-118.48597717285156">
<ele>3211</ele>
<time>2016-10-11T15:19:48Z</time>
</trkpt>
<trkpt lat="37.06031799316406" lon="-118.4861068725586">
<ele>3208</ele>
<time>2016-10-11T15:19:58Z</time>
</trkpt>
<trkpt lat="37.060302734375" lon="-118.48616790771484">
<ele>3207</ele>
<time>2016-10-11T15:20:05Z</time>
</trkpt>
<trkpt lat="37.06029510498047" lon="-118.48628997802734">
<ele>3204</ele>
<time>2016-10-11T15:20:19Z</time>
</trkpt>
<trkpt lat="37.06028747558594" lon="-118.48641967773438">
<ele>3204</ele>
<time>2016-10-11T15:20:26Z</time>
</trkpt>
<trkpt lat="37.060298919677734" lon="-118.48654174804688">
<ele>3207</ele>
<time>2016-10-11T15:20:32Z</time>
</trkpt>
<trkpt lat="37.060302734375" lon="-118.48665618896484">
<ele>3208</ele>
<time>2016-10-11T15:20:41Z</time>
</trkpt>
<trkpt lat="37.06026840209961" lon="-118.48677062988281">
<ele>3213</ele>
<time>2016-10-11T15:20:51Z</time>
</trkpt>
<trkpt lat="37.06023406982422" lon="-118.48688507080078">
<ele>3215</ele>
<time>2016-10-11T15:21:00Z</time>
</trkpt>
<trkpt lat="37.06021499633789" lon="-118.48694610595703">
<ele>3210</ele>
<time>2016-10-11T15:21:06Z</time>
</trkpt>
<trkpt lat="37.0601921081543" lon="-118.487060546875">
<ele>3207</ele>
<time>2016-10-11T15:21:14Z</time>
</trkpt>
<trkpt lat="37.060176849365234" lon="-118.48711395263672">
<ele>3207</ele>
<time>2016-10-11T15:21:20Z</time>
</trkpt>
<trkpt lat="37.06017303466797" lon="-118.48717498779297">
<ele>3208</ele>
<time>2016-10-11T15:21:27Z</time>
</trkpt>
<trkpt lat="37.06015396118164" lon="-118.48728942871094">
<ele>3210</ele>
<time>2016-10-11T15:21:34Z</time>
</trkpt>
<trkpt lat="37.060150146484375" lon="-118.4874038696289">
<ele>3211</ele>
<time>2016-10-11T15:21:43Z</time>
</trkpt>
<trkpt lat="37.06012725830078" lon="-118.48751831054688">
<ele>3210</ele>
<time>2016-10-11T15:21:52Z</time>
</trkpt>
<trkpt lat="37.06010437011719" lon="-118.4876480102539">
<ele>3211</ele>
<time>2016-10-11T15:22:01Z</time>
</trkpt>
<trkpt lat="37.06011962890625" lon="-118.4877700805664">
<ele>3208</ele>
<time>2016-10-11T15:22:11Z</time>
</trkpt>
<trkpt lat="37.06013488769531" lon="-118.48782348632813">
<ele>3210</ele>
<time>2016-10-11T15:22:17Z</time>
</trkpt>
<trkpt lat="37.060176849365234" lon="-118.4879379272461">
<ele>3211</ele>
<time>2016-10-11T15:22:27Z</time>
</trkpt>
<trkpt lat="37.060211181640625" lon="-118.48796844482422">
<ele>3217</ele>
<time>2016-10-11T15:23:31Z</time>
</trkpt>
<trkpt lat="37.06016540527344" lon="-118.48795318603516">
<ele>3215</ele>
<time>2016-10-11T15:24:00Z</time>
</trkpt>
<trkpt lat="37.0601921081543" lon="-118.4879150390625">
<ele>3208</ele>
<time>2016-10-11T15:25:31Z</time>
</trkpt>
<trkpt lat="37.06022262573242" lon="-118.48797607421875">
<ele>3217</ele>
<time>2016-10-11T15:25:44Z</time>
</trkpt>
<trkpt lat="37.06025314331055" lon="-118.48802185058594">
<ele>3207</ele>
<time>2016-10-11T15:26:12Z</time>
</trkpt>
<trkpt lat="37.06023406982422" lon="-118.48814392089844">
<ele>3207</ele>
<time>2016-10-11T15:26:20Z</time>
</trkpt>
<trkpt lat="37.060218811035156" lon="-118.48820495605469">
<ele>3206</ele>
<time>2016-10-11T15:26:26Z</time>
</trkpt>
<trkpt lat="37.06019592285156" lon="-118.48834991455078">
<ele>3206</ele>
<time>2016-10-11T15:26:35Z</time>
</trkpt>
<trkpt lat="37.060176849365234" lon="-118.48847198486328">
<ele>3204</ele>
<time>2016-10-11T15:26:43Z</time>
</trkpt>
<trkpt lat="37.06017303466797" lon="-118.48860168457031">
<ele>3204</ele>
<time>2016-10-11T15:26:52Z</time>
</trkpt>
<trkpt lat="37.0601806640625" lon="-118.48873138427734">
<ele>3202</ele>
<time>2016-10-11T15:26:59Z</time>
</trkpt>
<trkpt lat="37.06021499633789" lon="-118.48884582519531">
<ele>3200</ele>
<time>2016-10-11T15:27:09Z</time>
</trkpt>
<trkpt lat="37.06023025512695" lon="-118.48889923095703">
<ele>3201</ele>
<time>2016-10-11T15:27:15Z</time>
</trkpt>
<trkpt lat="37.060272216796875" lon="-118.489013671875">
<ele>3198</ele>
<time>2016-10-11T15:27:24Z</time>
</trkpt>
<trkpt lat="37.06034851074219" lon="-118.48898315429688">
<ele>3197</ele>
<time>2016-10-11T15:27:37Z</time>
</trkpt>
<trkpt lat="37.0604133605957" lon="-118.48897552490234">
<ele>3208</ele>
<time>2016-10-11T15:28:43Z</time>
</trkpt>
<trkpt lat="37.06035614013672" lon="-118.48900604248047">
<ele>3201</ele>
<time>2016-10-11T15:30:31Z</time>
</trkpt>
<trkpt lat="37.0603141784668" lon="-118.4890365600586">
<ele>3197</ele>
<time>2016-10-11T15:31:10Z</time>
</trkpt>
<trkpt lat="37.060367584228516" lon="-118.4891357421875">
<ele>3196</ele>
<time>2016-10-11T15:31:17Z</time>
</trkpt>
<trkpt lat="37.060401916503906" lon="-118.48925018310547">
<ele>3201</ele>
<time>2016-10-11T15:31:26Z</time>
</trkpt>
<trkpt lat="37.060447692871094" lon="-118.48936462402344">
<ele>3200</ele>
<time>2016-10-11T15:31:35Z</time>
</trkpt>
<trkpt lat="37.06051254272461" lon="-118.48947143554688">
<ele>3199</ele>
<time>2016-10-11T15:31:42Z</time>
</trkpt>
<trkpt lat="37.06057357788086" lon="-118.4896011352539">
<ele>3203</ele>
<time>2016-10-11T15:31:48Z</time>
</trkpt>
<trkpt lat="37.060604095458984" lon="-118.4897232055664">
<ele>3203</ele>
<time>2016-10-11T15:31:58Z</time>
</trkpt>
<trkpt lat="37.06057357788086" lon="-118.48977661132813">
<ele>3199</ele>
<time>2016-10-11T15:32:04Z</time>
</trkpt>
<trkpt lat="37.06052780151367" lon="-118.4898910522461">
<ele>3201</ele>
<time>2016-10-11T15:32:11Z</time>
</trkpt>
<trkpt lat="37.06056213378906" lon="-118.4900131225586">
<ele>3204</ele>
<time>2016-10-11T15:32:18Z</time>
</trkpt>
<trkpt lat="37.060604095458984" lon="-118.49005126953125">
<ele>3208</ele>
<time>2016-10-11T15:32:24Z</time>
</trkpt>
<trkpt lat="37.06065368652344" lon="-118.49015045166016">
<ele>3208</ele>
<time>2016-10-11T15:32:31Z</time>
</trkpt>
<trkpt lat="37.060726165771484" lon="-118.490234375">
<ele>3204</ele>
<time>2016-10-11T15:32:40Z</time>
</trkpt>
<trkpt lat="37.06076431274414" lon="-118.49028015136719">
<ele>3209</ele>
<time>2016-10-11T15:33:06Z</time>
</trkpt>
<trkpt lat="37.06067657470703" lon="-118.49028778076172">
<ele>3211</ele>
<time>2016-10-11T15:34:02Z</time>
</trkpt>
<trkpt lat="37.06062316894531" lon="-118.49026489257813">
<ele>3204</ele>
<time>2016-10-11T15:34:25Z</time>
</trkpt>
<trkpt lat="37.06066131591797" lon="-118.49022674560547">
<ele>3208</ele>
<time>2016-10-11T15:35:31Z</time>
</trkpt>
<trkpt lat="37.060665130615234" lon="-118.49017333984375">
<ele>3206</ele>
<time>2016-10-11T15:36:02Z</time>
</trkpt>
<trkpt lat="37.06069564819336" lon="-118.4902114868164">
<ele>3205</ele>
<time>2016-10-11T15:36:09Z</time>
</trkpt>
<trkpt lat="37.060752868652344" lon="-118.49028778076172">
<ele>3210</ele>
<time>2016-10-11T15:36:17Z</time>
</trkpt>
<trkpt lat="37.06084442138672" lon="-118.49032592773438">
<ele>3208</ele>
<time>2016-10-11T15:36:23Z</time>
</trkpt>
<trkpt lat="37.06092071533203" lon="-118.49041748046875">
<ele>3208</ele>
<time>2016-10-11T15:36:31Z</time>
</trkpt>
<trkpt lat="37.06093215942383" lon="-118.49054718017578">
<ele>3215</ele>
<time>2016-10-11T15:36:40Z</time>
</trkpt>
<trkpt lat="37.06101608276367" lon="-118.4906234741211">
<ele>3209</ele>
<time>2016-10-11T15:36:49Z</time>
</trkpt>
<trkpt lat="37.06108856201172" lon="-118.49069213867188">
<ele>3208</ele>
<time>2016-10-11T15:36:58Z</time>
</trkpt>
<trkpt lat="37.06111145019531" lon="-118.49080657958984">
<ele>3203</ele>
<time>2016-10-11T15:37:06Z</time>
</trkpt>
<trkpt lat="37.06110382080078" lon="-118.49093627929688">
<ele>3197</ele>
<time>2016-10-11T15:37:14Z</time>
</trkpt>
<trkpt lat="37.06108474731445" lon="-118.4910659790039">
<ele>3206</ele>
<time>2016-10-11T15:37:24Z</time>
</trkpt>
<trkpt lat="37.06110382080078" lon="-118.49116516113281">
<ele>3207</ele>
<time>2016-10-11T15:37:35Z</time>
</trkpt>
<trkpt lat="37.061180114746094" lon="-118.49122619628906">
<ele>3204</ele>
<time>2016-10-11T15:37:49Z</time>
</trkpt>
<trkpt lat="37.061187744140625" lon="-118.49128723144531">
<ele>3206</ele>
<time>2016-10-11T15:37:55Z</time>
</trkpt>
<trkpt lat="37.06116485595703" lon="-118.49141693115234">
<ele>3212</ele>
<time>2016-10-11T15:38:02Z</time>
</trkpt>
<trkpt lat="37.06114196777344" lon="-118.49146270751953">
<ele>3207</ele>
<time>2016-10-11T15:38:08Z</time>
</trkpt>
<trkpt lat="37.06108474731445" lon="-118.49156188964844">
<ele>3207</ele>
<time>2016-10-11T15:38:24Z</time>
</trkpt>
<trkpt lat="37.061038970947266" lon="-118.49163055419922">
<ele>3211</ele>
<time>2016-10-11T15:38:38Z</time>
</trkpt>
<trkpt lat="37.061058044433594" lon="-118.49169158935547">
<ele>3215</ele>
<time>2016-10-11T15:38:52Z</time>
</trkpt>
<trkpt lat="37.06108474731445" lon="-118.49174499511719">
<ele>3208</ele>
<time>2016-10-11T15:39:01Z</time>
</trkpt>
<trkpt lat="37.061100006103516" lon="-118.4917984008789">
<ele>3211</ele>
<time>2016-10-11T15:39:10Z</time>
</trkpt>
<trkpt lat="37.06112289428711" lon="-118.4918441772461">
<ele>3213</ele>
<time>2016-10-11T15:39:20Z</time>
</trkpt>
<trkpt lat="37.061119079589844" lon="-118.4919204711914">
<ele>3220</ele>
<time>2016-10-11T15:39:30Z</time>
</trkpt>
<trkpt lat="37.06110382080078" lon="-118.49199676513672">
<ele>3218</ele>
<time>2016-10-11T15:39:37Z</time>
</trkpt>
<trkpt lat="37.06105041503906" lon="-118.49201965332031">
<ele>3223</ele>
<time>2016-10-11T15:39:44Z</time>
</trkpt>
<trkpt lat="37.061031341552734" lon="-118.49209594726563">
<ele>3223</ele>
<time>2016-10-11T15:40:10Z</time>
</trkpt>
<trkpt lat="37.061031341552734" lon="-118.49215698242188">
<ele>3217</ele>
<time>2016-10-11T15:40:27Z</time>
</trkpt>
<trkpt lat="37.06099319458008" lon="-118.49219512939453">
<ele>3219</ele>
<time>2016-10-11T15:45:31Z</time>
</trkpt>
<trkpt lat="37.06095504760742" lon="-118.4922866821289">
<ele>3225</ele>
<time>2016-10-11T15:46:51Z</time>
</trkpt>
<trkpt lat="37.06105041503906" lon="-118.49231719970703">
<ele>3223</ele>
<time>2016-10-11T15:46:59Z</time>
</trkpt>
<trkpt lat="37.06108093261719" lon="-118.49236297607422">
<ele>3223</ele>
<time>2016-10-11T15:47:05Z</time>
</trkpt>
<trkpt lat="37.06107711791992" lon="-118.492431640625">
<ele>3223</ele>
<time>2016-10-11T15:47:11Z</time>
</trkpt>
<trkpt lat="37.06105422973633" lon="-118.49253845214844">
<ele>3232</ele>
<time>2016-10-11T15:47:19Z</time>
</trkpt>
<trkpt lat="37.060970306396484" lon="-118.49260711669922">
<ele>3229</ele>
<time>2016-10-11T15:47:25Z</time>
</trkpt>
<trkpt lat="37.0609245300293" lon="-118.4926528930664">
<ele>3228</ele>
<time>2016-10-11T15:47:31Z</time>
</trkpt>
<trkpt lat="37.060916900634766" lon="-118.49279022216797">
<ele>3226</ele>
<time>2016-10-11T15:47:39Z</time>
</trkpt>
<trkpt lat="37.06087112426758" lon="-118.49290466308594">
<ele>3234</ele>
<time>2016-10-11T15:47:48Z</time>
</trkpt>
<trkpt lat="37.060791015625" lon="-118.49297332763672">
<ele>3236</ele>
<time>2016-10-11T15:47:58Z</time>
</trkpt>
<trkpt lat="37.06074523925781" lon="-118.49304962158203">
<ele>3231</ele>
<time>2016-10-11T15:48:09Z</time>
</trkpt>
<trkpt lat="37.06068801879883" lon="-118.49314880371094">
<ele>3237</ele>
<time>2016-10-11T15:48:20Z</time>
</trkpt>
<trkpt lat="37.060672760009766" lon="-118.49325561523438">
<ele>3234</ele>
<time>2016-10-11T15:48:30Z</time>
</trkpt>
<trkpt lat="37.0606689453125" lon="-118.49333190917969">
<ele>3229</ele>
<time>2016-10-11T15:48:36Z</time>
</trkpt>
<trkpt lat="37.060665130615234" lon="-118.49339294433594">
<ele>3229</ele>
<time>2016-10-11T15:48:48Z</time>
</trkpt>
<trkpt lat="37.06059646606445" lon="-118.49348449707031">
<ele>3243</ele>
<time>2016-10-11T15:48:55Z</time>
</trkpt>
<trkpt lat="37.060546875" lon="-118.49346160888672">
<ele>3251</ele>
<time>2016-10-11T15:49:50Z</time>
</trkpt>
<trkpt lat="37.06055450439453" lon="-118.49358367919922">
<ele>3247</ele>
<time>2016-10-11T15:50:01Z</time>
</trkpt>
<trkpt lat="37.06052780151367" lon="-118.49363708496094">
<ele>3249</ele>
<time>2016-10-11T15:50:08Z</time>
</trkpt>
<trkpt lat="37.06046676635742" lon="-118.49373626708984">
<ele>3247</ele>
<time>2016-10-11T15:50:21Z</time>
</trkpt>
<trkpt lat="37.06049728393555" lon="-118.49380493164063">
<ele>3245</ele>
<time>2016-10-11T15:51:15Z</time>
</trkpt>
<trkpt lat="37.060455322265625" lon="-118.49391174316406">
<ele>3247</ele>
<time>2016-10-11T15:51:24Z</time>
</trkpt>
<trkpt lat="37.060401916503906" lon="-118.49398803710938">
<ele>3245</ele>
<time>2016-10-11T15:51:31Z</time>
</trkpt>
<trkpt lat="37.060367584228516" lon="-118.49409484863281">
<ele>3247</ele>
<time>2016-10-11T15:51:44Z</time>
</trkpt>
<trkpt lat="37.06034469604492" lon="-118.49415588378906">
<ele>3248</ele>
<time>2016-10-11T15:51:52Z</time>
</trkpt>
<trkpt lat="37.0603141784668" lon="-118.49419403076172">
<ele>3245</ele>
<time>2016-10-11T15:51:59Z</time>
</trkpt>
<trkpt lat="37.060279846191406" lon="-118.4942398071289">
<ele>3247</ele>
<time>2016-10-11T15:52:06Z</time>
</trkpt>
<trkpt lat="37.06023406982422" lon="-118.49424743652344">
<ele>3249</ele>
<time>2016-10-11T15:52:13Z</time>
</trkpt>
<trkpt lat="37.06024932861328" lon="-118.49430084228516">
<ele>3246</ele>
<time>2016-10-11T15:52:21Z</time>
</trkpt>
<trkpt lat="37.0602912902832" lon="-118.4943618774414">
<ele>3251</ele>
<time>2016-10-11T15:52:53Z</time>
</trkpt>
<trkpt lat="37.060279846191406" lon="-118.49442291259766">
<ele>3255</ele>
<time>2016-10-11T15:53:01Z</time>
</trkpt>
<trkpt lat="37.06031036376953" lon="-118.49437713623047">
<ele>3250</ele>
<time>2016-10-11T15:53:27Z</time>
</trkpt>
<trkpt lat="37.06033706665039" lon="-118.49447631835938">
<ele>3230</ele>
<time>2016-10-11T15:54:12Z</time>
</trkpt>
<trkpt lat="37.060340881347656" lon="-118.49459075927734">
<ele>3235</ele>
<time>2016-10-11T15:54:21Z</time>
</trkpt>
<trkpt lat="37.06028747558594" lon="-118.49469757080078">
<ele>3242</ele>
<time>2016-10-11T15:54:31Z</time>
</trkpt>
<trkpt lat="37.06031799316406" lon="-118.49474334716797">
<ele>3244</ele>
<time>2016-10-11T15:54:38Z</time>
</trkpt>
<trkpt lat="37.060298919677734" lon="-118.49485778808594">
<ele>3244</ele>
<time>2016-10-11T15:54:47Z</time>
</trkpt>
<trkpt lat="37.06026077270508" lon="-118.49490356445313">
<ele>3244</ele>
<time>2016-10-11T15:54:53Z</time>
</trkpt>
<trkpt lat="37.060218811035156" lon="-118.494873046875">
<ele>3246</ele>
<time>2016-10-11T15:55:04Z</time>
</trkpt>
<trkpt lat="37.06017303466797" lon="-118.49491119384766">
<ele>3250</ele>
<time>2016-10-11T15:55:24Z</time>
</trkpt>
<trkpt lat="37.06011199951172" lon="-118.49496459960938">
<ele>3251</ele>
<time>2016-10-11T15:55:31Z</time>
</trkpt>
<trkpt lat="37.060062408447266" lon="-118.49497985839844">
<ele>3252</ele>
<time>2016-10-11T15:55:37Z</time>
</trkpt>
<trkpt lat="37.060054779052734" lon="-118.49504089355469">
<ele>3253</ele>
<time>2016-10-11T15:55:46Z</time>
</trkpt>
<trkpt lat="37.060028076171875" lon="-118.49507904052734">
<ele>3247</ele>
<time>2016-10-11T15:55:55Z</time>
</trkpt>
<trkpt lat="37.06000900268555" lon="-118.4951400756836">
<ele>3247</ele>
<time>2016-10-11T15:56:03Z</time>
</trkpt>
<trkpt lat="37.060001373291016" lon="-118.49507904052734">
<ele>3240</ele>
<time>2016-10-11T15:56:20Z</time>
</trkpt>
<trkpt lat="37.05995559692383" lon="-118.49510955810547">
<ele>3243</ele>
<time>2016-10-11T15:56:29Z</time>
</trkpt>
<trkpt lat="37.05990219116211" lon="-118.49517822265625">
<ele>3242</ele>
<time>2016-10-11T15:56:35Z</time>
</trkpt>
<trkpt lat="37.05989074707031" lon="-118.49530029296875">
<ele>3246</ele>
<time>2016-10-11T15:56:43Z</time>
</trkpt>
<trkpt lat="37.059898376464844" lon="-118.495361328125">
<ele>3247</ele>
<time>2016-10-11T15:56:49Z</time>
</trkpt>
<trkpt lat="37.05989456176758" lon="-118.49542236328125">
<ele>3252</ele>
<time>2016-10-11T15:56:56Z</time>
</trkpt>
<trkpt lat="37.059993743896484" lon="-118.49544525146484">
<ele>3246</ele>
<time>2016-10-11T15:57:07Z</time>
</trkpt>
<trkpt lat="37.06006622314453" lon="-118.4953842163086">
<ele>3249</ele>
<time>2016-10-11T15:57:31Z</time>
</trkpt>
<trkpt lat="37.06010055541992" lon="-118.49542236328125">
<ele>3250</ele>
<time>2016-10-11T15:57:37Z</time>
</trkpt>
<trkpt lat="37.060150146484375" lon="-118.49541473388672">
<ele>3246</ele>
<time>2016-10-11T15:57:46Z</time>
</trkpt>
<trkpt lat="37.060176849365234" lon="-118.49546813964844">
<ele>3253</ele>
<time>2016-10-11T15:57:56Z</time>
</trkpt>
<trkpt lat="37.06023406982422" lon="-118.49556732177734">
<ele>3259</ele>
<time>2016-10-11T15:58:18Z</time>
</trkpt>
<trkpt lat="37.06027603149414" lon="-118.49561309814453">
<ele>3260</ele>
<time>2016-10-11T15:58:31Z</time>
</trkpt>
<trkpt lat="37.060237884521484" lon="-118.49564361572266">
<ele>3268</ele>
<time>2016-10-11T15:58:44Z</time>
</trkpt>
<trkpt lat="37.060203552246094" lon="-118.49568176269531">
<ele>3270</ele>
<time>2016-10-11T15:58:59Z</time>
</trkpt>
<trkpt lat="37.06019973754883" lon="-118.49574279785156">
<ele>3270</ele>
<time>2016-10-11T15:59:08Z</time>
</trkpt>
<trkpt lat="37.06024932861328" lon="-118.49574279785156">
<ele>3269</ele>
<time>2016-10-11T15:59:22Z</time>
</trkpt>
<trkpt lat="37.060279846191406" lon="-118.49569702148438">
<ele>3272</ele>
<time>2016-10-11T15:59:31Z</time>
</trkpt>
<trkpt lat="37.060325622558594" lon="-118.49568939208984">
<ele>3266</ele>
<time>2016-10-11T15:59:39Z</time>
</trkpt>
<trkpt lat="37.06037902832031" lon="-118.49568939208984">
<ele>3265</ele>
<time>2016-10-11T15:59:55Z</time>
</trkpt>
<trkpt lat="37.0604133605957" lon="-118.4957275390625">
<ele>3265</ele>
<time>2016-10-11T16:00:07Z</time>
</trkpt>
<trkpt lat="37.06037521362305" lon="-118.49576568603516">
<ele>3266</ele>
<time>2016-10-11T16:00:14Z</time>
</trkpt>
<trkpt lat="37.060333251953125" lon="-118.49581146240234">
<ele>3268</ele>
<time>2016-10-11T16:00:31Z</time>
</trkpt>
<trkpt lat="37.060298919677734" lon="-118.49585723876953">
<ele>3264</ele>
<time>2016-10-11T16:00:39Z</time>
</trkpt>
<trkpt lat="37.06024932861328" lon="-118.49586486816406">
<ele>3270</ele>
<time>2016-10-11T16:00:52Z</time>
</trkpt>
<trkpt lat="37.06019592285156" lon="-118.49596405029297">
<ele>3271</ele>
<time>2016-10-11T16:01:01Z</time>
</trkpt>
<trkpt lat="37.060115814208984" lon="-118.49604797363281">
<ele>3277</ele>
<time>2016-10-11T16:01:16Z</time>
</trkpt>
<trkpt lat="37.0600471496582" lon="-118.49613952636719">
<ele>3281</ele>
<time>2016-10-11T16:01:29Z</time>
</trkpt>
<trkpt lat="37.06010818481445" lon="-118.49618530273438">
<ele>3270</ele>
<time>2016-10-11T16:02:29Z</time>
</trkpt>
<trkpt lat="37.06019592285156" lon="-118.49617767333984">
<ele>3272</ele>
<time>2016-10-11T16:03:00Z</time>
</trkpt>
<trkpt lat="37.0601921081543" lon="-118.4962387084961">
<ele>3273</ele>
<time>2016-10-11T16:03:10Z</time>
</trkpt>
<trkpt lat="37.06020736694336" lon="-118.49629974365234">
<ele>3273</ele>
<time>2016-10-11T16:03:17Z</time>
</trkpt>
<trkpt lat="37.060184478759766" lon="-118.4963607788086">
<ele>3274</ele>
<time>2016-10-11T16:03:50Z</time>
</trkpt>
<trkpt lat="37.060115814208984" lon="-118.49644470214844">
<ele>3279</ele>
<time>2016-10-11T16:04:16Z</time>
</trkpt>
<trkpt lat="37.060035705566406" lon="-118.49649047851563">
<ele>3285</ele>
<time>2016-10-11T16:04:31Z</time>
</trkpt>
<trkpt lat="37.0600700378418" lon="-118.49644470214844">
<ele>3285</ele>
<time>2016-10-11T16:05:31Z</time>
</trkpt>
<trkpt lat="37.06005096435547" lon="-118.49651336669922">
<ele>3281</ele>
<time>2016-10-11T16:06:52Z</time>
</trkpt>
<trkpt lat="37.06008529663086" lon="-118.49659729003906">
<ele>3283</ele>
<time>2016-10-11T16:07:06Z</time>
</trkpt>
<trkpt lat="37.06013107299805" lon="-118.49658966064453">
<ele>3289</ele>
<time>2016-10-11T16:07:21Z</time>
</trkpt>
<trkpt lat="37.060157775878906" lon="-118.49653625488281">
<ele>3290</ele>
<time>2016-10-11T16:07:28Z</time>
</trkpt>
<trkpt lat="37.060203552246094" lon="-118.4964828491211">
<ele>3284</ele>
<time>2016-10-11T16:07:37Z</time>
</trkpt>
<trkpt lat="37.06022262573242" lon="-118.49642181396484">
<ele>3285</ele>
<time>2016-10-11T16:07:44Z</time>
</trkpt>
<trkpt lat="37.06024932861328" lon="-118.49637603759766">
<ele>3287</ele>
<time>2016-10-11T16:07:52Z</time>
</trkpt>
<trkpt lat="37.06028366088867" lon="-118.49641418457031">
<ele>3293</ele>
<time>2016-10-11T16:08:00Z</time>
</trkpt>
<trkpt lat="37.060325622558594" lon="-118.4964370727539">
<ele>3294</ele>
<time>2016-10-11T16:08:08Z</time>
</trkpt>
<trkpt lat="37.06037139892578" lon="-118.49644470214844">
<ele>3297</ele>
<time>2016-10-11T16:08:26Z</time>
</trkpt>
<trkpt lat="37.060420989990234" lon="-118.49649047851563">
<ele>3299</ele>
<time>2016-10-11T16:08:44Z</time>
</trkpt>
<trkpt lat="37.06045913696289" lon="-118.49652862548828">
<ele>3299</ele>
<time>2016-10-11T16:08:50Z</time>
</trkpt>
<trkpt lat="37.06050491333008" lon="-118.49652099609375">
<ele>3303</ele>
<time>2016-10-11T16:09:17Z</time>
</trkpt>
<trkpt lat="37.06055450439453" lon="-118.49651336669922">
<ele>3302</ele>
<time>2016-10-11T16:09:29Z</time>
</trkpt>
<trkpt lat="37.06059646606445" lon="-118.49646759033203">
<ele>3302</ele>
<time>2016-10-11T16:09:38Z</time>
</trkpt>
<trkpt lat="37.06063461303711" lon="-118.49642944335938">
<ele>3304</ele>
<time>2016-10-11T16:09:45Z</time>
</trkpt>
<trkpt lat="37.0606575012207" lon="-118.4964828491211">
<ele>3304</ele>
<time>2016-10-11T16:10:05Z</time>
</trkpt>
<trkpt lat="37.06068801879883" lon="-118.49652099609375">
<ele>3310</ele>
<time>2016-10-11T16:10:22Z</time>
</trkpt>
<trkpt lat="37.060726165771484" lon="-118.4965591430664">
<ele>3309</ele>
<time>2016-10-11T16:10:30Z</time>
</trkpt>
<trkpt lat="37.060787200927734" lon="-118.49655151367188">
<ele>3313</ele>
<time>2016-10-11T16:10:59Z</time>
</trkpt>
<trkpt lat="37.06083679199219" lon="-118.49652099609375">
<ele>3315</ele>
<time>2016-10-11T16:11:11Z</time>
</trkpt>
<trkpt lat="37.060882568359375" lon="-118.49649047851563">
<ele>3310</ele>
<time>2016-10-11T16:11:20Z</time>
</trkpt>
<trkpt lat="37.06093215942383" lon="-118.49649810791016">
<ele>3316</ele>
<time>2016-10-11T16:11:40Z</time>
</trkpt>
<trkpt lat="37.06095504760742" lon="-118.49654388427734">
<ele>3327</ele>
<time>2016-10-11T16:12:08Z</time>
</trkpt>
<trkpt lat="37.060997009277344" lon="-118.49651336669922">
<ele>3325</ele>
<time>2016-10-11T16:12:20Z</time>
</trkpt>
<trkpt lat="37.061073303222656" lon="-118.4964828491211">
<ele>3326</ele>
<time>2016-10-11T16:12:40Z</time>
</trkpt>
<trkpt lat="37.06110763549805" lon="-118.49652862548828">
<ele>3332</ele>
<time>2016-10-11T16:13:14Z</time>
</trkpt>
<trkpt lat="37.06114959716797" lon="-118.49655151367188">
<ele>3330</ele>
<time>2016-10-11T16:13:24Z</time>
</trkpt>
<trkpt lat="37.061214447021484" lon="-118.4965591430664">
<ele>3329</ele>
<time>2016-10-11T16:13:47Z</time>
</trkpt>
<trkpt lat="37.06126022338867" lon="-118.49656677246094">
<ele>3334</ele>
<time>2016-10-11T16:14:24Z</time>
</trkpt>
<trkpt lat="37.061309814453125" lon="-118.49650573730469">
<ele>3347</ele>
<time>2016-10-11T16:15:17Z</time>
</trkpt>
<trkpt lat="37.06134033203125" lon="-118.4964599609375">
<ele>3347</ele>
<time>2016-10-11T16:15:23Z</time>
</trkpt>
<trkpt lat="37.06142044067383" lon="-118.4964370727539">
<ele>3341</ele>
<time>2016-10-11T16:15:59Z</time>
</trkpt>
<trkpt lat="37.06147384643555" lon="-118.4964370727539">
<ele>3344</ele>
<time>2016-10-11T16:16:29Z</time>
</trkpt>
<trkpt lat="37.06153869628906" lon="-118.49640655517578">
<ele>3344</ele>
<time>2016-10-11T16:16:36Z</time>
</trkpt>
<trkpt lat="37.061580657958984" lon="-118.49642944335938">
<ele>3346</ele>
<time>2016-10-11T16:16:45Z</time>
</trkpt>
<trkpt lat="37.06161117553711" lon="-118.49638366699219">
<ele>3342</ele>
<time>2016-10-11T16:16:52Z</time>
</trkpt>
<trkpt lat="37.06165313720703" lon="-118.49641418457031">
<ele>3341</ele>
<time>2016-10-11T16:17:00Z</time>
</trkpt>
<trkpt lat="37.06170654296875" lon="-118.49642181396484">
<ele>3345</ele>
<time>2016-10-11T16:17:07Z</time>
</trkpt>
<trkpt lat="37.06174850463867" lon="-118.49639892578125">
<ele>3345</ele>
<time>2016-10-11T16:17:17Z</time>
</trkpt>
<trkpt lat="37.06179428100586" lon="-118.49637603759766">
<ele>3347</ele>
<time>2016-10-11T16:17:30Z</time>
</trkpt>
<trkpt lat="37.06185531616211" lon="-118.49638366699219">
<ele>3349</ele>
<time>2016-10-11T16:17:37Z</time>
</trkpt>
<trkpt lat="37.06195831298828" lon="-118.49640655517578">
<ele>3350</ele>
<time>2016-10-11T16:17:48Z</time>
</trkpt>
<trkpt lat="37.062034606933594" lon="-118.4964828491211">
<ele>3353</ele>
<time>2016-10-11T16:17:58Z</time>
</trkpt>
<trkpt lat="37.06207275390625" lon="-118.49652862548828">
<ele>3353</ele>
<time>2016-10-11T16:18:06Z</time>
</trkpt>
<trkpt lat="37.06208801269531" lon="-118.49664306640625">
<ele>3356</ele>
<time>2016-10-11T16:18:22Z</time>
</trkpt>
<trkpt lat="37.062156677246094" lon="-118.49662780761719">
<ele>3354</ele>
<time>2016-10-11T16:18:38Z</time>
</trkpt>
<trkpt lat="37.06219482421875" lon="-118.49666595458984">
<ele>3360</ele>
<time>2016-10-11T16:18:57Z</time>
</trkpt>
<trkpt lat="37.06221008300781" lon="-118.49671936035156">
<ele>3363</ele>
<time>2016-10-11T16:19:11Z</time>
</trkpt>
<trkpt lat="37.06224822998047" lon="-118.49675750732422">
<ele>3362</ele>
<time>2016-10-11T16:19:17Z</time>
</trkpt>
<trkpt lat="37.062232971191406" lon="-118.49681091308594">
<ele>3363</ele>
<time>2016-10-11T16:19:23Z</time>
</trkpt>
<trkpt lat="37.06222152709961" lon="-118.49686431884766">
<ele>3365</ele>
<time>2016-10-11T16:19:31Z</time>
</trkpt>
<trkpt lat="37.0622673034668" lon="-118.49685668945313">
<ele>3367</ele>
<time>2016-10-11T16:19:43Z</time>
</trkpt>
<trkpt lat="37.062313079833984" lon="-118.49686431884766">
<ele>3368</ele>
<time>2016-10-11T16:20:05Z</time>
</trkpt>
<trkpt lat="37.06233596801758" lon="-118.49691009521484">
<ele>3373</ele>
<time>2016-10-11T16:20:13Z</time>
</trkpt>
<trkpt lat="37.062374114990234" lon="-118.4969482421875">
<ele>3376</ele>
<time>2016-10-11T16:20:26Z</time>
</trkpt>
<trkpt lat="37.06242752075195" lon="-118.4969482421875">
<ele>3380</ele>
<time>2016-10-11T16:20:44Z</time>
</trkpt>
<trkpt lat="37.06248092651367" lon="-118.49695587158203">
<ele>3385</ele>
<time>2016-10-11T16:21:02Z</time>
</trkpt>
<trkpt lat="37.0625" lon="-118.49700164794922">
<ele>3387</ele>
<time>2016-10-11T16:21:12Z</time>
</trkpt>
<trkpt lat="37.062496185302734" lon="-118.4970703125">
<ele>3387</ele>
<time>2016-10-11T16:21:20Z</time>
</trkpt>
<trkpt lat="37.06252670288086" lon="-118.49716186523438">
<ele>3390</ele>
<time>2016-10-11T16:21:43Z</time>
</trkpt>
<trkpt lat="37.06254196166992" lon="-118.49722290039063">
<ele>3389</ele>
<time>2016-10-11T16:21:50Z</time>
</trkpt>
<trkpt lat="37.062564849853516" lon="-118.49727630615234">
<ele>3390</ele>
<time>2016-10-11T16:21:59Z</time>
</trkpt>
<trkpt lat="37.06260299682617" lon="-118.49730682373047">
<ele>3390</ele>
<time>2016-10-11T16:22:08Z</time>
</trkpt>
<trkpt lat="37.06266784667969" lon="-118.4973373413086">
<ele>3391</ele>
<time>2016-10-11T16:23:18Z</time>
</trkpt>
<trkpt lat="37.062713623046875" lon="-118.49732208251953">
<ele>3393</ele>
<time>2016-10-11T16:23:24Z</time>
</trkpt>
<trkpt lat="37.06279373168945" lon="-118.4973373413086">
<ele>3397</ele>
<time>2016-10-11T16:23:44Z</time>
</trkpt>
<trkpt lat="37.06280517578125" lon="-118.49739837646484">
<ele>3399</ele>
<time>2016-10-11T16:23:52Z</time>
</trkpt>
<trkpt lat="37.06282043457031" lon="-118.4974594116211">
<ele>3398</ele>
<time>2016-10-11T16:24:04Z</time>
</trkpt>
<trkpt lat="37.06282424926758" lon="-118.49752044677734">
<ele>3394</ele>
<time>2016-10-11T16:24:10Z</time>
</trkpt>
<trkpt lat="37.062862396240234" lon="-118.49755859375">
<ele>3400</ele>
<time>2016-10-11T16:24:23Z</time>
</trkpt>
<trkpt lat="37.06290054321289" lon="-118.49764251708984">
<ele>3403</ele>
<time>2016-10-11T16:24:47Z</time>
</trkpt>
<trkpt lat="37.062950134277344" lon="-118.49764251708984">
<ele>3405</ele>
<time>2016-10-11T16:25:01Z</time>
</trkpt>
<trkpt lat="37.062992095947266" lon="-118.49761199951172">
<ele>3404</ele>
<time>2016-10-11T16:25:12Z</time>
</trkpt>
<trkpt lat="37.06303405761719" lon="-118.49764251708984">
<ele>3406</ele>
<time>2016-10-11T16:25:23Z</time>
</trkpt>
<trkpt lat="37.06307601928711" lon="-118.49761199951172">
<ele>3409</ele>
<time>2016-10-11T16:26:31Z</time>
</trkpt>
<trkpt lat="37.06311798095703" lon="-118.4976577758789">
<ele>3413</ele>
<time>2016-10-11T16:26:39Z</time>
</trkpt>
<trkpt lat="37.06315231323242" lon="-118.4977035522461">
<ele>3411</ele>
<time>2016-10-11T16:26:45Z</time>
</trkpt>
<trkpt lat="37.063201904296875" lon="-118.4977035522461">
<ele>3409</ele>
<time>2016-10-11T16:26:57Z</time>
</trkpt>
<trkpt lat="37.0632438659668" lon="-118.49769592285156">
<ele>3412</ele>
<time>2016-10-11T16:27:06Z</time>
</trkpt>
<trkpt lat="37.063255310058594" lon="-118.49763488769531">
<ele>3412</ele>
<time>2016-10-11T16:27:15Z</time>
</trkpt>
<trkpt lat="37.06330108642578" lon="-118.49760437011719">
<ele>3415</ele>
<time>2016-10-11T16:27:25Z</time>
</trkpt>
<trkpt lat="37.063358306884766" lon="-118.49755859375">
<ele>3413</ele>
<time>2016-10-11T16:27:46Z</time>
</trkpt>
<trkpt lat="37.06340026855469" lon="-118.4975814819336">
<ele>3419</ele>
<time>2016-10-11T16:27:58Z</time>
</trkpt>
<trkpt lat="37.06342315673828" lon="-118.49764251708984">
<ele>3424</ele>
<time>2016-10-11T16:28:11Z</time>
</trkpt>
<trkpt lat="37.063438415527344" lon="-118.49769592285156">
<ele>3424</ele>
<time>2016-10-11T16:28:21Z</time>
</trkpt>
<trkpt lat="37.063514709472656" lon="-118.49774169921875">
<ele>3431</ele>
<time>2016-10-11T16:28:57Z</time>
</trkpt>
<trkpt lat="37.06351852416992" lon="-118.497802734375">
<ele>3429</ele>
<time>2016-10-11T16:29:05Z</time>
</trkpt>
<trkpt lat="37.06354904174805" lon="-118.49784088134766">
<ele>3432</ele>
<time>2016-10-11T16:29:15Z</time>
</trkpt>
<trkpt lat="37.06359100341797" lon="-118.49787139892578">
<ele>3430</ele>
<time>2016-10-11T16:29:22Z</time>
</trkpt>
<trkpt lat="37.063663482666016" lon="-118.49790954589844">
<ele>3434</ele>
<time>2016-10-11T16:30:01Z</time>
</trkpt>
<trkpt lat="37.063697814941406" lon="-118.4979476928711">
<ele>3438</ele>
<time>2016-10-11T16:30:07Z</time>
</trkpt>
<trkpt lat="37.06373596191406" lon="-118.49798583984375">
<ele>3443</ele>
<time>2016-10-11T16:30:20Z</time>
</trkpt>
<trkpt lat="37.063785552978516" lon="-118.49800872802734">
<ele>3443</ele>
<time>2016-10-11T16:30:26Z</time>
</trkpt>
<trkpt lat="37.06376647949219" lon="-118.49810028076172">
<ele>3443</ele>
<time>2016-10-11T16:30:42Z</time>
</trkpt>
<trkpt lat="37.06379318237305" lon="-118.4981460571289">
<ele>3441</ele>
<time>2016-10-11T16:31:18Z</time>
</trkpt>
<trkpt lat="37.0638427734375" lon="-118.49811553955078">
<ele>3441</ele>
<time>2016-10-11T16:31:26Z</time>
</trkpt>
<trkpt lat="37.06391906738281" lon="-118.49813079833984">
<ele>3445</ele>
<time>2016-10-11T16:31:36Z</time>
</trkpt>
<trkpt lat="37.064002990722656" lon="-118.49808502197266">
<ele>3447</ele>
<time>2016-10-11T16:31:44Z</time>
</trkpt>
<trkpt lat="37.06407165527344" lon="-118.49800872802734">
<ele>3447</ele>
<time>2016-10-11T16:32:01Z</time>
</trkpt>
<trkpt lat="37.064125061035156" lon="-118.49799346923828">
<ele>3449</ele>
<time>2016-10-11T16:32:11Z</time>
</trkpt>
<trkpt lat="37.06416320800781" lon="-118.49797058105469">
<ele>3448</ele>
<time>2016-10-11T16:32:17Z</time>
</trkpt>
<trkpt lat="37.0642204284668" lon="-118.49797058105469">
<ele>3451</ele>
<time>2016-10-11T16:32:27Z</time>
</trkpt>
<trkpt lat="37.064300537109375" lon="-118.49796295166016">
<ele>3452</ele>
<time>2016-10-11T16:32:37Z</time>
</trkpt>
<trkpt lat="37.0643424987793" lon="-118.49793243408203">
<ele>3449</ele>
<time>2016-10-11T16:32:47Z</time>
</trkpt>
<trkpt lat="37.06436538696289" lon="-118.49799346923828">
<ele>3451</ele>
<time>2016-10-11T16:33:01Z</time>
</trkpt>
<trkpt lat="37.06432342529297" lon="-118.49808502197266">
<ele>3461</ele>
<time>2016-10-11T16:33:59Z</time>
</trkpt>
<trkpt lat="37.06437301635742" lon="-118.49805450439453">
<ele>3448</ele>
<time>2016-10-11T16:35:31Z</time>
</trkpt>
<trkpt lat="37.06441879272461" lon="-118.498046875">
<ele>3448</ele>
<time>2016-10-11T16:36:20Z</time>
</trkpt>
<trkpt lat="37.06449890136719" lon="-118.49799346923828">
<ele>3445</ele>
<time>2016-10-11T16:36:31Z</time>
</trkpt>
<trkpt lat="37.064598083496094" lon="-118.49798583984375">
<ele>3442</ele>
<time>2016-10-11T16:36:39Z</time>
</trkpt>
<trkpt lat="37.064632415771484" lon="-118.49787139892578">
<ele>3440</ele>
<time>2016-10-11T16:36:50Z</time>
</trkpt>
<trkpt lat="37.064720153808594" lon="-118.4978256225586">
<ele>3439</ele>
<time>2016-10-11T16:36:59Z</time>
</trkpt>
<trkpt lat="37.06475830078125" lon="-118.49779510498047">
<ele>3447</ele>
<time>2016-10-11T16:37:07Z</time>
</trkpt>
<trkpt lat="37.06481170654297" lon="-118.49781036376953">
<ele>3452</ele>
<time>2016-10-11T16:37:18Z</time>
</trkpt>
<trkpt lat="37.064857482910156" lon="-118.49781799316406">
<ele>3456</ele>
<time>2016-10-11T16:37:30Z</time>
</trkpt>
<trkpt lat="37.06489944458008" lon="-118.49777221679688">
<ele>3455</ele>
<time>2016-10-11T16:37:37Z</time>
</trkpt>
<trkpt lat="37.064945220947266" lon="-118.49775695800781">
<ele>3453</ele>
<time>2016-10-11T16:37:44Z</time>
</trkpt>
<trkpt lat="37.06503677368164" lon="-118.49777221679688">
<ele>3466</ele>
<time>2016-10-11T16:38:11Z</time>
</trkpt>
<trkpt lat="37.06505584716797" lon="-118.49783325195313">
<ele>3463</ele>
<time>2016-10-11T16:38:18Z</time>
</trkpt>
<trkpt lat="37.06508255004883" lon="-118.49787139892578">
<ele>3457</ele>
<time>2016-10-11T16:38:26Z</time>
</trkpt>
<trkpt lat="37.06513214111328" lon="-118.4979019165039">
<ele>3454</ele>
<time>2016-10-11T16:38:37Z</time>
</trkpt>
<trkpt lat="37.06520080566406" lon="-118.49798583984375">
<ele>3458</ele>
<time>2016-10-11T16:38:47Z</time>
</trkpt>
<trkpt lat="37.06527328491211" lon="-118.49806213378906">
<ele>3454</ele>
<time>2016-10-11T16:38:58Z</time>
</trkpt>
<trkpt lat="37.065364837646484" lon="-118.49810028076172">
<ele>3454</ele>
<time>2016-10-11T16:39:06Z</time>
</trkpt>
<trkpt lat="37.06540298461914" lon="-118.49813079833984">
<ele>3450</ele>
<time>2016-10-11T16:39:15Z</time>
</trkpt>
<trkpt lat="37.065425872802734" lon="-118.49818420410156">
<ele>3454</ele>
<time>2016-10-11T16:39:24Z</time>
</trkpt>
<trkpt lat="37.0654182434082" lon="-118.49812316894531">
<ele>3458</ele>
<time>2016-10-11T16:40:31Z</time>
</trkpt>
<trkpt lat="37.06538391113281" lon="-118.49817657470703">
<ele>3444</ele>
<time>2016-10-11T16:41:49Z</time>
</trkpt>
<trkpt lat="37.06542205810547" lon="-118.49821472167969">
<ele>3445</ele>
<time>2016-10-11T16:42:07Z</time>
</trkpt>
</trkseg>
</trk>
<trk>
<name><![CDATA[10110942]]></name>
<number>39</number>
<extensions><topografix:color>ff000066</topografix:color></extensions>
<trkseg>
<trkpt lat="37.06544876098633" lon="-118.49819946289063">
<ele>3440</ele>
<time>2016-10-11T16:42:14Z</time>
</trkpt>
<trkpt lat="37.06550216674805" lon="-118.49819946289063">
<ele>3437</ele>
<time>2016-10-11T16:42:24Z</time>
</trkpt>
<trkpt lat="37.065582275390625" lon="-118.49822235107422">
<ele>3438</ele>
<time>2016-10-11T16:42:31Z</time>
</trkpt>
<trkpt lat="37.065616607666016" lon="-118.49828338623047">
<ele>3444</ele>
<time>2016-10-11T16:42:41Z</time>
</trkpt>
<trkpt lat="37.06563186645508" lon="-118.49833679199219">
<ele>3442</ele>
<time>2016-10-11T16:42:47Z</time>
</trkpt>
<trkpt lat="37.06564712524414" lon="-118.49827575683594">
<ele>3445</ele>
<time>2016-10-11T16:42:59Z</time>
</trkpt>
<trkpt lat="37.06570816040039" lon="-118.49817657470703">
<ele>3443</ele>
<time>2016-10-11T16:43:07Z</time>
</trkpt>
<trkpt lat="37.06573486328125" lon="-118.49813079833984">
<ele>3443</ele>
<time>2016-10-11T16:43:13Z</time>
</trkpt>
<trkpt lat="37.065765380859375" lon="-118.49808502197266">
<ele>3436</ele>
<time>2016-10-11T16:43:20Z</time>
</trkpt>
<trkpt lat="37.06584930419922" lon="-118.49801635742188">
<ele>3435</ele>
<time>2016-10-11T16:43:28Z</time>
</trkpt>
<trkpt lat="37.06595230102539" lon="-118.49800109863281">
<ele>3437</ele>
<time>2016-10-11T16:43:38Z</time>
</trkpt>
<trkpt lat="37.066043853759766" lon="-118.49798583984375">
<ele>3444</ele>
<time>2016-10-11T16:43:49Z</time>
</trkpt>
<trkpt lat="37.06609344482422" lon="-118.49799346923828">
<ele>3453</ele>
<time>2016-10-11T16:44:00Z</time>
</trkpt>
<trkpt lat="37.06612014770508" lon="-118.498046875">
<ele>3457</ele>
<time>2016-10-11T16:44:08Z</time>
</trkpt>
<trkpt lat="37.066165924072266" lon="-118.498046875">
<ele>3457</ele>
<time>2016-10-11T16:44:27Z</time>
</trkpt>
<trkpt lat="37.06620788574219" lon="-118.49801635742188">
<ele>3468</ele>
<time>2016-10-11T16:45:04Z</time>
</trkpt>
<trkpt lat="37.066246032714844" lon="-118.49797058105469">
<ele>3462</ele>
<time>2016-10-11T16:45:16Z</time>
</trkpt>
<trkpt lat="37.066322326660156" lon="-118.4979476928711">
<ele>3461</ele>
<time>2016-10-11T16:45:42Z</time>
</trkpt>
<trkpt lat="37.06633758544922" lon="-118.49800872802734">
<ele>3463</ele>
<time>2016-10-11T16:45:48Z</time>
</trkpt>
<trkpt lat="37.06636428833008" lon="-118.49806213378906">
<ele>3466</ele>
<time>2016-10-11T16:45:55Z</time>
</trkpt>
<trkpt lat="37.06645965576172" lon="-118.49805450439453">
<ele>3464</ele>
<time>2016-10-11T16:46:03Z</time>
</trkpt>
<trkpt lat="37.06645965576172" lon="-118.49811553955078">
<ele>3467</ele>
<time>2016-10-11T16:46:09Z</time>
</trkpt>
<trkpt lat="37.06645584106445" lon="-118.49817657470703">
<ele>3470</ele>
<time>2016-10-11T16:46:18Z</time>
</trkpt>
<trkpt lat="37.066436767578125" lon="-118.498291015625">
<ele>3472</ele>
<time>2016-10-11T16:46:39Z</time>
</trkpt>
<trkpt lat="37.066505432128906" lon="-118.49835205078125">
<ele>3463</ele>
<time>2016-10-11T16:46:51Z</time>
</trkpt>
<trkpt lat="37.066524505615234" lon="-118.49845886230469">
<ele>3462</ele>
<time>2016-10-11T16:47:03Z</time>
</trkpt>
<trkpt lat="37.06649398803711" lon="-118.4985122680664">
<ele>3465</ele>
<time>2016-10-11T16:47:12Z</time>
</trkpt>
<trkpt lat="37.066444396972656" lon="-118.49856567382813">
<ele>3464</ele>
<time>2016-10-11T16:47:20Z</time>
</trkpt>
<trkpt lat="37.06645965576172" lon="-118.49861907958984">
<ele>3460</ele>
<time>2016-10-11T16:47:27Z</time>
</trkpt>
<trkpt lat="37.06650161743164" lon="-118.4986572265625">
<ele>3455</ele>
<time>2016-10-11T16:47:34Z</time>
</trkpt>
<trkpt lat="37.06651306152344" lon="-118.49872589111328">
<ele>3458</ele>
<time>2016-10-11T16:47:41Z</time>
</trkpt>
<trkpt lat="37.06651306152344" lon="-118.498779296875">
<ele>3460</ele>
<time>2016-10-11T16:47:49Z</time>
</trkpt>
<trkpt lat="37.066524505615234" lon="-118.49883270263672">
<ele>3462</ele>
<time>2016-10-11T16:47:55Z</time>
</trkpt>
<trkpt lat="37.06653594970703" lon="-118.49889373779297">
<ele>3466</ele>
<time>2016-10-11T16:48:09Z</time>
</trkpt>
<trkpt lat="37.06658172607422" lon="-118.49887084960938">
<ele>3466</ele>
<time>2016-10-11T16:48:30Z</time>
</trkpt>
<trkpt lat="37.06663131713867" lon="-118.49886322021484">
<ele>3471</ele>
<time>2016-10-11T16:48:45Z</time>
</trkpt>
<trkpt lat="37.066680908203125" lon="-118.49887084960938">
<ele>3465</ele>
<time>2016-10-11T16:49:06Z</time>
</trkpt>
<trkpt lat="37.06671142578125" lon="-118.49897003173828">
<ele>3471</ele>
<time>2016-10-11T16:49:22Z</time>
</trkpt>
<trkpt lat="37.06675720214844" lon="-118.49906158447266">
<ele>3472</ele>
<time>2016-10-11T16:49:35Z</time>
</trkpt>
<trkpt lat="37.0667839050293" lon="-118.49911499023438">
<ele>3476</ele>
<time>2016-10-11T16:49:57Z</time>
</trkpt>
<trkpt lat="37.066795349121094" lon="-118.49923706054688">
<ele>3481</ele>
<time>2016-10-11T16:50:08Z</time>
</trkpt>
<trkpt lat="37.06681442260742" lon="-118.49916076660156">
<ele>3478</ele>
<time>2016-10-11T16:50:37Z</time>
</trkpt>
<trkpt lat="37.0668830871582" lon="-118.49922943115234">
<ele>3478</ele>
<time>2016-10-11T16:50:53Z</time>
</trkpt>
<trkpt lat="37.066917419433594" lon="-118.49935150146484">
<ele>3480</ele>
<time>2016-10-11T16:51:01Z</time>
</trkpt>
<trkpt lat="37.066993713378906" lon="-118.4993896484375">
<ele>3480</ele>
<time>2016-10-11T16:51:14Z</time>
</trkpt>
<trkpt lat="37.0670166015625" lon="-118.49943542480469">
<ele>3481</ele>
<time>2016-10-11T16:51:20Z</time>
</trkpt>
<trkpt lat="37.06703567504883" lon="-118.49949645996094">
<ele>3489</ele>
<time>2016-10-11T16:51:33Z</time>
</trkpt>
<trkpt lat="37.06703567504883" lon="-118.49943542480469">
<ele>3488</ele>
<time>2016-10-11T16:51:53Z</time>
</trkpt>
<trkpt lat="37.06708526611328" lon="-118.49942779541016">
<ele>3487</ele>
<time>2016-10-11T16:52:03Z</time>
</trkpt>
<trkpt lat="37.067081451416016" lon="-118.49951934814453">
<ele>3497</ele>
<time>2016-10-11T16:52:21Z</time>
</trkpt>
<trkpt lat="37.06711959838867" lon="-118.49948120117188">
<ele>3499</ele>
<time>2016-10-11T16:52:41Z</time>
</trkpt>
<trkpt lat="37.067169189453125" lon="-118.49945068359375">
<ele>3502</ele>
<time>2016-10-11T16:52:49Z</time>
</trkpt>
<trkpt lat="37.06721496582031" lon="-118.49946594238281">
<ele>3503</ele>
<time>2016-10-11T16:52:57Z</time>
</trkpt>
<trkpt lat="37.06721115112305" lon="-118.49940490722656">
<ele>3502</ele>
<time>2016-10-11T16:53:08Z</time>
</trkpt>
<trkpt lat="37.067222595214844" lon="-118.49932861328125">
<ele>3502</ele>
<time>2016-10-11T16:53:14Z</time>
</trkpt>
<trkpt lat="37.06720733642578" lon="-118.499267578125">
<ele>3504</ele>
<time>2016-10-11T16:53:20Z</time>
</trkpt>
<trkpt lat="37.06722640991211" lon="-118.49921417236328">
<ele>3495</ele>
<time>2016-10-11T16:53:30Z</time>
</trkpt>
<trkpt lat="37.067230224609375" lon="-118.49915313720703">
<ele>3500</ele>
<time>2016-10-11T16:53:53Z</time>
</trkpt>
<trkpt lat="37.067325592041016" lon="-118.4991226196289">
<ele>3499</ele>
<time>2016-10-11T16:54:03Z</time>
</trkpt>
<trkpt lat="37.06737518310547" lon="-118.49915313720703">
<ele>3495</ele>
<time>2016-10-11T16:54:11Z</time>
</trkpt>
<trkpt lat="37.06744384765625" lon="-118.49916076660156">
<ele>3499</ele>
<time>2016-10-11T16:54:20Z</time>
</trkpt>
<trkpt lat="37.06748962402344" lon="-118.49917602539063">
<ele>3498</ele>
<time>2016-10-11T16:54:32Z</time>
</trkpt>
<trkpt lat="37.06753921508789" lon="-118.4991683959961">
<ele>3497</ele>
<time>2016-10-11T16:54:54Z</time>
</trkpt>
<trkpt lat="37.067604064941406" lon="-118.4991683959961">
<ele>3513</ele>
<time>2016-10-11T16:55:28Z</time>
</trkpt>
<trkpt lat="37.06764221191406" lon="-118.49913787841797">
<ele>3510</ele>
<time>2016-10-11T16:55:40Z</time>
</trkpt>
<trkpt lat="37.06767272949219" lon="-118.49918365478516">
<ele>3509</ele>
<time>2016-10-11T16:55:57Z</time>
</trkpt>
<trkpt lat="37.067718505859375" lon="-118.49918365478516">
<ele>3513</ele>
<time>2016-10-11T16:56:07Z</time>
</trkpt>
<trkpt lat="37.06778335571289" lon="-118.4991226196289">
<ele>3513</ele>
<time>2016-10-11T16:56:23Z</time>
</trkpt>
<trkpt lat="37.06782531738281" lon="-118.49909973144531">
<ele>3513</ele>
<time>2016-10-11T16:56:34Z</time>
</trkpt>
<trkpt lat="37.06786346435547" lon="-118.49906158447266">
<ele>3514</ele>
<time>2016-10-11T16:56:45Z</time>
</trkpt>
<trkpt lat="37.067901611328125" lon="-118.49901580810547">
<ele>3514</ele>
<time>2016-10-11T16:56:54Z</time>
</trkpt>
<trkpt lat="37.06794738769531" lon="-118.4990005493164">
<ele>3517</ele>
<time>2016-10-11T16:57:02Z</time>
</trkpt>
<trkpt lat="37.0679817199707" lon="-118.49896240234375">
<ele>3519</ele>
<time>2016-10-11T16:57:52Z</time>
</trkpt>
<trkpt lat="37.06801223754883" lon="-118.49891662597656">
<ele>3509</ele>
<time>2016-10-11T16:58:04Z</time>
</trkpt>
<trkpt lat="37.06803894042969" lon="-118.49884796142578">
<ele>3517</ele>
<time>2016-10-11T16:58:50Z</time>
</trkpt>
<trkpt lat="37.068092346191406" lon="-118.49884033203125">
<ele>3524</ele>
<time>2016-10-11T16:58:59Z</time>
</trkpt>
<trkpt lat="37.068138122558594" lon="-118.49884033203125">
<ele>3527</ele>
<time>2016-10-11T16:59:11Z</time>
</trkpt>
<trkpt lat="37.068199157714844" lon="-118.49888610839844">
<ele>3517</ele>
<time>2016-10-11T16:59:32Z</time>
</trkpt>
<trkpt lat="37.0682487487793" lon="-118.49898529052734">
<ele>3511</ele>
<time>2016-10-11T16:59:45Z</time>
</trkpt>
<trkpt lat="37.06824493408203" lon="-118.49911499023438">
<ele>3515</ele>
<time>2016-10-11T17:00:00Z</time>
</trkpt>
<trkpt lat="37.068267822265625" lon="-118.49923706054688">
<ele>3516</ele>
<time>2016-10-11T17:00:09Z</time>
</trkpt>
<trkpt lat="37.068336486816406" lon="-118.49932098388672">
<ele>3520</ele>
<time>2016-10-11T17:00:22Z</time>
</trkpt>
<trkpt lat="37.06835174560547" lon="-118.49937438964844">
<ele>3520</ele>
<time>2016-10-11T17:00:28Z</time>
</trkpt>
<trkpt lat="37.06836700439453" lon="-118.49943542480469">
<ele>3520</ele>
<time>2016-10-11T17:00:34Z</time>
</trkpt>
<trkpt lat="37.068397521972656" lon="-118.49954223632813">
<ele>3525</ele>
<time>2016-10-11T17:00:45Z</time>
</trkpt>
<trkpt lat="37.06840133666992" lon="-118.49960327148438">
<ele>3522</ele>
<time>2016-10-11T17:00:52Z</time>
</trkpt>
<trkpt lat="37.06837844848633" lon="-118.49954986572266">
<ele>3527</ele>
<time>2016-10-11T17:01:04Z</time>
</trkpt>
<trkpt lat="37.06837463378906" lon="-118.4996109008789">
<ele>3530</ele>
<time>2016-10-11T17:01:24Z</time>
</trkpt>
<trkpt lat="37.068450927734375" lon="-118.49968719482422">
<ele>3531</ele>
<time>2016-10-11T17:01:38Z</time>
</trkpt>
<trkpt lat="37.06848907470703" lon="-118.49964141845703">
<ele>3537</ele>
<time>2016-10-11T17:01:48Z</time>
</trkpt>
<trkpt lat="37.068538665771484" lon="-118.49964141845703">
<ele>3535</ele>
<time>2016-10-11T17:02:09Z</time>
</trkpt>
<trkpt lat="37.06855773925781" lon="-118.49957275390625">
<ele>3534</ele>
<time>2016-10-11T17:02:31Z</time>
</trkpt>
<trkpt lat="37.06859588623047" lon="-118.49954223632813">
<ele>3537</ele>
<time>2016-10-11T17:02:42Z</time>
</trkpt>
<trkpt lat="37.06862258911133" lon="-118.4994888305664">
<ele>3536</ele>
<time>2016-10-11T17:02:56Z</time>
</trkpt>
<trkpt lat="37.068668365478516" lon="-118.49949645996094">
<ele>3535</ele>
<time>2016-10-11T17:03:05Z</time>
</trkpt>
<trkpt lat="37.068687438964844" lon="-118.49956512451172">
<ele>3540</ele>
<time>2016-10-11T17:04:05Z</time>
</trkpt>
<trkpt lat="37.068729400634766" lon="-118.49951934814453">
<ele>3538</ele>
<time>2016-10-11T17:05:14Z</time>
</trkpt>
<trkpt lat="37.068721771240234" lon="-118.49946594238281">
<ele>3543</ele>
<time>2016-10-11T17:05:47Z</time>
</trkpt>
<trkpt lat="37.068748474121094" lon="-118.4994125366211">
<ele>3550</ele>
<time>2016-10-11T17:06:39Z</time>
</trkpt>
<trkpt lat="37.06879425048828" lon="-118.49939727783203">
<ele>3549</ele>
<time>2016-10-11T17:06:49Z</time>
</trkpt>
<trkpt lat="37.06881332397461" lon="-118.49945068359375">
<ele>3553</ele>
<time>2016-10-11T17:07:02Z</time>
</trkpt>
<trkpt lat="37.06884765625" lon="-118.49950408935547">
<ele>3555</ele>
<time>2016-10-11T17:07:08Z</time>
</trkpt>
<trkpt lat="37.06889724731445" lon="-118.49952697753906">
<ele>3564</ele>
<time>2016-10-11T17:07:31Z</time>
</trkpt>
<trkpt lat="37.068939208984375" lon="-118.49951171875">
<ele>3563</ele>
<time>2016-10-11T17:08:00Z</time>
</trkpt>
<trkpt lat="37.0689697265625" lon="-118.49955749511719">
<ele>3565</ele>
<time>2016-10-11T17:08:07Z</time>
</trkpt>
<trkpt lat="37.068973541259766" lon="-118.49964141845703">
<ele>3567</ele>
<time>2016-10-11T17:08:14Z</time>
</trkpt>
<trkpt lat="37.06900405883789" lon="-118.49968719482422">
<ele>3566</ele>
<time>2016-10-11T17:08:21Z</time>
</trkpt>
<trkpt lat="37.069007873535156" lon="-118.49974822998047">
<ele>3567</ele>
<time>2016-10-11T17:08:28Z</time>
</trkpt>
<trkpt lat="37.069034576416016" lon="-118.49980163574219">
<ele>3562</ele>
<time>2016-10-11T17:08:40Z</time>
</trkpt>
<trkpt lat="37.06907653808594" lon="-118.49983215332031">
<ele>3563</ele>
<time>2016-10-11T17:09:04Z</time>
</trkpt>
<trkpt lat="37.06911849975586" lon="-118.4998550415039">
<ele>3564</ele>
<time>2016-10-11T17:09:12Z</time>
</trkpt>
<trkpt lat="37.069183349609375" lon="-118.4998550415039">
<ele>3568</ele>
<time>2016-10-11T17:09:23Z</time>
</trkpt>
<trkpt lat="37.0692138671875" lon="-118.49980163574219">
<ele>3564</ele>
<time>2016-10-11T17:09:44Z</time>
</trkpt>
<trkpt lat="37.06925582885742" lon="-118.49981689453125">
<ele>3563</ele>
<time>2016-10-11T17:09:52Z</time>
</trkpt>
<trkpt lat="37.069244384765625" lon="-118.4998779296875">
<ele>3565</ele>
<time>2016-10-11T17:10:05Z</time>
</trkpt>
<trkpt lat="37.06932067871094" lon="-118.49986267089844">
<ele>3568</ele>
<time>2016-10-11T17:10:28Z</time>
</trkpt>
<trkpt lat="37.06932067871094" lon="-118.49998474121094">
<ele>3575</ele>
<time>2016-10-11T17:10:45Z</time>
</trkpt>
<trkpt lat="37.06935501098633" lon="-118.50001525878906">
<ele>3577</ele>
<time>2016-10-11T17:11:12Z</time>
</trkpt>
<trkpt lat="37.069419860839844" lon="-118.50003814697266">
<ele>3579</ele>
<time>2016-10-11T17:11:22Z</time>
</trkpt>
<trkpt lat="37.0694465637207" lon="-118.50008392333984">
<ele>3575</ele>
<time>2016-10-11T17:11:45Z</time>
</trkpt>
<trkpt lat="37.07106018066406" lon="-118.49958801269531">
<ele>3652</ele>
<time>2016-10-11T17:26:07Z</time>
</trkpt>
<trkpt lat="37.07107162475586" lon="-118.49952697753906">
<ele>3653</ele>
<time>2016-10-11T17:28:14Z</time>
</trkpt>
</trkseg>
</trk>
<trk>
<name><![CDATA[10111030]]></name>
<number>40</number>
<extensions><topografix:color>ff000066</topografix:color></extensions>
<trkseg>
<trkpt lat="37.071109771728516" lon="-118.4995346069336">
<ele>3658</ele>
<time>2016-10-11T17:30:42Z</time>
</trkpt>
<trkpt lat="37.071102142333984" lon="-118.49959564208984">
<ele>3662</ele>
<time>2016-10-11T17:32:03Z</time>
</trkpt>
<trkpt lat="37.07110595703125" lon="-118.49972534179688">
<ele>3661</ele>
<time>2016-10-11T17:32:13Z</time>
</trkpt>
<trkpt lat="37.07114028930664" lon="-118.49983215332031">
<ele>3660</ele>
<time>2016-10-11T17:32:22Z</time>
</trkpt>
<trkpt lat="37.0711784362793" lon="-118.49986267089844">
<ele>3661</ele>
<time>2016-10-11T17:32:30Z</time>
</trkpt>
<trkpt lat="37.071266174316406" lon="-118.49993133544922">
<ele>3659</ele>
<time>2016-10-11T17:32:41Z</time>
</trkpt>
<trkpt lat="37.07135772705078" lon="-118.49994659423828">
<ele>3653</ele>
<time>2016-10-11T17:34:23Z</time>
</trkpt>
<trkpt lat="37.07139205932617" lon="-118.4999008178711">
<ele>3648</ele>
<time>2016-10-11T17:35:04Z</time>
</trkpt>
<trkpt lat="37.07143783569336" lon="-118.49988555908203">
<ele>3648</ele>
<time>2016-10-11T17:35:14Z</time>
</trkpt>
<trkpt lat="37.071468353271484" lon="-118.49998474121094">
<ele>3652</ele>
<time>2016-10-11T17:35:27Z</time>
</trkpt>
<trkpt lat="37.07149887084961" lon="-118.50003814697266">
<ele>3648</ele>
<time>2016-10-11T17:35:38Z</time>
</trkpt>
<trkpt lat="37.071556091308594" lon="-118.5001220703125">
<ele>3642</ele>
<time>2016-10-11T17:36:12Z</time>
</trkpt>
<trkpt lat="37.07159423828125" lon="-118.50008392333984">
<ele>3641</ele>
<time>2016-10-11T17:36:22Z</time>
</trkpt>
<trkpt lat="37.07164764404297" lon="-118.50006103515625">
<ele>3633</ele>
<time>2016-10-11T17:37:25Z</time>
</trkpt>
<trkpt lat="37.07174301147461" lon="-118.50004577636719">
<ele>3631</ele>
<time>2016-10-11T17:37:38Z</time>
</trkpt>
<trkpt lat="37.07177734375" lon="-118.50009155273438">
<ele>3628</ele>
<time>2016-10-11T17:39:42Z</time>
</trkpt>
<trkpt lat="37.071807861328125" lon="-118.50004577636719">
<ele>3628</ele>
<time>2016-10-11T17:39:51Z</time>
</trkpt>
<trkpt lat="37.07184982299805" lon="-118.50006103515625">
<ele>3625</ele>
<time>2016-10-11T17:40:10Z</time>
</trkpt>
<trkpt lat="37.0718994140625" lon="-118.50004577636719">
<ele>3623</ele>
<time>2016-10-11T17:40:19Z</time>
</trkpt>
<trkpt lat="37.07194137573242" lon="-118.50011444091797">
<ele>3621</ele>
<time>2016-10-11T17:40:46Z</time>
</trkpt>
<trkpt lat="37.07204055786133" lon="-118.50013732910156">
<ele>3617</ele>
<time>2016-10-11T17:41:06Z</time>
</trkpt>
<trkpt lat="37.07207489013672" lon="-118.50009155273438">
<ele>3613</ele>
<time>2016-10-11T17:41:18Z</time>
</trkpt>
<trkpt lat="37.072120666503906" lon="-118.50008392333984">
<ele>3615</ele>
<time>2016-10-11T17:41:25Z</time>
</trkpt>
<trkpt lat="37.072208404541016" lon="-118.50003814697266">
<ele>3616</ele>
<time>2016-10-11T17:41:34Z</time>
</trkpt>
<trkpt lat="37.07219314575195" lon="-118.50012969970703">
<ele>3618</ele>
<time>2016-10-11T17:42:07Z</time>
</trkpt>
<trkpt lat="37.07215118408203" lon="-118.50016021728516">
<ele>3617</ele>
<time>2016-10-11T17:42:13Z</time>
</trkpt>
<trkpt lat="37.07212448120117" lon="-118.50021362304688">
<ele>3618</ele>
<time>2016-10-11T17:42:19Z</time>
</trkpt>
<trkpt lat="37.07216262817383" lon="-118.50030517578125">
<ele>3612</ele>
<time>2016-10-11T17:42:35Z</time>
</trkpt>
<trkpt lat="37.07212829589844" lon="-118.5003662109375">
<ele>3607</ele>
<time>2016-10-11T17:42:56Z</time>
</trkpt>
<trkpt lat="37.0721435546875" lon="-118.50047302246094">
<ele>3605</ele>
<time>2016-10-11T17:43:51Z</time>
</trkpt>
<trkpt lat="37.07215118408203" lon="-118.50052642822266">
<ele>3605</ele>
<time>2016-10-11T17:44:14Z</time>
</trkpt>
<trkpt lat="37.07219314575195" lon="-118.50050354003906">
<ele>3602</ele>
<time>2016-10-11T17:44:32Z</time>
</trkpt>
<trkpt lat="37.07223892211914" lon="-118.50048828125">
<ele>3602</ele>
<time>2016-10-11T17:44:40Z</time>
</trkpt>
<trkpt lat="37.07223129272461" lon="-118.50054931640625">
<ele>3599</ele>
<time>2016-10-11T17:44:48Z</time>
</trkpt>
<trkpt lat="37.07227325439453" lon="-118.50057983398438">
<ele>3599</ele>
<time>2016-10-11T17:44:55Z</time>
</trkpt>
<trkpt lat="37.07231140136719" lon="-118.50054931640625">
<ele>3598</ele>
<time>2016-10-11T17:45:11Z</time>
</trkpt>
<trkpt lat="37.07231903076172" lon="-118.5006103515625">
<ele>3594</ele>
<time>2016-10-11T17:45:29Z</time>
</trkpt>
<trkpt lat="37.07237243652344" lon="-118.5006103515625">
<ele>3594</ele>
<time>2016-10-11T17:46:21Z</time>
</trkpt>
<trkpt lat="37.072418212890625" lon="-118.50059509277344">
<ele>3594</ele>
<time>2016-10-11T17:46:28Z</time>
</trkpt>
<trkpt lat="37.07242965698242" lon="-118.50065612792969">
<ele>3596</ele>
<time>2016-10-11T17:46:52Z</time>
</trkpt>
<trkpt lat="37.07247543334961" lon="-118.50065612792969">
<ele>3593</ele>
<time>2016-10-11T17:47:06Z</time>
</trkpt>
<trkpt lat="37.07252502441406" lon="-118.5006332397461">
<ele>3583</ele>
<time>2016-10-11T17:47:20Z</time>
</trkpt>
<trkpt lat="37.072574615478516" lon="-118.50064086914063">
<ele>3584</ele>
<time>2016-10-11T17:47:31Z</time>
</trkpt>
<trkpt lat="37.07263946533203" lon="-118.50066375732422">
<ele>3580</ele>
<time>2016-10-11T17:47:50Z</time>
</trkpt>
<trkpt lat="37.07268524169922" lon="-118.5006332397461">
<ele>3582</ele>
<time>2016-10-11T17:47:56Z</time>
</trkpt>
<trkpt lat="37.07271957397461" lon="-118.50067901611328">
<ele>3579</ele>
<time>2016-10-11T17:48:02Z</time>
</trkpt>
<trkpt lat="37.0727653503418" lon="-118.50069427490234">
<ele>3579</ele>
<time>2016-10-11T17:48:08Z</time>
</trkpt>
<trkpt lat="37.072811126708984" lon="-118.5007095336914">
<ele>3574</ele>
<time>2016-10-11T17:48:24Z</time>
</trkpt>
<trkpt lat="37.07280731201172" lon="-118.50077056884766">
<ele>3577</ele>
<time>2016-10-11T17:48:34Z</time>
</trkpt>
<trkpt lat="37.07284927368164" lon="-118.50079345703125">
<ele>3576</ele>
<time>2016-10-11T17:48:41Z</time>
</trkpt>
<trkpt lat="37.07292556762695" lon="-118.5008316040039">
<ele>3571</ele>
<time>2016-10-11T17:48:54Z</time>
</trkpt>
<trkpt lat="37.07295227050781" lon="-118.50077819824219">
<ele>3570</ele>
<time>2016-10-11T17:49:04Z</time>
</trkpt>
<trkpt lat="37.072994232177734" lon="-118.50080108642578">
<ele>3568</ele>
<time>2016-10-11T17:49:13Z</time>
</trkpt>
<trkpt lat="37.07303237915039" lon="-118.50083923339844">
<ele>3568</ele>
<time>2016-10-11T17:49:20Z</time>
</trkpt>
<trkpt lat="37.073081970214844" lon="-118.5008544921875">
<ele>3567</ele>
<time>2016-10-11T17:49:26Z</time>
</trkpt>
<trkpt lat="37.07312774658203" lon="-118.50084686279297">
<ele>3568</ele>
<time>2016-10-11T17:49:33Z</time>
</trkpt>
<trkpt lat="37.07316207885742" lon="-118.50078582763672">
<ele>3565</ele>
<time>2016-10-11T17:49:48Z</time>
</trkpt>
<trkpt lat="37.07310485839844" lon="-118.50080108642578">
<ele>3560</ele>
<time>2016-10-11T17:50:16Z</time>
</trkpt>
<trkpt lat="37.07304000854492" lon="-118.50090789794922">
<ele>3558</ele>
<time>2016-10-11T17:50:24Z</time>
</trkpt>
<trkpt lat="37.07295608520508" lon="-118.50096130371094">
<ele>3557</ele>
<time>2016-10-11T17:50:34Z</time>
</trkpt>
<trkpt lat="37.07296371459961" lon="-118.50104522705078">
<ele>3559</ele>
<time>2016-10-11T17:50:56Z</time>
</trkpt>
<trkpt lat="37.07292938232422" lon="-118.50109100341797">
<ele>3555</ele>
<time>2016-10-11T17:51:15Z</time>
</trkpt>
<trkpt lat="37.07289505004883" lon="-118.50112915039063">
<ele>3551</ele>
<time>2016-10-11T17:51:22Z</time>
</trkpt>
<trkpt lat="37.072872161865234" lon="-118.50118255615234">
<ele>3552</ele>
<time>2016-10-11T17:51:30Z</time>
</trkpt>
<trkpt lat="37.072853088378906" lon="-118.50123596191406">
<ele>3553</ele>
<time>2016-10-11T17:51:38Z</time>
</trkpt>
<trkpt lat="37.07279968261719" lon="-118.5013198852539">
<ele>3553</ele>
<time>2016-10-11T17:51:48Z</time>
</trkpt>
<trkpt lat="37.07284164428711" lon="-118.5013427734375">
<ele>3549</ele>
<time>2016-10-11T17:52:05Z</time>
</trkpt>
<trkpt lat="37.0728874206543" lon="-118.5013198852539">
<ele>3547</ele>
<time>2016-10-11T17:52:13Z</time>
</trkpt>
<trkpt lat="37.072940826416016" lon="-118.50132751464844">
<ele>3548</ele>
<time>2016-10-11T17:52:21Z</time>
</trkpt>
<trkpt lat="37.07302474975586" lon="-118.50137329101563">
<ele>3547</ele>
<time>2016-10-11T17:52:31Z</time>
</trkpt>
<trkpt lat="37.07309341430664" lon="-118.50144958496094">
<ele>3547</ele>
<time>2016-10-11T17:52:41Z</time>
</trkpt>
<trkpt lat="37.073150634765625" lon="-118.50141906738281">
<ele>3552</ele>
<time>2016-10-11T17:52:53Z</time>
</trkpt>
<trkpt lat="37.073184967041016" lon="-118.50138092041016">
<ele>3550</ele>
<time>2016-10-11T17:53:15Z</time>
</trkpt>
<trkpt lat="37.07326126098633" lon="-118.50129699707031">
<ele>3548</ele>
<time>2016-10-11T17:53:26Z</time>
</trkpt>
<trkpt lat="37.07329177856445" lon="-118.50125122070313">
<ele>3549</ele>
<time>2016-10-11T17:53:34Z</time>
</trkpt>
<trkpt lat="37.07334899902344" lon="-118.50131225585938">
<ele>3547</ele>
<time>2016-10-11T17:53:55Z</time>
</trkpt>
<trkpt lat="37.0733642578125" lon="-118.5013656616211">
<ele>3545</ele>
<time>2016-10-11T17:54:02Z</time>
</trkpt>
<trkpt lat="37.07335662841797" lon="-118.50130462646484">
<ele>3546</ele>
<time>2016-10-11T17:54:42Z</time>
</trkpt>
<trkpt lat="37.07337188720703" lon="-118.50125122070313">
<ele>3542</ele>
<time>2016-10-11T17:55:03Z</time>
</trkpt>
<trkpt lat="37.073326110839844" lon="-118.50122833251953">
<ele>3541</ele>
<time>2016-10-11T17:55:12Z</time>
</trkpt>
<trkpt lat="37.073360443115234" lon="-118.50119018554688">
<ele>3543</ele>
<time>2016-10-11T17:55:31Z</time>
</trkpt>
<trkpt lat="37.07341384887695" lon="-118.50118255615234">
<ele>3542</ele>
<time>2016-10-11T17:55:39Z</time>
</trkpt>
<trkpt lat="37.0734748840332" lon="-118.5011215209961">
<ele>3539</ele>
<time>2016-10-11T17:55:46Z</time>
</trkpt>
<trkpt lat="37.073524475097656" lon="-118.50111389160156">
<ele>3534</ele>
<time>2016-10-11T17:55:53Z</time>
</trkpt>
<trkpt lat="37.073577880859375" lon="-118.5010986328125">
<ele>3535</ele>
<time>2016-10-11T17:56:04Z</time>
</trkpt>
<trkpt lat="37.0736198425293" lon="-118.50106811523438">
<ele>3534</ele>
<time>2016-10-11T17:56:10Z</time>
</trkpt>
<trkpt lat="37.07365417480469" lon="-118.50102233886719">
<ele>3533</ele>
<time>2016-10-11T17:56:26Z</time>
</trkpt>
<trkpt lat="37.073707580566406" lon="-118.50101470947266">
<ele>3534</ele>
<time>2016-10-11T17:56:32Z</time>
</trkpt>
<trkpt lat="37.07378387451172" lon="-118.50094604492188">
<ele>3530</ele>
<time>2016-10-11T17:58:29Z</time>
</trkpt>
<trkpt lat="37.07379913330078" lon="-118.50089263916016">
<ele>3532</ele>
<time>2016-10-11T17:58:37Z</time>
</trkpt>
<trkpt lat="37.07380676269531" lon="-118.50078582763672">
<ele>3535</ele>
<time>2016-10-11T17:58:55Z</time>
</trkpt>
<trkpt lat="37.07389450073242" lon="-118.50074768066406">
<ele>3537</ele>
<time>2016-10-11T17:59:15Z</time>
</trkpt>
<trkpt lat="37.07394027709961" lon="-118.50072479248047">
<ele>3537</ele>
<time>2016-10-11T17:59:37Z</time>
</trkpt>
<trkpt lat="37.07400131225586" lon="-118.50077819824219">
<ele>3533</ele>
<time>2016-10-11T18:00:01Z</time>
</trkpt>
<trkpt lat="37.074039459228516" lon="-118.50074768066406">
<ele>3530</ele>
<time>2016-10-11T18:00:13Z</time>
</trkpt>
<trkpt lat="37.07404327392578" lon="-118.50068664550781">
<ele>3530</ele>
<time>2016-10-11T18:00:21Z</time>
</trkpt>
<trkpt lat="37.07413101196289" lon="-118.50061798095703">
<ele>3531</ele>
<time>2016-10-11T18:00:36Z</time>
</trkpt>
<trkpt lat="37.07414245605469" lon="-118.50055694580078">
<ele>3531</ele>
<time>2016-10-11T18:00:42Z</time>
</trkpt>
<trkpt lat="37.07416915893555" lon="-118.50050354003906">
<ele>3532</ele>
<time>2016-10-11T18:00:49Z</time>
</trkpt>
<trkpt lat="37.074195861816406" lon="-118.50045776367188">
<ele>3530</ele>
<time>2016-10-11T18:00:55Z</time>
</trkpt>
<trkpt lat="37.074161529541016" lon="-118.50041198730469">
<ele>3532</ele>
<time>2016-10-11T18:01:06Z</time>
</trkpt>
<trkpt lat="37.07415771484375" lon="-118.50035858154297">
<ele>3535</ele>
<time>2016-10-11T18:01:13Z</time>
</trkpt>
<trkpt lat="37.07419967651367" lon="-118.50032806396484">
<ele>3535</ele>
<time>2016-10-11T18:01:32Z</time>
</trkpt>
<trkpt lat="37.074222564697266" lon="-118.5002670288086">
<ele>3534</ele>
<time>2016-10-11T18:01:40Z</time>
</trkpt>
<trkpt lat="37.07426834106445" lon="-118.50021362304688">
<ele>3534</ele>
<time>2016-10-11T18:01:49Z</time>
</trkpt>
<trkpt lat="37.07429504394531" lon="-118.50016784667969">
<ele>3536</ele>
<time>2016-10-11T18:02:00Z</time>
</trkpt>
<trkpt lat="37.0743408203125" lon="-118.50012969970703">
<ele>3537</ele>
<time>2016-10-11T18:02:09Z</time>
</trkpt>
<trkpt lat="37.07439041137695" lon="-118.50011444091797">
<ele>3534</ele>
<time>2016-10-11T18:02:17Z</time>
</trkpt>
<trkpt lat="37.07440948486328" lon="-118.50006103515625">
<ele>3533</ele>
<time>2016-10-11T18:02:24Z</time>
</trkpt>
<trkpt lat="37.07439422607422" lon="-118.50000762939453">
<ele>3532</ele>
<time>2016-10-11T18:02:32Z</time>
</trkpt>
<trkpt lat="37.074432373046875" lon="-118.49991607666016">
<ele>3530</ele>
<time>2016-10-11T18:02:51Z</time>
</trkpt>
<trkpt lat="37.07448196411133" lon="-118.49990844726563">
<ele>3530</ele>
<time>2016-10-11T18:02:58Z</time>
</trkpt>
<trkpt lat="37.07453155517578" lon="-118.4999008178711">
<ele>3535</ele>
<time>2016-10-11T18:03:15Z</time>
</trkpt>
<trkpt lat="37.07453155517578" lon="-118.49983978271484">
<ele>3540</ele>
<time>2016-10-11T18:03:28Z</time>
</trkpt>
<trkpt lat="37.074581146240234" lon="-118.4998550415039">
<ele>3531</ele>
<time>2016-10-11T18:03:35Z</time>
</trkpt>
<trkpt lat="37.074623107910156" lon="-118.49980926513672">
<ele>3534</ele>
<time>2016-10-11T18:03:54Z</time>
</trkpt>
<trkpt lat="37.07465744018555" lon="-118.49976348876953">
<ele>3532</ele>
<time>2016-10-11T18:04:01Z</time>
</trkpt>
<trkpt lat="37.074668884277344" lon="-118.49971008300781">
<ele>3523</ele>
<time>2016-10-11T18:04:15Z</time>
</trkpt>
<trkpt lat="37.07474899291992" lon="-118.49962615966797">
<ele>3526</ele>
<time>2016-10-11T18:04:25Z</time>
</trkpt>
<trkpt lat="37.074832916259766" lon="-118.49956512451172">
<ele>3520</ele>
<time>2016-10-11T18:04:38Z</time>
</trkpt>
<trkpt lat="37.07487106323242" lon="-118.4994888305664">
<ele>3517</ele>
<time>2016-10-11T18:04:48Z</time>
</trkpt>
<trkpt lat="37.07492446899414" lon="-118.49939727783203">
<ele>3517</ele>
<time>2016-10-11T18:04:58Z</time>
</trkpt>
<trkpt lat="37.07494354248047" lon="-118.49935150146484">
<ele>3516</ele>
<time>2016-10-11T18:05:04Z</time>
</trkpt>
<trkpt lat="37.07496643066406" lon="-118.49923706054688">
<ele>3511</ele>
<time>2016-10-11T18:05:15Z</time>
</trkpt>
<trkpt lat="37.07497024536133" lon="-118.4991683959961">
<ele>3515</ele>
<time>2016-10-11T18:05:21Z</time>
</trkpt>
<trkpt lat="37.074951171875" lon="-118.49911499023438">
<ele>3516</ele>
<time>2016-10-11T18:05:28Z</time>
</trkpt>
<trkpt lat="37.0749397277832" lon="-118.49905395507813">
<ele>3516</ele>
<time>2016-10-11T18:05:37Z</time>
</trkpt>
<trkpt lat="37.07493209838867" lon="-118.4990005493164">
<ele>3521</ele>
<time>2016-10-11T18:05:53Z</time>
</trkpt>
<trkpt lat="37.07490539550781" lon="-118.49894714355469">
<ele>3525</ele>
<time>2016-10-11T18:06:01Z</time>
</trkpt>
<trkpt lat="37.07490921020508" lon="-118.49888610839844">
<ele>3519</ele>
<time>2016-10-11T18:06:15Z</time>
</trkpt>
<trkpt lat="37.07487487792969" lon="-118.498779296875">
<ele>3522</ele>
<time>2016-10-11T18:06:29Z</time>
</trkpt>
<trkpt lat="37.074867248535156" lon="-118.49872589111328">
<ele>3519</ele>
<time>2016-10-11T18:06:42Z</time>
</trkpt>
<trkpt lat="37.07488250732422" lon="-118.49867248535156">
<ele>3523</ele>
<time>2016-10-11T18:06:52Z</time>
</trkpt>
<trkpt lat="37.07490539550781" lon="-118.49861145019531">
<ele>3525</ele>
<time>2016-10-11T18:07:00Z</time>
</trkpt>
<trkpt lat="37.074951171875" lon="-118.49858856201172">
<ele>3528</ele>
<time>2016-10-11T18:07:12Z</time>
</trkpt>
<trkpt lat="37.07499313354492" lon="-118.4985580444336">
<ele>3524</ele>
<time>2016-10-11T18:07:20Z</time>
</trkpt>
<trkpt lat="37.07501983642578" lon="-118.4985122680664">
<ele>3523</ele>
<time>2016-10-11T18:07:29Z</time>
</trkpt>
<trkpt lat="37.07503890991211" lon="-118.49845886230469">
<ele>3523</ele>
<time>2016-10-11T18:07:35Z</time>
</trkpt>
<trkpt lat="37.075103759765625" lon="-118.49852752685547">
<ele>3526</ele>
<time>2016-10-11T18:08:10Z</time>
</trkpt>
<trkpt lat="37.075138092041016" lon="-118.49860382080078">
<ele>3538</ele>
<time>2016-10-11T18:09:11Z</time>
</trkpt>
<trkpt lat="37.07509231567383" lon="-118.49860382080078">
<ele>3545</ele>
<time>2016-10-11T18:09:26Z</time>
</trkpt>
<trkpt lat="37.075111389160156" lon="-118.49851989746094">
<ele>3529</ele>
<time>2016-10-11T18:13:42Z</time>
</trkpt>
<trkpt lat="37.07506561279297" lon="-118.49851989746094">
<ele>3529</ele>
<time>2016-10-11T18:13:55Z</time>
</trkpt>
<trkpt lat="37.07504653930664" lon="-118.49845886230469">
<ele>3525</ele>
<time>2016-10-11T18:14:32Z</time>
</trkpt>
<trkpt lat="37.07504653930664" lon="-118.49839782714844">
<ele>3520</ele>
<time>2016-10-11T18:14:42Z</time>
</trkpt>
<trkpt lat="37.07506561279297" lon="-118.49845886230469">
<ele>3524</ele>
<time>2016-10-11T18:15:31Z</time>
</trkpt>
<trkpt lat="37.075096130371094" lon="-118.49850463867188">
<ele>3525</ele>
<time>2016-10-11T18:15:37Z</time>
</trkpt>
<trkpt lat="37.075103759765625" lon="-118.4984359741211">
<ele>3522</ele>
<time>2016-10-11T18:16:12Z</time>
</trkpt>
<trkpt lat="37.075138092041016" lon="-118.49833679199219">
<ele>3526</ele>
<time>2016-10-11T18:16:24Z</time>
</trkpt>
<trkpt lat="37.075218200683594" lon="-118.498291015625">
<ele>3529</ele>
<time>2016-10-11T18:16:33Z</time>
</trkpt>
<trkpt lat="37.075260162353516" lon="-118.49832153320313">
<ele>3530</ele>
<time>2016-10-11T18:16:39Z</time>
</trkpt>
<trkpt lat="37.0753059387207" lon="-118.49824523925781">
<ele>3528</ele>
<time>2016-10-11T18:16:48Z</time>
</trkpt>
<trkpt lat="37.07535171508789" lon="-118.49821472167969">
<ele>3526</ele>
<time>2016-10-11T18:16:54Z</time>
</trkpt>
<trkpt lat="37.075435638427734" lon="-118.4982681274414">
<ele>3529</ele>
<time>2016-10-11T18:17:04Z</time>
</trkpt>
<trkpt lat="37.075462341308594" lon="-118.49821472167969">
<ele>3525</ele>
<time>2016-10-11T18:17:13Z</time>
</trkpt>
<trkpt lat="37.07550811767578" lon="-118.49819946289063">
<ele>3530</ele>
<time>2016-10-11T18:17:23Z</time>
</trkpt>
<trkpt lat="37.075592041015625" lon="-118.49824523925781">
<ele>3532</ele>
<time>2016-10-11T18:17:40Z</time>
</trkpt>
<trkpt lat="37.07568359375" lon="-118.49833679199219">
<ele>3533</ele>
<time>2016-10-11T18:17:49Z</time>
</trkpt>
<trkpt lat="37.07579040527344" lon="-118.49837493896484">
<ele>3533</ele>
<time>2016-10-11T18:17:57Z</time>
</trkpt>
<trkpt lat="37.07588577270508" lon="-118.4983901977539">
<ele>3537</ele>
<time>2016-10-11T18:18:07Z</time>
</trkpt>
<trkpt lat="37.07593536376953" lon="-118.4984130859375">
<ele>3534</ele>
<time>2016-10-11T18:18:13Z</time>
</trkpt>
<trkpt lat="37.076011657714844" lon="-118.49847412109375">
<ele>3532</ele>
<time>2016-10-11T18:18:21Z</time>
</trkpt>
<trkpt lat="37.07609558105469" lon="-118.4985580444336">
<ele>3526</ele>
<time>2016-10-11T18:18:29Z</time>
</trkpt>
<trkpt lat="37.07615661621094" lon="-118.4986572265625">
<ele>3524</ele>
<time>2016-10-11T18:18:38Z</time>
</trkpt>
<trkpt lat="37.07622146606445" lon="-118.49871826171875">
<ele>3522</ele>
<time>2016-10-11T18:18:48Z</time>
</trkpt>
<trkpt lat="37.076316833496094" lon="-118.49874877929688">
<ele>3527</ele>
<time>2016-10-11T18:19:02Z</time>
</trkpt>
<trkpt lat="37.07640838623047" lon="-118.49872589111328">
<ele>3523</ele>
<time>2016-10-11T18:19:09Z</time>
</trkpt>
<trkpt lat="37.076454162597656" lon="-118.49870300292969">
<ele>3522</ele>
<time>2016-10-11T18:19:15Z</time>
</trkpt>
<trkpt lat="37.07655715942383" lon="-118.49872589111328">
<ele>3519</ele>
<time>2016-10-11T18:19:24Z</time>
</trkpt>
<trkpt lat="37.076595306396484" lon="-118.49868774414063">
<ele>3519</ele>
<time>2016-10-11T18:19:31Z</time>
</trkpt>
<trkpt lat="37.07664108276367" lon="-118.49869537353516">
<ele>3522</ele>
<time>2016-10-11T18:19:38Z</time>
</trkpt>
<trkpt lat="37.076717376708984" lon="-118.49869537353516">
<ele>3527</ele>
<time>2016-10-11T18:19:47Z</time>
</trkpt>
<trkpt lat="37.07674789428711" lon="-118.49864196777344">
<ele>3527</ele>
<time>2016-10-11T18:19:53Z</time>
</trkpt>
<trkpt lat="37.076839447021484" lon="-118.49855041503906">
<ele>3530</ele>
<time>2016-10-11T18:19:59Z</time>
</trkpt>
<trkpt lat="37.07685852050781" lon="-118.49849700927734">
<ele>3529</ele>
<time>2016-10-11T18:20:06Z</time>
</trkpt>
<trkpt lat="37.07691192626953" lon="-118.4983901977539">
<ele>3525</ele>
<time>2016-10-11T18:20:17Z</time>
</trkpt>
<trkpt lat="37.07695388793945" lon="-118.49836730957031">
<ele>3527</ele>
<time>2016-10-11T18:20:25Z</time>
</trkpt>
<trkpt lat="37.07699966430664" lon="-118.49837493896484">
<ele>3534</ele>
<time>2016-10-11T18:20:32Z</time>
</trkpt>
<trkpt lat="37.077049255371094" lon="-118.49833679199219">
<ele>3534</ele>
<time>2016-10-11T18:20:39Z</time>
</trkpt>
<trkpt lat="37.07707977294922" lon="-118.4982681274414">
<ele>3531</ele>
<time>2016-10-11T18:21:15Z</time>
</trkpt>
<trkpt lat="37.07710647583008" lon="-118.49821472167969">
<ele>3530</ele>
<time>2016-10-11T18:21:21Z</time>
</trkpt>
<trkpt lat="37.077205657958984" lon="-118.49820709228516">
<ele>3527</ele>
<time>2016-10-11T18:21:33Z</time>
</trkpt>
<trkpt lat="37.07729721069336" lon="-118.49821472167969">
<ele>3526</ele>
<time>2016-10-11T18:21:42Z</time>
</trkpt>
<trkpt lat="37.07740020751953" lon="-118.49819946289063">
<ele>3525</ele>
<time>2016-10-11T18:21:56Z</time>
</trkpt>
<trkpt lat="37.07744598388672" lon="-118.49820709228516">
<ele>3525</ele>
<time>2016-10-11T18:22:02Z</time>
</trkpt>
<trkpt lat="37.07749557495117" lon="-118.49822235107422">
<ele>3524</ele>
<time>2016-10-11T18:22:10Z</time>
</trkpt>
<trkpt lat="37.07755661010742" lon="-118.49828338623047">
<ele>3525</ele>
<time>2016-10-11T18:22:18Z</time>
</trkpt>
<trkpt lat="37.07760238647461" lon="-118.49829864501953">
<ele>3525</ele>
<time>2016-10-11T18:22:25Z</time>
</trkpt>
<trkpt lat="37.07767868041992" lon="-118.49829864501953">
<ele>3527</ele>
<time>2016-10-11T18:22:42Z</time>
</trkpt>
<trkpt lat="37.077728271484375" lon="-118.49829864501953">
<ele>3530</ele>
<time>2016-10-11T18:22:50Z</time>
</trkpt>
<trkpt lat="37.077754974365234" lon="-118.49825286865234">
<ele>3532</ele>
<time>2016-10-11T18:23:00Z</time>
</trkpt>
<trkpt lat="37.077781677246094" lon="-118.49820709228516">
<ele>3534</ele>
<time>2016-10-11T18:23:08Z</time>
</trkpt>
<trkpt lat="37.07780456542969" lon="-118.49816131591797">
<ele>3536</ele>
<time>2016-10-11T18:23:18Z</time>
</trkpt>
<trkpt lat="37.077857971191406" lon="-118.49813079833984">
<ele>3536</ele>
<time>2016-10-11T18:23:26Z</time>
</trkpt>
<trkpt lat="37.07792282104492" lon="-118.49809265136719">
<ele>3532</ele>
<time>2016-10-11T18:25:07Z</time>
</trkpt>
<trkpt lat="37.07796859741211" lon="-118.49806213378906">
<ele>3536</ele>
<time>2016-10-11T18:25:17Z</time>
</trkpt>
<trkpt lat="37.078006744384766" lon="-118.49803161621094">
<ele>3535</ele>
<time>2016-10-11T18:25:25Z</time>
</trkpt>
<trkpt lat="37.07804870605469" lon="-118.49799346923828">
<ele>3538</ele>
<time>2016-10-11T18:25:37Z</time>
</trkpt>
<trkpt lat="37.07809829711914" lon="-118.49793243408203">
<ele>3547</ele>
<time>2016-10-11T18:26:03Z</time>
</trkpt>
<trkpt lat="37.07814407348633" lon="-118.49790954589844">
<ele>3557</ele>
<time>2016-10-11T18:26:09Z</time>
</trkpt>
<trkpt lat="37.078189849853516" lon="-118.49789428710938">
<ele>3555</ele>
<time>2016-10-11T18:26:15Z</time>
</trkpt>
<trkpt lat="37.0782585144043" lon="-118.49781036376953">
<ele>3553</ele>
<time>2016-10-11T18:26:26Z</time>
</trkpt>
<trkpt lat="37.078304290771484" lon="-118.49778747558594">
<ele>3549</ele>
<time>2016-10-11T18:26:35Z</time>
</trkpt>
<trkpt lat="37.07837677001953" lon="-118.49776458740234">
<ele>3550</ele>
<time>2016-10-11T18:26:52Z</time>
</trkpt>
<trkpt lat="37.078426361083984" lon="-118.49776458740234">
<ele>3550</ele>
<time>2016-10-11T18:26:58Z</time>
</trkpt>
<trkpt lat="37.07850646972656" lon="-118.49781036376953">
<ele>3551</ele>
<time>2016-10-11T18:27:08Z</time>
</trkpt>
<trkpt lat="37.07855224609375" lon="-118.49778747558594">
<ele>3554</ele>
<time>2016-10-11T18:27:20Z</time>
</trkpt>
<trkpt lat="37.07858657836914" lon="-118.49774932861328">
<ele>3555</ele>
<time>2016-10-11T18:27:35Z</time>
</trkpt>
<trkpt lat="37.0786247253418" lon="-118.4976806640625">
<ele>3557</ele>
<time>2016-10-11T18:27:54Z</time>
</trkpt>
<trkpt lat="37.078670501708984" lon="-118.49765014648438">
<ele>3557</ele>
<time>2016-10-11T18:28:00Z</time>
</trkpt>
<trkpt lat="37.07872009277344" lon="-118.4976577758789">
<ele>3556</ele>
<time>2016-10-11T18:28:08Z</time>
</trkpt>
<trkpt lat="37.07871627807617" lon="-118.49759674072266">
<ele>3560</ele>
<time>2016-10-11T18:28:25Z</time>
</trkpt>
<trkpt lat="37.07878875732422" lon="-118.49765014648438">
<ele>3563</ele>
<time>2016-10-11T18:28:50Z</time>
</trkpt>
<trkpt lat="37.07883071899414" lon="-118.49762725830078">
<ele>3561</ele>
<time>2016-10-11T18:28:59Z</time>
</trkpt>
<trkpt lat="37.0788459777832" lon="-118.49755859375">
<ele>3564</ele>
<time>2016-10-11T18:29:06Z</time>
</trkpt>
<trkpt lat="37.078887939453125" lon="-118.49752807617188">
<ele>3568</ele>
<time>2016-10-11T18:29:18Z</time>
</trkpt>
<trkpt lat="37.07893371582031" lon="-118.49750518798828">
<ele>3568</ele>
<time>2016-10-11T18:29:31Z</time>
</trkpt>
<trkpt lat="37.07900619506836" lon="-118.49748992919922">
<ele>3566</ele>
<time>2016-10-11T18:29:52Z</time>
</trkpt>
<trkpt lat="37.07905578613281" lon="-118.49752044677734">
<ele>3570</ele>
<time>2016-10-11T18:30:00Z</time>
</trkpt>
<trkpt lat="37.07909393310547" lon="-118.49757385253906">
<ele>3569</ele>
<time>2016-10-11T18:30:08Z</time>
</trkpt>
<trkpt lat="37.07917022705078" lon="-118.4976577758789">
<ele>3571</ele>
<time>2016-10-11T18:30:19Z</time>
</trkpt>
<trkpt lat="37.079261779785156" lon="-118.49761199951172">
<ele>3571</ele>
<time>2016-10-11T18:30:28Z</time>
</trkpt>
<trkpt lat="37.07931137084961" lon="-118.49761199951172">
<ele>3573</ele>
<time>2016-10-11T18:30:35Z</time>
</trkpt>
<trkpt lat="37.07935333251953" lon="-118.49761962890625">
<ele>3576</ele>
<time>2016-10-11T18:30:42Z</time>
</trkpt>
<trkpt lat="37.07939910888672" lon="-118.49761199951172">
<ele>3578</ele>
<time>2016-10-11T18:30:50Z</time>
</trkpt>
<trkpt lat="37.07944869995117" lon="-118.49761962890625">
<ele>3575</ele>
<time>2016-10-11T18:30:57Z</time>
</trkpt>
<trkpt lat="37.07947540283203" lon="-118.49756622314453">
<ele>3576</ele>
<time>2016-10-11T18:31:04Z</time>
</trkpt>
<trkpt lat="37.079498291015625" lon="-118.49750518798828">
<ele>3572</ele>
<time>2016-10-11T18:31:32Z</time>
</trkpt>
<trkpt lat="37.07953643798828" lon="-118.49746704101563">
<ele>3572</ele>
<time>2016-10-11T18:31:39Z</time>
</trkpt>
<trkpt lat="37.07954788208008" lon="-118.49739837646484">
<ele>3575</ele>
<time>2016-10-11T18:31:58Z</time>
</trkpt>
<trkpt lat="37.079593658447266" lon="-118.49739074707031">
<ele>3578</ele>
<time>2016-10-11T18:32:19Z</time>
</trkpt>
<trkpt lat="37.079612731933594" lon="-118.4973373413086">
<ele>3580</ele>
<time>2016-10-11T18:32:28Z</time>
</trkpt>
<trkpt lat="37.07965850830078" lon="-118.49732971191406">
<ele>3588</ele>
<time>2016-10-11T18:32:40Z</time>
</trkpt>
<trkpt lat="37.0797233581543" lon="-118.49734497070313">
<ele>3585</ele>
<time>2016-10-11T18:32:58Z</time>
</trkpt>
<trkpt lat="37.07975387573242" lon="-118.49730682373047">
<ele>3584</ele>
<time>2016-10-11T18:33:06Z</time>
</trkpt>
<trkpt lat="37.079776763916016" lon="-118.49725341796875">
<ele>3586</ele>
<time>2016-10-11T18:33:17Z</time>
</trkpt>
<trkpt lat="37.0798225402832" lon="-118.49725341796875">
<ele>3589</ele>
<time>2016-10-11T18:33:32Z</time>
</trkpt>
<trkpt lat="37.079891204833984" lon="-118.49723815917969">
<ele>3595</ele>
<time>2016-10-11T18:33:58Z</time>
</trkpt>
<trkpt lat="37.07994079589844" lon="-118.49723052978516">
<ele>3592</ele>
<time>2016-10-11T18:34:06Z</time>
</trkpt>
<trkpt lat="37.08002853393555" lon="-118.49727630615234">
<ele>3597</ele>
<time>2016-10-11T18:34:41Z</time>
</trkpt>
<trkpt lat="37.080081939697266" lon="-118.49727630615234">
<ele>3595</ele>
<time>2016-10-11T18:34:49Z</time>
</trkpt>
<trkpt lat="37.08012771606445" lon="-118.49726104736328">
<ele>3601</ele>
<time>2016-10-11T18:35:02Z</time>
</trkpt>
<trkpt lat="37.08021545410156" lon="-118.49732208251953">
<ele>3606</ele>
<time>2016-10-11T18:35:20Z</time>
</trkpt>
<trkpt lat="37.080257415771484" lon="-118.49732971191406">
<ele>3608</ele>
<time>2016-10-11T18:35:30Z</time>
</trkpt>
<trkpt lat="37.08030700683594" lon="-118.4973373413086">
<ele>3606</ele>
<time>2016-10-11T18:35:37Z</time>
</trkpt>
<trkpt lat="37.08036804199219" lon="-118.49728393554688">
<ele>3605</ele>
<time>2016-10-11T18:35:52Z</time>
</trkpt>
<trkpt lat="37.080440521240234" lon="-118.4973373413086">
<ele>3607</ele>
<time>2016-10-11T18:37:03Z</time>
</trkpt>
<trkpt lat="37.080535888671875" lon="-118.49736022949219">
<ele>3609</ele>
<time>2016-10-11T18:37:20Z</time>
</trkpt>
<trkpt lat="37.08058547973633" lon="-118.49738311767578">
<ele>3611</ele>
<time>2016-10-11T18:37:27Z</time>
</trkpt>
<trkpt lat="37.08067321777344" lon="-118.49739074707031">
<ele>3613</ele>
<time>2016-10-11T18:37:41Z</time>
</trkpt>
<trkpt lat="37.08071517944336" lon="-118.49734497070313">
<ele>3613</ele>
<time>2016-10-11T18:37:48Z</time>
</trkpt>
<trkpt lat="37.08075714111328" lon="-118.49730682373047">
<ele>3610</ele>
<time>2016-10-11T18:37:55Z</time>
</trkpt>
<trkpt lat="37.080780029296875" lon="-118.49725341796875">
<ele>3614</ele>
<time>2016-10-11T18:38:01Z</time>
</trkpt>
<trkpt lat="37.0808219909668" lon="-118.4972152709961">
<ele>3614</ele>
<time>2016-10-11T18:38:09Z</time>
</trkpt>
<trkpt lat="37.08091735839844" lon="-118.49722290039063">
<ele>3613</ele>
<time>2016-10-11T18:38:21Z</time>
</trkpt>
<trkpt lat="37.080909729003906" lon="-118.4972915649414">
<ele>3602</ele>
<time>2016-10-11T18:38:44Z</time>
</trkpt>
<trkpt lat="37.080955505371094" lon="-118.49730682373047">
<ele>3610</ele>
<time>2016-10-11T18:38:52Z</time>
</trkpt>
<trkpt lat="37.081050872802734" lon="-118.49735260009766">
<ele>3610</ele>
<time>2016-10-11T18:39:01Z</time>
</trkpt>
<trkpt lat="37.08114242553711" lon="-118.49734497070313">
<ele>3609</ele>
<time>2016-10-11T18:39:13Z</time>
</trkpt>
<trkpt lat="37.0811882019043" lon="-118.4973373413086">
<ele>3613</ele>
<time>2016-10-11T18:39:21Z</time>
</trkpt>
<trkpt lat="37.08120346069336" lon="-118.49728393554688">
<ele>3616</ele>
<time>2016-10-11T18:39:31Z</time>
</trkpt>
<trkpt lat="37.08124542236328" lon="-118.497314453125">
<ele>3619</ele>
<time>2016-10-11T18:39:42Z</time>
</trkpt>
<trkpt lat="37.08129119873047" lon="-118.497314453125">
<ele>3624</ele>
<time>2016-10-11T18:39:57Z</time>
</trkpt>
<trkpt lat="37.081329345703125" lon="-118.49734497070313">
<ele>3624</ele>
<time>2016-10-11T18:40:10Z</time>
</trkpt>
<trkpt lat="37.08137512207031" lon="-118.49732971191406">
<ele>3624</ele>
<time>2016-10-11T18:40:42Z</time>
</trkpt>
<trkpt lat="37.0814208984375" lon="-118.497314453125">
<ele>3624</ele>
<time>2016-10-11T18:40:56Z</time>
</trkpt>
<trkpt lat="37.08147048950195" lon="-118.4972915649414">
<ele>3625</ele>
<time>2016-10-11T18:41:07Z</time>
</trkpt>
<trkpt lat="37.08150100708008" lon="-118.49725341796875">
<ele>3621</ele>
<time>2016-10-11T18:41:18Z</time>
</trkpt>
<trkpt lat="37.08152770996094" lon="-118.49720001220703">
<ele>3629</ele>
<time>2016-10-11T18:41:31Z</time>
</trkpt>
<trkpt lat="37.081573486328125" lon="-118.49710845947266">
<ele>3630</ele>
<time>2016-10-11T18:41:58Z</time>
</trkpt>
<trkpt lat="37.081573486328125" lon="-118.4970474243164">
<ele>3635</ele>
<time>2016-10-11T18:42:08Z</time>
</trkpt>
<trkpt lat="37.08159637451172" lon="-118.49699401855469">
<ele>3646</ele>
<time>2016-10-11T18:42:32Z</time>
</trkpt>
<trkpt lat="37.0816535949707" lon="-118.49705505371094">
<ele>3644</ele>
<time>2016-10-11T18:43:51Z</time>
</trkpt>
<trkpt lat="37.08169174194336" lon="-118.4970932006836">
<ele>3642</ele>
<time>2016-10-11T18:43:57Z</time>
</trkpt>
<trkpt lat="37.08174514770508" lon="-118.4970932006836">
<ele>3651</ele>
<time>2016-10-11T18:44:14Z</time>
</trkpt>
<trkpt lat="37.081783294677734" lon="-118.4970703125">
<ele>3639</ele>
<time>2016-10-11T18:44:31Z</time>
</trkpt>
<trkpt lat="37.08183288574219" lon="-118.4970932006836">
<ele>3638</ele>
<time>2016-10-11T18:44:41Z</time>
</trkpt>
<trkpt lat="37.081871032714844" lon="-118.49713897705078">
<ele>3645</ele>
<time>2016-10-11T18:44:51Z</time>
</trkpt>
<trkpt lat="37.08191680908203" lon="-118.49711608886719">
<ele>3646</ele>
<time>2016-10-11T18:44:58Z</time>
</trkpt>
<trkpt lat="37.08198547363281" lon="-118.4970703125">
<ele>3648</ele>
<time>2016-10-11T18:45:10Z</time>
</trkpt>
<trkpt lat="37.082027435302734" lon="-118.49702453613281">
<ele>3648</ele>
<time>2016-10-11T18:45:31Z</time>
</trkpt>
<trkpt lat="37.08209991455078" lon="-118.49703979492188">
<ele>3654</ele>
<time>2016-10-11T18:45:55Z</time>
</trkpt>
<trkpt lat="37.0821418762207" lon="-118.49705505371094">
<ele>3655</ele>
<time>2016-10-11T18:46:06Z</time>
</trkpt>
<trkpt lat="37.082191467285156" lon="-118.49707794189453">
<ele>3651</ele>
<time>2016-10-11T18:46:15Z</time>
</trkpt>
<trkpt lat="37.082237243652344" lon="-118.49710845947266">
<ele>3662</ele>
<time>2016-10-11T18:47:19Z</time>
</trkpt>
<trkpt lat="37.0822868347168" lon="-118.49711608886719">
<ele>3661</ele>
<time>2016-10-11T18:47:27Z</time>
</trkpt>
<trkpt lat="37.082366943359375" lon="-118.4970932006836">
<ele>3665</ele>
<time>2016-10-11T18:47:58Z</time>
</trkpt>
<trkpt lat="37.082401275634766" lon="-118.49703979492188">
<ele>3664</ele>
<time>2016-10-11T18:48:08Z</time>
</trkpt>
<trkpt lat="37.08243179321289" lon="-118.49699401855469">
<ele>3663</ele>
<time>2016-10-11T18:48:25Z</time>
</trkpt>
<trkpt lat="37.082489013671875" lon="-118.49694061279297">
<ele>3674</ele>
<time>2016-10-11T18:49:22Z</time>
</trkpt>
<trkpt lat="37.08249282836914" lon="-118.49687957763672">
<ele>3678</ele>
<time>2016-10-11T18:49:41Z</time>
</trkpt>
<trkpt lat="37.08253479003906" lon="-118.49684143066406">
<ele>3677</ele>
<time>2016-10-11T18:49:52Z</time>
</trkpt>
<trkpt lat="37.08256149291992" lon="-118.49679565429688">
<ele>3677</ele>
<time>2016-10-11T18:50:04Z</time>
</trkpt>
<trkpt lat="37.082603454589844" lon="-118.49677276611328">
<ele>3679</ele>
<time>2016-10-11T18:50:15Z</time>
</trkpt>
<trkpt lat="37.08260726928711" lon="-118.49671173095703">
<ele>3680</ele>
<time>2016-10-11T18:50:39Z</time>
</trkpt>
<trkpt lat="37.082645416259766" lon="-118.49665069580078">
<ele>3680</ele>
<time>2016-10-11T18:50:58Z</time>
</trkpt>
<trkpt lat="37.082679748535156" lon="-118.4966049194336">
<ele>3682</ele>
<time>2016-10-11T18:51:17Z</time>
</trkpt>
<trkpt lat="37.082725524902344" lon="-118.49662780761719">
<ele>3683</ele>
<time>2016-10-11T18:51:39Z</time>
</trkpt>
<trkpt lat="37.08278274536133" lon="-118.49665069580078">
<ele>3686</ele>
<time>2016-10-11T18:52:07Z</time>
</trkpt>
<trkpt lat="37.08280563354492" lon="-118.49669647216797">
<ele>3689</ele>
<time>2016-10-11T18:52:21Z</time>
</trkpt>
<trkpt lat="37.082828521728516" lon="-118.49664306640625">
<ele>3691</ele>
<time>2016-10-11T18:52:39Z</time>
</trkpt>
<trkpt lat="37.08278274536133" lon="-118.4966049194336">
<ele>3695</ele>
<time>2016-10-11T18:52:49Z</time>
</trkpt>
<trkpt lat="37.08280944824219" lon="-118.4965591430664">
<ele>3696</ele>
<time>2016-10-11T18:53:04Z</time>
</trkpt>
<trkpt lat="37.082855224609375" lon="-118.49653625488281">
<ele>3698</ele>
<time>2016-10-11T18:53:29Z</time>
</trkpt>
<trkpt lat="37.08290100097656" lon="-118.49649047851563">
<ele>3702</ele>
<time>2016-10-11T18:54:04Z</time>
</trkpt>
<trkpt lat="37.08293151855469" lon="-118.49644470214844">
<ele>3703</ele>
<time>2016-10-11T18:54:20Z</time>
</trkpt>
<trkpt lat="37.08292770385742" lon="-118.49637603759766">
<ele>3708</ele>
<time>2016-10-11T18:54:58Z</time>
</trkpt>
<trkpt lat="37.08295822143555" lon="-118.49633026123047">
<ele>3713</ele>
<time>2016-10-11T18:55:11Z</time>
</trkpt>
<trkpt lat="37.082969665527344" lon="-118.49626922607422">
<ele>3714</ele>
<time>2016-10-11T18:55:33Z</time>
</trkpt>
<trkpt lat="37.08302307128906" lon="-118.49626922607422">
<ele>3714</ele>
<time>2016-10-11T18:55:40Z</time>
</trkpt>
<trkpt lat="37.08304977416992" lon="-118.4962158203125">
<ele>3709</ele>
<time>2016-10-11T18:55:52Z</time>
</trkpt>
<trkpt lat="37.08303451538086" lon="-118.49615478515625">
<ele>3718</ele>
<time>2016-10-11T18:56:06Z</time>
</trkpt>
<trkpt lat="37.08302688598633" lon="-118.49609375">
<ele>3719</ele>
<time>2016-10-11T18:57:42Z</time>
</trkpt>
<trkpt lat="37.08305358886719" lon="-118.49604797363281">
<ele>3720</ele>
<time>2016-10-11T18:58:16Z</time>
</trkpt>
<trkpt lat="37.08306884765625" lon="-118.4961166381836">
<ele>3715</ele>
<time>2016-10-11T18:58:36Z</time>
</trkpt>
</trkseg>
</trk>
<trk>
<name><![CDATA[10111158]]></name>
<number>41</number>
<extensions><topografix:color>ff000066</topografix:color></extensions>
<trkseg>
<trkpt lat="37.08306884765625" lon="-118.4961166381836">
<ele>3714</ele>
<time>2016-10-11T18:58:49Z</time>
</trkpt>
<trkpt lat="37.08302688598633" lon="-118.49609375">
<ele>3721</ele>
<time>2016-10-11T19:01:23Z</time>
</trkpt>
<trkpt lat="37.08303451538086" lon="-118.49604034423828">
<ele>3716</ele>
<time>2016-10-11T19:02:27Z</time>
</trkpt>
<trkpt lat="37.08304214477539" lon="-118.49597930908203">
<ele>3718</ele>
<time>2016-10-11T19:03:17Z</time>
</trkpt>
<trkpt lat="37.083045959472656" lon="-118.49588012695313">
<ele>3719</ele>
<time>2016-10-11T19:04:35Z</time>
</trkpt>
<trkpt lat="37.08307647705078" lon="-118.49583435058594">
<ele>3721</ele>
<time>2016-10-11T19:04:44Z</time>
</trkpt>
<trkpt lat="37.08311080932617" lon="-118.49578094482422">
<ele>3719</ele>
<time>2016-10-11T19:05:15Z</time>
</trkpt>
<trkpt lat="37.08315658569336" lon="-118.49578094482422">
<ele>3725</ele>
<time>2016-10-11T19:05:26Z</time>
</trkpt>
<trkpt lat="37.0831298828125" lon="-118.49583435058594">
<ele>3728</ele>
<time>2016-10-11T19:05:46Z</time>
</trkpt>
<trkpt lat="37.08315658569336" lon="-118.4957275390625">
<ele>3731</ele>
<time>2016-10-11T19:07:13Z</time>
</trkpt>
<trkpt lat="37.083194732666016" lon="-118.49575805664063">
<ele>3733</ele>
<time>2016-10-11T19:07:25Z</time>
</trkpt>
<trkpt lat="37.08323669433594" lon="-118.49579620361328">
<ele>3741</ele>
<time>2016-10-11T19:08:06Z</time>
</trkpt>
<trkpt lat="37.08326721191406" lon="-118.4957504272461">
<ele>3736</ele>
<time>2016-10-11T19:08:16Z</time>
</trkpt>
<trkpt lat="37.083290100097656" lon="-118.49569702148438">
<ele>3736</ele>
<time>2016-10-11T19:08:29Z</time>
</trkpt>
<trkpt lat="37.08332061767578" lon="-118.49565887451172">
<ele>3729</ele>
<time>2016-10-11T19:08:45Z</time>
</trkpt>
<trkpt lat="37.08334732055664" lon="-118.49560546875">
<ele>3731</ele>
<time>2016-10-11T19:08:53Z</time>
</trkpt>
<trkpt lat="37.08338165283203" lon="-118.49556732177734">
<ele>3732</ele>
<time>2016-10-11T19:09:01Z</time>
</trkpt>
<trkpt lat="37.083377838134766" lon="-118.4955062866211">
<ele>3752</ele>
<time>2016-10-11T19:09:37Z</time>
</trkpt>
<trkpt lat="37.0833625793457" lon="-118.49542999267578">
<ele>3741</ele>
<time>2016-10-11T19:10:13Z</time>
</trkpt>
<trkpt lat="37.083396911621094" lon="-118.4953842163086">
<ele>3742</ele>
<time>2016-10-11T19:10:24Z</time>
</trkpt>
<trkpt lat="37.08344268798828" lon="-118.49536895751953">
<ele>3747</ele>
<time>2016-10-11T19:10:38Z</time>
</trkpt>
<trkpt lat="37.08348846435547" lon="-118.49533081054688">
<ele>3752</ele>
<time>2016-10-11T19:11:49Z</time>
</trkpt>
<trkpt lat="37.08351516723633" lon="-118.49527740478516">
<ele>3753</ele>
<time>2016-10-11T19:12:04Z</time>
</trkpt>
<trkpt lat="37.08358383178711" lon="-118.4952392578125">
<ele>3758</ele>
<time>2016-10-11T19:12:58Z</time>
</trkpt>
<trkpt lat="37.083614349365234" lon="-118.49519348144531">
<ele>3756</ele>
<time>2016-10-11T19:13:05Z</time>
</trkpt>
<trkpt lat="37.08363723754883" lon="-118.4951400756836">
<ele>3759</ele>
<time>2016-10-11T19:13:11Z</time>
</trkpt>
<trkpt lat="37.083595275878906" lon="-118.49510192871094">
<ele>3770</ele>
<time>2016-10-11T19:14:38Z</time>
</trkpt>
<trkpt lat="37.083595275878906" lon="-118.49502563476563">
<ele>3775</ele>
<time>2016-10-11T19:15:11Z</time>
</trkpt>
<trkpt lat="37.083614349365234" lon="-118.4949722290039">
<ele>3764</ele>
<time>2016-10-11T19:15:18Z</time>
</trkpt>
<trkpt lat="37.08361053466797" lon="-118.49491119384766">
<ele>3770</ele>
<time>2016-10-11T19:15:29Z</time>
</trkpt>
<trkpt lat="37.083580017089844" lon="-118.49485778808594">
<ele>3781</ele>
<time>2016-10-11T19:16:24Z</time>
</trkpt>
<trkpt lat="37.08359909057617" lon="-118.49480438232422">
<ele>3780</ele>
<time>2016-10-11T19:16:37Z</time>
</trkpt>
<trkpt lat="37.08364486694336" lon="-118.49474334716797">
<ele>3778</ele>
<time>2016-10-11T19:17:16Z</time>
</trkpt>
<trkpt lat="37.08360290527344" lon="-118.49471282958984">
<ele>3792</ele>
<time>2016-10-11T19:17:36Z</time>
</trkpt>
<trkpt lat="37.0836067199707" lon="-118.49479675292969">
<ele>3791</ele>
<time>2016-10-11T19:18:54Z</time>
</trkpt>
<trkpt lat="37.08357238769531" lon="-118.4947509765625">
<ele>3792</ele>
<time>2016-10-11T19:19:49Z</time>
</trkpt>
<trkpt lat="37.08356475830078" lon="-118.49469757080078">
<ele>3790</ele>
<time>2016-10-11T19:20:02Z</time>
</trkpt>
<trkpt lat="37.08357620239258" lon="-118.49464416503906">
<ele>3789</ele>
<time>2016-10-11T19:20:19Z</time>
</trkpt>
<trkpt lat="37.0836181640625" lon="-118.49461364746094">
<ele>3789</ele>
<time>2016-10-11T19:20:27Z</time>
</trkpt>
<trkpt lat="37.08359146118164" lon="-118.49468994140625">
<ele>3801</ele>
<time>2016-10-11T19:20:49Z</time>
</trkpt>
<trkpt lat="37.0836181640625" lon="-118.49464416503906">
<ele>3803</ele>
<time>2016-10-11T19:21:08Z</time>
</trkpt>
<trkpt lat="37.08366775512695" lon="-118.4946517944336">
<ele>3800</ele>
<time>2016-10-11T19:21:26Z</time>
</trkpt>
<trkpt lat="37.083717346191406" lon="-118.4946517944336">
<ele>3798</ele>
<time>2016-10-11T19:21:39Z</time>
</trkpt>
<trkpt lat="37.0837516784668" lon="-118.4946060180664">
<ele>3797</ele>
<time>2016-10-11T19:21:45Z</time>
</trkpt>
<trkpt lat="37.08381271362305" lon="-118.49458312988281">
<ele>3797</ele>
<time>2016-10-11T19:22:01Z</time>
</trkpt>
<trkpt lat="37.083839416503906" lon="-118.49462890625">
<ele>3804</ele>
<time>2016-10-11T19:22:20Z</time>
</trkpt>
<trkpt lat="37.08384704589844" lon="-118.49468994140625">
<ele>3810</ele>
<time>2016-10-11T19:22:33Z</time>
</trkpt>
<trkpt lat="37.083919525146484" lon="-118.49471282958984">
<ele>3816</ele>
<time>2016-10-11T19:24:05Z</time>
</trkpt>
<trkpt lat="37.083984375" lon="-118.49463653564453">
<ele>3818</ele>
<time>2016-10-11T19:25:12Z</time>
</trkpt>
<trkpt lat="37.08400344848633" lon="-118.49458312988281">
<ele>3823</ele>
<time>2016-10-11T19:25:28Z</time>
</trkpt>
<trkpt lat="37.084049224853516" lon="-118.49453735351563">
<ele>3821</ele>
<time>2016-10-11T19:25:42Z</time>
</trkpt>
<trkpt lat="37.08396911621094" lon="-118.49456024169922">
<ele>3823</ele>
<time>2016-10-11T19:25:56Z</time>
</trkpt>
<trkpt lat="37.084007263183594" lon="-118.49459838867188">
<ele>3832</ele>
<time>2016-10-11T19:26:25Z</time>
</trkpt>
<trkpt lat="37.08405685424805" lon="-118.4946060180664">
<ele>3825</ele>
<time>2016-10-11T19:26:48Z</time>
</trkpt>
<trkpt lat="37.0841064453125" lon="-118.49459838867188">
<ele>3836</ele>
<time>2016-10-11T19:27:36Z</time>
</trkpt>
<trkpt lat="37.08407211303711" lon="-118.49456024169922">
<ele>3834</ele>
<time>2016-10-11T19:28:23Z</time>
</trkpt>
<trkpt lat="37.084014892578125" lon="-118.4945068359375">
<ele>3838</ele>
<time>2016-10-11T19:28:35Z</time>
</trkpt>
<trkpt lat="37.08407974243164" lon="-118.49447631835938">
<ele>3840</ele>
<time>2016-10-11T19:29:28Z</time>
</trkpt>
<trkpt lat="37.08412170410156" lon="-118.49445343017578">
<ele>3841</ele>
<time>2016-10-11T19:29:41Z</time>
</trkpt>
<trkpt lat="37.08416748046875" lon="-118.49442291259766">
<ele>3838</ele>
<time>2016-10-11T19:30:12Z</time>
</trkpt>
<trkpt lat="37.0842170715332" lon="-118.49441528320313">
<ele>3845</ele>
<time>2016-10-11T19:30:37Z</time>
</trkpt>
<trkpt lat="37.084293365478516" lon="-118.49442291259766">
<ele>3847</ele>
<time>2016-10-11T19:31:14Z</time>
</trkpt>
</trkseg>
</trk>
<trk>
<name><![CDATA[10111238]]></name>
<number>42</number>
<extensions><topografix:color>ff000066</topografix:color></extensions>
<trkseg>
<trkpt lat="37.085044860839844" lon="-118.49384307861328">
<ele>3895</ele>
<time>2016-10-11T19:38:13Z</time>
</trkpt>
<trkpt lat="37.0850830078125" lon="-118.49381256103516">
<ele>3889</ele>
<time>2016-10-11T19:38:30Z</time>
</trkpt>
<trkpt lat="37.08512878417969" lon="-118.49378967285156">
<ele>3888</ele>
<time>2016-10-11T19:38:36Z</time>
</trkpt>
<trkpt lat="37.085147857666016" lon="-118.49373626708984">
<ele>3891</ele>
<time>2016-10-11T19:38:42Z</time>
</trkpt>
<trkpt lat="37.0851936340332" lon="-118.49372863769531">
<ele>3891</ele>
<time>2016-10-11T19:38:50Z</time>
</trkpt>
<trkpt lat="37.0852165222168" lon="-118.4936752319336">
<ele>3889</ele>
<time>2016-10-11T19:39:02Z</time>
</trkpt>
<trkpt lat="37.085262298583984" lon="-118.49365234375">
<ele>3892</ele>
<time>2016-10-11T19:39:25Z</time>
</trkpt>
<trkpt lat="37.08530044555664" lon="-118.49361419677734">
<ele>3896</ele>
<time>2016-10-11T19:39:40Z</time>
</trkpt>
<trkpt lat="37.08534240722656" lon="-118.49357604980469">
<ele>3895</ele>
<time>2016-10-11T19:39:50Z</time>
</trkpt>
<trkpt lat="37.085391998291016" lon="-118.49358367919922">
<ele>3898</ele>
<time>2016-10-11T19:40:13Z</time>
</trkpt>
<trkpt lat="37.08543014526367" lon="-118.4935531616211">
<ele>3899</ele>
<time>2016-10-11T19:40:25Z</time>
</trkpt>
<trkpt lat="37.08546829223633" lon="-118.49351501464844">
<ele>3899</ele>
<time>2016-10-11T19:40:31Z</time>
</trkpt>
<trkpt lat="37.085506439208984" lon="-118.49347686767578">
<ele>3900</ele>
<time>2016-10-11T19:40:46Z</time>
</trkpt>
<trkpt lat="37.08552932739258" lon="-118.49342346191406">
<ele>3902</ele>
<time>2016-10-11T19:40:59Z</time>
</trkpt>
<trkpt lat="37.08557891845703" lon="-118.49341583251953">
<ele>3903</ele>
<time>2016-10-11T19:41:05Z</time>
</trkpt>
<trkpt lat="37.08565139770508" lon="-118.49333953857422">
<ele>3902</ele>
<time>2016-10-11T19:41:15Z</time>
</trkpt>
<trkpt lat="37.085697174072266" lon="-118.4933090209961">
<ele>3899</ele>
<time>2016-10-11T19:41:21Z</time>
</trkpt>
<trkpt lat="37.08573532104492" lon="-118.49327850341797">
<ele>3901</ele>
<time>2016-10-11T19:41:37Z</time>
</trkpt>
<trkpt lat="37.085758209228516" lon="-118.49321746826172">
<ele>3905</ele>
<time>2016-10-11T19:41:43Z</time>
</trkpt>
<trkpt lat="37.08580017089844" lon="-118.49317932128906">
<ele>3910</ele>
<time>2016-10-11T19:41:52Z</time>
</trkpt>
<trkpt lat="37.08583450317383" lon="-118.49313354492188">
<ele>3912</ele>
<time>2016-10-11T19:42:00Z</time>
</trkpt>
<trkpt lat="37.08586502075195" lon="-118.49308013916016">
<ele>3912</ele>
<time>2016-10-11T19:42:06Z</time>
</trkpt>
<trkpt lat="37.085914611816406" lon="-118.49304962158203">
<ele>3912</ele>
<time>2016-10-11T19:42:19Z</time>
</trkpt>
<trkpt lat="37.0859375" lon="-118.49298858642578">
<ele>3911</ele>
<time>2016-10-11T19:42:27Z</time>
</trkpt>
<trkpt lat="37.08598327636719" lon="-118.49300384521484">
<ele>3914</ele>
<time>2016-10-11T19:42:43Z</time>
</trkpt>
<trkpt lat="37.086036682128906" lon="-118.49299621582031">
<ele>3912</ele>
<time>2016-10-11T19:43:07Z</time>
</trkpt>
<trkpt lat="37.086036682128906" lon="-118.49288177490234">
<ele>3906</ele>
<time>2016-10-11T19:43:24Z</time>
</trkpt>
<trkpt lat="37.0860481262207" lon="-118.49276733398438">
<ele>3904</ele>
<time>2016-10-11T19:43:33Z</time>
</trkpt>
<trkpt lat="37.0860481262207" lon="-118.4926528930664">
<ele>3910</ele>
<time>2016-10-11T19:43:56Z</time>
</trkpt>
<trkpt lat="37.086055755615234" lon="-118.49259185791016">
<ele>3912</ele>
<time>2016-10-11T19:44:06Z</time>
</trkpt>
<trkpt lat="37.08599853515625" lon="-118.49251556396484">
<ele>3915</ele>
<time>2016-10-11T19:44:46Z</time>
</trkpt>
<trkpt lat="37.08599090576172" lon="-118.49246215820313">
<ele>3920</ele>
<time>2016-10-11T19:45:04Z</time>
</trkpt>
<trkpt lat="37.08595657348633" lon="-118.49235534667969">
<ele>3925</ele>
<time>2016-10-11T19:46:04Z</time>
</trkpt>
<trkpt lat="37.085914611816406" lon="-118.49234008789063">
<ele>3929</ele>
<time>2016-10-11T19:46:33Z</time>
</trkpt>
<trkpt lat="37.08595657348633" lon="-118.49231719970703">
<ele>3931</ele>
<time>2016-10-11T19:46:47Z</time>
</trkpt>
<trkpt lat="37.08592987060547" lon="-118.49226379394531">
<ele>3932</ele>
<time>2016-10-11T19:46:56Z</time>
</trkpt>
<trkpt lat="37.08589172363281" lon="-118.4921646118164">
<ele>3932</ele>
<time>2016-10-11T19:47:37Z</time>
</trkpt>
<trkpt lat="37.08588790893555" lon="-118.49210357666016">
<ele>3933</ele>
<time>2016-10-11T19:48:05Z</time>
</trkpt>
<trkpt lat="37.08588409423828" lon="-118.49200439453125">
<ele>3936</ele>
<time>2016-10-11T19:48:37Z</time>
</trkpt>
<trkpt lat="37.08591079711914" lon="-118.49192810058594">
<ele>3942</ele>
<time>2016-10-11T19:49:45Z</time>
</trkpt>
<trkpt lat="37.085872650146484" lon="-118.49189758300781">
<ele>3944</ele>
<time>2016-10-11T19:49:57Z</time>
</trkpt>
<trkpt lat="37.085872650146484" lon="-118.49182891845703">
<ele>3943</ele>
<time>2016-10-11T19:50:11Z</time>
</trkpt>
<trkpt lat="37.08592224121094" lon="-118.49178314208984">
<ele>3945</ele>
<time>2016-10-11T19:50:28Z</time>
</trkpt>
<trkpt lat="37.08592987060547" lon="-118.4917221069336">
<ele>3946</ele>
<time>2016-10-11T19:50:52Z</time>
</trkpt>
<trkpt lat="37.085941314697266" lon="-118.49166870117188">
<ele>3947</ele>
<time>2016-10-11T19:51:05Z</time>
</trkpt>
<trkpt lat="37.08599090576172" lon="-118.49161529541016">
<ele>3942</ele>
<time>2016-10-11T19:51:30Z</time>
</trkpt>
<trkpt lat="37.08594512939453" lon="-118.4916000366211">
<ele>3939</ele>
<time>2016-10-11T19:52:06Z</time>
</trkpt>
<trkpt lat="37.085941314697266" lon="-118.49149322509766">
<ele>3938</ele>
<time>2016-10-11T19:52:36Z</time>
</trkpt>
<trkpt lat="37.08597946166992" lon="-118.49144744873047">
<ele>3941</ele>
<time>2016-10-11T19:53:19Z</time>
</trkpt>
<trkpt lat="37.08601760864258" lon="-118.49141693115234">
<ele>3956</ele>
<time>2016-10-11T19:53:46Z</time>
</trkpt>
<trkpt lat="37.086029052734375" lon="-118.49136352539063">
<ele>3962</ele>
<time>2016-10-11T19:54:11Z</time>
</trkpt>
<trkpt lat="37.08605194091797" lon="-118.4913101196289">
<ele>3967</ele>
<time>2016-10-11T19:54:24Z</time>
</trkpt>
<trkpt lat="37.08605194091797" lon="-118.49136352539063">
<ele>3970</ele>
<time>2016-10-11T19:55:09Z</time>
</trkpt>
<trkpt lat="37.08600997924805" lon="-118.49134063720703">
<ele>3970</ele>
<time>2016-10-11T20:04:13Z</time>
</trkpt>
<trkpt lat="37.08597183227539" lon="-118.49137878417969">
<ele>3968</ele>
<time>2016-10-11T20:04:45Z</time>
</trkpt>
<trkpt lat="37.0859375" lon="-118.49134063720703">
<ele>3971</ele>
<time>2016-10-11T20:05:06Z</time>
</trkpt>
<trkpt lat="37.08588409423828" lon="-118.4913330078125">
<ele>3970</ele>
<time>2016-10-11T20:05:44Z</time>
</trkpt>
<trkpt lat="37.08584213256836" lon="-118.4913101196289">
<ele>3972</ele>
<time>2016-10-11T20:05:58Z</time>
</trkpt>
<trkpt lat="37.085792541503906" lon="-118.4913101196289">
<ele>3974</ele>
<time>2016-10-11T20:06:06Z</time>
</trkpt>
<trkpt lat="37.085723876953125" lon="-118.49132537841797">
<ele>3975</ele>
<time>2016-10-11T20:06:28Z</time>
</trkpt>
<trkpt lat="37.0856819152832" lon="-118.4913330078125">
<ele>3977</ele>
<time>2016-10-11T20:07:00Z</time>
</trkpt>
<trkpt lat="37.085636138916016" lon="-118.4913558959961">
<ele>3973</ele>
<time>2016-10-11T20:07:12Z</time>
</trkpt>
<trkpt lat="37.08559799194336" lon="-118.49131774902344">
<ele>3973</ele>
<time>2016-10-11T20:07:33Z</time>
</trkpt>
<trkpt lat="37.08555221557617" lon="-118.4913330078125">
<ele>3980</ele>
<time>2016-10-11T20:07:57Z</time>
</trkpt>
<trkpt lat="37.085506439208984" lon="-118.49134063720703">
<ele>3979</ele>
<time>2016-10-11T20:08:05Z</time>
</trkpt>
<trkpt lat="37.085426330566406" lon="-118.49132537841797">
<ele>3986</ele>
<time>2016-10-11T20:08:42Z</time>
</trkpt>
<trkpt lat="37.08537292480469" lon="-118.4913558959961">
<ele>3990</ele>
<time>2016-10-11T20:09:28Z</time>
</trkpt>
<trkpt lat="37.085330963134766" lon="-118.49134063720703">
<ele>3993</ele>
<time>2016-10-11T20:09:46Z</time>
</trkpt>
<trkpt lat="37.08523941040039" lon="-118.49131774902344">
<ele>3998</ele>
<time>2016-10-11T20:10:45Z</time>
</trkpt>
<trkpt lat="37.085201263427734" lon="-118.4913558959961">
<ele>4000</ele>
<time>2016-10-11T20:11:30Z</time>
</trkpt>
<trkpt lat="37.08515548706055" lon="-118.49138641357422">
<ele>4008</ele>
<time>2016-10-11T20:12:08Z</time>
</trkpt>
</trkseg>
</trk>
<trk>
<name><![CDATA[10111312]]></name>
<number>43</number>
<extensions><topografix:color>ff000066</topografix:color></extensions>
<trkseg>
<trkpt lat="37.085166931152344" lon="-118.49139404296875">
<ele>4006</ele>
<time>2016-10-11T20:12:46Z</time>
</trkpt>
<trkpt lat="37.08513641357422" lon="-118.49134826660156">
<ele>4003</ele>
<time>2016-10-11T20:15:15Z</time>
</trkpt>
<trkpt lat="37.085121154785156" lon="-118.49129486083984">
<ele>4007</ele>
<time>2016-10-11T20:18:46Z</time>
</trkpt>
<trkpt lat="37.08509063720703" lon="-118.49136352539063">
<ele>4000</ele>
<time>2016-10-11T20:21:08Z</time>
</trkpt>
<trkpt lat="37.08504104614258" lon="-118.49137115478516">
<ele>4002</ele>
<time>2016-10-11T20:21:37Z</time>
</trkpt>
<trkpt lat="37.0849609375" lon="-118.49134063720703">
<ele>3997</ele>
<time>2016-10-11T20:22:46Z</time>
</trkpt>
<trkpt lat="37.08498764038086" lon="-118.49129486083984">
<ele>3996</ele>
<time>2016-10-11T20:23:11Z</time>
</trkpt>
<trkpt lat="37.08495330810547" lon="-118.49125671386719">
<ele>3994</ele>
<time>2016-10-11T20:23:43Z</time>
</trkpt>
<trkpt lat="37.08501434326172" lon="-118.4912338256836">
<ele>3994</ele>
<time>2016-10-11T20:24:21Z</time>
</trkpt>
<trkpt lat="37.08507537841797" lon="-118.4912109375">
<ele>3975</ele>
<time>2016-10-11T20:24:38Z</time>
</trkpt>
<trkpt lat="37.08512496948242" lon="-118.49117279052734">
<ele>3971</ele>
<time>2016-10-11T20:25:12Z</time>
</trkpt>
<trkpt lat="37.08511734008789" lon="-118.4911117553711">
<ele>3974</ele>
<time>2016-10-11T20:26:36Z</time>
</trkpt>
<trkpt lat="37.08515548706055" lon="-118.49105834960938">
<ele>3979</ele>
<time>2016-10-11T20:27:13Z</time>
</trkpt>
<trkpt lat="37.08515930175781" lon="-118.49099731445313">
<ele>3983</ele>
<time>2016-10-11T20:28:10Z</time>
</trkpt>
<trkpt lat="37.085113525390625" lon="-118.49091339111328">
<ele>3971</ele>
<time>2016-10-11T20:29:11Z</time>
</trkpt>
<trkpt lat="37.085079193115234" lon="-118.4908676147461">
<ele>3972</ele>
<time>2016-10-11T20:29:34Z</time>
</trkpt>
<trkpt lat="37.08503723144531" lon="-118.49091339111328">
<ele>3971</ele>
<time>2016-10-11T20:29:41Z</time>
</trkpt>
<trkpt lat="37.08507537841797" lon="-118.49080657958984">
<ele>3965</ele>
<time>2016-10-11T20:30:32Z</time>
</trkpt>
<trkpt lat="37.08510208129883" lon="-118.4907455444336">
<ele>3961</ele>
<time>2016-10-11T20:31:21Z</time>
</trkpt>
<trkpt lat="37.08510971069336" lon="-118.49080657958984">
<ele>3960</ele>
<time>2016-10-11T20:31:39Z</time>
</trkpt>
<trkpt lat="37.08511734008789" lon="-118.49071502685547">
<ele>3960</ele>
<time>2016-10-11T20:34:32Z</time>
</trkpt>
<trkpt lat="37.08509826660156" lon="-118.49066162109375">
<ele>3968</ele>
<time>2016-10-11T20:34:42Z</time>
</trkpt>
<trkpt lat="37.085079193115234" lon="-118.4906005859375">
<ele>3971</ele>
<time>2016-10-11T20:36:04Z</time>
</trkpt>
<trkpt lat="37.085018157958984" lon="-118.4906234741211">
<ele>3968</ele>
<time>2016-10-11T20:37:22Z</time>
</trkpt>
<trkpt lat="37.08497619628906" lon="-118.49060821533203">
<ele>3947</ele>
<time>2016-10-11T20:37:42Z</time>
</trkpt>
<trkpt lat="37.08491897583008" lon="-118.49058532714844">
<ele>3953</ele>
<time>2016-10-11T20:38:02Z</time>
</trkpt>
<trkpt lat="37.08494567871094" lon="-118.49053192138672">
<ele>3955</ele>
<time>2016-10-11T20:38:14Z</time>
</trkpt>
<trkpt lat="37.084991455078125" lon="-118.49053192138672">
<ele>3946</ele>
<time>2016-10-11T20:38:27Z</time>
</trkpt>
<trkpt lat="37.0849609375" lon="-118.49043273925781">
<ele>3934</ele>
<time>2016-10-11T20:39:38Z</time>
</trkpt>
<trkpt lat="37.0849494934082" lon="-118.4903564453125">
<ele>3943</ele>
<time>2016-10-11T20:40:13Z</time>
</trkpt>
<trkpt lat="37.084930419921875" lon="-118.49030303955078">
<ele>3927</ele>
<time>2016-10-11T20:40:27Z</time>
</trkpt>
<trkpt lat="37.08489990234375" lon="-118.49026489257813">
<ele>3913</ele>
<time>2016-10-11T20:40:42Z</time>
</trkpt>
<trkpt lat="37.08486557006836" lon="-118.49018096923828">
<ele>3953</ele>
<time>2016-10-11T20:40:55Z</time>
</trkpt>
<trkpt lat="37.0848274230957" lon="-118.49015045166016">
<ele>3917</ele>
<time>2016-10-11T20:41:23Z</time>
</trkpt>
<trkpt lat="37.084815979003906" lon="-118.4900894165039">
<ele>3914</ele>
<time>2016-10-11T20:41:31Z</time>
</trkpt>
<trkpt lat="37.08477783203125" lon="-118.49004364013672">
<ele>3908</ele>
<time>2016-10-11T20:41:39Z</time>
</trkpt>
<trkpt lat="37.08476257324219" lon="-118.48998260498047">
<ele>3910</ele>
<time>2016-10-11T20:41:45Z</time>
</trkpt>
<trkpt lat="37.08479690551758" lon="-118.48990631103516">
<ele>3960</ele>
<time>2016-10-11T20:41:55Z</time>
</trkpt>
<trkpt lat="37.08479690551758" lon="-118.4898452758789">
<ele>3929</ele>
<time>2016-10-11T20:42:04Z</time>
</trkpt>
<trkpt lat="37.0848388671875" lon="-118.48982238769531">
<ele>3938</ele>
<time>2016-10-11T20:42:12Z</time>
</trkpt>
<trkpt lat="37.08480453491211" lon="-118.48978424072266">
<ele>3897</ele>
<time>2016-10-11T20:42:46Z</time>
</trkpt>
<trkpt lat="37.08482360839844" lon="-118.4897232055664">
<ele>3903</ele>
<time>2016-10-11T20:43:23Z</time>
</trkpt>
<trkpt lat="37.08482360839844" lon="-118.48977661132813">
<ele>3940</ele>
<time>2016-10-11T20:43:38Z</time>
</trkpt>
<trkpt lat="37.08485794067383" lon="-118.48973083496094">
<ele>3955</ele>
<time>2016-10-11T20:43:45Z</time>
</trkpt>
<trkpt lat="37.08485412597656" lon="-118.48965454101563">
<ele>3894</ele>
<time>2016-10-11T20:44:47Z</time>
</trkpt>
<trkpt lat="37.0848388671875" lon="-118.48959350585938">
<ele>3945</ele>
<time>2016-10-11T20:45:10Z</time>
</trkpt>
<trkpt lat="37.08482360839844" lon="-118.48954010009766">
<ele>3929</ele>
<time>2016-10-11T20:45:27Z</time>
</trkpt>
<trkpt lat="37.08478546142578" lon="-118.48957061767578">
<ele>3896</ele>
<time>2016-10-11T20:45:35Z</time>
</trkpt>
<trkpt lat="37.08475112915039" lon="-118.48963165283203">
<ele>3946</ele>
<time>2016-10-11T20:46:22Z</time>
</trkpt>
<trkpt lat="37.084716796875" lon="-118.48957824707031">
<ele>3901</ele>
<time>2016-10-11T20:46:37Z</time>
</trkpt>
<trkpt lat="37.08472442626953" lon="-118.48951721191406">
<ele>3886</ele>
<time>2016-10-11T20:46:46Z</time>
</trkpt>
<trkpt lat="37.08468246459961" lon="-118.48948669433594">
<ele>3885</ele>
<time>2016-10-11T20:47:01Z</time>
</trkpt>
<trkpt lat="37.084632873535156" lon="-118.48949432373047">
<ele>3867</ele>
<time>2016-10-11T20:47:34Z</time>
</trkpt>
<trkpt lat="37.08458709716797" lon="-118.48954010009766">
<ele>3869</ele>
<time>2016-10-11T20:47:58Z</time>
</trkpt>
<trkpt lat="37.08454513549805" lon="-118.48950958251953">
<ele>3863</ele>
<time>2016-10-11T20:48:20Z</time>
</trkpt>
<trkpt lat="37.08449935913086" lon="-118.4895248413086">
<ele>3860</ele>
<time>2016-10-11T20:48:38Z</time>
</trkpt>
<trkpt lat="37.084434509277344" lon="-118.489501953125">
<ele>3860</ele>
<time>2016-10-11T20:49:13Z</time>
</trkpt>
<trkpt lat="37.08442306518555" lon="-118.48956298828125">
<ele>3854</ele>
<time>2016-10-11T20:49:33Z</time>
</trkpt>
<trkpt lat="37.08437728881836" lon="-118.48949432373047">
<ele>3896</ele>
<time>2016-10-11T20:51:18Z</time>
</trkpt>
<trkpt lat="37.084327697753906" lon="-118.48938751220703">
<ele>3878</ele>
<time>2016-10-11T20:51:40Z</time>
</trkpt>
<trkpt lat="37.084293365478516" lon="-118.48934173583984">
<ele>3854</ele>
<time>2016-10-11T20:52:21Z</time>
</trkpt>
<trkpt lat="37.08424377441406" lon="-118.48931884765625">
<ele>3888</ele>
<time>2016-10-11T20:53:00Z</time>
</trkpt>
<trkpt lat="37.0842170715332" lon="-118.4893798828125">
<ele>3899</ele>
<time>2016-10-11T20:53:29Z</time>
</trkpt>
<trkpt lat="37.08417892456055" lon="-118.48934173583984">
<ele>3962</ele>
<time>2016-10-11T20:53:46Z</time>
</trkpt>
<trkpt lat="37.084190368652344" lon="-118.48928833007813">
<ele>3854</ele>
<time>2016-10-11T20:53:57Z</time>
</trkpt>
<trkpt lat="37.08414077758789" lon="-118.48929595947266">
<ele>3841</ele>
<time>2016-10-11T20:54:15Z</time>
</trkpt>
<trkpt lat="37.08412170410156" lon="-118.48924255371094">
<ele>3864</ele>
<time>2016-10-11T20:54:26Z</time>
</trkpt>
<trkpt lat="37.08409118652344" lon="-118.48919677734375">
<ele>3910</ele>
<time>2016-10-11T20:54:47Z</time>
</trkpt>
<trkpt lat="37.0841178894043" lon="-118.48914337158203">
<ele>3879</ele>
<time>2016-10-11T20:55:27Z</time>
</trkpt>
<trkpt lat="37.0841064453125" lon="-118.48908996582031">
<ele>3884</ele>
<time>2016-10-11T20:55:35Z</time>
</trkpt>
<trkpt lat="37.08412551879883" lon="-118.4890365600586">
<ele>3869</ele>
<time>2016-10-11T20:55:45Z</time>
</trkpt>
<trkpt lat="37.08411407470703" lon="-118.48895263671875">
<ele>3924</ele>
<time>2016-10-11T20:56:34Z</time>
</trkpt>
<trkpt lat="37.08418273925781" lon="-118.48888397216797">
<ele>3925</ele>
<time>2016-10-11T20:57:05Z</time>
</trkpt>
<trkpt lat="37.08420181274414" lon="-118.48881530761719">
<ele>3829</ele>
<time>2016-10-11T20:57:29Z</time>
</trkpt>
<trkpt lat="37.08428955078125" lon="-118.48883819580078">
<ele>3824</ele>
<time>2016-10-11T20:57:37Z</time>
</trkpt>
<trkpt lat="37.0842399597168" lon="-118.48882293701172">
<ele>3809</ele>
<time>2016-10-11T20:58:08Z</time>
</trkpt>
<trkpt lat="37.084232330322266" lon="-118.48873901367188">
<ele>3812</ele>
<time>2016-10-11T20:58:27Z</time>
</trkpt>
<trkpt lat="37.08423614501953" lon="-118.48867797851563">
<ele>3811</ele>
<time>2016-10-11T20:58:39Z</time>
</trkpt>
<trkpt lat="37.08417892456055" lon="-118.48858642578125">
<ele>3809</ele>
<time>2016-10-11T20:58:59Z</time>
</trkpt>
<trkpt lat="37.08416748046875" lon="-118.48853302001953">
<ele>3806</ele>
<time>2016-10-11T20:59:24Z</time>
</trkpt>
<trkpt lat="37.08415985107422" lon="-118.48847198486328">
<ele>3805</ele>
<time>2016-10-11T20:59:31Z</time>
</trkpt>
<trkpt lat="37.08414840698242" lon="-118.48841094970703">
<ele>3805</ele>
<time>2016-10-11T20:59:37Z</time>
</trkpt>
<trkpt lat="37.084083557128906" lon="-118.48836517333984">
<ele>3920</ele>
<time>2016-10-11T21:00:08Z</time>
</trkpt>
<trkpt lat="37.08409881591797" lon="-118.48831176757813">
<ele>3841</ele>
<time>2016-10-11T21:00:41Z</time>
</trkpt>
<trkpt lat="37.084083557128906" lon="-118.48823547363281">
<ele>3939</ele>
<time>2016-10-11T21:00:53Z</time>
</trkpt>
<trkpt lat="37.08405303955078" lon="-118.4881820678711">
<ele>3858</ele>
<time>2016-10-11T21:01:00Z</time>
</trkpt>
<trkpt lat="37.08402633666992" lon="-118.4881362915039">
<ele>3820</ele>
<time>2016-10-11T21:01:08Z</time>
</trkpt>
<trkpt lat="37.08401870727539" lon="-118.48807525634766">
<ele>3810</ele>
<time>2016-10-11T21:01:17Z</time>
</trkpt>
<trkpt lat="37.08405685424805" lon="-118.48804473876953">
<ele>3815</ele>
<time>2016-10-11T21:01:33Z</time>
</trkpt>
<trkpt lat="37.08401107788086" lon="-118.48796844482422">
<ele>3801</ele>
<time>2016-10-11T21:01:57Z</time>
</trkpt>
<trkpt lat="37.08400344848633" lon="-118.48790740966797">
<ele>3798</ele>
<time>2016-10-11T21:02:10Z</time>
</trkpt>
<trkpt lat="37.08399963378906" lon="-118.48784637451172">
<ele>3800</ele>
<time>2016-10-11T21:02:27Z</time>
</trkpt>
<trkpt lat="37.0839958190918" lon="-118.48779296875">
<ele>3798</ele>
<time>2016-10-11T21:02:33Z</time>
</trkpt>
<trkpt lat="37.083984375" lon="-118.4876708984375">
<ele>3797</ele>
<time>2016-10-11T21:02:44Z</time>
</trkpt>
<trkpt lat="37.08401870727539" lon="-118.48760986328125">
<ele>3794</ele>
<time>2016-10-11T21:03:04Z</time>
</trkpt>
<trkpt lat="37.084068298339844" lon="-118.487548828125">
<ele>3787</ele>
<time>2016-10-11T21:04:01Z</time>
</trkpt>
<trkpt lat="37.084075927734375" lon="-118.48748779296875">
<ele>3778</ele>
<time>2016-10-11T21:04:17Z</time>
</trkpt>
<trkpt lat="37.08412170410156" lon="-118.48745727539063">
<ele>3779</ele>
<time>2016-10-11T21:04:28Z</time>
</trkpt>
<trkpt lat="37.08415222167969" lon="-118.48741912841797">
<ele>3848</ele>
<time>2016-10-11T21:04:45Z</time>
</trkpt>
<trkpt lat="37.08416748046875" lon="-118.48735809326172">
<ele>3779</ele>
<time>2016-10-11T21:05:15Z</time>
</trkpt>
<trkpt lat="37.084171295166016" lon="-118.48729705810547">
<ele>3783</ele>
<time>2016-10-11T21:05:24Z</time>
</trkpt>
<trkpt lat="37.08415222167969" lon="-118.48723602294922">
<ele>3781</ele>
<time>2016-10-11T21:05:30Z</time>
</trkpt>
<trkpt lat="37.08415603637695" lon="-118.48717498779297">
<ele>3776</ele>
<time>2016-10-11T21:05:44Z</time>
</trkpt>
<trkpt lat="37.08417510986328" lon="-118.4870834350586">
<ele>3772</ele>
<time>2016-10-11T21:05:53Z</time>
</trkpt>
<trkpt lat="37.08416748046875" lon="-118.48696899414063">
<ele>3778</ele>
<time>2016-10-11T21:06:01Z</time>
</trkpt>
<trkpt lat="37.084163665771484" lon="-118.48690795898438">
<ele>3777</ele>
<time>2016-10-11T21:06:11Z</time>
</trkpt>
<trkpt lat="37.08418273925781" lon="-118.48685455322266">
<ele>3778</ele>
<time>2016-10-11T21:06:19Z</time>
</trkpt>
<trkpt lat="37.084171295166016" lon="-118.4867935180664">
<ele>3777</ele>
<time>2016-10-11T21:06:26Z</time>
</trkpt>
<trkpt lat="37.08417892456055" lon="-118.48673248291016">
<ele>3775</ele>
<time>2016-10-11T21:06:44Z</time>
</trkpt>
<trkpt lat="37.08416748046875" lon="-118.48662567138672">
<ele>3771</ele>
<time>2016-10-11T21:06:51Z</time>
</trkpt>
<trkpt lat="37.08418655395508" lon="-118.48649597167969">
<ele>3770</ele>
<time>2016-10-11T21:07:16Z</time>
</trkpt>
<trkpt lat="37.084163665771484" lon="-118.48644256591797">
<ele>3769</ele>
<time>2016-10-11T21:07:24Z</time>
</trkpt>
<trkpt lat="37.084144592285156" lon="-118.48638916015625">
<ele>3775</ele>
<time>2016-10-11T21:07:34Z</time>
</trkpt>
<trkpt lat="37.084190368652344" lon="-118.486328125">
<ele>3770</ele>
<time>2016-10-11T21:07:58Z</time>
</trkpt>
<trkpt lat="37.08418655395508" lon="-118.48626708984375">
<ele>3776</ele>
<time>2016-10-11T21:08:36Z</time>
</trkpt>
</trkseg>
</trk>
<trk>
<name><![CDATA[10111408]]></name>
<number>44</number>
<extensions><topografix:color>ff000066</topografix:color></extensions>
<trkseg>
<trkpt lat="37.084190368652344" lon="-118.48624420166016">
<ele>3775</ele>
<time>2016-10-11T21:08:56Z</time>
</trkpt>
<trkpt lat="37.084171295166016" lon="-118.48619079589844">
<ele>3777</ele>
<time>2016-10-11T21:11:55Z</time>
</trkpt>
<trkpt lat="37.08422088623047" lon="-118.48621368408203">
<ele>3777</ele>
<time>2016-10-11T21:13:37Z</time>
</trkpt>
<trkpt lat="37.08418273925781" lon="-118.48624420166016">
<ele>3778</ele>
<time>2016-10-11T21:13:48Z</time>
</trkpt>
<trkpt lat="37.08420944213867" lon="-118.48619079589844">
<ele>3776</ele>
<time>2016-10-11T21:14:15Z</time>
</trkpt>
<trkpt lat="37.084251403808594" lon="-118.48614501953125">
<ele>3775</ele>
<time>2016-10-11T21:16:40Z</time>
</trkpt>
<trkpt lat="37.084259033203125" lon="-118.486083984375">
<ele>3772</ele>
<time>2016-10-11T21:16:50Z</time>
</trkpt>
<trkpt lat="37.08427047729492" lon="-118.48597717285156">
<ele>3769</ele>
<time>2016-10-11T21:17:26Z</time>
</trkpt>
<trkpt lat="37.084293365478516" lon="-118.48593139648438">
<ele>3770</ele>
<time>2016-10-11T21:17:45Z</time>
</trkpt>
<trkpt lat="37.08431625366211" lon="-118.48585510253906">
<ele>3771</ele>
<time>2016-10-11T21:18:33Z</time>
</trkpt>
<trkpt lat="37.08428192138672" lon="-118.4858169555664">
<ele>3775</ele>
<time>2016-10-11T21:18:45Z</time>
</trkpt>
<trkpt lat="37.08424758911133" lon="-118.4857177734375">
<ele>3771</ele>
<time>2016-10-11T21:19:11Z</time>
</trkpt>
<trkpt lat="37.084232330322266" lon="-118.48566436767578">
<ele>3773</ele>
<time>2016-10-11T21:19:17Z</time>
</trkpt>
<trkpt lat="37.08427047729492" lon="-118.48562622070313">
<ele>3769</ele>
<time>2016-10-11T21:19:33Z</time>
</trkpt>
<trkpt lat="37.08429718017578" lon="-118.4855728149414">
<ele>3770</ele>
<time>2016-10-11T21:19:42Z</time>
</trkpt>
<trkpt lat="37.08429718017578" lon="-118.48551940917969">
<ele>3772</ele>
<time>2016-10-11T21:19:54Z</time>
</trkpt>
<trkpt lat="37.084293365478516" lon="-118.4854507446289">
<ele>3771</ele>
<time>2016-10-11T21:20:18Z</time>
</trkpt>
<trkpt lat="37.084259033203125" lon="-118.48539733886719">
<ele>3770</ele>
<time>2016-10-11T21:21:53Z</time>
</trkpt>
<trkpt lat="37.084232330322266" lon="-118.48534393310547">
<ele>3769</ele>
<time>2016-10-11T21:22:24Z</time>
</trkpt>
<trkpt lat="37.084285736083984" lon="-118.4853744506836">
<ele>3768</ele>
<time>2016-10-11T21:22:48Z</time>
</trkpt>
<trkpt lat="37.08433151245117" lon="-118.48538970947266">
<ele>3770</ele>
<time>2016-10-11T21:22:55Z</time>
</trkpt>
<trkpt lat="37.0843620300293" lon="-118.4854507446289">
<ele>3775</ele>
<time>2016-10-11T21:23:10Z</time>
</trkpt>
<trkpt lat="37.08441162109375" lon="-118.48545837402344">
<ele>3776</ele>
<time>2016-10-11T21:23:41Z</time>
</trkpt>
<trkpt lat="37.0844841003418" lon="-118.48548126220703">
<ele>3771</ele>
<time>2016-10-11T21:24:48Z</time>
</trkpt>
<trkpt lat="37.084529876708984" lon="-118.4854965209961">
<ele>3772</ele>
<time>2016-10-11T21:24:55Z</time>
</trkpt>
<trkpt lat="37.08457565307617" lon="-118.4854507446289">
<ele>3769</ele>
<time>2016-10-11T21:25:15Z</time>
</trkpt>
<trkpt lat="37.084617614746094" lon="-118.48543548583984">
<ele>3768</ele>
<time>2016-10-11T21:25:30Z</time>
</trkpt>
<trkpt lat="37.08461380004883" lon="-118.48538208007813">
<ele>3766</ele>
<time>2016-10-11T21:25:44Z</time>
</trkpt>
<trkpt lat="37.08464050292969" lon="-118.48530578613281">
<ele>3768</ele>
<time>2016-10-11T21:27:08Z</time>
</trkpt>
<trkpt lat="37.0845947265625" lon="-118.48528289794922">
<ele>3767</ele>
<time>2016-10-11T21:27:35Z</time>
</trkpt>
<trkpt lat="37.08463668823242" lon="-118.48526000976563">
<ele>3767</ele>
<time>2016-10-11T21:28:11Z</time>
</trkpt>
<trkpt lat="37.08469009399414" lon="-118.48521423339844">
<ele>3760</ele>
<time>2016-10-11T21:29:56Z</time>
</trkpt>
<trkpt lat="37.08472442626953" lon="-118.48512268066406">
<ele>3757</ele>
<time>2016-10-11T21:31:43Z</time>
</trkpt>
<trkpt lat="37.08475112915039" lon="-118.48507690429688">
<ele>3752</ele>
<time>2016-10-11T21:31:56Z</time>
</trkpt>
<trkpt lat="37.08477783203125" lon="-118.48500061035156">
<ele>3747</ele>
<time>2016-10-11T21:33:21Z</time>
</trkpt>
<trkpt lat="37.0848274230957" lon="-118.48497772216797">
<ele>3747</ele>
<time>2016-10-11T21:33:27Z</time>
</trkpt>
<trkpt lat="37.084861755371094" lon="-118.48493957519531">
<ele>3736</ele>
<time>2016-10-11T21:34:16Z</time>
</trkpt>
<trkpt lat="37.084815979003906" lon="-118.48492431640625">
<ele>3733</ele>
<time>2016-10-11T21:34:54Z</time>
</trkpt>
<trkpt lat="37.08484649658203" lon="-118.48486328125">
<ele>3733</ele>
<time>2016-10-11T21:35:41Z</time>
</trkpt>
<trkpt lat="37.08480453491211" lon="-118.48483276367188">
<ele>3731</ele>
<time>2016-10-11T21:35:50Z</time>
</trkpt>
<trkpt lat="37.084835052490234" lon="-118.4847640991211">
<ele>3727</ele>
<time>2016-10-11T21:36:42Z</time>
</trkpt>
<trkpt lat="37.08488464355469" lon="-118.48475646972656">
<ele>3725</ele>
<time>2016-10-11T21:36:52Z</time>
</trkpt>
<trkpt lat="37.08491134643555" lon="-118.48468780517578">
<ele>3719</ele>
<time>2016-10-11T21:37:21Z</time>
</trkpt>
<trkpt lat="37.0849609375" lon="-118.48465728759766">
<ele>3716</ele>
<time>2016-10-11T21:37:35Z</time>
</trkpt>
</trkseg>
</trk>
<trk>
<name><![CDATA[10111507]]></name>
<number>45</number>
<extensions><topografix:color>ff000066</topografix:color></extensions>
<trkseg>
<trkpt lat="37.08770751953125" lon="-118.4820327758789">
<ele>3585</ele>
<time>2016-10-11T22:07:20Z</time>
</trkpt>
<trkpt lat="37.08772659301758" lon="-118.48197937011719">
<ele>3583</ele>
<time>2016-10-11T22:08:15Z</time>
</trkpt>
<trkpt lat="37.08774948120117" lon="-118.48202514648438">
<ele>3575</ele>
<time>2016-10-11T22:10:00Z</time>
</trkpt>
<trkpt lat="37.087806701660156" lon="-118.48200988769531">
<ele>3572</ele>
<time>2016-10-11T22:10:08Z</time>
</trkpt>
<trkpt lat="37.087852478027344" lon="-118.48198699951172">
<ele>3571</ele>
<time>2016-10-11T22:10:20Z</time>
</trkpt>
<trkpt lat="37.08789825439453" lon="-118.48197174072266">
<ele>3571</ele>
<time>2016-10-11T22:10:26Z</time>
</trkpt>
<trkpt lat="37.0880012512207" lon="-118.48194122314453">
<ele>3574</ele>
<time>2016-10-11T22:10:35Z</time>
</trkpt>
<trkpt lat="37.088043212890625" lon="-118.48194122314453">
<ele>3571</ele>
<time>2016-10-11T22:11:46Z</time>
</trkpt>
<trkpt lat="37.08805847167969" lon="-118.48199462890625">
<ele>3565</ele>
<time>2016-10-11T22:11:58Z</time>
</trkpt>
<trkpt lat="37.08810806274414" lon="-118.48198699951172">
<ele>3567</ele>
<time>2016-10-11T22:12:18Z</time>
</trkpt>
<trkpt lat="37.08816146850586" lon="-118.4819564819336">
<ele>3564</ele>
<time>2016-10-11T22:12:37Z</time>
</trkpt>
<trkpt lat="37.08816909790039" lon="-118.48200988769531">
<ele>3566</ele>
<time>2016-10-11T22:12:54Z</time>
</trkpt>
<trkpt lat="37.088218688964844" lon="-118.48202514648438">
<ele>3562</ele>
<time>2016-10-11T22:13:04Z</time>
</trkpt>
<trkpt lat="37.088279724121094" lon="-118.48204040527344">
<ele>3562</ele>
<time>2016-10-11T22:13:40Z</time>
</trkpt>
<trkpt lat="37.08830642700195" lon="-118.48209381103516">
<ele>3559</ele>
<time>2016-10-11T22:14:00Z</time>
</trkpt>
<trkpt lat="37.08833312988281" lon="-118.48214721679688">
<ele>3557</ele>
<time>2016-10-11T22:14:16Z</time>
</trkpt>
<trkpt lat="37.08839416503906" lon="-118.482177734375">
<ele>3554</ele>
<time>2016-10-11T22:14:33Z</time>
</trkpt>
<trkpt lat="37.088436126708984" lon="-118.48219299316406">
<ele>3553</ele>
<time>2016-10-11T22:14:50Z</time>
</trkpt>
<trkpt lat="37.08847427368164" lon="-118.48223114013672">
<ele>3556</ele>
<time>2016-10-11T22:15:02Z</time>
</trkpt>
<trkpt lat="37.088497161865234" lon="-118.48231506347656">
<ele>3552</ele>
<time>2016-10-11T22:15:31Z</time>
</trkpt>
<trkpt lat="37.088539123535156" lon="-118.48235321044922">
<ele>3547</ele>
<time>2016-10-11T22:15:40Z</time>
</trkpt>
<trkpt lat="37.08858108520508" lon="-118.48238372802734">
<ele>3546</ele>
<time>2016-10-11T22:15:47Z</time>
</trkpt>
<trkpt lat="37.088619232177734" lon="-118.48241424560547">
<ele>3547</ele>
<time>2016-10-11T22:15:54Z</time>
</trkpt>
<trkpt lat="37.08863830566406" lon="-118.48246765136719">
<ele>3548</ele>
<time>2016-10-11T22:16:00Z</time>
</trkpt>
<trkpt lat="37.08870315551758" lon="-118.48249816894531">
<ele>3542</ele>
<time>2016-10-11T22:17:26Z</time>
</trkpt>
<trkpt lat="37.08875274658203" lon="-118.48249053955078">
<ele>3540</ele>
<time>2016-10-11T22:17:43Z</time>
</trkpt>
<trkpt lat="37.08879089355469" lon="-118.48246002197266">
<ele>3536</ele>
<time>2016-10-11T22:18:10Z</time>
</trkpt>
<trkpt lat="37.088836669921875" lon="-118.4824447631836">
<ele>3534</ele>
<time>2016-10-11T22:18:17Z</time>
</trkpt>
<trkpt lat="37.088905334472656" lon="-118.4824447631836">
<ele>3554</ele>
<time>2016-10-11T22:18:50Z</time>
</trkpt>
<trkpt lat="37.08894348144531" lon="-118.48241424560547">
<ele>3523</ele>
<time>2016-10-11T22:19:11Z</time>
</trkpt>
<trkpt lat="37.0889892578125" lon="-118.4823989868164">
<ele>3523</ele>
<time>2016-10-11T22:19:20Z</time>
</trkpt>
<trkpt lat="37.08903503417969" lon="-118.48240661621094">
<ele>3594</ele>
<time>2016-10-11T22:19:37Z</time>
</trkpt>
<trkpt lat="37.08907699584961" lon="-118.48243713378906">
<ele>3527</ele>
<time>2016-10-11T22:19:49Z</time>
</trkpt>
<trkpt lat="37.08913803100586" lon="-118.48250579833984">
<ele>3517</ele>
<time>2016-10-11T22:20:32Z</time>
</trkpt>
<trkpt lat="37.08916091918945" lon="-118.48255157470703">
<ele>3521</ele>
<time>2016-10-11T22:20:44Z</time>
</trkpt>
<trkpt lat="37.08919143676758" lon="-118.48260498046875">
<ele>3514</ele>
<time>2016-10-11T22:20:54Z</time>
</trkpt>
<trkpt lat="37.08921813964844" lon="-118.48265838623047">
<ele>3510</ele>
<time>2016-10-11T22:21:11Z</time>
</trkpt>
<trkpt lat="37.08928298950195" lon="-118.48267364501953">
<ele>3514</ele>
<time>2016-10-11T22:21:30Z</time>
</trkpt>
<trkpt lat="37.089324951171875" lon="-118.48265075683594">
<ele>3547</ele>
<time>2016-10-11T22:21:37Z</time>
</trkpt>
<trkpt lat="37.08936309814453" lon="-118.48268127441406">
<ele>3521</ele>
<time>2016-10-11T22:21:45Z</time>
</trkpt>
<trkpt lat="37.08939743041992" lon="-118.48271942138672">
<ele>3519</ele>
<time>2016-10-11T22:21:51Z</time>
</trkpt>
<trkpt lat="37.08943557739258" lon="-118.4827651977539">
<ele>3508</ele>
<time>2016-10-11T22:22:08Z</time>
</trkpt>
<trkpt lat="37.08949661254883" lon="-118.48274993896484">
<ele>3503</ele>
<time>2016-10-11T22:22:31Z</time>
</trkpt>
<trkpt lat="37.08953857421875" lon="-118.48271942138672">
<ele>3499</ele>
<time>2016-10-11T22:22:39Z</time>
</trkpt>
<trkpt lat="37.08958435058594" lon="-118.48270416259766">
<ele>3494</ele>
<time>2016-10-11T22:22:52Z</time>
</trkpt>
<trkpt lat="37.08962631225586" lon="-118.4826889038086">
<ele>3640</ele>
<time>2016-10-11T22:22:58Z</time>
</trkpt>
<trkpt lat="37.089656829833984" lon="-118.48274230957031">
<ele>3592</ele>
<time>2016-10-11T22:23:11Z</time>
</trkpt>
<trkpt lat="37.08970260620117" lon="-118.48274993896484">
<ele>3517</ele>
<time>2016-10-11T22:23:18Z</time>
</trkpt>
<trkpt lat="37.08976364135742" lon="-118.48271179199219">
<ele>3499</ele>
<time>2016-10-11T22:23:27Z</time>
</trkpt>
<trkpt lat="37.08980941772461" lon="-118.48269653320313">
<ele>3494</ele>
<time>2016-10-11T22:23:37Z</time>
</trkpt>
<trkpt lat="37.08989334106445" lon="-118.48268127441406">
<ele>3495</ele>
<time>2016-10-11T22:24:20Z</time>
</trkpt>
<trkpt lat="37.08993911743164" lon="-118.4826889038086">
<ele>3487</ele>
<time>2016-10-11T22:24:31Z</time>
</trkpt>
<trkpt lat="37.08998489379883" lon="-118.48271179199219">
<ele>3539</ele>
<time>2016-10-11T22:24:39Z</time>
</trkpt>
<trkpt lat="37.090030670166016" lon="-118.48270416259766">
<ele>3496</ele>
<time>2016-10-11T22:24:49Z</time>
</trkpt>
<trkpt lat="37.09006881713867" lon="-118.482666015625">
<ele>3524</ele>
<time>2016-10-11T22:25:10Z</time>
</trkpt>
<trkpt lat="37.09015655517578" lon="-118.48268127441406">
<ele>3470</ele>
<time>2016-10-11T22:25:33Z</time>
</trkpt>
<trkpt lat="37.09016036987305" lon="-118.48262023925781">
<ele>3467</ele>
<time>2016-10-11T22:25:44Z</time>
</trkpt>
<trkpt lat="37.090206146240234" lon="-118.48261260986328">
<ele>3463</ele>
<time>2016-10-11T22:25:56Z</time>
</trkpt>
<trkpt lat="37.09025573730469" lon="-118.48262786865234">
<ele>3464</ele>
<time>2016-10-11T22:26:10Z</time>
</trkpt>
<trkpt lat="37.09030532836914" lon="-118.48263549804688">
<ele>3462</ele>
<time>2016-10-11T22:26:19Z</time>
</trkpt>
<trkpt lat="37.09035110473633" lon="-118.48265075683594">
<ele>3460</ele>
<time>2016-10-11T22:26:31Z</time>
</trkpt>
<trkpt lat="37.090389251708984" lon="-118.48261260986328">
<ele>3456</ele>
<time>2016-10-11T22:26:55Z</time>
</trkpt>
<trkpt lat="37.090423583984375" lon="-118.48257446289063">
<ele>3452</ele>
<time>2016-10-11T22:27:04Z</time>
</trkpt>
<trkpt lat="37.09043884277344" lon="-118.4825210571289">
<ele>3624</ele>
<time>2016-10-11T22:27:10Z</time>
</trkpt>
<trkpt lat="37.09046173095703" lon="-118.48246765136719">
<ele>3489</ele>
<time>2016-10-11T22:27:16Z</time>
</trkpt>
<trkpt lat="37.09052276611328" lon="-118.4823989868164">
<ele>3665</ele>
<time>2016-10-11T22:27:28Z</time>
</trkpt>
<trkpt lat="37.090606689453125" lon="-118.48234558105469">
<ele>3665</ele>
<time>2016-10-11T22:27:41Z</time>
</trkpt>
<trkpt lat="37.09064865112305" lon="-118.48237609863281">
<ele>3500</ele>
<time>2016-10-11T22:28:11Z</time>
</trkpt>
<trkpt lat="37.09068298339844" lon="-118.4822998046875">
<ele>3448</ele>
<time>2016-10-11T22:28:38Z</time>
</trkpt>
<trkpt lat="37.090736389160156" lon="-118.48229217529297">
<ele>3615</ele>
<time>2016-10-11T22:28:44Z</time>
</trkpt>
<trkpt lat="37.09077835083008" lon="-118.48225402832031">
<ele>3481</ele>
<time>2016-10-11T22:28:53Z</time>
</trkpt>
<trkpt lat="37.090824127197266" lon="-118.48226928710938">
<ele>3450</ele>
<time>2016-10-11T22:29:01Z</time>
</trkpt>
<trkpt lat="37.09087371826172" lon="-118.48224639892578">
<ele>3614</ele>
<time>2016-10-11T22:29:09Z</time>
</trkpt>
<trkpt lat="37.090919494628906" lon="-118.48222351074219">
<ele>3457</ele>
<time>2016-10-11T22:29:20Z</time>
</trkpt>
<trkpt lat="37.090999603271484" lon="-118.48218536376953">
<ele>3577</ele>
<time>2016-10-11T22:29:30Z</time>
</trkpt>
<trkpt lat="37.09102249145508" lon="-118.48213195800781">
<ele>3445</ele>
<time>2016-10-11T22:29:38Z</time>
</trkpt>
<trkpt lat="37.0910530090332" lon="-118.48208618164063">
<ele>3438</ele>
<time>2016-10-11T22:29:46Z</time>
</trkpt>
<trkpt lat="37.09109115600586" lon="-118.4820327758789">
<ele>3580</ele>
<time>2016-10-11T22:29:56Z</time>
</trkpt>
<trkpt lat="37.091129302978516" lon="-118.48200225830078">
<ele>3478</ele>
<time>2016-10-11T22:30:05Z</time>
</trkpt>
<trkpt lat="37.09121322631836" lon="-118.4819564819336">
<ele>3451</ele>
<time>2016-10-11T22:30:14Z</time>
</trkpt>
<trkpt lat="37.09127426147461" lon="-118.48198699951172">
<ele>3450</ele>
<time>2016-10-11T22:30:20Z</time>
</trkpt>
<trkpt lat="37.0913200378418" lon="-118.48196411132813">
<ele>3439</ele>
<time>2016-10-11T22:30:27Z</time>
</trkpt>
<trkpt lat="37.091346740722656" lon="-118.4819107055664">
<ele>3435</ele>
<time>2016-10-11T22:30:39Z</time>
</trkpt>
<trkpt lat="37.091434478759766" lon="-118.48192596435547">
<ele>3438</ele>
<time>2016-10-11T22:30:50Z</time>
</trkpt>
<trkpt lat="37.09146499633789" lon="-118.48188781738281">
<ele>3697</ele>
<time>2016-10-11T22:33:21Z</time>
</trkpt>
<trkpt lat="37.09141159057617" lon="-118.48191833496094">
<ele>3593</ele>
<time>2016-10-11T22:35:15Z</time>
</trkpt>
<trkpt lat="37.091461181640625" lon="-118.48194122314453">
<ele>3435</ele>
<time>2016-10-11T22:37:36Z</time>
</trkpt>
<trkpt lat="37.09151077270508" lon="-118.48196411132813">
<ele>3641</ele>
<time>2016-10-11T22:37:49Z</time>
</trkpt>
<trkpt lat="37.09160232543945" lon="-118.48200988769531">
<ele>3450</ele>
<time>2016-10-11T22:37:58Z</time>
</trkpt>
<trkpt lat="37.091678619384766" lon="-118.4819564819336">
<ele>3436</ele>
<time>2016-10-11T22:38:09Z</time>
</trkpt>
<trkpt lat="37.09172439575195" lon="-118.48191833496094">
<ele>3430</ele>
<time>2016-10-11T22:38:17Z</time>
</trkpt>
<trkpt lat="37.09180450439453" lon="-118.48190307617188">
<ele>3434</ele>
<time>2016-10-11T22:38:25Z</time>
</trkpt>
<trkpt lat="37.091854095458984" lon="-118.48190307617188">
<ele>3432</ele>
<time>2016-10-11T22:38:31Z</time>
</trkpt>
<trkpt lat="37.091896057128906" lon="-118.48193359375">
<ele>3430</ele>
<time>2016-10-11T22:38:37Z</time>
</trkpt>
<trkpt lat="37.09196472167969" lon="-118.48197937011719">
<ele>3431</ele>
<time>2016-10-11T22:39:27Z</time>
</trkpt>
<trkpt lat="37.092010498046875" lon="-118.48200225830078">
<ele>3431</ele>
<time>2016-10-11T22:39:33Z</time>
</trkpt>
<trkpt lat="37.09206008911133" lon="-118.48202514648438">
<ele>3428</ele>
<time>2016-10-11T22:39:39Z</time>
</trkpt>
<trkpt lat="37.0921630859375" lon="-118.48201751708984">
<ele>3428</ele>
<time>2016-10-11T22:39:49Z</time>
</trkpt>
<trkpt lat="37.09225845336914" lon="-118.48196411132813">
<ele>3420</ele>
<time>2016-10-11T22:40:04Z</time>
</trkpt>
<trkpt lat="37.09230422973633" lon="-118.48192596435547">
<ele>3419</ele>
<time>2016-10-11T22:40:10Z</time>
</trkpt>
<trkpt lat="37.09239196777344" lon="-118.48187255859375">
<ele>3417</ele>
<time>2016-10-11T22:40:20Z</time>
</trkpt>
<trkpt lat="37.09248352050781" lon="-118.48180389404297">
<ele>3412</ele>
<time>2016-10-11T22:40:53Z</time>
</trkpt>
<trkpt lat="37.09248733520508" lon="-118.48174285888672">
<ele>3408</ele>
<time>2016-10-11T22:41:03Z</time>
</trkpt>
<trkpt lat="37.092529296875" lon="-118.48171997070313">
<ele>3408</ele>
<time>2016-10-11T22:41:11Z</time>
</trkpt>
<trkpt lat="37.09256362915039" lon="-118.48167419433594">
<ele>3404</ele>
<time>2016-10-11T22:41:18Z</time>
</trkpt>
<trkpt lat="37.09264373779297" lon="-118.48162841796875">
<ele>3397</ele>
<time>2016-10-11T22:41:39Z</time>
</trkpt>
<trkpt lat="37.09268569946289" lon="-118.4815902709961">
<ele>3395</ele>
<time>2016-10-11T22:41:49Z</time>
</trkpt>
<trkpt lat="37.09275436401367" lon="-118.48151397705078">
<ele>3396</ele>
<time>2016-10-11T22:42:00Z</time>
</trkpt>
<trkpt lat="37.09279251098633" lon="-118.48147583007813">
<ele>3397</ele>
<time>2016-10-11T22:42:10Z</time>
</trkpt>
<trkpt lat="37.09284210205078" lon="-118.4814682006836">
<ele>3394</ele>
<time>2016-10-11T22:42:16Z</time>
</trkpt>
<trkpt lat="37.0928955078125" lon="-118.48140716552734">
<ele>3389</ele>
<time>2016-10-11T22:42:28Z</time>
</trkpt>
<trkpt lat="37.09296798706055" lon="-118.48133087158203">
<ele>3389</ele>
<time>2016-10-11T22:42:40Z</time>
</trkpt>
<trkpt lat="37.093013763427734" lon="-118.48130798339844">
<ele>3392</ele>
<time>2016-10-11T22:43:12Z</time>
</trkpt>
<trkpt lat="37.09306335449219" lon="-118.48123168945313">
<ele>3391</ele>
<time>2016-10-11T22:43:21Z</time>
</trkpt>
<trkpt lat="37.09303283691406" lon="-118.48118591308594">
<ele>3392</ele>
<time>2016-10-11T22:43:34Z</time>
</trkpt>
<trkpt lat="37.093017578125" lon="-118.48111724853516">
<ele>3390</ele>
<time>2016-10-11T22:43:42Z</time>
</trkpt>
<trkpt lat="37.093013763427734" lon="-118.4810562133789">
<ele>3388</ele>
<time>2016-10-11T22:43:48Z</time>
</trkpt>
<trkpt lat="37.093021392822266" lon="-118.48094177246094">
<ele>3389</ele>
<time>2016-10-11T22:43:57Z</time>
</trkpt>
<trkpt lat="37.09309768676758" lon="-118.4808578491211">
<ele>3391</ele>
<time>2016-10-11T22:44:07Z</time>
</trkpt>
<trkpt lat="37.09315490722656" lon="-118.48080444335938">
<ele>3386</ele>
<time>2016-10-11T22:44:27Z</time>
</trkpt>
<trkpt lat="37.0931510925293" lon="-118.48068237304688">
<ele>3380</ele>
<time>2016-10-11T22:44:38Z</time>
</trkpt>
<trkpt lat="37.09317398071289" lon="-118.48062896728516">
<ele>3382</ele>
<time>2016-10-11T22:44:44Z</time>
</trkpt>
<trkpt lat="37.09319305419922" lon="-118.48057556152344">
<ele>3384</ele>
<time>2016-10-11T22:44:57Z</time>
</trkpt>
<trkpt lat="37.09319305419922" lon="-118.48051452636719">
<ele>3382</ele>
<time>2016-10-11T22:45:03Z</time>
</trkpt>
<trkpt lat="37.093223571777344" lon="-118.48040008544922">
<ele>3381</ele>
<time>2016-10-11T22:45:16Z</time>
</trkpt>
<trkpt lat="37.09321594238281" lon="-118.48033142089844">
<ele>3384</ele>
<time>2016-10-11T22:45:38Z</time>
</trkpt>
<trkpt lat="37.09321594238281" lon="-118.48027038574219">
<ele>3385</ele>
<time>2016-10-11T22:45:54Z</time>
</trkpt>
<trkpt lat="37.09324645996094" lon="-118.480224609375">
<ele>3381</ele>
<time>2016-10-11T22:46:01Z</time>
</trkpt>
<trkpt lat="37.093231201171875" lon="-118.48017120361328">
<ele>3378</ele>
<time>2016-10-11T22:46:15Z</time>
</trkpt>
<trkpt lat="37.09321975708008" lon="-118.48007202148438">
<ele>3378</ele>
<time>2016-10-11T22:46:27Z</time>
</trkpt>
<trkpt lat="37.09327697753906" lon="-118.4799575805664">
<ele>3381</ele>
<time>2016-10-11T22:46:48Z</time>
</trkpt>
<trkpt lat="37.09331130981445" lon="-118.47990417480469">
<ele>3381</ele>
<time>2016-10-11T22:46:54Z</time>
</trkpt>
<trkpt lat="37.093353271484375" lon="-118.47987365722656">
<ele>3380</ele>
<time>2016-10-11T22:47:02Z</time>
</trkpt>
<trkpt lat="37.09339141845703" lon="-118.47982788085938">
<ele>3382</ele>
<time>2016-10-11T22:47:11Z</time>
</trkpt>
<trkpt lat="37.093406677246094" lon="-118.47977447509766">
<ele>3381</ele>
<time>2016-10-11T22:47:19Z</time>
</trkpt>
<trkpt lat="37.093421936035156" lon="-118.47969055175781">
<ele>3378</ele>
<time>2016-10-11T22:47:30Z</time>
</trkpt>
<trkpt lat="37.093467712402344" lon="-118.47969055175781">
<ele>3380</ele>
<time>2016-10-11T22:47:50Z</time>
</trkpt>
<trkpt lat="37.09349060058594" lon="-118.4796371459961">
<ele>3383</ele>
<time>2016-10-11T22:47:58Z</time>
</trkpt>
<trkpt lat="37.093528747558594" lon="-118.47959899902344">
<ele>3382</ele>
<time>2016-10-11T22:48:04Z</time>
</trkpt>
<trkpt lat="37.093544006347656" lon="-118.47954559326172">
<ele>3383</ele>
<time>2016-10-11T22:48:11Z</time>
</trkpt>
<trkpt lat="37.09357452392578" lon="-118.47943878173828">
<ele>3381</ele>
<time>2016-10-11T22:48:21Z</time>
</trkpt>
<trkpt lat="37.09359359741211" lon="-118.47938537597656">
<ele>3383</ele>
<time>2016-10-11T22:48:30Z</time>
</trkpt>
<trkpt lat="37.093631744384766" lon="-118.47933959960938">
<ele>3382</ele>
<time>2016-10-11T22:48:37Z</time>
</trkpt>
<trkpt lat="37.09367752075195" lon="-118.47933959960938">
<ele>3381</ele>
<time>2016-10-11T22:48:57Z</time>
</trkpt>
<trkpt lat="37.09372329711914" lon="-118.47930145263672">
<ele>3381</ele>
<time>2016-10-11T22:49:08Z</time>
</trkpt>
<trkpt lat="37.09377670288086" lon="-118.47920227050781">
<ele>3384</ele>
<time>2016-10-11T22:49:15Z</time>
</trkpt>
<trkpt lat="37.09381866455078" lon="-118.47917938232422">
<ele>3382</ele>
<time>2016-10-11T22:49:21Z</time>
</trkpt>
<trkpt lat="37.09384536743164" lon="-118.4791259765625">
<ele>3381</ele>
<time>2016-10-11T22:49:32Z</time>
</trkpt>
<trkpt lat="37.093894958496094" lon="-118.47913360595703">
<ele>3383</ele>
<time>2016-10-11T22:49:46Z</time>
</trkpt>
<trkpt lat="37.09400177001953" lon="-118.47914123535156">
<ele>3388</ele>
<time>2016-10-11T22:50:01Z</time>
</trkpt>
<trkpt lat="37.09403991699219" lon="-118.47904205322266">
<ele>3390</ele>
<time>2016-10-11T22:50:14Z</time>
</trkpt>
<trkpt lat="37.09407043457031" lon="-118.47898864746094">
<ele>3388</ele>
<time>2016-10-11T22:50:20Z</time>
</trkpt>
<trkpt lat="37.09408950805664" lon="-118.47891235351563">
<ele>3390</ele>
<time>2016-10-11T22:50:33Z</time>
</trkpt>
<trkpt lat="37.09407043457031" lon="-118.47879028320313">
<ele>3388</ele>
<time>2016-10-11T22:50:44Z</time>
</trkpt>
<trkpt lat="37.094051361083984" lon="-118.4787368774414">
<ele>3387</ele>
<time>2016-10-11T22:50:52Z</time>
</trkpt>
<trkpt lat="37.094058990478516" lon="-118.47867584228516">
<ele>3386</ele>
<time>2016-10-11T22:50:58Z</time>
</trkpt>
<trkpt lat="37.093997955322266" lon="-118.47865295410156">
<ele>3385</ele>
<time>2016-10-11T22:52:49Z</time>
</trkpt>
<trkpt lat="37.093955993652344" lon="-118.47863006591797">
<ele>3387</ele>
<time>2016-10-11T22:52:56Z</time>
</trkpt>
<trkpt lat="37.093910217285156" lon="-118.47854614257813">
<ele>3385</ele>
<time>2016-10-11T22:53:18Z</time>
</trkpt>
<trkpt lat="37.09389114379883" lon="-118.47847747802734">
<ele>3387</ele>
<time>2016-10-11T22:53:38Z</time>
</trkpt>
<trkpt lat="37.09392547607422" lon="-118.47842407226563">
<ele>3389</ele>
<time>2016-10-11T22:53:48Z</time>
</trkpt>
<trkpt lat="37.09402084350586" lon="-118.47842407226563">
<ele>3382</ele>
<time>2016-10-11T22:54:13Z</time>
</trkpt>
<trkpt lat="37.09406280517578" lon="-118.47840881347656">
<ele>3381</ele>
<time>2016-10-11T22:54:20Z</time>
</trkpt>
<trkpt lat="37.0941162109375" lon="-118.47842407226563">
<ele>3380</ele>
<time>2016-10-11T22:54:27Z</time>
</trkpt>
<trkpt lat="37.09416961669922" lon="-118.47843170166016">
<ele>3379</ele>
<time>2016-10-11T22:54:36Z</time>
</trkpt>
<trkpt lat="37.09421157836914" lon="-118.47838592529297">
<ele>3385</ele>
<time>2016-10-11T22:55:01Z</time>
</trkpt>
<trkpt lat="37.09425354003906" lon="-118.47833251953125">
<ele>3387</ele>
<time>2016-10-11T22:55:31Z</time>
</trkpt>
<trkpt lat="37.0942497253418" lon="-118.478271484375">
<ele>3384</ele>
<time>2016-10-11T22:55:40Z</time>
</trkpt>
<trkpt lat="37.09424591064453" lon="-118.47821044921875">
<ele>3383</ele>
<time>2016-10-11T22:55:46Z</time>
</trkpt>
<trkpt lat="37.094242095947266" lon="-118.4781494140625">
<ele>3382</ele>
<time>2016-10-11T22:55:54Z</time>
</trkpt>
<trkpt lat="37.094234466552734" lon="-118.47809600830078">
<ele>3378</ele>
<time>2016-10-11T22:56:07Z</time>
</trkpt>
<trkpt lat="37.09422302246094" lon="-118.47798919677734">
<ele>3376</ele>
<time>2016-10-11T22:56:28Z</time>
</trkpt>
<trkpt lat="37.09427261352539" lon="-118.47798919677734">
<ele>3377</ele>
<time>2016-10-11T22:56:49Z</time>
</trkpt>
<trkpt lat="37.09427261352539" lon="-118.47792053222656">
<ele>3380</ele>
<time>2016-10-11T22:56:56Z</time>
</trkpt>
<trkpt lat="37.09426498413086" lon="-118.47786712646484">
<ele>3381</ele>
<time>2016-10-11T22:57:02Z</time>
</trkpt>
<trkpt lat="37.094234466552734" lon="-118.47782135009766">
<ele>3381</ele>
<time>2016-10-11T22:57:10Z</time>
</trkpt>
<trkpt lat="37.09426498413086" lon="-118.47773742675781">
<ele>3392</ele>
<time>2016-10-11T22:57:46Z</time>
</trkpt>
<trkpt lat="37.09428405761719" lon="-118.4776840209961">
<ele>3388</ele>
<time>2016-10-11T22:57:52Z</time>
</trkpt>
<trkpt lat="37.094322204589844" lon="-118.47765350341797">
<ele>3391</ele>
<time>2016-10-11T22:58:00Z</time>
</trkpt>
<trkpt lat="37.094364166259766" lon="-118.47760772705078">
<ele>3390</ele>
<time>2016-10-11T22:58:06Z</time>
</trkpt>
<trkpt lat="37.09440612792969" lon="-118.47757720947266">
<ele>3389</ele>
<time>2016-10-11T22:58:13Z</time>
</trkpt>
<trkpt lat="37.09446716308594" lon="-118.4775161743164">
<ele>3385</ele>
<time>2016-10-11T22:58:36Z</time>
</trkpt>
<trkpt lat="37.094566345214844" lon="-118.47754669189453">
<ele>3388</ele>
<time>2016-10-11T22:58:46Z</time>
</trkpt>
<trkpt lat="37.09464645385742" lon="-118.47760009765625">
<ele>3390</ele>
<time>2016-10-11T22:58:56Z</time>
</trkpt>
<trkpt lat="37.09469223022461" lon="-118.47762298583984">
<ele>3387</ele>
<time>2016-10-11T22:59:05Z</time>
</trkpt>
<trkpt lat="37.0947380065918" lon="-118.47762298583984">
<ele>3385</ele>
<time>2016-10-11T22:59:11Z</time>
</trkpt>
<trkpt lat="37.09476089477539" lon="-118.47756958007813">
<ele>3382</ele>
<time>2016-10-11T22:59:17Z</time>
</trkpt>
<trkpt lat="37.094810485839844" lon="-118.4775619506836">
<ele>3374</ele>
<time>2016-10-11T22:59:52Z</time>
</trkpt>
<trkpt lat="37.09489059448242" lon="-118.4775390625">
<ele>3378</ele>
<time>2016-10-11T23:00:10Z</time>
</trkpt>
<trkpt lat="37.094932556152344" lon="-118.47759246826172">
<ele>3383</ele>
<time>2016-10-11T23:00:30Z</time>
</trkpt>
<trkpt lat="37.09497833251953" lon="-118.47759246826172">
<ele>3379</ele>
<time>2016-10-11T23:00:39Z</time>
</trkpt>
<trkpt lat="37.09502410888672" lon="-118.47762298583984">
<ele>3378</ele>
<time>2016-10-11T23:00:45Z</time>
</trkpt>
<trkpt lat="37.09505081176758" lon="-118.47766876220703">
<ele>3379</ele>
<time>2016-10-11T23:00:53Z</time>
</trkpt>
<trkpt lat="37.095096588134766" lon="-118.47765350341797">
<ele>3374</ele>
<time>2016-10-11T23:01:00Z</time>
</trkpt>
<trkpt lat="37.09519577026367" lon="-118.4776840209961">
<ele>3375</ele>
<time>2016-10-11T23:01:12Z</time>
</trkpt>
<trkpt lat="37.095237731933594" lon="-118.47769165039063">
<ele>3371</ele>
<time>2016-10-11T23:01:53Z</time>
</trkpt>
<trkpt lat="37.09528732299805" lon="-118.47767639160156">
<ele>3364</ele>
<time>2016-10-11T23:02:08Z</time>
</trkpt>
<trkpt lat="37.0953254699707" lon="-118.47764587402344">
<ele>3361</ele>
<time>2016-10-11T23:02:14Z</time>
</trkpt>
<trkpt lat="37.09539031982422" lon="-118.47764587402344">
<ele>3357</ele>
<time>2016-10-11T23:02:21Z</time>
</trkpt>
<trkpt lat="37.09543991088867" lon="-118.47764587402344">
<ele>3352</ele>
<time>2016-10-11T23:02:41Z</time>
</trkpt>
<trkpt lat="37.09553527832031" lon="-118.47766876220703">
<ele>3357</ele>
<time>2016-10-11T23:02:52Z</time>
</trkpt>
<trkpt lat="37.09560775756836" lon="-118.47760772705078">
<ele>3360</ele>
<time>2016-10-11T23:03:08Z</time>
</trkpt>
<trkpt lat="37.09564971923828" lon="-118.4775619506836">
<ele>3353</ele>
<time>2016-10-11T23:03:15Z</time>
</trkpt>
<trkpt lat="37.095703125" lon="-118.4775390625">
<ele>3352</ele>
<time>2016-10-11T23:03:21Z</time>
</trkpt>
<trkpt lat="37.09568786621094" lon="-118.47747802734375">
<ele>3355</ele>
<time>2016-10-11T23:03:36Z</time>
</trkpt>
<trkpt lat="37.09568405151367" lon="-118.4774169921875">
<ele>3355</ele>
<time>2016-10-11T23:03:43Z</time>
</trkpt>
<trkpt lat="37.09571838378906" lon="-118.47737884521484">
<ele>3354</ele>
<time>2016-10-11T23:03:52Z</time>
</trkpt>
<trkpt lat="37.09577941894531" lon="-118.47730255126953">
<ele>3353</ele>
<time>2016-10-11T23:04:20Z</time>
</trkpt>
<trkpt lat="37.09583282470703" lon="-118.47731018066406">
<ele>3352</ele>
<time>2016-10-11T23:04:27Z</time>
</trkpt>
<trkpt lat="37.095909118652344" lon="-118.47724151611328">
<ele>3348</ele>
<time>2016-10-11T23:04:37Z</time>
</trkpt>
<trkpt lat="37.095947265625" lon="-118.47720336914063">
<ele>3350</ele>
<time>2016-10-11T23:04:43Z</time>
</trkpt>
<trkpt lat="37.095977783203125" lon="-118.47715759277344">
<ele>3351</ele>
<time>2016-10-11T23:04:50Z</time>
</trkpt>
<trkpt lat="37.096065521240234" lon="-118.47712707519531">
<ele>3350</ele>
<time>2016-10-11T23:05:01Z</time>
</trkpt>
<trkpt lat="37.096107482910156" lon="-118.47709655761719">
<ele>3351</ele>
<time>2016-10-11T23:05:08Z</time>
</trkpt>
<trkpt lat="37.096134185791016" lon="-118.47703552246094">
<ele>3350</ele>
<time>2016-10-11T23:05:17Z</time>
</trkpt>
<trkpt lat="37.096195220947266" lon="-118.47698974609375">
<ele>3345</ele>
<time>2016-10-11T23:05:31Z</time>
</trkpt>
<trkpt lat="37.09623718261719" lon="-118.47696685791016">
<ele>3348</ele>
<time>2016-10-11T23:05:39Z</time>
</trkpt>
<trkpt lat="37.096282958984375" lon="-118.47693634033203">
<ele>3348</ele>
<time>2016-10-11T23:05:46Z</time>
</trkpt>
<trkpt lat="37.09634780883789" lon="-118.47684478759766">
<ele>3350</ele>
<time>2016-10-11T23:06:02Z</time>
</trkpt>
<trkpt lat="37.09638977050781" lon="-118.47681427001953">
<ele>3351</ele>
<time>2016-10-11T23:06:09Z</time>
</trkpt>
<trkpt lat="37.09646224975586" lon="-118.47675323486328">
<ele>3350</ele>
<time>2016-10-11T23:06:21Z</time>
</trkpt>
<trkpt lat="37.09648132324219" lon="-118.47669219970703">
<ele>3345</ele>
<time>2016-10-11T23:06:27Z</time>
</trkpt>
<trkpt lat="37.09652328491211" lon="-118.47666931152344">
<ele>3347</ele>
<time>2016-10-11T23:06:39Z</time>
</trkpt>
<trkpt lat="37.0965690612793" lon="-118.47667694091797">
<ele>3340</ele>
<time>2016-10-11T23:06:52Z</time>
</trkpt>
<trkpt lat="37.09661865234375" lon="-118.47666931152344">
<ele>3337</ele>
<time>2016-10-11T23:06:59Z</time>
</trkpt>
<trkpt lat="37.096649169921875" lon="-118.47662353515625">
<ele>3334</ele>
<time>2016-10-11T23:07:07Z</time>
</trkpt>
<trkpt lat="37.09669876098633" lon="-118.47661590576172">
<ele>3340</ele>
<time>2016-10-11T23:07:20Z</time>
</trkpt>
<trkpt lat="37.09675598144531" lon="-118.47663116455078">
<ele>3340</ele>
<time>2016-10-11T23:07:28Z</time>
</trkpt>
<trkpt lat="37.0968017578125" lon="-118.47665405273438">
<ele>3341</ele>
<time>2016-10-11T23:07:34Z</time>
</trkpt>
<trkpt lat="37.09684753417969" lon="-118.47665405273438">
<ele>3335</ele>
<time>2016-10-11T23:07:43Z</time>
</trkpt>
<trkpt lat="37.09688949584961" lon="-118.47662353515625">
<ele>3332</ele>
<time>2016-10-11T23:07:49Z</time>
</trkpt>
<trkpt lat="37.09693145751953" lon="-118.47660064697266">
<ele>3330</ele>
<time>2016-10-11T23:08:13Z</time>
</trkpt>
<trkpt lat="37.09697723388672" lon="-118.47653198242188">
<ele>3328</ele>
<time>2016-10-11T23:08:29Z</time>
</trkpt>
<trkpt lat="37.09707260131836" lon="-118.47653198242188">
<ele>3324</ele>
<time>2016-10-11T23:08:37Z</time>
</trkpt>
<trkpt lat="37.09711837768555" lon="-118.4765396118164">
<ele>3323</ele>
<time>2016-10-11T23:08:43Z</time>
</trkpt>
<trkpt lat="37.097164154052734" lon="-118.47652435302734">
<ele>3326</ele>
<time>2016-10-11T23:08:49Z</time>
</trkpt>
<trkpt lat="37.09720230102539" lon="-118.47647857666016">
<ele>3326</ele>
<time>2016-10-11T23:09:12Z</time>
</trkpt>
<trkpt lat="37.0972900390625" lon="-118.47645568847656">
<ele>3323</ele>
<time>2016-10-11T23:09:19Z</time>
</trkpt>
<trkpt lat="37.09742736816406" lon="-118.47642517089844">
<ele>3323</ele>
<time>2016-10-11T23:09:28Z</time>
</trkpt>
<trkpt lat="37.09752655029297" lon="-118.4764175415039">
<ele>3326</ele>
<time>2016-10-11T23:09:39Z</time>
</trkpt>
<trkpt lat="37.09762191772461" lon="-118.4764633178711">
<ele>3325</ele>
<time>2016-10-11T23:09:50Z</time>
</trkpt>
<trkpt lat="37.09767532348633" lon="-118.47647094726563">
<ele>3323</ele>
<time>2016-10-11T23:09:57Z</time>
</trkpt>
<trkpt lat="37.0977783203125" lon="-118.47644805908203">
<ele>3323</ele>
<time>2016-10-11T23:10:05Z</time>
</trkpt>
<trkpt lat="37.09782028198242" lon="-118.47642517089844">
<ele>3319</ele>
<time>2016-10-11T23:10:11Z</time>
</trkpt>
<trkpt lat="37.097896575927734" lon="-118.47637939453125">
<ele>3318</ele>
<time>2016-10-11T23:10:39Z</time>
</trkpt>
<trkpt lat="37.09794235229492" lon="-118.47634887695313">
<ele>3317</ele>
<time>2016-10-11T23:10:53Z</time>
</trkpt>
<trkpt lat="37.097938537597656" lon="-118.47628784179688">
<ele>3316</ele>
<time>2016-10-11T23:11:08Z</time>
</trkpt>
<trkpt lat="37.0979118347168" lon="-118.47622680664063">
<ele>3319</ele>
<time>2016-10-11T23:11:14Z</time>
</trkpt>
<trkpt lat="37.09796142578125" lon="-118.47615051269531">
<ele>3320</ele>
<time>2016-10-11T23:11:21Z</time>
</trkpt>
<trkpt lat="37.0980110168457" lon="-118.47616577148438">
<ele>3320</ele>
<time>2016-10-11T23:11:31Z</time>
</trkpt>
<trkpt lat="37.09811019897461" lon="-118.47618103027344">
<ele>3324</ele>
<time>2016-10-11T23:11:40Z</time>
</trkpt>
<trkpt lat="37.09811019897461" lon="-118.47611999511719">
<ele>3322</ele>
<time>2016-10-11T23:11:52Z</time>
</trkpt>
<trkpt lat="37.098148345947266" lon="-118.47608947753906">
<ele>3321</ele>
<time>2016-10-11T23:12:03Z</time>
</trkpt>
<trkpt lat="37.09819030761719" lon="-118.47606658935547">
<ele>3321</ele>
<time>2016-10-11T23:12:14Z</time>
</trkpt>
<trkpt lat="37.09812927246094" lon="-118.47608184814453">
<ele>3315</ele>
<time>2016-10-11T23:12:33Z</time>
</trkpt>
<trkpt lat="37.09804916381836" lon="-118.47602081298828">
<ele>3318</ele>
<time>2016-10-11T23:12:40Z</time>
</trkpt>
<trkpt lat="37.09800338745117" lon="-118.47599792480469">
<ele>3316</ele>
<time>2016-10-11T23:12:50Z</time>
</trkpt>
<trkpt lat="37.098079681396484" lon="-118.47602844238281">
<ele>3319</ele>
<time>2016-10-11T23:13:30Z</time>
</trkpt>
<trkpt lat="37.09809875488281" lon="-118.4759750366211">
<ele>3310</ele>
<time>2016-10-11T23:13:47Z</time>
</trkpt>
<trkpt lat="37.09815216064453" lon="-118.47595977783203">
<ele>3310</ele>
<time>2016-10-11T23:13:54Z</time>
</trkpt>
<trkpt lat="37.098243713378906" lon="-118.4759521484375">
<ele>3309</ele>
<time>2016-10-11T23:14:06Z</time>
</trkpt>
<trkpt lat="37.098297119140625" lon="-118.47596740722656">
<ele>3310</ele>
<time>2016-10-11T23:14:15Z</time>
</trkpt>
<trkpt lat="37.0982780456543" lon="-118.47589111328125">
<ele>3311</ele>
<time>2016-10-11T23:14:51Z</time>
</trkpt>
<trkpt lat="37.098243713378906" lon="-118.4758529663086">
<ele>3308</ele>
<time>2016-10-11T23:15:01Z</time>
</trkpt>
<trkpt lat="37.09828567504883" lon="-118.47582244873047">
<ele>3304</ele>
<time>2016-10-11T23:15:11Z</time>
</trkpt>
<trkpt lat="37.09835433959961" lon="-118.47579956054688">
<ele>3303</ele>
<time>2016-10-11T23:15:24Z</time>
</trkpt>
<trkpt lat="37.09833908081055" lon="-118.47574615478516">
<ele>3303</ele>
<time>2016-10-11T23:16:19Z</time>
</trkpt>
<trkpt lat="37.09828567504883" lon="-118.47575378417969">
<ele>3304</ele>
<time>2016-10-11T23:16:37Z</time>
</trkpt>
<trkpt lat="37.09827423095703" lon="-118.47570037841797">
<ele>3302</ele>
<time>2016-10-11T23:16:47Z</time>
</trkpt>
<trkpt lat="37.09822463989258" lon="-118.47567749023438">
<ele>3300</ele>
<time>2016-10-11T23:16:53Z</time>
</trkpt>
<trkpt lat="37.098167419433594" lon="-118.4755859375">
<ele>3299</ele>
<time>2016-10-11T23:17:07Z</time>
</trkpt>
<trkpt lat="37.098148345947266" lon="-118.47553253173828">
<ele>3302</ele>
<time>2016-10-11T23:17:14Z</time>
</trkpt>
<trkpt lat="37.09819412231445" lon="-118.47552490234375">
<ele>3299</ele>
<time>2016-10-11T23:17:32Z</time>
</trkpt>
<trkpt lat="37.09823989868164" lon="-118.47554016113281">
<ele>3297</ele>
<time>2016-10-11T23:17:38Z</time>
</trkpt>
<trkpt lat="37.09827423095703" lon="-118.47550964355469">
<ele>3297</ele>
<time>2016-10-11T23:17:55Z</time>
</trkpt>
<trkpt lat="37.09821319580078" lon="-118.47554779052734">
<ele>3301</ele>
<time>2016-10-11T23:18:35Z</time>
</trkpt>
<trkpt lat="37.098167419433594" lon="-118.47551727294922">
<ele>3298</ele>
<time>2016-10-11T23:18:41Z</time>
</trkpt>
<trkpt lat="37.098121643066406" lon="-118.47554016113281">
<ele>3300</ele>
<time>2016-10-11T23:18:56Z</time>
</trkpt>
<trkpt lat="37.09816360473633" lon="-118.4755630493164">
<ele>3296</ele>
<time>2016-10-11T23:19:10Z</time>
</trkpt>
<trkpt lat="37.098209381103516" lon="-118.47557830810547">
<ele>3301</ele>
<time>2016-10-11T23:19:17Z</time>
</trkpt>
<trkpt lat="37.09824752807617" lon="-118.47566986083984">
<ele>3307</ele>
<time>2016-10-11T23:19:36Z</time>
</trkpt>
<trkpt lat="37.09828567504883" lon="-118.4757080078125">
<ele>3305</ele>
<time>2016-10-11T23:19:46Z</time>
</trkpt>
<trkpt lat="37.09832000732422" lon="-118.47574615478516">
<ele>3310</ele>
<time>2016-10-11T23:19:56Z</time>
</trkpt>
<trkpt lat="37.09830856323242" lon="-118.4758071899414">
<ele>3311</ele>
<time>2016-10-11T23:20:05Z</time>
</trkpt>
<trkpt lat="37.0982666015625" lon="-118.47588348388672">
<ele>3319</ele>
<time>2016-10-11T23:20:21Z</time>
</trkpt>
<trkpt lat="37.09830093383789" lon="-118.47599029541016">
<ele>3316</ele>
<time>2016-10-11T23:20:30Z</time>
</trkpt>
<trkpt lat="37.09833908081055" lon="-118.47603607177734">
<ele>3315</ele>
<time>2016-10-11T23:20:36Z</time>
</trkpt>
<trkpt lat="37.09837341308594" lon="-118.47608184814453">
<ele>3311</ele>
<time>2016-10-11T23:21:01Z</time>
</trkpt>
<trkpt lat="37.09842300415039" lon="-118.47605895996094">
<ele>3308</ele>
<time>2016-10-11T23:21:08Z</time>
</trkpt>
<trkpt lat="37.09846878051758" lon="-118.4760971069336">
<ele>3312</ele>
<time>2016-10-11T23:21:21Z</time>
</trkpt>
<trkpt lat="37.09846878051758" lon="-118.47603607177734">
<ele>3308</ele>
<time>2016-10-11T23:21:30Z</time>
</trkpt>
<trkpt lat="37.09845733642578" lon="-118.47596740722656">
<ele>3305</ele>
<time>2016-10-11T23:21:36Z</time>
</trkpt>
<trkpt lat="37.09849548339844" lon="-118.47600555419922">
<ele>3299</ele>
<time>2016-10-11T23:21:56Z</time>
</trkpt>
<trkpt lat="37.09853744506836" lon="-118.47604370117188">
<ele>3300</ele>
<time>2016-10-11T23:23:02Z</time>
</trkpt>
<trkpt lat="37.09857177734375" lon="-118.47607421875">
<ele>3301</ele>
<time>2016-10-11T23:23:20Z</time>
</trkpt>
<trkpt lat="37.09853744506836" lon="-118.47603607177734">
<ele>3299</ele>
<time>2016-10-11T23:24:12Z</time>
</trkpt>
<trkpt lat="37.09852600097656" lon="-118.4759750366211">
<ele>3297</ele>
<time>2016-10-11T23:24:19Z</time>
</trkpt>
<trkpt lat="37.098567962646484" lon="-118.47590637207031">
<ele>3297</ele>
<time>2016-10-11T23:24:29Z</time>
</trkpt>
<trkpt lat="37.09856033325195" lon="-118.4758529663086">
<ele>3300</ele>
<time>2016-10-11T23:25:02Z</time>
</trkpt>
<trkpt lat="37.09860610961914" lon="-118.47584533691406">
<ele>3300</ele>
<time>2016-10-11T23:25:20Z</time>
</trkpt>
<trkpt lat="37.098628997802734" lon="-118.47589111328125">
<ele>3298</ele>
<time>2016-10-11T23:25:35Z</time>
</trkpt>
<trkpt lat="37.098655700683594" lon="-118.47594451904297">
<ele>3293</ele>
<time>2016-10-11T23:26:00Z</time>
</trkpt>
<trkpt lat="37.098697662353516" lon="-118.47587585449219">
<ele>3287</ele>
<time>2016-10-11T23:26:29Z</time>
</trkpt>
<trkpt lat="37.098724365234375" lon="-118.475830078125">
<ele>3281</ele>
<time>2016-10-11T23:26:52Z</time>
</trkpt>
<trkpt lat="37.0987548828125" lon="-118.47577667236328">
<ele>3284</ele>
<time>2016-10-11T23:27:07Z</time>
</trkpt>
<trkpt lat="37.09880828857422" lon="-118.47571563720703">
<ele>3276</ele>
<time>2016-10-11T23:28:05Z</time>
</trkpt>
<trkpt lat="37.098838806152344" lon="-118.47566986083984">
<ele>3275</ele>
<time>2016-10-11T23:28:15Z</time>
</trkpt>
<trkpt lat="37.09889602661133" lon="-118.47557830810547">
<ele>3263</ele>
<time>2016-10-11T23:29:02Z</time>
</trkpt>
<trkpt lat="37.09893035888672" lon="-118.47553253173828">
<ele>3265</ele>
<time>2016-10-11T23:29:11Z</time>
</trkpt>
<trkpt lat="37.098873138427734" lon="-118.47550201416016">
<ele>3266</ele>
<time>2016-10-11T23:29:25Z</time>
</trkpt>
<trkpt lat="37.09886932373047" lon="-118.4754409790039">
<ele>3269</ele>
<time>2016-10-11T23:29:42Z</time>
</trkpt>
<trkpt lat="37.098915100097656" lon="-118.47539520263672">
<ele>3262</ele>
<time>2016-10-11T23:30:00Z</time>
</trkpt>
<trkpt lat="37.098960876464844" lon="-118.4753189086914">
<ele>3255</ele>
<time>2016-10-11T23:30:36Z</time>
</trkpt>
<trkpt lat="37.098976135253906" lon="-118.47525787353516">
<ele>3254</ele>
<time>2016-10-11T23:30:44Z</time>
</trkpt>
<trkpt lat="37.09901809692383" lon="-118.47523498535156">
<ele>3250</ele>
<time>2016-10-11T23:30:59Z</time>
</trkpt>
<trkpt lat="37.099056243896484" lon="-118.4751968383789">
<ele>3247</ele>
<time>2016-10-11T23:31:07Z</time>
</trkpt>
<trkpt lat="37.0991096496582" lon="-118.47513580322266">
<ele>3240</ele>
<time>2016-10-11T23:31:40Z</time>
</trkpt>
<trkpt lat="37.09907531738281" lon="-118.47509765625">
<ele>3239</ele>
<time>2016-10-11T23:31:59Z</time>
</trkpt>
<trkpt lat="37.0991096496582" lon="-118.47505950927734">
<ele>3243</ele>
<time>2016-10-11T23:32:05Z</time>
</trkpt>
<trkpt lat="37.09910583496094" lon="-118.47496795654297">
<ele>3238</ele>
<time>2016-10-11T23:32:33Z</time>
</trkpt>
<trkpt lat="37.099151611328125" lon="-118.47496032714844">
<ele>3232</ele>
<time>2016-10-11T23:33:01Z</time>
</trkpt>
<trkpt lat="37.09918975830078" lon="-118.47492218017578">
<ele>3231</ele>
<time>2016-10-11T23:33:14Z</time>
</trkpt>
<trkpt lat="37.09926986694336" lon="-118.4749526977539">
<ele>3230</ele>
<time>2016-10-11T23:33:27Z</time>
</trkpt>
<trkpt lat="37.09931182861328" lon="-118.47496795654297">
<ele>3229</ele>
<time>2016-10-11T23:33:41Z</time>
</trkpt>
<trkpt lat="37.099361419677734" lon="-118.47496032714844">
<ele>3229</ele>
<time>2016-10-11T23:33:49Z</time>
</trkpt>
<trkpt lat="37.099334716796875" lon="-118.47491455078125">
<ele>3220</ele>
<time>2016-10-11T23:34:07Z</time>
</trkpt>
<trkpt lat="37.099388122558594" lon="-118.47486877441406">
<ele>3218</ele>
<time>2016-10-11T23:34:38Z</time>
</trkpt>
<trkpt lat="37.099422454833984" lon="-118.4748306274414">
<ele>3217</ele>
<time>2016-10-11T23:34:50Z</time>
</trkpt>
<trkpt lat="37.09938430786133" lon="-118.47479248046875">
<ele>3215</ele>
<time>2016-10-11T23:35:12Z</time>
</trkpt>
<trkpt lat="37.09933090209961" lon="-118.47471618652344">
<ele>3213</ele>
<time>2016-10-11T23:35:21Z</time>
</trkpt>
<trkpt lat="37.0993766784668" lon="-118.47472381591797">
<ele>3219</ele>
<time>2016-10-11T23:35:44Z</time>
</trkpt>
<trkpt lat="37.099430084228516" lon="-118.47472381591797">
<ele>3218</ele>
<time>2016-10-11T23:35:51Z</time>
</trkpt>
<trkpt lat="37.09938049316406" lon="-118.4747085571289">
<ele>3210</ele>
<time>2016-10-11T23:36:09Z</time>
</trkpt>
<trkpt lat="37.09935760498047" lon="-118.47465515136719">
<ele>3210</ele>
<time>2016-10-11T23:36:20Z</time>
</trkpt>
<trkpt lat="37.099308013916016" lon="-118.47462463378906">
<ele>3204</ele>
<time>2016-10-11T23:36:45Z</time>
</trkpt>
<trkpt lat="37.09931564331055" lon="-118.47468566894531">
<ele>3204</ele>
<time>2016-10-11T23:36:54Z</time>
</trkpt>
<trkpt lat="37.09935760498047" lon="-118.47466278076172">
<ele>3204</ele>
<time>2016-10-11T23:37:18Z</time>
</trkpt>
<trkpt lat="37.09933090209961" lon="-118.4745864868164">
<ele>3207</ele>
<time>2016-10-11T23:38:21Z</time>
</trkpt>
<trkpt lat="37.09937286376953" lon="-118.47455596923828">
<ele>3207</ele>
<time>2016-10-11T23:38:31Z</time>
</trkpt>
<trkpt lat="37.099422454833984" lon="-118.47454071044922">
<ele>3203</ele>
<time>2016-10-11T23:38:52Z</time>
</trkpt>
<trkpt lat="37.099464416503906" lon="-118.47451782226563">
<ele>3202</ele>
<time>2016-10-11T23:39:07Z</time>
</trkpt>
<trkpt lat="37.09950637817383" lon="-118.47444152832031">
<ele>3188</ele>
<time>2016-10-11T23:39:41Z</time>
</trkpt>
<trkpt lat="37.09952163696289" lon="-118.4743881225586">
<ele>3192</ele>
<time>2016-10-11T23:39:54Z</time>
</trkpt>
<trkpt lat="37.09957504272461" lon="-118.47440338134766">
<ele>3191</ele>
<time>2016-10-11T23:40:16Z</time>
</trkpt>
<trkpt lat="37.09965896606445" lon="-118.47438049316406">
<ele>3187</ele>
<time>2016-10-11T23:40:28Z</time>
</trkpt>
<trkpt lat="37.09970474243164" lon="-118.474365234375">
<ele>3186</ele>
<time>2016-10-11T23:40:38Z</time>
</trkpt>
<trkpt lat="37.09973907470703" lon="-118.47441101074219">
<ele>3177</ele>
<time>2016-10-11T23:40:50Z</time>
</trkpt>
<trkpt lat="37.09981155395508" lon="-118.4743423461914">
<ele>3175</ele>
<time>2016-10-11T23:41:21Z</time>
</trkpt>
<trkpt lat="37.0998420715332" lon="-118.47429656982422">
<ele>3172</ele>
<time>2016-10-11T23:41:30Z</time>
</trkpt>
<trkpt lat="37.09988784790039" lon="-118.47431182861328">
<ele>3174</ele>
<time>2016-10-11T23:41:39Z</time>
</trkpt>
<trkpt lat="37.09987258911133" lon="-118.47425842285156">
<ele>3168</ele>
<time>2016-10-11T23:41:55Z</time>
</trkpt>
<trkpt lat="37.0998649597168" lon="-118.47419738769531">
<ele>3166</ele>
<time>2016-10-11T23:42:04Z</time>
</trkpt>
<trkpt lat="37.099830627441406" lon="-118.47415924072266">
<ele>3163</ele>
<time>2016-10-11T23:42:11Z</time>
</trkpt>
<trkpt lat="37.099788665771484" lon="-118.47408294677734">
<ele>3160</ele>
<time>2016-10-11T23:42:33Z</time>
</trkpt>
<trkpt lat="37.09976577758789" lon="-118.47402954101563">
<ele>3157</ele>
<time>2016-10-11T23:42:39Z</time>
</trkpt>
<trkpt lat="37.09972381591797" lon="-118.4739990234375">
<ele>3158</ele>
<time>2016-10-11T23:42:45Z</time>
</trkpt>
<trkpt lat="37.09965133666992" lon="-118.47393035888672">
<ele>3157</ele>
<time>2016-10-11T23:43:01Z</time>
</trkpt>
<trkpt lat="37.0996208190918" lon="-118.47386169433594">
<ele>3160</ele>
<time>2016-10-11T23:43:16Z</time>
</trkpt>
<trkpt lat="37.09956741333008" lon="-118.47378540039063">
<ele>3151</ele>
<time>2016-10-11T23:44:00Z</time>
</trkpt>
<trkpt lat="37.09955596923828" lon="-118.47372436523438">
<ele>3152</ele>
<time>2016-10-11T23:44:06Z</time>
</trkpt>
<trkpt lat="37.099510192871094" lon="-118.47370910644531">
<ele>3153</ele>
<time>2016-10-11T23:44:12Z</time>
</trkpt>
<trkpt lat="37.09947967529297" lon="-118.4736328125">
<ele>3144</ele>
<time>2016-10-11T23:44:58Z</time>
</trkpt>
<trkpt lat="37.099491119384766" lon="-118.47356414794922">
<ele>3138</ele>
<time>2016-10-11T23:45:12Z</time>
</trkpt>
<trkpt lat="37.09954071044922" lon="-118.47355651855469">
<ele>3136</ele>
<time>2016-10-11T23:45:19Z</time>
</trkpt>
<trkpt lat="37.09951400756836" lon="-118.47350311279297">
<ele>3131</ele>
<time>2016-10-11T23:45:45Z</time>
</trkpt>
<trkpt lat="37.099517822265625" lon="-118.47343444824219">
<ele>3131</ele>
<time>2016-10-11T23:45:54Z</time>
</trkpt>
<trkpt lat="37.099517822265625" lon="-118.47337341308594">
<ele>3131</ele>
<time>2016-10-11T23:46:08Z</time>
</trkpt>
<trkpt lat="37.099483489990234" lon="-118.47333526611328">
<ele>3126</ele>
<time>2016-10-11T23:46:16Z</time>
</trkpt>
<trkpt lat="37.099464416503906" lon="-118.47322845458984">
<ele>3126</ele>
<time>2016-10-11T23:46:25Z</time>
</trkpt>
<trkpt lat="37.09946823120117" lon="-118.4731674194336">
<ele>3129</ele>
<time>2016-10-11T23:46:35Z</time>
</trkpt>
<trkpt lat="37.09946823120117" lon="-118.47309875488281">
<ele>3123</ele>
<time>2016-10-11T23:46:49Z</time>
</trkpt>
<trkpt lat="37.099491119384766" lon="-118.47303009033203">
<ele>3123</ele>
<time>2016-10-11T23:46:55Z</time>
</trkpt>
<trkpt lat="37.09945297241211" lon="-118.47306060791016">
<ele>3128</ele>
<time>2016-10-11T23:47:08Z</time>
</trkpt>
<trkpt lat="37.09935760498047" lon="-118.4731216430664">
<ele>3127</ele>
<time>2016-10-11T23:47:21Z</time>
</trkpt>
<trkpt lat="37.09926986694336" lon="-118.47309112548828">
<ele>3137</ele>
<time>2016-10-11T23:47:29Z</time>
</trkpt>
<trkpt lat="37.09926986694336" lon="-118.47315216064453">
<ele>3126</ele>
<time>2016-10-11T23:47:44Z</time>
</trkpt>
<trkpt lat="37.099220275878906" lon="-118.47319793701172">
<ele>3122</ele>
<time>2016-10-11T23:48:06Z</time>
</trkpt>
<trkpt lat="37.099185943603516" lon="-118.47315216064453">
<ele>3131</ele>
<time>2016-10-11T23:48:49Z</time>
</trkpt>
<trkpt lat="37.09923553466797" lon="-118.47313690185547">
<ele>3123</ele>
<time>2016-10-11T23:48:59Z</time>
</trkpt>
<trkpt lat="37.09928894042969" lon="-118.47315216064453">
<ele>3125</ele>
<time>2016-10-11T23:49:16Z</time>
</trkpt>
<trkpt lat="37.09940719604492" lon="-118.4731216430664">
<ele>3127</ele>
<time>2016-10-11T23:49:28Z</time>
</trkpt>
<trkpt lat="37.099456787109375" lon="-118.47306060791016">
<ele>3132</ele>
<time>2016-10-11T23:49:45Z</time>
</trkpt>
<trkpt lat="37.09946060180664" lon="-118.47293853759766">
<ele>3124</ele>
<time>2016-10-11T23:49:57Z</time>
</trkpt>
<trkpt lat="37.09942626953125" lon="-118.472900390625">
<ele>3120</ele>
<time>2016-10-11T23:50:07Z</time>
</trkpt>
<trkpt lat="37.099449157714844" lon="-118.47284698486328">
<ele>3120</ele>
<time>2016-10-11T23:50:16Z</time>
</trkpt>
<trkpt lat="37.09946823120117" lon="-118.4727783203125">
<ele>3119</ele>
<time>2016-10-11T23:50:36Z</time>
</trkpt>
<trkpt lat="37.09944534301758" lon="-118.47272491455078">
<ele>3120</ele>
<time>2016-10-11T23:50:45Z</time>
</trkpt>
<trkpt lat="37.09941482543945" lon="-118.47267150878906">
<ele>3119</ele>
<time>2016-10-11T23:50:54Z</time>
</trkpt>
<trkpt lat="37.099456787109375" lon="-118.4727554321289">
<ele>3111</ele>
<time>2016-10-11T23:51:32Z</time>
</trkpt>
<trkpt lat="37.09949493408203" lon="-118.47279357910156">
<ele>3112</ele>
<time>2016-10-11T23:51:39Z</time>
</trkpt>
<trkpt lat="37.09949493408203" lon="-118.47284698486328">
<ele>3113</ele>
<time>2016-10-11T23:51:50Z</time>
</trkpt>
<trkpt lat="37.09946060180664" lon="-118.47288513183594">
<ele>3122</ele>
<time>2016-10-11T23:51:59Z</time>
</trkpt>
<trkpt lat="37.09947204589844" lon="-118.47295379638672">
<ele>3118</ele>
<time>2016-10-11T23:52:20Z</time>
</trkpt>
<trkpt lat="37.0994873046875" lon="-118.4730224609375">
<ele>3118</ele>
<time>2016-10-11T23:52:29Z</time>
</trkpt>
<trkpt lat="37.09946823120117" lon="-118.47311401367188">
<ele>3123</ele>
<time>2016-10-11T23:52:40Z</time>
</trkpt>
<trkpt lat="37.099422454833984" lon="-118.47310638427734">
<ele>3125</ele>
<time>2016-10-11T23:52:55Z</time>
</trkpt>
<trkpt lat="37.09933853149414" lon="-118.47306060791016">
<ele>3118</ele>
<time>2016-10-11T23:53:10Z</time>
</trkpt>
<trkpt lat="37.099342346191406" lon="-118.47298431396484">
<ele>3117</ele>
<time>2016-10-11T23:53:31Z</time>
</trkpt>
<trkpt lat="37.09930419921875" lon="-118.47295379638672">
<ele>3122</ele>
<time>2016-10-11T23:53:41Z</time>
</trkpt>
<trkpt lat="37.09935760498047" lon="-118.47295379638672">
<ele>3124</ele>
<time>2016-10-11T23:53:55Z</time>
</trkpt>
<trkpt lat="37.099342346191406" lon="-118.47289276123047">
<ele>3124</ele>
<time>2016-10-11T23:54:07Z</time>
</trkpt>
<trkpt lat="37.099300384521484" lon="-118.47285461425781">
<ele>3123</ele>
<time>2016-10-11T23:54:15Z</time>
</trkpt>
<trkpt lat="37.09932327270508" lon="-118.47279357910156">
<ele>3117</ele>
<time>2016-10-11T23:54:50Z</time>
</trkpt>
<trkpt lat="37.099308013916016" lon="-118.47274017333984">
<ele>3108</ele>
<time>2016-10-11T23:55:10Z</time>
</trkpt>
<trkpt lat="37.0992431640625" lon="-118.47271728515625">
<ele>3109</ele>
<time>2016-10-11T23:55:46Z</time>
</trkpt>
<trkpt lat="37.09916305541992" lon="-118.47264862060547">
<ele>3105</ele>
<time>2016-10-11T23:55:57Z</time>
</trkpt>
<trkpt lat="37.099117279052734" lon="-118.47265625">
<ele>3111</ele>
<time>2016-10-11T23:56:08Z</time>
</trkpt>
<trkpt lat="37.09910202026367" lon="-118.47257995605469">
<ele>3111</ele>
<time>2016-10-11T23:56:36Z</time>
</trkpt>
<trkpt lat="37.09907531738281" lon="-118.47252655029297">
<ele>3111</ele>
<time>2016-10-11T23:56:42Z</time>
</trkpt>
<trkpt lat="37.09904479980469" lon="-118.47247314453125">
<ele>3109</ele>
<time>2016-10-11T23:56:54Z</time>
</trkpt>
<trkpt lat="37.09908676147461" lon="-118.47245025634766">
<ele>3104</ele>
<time>2016-10-11T23:57:19Z</time>
</trkpt>
<trkpt lat="37.09915542602539" lon="-118.47245025634766">
<ele>3101</ele>
<time>2016-10-11T23:57:29Z</time>
</trkpt>
<trkpt lat="37.09919357299805" lon="-118.47247314453125">
<ele>3105</ele>
<time>2016-10-11T23:58:09Z</time>
</trkpt>
<trkpt lat="37.09923553466797" lon="-118.4725112915039">
<ele>3102</ele>
<time>2016-10-11T23:58:21Z</time>
</trkpt>
<trkpt lat="37.09927749633789" lon="-118.47252655029297">
<ele>3099</ele>
<time>2016-10-11T23:58:39Z</time>
</trkpt>
<trkpt lat="37.09922790527344" lon="-118.47254180908203">
<ele>3103</ele>
<time>2016-10-11T23:59:20Z</time>
</trkpt>
<trkpt lat="37.09917449951172" lon="-118.47251892089844">
<ele>3103</ele>
<time>2016-10-11T23:59:26Z</time>
</trkpt>
<trkpt lat="37.099159240722656" lon="-118.47245788574219">
<ele>3095</ele>
<time>2016-10-11T23:59:50Z</time>
</trkpt>
<trkpt lat="37.0991325378418" lon="-118.47241973876953">
<ele>3099</ele>
<time>2016-10-12T00:00:14Z</time>
</trkpt>
<trkpt lat="37.09908676147461" lon="-118.47234344482422">
<ele>3102</ele>
<time>2016-10-12T00:00:42Z</time>
</trkpt>
<trkpt lat="37.099063873291016" lon="-118.4722900390625">
<ele>3102</ele>
<time>2016-10-12T00:00:48Z</time>
</trkpt>
<trkpt lat="37.09908676147461" lon="-118.47223663330078">
<ele>3098</ele>
<time>2016-10-12T00:01:03Z</time>
</trkpt>
<trkpt lat="37.099178314208984" lon="-118.47222137451172">
<ele>3099</ele>
<time>2016-10-12T00:01:13Z</time>
</trkpt>
<trkpt lat="37.0992431640625" lon="-118.47224426269531">
<ele>3093</ele>
<time>2016-10-12T00:01:58Z</time>
</trkpt>
<trkpt lat="37.09929275512695" lon="-118.47216796875">
<ele>3085</ele>
<time>2016-10-12T00:02:38Z</time>
</trkpt>
<trkpt lat="37.099300384521484" lon="-118.47210693359375">
<ele>3090</ele>
<time>2016-10-12T00:02:51Z</time>
</trkpt>
<trkpt lat="37.099365234375" lon="-118.47203063964844">
<ele>3095</ele>
<time>2016-10-12T00:03:02Z</time>
</trkpt>
<trkpt lat="37.09938049316406" lon="-118.47196197509766">
<ele>3094</ele>
<time>2016-10-12T00:03:39Z</time>
</trkpt>
<trkpt lat="37.09942626953125" lon="-118.47196960449219">
<ele>3092</ele>
<time>2016-10-12T00:03:56Z</time>
</trkpt>
<trkpt lat="37.099464416503906" lon="-118.47193908691406">
<ele>3088</ele>
<time>2016-10-12T00:04:04Z</time>
</trkpt>
<trkpt lat="37.09950256347656" lon="-118.47196960449219">
<ele>3084</ele>
<time>2016-10-12T00:04:11Z</time>
</trkpt>
<trkpt lat="37.09951400756836" lon="-118.47189331054688">
<ele>3080</ele>
<time>2016-10-12T00:05:10Z</time>
</trkpt>
<trkpt lat="37.09953308105469" lon="-118.47183990478516">
<ele>3072</ele>
<time>2016-10-12T00:05:35Z</time>
</trkpt>
<trkpt lat="37.099517822265625" lon="-118.4717788696289">
<ele>3073</ele>
<time>2016-10-12T00:05:48Z</time>
</trkpt>
<trkpt lat="37.099517822265625" lon="-118.47171783447266">
<ele>3070</ele>
<time>2016-10-12T00:05:55Z</time>
</trkpt>
<trkpt lat="37.09951400756836" lon="-118.47166442871094">
<ele>3070</ele>
<time>2016-10-12T00:06:05Z</time>
</trkpt>
<trkpt lat="37.09954071044922" lon="-118.47161865234375">
<ele>3068</ele>
<time>2016-10-12T00:06:16Z</time>
</trkpt>
<trkpt lat="37.099578857421875" lon="-118.4715576171875">
<ele>3066</ele>
<time>2016-10-12T00:06:53Z</time>
</trkpt>
<trkpt lat="37.099586486816406" lon="-118.47149658203125">
<ele>3063</ele>
<time>2016-10-12T00:07:10Z</time>
</trkpt>
<trkpt lat="37.09951400756836" lon="-118.47142791748047">
<ele>3066</ele>
<time>2016-10-12T00:07:31Z</time>
</trkpt>
<trkpt lat="37.09947967529297" lon="-118.47138214111328">
<ele>3065</ele>
<time>2016-10-12T00:07:39Z</time>
</trkpt>
<trkpt lat="37.09946060180664" lon="-118.47132873535156">
<ele>3064</ele>
<time>2016-10-12T00:07:45Z</time>
</trkpt>
<trkpt lat="37.09947204589844" lon="-118.47126770019531">
<ele>3065</ele>
<time>2016-10-12T00:08:02Z</time>
</trkpt>
<trkpt lat="37.09944152832031" lon="-118.4712142944336">
<ele>3063</ele>
<time>2016-10-12T00:08:16Z</time>
</trkpt>
<trkpt lat="37.099430084228516" lon="-118.47113800048828">
<ele>3056</ele>
<time>2016-10-12T00:08:35Z</time>
</trkpt>
<trkpt lat="37.0994758605957" lon="-118.47112274169922">
<ele>3055</ele>
<time>2016-10-12T00:08:44Z</time>
</trkpt>
<trkpt lat="37.099525451660156" lon="-118.4710922241211">
<ele>3051</ele>
<time>2016-10-12T00:08:52Z</time>
</trkpt>
<trkpt lat="37.09946823120117" lon="-118.47098541259766">
<ele>3052</ele>
<time>2016-10-12T00:09:01Z</time>
</trkpt>
<trkpt lat="37.09944534301758" lon="-118.47091674804688">
<ele>3046</ele>
<time>2016-10-12T00:09:36Z</time>
</trkpt>
<trkpt lat="37.099430084228516" lon="-118.47097778320313">
<ele>3035</ele>
<time>2016-10-12T00:10:30Z</time>
</trkpt>
<trkpt lat="37.09941482543945" lon="-118.47091674804688">
<ele>3032</ele>
<time>2016-10-12T00:11:15Z</time>
</trkpt>
<trkpt lat="37.099365234375" lon="-118.4708023071289">
<ele>3030</ele>
<time>2016-10-12T00:11:24Z</time>
</trkpt>
<trkpt lat="37.09928512573242" lon="-118.47071838378906">
<ele>3024</ele>
<time>2016-10-12T00:11:34Z</time>
</trkpt>
<trkpt lat="37.09923553466797" lon="-118.4707260131836">
<ele>3033</ele>
<time>2016-10-12T00:11:51Z</time>
</trkpt>
<trkpt lat="37.099273681640625" lon="-118.47068786621094">
<ele>3030</ele>
<time>2016-10-12T00:12:21Z</time>
</trkpt>
<trkpt lat="37.099266052246094" lon="-118.47061920166016">
<ele>3031</ele>
<time>2016-10-12T00:12:44Z</time>
</trkpt>
<trkpt lat="37.0992431640625" lon="-118.47050476074219">
<ele>3035</ele>
<time>2016-10-12T00:12:52Z</time>
</trkpt>
<trkpt lat="37.09920120239258" lon="-118.47047424316406">
<ele>3033</ele>
<time>2016-10-12T00:13:05Z</time>
</trkpt>
<trkpt lat="37.099143981933594" lon="-118.4703598022461">
<ele>3035</ele>
<time>2016-10-12T00:13:14Z</time>
</trkpt>
<trkpt lat="37.0991325378418" lon="-118.47029876708984">
<ele>3040</ele>
<time>2016-10-12T00:13:21Z</time>
</trkpt>
<trkpt lat="37.099124908447266" lon="-118.47023010253906">
<ele>3039</ele>
<time>2016-10-12T00:13:28Z</time>
</trkpt>
<trkpt lat="37.0991096496582" lon="-118.4701156616211">
<ele>3031</ele>
<time>2016-10-12T00:13:55Z</time>
</trkpt>
<trkpt lat="37.09909439086914" lon="-118.47000122070313">
<ele>3026</ele>
<time>2016-10-12T00:14:08Z</time>
</trkpt>
<trkpt lat="37.099082946777344" lon="-118.46994018554688">
<ele>3021</ele>
<time>2016-10-12T00:14:15Z</time>
</trkpt>
<trkpt lat="37.09905242919922" lon="-118.46983337402344">
<ele>3014</ele>
<time>2016-10-12T00:14:25Z</time>
</trkpt>
<trkpt lat="37.09900665283203" lon="-118.4697036743164">
<ele>3020</ele>
<time>2016-10-12T00:14:34Z</time>
</trkpt>
<trkpt lat="37.099002838134766" lon="-118.46964263916016">
<ele>3020</ele>
<time>2016-10-12T00:14:40Z</time>
</trkpt>
<trkpt lat="37.09896469116211" lon="-118.46952819824219">
<ele>3020</ele>
<time>2016-10-12T00:14:48Z</time>
</trkpt>
<trkpt lat="37.09889221191406" lon="-118.46943664550781">
<ele>3023</ele>
<time>2016-10-12T00:14:55Z</time>
</trkpt>
<trkpt lat="37.09880447387695" lon="-118.4693603515625">
<ele>3021</ele>
<time>2016-10-12T00:15:05Z</time>
</trkpt>
<trkpt lat="37.09878921508789" lon="-118.46930694580078">
<ele>3028</ele>
<time>2016-10-12T00:15:13Z</time>
</trkpt>
<trkpt lat="37.09877395629883" lon="-118.46925354003906">
<ele>3031</ele>
<time>2016-10-12T00:15:20Z</time>
</trkpt>
<trkpt lat="37.09874725341797" lon="-118.46920013427734">
<ele>3033</ele>
<time>2016-10-12T00:15:32Z</time>
</trkpt>
<trkpt lat="37.09866714477539" lon="-118.4691162109375">
<ele>3025</ele>
<time>2016-10-12T00:15:40Z</time>
</trkpt>
<trkpt lat="37.098636627197266" lon="-118.468994140625">
<ele>3027</ele>
<time>2016-10-12T00:15:48Z</time>
</trkpt>
<trkpt lat="37.098575592041016" lon="-118.46888732910156">
<ele>3029</ele>
<time>2016-10-12T00:15:56Z</time>
</trkpt>
<trkpt lat="37.09857177734375" lon="-118.46882629394531">
<ele>3033</ele>
<time>2016-10-12T00:16:21Z</time>
</trkpt>
<trkpt lat="37.098533630371094" lon="-118.46878051757813">
<ele>3031</ele>
<time>2016-10-12T00:16:33Z</time>
</trkpt>
<trkpt lat="37.09852600097656" lon="-118.46871948242188">
<ele>3032</ele>
<time>2016-10-12T00:16:43Z</time>
</trkpt>
<trkpt lat="37.098541259765625" lon="-118.46861267089844">
<ele>3030</ele>
<time>2016-10-12T00:16:58Z</time>
</trkpt>
<trkpt lat="37.098487854003906" lon="-118.4685287475586">
<ele>3040</ele>
<time>2016-10-12T00:17:40Z</time>
</trkpt>
<trkpt lat="37.098445892333984" lon="-118.46849822998047">
<ele>3038</ele>
<time>2016-10-12T00:17:48Z</time>
</trkpt>
<trkpt lat="37.09842300415039" lon="-118.46844482421875">
<ele>3042</ele>
<time>2016-10-12T00:17:57Z</time>
</trkpt>
<trkpt lat="37.09839630126953" lon="-118.46839904785156">
<ele>3041</ele>
<time>2016-10-12T00:18:03Z</time>
</trkpt>
<trkpt lat="37.09833526611328" lon="-118.46830749511719">
<ele>3045</ele>
<time>2016-10-12T00:18:12Z</time>
</trkpt>
<trkpt lat="37.09831237792969" lon="-118.46820068359375">
<ele>3047</ele>
<time>2016-10-12T00:18:21Z</time>
</trkpt>
<trkpt lat="37.09830093383789" lon="-118.4681396484375">
<ele>3046</ele>
<time>2016-10-12T00:18:27Z</time>
</trkpt>
<trkpt lat="37.098270416259766" lon="-118.46809387207031">
<ele>3045</ele>
<time>2016-10-12T00:18:36Z</time>
</trkpt>
<trkpt lat="37.0982780456543" lon="-118.4680404663086">
<ele>3043</ele>
<time>2016-10-12T00:18:42Z</time>
</trkpt>
<trkpt lat="37.09824752807617" lon="-118.46798706054688">
<ele>3045</ele>
<time>2016-10-12T00:19:04Z</time>
</trkpt>
<trkpt lat="37.09822082519531" lon="-118.46793365478516">
<ele>3041</ele>
<time>2016-10-12T00:19:12Z</time>
</trkpt>
<trkpt lat="37.09817123413086" lon="-118.46793365478516">
<ele>3045</ele>
<time>2016-10-12T00:19:20Z</time>
</trkpt>
<trkpt lat="37.09812545776367" lon="-118.46788024902344">
<ele>3041</ele>
<time>2016-10-12T00:19:27Z</time>
</trkpt>
<trkpt lat="37.09805679321289" lon="-118.46778106689453">
<ele>3041</ele>
<time>2016-10-12T00:19:35Z</time>
</trkpt>
<trkpt lat="37.0980110168457" lon="-118.46766662597656">
<ele>3037</ele>
<time>2016-10-12T00:19:43Z</time>
</trkpt>
<trkpt lat="37.097984313964844" lon="-118.46761322021484">
<ele>3036</ele>
<time>2016-10-12T00:19:51Z</time>
</trkpt>
<trkpt lat="37.097957611083984" lon="-118.46751403808594">
<ele>3037</ele>
<time>2016-10-12T00:20:01Z</time>
</trkpt>
<trkpt lat="37.09794616699219" lon="-118.46745300292969">
<ele>3037</ele>
<time>2016-10-12T00:20:07Z</time>
</trkpt>
<trkpt lat="37.097904205322266" lon="-118.46736145019531">
<ele>3038</ele>
<time>2016-10-12T00:20:16Z</time>
</trkpt>
<trkpt lat="37.09785079956055" lon="-118.4673080444336">
<ele>3036</ele>
<time>2016-10-12T00:20:33Z</time>
</trkpt>
<trkpt lat="37.0977783203125" lon="-118.46722412109375">
<ele>3035</ele>
<time>2016-10-12T00:20:48Z</time>
</trkpt>
</trkseg>
</trk>
<trk>
<name><![CDATA[10111743]]></name>
<number>46</number>
<extensions><topografix:color>ff000066</topografix:color></extensions>
<trkseg>
<trkpt lat="37.09784698486328" lon="-118.46070861816406">
<ele>2895</ele>
<time>2016-10-12T00:43:23Z</time>
</trkpt>
<trkpt lat="37.09789276123047" lon="-118.46068572998047">
<ele>2897</ele>
<time>2016-10-12T00:43:36Z</time>
</trkpt>
<trkpt lat="37.0979118347168" lon="-118.46062469482422">
<ele>2901</ele>
<time>2016-10-12T00:43:43Z</time>
</trkpt>
<trkpt lat="37.097957611083984" lon="-118.46060180664063">
<ele>2899</ele>
<time>2016-10-12T00:43:52Z</time>
</trkpt>
<trkpt lat="37.09796905517578" lon="-118.46054077148438">
<ele>2896</ele>
<time>2016-10-12T00:43:58Z</time>
</trkpt>
<trkpt lat="37.09793472290039" lon="-118.4604263305664">
<ele>2899</ele>
<time>2016-10-12T00:44:07Z</time>
</trkpt>
<trkpt lat="37.09791946411133" lon="-118.46031188964844">
<ele>2899</ele>
<time>2016-10-12T00:44:18Z</time>
</trkpt>
<trkpt lat="37.09788131713867" lon="-118.46027374267578">
<ele>2901</ele>
<time>2016-10-12T00:44:24Z</time>
</trkpt>
<trkpt lat="37.09779739379883" lon="-118.46022033691406">
<ele>2896</ele>
<time>2016-10-12T00:44:34Z</time>
</trkpt>
<trkpt lat="37.09775924682617" lon="-118.46018981933594">
<ele>2892</ele>
<time>2016-10-12T00:44:41Z</time>
</trkpt>
<trkpt lat="37.09768295288086" lon="-118.46015167236328">
<ele>2896</ele>
<time>2016-10-12T00:44:51Z</time>
</trkpt>
<trkpt lat="37.09761428833008" lon="-118.46004486083984">
<ele>2898</ele>
<time>2016-10-12T00:45:03Z</time>
</trkpt>
<trkpt lat="37.09758758544922" lon="-118.45999908447266">
<ele>2896</ele>
<time>2016-10-12T00:45:12Z</time>
</trkpt>
<trkpt lat="37.09749984741211" lon="-118.46002960205078">
<ele>2898</ele>
<time>2016-10-12T00:45:22Z</time>
</trkpt>
<trkpt lat="37.09748458862305" lon="-118.45996856689453">
<ele>2902</ele>
<time>2016-10-12T00:45:31Z</time>
</trkpt>
<trkpt lat="37.0974006652832" lon="-118.45991516113281">
<ele>2896</ele>
<time>2016-10-12T00:45:40Z</time>
</trkpt>
<trkpt lat="37.09736251831055" lon="-118.45979309082031">
<ele>2901</ele>
<time>2016-10-12T00:45:51Z</time>
</trkpt>
<trkpt lat="37.09733963012695" lon="-118.45974731445313">
<ele>2910</ele>
<time>2016-10-12T00:46:12Z</time>
</trkpt>
<trkpt lat="37.09724807739258" lon="-118.45968627929688">
<ele>2918</ele>
<time>2016-10-12T00:46:20Z</time>
</trkpt>
<trkpt lat="37.09722137451172" lon="-118.45964050292969">
<ele>2921</ele>
<time>2016-10-12T00:46:29Z</time>
</trkpt>
<trkpt lat="37.097198486328125" lon="-118.45958709716797">
<ele>2922</ele>
<time>2016-10-12T00:46:37Z</time>
</trkpt>
<trkpt lat="37.0971794128418" lon="-118.45953369140625">
<ele>2915</ele>
<time>2016-10-12T00:47:07Z</time>
</trkpt>
<trkpt lat="37.09721755981445" lon="-118.45948791503906">
<ele>2909</ele>
<time>2016-10-12T00:47:15Z</time>
</trkpt>
<trkpt lat="37.09723663330078" lon="-118.45943450927734">
<ele>2905</ele>
<time>2016-10-12T00:47:24Z</time>
</trkpt>
<trkpt lat="37.097251892089844" lon="-118.45938110351563">
<ele>2907</ele>
<time>2016-10-12T00:47:31Z</time>
</trkpt>
<trkpt lat="37.09721755981445" lon="-118.45932006835938">
<ele>2905</ele>
<time>2016-10-12T00:47:38Z</time>
</trkpt>
<trkpt lat="37.097251892089844" lon="-118.45927429199219">
<ele>2907</ele>
<time>2016-10-12T00:47:44Z</time>
</trkpt>
<trkpt lat="37.09729766845703" lon="-118.45926666259766">
<ele>2914</ele>
<time>2016-10-12T00:47:52Z</time>
</trkpt>
<trkpt lat="37.0972900390625" lon="-118.45921325683594">
<ele>2914</ele>
<time>2016-10-12T00:48:05Z</time>
</trkpt>
<trkpt lat="37.09726333618164" lon="-118.45915222167969">
<ele>2912</ele>
<time>2016-10-12T00:48:15Z</time>
</trkpt>
<trkpt lat="37.09722137451172" lon="-118.45909118652344">
<ele>2909</ele>
<time>2016-10-12T00:48:23Z</time>
</trkpt>
<trkpt lat="37.09712600708008" lon="-118.45903015136719">
<ele>2911</ele>
<time>2016-10-12T00:48:31Z</time>
</trkpt>
<trkpt lat="37.0970573425293" lon="-118.45895385742188">
<ele>2907</ele>
<time>2016-10-12T00:48:40Z</time>
</trkpt>
<trkpt lat="37.0970458984375" lon="-118.45890045166016">
<ele>2908</ele>
<time>2016-10-12T00:48:48Z</time>
</trkpt>
<trkpt lat="37.09700012207031" lon="-118.45889282226563">
<ele>2907</ele>
<time>2016-10-12T00:49:13Z</time>
</trkpt>
<trkpt lat="37.09695816040039" lon="-118.45892333984375">
<ele>2905</ele>
<time>2016-10-12T00:49:20Z</time>
</trkpt>
<trkpt lat="37.0969123840332" lon="-118.45885467529297">
<ele>2912</ele>
<time>2016-10-12T00:49:27Z</time>
</trkpt>
<trkpt lat="37.096866607666016" lon="-118.45874786376953">
<ele>2914</ele>
<time>2016-10-12T00:49:34Z</time>
</trkpt>
<trkpt lat="37.0967903137207" lon="-118.45867919921875">
<ele>2916</ele>
<time>2016-10-12T00:49:44Z</time>
</trkpt>
<trkpt lat="37.096736907958984" lon="-118.45857238769531">
<ele>2912</ele>
<time>2016-10-12T00:49:55Z</time>
</trkpt>
<trkpt lat="37.096771240234375" lon="-118.45846557617188">
<ele>2916</ele>
<time>2016-10-12T00:50:04Z</time>
</trkpt>
<trkpt lat="37.096702575683594" lon="-118.4583969116211">
<ele>2917</ele>
<time>2016-10-12T00:50:17Z</time>
</trkpt>
<trkpt lat="37.096744537353516" lon="-118.45829010009766">
<ele>2920</ele>
<time>2016-10-12T00:50:23Z</time>
</trkpt>
<trkpt lat="37.096832275390625" lon="-118.45826721191406">
<ele>2913</ele>
<time>2016-10-12T00:50:46Z</time>
</trkpt>
<trkpt lat="37.09687805175781" lon="-118.458251953125">
<ele>2911</ele>
<time>2016-10-12T00:51:03Z</time>
</trkpt>
<trkpt lat="37.096920013427734" lon="-118.4582290649414">
<ele>2909</ele>
<time>2016-10-12T00:51:09Z</time>
</trkpt>
<trkpt lat="37.09701156616211" lon="-118.45818328857422">
<ele>2912</ele>
<time>2016-10-12T00:51:17Z</time>
</trkpt>
<trkpt lat="37.09708023071289" lon="-118.45814514160156">
<ele>2909</ele>
<time>2016-10-12T00:51:31Z</time>
</trkpt>
<trkpt lat="37.09710693359375" lon="-118.4580307006836">
<ele>2905</ele>
<time>2016-10-12T00:51:46Z</time>
</trkpt>
<trkpt lat="37.0971794128418" lon="-118.45795440673828">
<ele>2909</ele>
<time>2016-10-12T00:51:56Z</time>
</trkpt>
<trkpt lat="37.097259521484375" lon="-118.4578857421875">
<ele>2910</ele>
<time>2016-10-12T00:52:06Z</time>
</trkpt>
<trkpt lat="37.09732437133789" lon="-118.4577865600586">
<ele>2906</ele>
<time>2016-10-12T00:52:14Z</time>
</trkpt>
<trkpt lat="37.09730529785156" lon="-118.45772552490234">
<ele>2910</ele>
<time>2016-10-12T00:52:22Z</time>
</trkpt>
<trkpt lat="37.09724426269531" lon="-118.45768737792969">
<ele>2912</ele>
<time>2016-10-12T00:52:34Z</time>
</trkpt>
<trkpt lat="37.09720230102539" lon="-118.4576644897461">
<ele>2917</ele>
<time>2016-10-12T00:52:40Z</time>
</trkpt>
<trkpt lat="37.09724426269531" lon="-118.4576416015625">
<ele>2916</ele>
<time>2016-10-12T00:52:48Z</time>
</trkpt>
<trkpt lat="37.09726333618164" lon="-118.45758056640625">
<ele>2920</ele>
<time>2016-10-12T00:52:57Z</time>
</trkpt>
<trkpt lat="37.09722137451172" lon="-118.45755004882813">
<ele>2919</ele>
<time>2016-10-12T00:53:03Z</time>
</trkpt>
<trkpt lat="37.097232818603516" lon="-118.4574966430664">
<ele>2921</ele>
<time>2016-10-12T00:53:09Z</time>
</trkpt>
<trkpt lat="37.09732437133789" lon="-118.45740509033203">
<ele>2926</ele>
<time>2016-10-12T00:53:16Z</time>
</trkpt>
<trkpt lat="37.09737777709961" lon="-118.45734405517578">
<ele>2929</ele>
<time>2016-10-12T00:53:23Z</time>
</trkpt>
<trkpt lat="37.09728240966797" lon="-118.45734405517578">
<ele>2930</ele>
<time>2016-10-12T00:53:37Z</time>
</trkpt>
<trkpt lat="37.0972785949707" lon="-118.457275390625">
<ele>2924</ele>
<time>2016-10-12T00:53:46Z</time>
</trkpt>
<trkpt lat="37.09724044799805" lon="-118.45732879638672">
<ele>2923</ele>
<time>2016-10-12T00:55:57Z</time>
</trkpt>
<trkpt lat="37.0972900390625" lon="-118.45732879638672">
<ele>2922</ele>
<time>2016-10-12T00:56:16Z</time>
</trkpt>
<trkpt lat="37.09733581542969" lon="-118.45726013183594">
<ele>2922</ele>
<time>2016-10-12T00:56:23Z</time>
</trkpt>
<trkpt lat="37.097381591796875" lon="-118.4572525024414">
<ele>2924</ele>
<time>2016-10-12T00:56:42Z</time>
</trkpt>
<trkpt lat="37.09743881225586" lon="-118.4572525024414">
<ele>2921</ele>
<time>2016-10-12T00:56:48Z</time>
</trkpt>
<trkpt lat="37.0975456237793" lon="-118.45726013183594">
<ele>2925</ele>
<time>2016-10-12T00:56:59Z</time>
</trkpt>
<trkpt lat="37.09759521484375" lon="-118.4572525024414">
<ele>2925</ele>
<time>2016-10-12T00:57:05Z</time>
</trkpt>
<trkpt lat="37.097694396972656" lon="-118.45728302001953">
<ele>2927</ele>
<time>2016-10-12T00:57:13Z</time>
</trkpt>
<trkpt lat="37.09779357910156" lon="-118.45732116699219">
<ele>2926</ele>
<time>2016-10-12T00:57:19Z</time>
</trkpt>
<trkpt lat="37.09785842895508" lon="-118.45735931396484">
<ele>2924</ele>
<time>2016-10-12T00:57:39Z</time>
</trkpt>
<trkpt lat="37.09791564941406" lon="-118.45733642578125">
<ele>2914</ele>
<time>2016-10-12T00:57:46Z</time>
</trkpt>
<trkpt lat="37.097965240478516" lon="-118.45735168457031">
<ele>2911</ele>
<time>2016-10-12T00:57:52Z</time>
</trkpt>
<trkpt lat="37.0980110168457" lon="-118.4573745727539">
<ele>2911</ele>
<time>2016-10-12T00:58:03Z</time>
</trkpt>
<trkpt lat="37.09804153442383" lon="-118.4574203491211">
<ele>2911</ele>
<time>2016-10-12T00:58:16Z</time>
</trkpt>
<trkpt lat="37.09811019897461" lon="-118.45745849609375">
<ele>2914</ele>
<time>2016-10-12T00:58:29Z</time>
</trkpt>
<trkpt lat="37.098106384277344" lon="-118.4573974609375">
<ele>2916</ele>
<time>2016-10-12T00:58:51Z</time>
</trkpt>
<trkpt lat="37.098236083984375" lon="-118.45730590820313">
<ele>2918</ele>
<time>2016-10-12T00:58:59Z</time>
</trkpt>
<trkpt lat="37.09829330444336" lon="-118.45720672607422">
<ele>2908</ele>
<time>2016-10-12T00:59:08Z</time>
</trkpt>
<trkpt lat="37.098388671875" lon="-118.4571533203125">
<ele>2909</ele>
<time>2016-10-12T00:59:16Z</time>
</trkpt>
<trkpt lat="37.098453521728516" lon="-118.45718383789063">
<ele>2913</ele>
<time>2016-10-12T00:59:23Z</time>
</trkpt>
<trkpt lat="37.09850311279297" lon="-118.45718383789063">
<ele>2908</ele>
<time>2016-10-12T00:59:29Z</time>
</trkpt>
<trkpt lat="37.098609924316406" lon="-118.45719146728516">
<ele>2911</ele>
<time>2016-10-12T00:59:39Z</time>
</trkpt>
<trkpt lat="37.098655700683594" lon="-118.45721435546875">
<ele>2912</ele>
<time>2016-10-12T00:59:45Z</time>
</trkpt>
<trkpt lat="37.09870529174805" lon="-118.45720672607422">
<ele>2908</ele>
<time>2016-10-12T00:59:53Z</time>
</trkpt>
<trkpt lat="37.09878921508789" lon="-118.4571533203125">
<ele>2909</ele>
<time>2016-10-12T01:00:03Z</time>
</trkpt>
<trkpt lat="37.098838806152344" lon="-118.45716094970703">
<ele>2914</ele>
<time>2016-10-12T01:00:16Z</time>
</trkpt>
<trkpt lat="37.098899841308594" lon="-118.45716094970703">
<ele>2913</ele>
<time>2016-10-12T01:00:23Z</time>
</trkpt>
<trkpt lat="37.09897994995117" lon="-118.45710754394531">
<ele>2918</ele>
<time>2016-10-12T01:00:36Z</time>
</trkpt>
<trkpt lat="37.0990104675293" lon="-118.4571533203125">
<ele>2920</ele>
<time>2016-10-12T01:00:51Z</time>
</trkpt>
<trkpt lat="37.09906005859375" lon="-118.45713806152344">
<ele>2918</ele>
<time>2016-10-12T01:01:03Z</time>
</trkpt>
<trkpt lat="37.09910202026367" lon="-118.45702362060547">
<ele>2914</ele>
<time>2016-10-12T01:01:15Z</time>
</trkpt>
<trkpt lat="37.09914779663086" lon="-118.45693969726563">
<ele>2907</ele>
<time>2016-10-12T01:01:23Z</time>
</trkpt>
<trkpt lat="37.099117279052734" lon="-118.45689392089844">
<ele>2909</ele>
<time>2016-10-12T01:01:32Z</time>
</trkpt>
<trkpt lat="37.09907531738281" lon="-118.45687103271484">
<ele>2915</ele>
<time>2016-10-12T01:01:59Z</time>
</trkpt>
<trkpt lat="37.099029541015625" lon="-118.45684814453125">
<ele>2915</ele>
<time>2016-10-12T01:02:05Z</time>
</trkpt>
<trkpt lat="37.09905242919922" lon="-118.456787109375">
<ele>2920</ele>
<time>2016-10-12T01:02:13Z</time>
</trkpt>
<trkpt lat="37.09912872314453" lon="-118.45680236816406">
<ele>2923</ele>
<time>2016-10-12T01:02:23Z</time>
</trkpt>
<trkpt lat="37.09917068481445" lon="-118.45682525634766">
<ele>2926</ele>
<time>2016-10-12T01:02:30Z</time>
</trkpt>
<trkpt lat="37.099212646484375" lon="-118.45679473876953">
<ele>2921</ele>
<time>2016-10-12T01:02:38Z</time>
</trkpt>
<trkpt lat="37.099212646484375" lon="-118.45673370361328">
<ele>2925</ele>
<time>2016-10-12T01:02:49Z</time>
</trkpt>
<trkpt lat="37.09922409057617" lon="-118.45662689208984">
<ele>2925</ele>
<time>2016-10-12T01:03:02Z</time>
</trkpt>
<trkpt lat="37.099266052246094" lon="-118.45659637451172">
<ele>2926</ele>
<time>2016-10-12T01:03:08Z</time>
</trkpt>
<trkpt lat="37.09935760498047" lon="-118.45661163330078">
<ele>2928</ele>
<time>2016-10-12T01:03:31Z</time>
</trkpt>
<trkpt lat="37.09945297241211" lon="-118.45662689208984">
<ele>2931</ele>
<time>2016-10-12T01:03:40Z</time>
</trkpt>
<trkpt lat="37.09955596923828" lon="-118.4566421508789">
<ele>2932</ele>
<time>2016-10-12T01:03:51Z</time>
</trkpt>
<trkpt lat="37.099609375" lon="-118.45674896240234">
<ele>2934</ele>
<time>2016-10-12T01:03:59Z</time>
</trkpt>
<trkpt lat="37.099647521972656" lon="-118.45671081542969">
<ele>2930</ele>
<time>2016-10-12T01:04:05Z</time>
</trkpt>
<trkpt lat="37.09965515136719" lon="-118.4566421508789">
<ele>2925</ele>
<time>2016-10-12T01:04:11Z</time>
</trkpt>
<trkpt lat="37.09968948364258" lon="-118.45655822753906">
<ele>2926</ele>
<time>2016-10-12T01:04:23Z</time>
</trkpt>
<trkpt lat="37.09967041015625" lon="-118.45649719238281">
<ele>2925</ele>
<time>2016-10-12T01:04:31Z</time>
</trkpt>
<trkpt lat="37.099708557128906" lon="-118.4564437866211">
<ele>2923</ele>
<time>2016-10-12T01:04:47Z</time>
</trkpt>
<trkpt lat="37.0997428894043" lon="-118.45640563964844">
<ele>2932</ele>
<time>2016-10-12T01:05:12Z</time>
</trkpt>
<trkpt lat="37.09977722167969" lon="-118.45643615722656">
<ele>2938</ele>
<time>2016-10-12T01:05:20Z</time>
</trkpt>
<trkpt lat="37.0998420715332" lon="-118.45646667480469">
<ele>2938</ele>
<time>2016-10-12T01:05:35Z</time>
</trkpt>
<trkpt lat="37.09993362426758" lon="-118.45649719238281">
<ele>2937</ele>
<time>2016-10-12T01:05:45Z</time>
</trkpt>
<trkpt lat="37.100040435791016" lon="-118.4565200805664">
<ele>2936</ele>
<time>2016-10-12T01:05:55Z</time>
</trkpt>
<trkpt lat="37.100128173828125" lon="-118.45652770996094">
<ele>2937</ele>
<time>2016-10-12T01:06:08Z</time>
</trkpt>
<trkpt lat="37.100215911865234" lon="-118.45645904541016">
<ele>2935</ele>
<time>2016-10-12T01:06:16Z</time>
</trkpt>
<trkpt lat="37.10028076171875" lon="-118.45638275146484">
<ele>2935</ele>
<time>2016-10-12T01:06:23Z</time>
</trkpt>
<trkpt lat="37.100318908691406" lon="-118.45633697509766">
<ele>2936</ele>
<time>2016-10-12T01:06:32Z</time>
</trkpt>
<trkpt lat="37.10041809082031" lon="-118.45623779296875">
<ele>2935</ele>
<time>2016-10-12T01:06:39Z</time>
</trkpt>
<trkpt lat="37.10049819946289" lon="-118.4561538696289">
<ele>2936</ele>
<time>2016-10-12T01:06:50Z</time>
</trkpt>
<trkpt lat="37.10054016113281" lon="-118.45610809326172">
<ele>2932</ele>
<time>2016-10-12T01:06:59Z</time>
</trkpt>
<trkpt lat="37.10063552856445" lon="-118.45606994628906">
<ele>2927</ele>
<time>2016-10-12T01:07:09Z</time>
</trkpt>
<trkpt lat="37.1007080078125" lon="-118.4560775756836">
<ele>2926</ele>
<time>2016-10-12T01:07:39Z</time>
</trkpt>
<trkpt lat="37.10074996948242" lon="-118.45604705810547">
<ele>2930</ele>
<time>2016-10-12T01:07:45Z</time>
</trkpt>
<trkpt lat="37.10083770751953" lon="-118.4560317993164">
<ele>2934</ele>
<time>2016-10-12T01:07:54Z</time>
</trkpt>
<trkpt lat="37.1009407043457" lon="-118.45598602294922">
<ele>2933</ele>
<time>2016-10-12T01:08:02Z</time>
</trkpt>
<trkpt lat="37.10103988647461" lon="-118.45597076416016">
<ele>2934</ele>
<time>2016-10-12T01:08:09Z</time>
</trkpt>
<trkpt lat="37.10112380981445" lon="-118.45592498779297">
<ele>2936</ele>
<time>2016-10-12T01:08:20Z</time>
</trkpt>
<trkpt lat="37.10115432739258" lon="-118.4558334350586">
<ele>2945</ele>
<time>2016-10-12T01:08:29Z</time>
</trkpt>
<trkpt lat="37.1012077331543" lon="-118.455810546875">
<ele>2947</ele>
<time>2016-10-12T01:08:36Z</time>
</trkpt>
<trkpt lat="37.10130310058594" lon="-118.45578002929688">
<ele>2951</ele>
<time>2016-10-12T01:08:45Z</time>
</trkpt>
<trkpt lat="37.101348876953125" lon="-118.45575714111328">
<ele>2953</ele>
<time>2016-10-12T01:08:53Z</time>
</trkpt>
<trkpt lat="37.1014404296875" lon="-118.45570373535156">
<ele>2950</ele>
<time>2016-10-12T01:09:02Z</time>
</trkpt>
<trkpt lat="37.101524353027344" lon="-118.45565795898438">
<ele>2946</ele>
<time>2016-10-12T01:09:09Z</time>
</trkpt>
<trkpt lat="37.10157775878906" lon="-118.45564270019531">
<ele>2949</ele>
<time>2016-10-12T01:09:16Z</time>
</trkpt>
<trkpt lat="37.101646423339844" lon="-118.45561981201172">
<ele>2947</ele>
<time>2016-10-12T01:09:23Z</time>
</trkpt>
<trkpt lat="37.101749420166016" lon="-118.45558166503906">
<ele>2943</ele>
<time>2016-10-12T01:09:32Z</time>
</trkpt>
<trkpt lat="37.101829528808594" lon="-118.45549774169922">
<ele>2942</ele>
<time>2016-10-12T01:09:42Z</time>
</trkpt>
<trkpt lat="37.10188674926758" lon="-118.45539093017578">
<ele>2947</ele>
<time>2016-10-12T01:09:50Z</time>
</trkpt>
<trkpt lat="37.101951599121094" lon="-118.45529174804688">
<ele>2944</ele>
<time>2016-10-12T01:09:58Z</time>
</trkpt>
<trkpt lat="37.1020393371582" lon="-118.45529174804688">
<ele>2942</ele>
<time>2016-10-12T01:10:12Z</time>
</trkpt>
<trkpt lat="37.102134704589844" lon="-118.45532989501953">
<ele>2945</ele>
<time>2016-10-12T01:10:19Z</time>
</trkpt>
<trkpt lat="37.10221481323242" lon="-118.45532989501953">
<ele>2943</ele>
<time>2016-10-12T01:10:26Z</time>
</trkpt>
<trkpt lat="37.102317810058594" lon="-118.455322265625">
<ele>2946</ele>
<time>2016-10-12T01:10:33Z</time>
</trkpt>
<trkpt lat="37.102359771728516" lon="-118.4552993774414">
<ele>2948</ele>
<time>2016-10-12T01:10:39Z</time>
</trkpt>
<trkpt lat="37.10238265991211" lon="-118.45519256591797">
<ele>2953</ele>
<time>2016-10-12T01:10:56Z</time>
</trkpt>
<trkpt lat="37.10244369506836" lon="-118.4551010131836">
<ele>2955</ele>
<time>2016-10-12T01:11:04Z</time>
</trkpt>
<trkpt lat="37.10250473022461" lon="-118.45500946044922">
<ele>2951</ele>
<time>2016-10-12T01:11:14Z</time>
</trkpt>
<trkpt lat="37.102508544921875" lon="-118.45494079589844">
<ele>2950</ele>
<time>2016-10-12T01:11:22Z</time>
</trkpt>
<trkpt lat="37.10255813598633" lon="-118.45490264892578">
<ele>2950</ele>
<time>2016-10-12T01:11:28Z</time>
</trkpt>
<trkpt lat="37.10264205932617" lon="-118.45482635498047">
<ele>2951</ele>
<time>2016-10-12T01:11:39Z</time>
</trkpt>
<trkpt lat="37.102725982666016" lon="-118.45478057861328">
<ele>2954</ele>
<time>2016-10-12T01:11:54Z</time>
</trkpt>
<trkpt lat="37.1027717590332" lon="-118.45478820800781">
<ele>2954</ele>
<time>2016-10-12T01:12:01Z</time>
</trkpt>
<trkpt lat="37.102867126464844" lon="-118.45479583740234">
<ele>2954</ele>
<time>2016-10-12T01:12:09Z</time>
</trkpt>
<trkpt lat="37.102943420410156" lon="-118.45486450195313">
<ele>2959</ele>
<time>2016-10-12T01:12:19Z</time>
</trkpt>
<trkpt lat="37.10300064086914" lon="-118.4549331665039">
<ele>2958</ele>
<time>2016-10-12T01:12:30Z</time>
</trkpt>
<trkpt lat="37.103050231933594" lon="-118.45494079589844">
<ele>2956</ele>
<time>2016-10-12T01:12:36Z</time>
</trkpt>
<trkpt lat="37.103145599365234" lon="-118.45494079589844">
<ele>2955</ele>
<time>2016-10-12T01:12:47Z</time>
</trkpt>
<trkpt lat="37.10325241088867" lon="-118.45492553710938">
<ele>2949</ele>
<time>2016-10-12T01:12:58Z</time>
</trkpt>
<trkpt lat="37.103336334228516" lon="-118.45486450195313">
<ele>2945</ele>
<time>2016-10-12T01:13:10Z</time>
</trkpt>
<trkpt lat="37.1033821105957" lon="-118.45487976074219">
<ele>2942</ele>
<time>2016-10-12T01:13:16Z</time>
</trkpt>
<trkpt lat="37.10348129272461" lon="-118.45487213134766">
<ele>2940</ele>
<time>2016-10-12T01:13:27Z</time>
</trkpt>
<trkpt lat="37.10353469848633" lon="-118.45489501953125">
<ele>2941</ele>
<time>2016-10-12T01:13:40Z</time>
</trkpt>
<trkpt lat="37.103633880615234" lon="-118.45487213134766">
<ele>2931</ele>
<time>2016-10-12T01:13:49Z</time>
</trkpt>
<trkpt lat="37.10368728637695" lon="-118.45484924316406">
<ele>2939</ele>
<time>2016-10-12T01:13:55Z</time>
</trkpt>
<trkpt lat="37.103782653808594" lon="-118.45484924316406">
<ele>2936</ele>
<time>2016-10-12T01:14:03Z</time>
</trkpt>
<trkpt lat="37.103843688964844" lon="-118.45482635498047">
<ele>2936</ele>
<time>2016-10-12T01:14:37Z</time>
</trkpt>
<trkpt lat="37.1038818359375" lon="-118.45478057861328">
<ele>2935</ele>
<time>2016-10-12T01:14:43Z</time>
</trkpt>
<trkpt lat="37.10393142700195" lon="-118.45478820800781">
<ele>2930</ele>
<time>2016-10-12T01:14:50Z</time>
</trkpt>
<trkpt lat="37.10403060913086" lon="-118.45478820800781">
<ele>2930</ele>
<time>2016-10-12T01:14:59Z</time>
</trkpt>
<trkpt lat="37.1041259765625" lon="-118.45476531982422">
<ele>2929</ele>
<time>2016-10-12T01:15:08Z</time>
</trkpt>
<trkpt lat="37.10417938232422" lon="-118.45465087890625">
<ele>2932</ele>
<time>2016-10-12T01:15:18Z</time>
</trkpt>
<trkpt lat="37.104217529296875" lon="-118.45455169677734">
<ele>2934</ele>
<time>2016-10-12T01:15:30Z</time>
</trkpt>
<trkpt lat="37.10422134399414" lon="-118.45449829101563">
<ele>2932</ele>
<time>2016-10-12T01:15:41Z</time>
</trkpt>
<trkpt lat="37.104244232177734" lon="-118.4544448852539">
<ele>2934</ele>
<time>2016-10-12T01:15:48Z</time>
</trkpt>
<trkpt lat="37.10429382324219" lon="-118.45442962646484">
<ele>2935</ele>
<time>2016-10-12T01:15:56Z</time>
</trkpt>
<trkpt lat="37.104366302490234" lon="-118.4543685913086">
<ele>2928</ele>
<time>2016-10-12T01:16:05Z</time>
</trkpt>
<trkpt lat="37.104400634765625" lon="-118.45441436767578">
<ele>2932</ele>
<time>2016-10-12T01:16:19Z</time>
</trkpt>
<trkpt lat="37.10447692871094" lon="-118.45438385009766">
<ele>2922</ele>
<time>2016-10-12T01:16:29Z</time>
</trkpt>
<trkpt lat="37.10443115234375" lon="-118.45428466796875">
<ele>2921</ele>
<time>2016-10-12T01:16:39Z</time>
</trkpt>
<trkpt lat="37.10438919067383" lon="-118.45430755615234">
<ele>2925</ele>
<time>2016-10-12T01:16:49Z</time>
</trkpt>
<trkpt lat="37.10438537597656" lon="-118.4542465209961">
<ele>2927</ele>
<time>2016-10-12T01:16:59Z</time>
</trkpt>
<trkpt lat="37.10443115234375" lon="-118.45423889160156">
<ele>2924</ele>
<time>2016-10-12T01:17:08Z</time>
</trkpt>
<trkpt lat="37.10445022583008" lon="-118.45418548583984">
<ele>2923</ele>
<time>2016-10-12T01:17:16Z</time>
</trkpt>
<trkpt lat="37.10451126098633" lon="-118.45413208007813">
<ele>2920</ele>
<time>2016-10-12T01:17:33Z</time>
</trkpt>
<trkpt lat="37.104469299316406" lon="-118.4541015625">
<ele>2917</ele>
<time>2016-10-12T01:17:42Z</time>
</trkpt>
<trkpt lat="37.10442352294922" lon="-118.45406341552734">
<ele>2917</ele>
<time>2016-10-12T01:17:48Z</time>
</trkpt>
<trkpt lat="37.104373931884766" lon="-118.45406341552734">
<ele>2916</ele>
<time>2016-10-12T01:17:55Z</time>
</trkpt>
<trkpt lat="37.10438537597656" lon="-118.4539794921875">
<ele>2908</ele>
<time>2016-10-12T01:18:33Z</time>
</trkpt>
<trkpt lat="37.1043586730957" lon="-118.45392608642578">
<ele>2908</ele>
<time>2016-10-12T01:18:42Z</time>
</trkpt>
<trkpt lat="37.10432815551758" lon="-118.45388793945313">
<ele>2903</ele>
<time>2016-10-12T01:18:50Z</time>
</trkpt>
<trkpt lat="37.10428237915039" lon="-118.453857421875">
<ele>2908</ele>
<time>2016-10-12T01:19:08Z</time>
</trkpt>
<trkpt lat="37.1042594909668" lon="-118.45381164550781">
<ele>2904</ele>
<time>2016-10-12T01:19:23Z</time>
</trkpt>
<trkpt lat="37.10436248779297" lon="-118.45381164550781">
<ele>2898</ele>
<time>2016-10-12T01:19:35Z</time>
</trkpt>
<trkpt lat="37.104408264160156" lon="-118.45379638671875">
<ele>2896</ele>
<time>2016-10-12T01:19:42Z</time>
</trkpt>
<trkpt lat="37.10445785522461" lon="-118.45380401611328">
<ele>2896</ele>
<time>2016-10-12T01:19:59Z</time>
</trkpt>
<trkpt lat="37.10447692871094" lon="-118.45374298095703">
<ele>2893</ele>
<time>2016-10-12T01:20:06Z</time>
</trkpt>
<trkpt lat="37.104434967041016" lon="-118.45369720458984">
<ele>2894</ele>
<time>2016-10-12T01:20:13Z</time>
</trkpt>
<trkpt lat="37.10441970825195" lon="-118.45362854003906">
<ele>2890</ele>
<time>2016-10-12T01:20:23Z</time>
</trkpt>
<trkpt lat="37.10445785522461" lon="-118.45366668701172">
<ele>2887</ele>
<time>2016-10-12T01:20:29Z</time>
</trkpt>
<trkpt lat="37.10449981689453" lon="-118.45364379882813">
<ele>2885</ele>
<time>2016-10-12T01:20:35Z</time>
</trkpt>
<trkpt lat="37.10447311401367" lon="-118.45359802246094">
<ele>2880</ele>
<time>2016-10-12T01:20:57Z</time>
</trkpt>
<trkpt lat="37.10444641113281" lon="-118.45353698730469">
<ele>2881</ele>
<time>2016-10-12T01:21:04Z</time>
</trkpt>
<trkpt lat="37.10448455810547" lon="-118.4534912109375">
<ele>2882</ele>
<time>2016-10-12T01:21:10Z</time>
</trkpt>
<trkpt lat="37.104557037353516" lon="-118.4534912109375">
<ele>2876</ele>
<time>2016-10-12T01:21:23Z</time>
</trkpt>
<trkpt lat="37.10453414916992" lon="-118.45343780517578">
<ele>2876</ele>
<time>2016-10-12T01:21:40Z</time>
</trkpt>
<trkpt lat="37.10450744628906" lon="-118.45338439941406">
<ele>2874</ele>
<time>2016-10-12T01:21:48Z</time>
</trkpt>
<trkpt lat="37.10454559326172" lon="-118.45333862304688">
<ele>2874</ele>
<time>2016-10-12T01:21:55Z</time>
</trkpt>
<trkpt lat="37.10459899902344" lon="-118.45333099365234">
<ele>2875</ele>
<time>2016-10-12T01:22:05Z</time>
</trkpt>
<trkpt lat="37.104698181152344" lon="-118.45329284667969">
<ele>2860</ele>
<time>2016-10-12T01:22:23Z</time>
</trkpt>
<trkpt lat="37.10465621948242" lon="-118.4532699584961">
<ele>2860</ele>
<time>2016-10-12T01:22:48Z</time>
</trkpt>
<trkpt lat="37.104637145996094" lon="-118.45320892333984">
<ele>2860</ele>
<time>2016-10-12T01:22:56Z</time>
</trkpt>
<trkpt lat="37.10466384887695" lon="-118.45315551757813">
<ele>2858</ele>
<time>2016-10-12T01:23:03Z</time>
</trkpt>
<trkpt lat="37.10467529296875" lon="-118.45308685302734">
<ele>2860</ele>
<time>2016-10-12T01:23:09Z</time>
</trkpt>
<trkpt lat="37.10472106933594" lon="-118.45298767089844">
<ele>2850</ele>
<time>2016-10-12T01:23:17Z</time>
</trkpt>
<trkpt lat="37.10475540161133" lon="-118.45294189453125">
<ele>2849</ele>
<time>2016-10-12T01:23:23Z</time>
</trkpt>
<trkpt lat="37.10472106933594" lon="-118.45289611816406">
<ele>2852</ele>
<time>2016-10-12T01:23:34Z</time>
</trkpt>
<trkpt lat="37.10469436645508" lon="-118.45285034179688">
<ele>2851</ele>
<time>2016-10-12T01:23:41Z</time>
</trkpt>
<trkpt lat="37.104713439941406" lon="-118.4529037475586">
<ele>2852</ele>
<time>2016-10-12T01:23:49Z</time>
</trkpt>
<trkpt lat="37.10471725463867" lon="-118.45284271240234">
<ele>2851</ele>
<time>2016-10-12T01:24:06Z</time>
</trkpt>
<trkpt lat="37.104698181152344" lon="-118.45278930664063">
<ele>2850</ele>
<time>2016-10-12T01:24:16Z</time>
</trkpt>
<trkpt lat="37.10467529296875" lon="-118.45272064208984">
<ele>2848</ele>
<time>2016-10-12T01:24:23Z</time>
</trkpt>
<trkpt lat="37.10469055175781" lon="-118.4526596069336">
<ele>2849</ele>
<time>2016-10-12T01:24:40Z</time>
</trkpt>
<trkpt lat="37.10466003417969" lon="-118.4526138305664">
<ele>2850</ele>
<time>2016-10-12T01:24:48Z</time>
</trkpt>
<trkpt lat="37.10462951660156" lon="-118.45256042480469">
<ele>2849</ele>
<time>2016-10-12T01:25:04Z</time>
</trkpt>
<trkpt lat="37.104618072509766" lon="-118.45250701904297">
<ele>2845</ele>
<time>2016-10-12T01:25:10Z</time>
</trkpt>
<trkpt lat="37.10456848144531" lon="-118.45240020751953">
<ele>2846</ele>
<time>2016-10-12T01:25:17Z</time>
</trkpt>
<trkpt lat="37.104515075683594" lon="-118.45233154296875">
<ele>2847</ele>
<time>2016-10-12T01:25:23Z</time>
</trkpt>
<trkpt lat="37.1044921875" lon="-118.45223999023438">
<ele>2842</ele>
<time>2016-10-12T01:25:40Z</time>
</trkpt>
<trkpt lat="37.10441589355469" lon="-118.4521713256836">
<ele>2839</ele>
<time>2016-10-12T01:25:49Z</time>
</trkpt>
<trkpt lat="37.104331970214844" lon="-118.45211029052734">
<ele>2837</ele>
<time>2016-10-12T01:25:55Z</time>
</trkpt>
<trkpt lat="37.10427474975586" lon="-118.4520263671875">
<ele>2838</ele>
<time>2016-10-12T01:26:05Z</time>
</trkpt>
<trkpt lat="37.10425567626953" lon="-118.45196533203125">
<ele>2834</ele>
<time>2016-10-12T01:26:11Z</time>
</trkpt>
<trkpt lat="37.104251861572266" lon="-118.451904296875">
<ele>2831</ele>
<time>2016-10-12T01:26:17Z</time>
</trkpt>
<trkpt lat="37.10423278808594" lon="-118.45182037353516">
<ele>2833</ele>
<time>2016-10-12T01:26:23Z</time>
</trkpt>
<trkpt lat="37.1042366027832" lon="-118.4517593383789">
<ele>2830</ele>
<time>2016-10-12T01:26:30Z</time>
</trkpt>
<trkpt lat="37.104312896728516" lon="-118.45167541503906">
<ele>2821</ele>
<time>2016-10-12T01:26:39Z</time>
</trkpt>
<trkpt lat="37.10429382324219" lon="-118.45161437988281">
<ele>2833</ele>
<time>2016-10-12T01:27:08Z</time>
</trkpt>
<trkpt lat="37.10426712036133" lon="-118.45149230957031">
<ele>2833</ele>
<time>2016-10-12T01:27:17Z</time>
</trkpt>
<trkpt lat="37.10419464111328" lon="-118.45138549804688">
<ele>2830</ele>
<time>2016-10-12T01:27:23Z</time>
</trkpt>
<trkpt lat="37.10416793823242" lon="-118.45127868652344">
<ele>2825</ele>
<time>2016-10-12T01:27:33Z</time>
</trkpt>
<trkpt lat="37.10409164428711" lon="-118.45121002197266">
<ele>2825</ele>
<time>2016-10-12T01:27:43Z</time>
</trkpt>
<trkpt lat="37.10402297973633" lon="-118.45111846923828">
<ele>2823</ele>
<time>2016-10-12T01:27:55Z</time>
</trkpt>
<trkpt lat="37.1039924621582" lon="-118.45106506347656">
<ele>2822</ele>
<time>2016-10-12T01:28:01Z</time>
</trkpt>
<trkpt lat="37.10392379760742" lon="-118.4510498046875">
<ele>2825</ele>
<time>2016-10-12T01:28:15Z</time>
</trkpt>
<trkpt lat="37.10395431518555" lon="-118.45093536376953">
<ele>2827</ele>
<time>2016-10-12T01:28:23Z</time>
</trkpt>
<trkpt lat="37.10396194458008" lon="-118.45086669921875">
<ele>2827</ele>
<time>2016-10-12T01:28:29Z</time>
</trkpt>
<trkpt lat="37.10398483276367" lon="-118.45081329345703">
<ele>2826</ele>
<time>2016-10-12T01:28:43Z</time>
</trkpt>
<trkpt lat="37.104026794433594" lon="-118.45077514648438">
<ele>2826</ele>
<time>2016-10-12T01:28:51Z</time>
</trkpt>
<trkpt lat="37.104068756103516" lon="-118.45066833496094">
<ele>2825</ele>
<time>2016-10-12T01:29:01Z</time>
</trkpt>
<trkpt lat="37.104103088378906" lon="-118.45055389404297">
<ele>2824</ele>
<time>2016-10-12T01:29:11Z</time>
</trkpt>
<trkpt lat="37.1041259765625" lon="-118.45043182373047">
<ele>2821</ele>
<time>2016-10-12T01:29:21Z</time>
</trkpt>
<trkpt lat="37.10420227050781" lon="-118.45040130615234">
<ele>2822</ele>
<time>2016-10-12T01:29:40Z</time>
</trkpt>
<trkpt lat="37.10423278808594" lon="-118.45034790039063">
<ele>2821</ele>
<time>2016-10-12T01:29:49Z</time>
</trkpt>
<trkpt lat="37.1042594909668" lon="-118.4502944946289">
<ele>2817</ele>
<time>2016-10-12T01:29:58Z</time>
</trkpt>
<trkpt lat="37.10428237915039" lon="-118.45024871826172">
<ele>2816</ele>
<time>2016-10-12T01:30:05Z</time>
</trkpt>
<trkpt lat="37.104312896728516" lon="-118.45018768310547">
<ele>2817</ele>
<time>2016-10-12T01:30:13Z</time>
</trkpt>
<trkpt lat="37.104373931884766" lon="-118.4500961303711">
<ele>2820</ele>
<time>2016-10-12T01:30:22Z</time>
</trkpt>
<trkpt lat="37.10441589355469" lon="-118.45003509521484">
<ele>2815</ele>
<time>2016-10-12T01:30:29Z</time>
</trkpt>
<trkpt lat="37.10441207885742" lon="-118.44992065429688">
<ele>2811</ele>
<time>2016-10-12T01:30:41Z</time>
</trkpt>
<trkpt lat="37.10443115234375" lon="-118.44979095458984">
<ele>2810</ele>
<time>2016-10-12T01:30:49Z</time>
</trkpt>
<trkpt lat="37.104461669921875" lon="-118.44966125488281">
<ele>2810</ele>
<time>2016-10-12T01:30:57Z</time>
</trkpt>
<trkpt lat="37.10450744628906" lon="-118.44955444335938">
<ele>2809</ele>
<time>2016-10-12T01:31:06Z</time>
</trkpt>
<trkpt lat="37.10456085205078" lon="-118.44945526123047">
<ele>2806</ele>
<time>2016-10-12T01:31:15Z</time>
</trkpt>
<trkpt lat="37.10454177856445" lon="-118.44933319091797">
<ele>2803</ele>
<time>2016-10-12T01:31:23Z</time>
</trkpt>
<trkpt lat="37.10456848144531" lon="-118.44927215576172">
<ele>2802</ele>
<time>2016-10-12T01:31:31Z</time>
</trkpt>
<trkpt lat="37.10464096069336" lon="-118.4491958618164">
<ele>2802</ele>
<time>2016-10-12T01:31:38Z</time>
</trkpt>
<trkpt lat="37.10469436645508" lon="-118.4490966796875">
<ele>2797</ele>
<time>2016-10-12T01:31:46Z</time>
</trkpt>
<trkpt lat="37.10472106933594" lon="-118.44898223876953">
<ele>2799</ele>
<time>2016-10-12T01:31:54Z</time>
</trkpt>
<trkpt lat="37.104774475097656" lon="-118.44889068603516">
<ele>2800</ele>
<time>2016-10-12T01:32:04Z</time>
</trkpt>
<trkpt lat="37.104820251464844" lon="-118.44877624511719">
<ele>2798</ele>
<time>2016-10-12T01:32:14Z</time>
</trkpt>
<trkpt lat="37.10487365722656" lon="-118.44877624511719">
<ele>2792</ele>
<time>2016-10-12T01:32:23Z</time>
</trkpt>
<trkpt lat="37.104827880859375" lon="-118.44879150390625">
<ele>2782</ele>
<time>2016-10-12T01:32:50Z</time>
</trkpt>
<trkpt lat="37.104820251464844" lon="-118.4488525390625">
<ele>2782</ele>
<time>2016-10-12T01:32:56Z</time>
</trkpt>
<trkpt lat="37.10483169555664" lon="-118.44892120361328">
<ele>2783</ele>
<time>2016-10-12T01:33:06Z</time>
</trkpt>
<trkpt lat="37.10482406616211" lon="-118.44903564453125">
<ele>2785</ele>
<time>2016-10-12T01:33:14Z</time>
</trkpt>
<trkpt lat="37.10478973388672" lon="-118.44913482666016">
<ele>2790</ele>
<time>2016-10-12T01:33:23Z</time>
</trkpt>
<trkpt lat="37.104774475097656" lon="-118.44920349121094">
<ele>2793</ele>
<time>2016-10-12T01:33:30Z</time>
</trkpt>
<trkpt lat="37.10478591918945" lon="-118.44931030273438">
<ele>2789</ele>
<time>2016-10-12T01:33:46Z</time>
</trkpt>
<trkpt lat="37.104774475097656" lon="-118.44937133789063">
<ele>2788</ele>
<time>2016-10-12T01:33:52Z</time>
</trkpt>
<trkpt lat="37.10479736328125" lon="-118.44941711425781">
<ele>2788</ele>
<time>2016-10-12T01:33:59Z</time>
</trkpt>
<trkpt lat="37.10481643676758" lon="-118.4494857788086">
<ele>2790</ele>
<time>2016-10-12T01:34:06Z</time>
</trkpt>
<trkpt lat="37.1048469543457" lon="-118.4496078491211">
<ele>2789</ele>
<time>2016-10-12T01:34:20Z</time>
</trkpt>
<trkpt lat="37.104801177978516" lon="-118.4497299194336">
<ele>2790</ele>
<time>2016-10-12T01:34:26Z</time>
</trkpt>
<trkpt lat="37.10483932495117" lon="-118.44985961914063">
<ele>2787</ele>
<time>2016-10-12T01:34:33Z</time>
</trkpt>
<trkpt lat="37.10487365722656" lon="-118.44998168945313">
<ele>2782</ele>
<time>2016-10-12T01:34:41Z</time>
</trkpt>
<trkpt lat="37.10484313964844" lon="-118.45012664794922">
<ele>2778</ele>
<time>2016-10-12T01:34:48Z</time>
</trkpt>
<trkpt lat="37.10485076904297" lon="-118.45024108886719">
<ele>2779</ele>
<time>2016-10-12T01:34:57Z</time>
</trkpt>
<trkpt lat="37.1048469543457" lon="-118.45030975341797">
<ele>2777</ele>
<time>2016-10-12T01:35:03Z</time>
</trkpt>
<trkpt lat="37.10478973388672" lon="-118.45043182373047">
<ele>2775</ele>
<time>2016-10-12T01:35:11Z</time>
</trkpt>
<trkpt lat="37.10480880737305" lon="-118.45050048828125">
<ele>2776</ele>
<time>2016-10-12T01:35:17Z</time>
</trkpt>
<trkpt lat="37.10483932495117" lon="-118.45055389404297">
<ele>2773</ele>
<time>2016-10-12T01:35:23Z</time>
</trkpt>
<trkpt lat="37.1048698425293" lon="-118.45050048828125">
<ele>2776</ele>
<time>2016-10-12T01:35:29Z</time>
</trkpt>
<trkpt lat="37.10487365722656" lon="-118.450439453125">
<ele>2773</ele>
<time>2016-10-12T01:35:35Z</time>
</trkpt>
<trkpt lat="37.10490798950195" lon="-118.45039367675781">
<ele>2777</ele>
<time>2016-10-12T01:35:41Z</time>
</trkpt>
<trkpt lat="37.10497283935547" lon="-118.45030975341797">
<ele>2774</ele>
<time>2016-10-12T01:35:57Z</time>
</trkpt>
<trkpt lat="37.10498809814453" lon="-118.4501953125">
<ele>2774</ele>
<time>2016-10-12T01:36:09Z</time>
</trkpt>
<trkpt lat="37.105037689208984" lon="-118.45011138916016">
<ele>2774</ele>
<time>2016-10-12T01:36:23Z</time>
</trkpt>
<trkpt lat="37.10503005981445" lon="-118.45018005371094">
<ele>2770</ele>
<time>2016-10-12T01:36:29Z</time>
</trkpt>
<trkpt lat="37.1050910949707" lon="-118.45027923583984">
<ele>2768</ele>
<time>2016-10-12T01:36:37Z</time>
</trkpt>
<trkpt lat="37.10509490966797" lon="-118.45033264160156">
<ele>2764</ele>
<time>2016-10-12T01:36:44Z</time>
</trkpt>
<trkpt lat="37.10506057739258" lon="-118.45044708251953">
<ele>2762</ele>
<time>2016-10-12T01:36:52Z</time>
</trkpt>
<trkpt lat="37.105098724365234" lon="-118.4505615234375">
<ele>2762</ele>
<time>2016-10-12T01:37:00Z</time>
</trkpt>
<trkpt lat="37.1051139831543" lon="-118.45067596435547">
<ele>2759</ele>
<time>2016-10-12T01:37:08Z</time>
</trkpt>
<trkpt lat="37.105133056640625" lon="-118.45072937011719">
<ele>2756</ele>
<time>2016-10-12T01:37:14Z</time>
</trkpt>
<trkpt lat="37.10517883300781" lon="-118.45084381103516">
<ele>2755</ele>
<time>2016-10-12T01:37:23Z</time>
</trkpt>
<trkpt lat="37.105228424072266" lon="-118.45094299316406">
<ele>2756</ele>
<time>2016-10-12T01:37:32Z</time>
</trkpt>
<trkpt lat="37.10527038574219" lon="-118.45106506347656">
<ele>2753</ele>
<time>2016-10-12T01:37:40Z</time>
</trkpt>
<trkpt lat="37.10528564453125" lon="-118.45118713378906">
<ele>2750</ele>
<time>2016-10-12T01:37:50Z</time>
</trkpt>
<trkpt lat="37.10527801513672" lon="-118.4512939453125">
<ele>2743</ele>
<time>2016-10-12T01:38:01Z</time>
</trkpt>
<trkpt lat="37.10530090332031" lon="-118.451416015625">
<ele>2744</ele>
<time>2016-10-12T01:38:09Z</time>
</trkpt>
<trkpt lat="37.10532760620117" lon="-118.4515380859375">
<ele>2742</ele>
<time>2016-10-12T01:38:18Z</time>
</trkpt>
<trkpt lat="37.10539245605469" lon="-118.4516372680664">
<ele>2737</ele>
<time>2016-10-12T01:38:30Z</time>
</trkpt>
<trkpt lat="37.105430603027344" lon="-118.45174407958984">
<ele>2741</ele>
<time>2016-10-12T01:38:37Z</time>
</trkpt>
<trkpt lat="37.10547637939453" lon="-118.45172882080078">
<ele>2742</ele>
<time>2016-10-12T01:39:05Z</time>
</trkpt>
<trkpt lat="37.105499267578125" lon="-118.45164489746094">
<ele>2738</ele>
<time>2016-10-12T01:39:35Z</time>
</trkpt>
<trkpt lat="37.10546875" lon="-118.45153045654297">
<ele>2735</ele>
<time>2016-10-12T01:39:41Z</time>
</trkpt>
<trkpt lat="37.10544204711914" lon="-118.45142364501953">
<ele>2732</ele>
<time>2016-10-12T01:39:50Z</time>
</trkpt>
<trkpt lat="37.105464935302734" lon="-118.45130157470703">
<ele>2735</ele>
<time>2016-10-12T01:40:01Z</time>
</trkpt>
<trkpt lat="37.1054573059082" lon="-118.45120239257813">
<ele>2731</ele>
<time>2016-10-12T01:40:11Z</time>
</trkpt>
<trkpt lat="37.10551452636719" lon="-118.45108795166016">
<ele>2727</ele>
<time>2016-10-12T01:40:19Z</time>
</trkpt>
<trkpt lat="37.10551452636719" lon="-118.45098876953125">
<ele>2728</ele>
<time>2016-10-12T01:40:26Z</time>
</trkpt>
<trkpt lat="37.10546112060547" lon="-118.45088958740234">
<ele>2731</ele>
<time>2016-10-12T01:40:33Z</time>
</trkpt>
<trkpt lat="37.10551834106445" lon="-118.4507827758789">
<ele>2727</ele>
<time>2016-10-12T01:40:43Z</time>
</trkpt>
<trkpt lat="37.10553741455078" lon="-118.45072937011719">
<ele>2719</ele>
<time>2016-10-12T01:40:54Z</time>
</trkpt>
<trkpt lat="37.105613708496094" lon="-118.4506607055664">
<ele>2724</ele>
<time>2016-10-12T01:41:03Z</time>
</trkpt>
<trkpt lat="37.10560989379883" lon="-118.45059967041016">
<ele>2722</ele>
<time>2016-10-12T01:41:09Z</time>
</trkpt>
<trkpt lat="37.10557556152344" lon="-118.45052337646484">
<ele>2715</ele>
<time>2016-10-12T01:41:31Z</time>
</trkpt>
<trkpt lat="37.10557556152344" lon="-118.45045471191406">
<ele>2721</ele>
<time>2016-10-12T01:41:37Z</time>
</trkpt>
<trkpt lat="37.105560302734375" lon="-118.45040130615234">
<ele>2720</ele>
<time>2016-10-12T01:41:43Z</time>
</trkpt>
<trkpt lat="37.10557556152344" lon="-118.4503402709961">
<ele>2717</ele>
<time>2016-10-12T01:41:49Z</time>
</trkpt>
<trkpt lat="37.10560989379883" lon="-118.45038604736328">
<ele>2719</ele>
<time>2016-10-12T01:42:00Z</time>
</trkpt>
<trkpt lat="37.10563659667969" lon="-118.45043182373047">
<ele>2718</ele>
<time>2016-10-12T01:42:07Z</time>
</trkpt>
<trkpt lat="37.10566329956055" lon="-118.4505615234375">
<ele>2708</ele>
<time>2016-10-12T01:42:16Z</time>
</trkpt>
<trkpt lat="37.10568618774414" lon="-118.45061492919922">
<ele>2710</ele>
<time>2016-10-12T01:42:22Z</time>
</trkpt>
<trkpt lat="37.1057243347168" lon="-118.4506607055664">
<ele>2708</ele>
<time>2016-10-12T01:42:30Z</time>
</trkpt>
<trkpt lat="37.10578918457031" lon="-118.45056915283203">
<ele>2699</ele>
<time>2016-10-12T01:42:41Z</time>
</trkpt>
<trkpt lat="37.10578155517578" lon="-118.45050811767578">
<ele>2695</ele>
<time>2016-10-12T01:42:49Z</time>
</trkpt>
<trkpt lat="37.10582733154297" lon="-118.45038604736328">
<ele>2693</ele>
<time>2016-10-12T01:42:58Z</time>
</trkpt>
<trkpt lat="37.105838775634766" lon="-118.45025634765625">
<ele>2698</ele>
<time>2016-10-12T01:43:07Z</time>
</trkpt>
<trkpt lat="37.10580825805664" lon="-118.45021057128906">
<ele>2697</ele>
<time>2016-10-12T01:43:13Z</time>
</trkpt>
<trkpt lat="37.1058464050293" lon="-118.45030212402344">
<ele>2695</ele>
<time>2016-10-12T01:44:05Z</time>
</trkpt>
<trkpt lat="37.10590362548828" lon="-118.45040130615234">
<ele>2691</ele>
<time>2016-10-12T01:44:14Z</time>
</trkpt>
<trkpt lat="37.10593795776367" lon="-118.45051574707031">
<ele>2691</ele>
<time>2016-10-12T01:44:23Z</time>
</trkpt>
<trkpt lat="37.105926513671875" lon="-118.45064544677734">
<ele>2689</ele>
<time>2016-10-12T01:44:32Z</time>
</trkpt>
<trkpt lat="37.10594177246094" lon="-118.45077514648438">
<ele>2683</ele>
<time>2016-10-12T01:44:41Z</time>
</trkpt>
<trkpt lat="37.105979919433594" lon="-118.45089721679688">
<ele>2684</ele>
<time>2016-10-12T01:44:50Z</time>
</trkpt>
<trkpt lat="37.10600662231445" lon="-118.45084381103516">
<ele>2687</ele>
<time>2016-10-12T01:45:07Z</time>
</trkpt>
<trkpt lat="37.10604476928711" lon="-118.45073699951172">
<ele>2687</ele>
<time>2016-10-12T01:45:17Z</time>
</trkpt>
<trkpt lat="37.1060791015625" lon="-118.45069122314453">
<ele>2685</ele>
<time>2016-10-12T01:45:23Z</time>
</trkpt>
<trkpt lat="37.10612487792969" lon="-118.4506607055664">
<ele>2682</ele>
<time>2016-10-12T01:45:30Z</time>
</trkpt>
<trkpt lat="37.106075286865234" lon="-118.45067596435547">
<ele>2683</ele>
<time>2016-10-12T01:46:42Z</time>
</trkpt>
<trkpt lat="37.106117248535156" lon="-118.45064544677734">
<ele>2686</ele>
<time>2016-10-12T01:48:56Z</time>
</trkpt>
<trkpt lat="37.106163024902344" lon="-118.45064544677734">
<ele>2690</ele>
<time>2016-10-12T01:49:04Z</time>
</trkpt>
<trkpt lat="37.10618591308594" lon="-118.4505844116211">
<ele>2688</ele>
<time>2016-10-12T01:49:17Z</time>
</trkpt>
<trkpt lat="37.10619354248047" lon="-118.45052337646484">
<ele>2682</ele>
<time>2016-10-12T01:49:23Z</time>
</trkpt>
<trkpt lat="37.106201171875" lon="-118.45039367675781">
<ele>2686</ele>
<time>2016-10-12T01:49:32Z</time>
</trkpt>
<trkpt lat="37.10619354248047" lon="-118.45028686523438">
<ele>2685</ele>
<time>2016-10-12T01:49:41Z</time>
</trkpt>
<trkpt lat="37.1062126159668" lon="-118.4501724243164">
<ele>2686</ele>
<time>2016-10-12T01:49:52Z</time>
</trkpt>
<trkpt lat="37.10619354248047" lon="-118.45011138916016">
<ele>2685</ele>
<time>2016-10-12T01:49:58Z</time>
</trkpt>
<trkpt lat="37.10617446899414" lon="-118.45005798339844">
<ele>2676</ele>
<time>2016-10-12T01:50:04Z</time>
</trkpt>
<trkpt lat="37.106143951416016" lon="-118.449951171875">
<ele>2673</ele>
<time>2016-10-12T01:50:12Z</time>
</trkpt>
<trkpt lat="37.10613250732422" lon="-118.44982147216797">
<ele>2670</ele>
<time>2016-10-12T01:50:20Z</time>
</trkpt>
<trkpt lat="37.106136322021484" lon="-118.44973754882813">
<ele>2665</ele>
<time>2016-10-12T01:50:28Z</time>
</trkpt>
<trkpt lat="37.10611343383789" lon="-118.4496841430664">
<ele>2666</ele>
<time>2016-10-12T01:50:38Z</time>
</trkpt>
<trkpt lat="37.10612869262695" lon="-118.44956970214844">
<ele>2665</ele>
<time>2016-10-12T01:50:48Z</time>
</trkpt>
<trkpt lat="37.10614776611328" lon="-118.44950866699219">
<ele>2661</ele>
<time>2016-10-12T01:50:54Z</time>
</trkpt>
<trkpt lat="37.106201171875" lon="-118.44939422607422">
<ele>2658</ele>
<time>2016-10-12T01:51:06Z</time>
</trkpt>
<trkpt lat="37.10625076293945" lon="-118.4493179321289">
<ele>2662</ele>
<time>2016-10-12T01:51:13Z</time>
</trkpt>
<trkpt lat="37.10634231567383" lon="-118.44927215576172">
<ele>2658</ele>
<time>2016-10-12T01:51:21Z</time>
</trkpt>
<trkpt lat="37.10642623901367" lon="-118.44928741455078">
<ele>2655</ele>
<time>2016-10-12T01:51:27Z</time>
</trkpt>
<trkpt lat="37.1064567565918" lon="-118.44916534423828">
<ele>2657</ele>
<time>2016-10-12T01:51:34Z</time>
</trkpt>
<trkpt lat="37.10651397705078" lon="-118.44912719726563">
<ele>2651</ele>
<time>2016-10-12T01:51:49Z</time>
</trkpt>
<trkpt lat="37.1065559387207" lon="-118.44915008544922">
<ele>2649</ele>
<time>2016-10-12T01:51:55Z</time>
</trkpt>
<trkpt lat="37.106597900390625" lon="-118.44912719726563">
<ele>2640</ele>
<time>2016-10-12T01:52:01Z</time>
</trkpt>
<trkpt lat="37.106689453125" lon="-118.44917297363281">
<ele>2635</ele>
<time>2016-10-12T01:52:11Z</time>
</trkpt>
<trkpt lat="37.10675048828125" lon="-118.44924926757813">
<ele>2634</ele>
<time>2016-10-12T01:52:22Z</time>
</trkpt>
<trkpt lat="37.10680389404297" lon="-118.44926452636719">
<ele>2631</ele>
<time>2016-10-12T01:52:29Z</time>
</trkpt>
<trkpt lat="37.10685729980469" lon="-118.44925689697266">
<ele>2629</ele>
<time>2016-10-12T01:52:35Z</time>
</trkpt>
<trkpt lat="37.10690689086914" lon="-118.44926452636719">
<ele>2625</ele>
<time>2016-10-12T01:52:42Z</time>
</trkpt>
<trkpt lat="37.10695266723633" lon="-118.44928741455078">
<ele>2624</ele>
<time>2016-10-12T01:52:49Z</time>
</trkpt>
<trkpt lat="37.10708999633789" lon="-118.44932556152344">
<ele>2626</ele>
<time>2016-10-12T01:52:56Z</time>
</trkpt>
<trkpt lat="37.107139587402344" lon="-118.44934844970703">
<ele>2629</ele>
<time>2016-10-12T01:53:03Z</time>
</trkpt>
<trkpt lat="37.107242584228516" lon="-118.44938659667969">
<ele>2636</ele>
<time>2016-10-12T01:53:11Z</time>
</trkpt>
<trkpt lat="37.1073112487793" lon="-118.4493637084961">
<ele>2623</ele>
<time>2016-10-12T01:53:23Z</time>
</trkpt>
<trkpt lat="37.107364654541016" lon="-118.4493637084961">
<ele>2614</ele>
<time>2016-10-12T01:53:42Z</time>
</trkpt>
<trkpt lat="37.10746383666992" lon="-118.44940185546875">
<ele>2611</ele>
<time>2016-10-12T01:53:54Z</time>
</trkpt>
<trkpt lat="37.107513427734375" lon="-118.44940185546875">
<ele>2610</ele>
<time>2016-10-12T01:54:00Z</time>
</trkpt>
<trkpt lat="37.10759735107422" lon="-118.44947052001953">
<ele>2610</ele>
<time>2016-10-12T01:54:09Z</time>
</trkpt>
<trkpt lat="37.10769271850586" lon="-118.44943237304688">
<ele>2613</ele>
<time>2016-10-12T01:54:18Z</time>
</trkpt>
<trkpt lat="37.10764694213867" lon="-118.4493179321289">
<ele>2609</ele>
<time>2016-10-12T01:54:30Z</time>
</trkpt>
<trkpt lat="37.10773468017578" lon="-118.44927978515625">
<ele>2612</ele>
<time>2016-10-12T01:54:41Z</time>
</trkpt>
<trkpt lat="37.107852935791016" lon="-118.44931030273438">
<ele>2608</ele>
<time>2016-10-12T01:54:48Z</time>
</trkpt>
<trkpt lat="37.10797119140625" lon="-118.44929504394531">
<ele>2607</ele>
<time>2016-10-12T01:54:55Z</time>
</trkpt>
<trkpt lat="37.10801696777344" lon="-118.44932556152344">
<ele>2607</ele>
<time>2016-10-12T01:55:01Z</time>
</trkpt>
<trkpt lat="37.108062744140625" lon="-118.44935607910156">
<ele>2604</ele>
<time>2016-10-12T01:55:07Z</time>
</trkpt>
<trkpt lat="37.108150482177734" lon="-118.44939422607422">
<ele>2602</ele>
<time>2016-10-12T01:55:14Z</time>
</trkpt>
<trkpt lat="37.10822677612305" lon="-118.44949340820313">
<ele>2600</ele>
<time>2016-10-12T01:55:22Z</time>
</trkpt>
<trkpt lat="37.10832214355469" lon="-118.44960021972656">
<ele>2597</ele>
<time>2016-10-12T01:55:30Z</time>
</trkpt>
<trkpt lat="37.10846710205078" lon="-118.44970703125">
<ele>2598</ele>
<time>2016-10-12T01:55:38Z</time>
</trkpt>
<trkpt lat="37.10856246948242" lon="-118.44977569580078">
<ele>2601</ele>
<time>2016-10-12T01:55:45Z</time>
</trkpt>
<trkpt lat="37.10863494873047" lon="-118.44985961914063">
<ele>2597</ele>
<time>2016-10-12T01:55:55Z</time>
</trkpt>
<trkpt lat="37.10869216918945" lon="-118.44995880126953">
<ele>2597</ele>
<time>2016-10-12T01:56:05Z</time>
</trkpt>
<trkpt lat="37.10879898071289" lon="-118.45001220703125">
<ele>2596</ele>
<time>2016-10-12T01:56:12Z</time>
</trkpt>
<trkpt lat="37.10884094238281" lon="-118.44999694824219">
<ele>2591</ele>
<time>2016-10-12T01:56:20Z</time>
</trkpt>
<trkpt lat="37.10889434814453" lon="-118.4500732421875">
<ele>2590</ele>
<time>2016-10-12T01:56:28Z</time>
</trkpt>
<trkpt lat="37.10892868041992" lon="-118.45011901855469">
<ele>2587</ele>
<time>2016-10-12T01:56:34Z</time>
</trkpt>
<trkpt lat="37.10903549194336" lon="-118.45012664794922">
<ele>2587</ele>
<time>2016-10-12T01:56:43Z</time>
</trkpt>
<trkpt lat="37.10911560058594" lon="-118.45005798339844">
<ele>2590</ele>
<time>2016-10-12T01:56:51Z</time>
</trkpt>
<trkpt lat="37.10918045043945" lon="-118.44995880126953">
<ele>2590</ele>
<time>2016-10-12T01:56:57Z</time>
</trkpt>
<trkpt lat="37.10922622680664" lon="-118.44994354248047">
<ele>2597</ele>
<time>2016-10-12T01:57:11Z</time>
</trkpt>
<trkpt lat="37.10926818847656" lon="-118.44991302490234">
<ele>2598</ele>
<time>2016-10-12T01:57:23Z</time>
</trkpt>
<trkpt lat="37.10935592651367" lon="-118.44987487792969">
<ele>2598</ele>
<time>2016-10-12T01:57:31Z</time>
</trkpt>
<trkpt lat="37.10944747924805" lon="-118.44981384277344">
<ele>2601</ele>
<time>2016-10-12T01:57:43Z</time>
</trkpt>
<trkpt lat="37.109474182128906" lon="-118.44976806640625">
<ele>2605</ele>
<time>2016-10-12T01:57:50Z</time>
</trkpt>
<trkpt lat="37.10952377319336" lon="-118.44966125488281">
<ele>2603</ele>
<time>2016-10-12T01:57:59Z</time>
</trkpt>
<trkpt lat="37.10956954956055" lon="-118.4495620727539">
<ele>2610</ele>
<time>2016-10-12T01:58:23Z</time>
</trkpt>
<trkpt lat="37.109554290771484" lon="-118.44950866699219">
<ele>2612</ele>
<time>2016-10-12T01:58:36Z</time>
</trkpt>
<trkpt lat="37.10960006713867" lon="-118.44952392578125">
<ele>2611</ele>
<time>2016-10-12T01:58:56Z</time>
</trkpt>
<trkpt lat="37.10969543457031" lon="-118.44953918457031">
<ele>2609</ele>
<time>2016-10-12T01:59:04Z</time>
</trkpt>
<trkpt lat="37.10978698730469" lon="-118.44955444335938">
<ele>2606</ele>
<time>2016-10-12T01:59:12Z</time>
</trkpt>
<trkpt lat="37.10982894897461" lon="-118.4495849609375">
<ele>2606</ele>
<time>2016-10-12T01:59:19Z</time>
</trkpt>
<trkpt lat="37.109920501708984" lon="-118.4496078491211">
<ele>2589</ele>
<time>2016-10-12T01:59:56Z</time>
</trkpt>
<trkpt lat="37.11001205444336" lon="-118.44957733154297">
<ele>2596</ele>
<time>2016-10-12T02:00:06Z</time>
</trkpt>
<trkpt lat="37.110111236572266" lon="-118.44959259033203">
<ele>2593</ele>
<time>2016-10-12T02:00:15Z</time>
</trkpt>
<trkpt lat="37.11015701293945" lon="-118.44952392578125">
<ele>2604</ele>
<time>2016-10-12T02:02:07Z</time>
</trkpt>
<trkpt lat="37.1102180480957" lon="-118.44940185546875">
<ele>2601</ele>
<time>2016-10-12T02:02:15Z</time>
</trkpt>
<trkpt lat="37.11029815673828" lon="-118.44938659667969">
<ele>2598</ele>
<time>2016-10-12T02:02:23Z</time>
</trkpt>
<trkpt lat="37.11039352416992" lon="-118.44939422607422">
<ele>2593</ele>
<time>2016-10-12T02:02:32Z</time>
</trkpt>
<trkpt lat="37.110435485839844" lon="-118.44940185546875">
<ele>2591</ele>
<time>2016-10-12T02:02:38Z</time>
</trkpt>
<trkpt lat="37.11053466796875" lon="-118.44937896728516">
<ele>2590</ele>
<time>2016-10-12T02:02:45Z</time>
</trkpt>
<trkpt lat="37.11063003540039" lon="-118.44940948486328">
<ele>2593</ele>
<time>2016-10-12T02:02:52Z</time>
</trkpt>
<trkpt lat="37.11074447631836" lon="-118.44942474365234">
<ele>2586</ele>
<time>2016-10-12T02:03:05Z</time>
</trkpt>
<trkpt lat="37.11083984375" lon="-118.44941711425781">
<ele>2587</ele>
<time>2016-10-12T02:03:15Z</time>
</trkpt>
<trkpt lat="37.110870361328125" lon="-118.449462890625">
<ele>2586</ele>
<time>2016-10-12T02:03:21Z</time>
</trkpt>
<trkpt lat="37.11088562011719" lon="-118.44935607910156">
<ele>2581</ele>
<time>2016-10-12T02:03:39Z</time>
</trkpt>
<trkpt lat="37.11093521118164" lon="-118.44934844970703">
<ele>2574</ele>
<time>2016-10-12T02:03:52Z</time>
</trkpt>
<trkpt lat="37.11097717285156" lon="-118.44924926757813">
<ele>2574</ele>
<time>2016-10-12T02:04:00Z</time>
</trkpt>
<trkpt lat="37.11094284057617" lon="-118.44913482666016">
<ele>2572</ele>
<time>2016-10-12T02:04:08Z</time>
</trkpt>
<trkpt lat="37.1109504699707" lon="-118.4490737915039">
<ele>2571</ele>
<time>2016-10-12T02:04:16Z</time>
</trkpt>
<trkpt lat="37.11101531982422" lon="-118.44896697998047">
<ele>2571</ele>
<time>2016-10-12T02:04:23Z</time>
</trkpt>
<trkpt lat="37.11111831665039" lon="-118.44893646240234">
<ele>2572</ele>
<time>2016-10-12T02:04:33Z</time>
</trkpt>
<trkpt lat="37.11117172241211" lon="-118.44896697998047">
<ele>2565</ele>
<time>2016-10-12T02:04:40Z</time>
</trkpt>
<trkpt lat="37.111263275146484" lon="-118.44894409179688">
<ele>2559</ele>
<time>2016-10-12T02:04:51Z</time>
</trkpt>
<trkpt lat="37.111351013183594" lon="-118.44889068603516">
<ele>2560</ele>
<time>2016-10-12T02:04:58Z</time>
</trkpt>
<trkpt lat="37.1114387512207" lon="-118.4488296508789">
<ele>2561</ele>
<time>2016-10-12T02:05:07Z</time>
</trkpt>
<trkpt lat="37.11153793334961" lon="-118.4488525390625">
<ele>2561</ele>
<time>2016-10-12T02:05:15Z</time>
</trkpt>
<trkpt lat="37.1115608215332" lon="-118.44880676269531">
<ele>2565</ele>
<time>2016-10-12T02:05:21Z</time>
</trkpt>
<trkpt lat="37.11164093017578" lon="-118.4488525390625">
<ele>2564</ele>
<time>2016-10-12T02:05:35Z</time>
</trkpt>
<trkpt lat="37.11172103881836" lon="-118.44894409179688">
<ele>2567</ele>
<time>2016-10-12T02:05:43Z</time>
</trkpt>
<trkpt lat="37.111759185791016" lon="-118.44891357421875">
<ele>2560</ele>
<time>2016-10-12T02:05:56Z</time>
</trkpt>
<trkpt lat="37.111793518066406" lon="-118.4488754272461">
<ele>2559</ele>
<time>2016-10-12T02:06:02Z</time>
</trkpt>
<trkpt lat="37.11188507080078" lon="-118.4488296508789">
<ele>2551</ele>
<time>2016-10-12T02:06:11Z</time>
</trkpt>
<trkpt lat="37.11195755004883" lon="-118.44873809814453">
<ele>2545</ele>
<time>2016-10-12T02:06:19Z</time>
</trkpt>
<trkpt lat="37.11205291748047" lon="-118.4487075805664">
<ele>2544</ele>
<time>2016-10-12T02:06:29Z</time>
</trkpt>
<trkpt lat="37.112098693847656" lon="-118.44869232177734">
<ele>2542</ele>
<time>2016-10-12T02:06:35Z</time>
</trkpt>
<trkpt lat="37.11214828491211" lon="-118.44869232177734">
<ele>2543</ele>
<time>2016-10-12T02:06:41Z</time>
</trkpt>
<trkpt lat="37.112205505371094" lon="-118.44867706298828">
<ele>2546</ele>
<time>2016-10-12T02:06:52Z</time>
</trkpt>
<trkpt lat="37.112300872802734" lon="-118.44866943359375">
<ele>2548</ele>
<time>2016-10-12T02:07:04Z</time>
</trkpt>
<trkpt lat="37.11239242553711" lon="-118.44860076904297">
<ele>2547</ele>
<time>2016-10-12T02:07:13Z</time>
</trkpt>
<trkpt lat="37.11244583129883" lon="-118.44853210449219">
<ele>2544</ele>
<time>2016-10-12T02:07:23Z</time>
</trkpt>
<trkpt lat="37.112483978271484" lon="-118.44850158691406">
<ele>2543</ele>
<time>2016-10-12T02:07:30Z</time>
</trkpt>
<trkpt lat="37.11253356933594" lon="-118.44840240478516">
<ele>2546</ele>
<time>2016-10-12T02:07:40Z</time>
</trkpt>
<trkpt lat="37.112606048583984" lon="-118.44834899902344">
<ele>2543</ele>
<time>2016-10-12T02:07:51Z</time>
</trkpt>
<trkpt lat="37.112701416015625" lon="-118.4483642578125">
<ele>2543</ele>
<time>2016-10-12T02:07:59Z</time>
</trkpt>
<trkpt lat="37.11279296875" lon="-118.44837188720703">
<ele>2538</ele>
<time>2016-10-12T02:08:10Z</time>
</trkpt>
<trkpt lat="37.11288070678711" lon="-118.44831848144531">
<ele>2539</ele>
<time>2016-10-12T02:08:19Z</time>
</trkpt>
<trkpt lat="37.11296081542969" lon="-118.44832611083984">
<ele>2539</ele>
<time>2016-10-12T02:08:28Z</time>
</trkpt>
<trkpt lat="37.11305236816406" lon="-118.4482650756836">
<ele>2538</ele>
<time>2016-10-12T02:08:38Z</time>
</trkpt>
<trkpt lat="37.1130485534668" lon="-118.44820404052734">
<ele>2537</ele>
<time>2016-10-12T02:08:50Z</time>
</trkpt>
<trkpt lat="37.113101959228516" lon="-118.44818878173828">
<ele>2538</ele>
<time>2016-10-12T02:09:06Z</time>
</trkpt>
<trkpt lat="37.113155364990234" lon="-118.44817352294922">
<ele>2539</ele>
<time>2016-10-12T02:09:13Z</time>
</trkpt>
<trkpt lat="37.11320495605469" lon="-118.44817352294922">
<ele>2538</ele>
<time>2016-10-12T02:09:19Z</time>
</trkpt>
<trkpt lat="37.11333084106445" lon="-118.44819641113281">
<ele>2537</ele>
<time>2016-10-12T02:09:26Z</time>
</trkpt>
<trkpt lat="37.113433837890625" lon="-118.44818878173828">
<ele>2540</ele>
<time>2016-10-12T02:09:33Z</time>
</trkpt>
<trkpt lat="37.1135139465332" lon="-118.44812774658203">
<ele>2537</ele>
<time>2016-10-12T02:09:39Z</time>
</trkpt>
<trkpt lat="37.113616943359375" lon="-118.44808197021484">
<ele>2539</ele>
<time>2016-10-12T02:09:47Z</time>
</trkpt>
<trkpt lat="37.113712310791016" lon="-118.44803619384766">
<ele>2533</ele>
<time>2016-10-12T02:09:55Z</time>
</trkpt>
<trkpt lat="37.113739013671875" lon="-118.44790649414063">
<ele>2531</ele>
<time>2016-10-12T02:10:04Z</time>
</trkpt>
<trkpt lat="37.11378479003906" lon="-118.4478759765625">
<ele>2533</ele>
<time>2016-10-12T02:10:10Z</time>
</trkpt>
<trkpt lat="37.113834381103516" lon="-118.44779968261719">
<ele>2531</ele>
<time>2016-10-12T02:10:18Z</time>
</trkpt>
<trkpt lat="37.11387252807617" lon="-118.44773864746094">
<ele>2530</ele>
<time>2016-10-12T02:10:29Z</time>
</trkpt>
<trkpt lat="37.11391067504883" lon="-118.44769287109375">
<ele>2530</ele>
<time>2016-10-12T02:10:35Z</time>
</trkpt>
<trkpt lat="37.113922119140625" lon="-118.44757843017578">
<ele>2522</ele>
<time>2016-10-12T02:10:43Z</time>
</trkpt>
<trkpt lat="37.11398696899414" lon="-118.44746398925781">
<ele>2523</ele>
<time>2016-10-12T02:10:51Z</time>
</trkpt>
<trkpt lat="37.11402893066406" lon="-118.44744110107422">
<ele>2526</ele>
<time>2016-10-12T02:10:57Z</time>
</trkpt>
<trkpt lat="37.11408233642578" lon="-118.44741821289063">
<ele>2523</ele>
<time>2016-10-12T02:11:23Z</time>
</trkpt>
<trkpt lat="37.114131927490234" lon="-118.44733428955078">
<ele>2519</ele>
<time>2016-10-12T02:11:33Z</time>
</trkpt>
<trkpt lat="37.11418151855469" lon="-118.44721984863281">
<ele>2516</ele>
<time>2016-10-12T02:11:43Z</time>
</trkpt>
<trkpt lat="37.114131927490234" lon="-118.44711303710938">
<ele>2514</ele>
<time>2016-10-12T02:11:52Z</time>
</trkpt>
<trkpt lat="37.11418533325195" lon="-118.44699096679688">
<ele>2507</ele>
<time>2016-10-12T02:12:00Z</time>
</trkpt>
<trkpt lat="37.114234924316406" lon="-118.44696044921875">
<ele>2508</ele>
<time>2016-10-12T02:12:15Z</time>
</trkpt>
<trkpt lat="37.11430358886719" lon="-118.44689178466797">
<ele>2507</ele>
<time>2016-10-12T02:12:23Z</time>
</trkpt>
<trkpt lat="37.114356994628906" lon="-118.44679260253906">
<ele>2505</ele>
<time>2016-10-12T02:12:29Z</time>
</trkpt>
<trkpt lat="37.114437103271484" lon="-118.44673919677734">
<ele>2505</ele>
<time>2016-10-12T02:12:38Z</time>
</trkpt>
<trkpt lat="37.11452865600586" lon="-118.44673919677734">
<ele>2502</ele>
<time>2016-10-12T02:12:45Z</time>
</trkpt>
<trkpt lat="37.114627838134766" lon="-118.44671630859375">
<ele>2503</ele>
<time>2016-10-12T02:12:53Z</time>
</trkpt>
<trkpt lat="37.1147346496582" lon="-118.44670104980469">
<ele>2500</ele>
<time>2016-10-12T02:13:00Z</time>
</trkpt>
<trkpt lat="37.11478805541992" lon="-118.44670104980469">
<ele>2498</ele>
<time>2016-10-12T02:13:06Z</time>
</trkpt>
<trkpt lat="37.11488342285156" lon="-118.44670104980469">
<ele>2500</ele>
<time>2016-10-12T02:13:15Z</time>
</trkpt>
<trkpt lat="37.11497497558594" lon="-118.44669342041016">
<ele>2500</ele>
<time>2016-10-12T02:13:21Z</time>
</trkpt>
<trkpt lat="37.115055084228516" lon="-118.44672393798828">
<ele>2503</ele>
<time>2016-10-12T02:13:28Z</time>
</trkpt>
<trkpt lat="37.11512756347656" lon="-118.4466552734375">
<ele>2505</ele>
<time>2016-10-12T02:13:36Z</time>
</trkpt>
<trkpt lat="37.11521911621094" lon="-118.44661712646484">
<ele>2507</ele>
<time>2016-10-12T02:13:42Z</time>
</trkpt>
<trkpt lat="37.115325927734375" lon="-118.44662475585938">
<ele>2504</ele>
<time>2016-10-12T02:13:49Z</time>
</trkpt>
<trkpt lat="37.11542510986328" lon="-118.44664001464844">
<ele>2503</ele>
<time>2016-10-12T02:13:58Z</time>
</trkpt>
<trkpt lat="37.11540222167969" lon="-118.44651794433594">
<ele>2501</ele>
<time>2016-10-12T02:14:08Z</time>
</trkpt>
<trkpt lat="37.115455627441406" lon="-118.44648742675781">
<ele>2500</ele>
<time>2016-10-12T02:14:14Z</time>
</trkpt>
<trkpt lat="37.11552429199219" lon="-118.44645690917969">
<ele>2500</ele>
<time>2016-10-12T02:14:23Z</time>
</trkpt>
<trkpt lat="37.1156120300293" lon="-118.44640350341797">
<ele>2494</ele>
<time>2016-10-12T02:14:31Z</time>
</trkpt>
<trkpt lat="37.11571502685547" lon="-118.44634246826172">
<ele>2492</ele>
<time>2016-10-12T02:14:40Z</time>
</trkpt>
<trkpt lat="37.11579895019531" lon="-118.44629669189453">
<ele>2491</ele>
<time>2016-10-12T02:14:58Z</time>
</trkpt>
<trkpt lat="37.115848541259766" lon="-118.44627380371094">
<ele>2492</ele>
<time>2016-10-12T02:15:18Z</time>
</trkpt>
<trkpt lat="37.11597442626953" lon="-118.44625091552734">
<ele>2492</ele>
<time>2016-10-12T02:15:26Z</time>
</trkpt>
<trkpt lat="37.1160774230957" lon="-118.44622039794922">
<ele>2490</ele>
<time>2016-10-12T02:15:35Z</time>
</trkpt>
<trkpt lat="37.11610412597656" lon="-118.44609832763672">
<ele>2491</ele>
<time>2016-10-12T02:15:41Z</time>
</trkpt>
<trkpt lat="37.11606216430664" lon="-118.44599151611328">
<ele>2490</ele>
<time>2016-10-12T02:15:50Z</time>
</trkpt>
<trkpt lat="37.11610794067383" lon="-118.44599151611328">
<ele>2481</ele>
<time>2016-10-12T02:15:57Z</time>
</trkpt>
<trkpt lat="37.1162109375" lon="-118.44596099853516">
<ele>2484</ele>
<time>2016-10-12T02:16:05Z</time>
</trkpt>
<trkpt lat="37.11627960205078" lon="-118.44586944580078">
<ele>2484</ele>
<time>2016-10-12T02:16:13Z</time>
</trkpt>
<trkpt lat="37.116371154785156" lon="-118.44580841064453">
<ele>2484</ele>
<time>2016-10-12T02:16:22Z</time>
</trkpt>
<trkpt lat="37.11649703979492" lon="-118.44572448730469">
<ele>2489</ele>
<time>2016-10-12T02:16:30Z</time>
</trkpt>
<trkpt lat="37.11659622192383" lon="-118.44569396972656">
<ele>2482</ele>
<time>2016-10-12T02:16:36Z</time>
</trkpt>
<trkpt lat="37.11669158935547" lon="-118.44564056396484">
<ele>2482</ele>
<time>2016-10-12T02:16:45Z</time>
</trkpt>
<trkpt lat="37.11673355102539" lon="-118.44561004638672">
<ele>2483</ele>
<time>2016-10-12T02:16:51Z</time>
</trkpt>
<trkpt lat="37.11683654785156" lon="-118.44556427001953">
<ele>2482</ele>
<time>2016-10-12T02:16:58Z</time>
</trkpt>
<trkpt lat="37.11692428588867" lon="-118.44549560546875">
<ele>2480</ele>
<time>2016-10-12T02:17:05Z</time>
</trkpt>
<trkpt lat="37.11699676513672" lon="-118.4454345703125">
<ele>2480</ele>
<time>2016-10-12T02:17:11Z</time>
</trkpt>
<trkpt lat="37.1170654296875" lon="-118.44535064697266">
<ele>2478</ele>
<time>2016-10-12T02:17:18Z</time>
</trkpt>
<trkpt lat="37.11717987060547" lon="-118.44529724121094">
<ele>2475</ele>
<time>2016-10-12T02:17:28Z</time>
</trkpt>
<trkpt lat="37.11724853515625" lon="-118.44522857666016">
<ele>2476</ele>
<time>2016-10-12T02:17:35Z</time>
</trkpt>
<trkpt lat="37.11736297607422" lon="-118.44525909423828">
<ele>2468</ele>
<time>2016-10-12T02:17:42Z</time>
</trkpt>
<trkpt lat="37.117431640625" lon="-118.44515991210938">
<ele>2468</ele>
<time>2016-10-12T02:17:48Z</time>
</trkpt>
<trkpt lat="37.11753463745117" lon="-118.44510650634766">
<ele>2467</ele>
<time>2016-10-12T02:17:56Z</time>
</trkpt>
<trkpt lat="37.11763381958008" lon="-118.44508361816406">
<ele>2464</ele>
<time>2016-10-12T02:18:05Z</time>
</trkpt>
<trkpt lat="37.11769485473633" lon="-118.4450912475586">
<ele>2465</ele>
<time>2016-10-12T02:18:12Z</time>
</trkpt>
<trkpt lat="37.117767333984375" lon="-118.44503784179688">
<ele>2468</ele>
<time>2016-10-12T02:18:21Z</time>
</trkpt>
<trkpt lat="37.117862701416016" lon="-118.44512176513672">
<ele>2466</ele>
<time>2016-10-12T02:18:30Z</time>
</trkpt>
<trkpt lat="37.11794662475586" lon="-118.44519805908203">
<ele>2464</ele>
<time>2016-10-12T02:18:39Z</time>
</trkpt>
<trkpt lat="37.117977142333984" lon="-118.44523620605469">
<ele>2470</ele>
<time>2016-10-12T02:18:49Z</time>
</trkpt>
<trkpt lat="37.118003845214844" lon="-118.44529724121094">
<ele>2473</ele>
<time>2016-10-12T02:18:56Z</time>
</trkpt>
<trkpt lat="37.1180419921875" lon="-118.44534301757813">
<ele>2471</ele>
<time>2016-10-12T02:19:02Z</time>
</trkpt>
<trkpt lat="37.118106842041016" lon="-118.44535827636719">
<ele>2473</ele>
<time>2016-10-12T02:19:23Z</time>
</trkpt>
<trkpt lat="37.1181526184082" lon="-118.44539642333984">
<ele>2472</ele>
<time>2016-10-12T02:19:31Z</time>
</trkpt>
<trkpt lat="37.11819839477539" lon="-118.44539642333984">
<ele>2473</ele>
<time>2016-10-12T02:19:37Z</time>
</trkpt>
<trkpt lat="37.11830520629883" lon="-118.44544219970703">
<ele>2471</ele>
<time>2016-10-12T02:19:46Z</time>
</trkpt>
<trkpt lat="37.11833190917969" lon="-118.44536590576172">
<ele>2464</ele>
<time>2016-10-12T02:19:59Z</time>
</trkpt>
<trkpt lat="37.118282318115234" lon="-118.44535064697266">
<ele>2466</ele>
<time>2016-10-12T02:20:05Z</time>
</trkpt>
<trkpt lat="37.118221282958984" lon="-118.44527435302734">
<ele>2463</ele>
<time>2016-10-12T02:20:16Z</time>
</trkpt>
<trkpt lat="37.11825180053711" lon="-118.44522094726563">
<ele>2464</ele>
<time>2016-10-12T02:20:23Z</time>
</trkpt>
<trkpt lat="37.118350982666016" lon="-118.44524383544922">
<ele>2466</ele>
<time>2016-10-12T02:20:30Z</time>
</trkpt>
<trkpt lat="37.11844253540039" lon="-118.44520568847656">
<ele>2463</ele>
<time>2016-10-12T02:20:39Z</time>
</trkpt>
<trkpt lat="37.11849594116211" lon="-118.44510650634766">
<ele>2460</ele>
<time>2016-10-12T02:20:50Z</time>
</trkpt>
<trkpt lat="37.118534088134766" lon="-118.44506072998047">
<ele>2458</ele>
<time>2016-10-12T02:20:56Z</time>
</trkpt>
<trkpt lat="37.11854934692383" lon="-118.4449462890625">
<ele>2457</ele>
<time>2016-10-12T02:21:06Z</time>
</trkpt>
<trkpt lat="37.11865234375" lon="-118.44490051269531">
<ele>2454</ele>
<time>2016-10-12T02:21:13Z</time>
</trkpt>
<trkpt lat="37.11870574951172" lon="-118.44487762451172">
<ele>2450</ele>
<time>2016-10-12T02:21:19Z</time>
</trkpt>
<trkpt lat="37.11879348754883" lon="-118.44485473632813">
<ele>2453</ele>
<time>2016-10-12T02:21:27Z</time>
</trkpt>
<trkpt lat="37.1188850402832" lon="-118.44480895996094">
<ele>2451</ele>
<time>2016-10-12T02:21:33Z</time>
</trkpt>
<trkpt lat="37.11896896362305" lon="-118.44473266601563">
<ele>2453</ele>
<time>2016-10-12T02:21:39Z</time>
</trkpt>
<trkpt lat="37.11905288696289" lon="-118.44469451904297">
<ele>2450</ele>
<time>2016-10-12T02:21:47Z</time>
</trkpt>
<trkpt lat="37.11914825439453" lon="-118.44466400146484">
<ele>2448</ele>
<time>2016-10-12T02:21:56Z</time>
</trkpt>
<trkpt lat="37.119239807128906" lon="-118.44461059570313">
<ele>2448</ele>
<time>2016-10-12T02:22:03Z</time>
</trkpt>
<trkpt lat="37.119346618652344" lon="-118.444580078125">
<ele>2447</ele>
<time>2016-10-12T02:22:17Z</time>
</trkpt>
<trkpt lat="37.119422912597656" lon="-118.44454193115234">
<ele>2442</ele>
<time>2016-10-12T02:22:23Z</time>
</trkpt>
<trkpt lat="37.11952590942383" lon="-118.44451904296875">
<ele>2440</ele>
<time>2016-10-12T02:22:30Z</time>
</trkpt>
<trkpt lat="37.11961364746094" lon="-118.44446563720703">
<ele>2439</ele>
<time>2016-10-12T02:22:40Z</time>
</trkpt>
<trkpt lat="37.119720458984375" lon="-118.44445037841797">
<ele>2438</ele>
<time>2016-10-12T02:22:47Z</time>
</trkpt>
<trkpt lat="37.11981201171875" lon="-118.44438171386719">
<ele>2439</ele>
<time>2016-10-12T02:22:55Z</time>
</trkpt>
<trkpt lat="37.11992645263672" lon="-118.44434356689453">
<ele>2436</ele>
<time>2016-10-12T02:23:01Z</time>
</trkpt>
<trkpt lat="37.12003707885742" lon="-118.44432830810547">
<ele>2437</ele>
<time>2016-10-12T02:23:07Z</time>
</trkpt>
<trkpt lat="37.120121002197266" lon="-118.44427490234375">
<ele>2439</ele>
<time>2016-10-12T02:23:13Z</time>
</trkpt>
<trkpt lat="37.120216369628906" lon="-118.44425964355469">
<ele>2443</ele>
<time>2016-10-12T02:23:21Z</time>
</trkpt>
<trkpt lat="37.12029266357422" lon="-118.44427490234375">
<ele>2441</ele>
<time>2016-10-12T02:23:29Z</time>
</trkpt>
<trkpt lat="37.120399475097656" lon="-118.44425964355469">
<ele>2440</ele>
<time>2016-10-12T02:23:36Z</time>
</trkpt>
<trkpt lat="37.12050247192383" lon="-118.44425964355469">
<ele>2435</ele>
<time>2016-10-12T02:23:46Z</time>
</trkpt>
<trkpt lat="37.120601654052734" lon="-118.44422149658203">
<ele>2436</ele>
<time>2016-10-12T02:23:54Z</time>
</trkpt>
<trkpt lat="37.12070083618164" lon="-118.4441909790039">
<ele>2437</ele>
<time>2016-10-12T02:24:04Z</time>
</trkpt>
<trkpt lat="37.12079620361328" lon="-118.4442138671875">
<ele>2437</ele>
<time>2016-10-12T02:24:10Z</time>
</trkpt>
<trkpt lat="37.120880126953125" lon="-118.44419860839844">
<ele>2437</ele>
<time>2016-10-12T02:24:23Z</time>
</trkpt>
<trkpt lat="37.12091827392578" lon="-118.44424438476563">
<ele>2436</ele>
<time>2016-10-12T02:24:56Z</time>
</trkpt>
<trkpt lat="37.12089157104492" lon="-118.4441909790039">
<ele>2435</ele>
<time>2016-10-12T02:25:52Z</time>
</trkpt>
<trkpt lat="37.1208610534668" lon="-118.44424438476563">
<ele>2427</ele>
<time>2016-10-12T02:26:22Z</time>
</trkpt>
<trkpt lat="37.120941162109375" lon="-118.44417572021484">
<ele>2427</ele>
<time>2016-10-12T02:27:19Z</time>
</trkpt>
<trkpt lat="37.121070861816406" lon="-118.44419860839844">
<ele>2428</ele>
<time>2016-10-12T02:27:26Z</time>
</trkpt>
<trkpt lat="37.12123489379883" lon="-118.44418334960938">
<ele>2424</ele>
<time>2016-10-12T02:27:34Z</time>
</trkpt>
<trkpt lat="37.12135314941406" lon="-118.44416046142578">
<ele>2422</ele>
<time>2016-10-12T02:27:40Z</time>
</trkpt>
<trkpt lat="37.12145233154297" lon="-118.44412231445313">
<ele>2422</ele>
<time>2016-10-12T02:27:46Z</time>
</trkpt>
<trkpt lat="37.121559143066406" lon="-118.44412231445313">
<ele>2422</ele>
<time>2016-10-12T02:27:52Z</time>
</trkpt>
<trkpt lat="37.12167739868164" lon="-118.44413757324219">
<ele>2419</ele>
<time>2016-10-12T02:27:59Z</time>
</trkpt>
<trkpt lat="37.121768951416016" lon="-118.44413757324219">
<ele>2422</ele>
<time>2016-10-12T02:28:10Z</time>
</trkpt>
<trkpt lat="37.12186813354492" lon="-118.4441146850586">
<ele>2419</ele>
<time>2016-10-12T02:28:17Z</time>
</trkpt>
<trkpt lat="37.1219596862793" lon="-118.4441146850586">
<ele>2420</ele>
<time>2016-10-12T02:28:23Z</time>
</trkpt>
<trkpt lat="37.12205505371094" lon="-118.44414520263672">
<ele>2420</ele>
<time>2016-10-12T02:28:30Z</time>
</trkpt>
<trkpt lat="37.12210464477539" lon="-118.44413757324219">
<ele>2417</ele>
<time>2016-10-12T02:28:36Z</time>
</trkpt>
<trkpt lat="37.122154235839844" lon="-118.44412231445313">
<ele>2414</ele>
<time>2016-10-12T02:28:43Z</time>
</trkpt>
<trkpt lat="37.1222038269043" lon="-118.44412994384766">
<ele>2415</ele>
<time>2016-10-12T02:28:49Z</time>
</trkpt>
<trkpt lat="37.12223815917969" lon="-118.44408416748047">
<ele>2417</ele>
<time>2016-10-12T02:28:57Z</time>
</trkpt>
<trkpt lat="37.12228012084961" lon="-118.44405364990234">
<ele>2416</ele>
<time>2016-10-12T02:29:03Z</time>
</trkpt>
<trkpt lat="37.12238693237305" lon="-118.44400024414063">
<ele>2417</ele>
<time>2016-10-12T02:29:11Z</time>
</trkpt>
<trkpt lat="37.1224365234375" lon="-118.4439926147461">
<ele>2417</ele>
<time>2016-10-12T02:29:18Z</time>
</trkpt>
<trkpt lat="37.12253952026367" lon="-118.44396209716797">
<ele>2412</ele>
<time>2016-10-12T02:29:27Z</time>
</trkpt>
<trkpt lat="37.12263870239258" lon="-118.44390869140625">
<ele>2409</ele>
<time>2016-10-12T02:29:35Z</time>
</trkpt>
<trkpt lat="37.122676849365234" lon="-118.44378662109375">
<ele>2409</ele>
<time>2016-10-12T02:29:44Z</time>
</trkpt>
<trkpt lat="37.122718811035156" lon="-118.44367980957031">
<ele>2407</ele>
<time>2016-10-12T02:29:54Z</time>
</trkpt>
<trkpt lat="37.12278747558594" lon="-118.4435806274414">
<ele>2404</ele>
<time>2016-10-12T02:30:04Z</time>
</trkpt>
<trkpt lat="37.12281036376953" lon="-118.44351959228516">
<ele>2403</ele>
<time>2016-10-12T02:30:10Z</time>
</trkpt>
<trkpt lat="37.12287521362305" lon="-118.44342803955078">
<ele>2403</ele>
<time>2016-10-12T02:30:20Z</time>
</trkpt>
<trkpt lat="37.12294387817383" lon="-118.4433364868164">
<ele>2404</ele>
<time>2016-10-12T02:30:27Z</time>
</trkpt>
<trkpt lat="37.12303161621094" lon="-118.44328308105469">
<ele>2404</ele>
<time>2016-10-12T02:30:36Z</time>
</trkpt>
<trkpt lat="37.12314224243164" lon="-118.44324493408203">
<ele>2404</ele>
<time>2016-10-12T02:30:44Z</time>
</trkpt>
<trkpt lat="37.12324142456055" lon="-118.44319152832031">
<ele>2408</ele>
<time>2016-10-12T02:30:51Z</time>
</trkpt>
<trkpt lat="37.123390197753906" lon="-118.44312286376953">
<ele>2410</ele>
<time>2016-10-12T02:30:59Z</time>
</trkpt>
<trkpt lat="37.12348175048828" lon="-118.44306945800781">
<ele>2405</ele>
<time>2016-10-12T02:31:08Z</time>
</trkpt>
<trkpt lat="37.12353515625" lon="-118.44306182861328">
<ele>2402</ele>
<time>2016-10-12T02:31:15Z</time>
</trkpt>
<trkpt lat="37.12361145019531" lon="-118.44302368164063">
<ele>2400</ele>
<time>2016-10-12T02:31:23Z</time>
</trkpt>
<trkpt lat="37.12369155883789" lon="-118.44296264648438">
<ele>2401</ele>
<time>2016-10-12T02:31:33Z</time>
</trkpt>
<trkpt lat="37.12376403808594" lon="-118.44284057617188">
<ele>2400</ele>
<time>2016-10-12T02:31:49Z</time>
</trkpt>
<trkpt lat="37.123836517333984" lon="-118.44275665283203">
<ele>2399</ele>
<time>2016-10-12T02:31:55Z</time>
</trkpt>
<trkpt lat="37.12390899658203" lon="-118.44266510009766">
<ele>2395</ele>
<time>2016-10-12T02:32:03Z</time>
</trkpt>
<trkpt lat="37.123992919921875" lon="-118.44261169433594">
<ele>2394</ele>
<time>2016-10-12T02:32:11Z</time>
</trkpt>
<trkpt lat="37.124019622802734" lon="-118.44255065917969">
<ele>2394</ele>
<time>2016-10-12T02:32:17Z</time>
</trkpt>
<trkpt lat="37.12406539916992" lon="-118.4425048828125">
<ele>2397</ele>
<time>2016-10-12T02:32:23Z</time>
</trkpt>
<trkpt lat="37.12410354614258" lon="-118.44245910644531">
<ele>2395</ele>
<time>2016-10-12T02:32:29Z</time>
</trkpt>
<trkpt lat="37.12416076660156" lon="-118.4423599243164">
<ele>2394</ele>
<time>2016-10-12T02:32:36Z</time>
</trkpt>
<trkpt lat="37.12422180175781" lon="-118.44227600097656">
<ele>2393</ele>
<time>2016-10-12T02:32:42Z</time>
</trkpt>
<trkpt lat="37.12429428100586" lon="-118.44217681884766">
<ele>2390</ele>
<time>2016-10-12T02:32:51Z</time>
</trkpt>
<trkpt lat="37.12437057495117" lon="-118.44209289550781">
<ele>2390</ele>
<time>2016-10-12T02:33:00Z</time>
</trkpt>
<trkpt lat="37.124393463134766" lon="-118.4420394897461">
<ele>2390</ele>
<time>2016-10-12T02:33:06Z</time>
</trkpt>
<trkpt lat="37.12443161010742" lon="-118.44193267822266">
<ele>2391</ele>
<time>2016-10-12T02:33:15Z</time>
</trkpt>
<trkpt lat="37.12451934814453" lon="-118.44188690185547">
<ele>2391</ele>
<time>2016-10-12T02:33:23Z</time>
</trkpt>
<trkpt lat="37.12459945678711" lon="-118.44181823730469">
<ele>2390</ele>
<time>2016-10-12T02:33:31Z</time>
</trkpt>
<trkpt lat="37.12467575073242" lon="-118.4417495727539">
<ele>2386</ele>
<time>2016-10-12T02:33:38Z</time>
</trkpt>
<trkpt lat="37.12473678588867" lon="-118.44163513183594">
<ele>2388</ele>
<time>2016-10-12T02:33:46Z</time>
</trkpt>
<trkpt lat="37.12471389770508" lon="-118.4415054321289">
<ele>2386</ele>
<time>2016-10-12T02:33:54Z</time>
</trkpt>
<trkpt lat="37.12471008300781" lon="-118.4413833618164">
<ele>2385</ele>
<time>2016-10-12T02:34:01Z</time>
</trkpt>
<trkpt lat="37.124778747558594" lon="-118.44127655029297">
<ele>2387</ele>
<time>2016-10-12T02:34:08Z</time>
</trkpt>
<trkpt lat="37.12479782104492" lon="-118.44121551513672">
<ele>2388</ele>
<time>2016-10-12T02:34:14Z</time>
</trkpt>
<trkpt lat="37.12480545043945" lon="-118.44109344482422">
<ele>2384</ele>
<time>2016-10-12T02:34:23Z</time>
</trkpt>
<trkpt lat="37.12477493286133" lon="-118.44095611572266">
<ele>2379</ele>
<time>2016-10-12T02:34:31Z</time>
</trkpt>
<trkpt lat="37.124732971191406" lon="-118.44097900390625">
<ele>2376</ele>
<time>2016-10-12T02:34:42Z</time>
</trkpt>
<trkpt lat="37.12467956542969" lon="-118.44107818603516">
<ele>2373</ele>
<time>2016-10-12T02:34:52Z</time>
</trkpt>
<trkpt lat="37.1246337890625" lon="-118.44119262695313">
<ele>2371</ele>
<time>2016-10-12T02:35:00Z</time>
</trkpt>
<trkpt lat="37.12461471557617" lon="-118.44113159179688">
<ele>2370</ele>
<time>2016-10-12T02:35:13Z</time>
</trkpt>
<trkpt lat="37.124595642089844" lon="-118.44107818603516">
<ele>2371</ele>
<time>2016-10-12T02:35:22Z</time>
</trkpt>
<trkpt lat="37.12453842163086" lon="-118.44107055664063">
<ele>2369</ele>
<time>2016-10-12T02:35:29Z</time>
</trkpt>
<trkpt lat="37.12446594238281" lon="-118.44098663330078">
<ele>2368</ele>
<time>2016-10-12T02:35:36Z</time>
</trkpt>
<trkpt lat="37.12443542480469" lon="-118.44093322753906">
<ele>2371</ele>
<time>2016-10-12T02:35:42Z</time>
</trkpt>
<trkpt lat="37.124393463134766" lon="-118.44091796875">
<ele>2368</ele>
<time>2016-10-12T02:36:03Z</time>
</trkpt>
<trkpt lat="37.12443161010742" lon="-118.44086456298828">
<ele>2372</ele>
<time>2016-10-12T02:36:16Z</time>
</trkpt>
<trkpt lat="37.12446594238281" lon="-118.44078826904297">
<ele>2366</ele>
<time>2016-10-12T02:36:23Z</time>
</trkpt>
<trkpt lat="37.12446975708008" lon="-118.44066619873047">
<ele>2361</ele>
<time>2016-10-12T02:36:33Z</time>
</trkpt>
<trkpt lat="37.124454498291016" lon="-118.4405288696289">
<ele>2361</ele>
<time>2016-10-12T02:36:42Z</time>
</trkpt>
<trkpt lat="37.12443542480469" lon="-118.44041442871094">
<ele>2361</ele>
<time>2016-10-12T02:36:49Z</time>
</trkpt>
<trkpt lat="37.12444305419922" lon="-118.44027709960938">
<ele>2362</ele>
<time>2016-10-12T02:36:58Z</time>
</trkpt>
<trkpt lat="37.124515533447266" lon="-118.44019317626953">
<ele>2365</ele>
<time>2016-10-12T02:37:05Z</time>
</trkpt>
<trkpt lat="37.124534606933594" lon="-118.4400863647461">
<ele>2369</ele>
<time>2016-10-12T02:37:19Z</time>
</trkpt>
<trkpt lat="37.12449264526367" lon="-118.43998718261719">
<ele>2367</ele>
<time>2016-10-12T02:37:26Z</time>
</trkpt>
<trkpt lat="37.124446868896484" lon="-118.43988800048828">
<ele>2369</ele>
<time>2016-10-12T02:37:32Z</time>
</trkpt>
<trkpt lat="37.12444305419922" lon="-118.43976593017578">
<ele>2365</ele>
<time>2016-10-12T02:37:41Z</time>
</trkpt>
<trkpt lat="37.12448501586914" lon="-118.43964385986328">
<ele>2361</ele>
<time>2016-10-12T02:37:49Z</time>
</trkpt>
<trkpt lat="37.124534606933594" lon="-118.43954467773438">
<ele>2362</ele>
<time>2016-10-12T02:37:57Z</time>
</trkpt>
<trkpt lat="37.12456130981445" lon="-118.4394302368164">
<ele>2363</ele>
<time>2016-10-12T02:38:06Z</time>
</trkpt>
<trkpt lat="37.124610900878906" lon="-118.4393310546875">
<ele>2365</ele>
<time>2016-10-12T02:38:14Z</time>
</trkpt>
</trkseg>
</trk>
<trk>
<name><![CDATA[state]]></name>
<number>47</number>
<extensions><topografix:color>ff000066</topografix:color></extensions>
<trkseg>
<trkpt lat="36.79641342163086" lon="-118.58354187011719">
<ele>1496</ele>
<time>2016-10-21T09:15:21Z</time>
</trkpt>
<trkpt lat="36.79645919799805" lon="-118.58352661132813">
<ele>1509</ele>
<time>2016-10-21T09:15:33Z</time>
</trkpt>
<trkpt lat="36.79642105102539" lon="-118.58358001708984">
<ele>1512</ele>
<time>2016-10-21T09:15:44Z</time>
</trkpt>
<trkpt lat="36.79644775390625" lon="-118.58352661132813">
<ele>1513</ele>
<time>2016-10-21T09:15:50Z</time>
</trkpt>
<trkpt lat="36.79653549194336" lon="-118.58348846435547">
<ele>1520</ele>
<time>2016-10-21T09:16:02Z</time>
</trkpt>
<trkpt lat="36.79658126831055" lon="-118.58346557617188">
<ele>1520</ele>
<time>2016-10-21T09:16:10Z</time>
</trkpt>
<trkpt lat="36.79668045043945" lon="-118.58342742919922">
<ele>1521</ele>
<time>2016-10-21T09:16:18Z</time>
</trkpt>
<trkpt lat="36.796783447265625" lon="-118.58343505859375">
<ele>1521</ele>
<time>2016-10-21T09:16:24Z</time>
</trkpt>
<trkpt lat="36.796871185302734" lon="-118.58338165283203">
<ele>1522</ele>
<time>2016-10-21T09:16:42Z</time>
</trkpt>
<trkpt lat="36.79695129394531" lon="-118.58328247070313">
<ele>1524</ele>
<time>2016-10-21T09:16:49Z</time>
</trkpt>
<trkpt lat="36.79698944091797" lon="-118.58323669433594">
<ele>1526</ele>
<time>2016-10-21T09:16:55Z</time>
</trkpt>
<trkpt lat="36.797019958496094" lon="-118.58319091796875">
<ele>1523</ele>
<time>2016-10-21T09:17:20Z</time>
</trkpt>
<trkpt lat="36.79704284667969" lon="-118.58313751220703">
<ele>1522</ele>
<time>2016-10-21T09:17:52Z</time>
</trkpt>
<trkpt lat="36.79707336425781" lon="-118.58301544189453">
<ele>1526</ele>
<time>2016-10-21T09:18:03Z</time>
</trkpt>
<trkpt lat="36.79713439941406" lon="-118.58291625976563">
<ele>1528</ele>
<time>2016-10-21T09:18:11Z</time>
</trkpt>
<trkpt lat="36.797203063964844" lon="-118.58281707763672">
<ele>1528</ele>
<time>2016-10-21T09:18:19Z</time>
</trkpt>
<trkpt lat="36.79727554321289" lon="-118.58271789550781">
<ele>1529</ele>
<time>2016-10-21T09:18:26Z</time>
</trkpt>
<trkpt lat="36.79727554321289" lon="-118.58265686035156">
<ele>1532</ele>
<time>2016-10-21T09:18:33Z</time>
</trkpt>
<trkpt lat="36.79734802246094" lon="-118.5827407836914">
<ele>1534</ele>
<time>2016-10-21T09:18:41Z</time>
</trkpt>
<trkpt lat="36.79743957519531" lon="-118.58283233642578">
<ele>1533</ele>
<time>2016-10-21T09:18:48Z</time>
</trkpt>
<trkpt lat="36.797489166259766" lon="-118.58293151855469">
<ele>1529</ele>
<time>2016-10-21T09:18:55Z</time>
</trkpt>
<trkpt lat="36.79752731323242" lon="-118.58304595947266">
<ele>1529</ele>
<time>2016-10-21T09:19:04Z</time>
</trkpt>
<trkpt lat="36.797603607177734" lon="-118.58312225341797">
<ele>1531</ele>
<time>2016-10-21T09:19:14Z</time>
</trkpt>
<trkpt lat="36.79767608642578" lon="-118.58322143554688">
<ele>1532</ele>
<time>2016-10-21T09:19:22Z</time>
</trkpt>
<trkpt lat="36.797733306884766" lon="-118.58332824707031">
<ele>1535</ele>
<time>2016-10-21T09:19:32Z</time>
</trkpt>
<trkpt lat="36.79777908325195" lon="-118.58330535888672">
<ele>1538</ele>
<time>2016-10-21T09:19:39Z</time>
</trkpt>
<trkpt lat="36.79780960083008" lon="-118.58317565917969">
<ele>1542</ele>
<time>2016-10-21T09:19:49Z</time>
</trkpt>
<trkpt lat="36.797828674316406" lon="-118.58306121826172">
<ele>1553</ele>
<time>2016-10-21T09:19:58Z</time>
</trkpt>
<trkpt lat="36.797882080078125" lon="-118.58296203613281">
<ele>1555</ele>
<time>2016-10-21T09:20:07Z</time>
</trkpt>
<trkpt lat="36.79796600341797" lon="-118.58290100097656">
<ele>1557</ele>
<time>2016-10-21T09:20:14Z</time>
</trkpt>
<trkpt lat="36.798004150390625" lon="-118.58285522460938">
<ele>1557</ele>
<time>2016-10-21T09:20:21Z</time>
</trkpt>
<trkpt lat="36.79803466796875" lon="-118.58279418945313">
<ele>1558</ele>
<time>2016-10-21T09:20:30Z</time>
</trkpt>
<trkpt lat="36.798099517822266" lon="-118.58270263671875">
<ele>1557</ele>
<time>2016-10-21T09:20:37Z</time>
</trkpt>
<trkpt lat="36.798152923583984" lon="-118.58259582519531">
<ele>1559</ele>
<time>2016-10-21T09:20:46Z</time>
</trkpt>
<trkpt lat="36.79820251464844" lon="-118.58247375488281">
<ele>1559</ele>
<time>2016-10-21T09:20:56Z</time>
</trkpt>
<trkpt lat="36.7982292175293" lon="-118.58255004882813">
<ele>1558</ele>
<time>2016-10-21T09:21:15Z</time>
</trkpt>
<trkpt lat="36.79823684692383" lon="-118.58263397216797">
<ele>1557</ele>
<time>2016-10-21T09:21:21Z</time>
</trkpt>
<trkpt lat="36.79823303222656" lon="-118.58274841308594">
<ele>1560</ele>
<time>2016-10-21T09:21:29Z</time>
</trkpt>
<trkpt lat="36.79816818237305" lon="-118.58283996582031">
<ele>1560</ele>
<time>2016-10-21T09:21:35Z</time>
</trkpt>
<trkpt lat="36.798179626464844" lon="-118.5829086303711">
<ele>1560</ele>
<time>2016-10-21T09:21:41Z</time>
</trkpt>
<trkpt lat="36.798240661621094" lon="-118.58299255371094">
<ele>1560</ele>
<time>2016-10-21T09:21:49Z</time>
</trkpt>
<trkpt lat="36.79827117919922" lon="-118.58309936523438">
<ele>1561</ele>
<time>2016-10-21T09:21:57Z</time>
</trkpt>
<trkpt lat="36.79827880859375" lon="-118.5832290649414">
<ele>1565</ele>
<time>2016-10-21T09:22:06Z</time>
</trkpt>
<trkpt lat="36.79832458496094" lon="-118.58333587646484">
<ele>1566</ele>
<time>2016-10-21T09:22:13Z</time>
</trkpt>
<trkpt lat="36.798309326171875" lon="-118.58345794677734">
<ele>1566</ele>
<time>2016-10-21T09:22:21Z</time>
</trkpt>
<trkpt lat="36.7983283996582" lon="-118.58357238769531">
<ele>1565</ele>
<time>2016-10-21T09:22:29Z</time>
</trkpt>
<trkpt lat="36.79832458496094" lon="-118.58370208740234">
<ele>1567</ele>
<time>2016-10-21T09:22:37Z</time>
</trkpt>
<trkpt lat="36.798309326171875" lon="-118.58381652832031">
<ele>1570</ele>
<time>2016-10-21T09:22:47Z</time>
</trkpt>
<trkpt lat="36.798362731933594" lon="-118.58377838134766">
<ele>1576</ele>
<time>2016-10-21T09:23:56Z</time>
</trkpt>
<trkpt lat="36.79840850830078" lon="-118.58365631103516">
<ele>1576</ele>
<time>2016-10-21T09:24:05Z</time>
</trkpt>
<trkpt lat="36.79844284057617" lon="-118.58354187011719">
<ele>1577</ele>
<time>2016-10-21T09:24:14Z</time>
</trkpt>
<trkpt lat="36.798465728759766" lon="-118.58344268798828">
<ele>1579</ele>
<time>2016-10-21T09:24:21Z</time>
</trkpt>
<trkpt lat="36.79850769042969" lon="-118.58333587646484">
<ele>1584</ele>
<time>2016-10-21T09:24:29Z</time>
</trkpt>
<trkpt lat="36.79856491088867" lon="-118.5832290649414">
<ele>1585</ele>
<time>2016-10-21T09:24:38Z</time>
</trkpt>
<trkpt lat="36.79865264892578" lon="-118.58314514160156">
<ele>1585</ele>
<time>2016-10-21T09:24:47Z</time>
</trkpt>
<trkpt lat="36.7987060546875" lon="-118.58303833007813">
<ele>1589</ele>
<time>2016-10-21T09:24:54Z</time>
</trkpt>
<trkpt lat="36.79875946044922" lon="-118.58292388916016">
<ele>1591</ele>
<time>2016-10-21T09:25:03Z</time>
</trkpt>
<trkpt lat="36.79876708984375" lon="-118.58280181884766">
<ele>1592</ele>
<time>2016-10-21T09:25:12Z</time>
</trkpt>
<trkpt lat="36.79878616333008" lon="-118.58267974853516">
<ele>1595</ele>
<time>2016-10-21T09:25:21Z</time>
</trkpt>
<trkpt lat="36.79879379272461" lon="-118.58255004882813">
<ele>1596</ele>
<time>2016-10-21T09:25:31Z</time>
</trkpt>
<trkpt lat="36.7988395690918" lon="-118.58243560791016">
<ele>1595</ele>
<time>2016-10-21T09:25:39Z</time>
</trkpt>
<trkpt lat="36.79889678955078" lon="-118.58233642578125">
<ele>1594</ele>
<time>2016-10-21T09:25:48Z</time>
</trkpt>
<trkpt lat="36.79893493652344" lon="-118.5823745727539">
<ele>1597</ele>
<time>2016-10-21T09:25:57Z</time>
</trkpt>
<trkpt lat="36.79893112182617" lon="-118.5824966430664">
<ele>1599</ele>
<time>2016-10-21T09:26:07Z</time>
</trkpt>
<trkpt lat="36.798927307128906" lon="-118.5826187133789">
<ele>1598</ele>
<time>2016-10-21T09:26:17Z</time>
</trkpt>
<trkpt lat="36.7989616394043" lon="-118.58270263671875">
<ele>1606</ele>
<time>2016-10-21T09:28:03Z</time>
</trkpt>
<trkpt lat="36.79902648925781" lon="-118.58280181884766">
<ele>1606</ele>
<time>2016-10-21T09:28:11Z</time>
</trkpt>
<trkpt lat="36.79909133911133" lon="-118.5829086303711">
<ele>1604</ele>
<time>2016-10-21T09:28:19Z</time>
</trkpt>
<trkpt lat="36.79911804199219" lon="-118.58299255371094">
<ele>1605</ele>
<time>2016-10-21T09:28:26Z</time>
</trkpt>
<trkpt lat="36.79914093017578" lon="-118.5831069946289">
<ele>1605</ele>
<time>2016-10-21T09:28:35Z</time>
</trkpt>
<trkpt lat="36.799110412597656" lon="-118.5832290649414">
<ele>1607</ele>
<time>2016-10-21T09:28:43Z</time>
</trkpt>
<trkpt lat="36.79902267456055" lon="-118.58330535888672">
<ele>1608</ele>
<time>2016-10-21T09:28:51Z</time>
</trkpt>
<trkpt lat="36.7989387512207" lon="-118.58338165283203">
<ele>1613</ele>
<time>2016-10-21T09:28:58Z</time>
</trkpt>
<trkpt lat="36.79892349243164" lon="-118.58350372314453">
<ele>1614</ele>
<time>2016-10-21T09:29:06Z</time>
</trkpt>
<trkpt lat="36.79890060424805" lon="-118.5836181640625">
<ele>1615</ele>
<time>2016-10-21T09:29:14Z</time>
</trkpt>
<trkpt lat="36.79887008666992" lon="-118.58372497558594">
<ele>1613</ele>
<time>2016-10-21T09:29:21Z</time>
</trkpt>
<trkpt lat="36.79891586303711" lon="-118.5837173461914">
<ele>1621</ele>
<time>2016-10-21T09:29:32Z</time>
</trkpt>
<trkpt lat="36.79896926879883" lon="-118.58361053466797">
<ele>1620</ele>
<time>2016-10-21T09:29:42Z</time>
</trkpt>
<trkpt lat="36.79901885986328" lon="-118.58349609375">
<ele>1621</ele>
<time>2016-10-21T09:29:51Z</time>
</trkpt>
<trkpt lat="36.79909133911133" lon="-118.58341979980469">
<ele>1621</ele>
<time>2016-10-21T09:29:57Z</time>
</trkpt>
<trkpt lat="36.79918670654297" lon="-118.5833740234375">
<ele>1623</ele>
<time>2016-10-21T09:30:08Z</time>
</trkpt>
<trkpt lat="36.79927062988281" lon="-118.58332824707031">
<ele>1622</ele>
<time>2016-10-21T09:30:18Z</time>
</trkpt>
<trkpt lat="36.79935073852539" lon="-118.5832748413086">
<ele>1622</ele>
<time>2016-10-21T09:30:24Z</time>
</trkpt>
<trkpt lat="36.79936218261719" lon="-118.58316040039063">
<ele>1625</ele>
<time>2016-10-21T09:30:30Z</time>
</trkpt>
<trkpt lat="36.79935073852539" lon="-118.58302307128906">
<ele>1630</ele>
<time>2016-10-21T09:30:38Z</time>
</trkpt>
<trkpt lat="36.79936218261719" lon="-118.58289337158203">
<ele>1630</ele>
<time>2016-10-21T09:30:46Z</time>
</trkpt>
<trkpt lat="36.799354553222656" lon="-118.58277130126953">
<ele>1630</ele>
<time>2016-10-21T09:30:55Z</time>
</trkpt>
<trkpt lat="36.79936218261719" lon="-118.58264923095703">
<ele>1633</ele>
<time>2016-10-21T09:31:02Z</time>
</trkpt>
<trkpt lat="36.79939270019531" lon="-118.5825424194336">
<ele>1634</ele>
<time>2016-10-21T09:31:11Z</time>
</trkpt>
<trkpt lat="36.79940414428711" lon="-118.58248138427734">
<ele>1635</ele>
<time>2016-10-21T09:31:17Z</time>
</trkpt>
<trkpt lat="36.7994499206543" lon="-118.58238983154297">
<ele>1636</ele>
<time>2016-10-21T09:31:26Z</time>
</trkpt>
<trkpt lat="36.79949951171875" lon="-118.58229064941406">
<ele>1638</ele>
<time>2016-10-21T09:31:34Z</time>
</trkpt>
<trkpt lat="36.79953384399414" lon="-118.58216857910156">
<ele>1640</ele>
<time>2016-10-21T09:31:44Z</time>
</trkpt>
<trkpt lat="36.79956817626953" lon="-118.5820541381836">
<ele>1641</ele>
<time>2016-10-21T09:31:54Z</time>
</trkpt>
<trkpt lat="36.79963302612305" lon="-118.58194732666016">
<ele>1643</ele>
<time>2016-10-21T09:32:04Z</time>
</trkpt>
<trkpt lat="36.79970169067383" lon="-118.58185577392578">
<ele>1645</ele>
<time>2016-10-21T09:32:14Z</time>
</trkpt>
<trkpt lat="36.79975891113281" lon="-118.5818099975586">
<ele>1646</ele>
<time>2016-10-21T09:32:21Z</time>
</trkpt>
<trkpt lat="36.799800872802734" lon="-118.58170318603516">
<ele>1647</ele>
<time>2016-10-21T09:32:31Z</time>
</trkpt>
<trkpt lat="36.799842834472656" lon="-118.58158111572266">
<ele>1647</ele>
<time>2016-10-21T09:32:41Z</time>
</trkpt>
<trkpt lat="36.799903869628906" lon="-118.58157348632813">
<ele>1650</ele>
<time>2016-10-21T09:32:53Z</time>
</trkpt>
<trkpt lat="36.799903869628906" lon="-118.58169555664063">
<ele>1650</ele>
<time>2016-10-21T09:33:02Z</time>
</trkpt>
<trkpt lat="36.799922943115234" lon="-118.58181762695313">
<ele>1652</ele>
<time>2016-10-21T09:33:12Z</time>
</trkpt>
<trkpt lat="36.799922943115234" lon="-118.5818862915039">
<ele>1653</ele>
<time>2016-10-21T09:33:18Z</time>
</trkpt>
<trkpt lat="36.799922943115234" lon="-118.58198547363281">
<ele>1655</ele>
<time>2016-10-21T09:33:26Z</time>
</trkpt>
<trkpt lat="36.79991149902344" lon="-118.58210754394531">
<ele>1658</ele>
<time>2016-10-21T09:33:35Z</time>
</trkpt>
<trkpt lat="36.79991912841797" lon="-118.58223724365234">
<ele>1661</ele>
<time>2016-10-21T09:33:45Z</time>
</trkpt>
<trkpt lat="36.79990005493164" lon="-118.58236694335938">
<ele>1663</ele>
<time>2016-10-21T09:33:54Z</time>
</trkpt>
<trkpt lat="36.79990768432617" lon="-118.58248901367188">
<ele>1665</ele>
<time>2016-10-21T09:34:03Z</time>
</trkpt>
<trkpt lat="36.79987335205078" lon="-118.58259582519531">
<ele>1666</ele>
<time>2016-10-21T09:34:11Z</time>
</trkpt>
<trkpt lat="36.79987335205078" lon="-118.58272552490234">
<ele>1669</ele>
<time>2016-10-21T09:34:20Z</time>
</trkpt>
<trkpt lat="36.79987335205078" lon="-118.58280181884766">
<ele>1668</ele>
<time>2016-10-21T09:34:26Z</time>
</trkpt>
<trkpt lat="36.79988479614258" lon="-118.58287048339844">
<ele>1669</ele>
<time>2016-10-21T09:34:32Z</time>
</trkpt>
<trkpt lat="36.79990768432617" lon="-118.58297729492188">
<ele>1670</ele>
<time>2016-10-21T09:34:42Z</time>
</trkpt>
<trkpt lat="36.799922943115234" lon="-118.5829086303711">
<ele>1677</ele>
<time>2016-10-21T09:35:05Z</time>
</trkpt>
<trkpt lat="36.79995346069336" lon="-118.5827865600586">
<ele>1678</ele>
<time>2016-10-21T09:35:16Z</time>
</trkpt>
<trkpt lat="36.80000305175781" lon="-118.58267211914063">
<ele>1677</ele>
<time>2016-10-21T09:35:29Z</time>
</trkpt>
<trkpt lat="36.80007553100586" lon="-118.58258819580078">
<ele>1678</ele>
<time>2016-10-21T09:35:37Z</time>
</trkpt>
<trkpt lat="36.80010986328125" lon="-118.5825424194336">
<ele>1679</ele>
<time>2016-10-21T09:35:43Z</time>
</trkpt>
<trkpt lat="36.80015182495117" lon="-118.58248901367188">
<ele>1678</ele>
<time>2016-10-21T09:35:49Z</time>
</trkpt>
<trkpt lat="36.80021286010742" lon="-118.5823974609375">
<ele>1676</ele>
<time>2016-10-21T09:35:59Z</time>
</trkpt>
<trkpt lat="36.800262451171875" lon="-118.58228302001953">
<ele>1680</ele>
<time>2016-10-21T09:36:09Z</time>
</trkpt>
<trkpt lat="36.80031204223633" lon="-118.58218383789063">
<ele>1682</ele>
<time>2016-10-21T09:36:16Z</time>
</trkpt>
<trkpt lat="36.80036544799805" lon="-118.5820541381836">
<ele>1684</ele>
<time>2016-10-21T09:36:25Z</time>
</trkpt>
<trkpt lat="36.800392150878906" lon="-118.58194732666016">
<ele>1683</ele>
<time>2016-10-21T09:36:33Z</time>
</trkpt>
<trkpt lat="36.80040740966797" lon="-118.58181762695313">
<ele>1687</ele>
<time>2016-10-21T09:36:43Z</time>
</trkpt>
<trkpt lat="36.8004150390625" lon="-118.5816879272461">
<ele>1685</ele>
<time>2016-10-21T09:36:53Z</time>
</trkpt>
<trkpt lat="36.80048370361328" lon="-118.58157348632813">
<ele>1682</ele>
<time>2016-10-21T09:37:02Z</time>
</trkpt>
<trkpt lat="36.80056381225586" lon="-118.58150482177734">
<ele>1685</ele>
<time>2016-10-21T09:37:09Z</time>
</trkpt>
<trkpt lat="36.80064392089844" lon="-118.58140563964844">
<ele>1686</ele>
<time>2016-10-21T09:37:18Z</time>
</trkpt>
<trkpt lat="36.80072784423828" lon="-118.58138275146484">
<ele>1686</ele>
<time>2016-10-21T09:37:27Z</time>
</trkpt>
<trkpt lat="36.800819396972656" lon="-118.58132934570313">
<ele>1688</ele>
<time>2016-10-21T09:37:34Z</time>
</trkpt>
<trkpt lat="36.8009147644043" lon="-118.58128356933594">
<ele>1687</ele>
<time>2016-10-21T09:37:42Z</time>
</trkpt>
<trkpt lat="36.80101013183594" lon="-118.58128356933594">
<ele>1688</ele>
<time>2016-10-21T09:37:48Z</time>
</trkpt>
<trkpt lat="36.801116943359375" lon="-118.5812759399414">
<ele>1695</ele>
<time>2016-10-21T09:37:55Z</time>
</trkpt>
<trkpt lat="36.80121612548828" lon="-118.58124542236328">
<ele>1693</ele>
<time>2016-10-21T09:38:03Z</time>
</trkpt>
<trkpt lat="36.80131530761719" lon="-118.58126068115234">
<ele>1695</ele>
<time>2016-10-21T09:38:11Z</time>
</trkpt>
<trkpt lat="36.80141830444336" lon="-118.58129119873047">
<ele>1697</ele>
<time>2016-10-21T09:38:20Z</time>
</trkpt>
<trkpt lat="36.80147933959961" lon="-118.58129119873047">
<ele>1695</ele>
<time>2016-10-21T09:38:26Z</time>
</trkpt>
<trkpt lat="36.80152130126953" lon="-118.58126831054688">
<ele>1699</ele>
<time>2016-10-21T09:38:32Z</time>
</trkpt>
<trkpt lat="36.801483154296875" lon="-118.58130645751953">
<ele>1706</ele>
<time>2016-10-21T09:39:48Z</time>
</trkpt>
<trkpt lat="36.80143737792969" lon="-118.5813217163086">
<ele>1708</ele>
<time>2016-10-21T09:39:56Z</time>
</trkpt>
<trkpt lat="36.801395416259766" lon="-118.58135223388672">
<ele>1710</ele>
<time>2016-10-21T09:40:05Z</time>
</trkpt>
<trkpt lat="36.80129623413086" lon="-118.58140563964844">
<ele>1712</ele>
<time>2016-10-21T09:40:15Z</time>
</trkpt>
<trkpt lat="36.80125045776367" lon="-118.58146667480469">
<ele>1710</ele>
<time>2016-10-21T09:40:21Z</time>
</trkpt>
<trkpt lat="36.80118942260742" lon="-118.5815658569336">
<ele>1712</ele>
<time>2016-10-21T09:40:30Z</time>
</trkpt>
<trkpt lat="36.8011360168457" lon="-118.5816650390625">
<ele>1714</ele>
<time>2016-10-21T09:40:38Z</time>
</trkpt>
<trkpt lat="36.80106735229492" lon="-118.58175659179688">
<ele>1716</ele>
<time>2016-10-21T09:40:47Z</time>
</trkpt>
<trkpt lat="36.80100631713867" lon="-118.58184051513672">
<ele>1718</ele>
<time>2016-10-21T09:40:56Z</time>
</trkpt>
<trkpt lat="36.80104064941406" lon="-118.58193969726563">
<ele>1720</ele>
<time>2016-10-21T09:41:05Z</time>
</trkpt>
<trkpt lat="36.801109313964844" lon="-118.58203125">
<ele>1720</ele>
<time>2016-10-21T09:41:12Z</time>
</trkpt>
<trkpt lat="36.80111312866211" lon="-118.58213806152344">
<ele>1723</ele>
<time>2016-10-21T09:41:21Z</time>
</trkpt>
<trkpt lat="36.80107116699219" lon="-118.58219146728516">
<ele>1727</ele>
<time>2016-10-21T09:41:27Z</time>
</trkpt>
<trkpt lat="36.80101776123047" lon="-118.58229064941406">
<ele>1729</ele>
<time>2016-10-21T09:41:35Z</time>
</trkpt>
<trkpt lat="36.80099105834961" lon="-118.58240509033203">
<ele>1729</ele>
<time>2016-10-21T09:41:42Z</time>
</trkpt>
<trkpt lat="36.80097961425781" lon="-118.5825424194336">
<ele>1725</ele>
<time>2016-10-21T09:41:49Z</time>
</trkpt>
<trkpt lat="36.80094528198242" lon="-118.5826644897461">
<ele>1725</ele>
<time>2016-10-21T09:41:59Z</time>
</trkpt>
<trkpt lat="36.80089569091797" lon="-118.58277130126953">
<ele>1726</ele>
<time>2016-10-21T09:42:11Z</time>
</trkpt>
<trkpt lat="36.80088806152344" lon="-118.58283233642578">
<ele>1724</ele>
<time>2016-10-21T09:42:17Z</time>
</trkpt>
<trkpt lat="36.80083084106445" lon="-118.58293151855469">
<ele>1727</ele>
<time>2016-10-21T09:42:28Z</time>
</trkpt>
<trkpt lat="36.80080795288086" lon="-118.5829849243164">
<ele>1728</ele>
<time>2016-10-21T09:42:34Z</time>
</trkpt>
<trkpt lat="36.80079650878906" lon="-118.58305358886719">
<ele>1728</ele>
<time>2016-10-21T09:42:42Z</time>
</trkpt>
<trkpt lat="36.80076599121094" lon="-118.58317565917969">
<ele>1726</ele>
<time>2016-10-21T09:42:52Z</time>
</trkpt>
<trkpt lat="36.800785064697266" lon="-118.58323669433594">
<ele>1721</ele>
<time>2016-10-21T09:43:01Z</time>
</trkpt>
<trkpt lat="36.80076599121094" lon="-118.5833740234375">
<ele>1723</ele>
<time>2016-10-21T09:43:09Z</time>
</trkpt>
<trkpt lat="36.800716400146484" lon="-118.5834732055664">
<ele>1729</ele>
<time>2016-10-21T09:43:16Z</time>
</trkpt>
<trkpt lat="36.80073165893555" lon="-118.58362579345703">
<ele>1731</ele>
<time>2016-10-21T09:43:24Z</time>
</trkpt>
<trkpt lat="36.800750732421875" lon="-118.58375549316406">
<ele>1731</ele>
<time>2016-10-21T09:43:32Z</time>
</trkpt>
<trkpt lat="36.80076599121094" lon="-118.58389282226563">
<ele>1727</ele>
<time>2016-10-21T09:43:41Z</time>
</trkpt>
<trkpt lat="36.80079650878906" lon="-118.5838394165039">
<ele>1742</ele>
<time>2016-10-21T09:44:00Z</time>
</trkpt>
<trkpt lat="36.80082321166992" lon="-118.5837173461914">
<ele>1746</ele>
<time>2016-10-21T09:44:10Z</time>
</trkpt>
<trkpt lat="36.80083084106445" lon="-118.58358001708984">
<ele>1749</ele>
<time>2016-10-21T09:44:20Z</time>
</trkpt>
<trkpt lat="36.80085754394531" lon="-118.5835189819336">
<ele>1750</ele>
<time>2016-10-21T09:44:26Z</time>
</trkpt>
<trkpt lat="36.800865173339844" lon="-118.58345031738281">
<ele>1747</ele>
<time>2016-10-21T09:44:33Z</time>
</trkpt>
<trkpt lat="36.800968170166016" lon="-118.58332824707031">
<ele>1748</ele>
<time>2016-10-21T09:44:43Z</time>
</trkpt>
<trkpt lat="36.80104446411133" lon="-118.58324432373047">
<ele>1749</ele>
<time>2016-10-21T09:44:52Z</time>
</trkpt>
<trkpt lat="36.80112075805664" lon="-118.58316040039063">
<ele>1751</ele>
<time>2016-10-21T09:45:01Z</time>
</trkpt>
<trkpt lat="36.80121612548828" lon="-118.58311462402344">
<ele>1752</ele>
<time>2016-10-21T09:45:08Z</time>
</trkpt>
<trkpt lat="36.8012580871582" lon="-118.58308410644531">
<ele>1753</ele>
<time>2016-10-21T09:45:14Z</time>
</trkpt>
<trkpt lat="36.801334381103516" lon="-118.58302307128906">
<ele>1754</ele>
<time>2016-10-21T09:45:21Z</time>
</trkpt>
<trkpt lat="36.801422119140625" lon="-118.58296203613281">
<ele>1755</ele>
<time>2016-10-21T09:45:30Z</time>
</trkpt>
<trkpt lat="36.8015022277832" lon="-118.58290100097656">
<ele>1757</ele>
<time>2016-10-21T09:45:40Z</time>
</trkpt>
<trkpt lat="36.80158996582031" lon="-118.58282470703125">
<ele>1754</ele>
<time>2016-10-21T09:45:47Z</time>
</trkpt>
<trkpt lat="36.8016357421875" lon="-118.58271789550781">
<ele>1758</ele>
<time>2016-10-21T09:45:58Z</time>
</trkpt>
<trkpt lat="36.801719665527344" lon="-118.58264923095703">
<ele>1758</ele>
<time>2016-10-21T09:46:04Z</time>
</trkpt>
<trkpt lat="36.80180740356445" lon="-118.58257293701172">
<ele>1763</ele>
<time>2016-10-21T09:46:12Z</time>
</trkpt>
<trkpt lat="36.801876068115234" lon="-118.58252716064453">
<ele>1764</ele>
<time>2016-10-21T09:46:21Z</time>
</trkpt>
<trkpt lat="36.80195617675781" lon="-118.58245086669922">
<ele>1765</ele>
<time>2016-10-21T09:46:31Z</time>
</trkpt>
<trkpt lat="36.80202102661133" lon="-118.58235931396484">
<ele>1770</ele>
<time>2016-10-21T09:46:41Z</time>
</trkpt>
<trkpt lat="36.802059173583984" lon="-118.58231353759766">
<ele>1772</ele>
<time>2016-10-21T09:46:47Z</time>
</trkpt>
<trkpt lat="36.802093505859375" lon="-118.58228302001953">
<ele>1771</ele>
<time>2016-10-21T09:46:53Z</time>
</trkpt>
<trkpt lat="36.80208206176758" lon="-118.58234405517578">
<ele>1773</ele>
<time>2016-10-21T09:46:59Z</time>
</trkpt>
<trkpt lat="36.80205535888672" lon="-118.5823974609375">
<ele>1775</ele>
<time>2016-10-21T09:47:05Z</time>
</trkpt>
<trkpt lat="36.8020133972168" lon="-118.58251190185547">
<ele>1775</ele>
<time>2016-10-21T09:47:14Z</time>
</trkpt>
<trkpt lat="36.801971435546875" lon="-118.58259582519531">
<ele>1775</ele>
<time>2016-10-21T09:47:21Z</time>
</trkpt>
<trkpt lat="36.80192565917969" lon="-118.58271026611328">
<ele>1775</ele>
<time>2016-10-21T09:47:32Z</time>
</trkpt>
<trkpt lat="36.801918029785156" lon="-118.58277130126953">
<ele>1776</ele>
<time>2016-10-21T09:47:40Z</time>
</trkpt>
<trkpt lat="36.801883697509766" lon="-118.5828857421875">
<ele>1779</ele>
<time>2016-10-21T09:47:50Z</time>
</trkpt>
<trkpt lat="36.80184555053711" lon="-118.5830078125">
<ele>1777</ele>
<time>2016-10-21T09:48:00Z</time>
</trkpt>
<trkpt lat="36.801795959472656" lon="-118.58309936523438">
<ele>1776</ele>
<time>2016-10-21T09:48:11Z</time>
</trkpt>
<trkpt lat="36.80173110961914" lon="-118.58320617675781">
<ele>1779</ele>
<time>2016-10-21T09:48:21Z</time>
</trkpt>
<trkpt lat="36.80167007446289" lon="-118.58329772949219">
<ele>1783</ele>
<time>2016-10-21T09:48:30Z</time>
</trkpt>
<trkpt lat="36.80158996582031" lon="-118.58338928222656">
<ele>1789</ele>
<time>2016-10-21T09:48:39Z</time>
</trkpt>
<trkpt lat="36.801544189453125" lon="-118.58349609375">
<ele>1790</ele>
<time>2016-10-21T09:48:48Z</time>
</trkpt>
<trkpt lat="36.80149459838867" lon="-118.58361053466797">
<ele>1791</ele>
<time>2016-10-21T09:48:58Z</time>
</trkpt>
<trkpt lat="36.801483154296875" lon="-118.58372497558594">
<ele>1791</ele>
<time>2016-10-21T09:49:06Z</time>
</trkpt>
<trkpt lat="36.801483154296875" lon="-118.58384704589844">
<ele>1794</ele>
<time>2016-10-21T09:49:15Z</time>
</trkpt>
<trkpt lat="36.801513671875" lon="-118.58394622802734">
<ele>1798</ele>
<time>2016-10-21T09:49:32Z</time>
</trkpt>
<trkpt lat="36.8015022277832" lon="-118.58387756347656">
<ele>1800</ele>
<time>2016-10-21T09:49:38Z</time>
</trkpt>
<trkpt lat="36.80149841308594" lon="-118.58381652832031">
<ele>1801</ele>
<time>2016-10-21T09:49:44Z</time>
</trkpt>
<trkpt lat="36.80152893066406" lon="-118.58377075195313">
<ele>1798</ele>
<time>2016-10-21T09:49:51Z</time>
</trkpt>
<trkpt lat="36.80156326293945" lon="-118.5837173461914">
<ele>1797</ele>
<time>2016-10-21T09:49:58Z</time>
</trkpt>
<trkpt lat="36.80165481567383" lon="-118.58367156982422">
<ele>1794</ele>
<time>2016-10-21T09:50:08Z</time>
</trkpt>
<trkpt lat="36.80173110961914" lon="-118.58360290527344">
<ele>1794</ele>
<time>2016-10-21T09:50:15Z</time>
</trkpt>
<trkpt lat="36.80178451538086" lon="-118.58354949951172">
<ele>1798</ele>
<time>2016-10-21T09:50:21Z</time>
</trkpt>
<trkpt lat="36.801876068115234" lon="-118.58348846435547">
<ele>1800</ele>
<time>2016-10-21T09:50:29Z</time>
</trkpt>
<trkpt lat="36.801971435546875" lon="-118.58344268798828">
<ele>1803</ele>
<time>2016-10-21T09:50:38Z</time>
</trkpt>
<trkpt lat="36.802066802978516" lon="-118.58341217041016">
<ele>1805</ele>
<time>2016-10-21T09:50:47Z</time>
</trkpt>
<trkpt lat="36.80215072631836" lon="-118.5833511352539">
<ele>1801</ele>
<time>2016-10-21T09:50:53Z</time>
</trkpt>
<trkpt lat="36.80224609375" lon="-118.58330535888672">
<ele>1799</ele>
<time>2016-10-21T09:51:02Z</time>
</trkpt>
<trkpt lat="36.802330017089844" lon="-118.5832290649414">
<ele>1803</ele>
<time>2016-10-21T09:51:10Z</time>
</trkpt>
<trkpt lat="36.80241394042969" lon="-118.58318328857422">
<ele>1807</ele>
<time>2016-10-21T09:51:21Z</time>
</trkpt>
<trkpt lat="36.80245590209961" lon="-118.58314514160156">
<ele>1810</ele>
<time>2016-10-21T09:51:27Z</time>
</trkpt>
<trkpt lat="36.80249786376953" lon="-118.5831069946289">
<ele>1810</ele>
<time>2016-10-21T09:51:34Z</time>
</trkpt>
<trkpt lat="36.802547454833984" lon="-118.58307647705078">
<ele>1810</ele>
<time>2016-10-21T09:51:40Z</time>
</trkpt>
<trkpt lat="36.802642822265625" lon="-118.58303833007813">
<ele>1810</ele>
<time>2016-10-21T09:51:49Z</time>
</trkpt>
<trkpt lat="36.80274200439453" lon="-118.58299255371094">
<ele>1813</ele>
<time>2016-10-21T09:51:58Z</time>
</trkpt>
<trkpt lat="36.80283737182617" lon="-118.58294677734375">
<ele>1814</ele>
<time>2016-10-21T09:52:08Z</time>
</trkpt>
<trkpt lat="36.8028678894043" lon="-118.58290100097656">
<ele>1816</ele>
<time>2016-10-21T09:52:15Z</time>
</trkpt>
<trkpt lat="36.80287170410156" lon="-118.58300018310547">
<ele>1823</ele>
<time>2016-10-21T09:52:28Z</time>
</trkpt>
<trkpt lat="36.80282974243164" lon="-118.58304595947266">
<ele>1824</ele>
<time>2016-10-21T09:52:35Z</time>
</trkpt>
<trkpt lat="36.802734375" lon="-118.58308410644531">
<ele>1827</ele>
<time>2016-10-21T09:52:44Z</time>
</trkpt>
<trkpt lat="36.80269241333008" lon="-118.58319091796875">
<ele>1828</ele>
<time>2016-10-21T09:52:54Z</time>
</trkpt>
<trkpt lat="36.80265808105469" lon="-118.58329772949219">
<ele>1827</ele>
<time>2016-10-21T09:53:05Z</time>
</trkpt>
<trkpt lat="36.80259704589844" lon="-118.58341217041016">
<ele>1834</ele>
<time>2016-10-21T09:53:15Z</time>
</trkpt>
<trkpt lat="36.80256271362305" lon="-118.58352661132813">
<ele>1834</ele>
<time>2016-10-21T09:53:21Z</time>
</trkpt>
<trkpt lat="36.802490234375" lon="-118.58361053466797">
<ele>1837</ele>
<time>2016-10-21T09:53:29Z</time>
</trkpt>
<trkpt lat="36.802406311035156" lon="-118.58366394042969">
<ele>1836</ele>
<time>2016-10-21T09:53:38Z</time>
</trkpt>
<trkpt lat="36.8023567199707" lon="-118.5837631225586">
<ele>1835</ele>
<time>2016-10-21T09:53:44Z</time>
</trkpt>
<trkpt lat="36.80229949951172" lon="-118.58386993408203">
<ele>1838</ele>
<time>2016-10-21T09:53:53Z</time>
</trkpt>
<trkpt lat="36.80226516723633" lon="-118.583984375">
<ele>1837</ele>
<time>2016-10-21T09:54:01Z</time>
</trkpt>
<trkpt lat="36.80222702026367" lon="-118.58409881591797">
<ele>1837</ele>
<time>2016-10-21T09:54:09Z</time>
</trkpt>
<trkpt lat="36.80223083496094" lon="-118.58421325683594">
<ele>1834</ele>
<time>2016-10-21T09:54:19Z</time>
</trkpt>
<trkpt lat="36.80218505859375" lon="-118.58427429199219">
<ele>1837</ele>
<time>2016-10-21T09:54:29Z</time>
</trkpt>
<trkpt lat="36.80223846435547" lon="-118.58429718017578">
<ele>1844</ele>
<time>2016-10-21T09:54:47Z</time>
</trkpt>
<trkpt lat="36.80224609375" lon="-118.58424377441406">
<ele>1847</ele>
<time>2016-10-21T09:54:54Z</time>
</trkpt>
<trkpt lat="36.802268981933594" lon="-118.58418273925781">
<ele>1849</ele>
<time>2016-10-21T09:55:01Z</time>
</trkpt>
<trkpt lat="36.8023567199707" lon="-118.58412170410156">
<ele>1851</ele>
<time>2016-10-21T09:55:09Z</time>
</trkpt>
<trkpt lat="36.80244827270508" lon="-118.58406066894531">
<ele>1852</ele>
<time>2016-10-21T09:55:18Z</time>
</trkpt>
<trkpt lat="36.80252456665039" lon="-118.58402252197266">
<ele>1853</ele>
<time>2016-10-21T09:55:25Z</time>
</trkpt>
<trkpt lat="36.80257034301758" lon="-118.5840072631836">
<ele>1852</ele>
<time>2016-10-21T09:55:36Z</time>
</trkpt>
<trkpt lat="36.802616119384766" lon="-118.58399200439453">
<ele>1852</ele>
<time>2016-10-21T09:55:42Z</time>
</trkpt>
<trkpt lat="36.80271530151367" lon="-118.58394622802734">
<ele>1854</ele>
<time>2016-10-21T09:55:51Z</time>
</trkpt>
<trkpt lat="36.80281448364258" lon="-118.58390045166016">
<ele>1849</ele>
<time>2016-10-21T09:56:00Z</time>
</trkpt>
<trkpt lat="36.802913665771484" lon="-118.58383178710938">
<ele>1852</ele>
<time>2016-10-21T09:56:07Z</time>
</trkpt>
<trkpt lat="36.80295944213867" lon="-118.58380126953125">
<ele>1851</ele>
<time>2016-10-21T09:56:13Z</time>
</trkpt>
<trkpt lat="36.803043365478516" lon="-118.58377838134766">
<ele>1859</ele>
<time>2016-10-21T09:56:21Z</time>
</trkpt>
<trkpt lat="36.803123474121094" lon="-118.5837173461914">
<ele>1858</ele>
<time>2016-10-21T09:56:32Z</time>
</trkpt>
<trkpt lat="36.80320358276367" lon="-118.58364868164063">
<ele>1862</ele>
<time>2016-10-21T09:56:43Z</time>
</trkpt>
<trkpt lat="36.803253173828125" lon="-118.58362579345703">
<ele>1867</ele>
<time>2016-10-21T09:56:53Z</time>
</trkpt>
<trkpt lat="36.8033561706543" lon="-118.58357238769531">
<ele>1870</ele>
<time>2016-10-21T09:57:01Z</time>
</trkpt>
<trkpt lat="36.8034553527832" lon="-118.58358001708984">
<ele>1872</ele>
<time>2016-10-21T09:57:09Z</time>
</trkpt>
<trkpt lat="36.803497314453125" lon="-118.58354949951172">
<ele>1874</ele>
<time>2016-10-21T09:57:16Z</time>
</trkpt>
<trkpt lat="36.80360412597656" lon="-118.58349609375">
<ele>1873</ele>
<time>2016-10-21T09:57:24Z</time>
</trkpt>
<trkpt lat="36.803714752197266" lon="-118.5834732055664">
<ele>1877</ele>
<time>2016-10-21T09:57:33Z</time>
</trkpt>
<trkpt lat="36.803810119628906" lon="-118.58343505859375">
<ele>1877</ele>
<time>2016-10-21T09:57:39Z</time>
</trkpt>
<trkpt lat="36.80389404296875" lon="-118.58336639404297">
<ele>1881</ele>
<time>2016-10-21T09:57:48Z</time>
</trkpt>
<trkpt lat="36.8039436340332" lon="-118.58335876464844">
<ele>1879</ele>
<time>2016-10-21T09:57:55Z</time>
</trkpt>
<trkpt lat="36.804039001464844" lon="-118.58332061767578">
<ele>1878</ele>
<time>2016-10-21T09:58:06Z</time>
</trkpt>
<trkpt lat="36.80413055419922" lon="-118.58328247070313">
<ele>1876</ele>
<time>2016-10-21T09:58:14Z</time>
</trkpt>
<trkpt lat="36.80417251586914" lon="-118.58324432373047">
<ele>1877</ele>
<time>2016-10-21T09:58:21Z</time>
</trkpt>
<trkpt lat="36.80426788330078" lon="-118.5832290649414">
<ele>1881</ele>
<time>2016-10-21T09:58:30Z</time>
</trkpt>
<trkpt lat="36.804359436035156" lon="-118.58317565917969">
<ele>1883</ele>
<time>2016-10-21T09:58:41Z</time>
</trkpt>
<trkpt lat="36.804447174072266" lon="-118.5831069946289">
<ele>1884</ele>
<time>2016-10-21T09:58:54Z</time>
</trkpt>
<trkpt lat="36.80453872680664" lon="-118.58306884765625">
<ele>1887</ele>
<time>2016-10-21T09:59:02Z</time>
</trkpt>
<trkpt lat="36.80461883544922" lon="-118.58297729492188">
<ele>1890</ele>
<time>2016-10-21T09:59:11Z</time>
</trkpt>
<trkpt lat="36.804710388183594" lon="-118.58291625976563">
<ele>1888</ele>
<time>2016-10-21T09:59:20Z</time>
</trkpt>
<trkpt lat="36.8048095703125" lon="-118.5828857421875">
<ele>1890</ele>
<time>2016-10-21T09:59:31Z</time>
</trkpt>
<trkpt lat="36.804893493652344" lon="-118.58281707763672">
<ele>1893</ele>
<time>2016-10-21T09:59:39Z</time>
</trkpt>
<trkpt lat="36.80499267578125" lon="-118.5827865600586">
<ele>1892</ele>
<time>2016-10-21T09:59:47Z</time>
</trkpt>
<trkpt lat="36.805091857910156" lon="-118.5827865600586">
<ele>1893</ele>
<time>2016-10-21T09:59:56Z</time>
</trkpt>
<trkpt lat="36.80513381958008" lon="-118.58282470703125">
<ele>1893</ele>
<time>2016-10-21T10:00:02Z</time>
</trkpt>
<trkpt lat="36.80522155761719" lon="-118.582763671875">
<ele>1893</ele>
<time>2016-10-21T10:00:10Z</time>
</trkpt>
<trkpt lat="36.8053092956543" lon="-118.58271026611328">
<ele>1900</ele>
<time>2016-10-21T10:00:19Z</time>
</trkpt>
<trkpt lat="36.80537796020508" lon="-118.58267211914063">
<ele>1899</ele>
<time>2016-10-21T10:00:25Z</time>
</trkpt>
<trkpt lat="36.80549240112305" lon="-118.58265686035156">
<ele>1899</ele>
<time>2016-10-21T10:00:33Z</time>
</trkpt>
<trkpt lat="36.80558395385742" lon="-118.58265686035156">
<ele>1905</ele>
<time>2016-10-21T10:00:39Z</time>
</trkpt>
<trkpt lat="36.8056755065918" lon="-118.58263397216797">
<ele>1904</ele>
<time>2016-10-21T10:00:48Z</time>
</trkpt>
<trkpt lat="36.805728912353516" lon="-118.58263397216797">
<ele>1908</ele>
<time>2016-10-21T10:00:54Z</time>
</trkpt>
<trkpt lat="36.80583190917969" lon="-118.5826416015625">
<ele>1907</ele>
<time>2016-10-21T10:01:02Z</time>
</trkpt>
<trkpt lat="36.805931091308594" lon="-118.5826187133789">
<ele>1902</ele>
<time>2016-10-21T10:01:09Z</time>
</trkpt>
<trkpt lat="36.80598449707031" lon="-118.58258056640625">
<ele>1904</ele>
<time>2016-10-21T10:01:21Z</time>
</trkpt>
<trkpt lat="36.80589294433594" lon="-118.58261108398438">
<ele>1910</ele>
<time>2016-10-21T10:01:30Z</time>
</trkpt>
</trkseg>
</trk>
<trk>
<name><![CDATA[10210301]]></name>
<number>48</number>
<extensions><topografix:color>ff000066</topografix:color></extensions>
<trkseg>
<trkpt lat="36.805885314941406" lon="-118.58262634277344">
<ele>1911</ele>
<time>2016-10-21T10:01:42Z</time>
</trkpt>
<trkpt lat="36.80583190917969" lon="-118.58262634277344">
<ele>1911</ele>
<time>2016-10-21T10:01:52Z</time>
</trkpt>
<trkpt lat="36.80575942993164" lon="-118.58271789550781">
<ele>1913</ele>
<time>2016-10-21T10:02:01Z</time>
</trkpt>
<trkpt lat="36.805721282958984" lon="-118.58282470703125">
<ele>1912</ele>
<time>2016-10-21T10:02:10Z</time>
</trkpt>
<trkpt lat="36.80563735961914" lon="-118.58287811279297">
<ele>1917</ele>
<time>2016-10-21T10:02:19Z</time>
</trkpt>
<trkpt lat="36.80560302734375" lon="-118.58293151855469">
<ele>1915</ele>
<time>2016-10-21T10:02:25Z</time>
</trkpt>
<trkpt lat="36.80552673339844" lon="-118.5830078125">
<ele>1916</ele>
<time>2016-10-21T10:02:33Z</time>
</trkpt>
<trkpt lat="36.80542755126953" lon="-118.5830307006836">
<ele>1920</ele>
<time>2016-10-21T10:02:41Z</time>
</trkpt>
<trkpt lat="36.80534362792969" lon="-118.58312225341797">
<ele>1917</ele>
<time>2016-10-21T10:02:50Z</time>
</trkpt>
<trkpt lat="36.80529022216797" lon="-118.58323669433594">
<ele>1920</ele>
<time>2016-10-21T10:02:58Z</time>
</trkpt>
<trkpt lat="36.80527114868164" lon="-118.58329010009766">
<ele>1921</ele>
<time>2016-10-21T10:03:07Z</time>
</trkpt>
<trkpt lat="36.80525207519531" lon="-118.58334350585938">
<ele>1920</ele>
<time>2016-10-21T10:03:21Z</time>
</trkpt>
<trkpt lat="36.80521011352539" lon="-118.58336639404297">
<ele>1922</ele>
<time>2016-10-21T10:03:28Z</time>
</trkpt>
<trkpt lat="36.80510711669922" lon="-118.58340454101563">
<ele>1922</ele>
<time>2016-10-21T10:03:38Z</time>
</trkpt>
<trkpt lat="36.80500793457031" lon="-118.58344268798828">
<ele>1927</ele>
<time>2016-10-21T10:03:45Z</time>
</trkpt>
<trkpt lat="36.80492401123047" lon="-118.5835189819336">
<ele>1928</ele>
<time>2016-10-21T10:03:54Z</time>
</trkpt>
<trkpt lat="36.80487060546875" lon="-118.5836181640625">
<ele>1928</ele>
<time>2016-10-21T10:04:01Z</time>
</trkpt>
<trkpt lat="36.804805755615234" lon="-118.5837173461914">
<ele>1929</ele>
<time>2016-10-21T10:04:11Z</time>
</trkpt>
<trkpt lat="36.80472183227539" lon="-118.58378601074219">
<ele>1932</ele>
<time>2016-10-21T10:04:21Z</time>
</trkpt>
<trkpt lat="36.804664611816406" lon="-118.58390045166016">
<ele>1931</ele>
<time>2016-10-21T10:04:31Z</time>
</trkpt>
<trkpt lat="36.80458450317383" lon="-118.58396911621094">
<ele>1936</ele>
<time>2016-10-21T10:04:40Z</time>
</trkpt>
<trkpt lat="36.80451965332031" lon="-118.58405303955078">
<ele>1932</ele>
<time>2016-10-21T10:04:49Z</time>
</trkpt>
<trkpt lat="36.804443359375" lon="-118.5841293334961">
<ele>1934</ele>
<time>2016-10-21T10:04:56Z</time>
</trkpt>
<trkpt lat="36.804405212402344" lon="-118.58417510986328">
<ele>1933</ele>
<time>2016-10-21T10:05:05Z</time>
</trkpt>
<trkpt lat="36.80433654785156" lon="-118.58426666259766">
<ele>1936</ele>
<time>2016-10-21T10:05:16Z</time>
</trkpt>
<trkpt lat="36.80424118041992" lon="-118.5843276977539">
<ele>1937</ele>
<time>2016-10-21T10:05:26Z</time>
</trkpt>
<trkpt lat="36.80416488647461" lon="-118.58440399169922">
<ele>1942</ele>
<time>2016-10-21T10:05:35Z</time>
</trkpt>
<trkpt lat="36.804100036621094" lon="-118.58448028564453">
<ele>1940</ele>
<time>2016-10-21T10:05:47Z</time>
</trkpt>
<trkpt lat="36.804012298583984" lon="-118.58455657958984">
<ele>1941</ele>
<time>2016-10-21T10:05:54Z</time>
</trkpt>
<trkpt lat="36.80392837524414" lon="-118.5846176147461">
<ele>1944</ele>
<time>2016-10-21T10:06:02Z</time>
</trkpt>
<trkpt lat="36.8038444519043" lon="-118.5846939086914">
<ele>1943</ele>
<time>2016-10-21T10:06:12Z</time>
</trkpt>
<trkpt lat="36.80375289916992" lon="-118.58470916748047">
<ele>1942</ele>
<time>2016-10-21T10:06:21Z</time>
</trkpt>
<trkpt lat="36.8036994934082" lon="-118.58473205566406">
<ele>1942</ele>
<time>2016-10-21T10:06:38Z</time>
</trkpt>
<trkpt lat="36.80366516113281" lon="-118.5848388671875">
<ele>1942</ele>
<time>2016-10-21T10:06:48Z</time>
</trkpt>
<trkpt lat="36.80358123779297" lon="-118.58490753173828">
<ele>1942</ele>
<time>2016-10-21T10:06:58Z</time>
</trkpt>
<trkpt lat="36.80350112915039" lon="-118.58499908447266">
<ele>1942</ele>
<time>2016-10-21T10:07:09Z</time>
</trkpt>
<trkpt lat="36.80350875854492" lon="-118.58509063720703">
<ele>1946</ele>
<time>2016-10-21T10:07:24Z</time>
</trkpt>
<trkpt lat="36.8036003112793" lon="-118.58504486083984">
<ele>1948</ele>
<time>2016-10-21T10:07:33Z</time>
</trkpt>
<trkpt lat="36.803646087646484" lon="-118.58504486083984">
<ele>1949</ele>
<time>2016-10-21T10:07:39Z</time>
</trkpt>
<trkpt lat="36.803707122802734" lon="-118.58501434326172">
<ele>1949</ele>
<time>2016-10-21T10:07:49Z</time>
</trkpt>
<trkpt lat="36.803775787353516" lon="-118.58492279052734">
<ele>1951</ele>
<time>2016-10-21T10:07:58Z</time>
</trkpt>
<trkpt lat="36.803829193115234" lon="-118.58490753173828">
<ele>1951</ele>
<time>2016-10-21T10:08:04Z</time>
</trkpt>
<trkpt lat="36.80392074584961" lon="-118.58490753173828">
<ele>1949</ele>
<time>2016-10-21T10:08:11Z</time>
</trkpt>
<trkpt lat="36.804012298583984" lon="-118.58490753173828">
<ele>1951</ele>
<time>2016-10-21T10:08:22Z</time>
</trkpt>
<trkpt lat="36.80411148071289" lon="-118.5848617553711">
<ele>1952</ele>
<time>2016-10-21T10:08:32Z</time>
</trkpt>
<trkpt lat="36.804203033447266" lon="-118.58479309082031">
<ele>1953</ele>
<time>2016-10-21T10:08:39Z</time>
</trkpt>
<trkpt lat="36.804290771484375" lon="-118.58479309082031">
<ele>1953</ele>
<time>2016-10-21T10:08:47Z</time>
</trkpt>
<trkpt lat="36.80439376831055" lon="-118.58476257324219">
<ele>1952</ele>
<time>2016-10-21T10:08:57Z</time>
</trkpt>
<trkpt lat="36.8044319152832" lon="-118.58472442626953">
<ele>1952</ele>
<time>2016-10-21T10:09:03Z</time>
</trkpt>
<trkpt lat="36.80453109741211" lon="-118.58468627929688">
<ele>1955</ele>
<time>2016-10-21T10:09:10Z</time>
</trkpt>
<trkpt lat="36.80463790893555" lon="-118.58467864990234">
<ele>1957</ele>
<time>2016-10-21T10:09:19Z</time>
</trkpt>
<trkpt lat="36.8046875" lon="-118.58467864990234">
<ele>1956</ele>
<time>2016-10-21T10:09:26Z</time>
</trkpt>
<trkpt lat="36.80479049682617" lon="-118.58467864990234">
<ele>1959</ele>
<time>2016-10-21T10:09:38Z</time>
</trkpt>
<trkpt lat="36.80485534667969" lon="-118.58463287353516">
<ele>1961</ele>
<time>2016-10-21T10:09:47Z</time>
</trkpt>
<trkpt lat="36.804901123046875" lon="-118.58460998535156">
<ele>1962</ele>
<time>2016-10-21T10:09:54Z</time>
</trkpt>
<trkpt lat="36.80500030517578" lon="-118.5845947265625">
<ele>1962</ele>
<time>2016-10-21T10:10:03Z</time>
</trkpt>
<trkpt lat="36.805049896240234" lon="-118.58460998535156">
<ele>1965</ele>
<time>2016-10-21T10:10:15Z</time>
</trkpt>
<trkpt lat="36.80508041381836" lon="-118.58456420898438">
<ele>1973</ele>
<time>2016-10-21T10:10:27Z</time>
</trkpt>
</trkseg>
</trk>
<trk>
<name><![CDATA[10210310]]></name>
<number>49</number>
<extensions><topografix:color>ff000066</topografix:color></extensions>
<trkseg>
<trkpt lat="36.805084228515625" lon="-118.58452606201172">
<ele>1981</ele>
<time>2016-10-21T10:10:46Z</time>
</trkpt>
<trkpt lat="36.80503845214844" lon="-118.58453369140625">
<ele>1976</ele>
<time>2016-10-21T10:11:25Z</time>
</trkpt>
<trkpt lat="36.805084228515625" lon="-118.58453369140625">
<ele>1972</ele>
<time>2016-10-21T10:13:27Z</time>
</trkpt>
<trkpt lat="36.8050422668457" lon="-118.58455657958984">
<ele>1969</ele>
<time>2016-10-21T10:13:35Z</time>
</trkpt>
<trkpt lat="36.80501174926758" lon="-118.58460235595703">
<ele>1966</ele>
<time>2016-10-21T10:13:51Z</time>
</trkpt>
<trkpt lat="36.80503463745117" lon="-118.58454895019531">
<ele>1978</ele>
<time>2016-10-21T10:14:25Z</time>
</trkpt>
<trkpt lat="36.8050651550293" lon="-118.58451080322266">
<ele>1972</ele>
<time>2016-10-21T10:14:49Z</time>
</trkpt>
<trkpt lat="36.80506134033203" lon="-118.58456420898438">
<ele>1971</ele>
<time>2016-10-21T10:15:44Z</time>
</trkpt>
<trkpt lat="36.805057525634766" lon="-118.58446502685547">
<ele>1967</ele>
<time>2016-10-21T10:16:35Z</time>
</trkpt>
<trkpt lat="36.80506896972656" lon="-118.58454895019531">
<ele>1978</ele>
<time>2016-10-21T10:17:46Z</time>
</trkpt>
<trkpt lat="36.805152893066406" lon="-118.58455657958984">
<ele>1983</ele>
<time>2016-10-21T10:20:29Z</time>
</trkpt>
<trkpt lat="36.805259704589844" lon="-118.58460235595703">
<ele>1973</ele>
<time>2016-10-21T10:20:38Z</time>
</trkpt>
<trkpt lat="36.805355072021484" lon="-118.58463287353516">
<ele>1967</ele>
<time>2016-10-21T10:20:46Z</time>
</trkpt>
<trkpt lat="36.80543518066406" lon="-118.58470153808594">
<ele>1967</ele>
<time>2016-10-21T10:20:55Z</time>
</trkpt>
<trkpt lat="36.80547332763672" lon="-118.58473205566406">
<ele>1976</ele>
<time>2016-10-21T10:21:08Z</time>
</trkpt>
</trkseg>
</trk>
<trk>
<name><![CDATA[10210345]]></name>
<number>50</number>
<extensions><topografix:color>ff000066</topografix:color></extensions>
<trkseg>
<trkpt lat="36.81727981567383" lon="-118.58084869384766">
<ele>2181</ele>
<time>2016-10-21T10:45:45Z</time>
</trkpt>
<trkpt lat="36.81732177734375" lon="-118.5808334350586">
<ele>2186</ele>
<time>2016-10-21T10:46:06Z</time>
</trkpt>
<trkpt lat="36.81735610961914" lon="-118.5807876586914">
<ele>2180</ele>
<time>2016-10-21T10:46:12Z</time>
</trkpt>
<trkpt lat="36.81740188598633" lon="-118.58075714111328">
<ele>2180</ele>
<time>2016-10-21T10:46:19Z</time>
</trkpt>
<trkpt lat="36.81743240356445" lon="-118.5807113647461">
<ele>2176</ele>
<time>2016-10-21T10:46:25Z</time>
</trkpt>
<trkpt lat="36.81747055053711" lon="-118.58061218261719">
<ele>2171</ele>
<time>2016-10-21T10:46:35Z</time>
</trkpt>
<trkpt lat="36.81748962402344" lon="-118.58055877685547">
<ele>2175</ele>
<time>2016-10-21T10:46:41Z</time>
</trkpt>
<trkpt lat="36.81753158569336" lon="-118.58052825927734">
<ele>2175</ele>
<time>2016-10-21T10:46:47Z</time>
</trkpt>
<trkpt lat="36.81761169433594" lon="-118.5804443359375">
<ele>2182</ele>
<time>2016-10-21T10:46:58Z</time>
</trkpt>
<trkpt lat="36.8176383972168" lon="-118.58049774169922">
<ele>2179</ele>
<time>2016-10-21T10:47:11Z</time>
</trkpt>
<trkpt lat="36.81764602661133" lon="-118.58055877685547">
<ele>2182</ele>
<time>2016-10-21T10:47:17Z</time>
</trkpt>
<trkpt lat="36.81768798828125" lon="-118.58052825927734">
<ele>2188</ele>
<time>2016-10-21T10:47:25Z</time>
</trkpt>
<trkpt lat="36.81772232055664" lon="-118.58047485351563">
<ele>2189</ele>
<time>2016-10-21T10:47:31Z</time>
</trkpt>
<trkpt lat="36.817813873291016" lon="-118.5804443359375">
<ele>2188</ele>
<time>2016-10-21T10:47:41Z</time>
</trkpt>
<trkpt lat="36.81785202026367" lon="-118.58047485351563">
<ele>2185</ele>
<time>2016-10-21T10:47:47Z</time>
</trkpt>
</trkseg>
</trk>
<trk>
<name><![CDATA[10210348]]></name>
<number>51</number>
<extensions><topografix:color>ff000066</topografix:color></extensions>
<trkseg>
<trkpt lat="36.817928314208984" lon="-118.58048248291016">
<ele>2200</ele>
<time>2016-10-21T10:48:27Z</time>
</trkpt>
<trkpt lat="36.817970275878906" lon="-118.58045959472656">
<ele>2191</ele>
<time>2016-10-21T10:48:39Z</time>
</trkpt>
<trkpt lat="36.817962646484375" lon="-118.58052062988281">
<ele>2193</ele>
<time>2016-10-21T10:48:47Z</time>
</trkpt>
<trkpt lat="36.81793975830078" lon="-118.58064270019531">
<ele>2190</ele>
<time>2016-10-21T10:48:58Z</time>
</trkpt>
<trkpt lat="36.81790542602539" lon="-118.58068084716797">
<ele>2188</ele>
<time>2016-10-21T10:49:20Z</time>
</trkpt>
<trkpt lat="36.817901611328125" lon="-118.58074951171875">
<ele>2189</ele>
<time>2016-10-21T10:49:51Z</time>
</trkpt>
<trkpt lat="36.817867279052734" lon="-118.58084869384766">
<ele>2192</ele>
<time>2016-10-21T10:50:01Z</time>
</trkpt>
<trkpt lat="36.817909240722656" lon="-118.58082580566406">
<ele>2195</ele>
<time>2016-10-21T10:50:24Z</time>
</trkpt>
<trkpt lat="36.81795120239258" lon="-118.5807113647461">
<ele>2203</ele>
<time>2016-10-21T10:50:32Z</time>
</trkpt>
<trkpt lat="36.81801223754883" lon="-118.58062744140625">
<ele>2201</ele>
<time>2016-10-21T10:50:39Z</time>
</trkpt>
<trkpt lat="36.818092346191406" lon="-118.58056640625">
<ele>2203</ele>
<time>2016-10-21T10:50:48Z</time>
</trkpt>
<trkpt lat="36.81817626953125" lon="-118.58052825927734">
<ele>2208</ele>
<time>2016-10-21T10:50:57Z</time>
</trkpt>
<trkpt lat="36.81827926635742" lon="-118.58050537109375">
<ele>2211</ele>
<time>2016-10-21T10:51:04Z</time>
</trkpt>
<trkpt lat="36.81833267211914" lon="-118.58052062988281">
<ele>2206</ele>
<time>2016-10-21T10:51:14Z</time>
</trkpt>
<trkpt lat="36.818382263183594" lon="-118.58052825927734">
<ele>2205</ele>
<time>2016-10-21T10:51:23Z</time>
</trkpt>
<trkpt lat="36.81847381591797" lon="-118.58051300048828">
<ele>2212</ele>
<time>2016-10-21T10:51:33Z</time>
</trkpt>
<trkpt lat="36.818519592285156" lon="-118.58049774169922">
<ele>2204</ele>
<time>2016-10-21T10:51:41Z</time>
</trkpt>
<trkpt lat="36.818565368652344" lon="-118.58049774169922">
<ele>2204</ele>
<time>2016-10-21T10:51:47Z</time>
</trkpt>
<trkpt lat="36.81866455078125" lon="-118.5804672241211">
<ele>2207</ele>
<time>2016-10-21T10:51:56Z</time>
</trkpt>
<trkpt lat="36.81877136230469" lon="-118.58045959472656">
<ele>2208</ele>
<time>2016-10-21T10:52:04Z</time>
</trkpt>
<trkpt lat="36.81887435913086" lon="-118.58052062988281">
<ele>2208</ele>
<time>2016-10-21T10:52:11Z</time>
</trkpt>
<trkpt lat="36.81897735595703" lon="-118.58052062988281">
<ele>2206</ele>
<time>2016-10-21T10:52:22Z</time>
</trkpt>
<trkpt lat="36.819034576416016" lon="-118.58055114746094">
<ele>2210</ele>
<time>2016-10-21T10:52:29Z</time>
</trkpt>
<trkpt lat="36.81912612915039" lon="-118.58061981201172">
<ele>2212</ele>
<time>2016-10-21T10:52:36Z</time>
</trkpt>
<trkpt lat="36.81919860839844" lon="-118.5807113647461">
<ele>2208</ele>
<time>2016-10-21T10:52:44Z</time>
</trkpt>
<trkpt lat="36.81924819946289" lon="-118.58081817626953">
<ele>2213</ele>
<time>2016-10-21T10:52:53Z</time>
</trkpt>
<trkpt lat="36.8193359375" lon="-118.58087921142578">
<ele>2215</ele>
<time>2016-10-21T10:53:02Z</time>
</trkpt>
<trkpt lat="36.81942367553711" lon="-118.5809097290039">
<ele>2214</ele>
<time>2016-10-21T10:53:13Z</time>
</trkpt>
<trkpt lat="36.819488525390625" lon="-118.58099365234375">
<ele>2220</ele>
<time>2016-10-21T10:53:25Z</time>
</trkpt>
<trkpt lat="36.81947708129883" lon="-118.58106994628906">
<ele>2220</ele>
<time>2016-10-21T10:53:36Z</time>
</trkpt>
<trkpt lat="36.819496154785156" lon="-118.58113098144531">
<ele>2224</ele>
<time>2016-10-21T10:54:15Z</time>
</trkpt>
<trkpt lat="36.81950378417969" lon="-118.5811996459961">
<ele>2223</ele>
<time>2016-10-21T10:54:22Z</time>
</trkpt>
<trkpt lat="36.81955337524414" lon="-118.58128356933594">
<ele>2227</ele>
<time>2016-10-21T10:54:34Z</time>
</trkpt>
<trkpt lat="36.819580078125" lon="-118.58133697509766">
<ele>2231</ele>
<time>2016-10-21T10:54:43Z</time>
</trkpt>
<trkpt lat="36.81964874267578" lon="-118.5814208984375">
<ele>2230</ele>
<time>2016-10-21T10:54:50Z</time>
</trkpt>
<trkpt lat="36.81965255737305" lon="-118.58154296875">
<ele>2235</ele>
<time>2016-10-21T10:55:01Z</time>
</trkpt>
<trkpt lat="36.81966781616211" lon="-118.58165740966797">
<ele>2234</ele>
<time>2016-10-21T10:55:09Z</time>
</trkpt>
<trkpt lat="36.81969451904297" lon="-118.58177185058594">
<ele>2233</ele>
<time>2016-10-21T10:55:18Z</time>
</trkpt>
<trkpt lat="36.819698333740234" lon="-118.58183288574219">
<ele>2232</ele>
<time>2016-10-21T10:55:25Z</time>
</trkpt>
<trkpt lat="36.81970977783203" lon="-118.5819091796875">
<ele>2238</ele>
<time>2016-10-21T10:55:33Z</time>
</trkpt>
<trkpt lat="36.819705963134766" lon="-118.58197021484375">
<ele>2237</ele>
<time>2016-10-21T10:55:39Z</time>
</trkpt>
<trkpt lat="36.81970977783203" lon="-118.58203887939453">
<ele>2237</ele>
<time>2016-10-21T10:55:46Z</time>
</trkpt>
<trkpt lat="36.81975173950195" lon="-118.58213806152344">
<ele>2242</ele>
<time>2016-10-21T10:55:57Z</time>
</trkpt>
<trkpt lat="36.819820404052734" lon="-118.58223724365234">
<ele>2240</ele>
<time>2016-10-21T10:56:06Z</time>
</trkpt>
<trkpt lat="36.81989669799805" lon="-118.58231353759766">
<ele>2237</ele>
<time>2016-10-21T10:56:15Z</time>
</trkpt>
<trkpt lat="36.819942474365234" lon="-118.58233642578125">
<ele>2237</ele>
<time>2016-10-21T10:56:21Z</time>
</trkpt>
<trkpt lat="36.820011138916016" lon="-118.58236694335938">
<ele>2239</ele>
<time>2016-10-21T10:56:27Z</time>
</trkpt>
<trkpt lat="36.82005310058594" lon="-118.58238983154297">
<ele>2243</ele>
<time>2016-10-21T10:56:40Z</time>
</trkpt>
<trkpt lat="36.82009506225586" lon="-118.58241271972656">
<ele>2244</ele>
<time>2016-10-21T10:56:46Z</time>
</trkpt>
<trkpt lat="36.8201904296875" lon="-118.58245086669922">
<ele>2246</ele>
<time>2016-10-21T10:56:54Z</time>
</trkpt>
<trkpt lat="36.820281982421875" lon="-118.5824966430664">
<ele>2251</ele>
<time>2016-10-21T10:57:02Z</time>
</trkpt>
<trkpt lat="36.82032775878906" lon="-118.58251953125">
<ele>2254</ele>
<time>2016-10-21T10:57:08Z</time>
</trkpt>
<trkpt lat="36.82035827636719" lon="-118.58255767822266">
<ele>2253</ele>
<time>2016-10-21T10:57:15Z</time>
</trkpt>
<trkpt lat="36.82039260864258" lon="-118.58259582519531">
<ele>2251</ele>
<time>2016-10-21T10:57:22Z</time>
</trkpt>
<trkpt lat="36.82052230834961" lon="-118.5826416015625">
<ele>2254</ele>
<time>2016-10-21T10:57:30Z</time>
</trkpt>
<trkpt lat="36.82067108154297" lon="-118.58270263671875">
<ele>2250</ele>
<time>2016-10-21T10:57:38Z</time>
</trkpt>
<trkpt lat="36.82076644897461" lon="-118.58275604248047">
<ele>2247</ele>
<time>2016-10-21T10:57:46Z</time>
</trkpt>
<trkpt lat="36.82086944580078" lon="-118.58280944824219">
<ele>2257</ele>
<time>2016-10-21T10:57:55Z</time>
</trkpt>
<trkpt lat="36.82090759277344" lon="-118.58284759521484">
<ele>2267</ele>
<time>2016-10-21T10:58:33Z</time>
</trkpt>
<trkpt lat="36.821014404296875" lon="-118.58287811279297">
<ele>2272</ele>
<time>2016-10-21T10:58:39Z</time>
</trkpt>
<trkpt lat="36.82111358642578" lon="-118.58293914794922">
<ele>2268</ele>
<time>2016-10-21T10:58:45Z</time>
</trkpt>
<trkpt lat="36.82121276855469" lon="-118.58296203613281">
<ele>2270</ele>
<time>2016-10-21T10:58:52Z</time>
</trkpt>
<trkpt lat="36.82123565673828" lon="-118.58302307128906">
<ele>2269</ele>
<time>2016-10-21T10:59:03Z</time>
</trkpt>
<trkpt lat="36.8212890625" lon="-118.58302307128906">
<ele>2271</ele>
<time>2016-10-21T10:59:09Z</time>
</trkpt>
<trkpt lat="36.82139205932617" lon="-118.58305358886719">
<ele>2268</ele>
<time>2016-10-21T10:59:17Z</time>
</trkpt>
<trkpt lat="36.82148742675781" lon="-118.58307647705078">
<ele>2267</ele>
<time>2016-10-21T10:59:25Z</time>
</trkpt>
<trkpt lat="36.82155227661133" lon="-118.58306121826172">
<ele>2268</ele>
<time>2016-10-21T10:59:35Z</time>
</trkpt>
<trkpt lat="36.82158279418945" lon="-118.58301544189453">
<ele>2272</ele>
<time>2016-10-21T10:59:47Z</time>
</trkpt>
<trkpt lat="36.821685791015625" lon="-118.58306884765625">
<ele>2272</ele>
<time>2016-10-21T10:59:56Z</time>
</trkpt>
<trkpt lat="36.82176971435547" lon="-118.5831298828125">
<ele>2270</ele>
<time>2016-10-21T11:00:06Z</time>
</trkpt>
<trkpt lat="36.82187271118164" lon="-118.58314514160156">
<ele>2273</ele>
<time>2016-10-21T11:00:14Z</time>
</trkpt>
<trkpt lat="36.82197952270508" lon="-118.58316040039063">
<ele>2274</ele>
<time>2016-10-21T11:00:23Z</time>
</trkpt>
<trkpt lat="36.82209014892578" lon="-118.58314514160156">
<ele>2278</ele>
<time>2016-10-21T11:00:30Z</time>
</trkpt>
<trkpt lat="36.822181701660156" lon="-118.58307647705078">
<ele>2278</ele>
<time>2016-10-21T11:00:39Z</time>
</trkpt>
<trkpt lat="36.82217025756836" lon="-118.58295440673828">
<ele>2274</ele>
<time>2016-10-21T11:00:51Z</time>
</trkpt>
<trkpt lat="36.82224655151367" lon="-118.58289337158203">
<ele>2271</ele>
<time>2016-10-21T11:01:01Z</time>
</trkpt>
<trkpt lat="36.82233810424805" lon="-118.58283233642578">
<ele>2275</ele>
<time>2016-10-21T11:01:08Z</time>
</trkpt>
<trkpt lat="36.82243728637695" lon="-118.58285522460938">
<ele>2272</ele>
<time>2016-10-21T11:01:15Z</time>
</trkpt>
<trkpt lat="36.82252883911133" lon="-118.58289337158203">
<ele>2277</ele>
<time>2016-10-21T11:01:23Z</time>
</trkpt>
<trkpt lat="36.82260513305664" lon="-118.58287811279297">
<ele>2273</ele>
<time>2016-10-21T11:01:33Z</time>
</trkpt>
<trkpt lat="36.82265090942383" lon="-118.5828628540039">
<ele>2275</ele>
<time>2016-10-21T11:01:43Z</time>
</trkpt>
<trkpt lat="36.8227653503418" lon="-118.5828628540039">
<ele>2278</ele>
<time>2016-10-21T11:01:52Z</time>
</trkpt>
<trkpt lat="36.82285690307617" lon="-118.58287048339844">
<ele>2276</ele>
<time>2016-10-21T11:02:03Z</time>
</trkpt>
<trkpt lat="36.82294464111328" lon="-118.58280944824219">
<ele>2275</ele>
<time>2016-10-21T11:02:11Z</time>
</trkpt>
<trkpt lat="36.82301712036133" lon="-118.58271789550781">
<ele>2275</ele>
<time>2016-10-21T11:02:20Z</time>
</trkpt>
<trkpt lat="36.82307434082031" lon="-118.5826187133789">
<ele>2276</ele>
<time>2016-10-21T11:02:26Z</time>
</trkpt>
<trkpt lat="36.82309341430664" lon="-118.58247375488281">
<ele>2279</ele>
<time>2016-10-21T11:02:33Z</time>
</trkpt>
<trkpt lat="36.823150634765625" lon="-118.58235931396484">
<ele>2278</ele>
<time>2016-10-21T11:02:43Z</time>
</trkpt>
<trkpt lat="36.823184967041016" lon="-118.58222198486328">
<ele>2278</ele>
<time>2016-10-21T11:02:49Z</time>
</trkpt>
<trkpt lat="36.823246002197266" lon="-118.58212280273438">
<ele>2276</ele>
<time>2016-10-21T11:02:58Z</time>
</trkpt>
<trkpt lat="36.82325744628906" lon="-118.5820541381836">
<ele>2276</ele>
<time>2016-10-21T11:03:04Z</time>
</trkpt>
<trkpt lat="36.82326889038086" lon="-118.58199310302734">
<ele>2279</ele>
<time>2016-10-21T11:03:10Z</time>
</trkpt>
<trkpt lat="36.82334899902344" lon="-118.58191680908203">
<ele>2278</ele>
<time>2016-10-21T11:03:19Z</time>
</trkpt>
<trkpt lat="36.82340621948242" lon="-118.58183288574219">
<ele>2281</ele>
<time>2016-10-21T11:03:27Z</time>
</trkpt>
<trkpt lat="36.82345962524414" lon="-118.58173370361328">
<ele>2283</ele>
<time>2016-10-21T11:03:35Z</time>
</trkpt>
<trkpt lat="36.823551177978516" lon="-118.58165740966797">
<ele>2281</ele>
<time>2016-10-21T11:03:42Z</time>
</trkpt>
<trkpt lat="36.8236198425293" lon="-118.58157348632813">
<ele>2286</ele>
<time>2016-10-21T11:03:51Z</time>
</trkpt>
<trkpt lat="36.82373809814453" lon="-118.58155822753906">
<ele>2287</ele>
<time>2016-10-21T11:03:57Z</time>
</trkpt>
<trkpt lat="36.82382583618164" lon="-118.58148956298828">
<ele>2288</ele>
<time>2016-10-21T11:04:03Z</time>
</trkpt>
<trkpt lat="36.82390213012695" lon="-118.5814208984375">
<ele>2286</ele>
<time>2016-10-21T11:04:12Z</time>
</trkpt>
<trkpt lat="36.82393264770508" lon="-118.58138275146484">
<ele>2285</ele>
<time>2016-10-21T11:04:18Z</time>
</trkpt>
<trkpt lat="36.82402038574219" lon="-118.581298828125">
<ele>2277</ele>
<time>2016-10-21T11:04:27Z</time>
</trkpt>
<trkpt lat="36.82411193847656" lon="-118.58125305175781">
<ele>2277</ele>
<time>2016-10-21T11:04:37Z</time>
</trkpt>
<trkpt lat="36.82421112060547" lon="-118.58128356933594">
<ele>2281</ele>
<time>2016-10-21T11:04:44Z</time>
</trkpt>
<trkpt lat="36.82426452636719" lon="-118.58128356933594">
<ele>2282</ele>
<time>2016-10-21T11:04:50Z</time>
</trkpt>
<trkpt lat="36.824363708496094" lon="-118.58130645751953">
<ele>2279</ele>
<time>2016-10-21T11:04:57Z</time>
</trkpt>
<trkpt lat="36.824459075927734" lon="-118.58134460449219">
<ele>2277</ele>
<time>2016-10-21T11:05:07Z</time>
</trkpt>
<trkpt lat="36.82455825805664" lon="-118.58138275146484">
<ele>2279</ele>
<time>2016-10-21T11:05:14Z</time>
</trkpt>
<trkpt lat="36.82465744018555" lon="-118.5813217163086">
<ele>2284</ele>
<time>2016-10-21T11:05:21Z</time>
</trkpt>
<trkpt lat="36.824745178222656" lon="-118.58130645751953">
<ele>2281</ele>
<time>2016-10-21T11:05:27Z</time>
</trkpt>
<trkpt lat="36.82484817504883" lon="-118.58128356933594">
<ele>2283</ele>
<time>2016-10-21T11:05:36Z</time>
</trkpt>
<trkpt lat="36.8249397277832" lon="-118.58122253417969">
<ele>2284</ele>
<time>2016-10-21T11:05:42Z</time>
</trkpt>
<trkpt lat="36.82499694824219" lon="-118.58113098144531">
<ele>2283</ele>
<time>2016-10-21T11:05:49Z</time>
</trkpt>
<trkpt lat="36.82503890991211" lon="-118.58109283447266">
<ele>2283</ele>
<time>2016-10-21T11:05:57Z</time>
</trkpt>
<trkpt lat="36.825138092041016" lon="-118.58108520507813">
<ele>2284</ele>
<time>2016-10-21T11:06:04Z</time>
</trkpt>
<trkpt lat="36.82524490356445" lon="-118.58108520507813">
<ele>2283</ele>
<time>2016-10-21T11:06:14Z</time>
</trkpt>
<trkpt lat="36.82533645629883" lon="-118.58103942871094">
<ele>2282</ele>
<time>2016-10-21T11:06:21Z</time>
</trkpt>
<trkpt lat="36.825439453125" lon="-118.58102416992188">
<ele>2280</ele>
<time>2016-10-21T11:06:27Z</time>
</trkpt>
<trkpt lat="36.825462341308594" lon="-118.58091735839844">
<ele>2282</ele>
<time>2016-10-21T11:06:37Z</time>
</trkpt>
<trkpt lat="36.825538635253906" lon="-118.58091735839844">
<ele>2286</ele>
<time>2016-10-21T11:06:56Z</time>
</trkpt>
<trkpt lat="36.82557678222656" lon="-118.5809555053711">
<ele>2290</ele>
<time>2016-10-21T11:07:05Z</time>
</trkpt>
<trkpt lat="36.8256721496582" lon="-118.58089447021484">
<ele>2289</ele>
<time>2016-10-21T11:07:14Z</time>
</trkpt>
<trkpt lat="36.825767517089844" lon="-118.58085632324219">
<ele>2291</ele>
<time>2016-10-21T11:07:21Z</time>
</trkpt>
<trkpt lat="36.82583236694336" lon="-118.580810546875">
<ele>2294</ele>
<time>2016-10-21T11:07:42Z</time>
</trkpt>
<trkpt lat="36.825931549072266" lon="-118.58081817626953">
<ele>2292</ele>
<time>2016-10-21T11:07:50Z</time>
</trkpt>
<trkpt lat="36.8260383605957" lon="-118.58087158203125">
<ele>2290</ele>
<time>2016-10-21T11:07:59Z</time>
</trkpt>
<trkpt lat="36.82612991333008" lon="-118.5809326171875">
<ele>2294</ele>
<time>2016-10-21T11:08:07Z</time>
</trkpt>
<trkpt lat="36.82622528076172" lon="-118.58094024658203">
<ele>2293</ele>
<time>2016-10-21T11:08:17Z</time>
</trkpt>
<trkpt lat="36.82625198364258" lon="-118.58088684082031">
<ele>2296</ele>
<time>2016-10-21T11:08:23Z</time>
</trkpt>
<trkpt lat="36.826332092285156" lon="-118.58085632324219">
<ele>2298</ele>
<time>2016-10-21T11:08:33Z</time>
</trkpt>
<trkpt lat="36.826385498046875" lon="-118.58085632324219">
<ele>2298</ele>
<time>2016-10-21T11:08:39Z</time>
</trkpt>
<trkpt lat="36.82647705078125" lon="-118.58086395263672">
<ele>2302</ele>
<time>2016-10-21T11:08:46Z</time>
</trkpt>
<trkpt lat="36.82658386230469" lon="-118.58088684082031">
<ele>2305</ele>
<time>2016-10-21T11:08:54Z</time>
</trkpt>
<trkpt lat="36.82662582397461" lon="-118.58085632324219">
<ele>2303</ele>
<time>2016-10-21T11:09:01Z</time>
</trkpt>
<trkpt lat="36.82673645019531" lon="-118.58087158203125">
<ele>2306</ele>
<time>2016-10-21T11:09:09Z</time>
</trkpt>
<trkpt lat="36.82683181762695" lon="-118.58090209960938">
<ele>2305</ele>
<time>2016-10-21T11:09:18Z</time>
</trkpt>
<trkpt lat="36.826900482177734" lon="-118.58094787597656">
<ele>2307</ele>
<time>2016-10-21T11:09:27Z</time>
</trkpt>
<trkpt lat="36.82695007324219" lon="-118.58097076416016">
<ele>2309</ele>
<time>2016-10-21T11:09:34Z</time>
</trkpt>
<trkpt lat="36.82698440551758" lon="-118.58100891113281">
<ele>2310</ele>
<time>2016-10-21T11:09:50Z</time>
</trkpt>
<trkpt lat="36.827091217041016" lon="-118.58103942871094">
<ele>2312</ele>
<time>2016-10-21T11:09:56Z</time>
</trkpt>
<trkpt lat="36.827125549316406" lon="-118.58108520507813">
<ele>2315</ele>
<time>2016-10-21T11:10:02Z</time>
</trkpt>
<trkpt lat="36.827171325683594" lon="-118.58106994628906">
<ele>2314</ele>
<time>2016-10-21T11:10:27Z</time>
</trkpt>
<trkpt lat="36.827186584472656" lon="-118.58101654052734">
<ele>2314</ele>
<time>2016-10-21T11:10:38Z</time>
</trkpt>
<trkpt lat="36.8271369934082" lon="-118.58103942871094">
<ele>2316</ele>
<time>2016-10-21T11:11:04Z</time>
</trkpt>
<trkpt lat="36.82711410522461" lon="-118.58098602294922">
<ele>2316</ele>
<time>2016-10-21T11:11:12Z</time>
</trkpt>
<trkpt lat="36.827178955078125" lon="-118.5810317993164">
<ele>2312</ele>
<time>2016-10-21T11:11:37Z</time>
</trkpt>
<trkpt lat="36.82730484008789" lon="-118.58111572265625">
<ele>2315</ele>
<time>2016-10-21T11:11:50Z</time>
</trkpt>
<trkpt lat="36.82734298706055" lon="-118.58106994628906">
<ele>2313</ele>
<time>2016-10-21T11:12:03Z</time>
</trkpt>
<trkpt lat="36.827510833740234" lon="-118.58102416992188">
<ele>2313</ele>
<time>2016-10-21T11:12:10Z</time>
</trkpt>
<trkpt lat="36.827667236328125" lon="-118.58100128173828">
<ele>2317</ele>
<time>2016-10-21T11:12:17Z</time>
</trkpt>
<trkpt lat="36.827762603759766" lon="-118.58094787597656">
<ele>2323</ele>
<time>2016-10-21T11:12:27Z</time>
</trkpt>
<trkpt lat="36.827857971191406" lon="-118.58092498779297">
<ele>2327</ele>
<time>2016-10-21T11:12:39Z</time>
</trkpt>
<trkpt lat="36.82795333862305" lon="-118.58094787597656">
<ele>2329</ele>
<time>2016-10-21T11:12:56Z</time>
</trkpt>
<trkpt lat="36.82804870605469" lon="-118.58089447021484">
<ele>2326</ele>
<time>2016-10-21T11:13:05Z</time>
</trkpt>
<trkpt lat="36.828147888183594" lon="-118.58087158203125">
<ele>2327</ele>
<time>2016-10-21T11:13:14Z</time>
</trkpt>
<trkpt lat="36.828250885009766" lon="-118.58087921142578">
<ele>2328</ele>
<time>2016-10-21T11:13:25Z</time>
</trkpt>
<trkpt lat="36.828304290771484" lon="-118.58092498779297">
<ele>2328</ele>
<time>2016-10-21T11:13:45Z</time>
</trkpt>
<trkpt lat="36.8283576965332" lon="-118.58094024658203">
<ele>2328</ele>
<time>2016-10-21T11:13:57Z</time>
</trkpt>
<trkpt lat="36.82852554321289" lon="-118.58096313476563">
<ele>2325</ele>
<time>2016-10-21T11:14:08Z</time>
</trkpt>
<trkpt lat="36.82856750488281" lon="-118.58099365234375">
<ele>2327</ele>
<time>2016-10-21T11:14:22Z</time>
</trkpt>
<trkpt lat="36.82868576049805" lon="-118.58094787597656">
<ele>2332</ele>
<time>2016-10-21T11:14:30Z</time>
</trkpt>
<trkpt lat="36.828800201416016" lon="-118.5809326171875">
<ele>2341</ele>
<time>2016-10-21T11:14:37Z</time>
</trkpt>
<trkpt lat="36.828887939453125" lon="-118.58091735839844">
<ele>2342</ele>
<time>2016-10-21T11:14:45Z</time>
</trkpt>
<trkpt lat="36.8289794921875" lon="-118.5809555053711">
<ele>2347</ele>
<time>2016-10-21T11:14:52Z</time>
</trkpt>
<trkpt lat="36.829010009765625" lon="-118.5809097290039">
<ele>2347</ele>
<time>2016-10-21T11:14:59Z</time>
</trkpt>
<trkpt lat="36.82905578613281" lon="-118.58091735839844">
<ele>2348</ele>
<time>2016-10-21T11:15:05Z</time>
</trkpt>
<trkpt lat="36.829158782958984" lon="-118.58090209960938">
<ele>2353</ele>
<time>2016-10-21T11:15:15Z</time>
</trkpt>
<trkpt lat="36.829254150390625" lon="-118.58086395263672">
<ele>2358</ele>
<time>2016-10-21T11:15:24Z</time>
</trkpt>
<trkpt lat="36.82931137084961" lon="-118.58089447021484">
<ele>2357</ele>
<time>2016-10-21T11:16:19Z</time>
</trkpt>
<trkpt lat="36.82941818237305" lon="-118.58086395263672">
<ele>2358</ele>
<time>2016-10-21T11:16:27Z</time>
</trkpt>
<trkpt lat="36.82952117919922" lon="-118.58082580566406">
<ele>2357</ele>
<time>2016-10-21T11:16:33Z</time>
</trkpt>
<trkpt lat="36.82959747314453" lon="-118.58074188232422">
<ele>2357</ele>
<time>2016-10-21T11:16:42Z</time>
</trkpt>
<trkpt lat="36.82961654663086" lon="-118.58068084716797">
<ele>2359</ele>
<time>2016-10-21T11:16:51Z</time>
</trkpt>
<trkpt lat="36.82960891723633" lon="-118.58061981201172">
<ele>2358</ele>
<time>2016-10-21T11:16:58Z</time>
</trkpt>
<trkpt lat="36.829708099365234" lon="-118.58058166503906">
<ele>2360</ele>
<time>2016-10-21T11:17:06Z</time>
</trkpt>
<trkpt lat="36.82975769042969" lon="-118.58048248291016">
<ele>2361</ele>
<time>2016-10-21T11:17:13Z</time>
</trkpt>
<trkpt lat="36.829795837402344" lon="-118.58037567138672">
<ele>2358</ele>
<time>2016-10-21T11:17:20Z</time>
</trkpt>
<trkpt lat="36.82977294921875" lon="-118.58025360107422">
<ele>2354</ele>
<time>2016-10-21T11:17:27Z</time>
</trkpt>
<trkpt lat="36.82978439331055" lon="-118.58013153076172">
<ele>2355</ele>
<time>2016-10-21T11:17:36Z</time>
</trkpt>
<trkpt lat="36.829872131347656" lon="-118.58006286621094">
<ele>2357</ele>
<time>2016-10-21T11:17:45Z</time>
</trkpt>
<trkpt lat="36.82989501953125" lon="-118.57994079589844">
<ele>2357</ele>
<time>2016-10-21T11:17:53Z</time>
</trkpt>
<trkpt lat="36.829898834228516" lon="-118.57987213134766">
<ele>2359</ele>
<time>2016-10-21T11:17:59Z</time>
</trkpt>
<trkpt lat="36.829933166503906" lon="-118.57975769042969">
<ele>2361</ele>
<time>2016-10-21T11:18:07Z</time>
</trkpt>
<trkpt lat="36.82997131347656" lon="-118.57965087890625">
<ele>2367</ele>
<time>2016-10-21T11:18:16Z</time>
</trkpt>
<trkpt lat="36.82999038696289" lon="-118.57954406738281">
<ele>2368</ele>
<time>2016-10-21T11:18:24Z</time>
</trkpt>
<trkpt lat="36.82998275756836" lon="-118.57942962646484">
<ele>2368</ele>
<time>2016-10-21T11:18:31Z</time>
</trkpt>
<trkpt lat="36.830020904541016" lon="-118.5793228149414">
<ele>2371</ele>
<time>2016-10-21T11:18:45Z</time>
</trkpt>
<trkpt lat="36.83002853393555" lon="-118.57926177978516">
<ele>2372</ele>
<time>2016-10-21T11:18:57Z</time>
</trkpt>
<trkpt lat="36.830078125" lon="-118.57913970947266">
<ele>2373</ele>
<time>2016-10-21T11:19:05Z</time>
</trkpt>
<trkpt lat="36.830081939697266" lon="-118.5790023803711">
<ele>2376</ele>
<time>2016-10-21T11:19:15Z</time>
</trkpt>
<trkpt lat="36.83009338378906" lon="-118.57892608642578">
<ele>2377</ele>
<time>2016-10-21T11:19:21Z</time>
</trkpt>
<trkpt lat="36.830108642578125" lon="-118.57881164550781">
<ele>2380</ele>
<time>2016-10-21T11:19:27Z</time>
</trkpt>
<trkpt lat="36.8302001953125" lon="-118.5787582397461">
<ele>2381</ele>
<time>2016-10-21T11:19:34Z</time>
</trkpt>
<trkpt lat="36.83027648925781" lon="-118.57881164550781">
<ele>2375</ele>
<time>2016-10-21T11:19:49Z</time>
</trkpt>
<trkpt lat="36.8303108215332" lon="-118.57886505126953">
<ele>2376</ele>
<time>2016-10-21T11:19:57Z</time>
</trkpt>
<trkpt lat="36.83039093017578" lon="-118.57893371582031">
<ele>2378</ele>
<time>2016-10-21T11:20:08Z</time>
</trkpt>
<trkpt lat="36.830440521240234" lon="-118.57894897460938">
<ele>2378</ele>
<time>2016-10-21T11:21:17Z</time>
</trkpt>
<trkpt lat="36.83047103881836" lon="-118.57901000976563">
<ele>2380</ele>
<time>2016-10-21T11:21:24Z</time>
</trkpt>
<trkpt lat="36.83052062988281" lon="-118.5791015625">
<ele>2379</ele>
<time>2016-10-21T11:21:33Z</time>
</trkpt>
<trkpt lat="36.83053970336914" lon="-118.57915496826172">
<ele>2378</ele>
<time>2016-10-21T11:21:39Z</time>
</trkpt>
<trkpt lat="36.83062744140625" lon="-118.57921600341797">
<ele>2381</ele>
<time>2016-10-21T11:21:49Z</time>
</trkpt>
<trkpt lat="36.83070755004883" lon="-118.57929992675781">
<ele>2383</ele>
<time>2016-10-21T11:21:57Z</time>
</trkpt>
<trkpt lat="36.830787658691406" lon="-118.5793685913086">
<ele>2386</ele>
<time>2016-10-21T11:22:07Z</time>
</trkpt>
<trkpt lat="36.83081817626953" lon="-118.57942962646484">
<ele>2383</ele>
<time>2016-10-21T11:22:13Z</time>
</trkpt>
<trkpt lat="36.83088302612305" lon="-118.57952880859375">
<ele>2390</ele>
<time>2016-10-21T11:22:24Z</time>
</trkpt>
<trkpt lat="36.83095932006836" lon="-118.57955932617188">
<ele>2389</ele>
<time>2016-10-21T11:22:32Z</time>
</trkpt>
<trkpt lat="36.8310432434082" lon="-118.57962036132813">
<ele>2392</ele>
<time>2016-10-21T11:22:41Z</time>
</trkpt>
<trkpt lat="36.83114242553711" lon="-118.57965087890625">
<ele>2389</ele>
<time>2016-10-21T11:22:53Z</time>
</trkpt>
<trkpt lat="36.831214904785156" lon="-118.57975006103516">
<ele>2390</ele>
<time>2016-10-21T11:23:04Z</time>
</trkpt>
<trkpt lat="36.83129119873047" lon="-118.57981872558594">
<ele>2390</ele>
<time>2016-10-21T11:23:12Z</time>
</trkpt>
<trkpt lat="36.83133316040039" lon="-118.57984924316406">
<ele>2392</ele>
<time>2016-10-21T11:23:22Z</time>
</trkpt>
<trkpt lat="36.83139419555664" lon="-118.57991027832031">
<ele>2395</ele>
<time>2016-10-21T11:23:31Z</time>
</trkpt>
<trkpt lat="36.83146286010742" lon="-118.57999420166016">
<ele>2398</ele>
<time>2016-10-21T11:23:39Z</time>
</trkpt>
<trkpt lat="36.831546783447266" lon="-118.5800552368164">
<ele>2400</ele>
<time>2016-10-21T11:23:47Z</time>
</trkpt>
<trkpt lat="36.83159255981445" lon="-118.580078125">
<ele>2399</ele>
<time>2016-10-21T11:23:54Z</time>
</trkpt>
<trkpt lat="36.83168029785156" lon="-118.58013153076172">
<ele>2398</ele>
<time>2016-10-21T11:24:04Z</time>
</trkpt>
<trkpt lat="36.831748962402344" lon="-118.58021545410156">
<ele>2392</ele>
<time>2016-10-21T11:24:14Z</time>
</trkpt>
<trkpt lat="36.83183670043945" lon="-118.58024597167969">
<ele>2395</ele>
<time>2016-10-21T11:24:22Z</time>
</trkpt>
<trkpt lat="36.83180618286133" lon="-118.58014678955078">
<ele>2396</ele>
<time>2016-10-21T11:24:37Z</time>
</trkpt>
<trkpt lat="36.831809997558594" lon="-118.58008575439453">
<ele>2395</ele>
<time>2016-10-21T11:24:43Z</time>
</trkpt>
<trkpt lat="36.831809997558594" lon="-118.58001708984375">
<ele>2392</ele>
<time>2016-10-21T11:24:49Z</time>
</trkpt>
<trkpt lat="36.831817626953125" lon="-118.57996368408203">
<ele>2400</ele>
<time>2016-10-21T11:25:04Z</time>
</trkpt>
<trkpt lat="36.83182907104492" lon="-118.579833984375">
<ele>2399</ele>
<time>2016-10-21T11:25:12Z</time>
</trkpt>
<trkpt lat="36.831817626953125" lon="-118.57969665527344">
<ele>2405</ele>
<time>2016-10-21T11:25:21Z</time>
</trkpt>
<trkpt lat="36.831817626953125" lon="-118.57957458496094">
<ele>2413</ele>
<time>2016-10-21T11:25:27Z</time>
</trkpt>
<trkpt lat="36.83180618286133" lon="-118.5794448852539">
<ele>2410</ele>
<time>2016-10-21T11:25:35Z</time>
</trkpt>
<trkpt lat="36.83183670043945" lon="-118.5793228149414">
<ele>2407</ele>
<time>2016-10-21T11:25:44Z</time>
</trkpt>
<trkpt lat="36.83190155029297" lon="-118.5792236328125">
<ele>2406</ele>
<time>2016-10-21T11:25:56Z</time>
</trkpt>
<trkpt lat="36.831878662109375" lon="-118.57909393310547">
<ele>2412</ele>
<time>2016-10-21T11:26:05Z</time>
</trkpt>
<trkpt lat="36.83191680908203" lon="-118.5789794921875">
<ele>2416</ele>
<time>2016-10-21T11:26:14Z</time>
</trkpt>
<trkpt lat="36.83202362060547" lon="-118.57892608642578">
<ele>2420</ele>
<time>2016-10-21T11:26:20Z</time>
</trkpt>
<trkpt lat="36.83208465576172" lon="-118.57887268066406">
<ele>2420</ele>
<time>2016-10-21T11:26:27Z</time>
</trkpt>
<trkpt lat="36.832130432128906" lon="-118.57878112792969">
<ele>2413</ele>
<time>2016-10-21T11:26:35Z</time>
</trkpt>
<trkpt lat="36.83217239379883" lon="-118.57875061035156">
<ele>2411</ele>
<time>2016-10-21T11:26:41Z</time>
</trkpt>
<trkpt lat="36.83222579956055" lon="-118.57864379882813">
<ele>2416</ele>
<time>2016-10-21T11:26:51Z</time>
</trkpt>
<trkpt lat="36.83225631713867" lon="-118.57853698730469">
<ele>2418</ele>
<time>2016-10-21T11:26:59Z</time>
</trkpt>
<trkpt lat="36.83232879638672" lon="-118.57844543457031">
<ele>2420</ele>
<time>2016-10-21T11:27:09Z</time>
</trkpt>
<trkpt lat="36.83241271972656" lon="-118.578369140625">
<ele>2421</ele>
<time>2016-10-21T11:27:19Z</time>
</trkpt>
<trkpt lat="36.83247375488281" lon="-118.57830810546875">
<ele>2422</ele>
<time>2016-10-21T11:27:27Z</time>
</trkpt>
<trkpt lat="36.83255386352539" lon="-118.57823181152344">
<ele>2422</ele>
<time>2016-10-21T11:27:35Z</time>
</trkpt>
<trkpt lat="36.832637786865234" lon="-118.57817840576172">
<ele>2424</ele>
<time>2016-10-21T11:27:47Z</time>
</trkpt>
<trkpt lat="36.832698822021484" lon="-118.57807922363281">
<ele>2422</ele>
<time>2016-10-21T11:27:58Z</time>
</trkpt>
<trkpt lat="36.8327522277832" lon="-118.57797241210938">
<ele>2419</ele>
<time>2016-10-21T11:28:06Z</time>
</trkpt>
<trkpt lat="36.832801818847656" lon="-118.577880859375">
<ele>2416</ele>
<time>2016-10-21T11:28:12Z</time>
</trkpt>
<trkpt lat="36.83290481567383" lon="-118.5779037475586">
<ele>2427</ele>
<time>2016-10-21T11:28:22Z</time>
</trkpt>
<trkpt lat="36.83297348022461" lon="-118.5778579711914">
<ele>2428</ele>
<time>2016-10-21T11:28:33Z</time>
</trkpt>
<trkpt lat="36.83300018310547" lon="-118.57780456542969">
<ele>2430</ele>
<time>2016-10-21T11:28:43Z</time>
</trkpt>
<trkpt lat="36.833091735839844" lon="-118.57777404785156">
<ele>2433</ele>
<time>2016-10-21T11:28:54Z</time>
</trkpt>
<trkpt lat="36.83318328857422" lon="-118.57772064208984">
<ele>2438</ele>
<time>2016-10-21T11:29:08Z</time>
</trkpt>
</trkseg>
</trk>
<trk>
<name><![CDATA[10210429]]></name>
<number>52</number>
<extensions><topografix:color>ff000066</topografix:color></extensions>
<trkseg>
<trkpt lat="36.833229064941406" lon="-118.57775115966797">
<ele>2432</ele>
<time>2016-10-21T11:29:20Z</time>
</trkpt>
<trkpt lat="36.833274841308594" lon="-118.5777359008789">
<ele>2433</ele>
<time>2016-10-21T11:29:26Z</time>
</trkpt>
<trkpt lat="36.83332061767578" lon="-118.57772064208984">
<ele>2435</ele>
<time>2016-10-21T11:29:47Z</time>
</trkpt>
<trkpt lat="36.83333206176758" lon="-118.57766723632813">
<ele>2438</ele>
<time>2016-10-21T11:29:54Z</time>
</trkpt>
<trkpt lat="36.83338165283203" lon="-118.5776596069336">
<ele>2439</ele>
<time>2016-10-21T11:30:01Z</time>
</trkpt>
<trkpt lat="36.83349609375" lon="-118.57765197753906">
<ele>2434</ele>
<time>2016-10-21T11:30:10Z</time>
</trkpt>
<trkpt lat="36.833534240722656" lon="-118.5776138305664">
<ele>2436</ele>
<time>2016-10-21T11:30:17Z</time>
</trkpt>
<trkpt lat="36.8336296081543" lon="-118.5776138305664">
<ele>2438</ele>
<time>2016-10-21T11:30:26Z</time>
</trkpt>
<trkpt lat="36.8337287902832" lon="-118.57760620117188">
<ele>2444</ele>
<time>2016-10-21T11:30:35Z</time>
</trkpt>
<trkpt lat="36.83382034301758" lon="-118.57759857177734">
<ele>2447</ele>
<time>2016-10-21T11:30:43Z</time>
</trkpt>
<trkpt lat="36.8338737487793" lon="-118.57759857177734">
<ele>2449</ele>
<time>2016-10-21T11:30:49Z</time>
</trkpt>
<trkpt lat="36.83397674560547" lon="-118.57758331298828">
<ele>2453</ele>
<time>2016-10-21T11:30:56Z</time>
</trkpt>
<trkpt lat="36.83402633666992" lon="-118.57758331298828">
<ele>2453</ele>
<time>2016-10-21T11:31:02Z</time>
</trkpt>
<trkpt lat="36.83412551879883" lon="-118.57759094238281">
<ele>2453</ele>
<time>2016-10-21T11:31:11Z</time>
</trkpt>
<trkpt lat="36.834232330322266" lon="-118.57759094238281">
<ele>2453</ele>
<time>2016-10-21T11:31:23Z</time>
</trkpt>
<trkpt lat="36.83433151245117" lon="-118.57756805419922">
<ele>2459</ele>
<time>2016-10-21T11:31:37Z</time>
</trkpt>
<trkpt lat="36.83443832397461" lon="-118.57757568359375">
<ele>2458</ele>
<time>2016-10-21T11:31:46Z</time>
</trkpt>
<trkpt lat="36.834537506103516" lon="-118.57755279541016">
<ele>2459</ele>
<time>2016-10-21T11:31:54Z</time>
</trkpt>
<trkpt lat="36.83462905883789" lon="-118.57758331298828">
<ele>2462</ele>
<time>2016-10-21T11:32:05Z</time>
</trkpt>
<trkpt lat="36.834716796875" lon="-118.57756805419922">
<ele>2463</ele>
<time>2016-10-21T11:32:13Z</time>
</trkpt>
<trkpt lat="36.83476257324219" lon="-118.57756042480469">
<ele>2462</ele>
<time>2016-10-21T11:32:22Z</time>
</trkpt>
<trkpt lat="36.834808349609375" lon="-118.57756805419922">
<ele>2462</ele>
<time>2016-10-21T11:32:28Z</time>
</trkpt>
<trkpt lat="36.834903717041016" lon="-118.57759094238281">
<ele>2464</ele>
<time>2016-10-21T11:32:38Z</time>
</trkpt>
<trkpt lat="36.83500289916992" lon="-118.5776138305664">
<ele>2459</ele>
<time>2016-10-21T11:32:45Z</time>
</trkpt>
<trkpt lat="36.83509826660156" lon="-118.5776138305664">
<ele>2468</ele>
<time>2016-10-21T11:32:56Z</time>
</trkpt>
<trkpt lat="36.835140228271484" lon="-118.57760620117188">
<ele>2471</ele>
<time>2016-10-21T11:33:02Z</time>
</trkpt>
<trkpt lat="36.83518981933594" lon="-118.57759857177734">
<ele>2477</ele>
<time>2016-10-21T11:33:09Z</time>
</trkpt>
<trkpt lat="36.83528518676758" lon="-118.57759094238281">
<ele>2474</ele>
<time>2016-10-21T11:33:18Z</time>
</trkpt>
<trkpt lat="36.83539581298828" lon="-118.5776138305664">
<ele>2475</ele>
<time>2016-10-21T11:33:24Z</time>
</trkpt>
<trkpt lat="36.83549499511719" lon="-118.57762145996094">
<ele>2473</ele>
<time>2016-10-21T11:33:33Z</time>
</trkpt>
<trkpt lat="36.83554458618164" lon="-118.57762145996094">
<ele>2474</ele>
<time>2016-10-21T11:33:39Z</time>
</trkpt>
<trkpt lat="36.83564758300781" lon="-118.5776138305664">
<ele>2474</ele>
<time>2016-10-21T11:33:48Z</time>
</trkpt>
<trkpt lat="36.835697174072266" lon="-118.57760620117188">
<ele>2474</ele>
<time>2016-10-21T11:33:55Z</time>
</trkpt>
<trkpt lat="36.83574295043945" lon="-118.57760620117188">
<ele>2480</ele>
<time>2016-10-21T11:34:03Z</time>
</trkpt>
<trkpt lat="36.83584213256836" lon="-118.57759094238281">
<ele>2489</ele>
<time>2016-10-21T11:34:11Z</time>
</trkpt>
<trkpt lat="36.83591842651367" lon="-118.57760620117188">
<ele>2482</ele>
<time>2016-10-21T11:34:29Z</time>
</trkpt>
<trkpt lat="36.83600997924805" lon="-118.57764434814453">
<ele>2483</ele>
<time>2016-10-21T11:35:11Z</time>
</trkpt>
<trkpt lat="36.8359260559082" lon="-118.57760620117188">
<ele>2492</ele>
<time>2016-10-21T11:36:37Z</time>
</trkpt>
<trkpt lat="36.8360595703125" lon="-118.57759094238281">
<ele>2488</ele>
<time>2016-10-21T11:43:48Z</time>
</trkpt>
<trkpt lat="36.83598709106445" lon="-118.57762908935547">
<ele>2492</ele>
<time>2016-10-21T11:43:58Z</time>
</trkpt>
<trkpt lat="36.835960388183594" lon="-118.57768249511719">
<ele>2486</ele>
<time>2016-10-21T11:44:17Z</time>
</trkpt>
<trkpt lat="36.8359260559082" lon="-118.5777359008789">
<ele>2483</ele>
<time>2016-10-21T11:44:28Z</time>
</trkpt>
<trkpt lat="36.83588790893555" lon="-118.57776641845703">
<ele>2483</ele>
<time>2016-10-21T11:44:41Z</time>
</trkpt>
<trkpt lat="36.83578872680664" lon="-118.57781219482422">
<ele>2488</ele>
<time>2016-10-21T11:44:50Z</time>
</trkpt>
<trkpt lat="36.835693359375" lon="-118.57783508300781">
<ele>2491</ele>
<time>2016-10-21T11:45:00Z</time>
</trkpt>
<trkpt lat="36.83563995361328" lon="-118.57785034179688">
<ele>2490</ele>
<time>2016-10-21T11:45:06Z</time>
</trkpt>
<trkpt lat="36.83555603027344" lon="-118.5779037475586">
<ele>2483</ele>
<time>2016-10-21T11:45:17Z</time>
</trkpt>
<trkpt lat="36.83550262451172" lon="-118.57798767089844">
<ele>2478</ele>
<time>2016-10-21T11:45:24Z</time>
</trkpt>
<trkpt lat="36.835453033447266" lon="-118.5781021118164">
<ele>2479</ele>
<time>2016-10-21T11:45:33Z</time>
</trkpt>
<trkpt lat="36.83534622192383" lon="-118.57811737060547">
<ele>2483</ele>
<time>2016-10-21T11:45:42Z</time>
</trkpt>
<trkpt lat="36.835243225097656" lon="-118.57814025878906">
<ele>2484</ele>
<time>2016-10-21T11:45:51Z</time>
</trkpt>
<trkpt lat="36.83519744873047" lon="-118.57817077636719">
<ele>2483</ele>
<time>2016-10-21T11:45:57Z</time>
</trkpt>
<trkpt lat="36.835105895996094" lon="-118.57817840576172">
<ele>2486</ele>
<time>2016-10-21T11:46:10Z</time>
</trkpt>
<trkpt lat="36.835052490234375" lon="-118.57817840576172">
<ele>2494</ele>
<time>2016-10-21T11:46:16Z</time>
</trkpt>
<trkpt lat="36.83494186401367" lon="-118.57823181152344">
<ele>2495</ele>
<time>2016-10-21T11:46:25Z</time>
</trkpt>
<trkpt lat="36.8348503112793" lon="-118.57828521728516">
<ele>2505</ele>
<time>2016-10-21T11:46:33Z</time>
</trkpt>
<trkpt lat="36.83476638793945" lon="-118.57833862304688">
<ele>2508</ele>
<time>2016-10-21T11:46:42Z</time>
</trkpt>
<trkpt lat="36.83473587036133" lon="-118.57845306396484">
<ele>2509</ele>
<time>2016-10-21T11:46:51Z</time>
</trkpt>
<trkpt lat="36.834693908691406" lon="-118.57857513427734">
<ele>2509</ele>
<time>2016-10-21T11:46:59Z</time>
</trkpt>
<trkpt lat="36.83470916748047" lon="-118.57869720458984">
<ele>2511</ele>
<time>2016-10-21T11:47:09Z</time>
</trkpt>
<trkpt lat="36.83474349975586" lon="-118.57875061035156">
<ele>2508</ele>
<time>2016-10-21T11:47:15Z</time>
</trkpt>
<trkpt lat="36.834774017333984" lon="-118.57884979248047">
<ele>2508</ele>
<time>2016-10-21T11:47:27Z</time>
</trkpt>
<trkpt lat="36.83478927612305" lon="-118.57897186279297">
<ele>2519</ele>
<time>2016-10-21T11:47:39Z</time>
</trkpt>
<trkpt lat="36.8348274230957" lon="-118.57908630371094">
<ele>2520</ele>
<time>2016-10-21T11:47:47Z</time>
</trkpt>
<trkpt lat="36.8348388671875" lon="-118.57914733886719">
<ele>2517</ele>
<time>2016-10-21T11:47:53Z</time>
</trkpt>
<trkpt lat="36.83491134643555" lon="-118.5792465209961">
<ele>2516</ele>
<time>2016-10-21T11:48:03Z</time>
</trkpt>
<trkpt lat="36.83498001098633" lon="-118.57933807373047">
<ele>2521</ele>
<time>2016-10-21T11:48:13Z</time>
</trkpt>
<trkpt lat="36.83504104614258" lon="-118.57940673828125">
<ele>2521</ele>
<time>2016-10-21T11:48:20Z</time>
</trkpt>
<trkpt lat="36.835113525390625" lon="-118.57948303222656">
<ele>2524</ele>
<time>2016-10-21T11:48:31Z</time>
</trkpt>
<trkpt lat="36.835201263427734" lon="-118.57953643798828">
<ele>2524</ele>
<time>2016-10-21T11:48:40Z</time>
</trkpt>
<trkpt lat="36.83529281616211" lon="-118.57960510253906">
<ele>2524</ele>
<time>2016-10-21T11:48:48Z</time>
</trkpt>
<trkpt lat="36.835357666015625" lon="-118.57968139648438">
<ele>2523</ele>
<time>2016-10-21T11:48:55Z</time>
</trkpt>
<trkpt lat="36.83546447753906" lon="-118.57967376708984">
<ele>2513</ele>
<time>2016-10-21T11:49:02Z</time>
</trkpt>
<trkpt lat="36.83555603027344" lon="-118.57972717285156">
<ele>2516</ele>
<time>2016-10-21T11:49:12Z</time>
</trkpt>
<trkpt lat="36.835601806640625" lon="-118.57978820800781">
<ele>2523</ele>
<time>2016-10-21T11:49:29Z</time>
</trkpt>
<trkpt lat="36.83568572998047" lon="-118.57984161376953">
<ele>2523</ele>
<time>2016-10-21T11:49:38Z</time>
</trkpt>
<trkpt lat="36.83576965332031" lon="-118.57992553710938">
<ele>2524</ele>
<time>2016-10-21T11:49:46Z</time>
</trkpt>
<trkpt lat="36.83584976196289" lon="-118.58000946044922">
<ele>2529</ele>
<time>2016-10-21T11:49:56Z</time>
</trkpt>
<trkpt lat="36.83592987060547" lon="-118.58008575439453">
<ele>2531</ele>
<time>2016-10-21T11:50:07Z</time>
</trkpt>
<trkpt lat="36.83600997924805" lon="-118.58015441894531">
<ele>2534</ele>
<time>2016-10-21T11:50:17Z</time>
</trkpt>
<trkpt lat="36.8360595703125" lon="-118.58023834228516">
<ele>2534</ele>
<time>2016-10-21T11:50:25Z</time>
</trkpt>
<trkpt lat="36.836143493652344" lon="-118.58030700683594">
<ele>2536</ele>
<time>2016-10-21T11:50:36Z</time>
</trkpt>
<trkpt lat="36.83620834350586" lon="-118.58040618896484">
<ele>2540</ele>
<time>2016-10-21T11:50:44Z</time>
</trkpt>
<trkpt lat="36.83624267578125" lon="-118.58045959472656">
<ele>2542</ele>
<time>2016-10-21T11:50:50Z</time>
</trkpt>
<trkpt lat="36.8362922668457" lon="-118.58047485351563">
<ele>2543</ele>
<time>2016-10-21T11:50:56Z</time>
</trkpt>
<trkpt lat="36.836360931396484" lon="-118.58055877685547">
<ele>2544</ele>
<time>2016-10-21T11:51:06Z</time>
</trkpt>
<trkpt lat="36.836429595947266" lon="-118.58067321777344">
<ele>2545</ele>
<time>2016-10-21T11:51:15Z</time>
</trkpt>
<trkpt lat="36.83651351928711" lon="-118.58073425292969">
<ele>2543</ele>
<time>2016-10-21T11:51:25Z</time>
</trkpt>
<trkpt lat="36.83658218383789" lon="-118.58081817626953">
<ele>2546</ele>
<time>2016-10-21T11:51:36Z</time>
</trkpt>
<trkpt lat="36.836612701416016" lon="-118.58087158203125">
<ele>2546</ele>
<time>2016-10-21T11:51:42Z</time>
</trkpt>
<trkpt lat="36.836673736572266" lon="-118.58097839355469">
<ele>2546</ele>
<time>2016-10-21T11:51:51Z</time>
</trkpt>
<trkpt lat="36.83673858642578" lon="-118.5810775756836">
<ele>2548</ele>
<time>2016-10-21T11:52:00Z</time>
</trkpt>
<trkpt lat="36.83681869506836" lon="-118.58116149902344">
<ele>2551</ele>
<time>2016-10-21T11:52:14Z</time>
</trkpt>
<trkpt lat="36.83686447143555" lon="-118.58122253417969">
<ele>2552</ele>
<time>2016-10-21T11:52:20Z</time>
</trkpt>
<trkpt lat="36.83692932128906" lon="-118.58132934570313">
<ele>2556</ele>
<time>2016-10-21T11:52:30Z</time>
</trkpt>
<trkpt lat="36.837005615234375" lon="-118.58142852783203">
<ele>2556</ele>
<time>2016-10-21T11:52:40Z</time>
</trkpt>
<trkpt lat="36.837066650390625" lon="-118.5815200805664">
<ele>2560</ele>
<time>2016-10-21T11:52:49Z</time>
</trkpt>
<trkpt lat="36.837162017822266" lon="-118.58155059814453">
<ele>2562</ele>
<time>2016-10-21T11:53:00Z</time>
</trkpt>
<trkpt lat="36.83721160888672" lon="-118.58165740966797">
<ele>2563</ele>
<time>2016-10-21T11:53:11Z</time>
</trkpt>
<trkpt lat="36.837215423583984" lon="-118.58171844482422">
<ele>2565</ele>
<time>2016-10-21T11:53:17Z</time>
</trkpt>
<trkpt lat="36.837257385253906" lon="-118.5818099975586">
<ele>2567</ele>
<time>2016-10-21T11:53:24Z</time>
</trkpt>
<trkpt lat="36.83732223510742" lon="-118.5819091796875">
<ele>2570</ele>
<time>2016-10-21T11:53:34Z</time>
</trkpt>
<trkpt lat="36.83736038208008" lon="-118.58196258544922">
<ele>2569</ele>
<time>2016-10-21T11:53:40Z</time>
</trkpt>
<trkpt lat="36.837406158447266" lon="-118.58206939697266">
<ele>2571</ele>
<time>2016-10-21T11:53:48Z</time>
</trkpt>
<trkpt lat="36.837432861328125" lon="-118.58212280273438">
<ele>2572</ele>
<time>2016-10-21T11:53:54Z</time>
</trkpt>
<trkpt lat="36.837459564208984" lon="-118.58222961425781">
<ele>2575</ele>
<time>2016-10-21T11:54:03Z</time>
</trkpt>
<trkpt lat="36.83750915527344" lon="-118.58233642578125">
<ele>2575</ele>
<time>2016-10-21T11:54:14Z</time>
</trkpt>
<trkpt lat="36.83755874633789" lon="-118.5824203491211">
<ele>2577</ele>
<time>2016-10-21T11:54:20Z</time>
</trkpt>
<trkpt lat="36.837608337402344" lon="-118.58253479003906">
<ele>2578</ele>
<time>2016-10-21T11:54:29Z</time>
</trkpt>
<trkpt lat="36.8376579284668" lon="-118.5826416015625">
<ele>2586</ele>
<time>2016-10-21T11:54:37Z</time>
</trkpt>
<trkpt lat="36.837745666503906" lon="-118.58269500732422">
<ele>2577</ele>
<time>2016-10-21T11:54:46Z</time>
</trkpt>
<trkpt lat="36.8377799987793" lon="-118.58280181884766">
<ele>2583</ele>
<time>2016-10-21T11:54:57Z</time>
</trkpt>
<trkpt lat="36.837799072265625" lon="-118.5828628540039">
<ele>2584</ele>
<time>2016-10-21T11:55:03Z</time>
</trkpt>
<trkpt lat="36.83783721923828" lon="-118.58296966552734">
<ele>2585</ele>
<time>2016-10-21T11:55:12Z</time>
</trkpt>
</trkseg>
</trk>
<trk>
<name><![CDATA[10210457]]></name>
<number>53</number>
<extensions><topografix:color>ff000066</topografix:color></extensions>
<trkseg>
<trkpt lat="36.838043212890625" lon="-118.58409118652344">
<ele>2593</ele>
<time>2016-10-21T11:57:20Z</time>
</trkpt>
<trkpt lat="36.838077545166016" lon="-118.58404541015625">
<ele>2594</ele>
<time>2016-10-21T11:57:30Z</time>
</trkpt>
<trkpt lat="36.838104248046875" lon="-118.58393096923828">
<ele>2595</ele>
<time>2016-10-21T11:57:39Z</time>
</trkpt>
<trkpt lat="36.838130950927734" lon="-118.5838851928711">
<ele>2595</ele>
<time>2016-10-21T11:57:45Z</time>
</trkpt>
<trkpt lat="36.83816146850586" lon="-118.58382415771484">
<ele>2598</ele>
<time>2016-10-21T11:57:51Z</time>
</trkpt>
<trkpt lat="36.83823776245117" lon="-118.58375549316406">
<ele>2603</ele>
<time>2016-10-21T11:57:59Z</time>
</trkpt>
<trkpt lat="36.838321685791016" lon="-118.58370208740234">
<ele>2605</ele>
<time>2016-10-21T11:58:11Z</time>
</trkpt>
<trkpt lat="36.83835220336914" lon="-118.58358764648438">
<ele>2604</ele>
<time>2016-10-21T11:58:21Z</time>
</trkpt>
<trkpt lat="36.83839797973633" lon="-118.5834732055664">
<ele>2605</ele>
<time>2016-10-21T11:58:32Z</time>
</trkpt>
<trkpt lat="36.838417053222656" lon="-118.58335876464844">
<ele>2610</ele>
<time>2016-10-21T11:58:40Z</time>
</trkpt>
<trkpt lat="36.838443756103516" lon="-118.58331298828125">
<ele>2610</ele>
<time>2016-10-21T11:58:54Z</time>
</trkpt>
<trkpt lat="36.838443756103516" lon="-118.583251953125">
<ele>2612</ele>
<time>2016-10-21T11:59:05Z</time>
</trkpt>
<trkpt lat="36.83844757080078" lon="-118.58318328857422">
<ele>2617</ele>
<time>2016-10-21T11:59:11Z</time>
</trkpt>
<trkpt lat="36.83845520019531" lon="-118.58305358886719">
<ele>2616</ele>
<time>2016-10-21T11:59:20Z</time>
</trkpt>
<trkpt lat="36.838478088378906" lon="-118.58291625976563">
<ele>2613</ele>
<time>2016-10-21T11:59:28Z</time>
</trkpt>
<trkpt lat="36.83848571777344" lon="-118.58285522460938">
<ele>2612</ele>
<time>2016-10-21T11:59:34Z</time>
</trkpt>
<trkpt lat="36.83845901489258" lon="-118.58280181884766">
<ele>2619</ele>
<time>2016-10-21T11:59:40Z</time>
</trkpt>
<trkpt lat="36.83847427368164" lon="-118.5827407836914">
<ele>2618</ele>
<time>2016-10-21T11:59:48Z</time>
</trkpt>
<trkpt lat="36.83851623535156" lon="-118.58262634277344">
<ele>2619</ele>
<time>2016-10-21T11:59:57Z</time>
</trkpt>
<trkpt lat="36.83849334716797" lon="-118.58250427246094">
<ele>2625</ele>
<time>2016-10-21T12:00:05Z</time>
</trkpt>
<trkpt lat="36.838462829589844" lon="-118.58238220214844">
<ele>2631</ele>
<time>2016-10-21T12:00:15Z</time>
</trkpt>
<trkpt lat="36.83845138549805" lon="-118.58232116699219">
<ele>2629</ele>
<time>2016-10-21T12:00:21Z</time>
</trkpt>
<trkpt lat="36.83847427368164" lon="-118.58219909667969">
<ele>2626</ele>
<time>2016-10-21T12:00:30Z</time>
</trkpt>
<trkpt lat="36.83847427368164" lon="-118.58207702636719">
<ele>2624</ele>
<time>2016-10-21T12:00:41Z</time>
</trkpt>
<trkpt lat="36.838470458984375" lon="-118.58201599121094">
<ele>2624</ele>
<time>2016-10-21T12:00:47Z</time>
</trkpt>
<trkpt lat="36.83843231201172" lon="-118.58189392089844">
<ele>2630</ele>
<time>2016-10-21T12:00:57Z</time>
</trkpt>
<trkpt lat="36.83843231201172" lon="-118.5817642211914">
<ele>2626</ele>
<time>2016-10-21T12:01:06Z</time>
</trkpt>
<trkpt lat="36.83842086791992" lon="-118.5816421508789">
<ele>2622</ele>
<time>2016-10-21T12:01:15Z</time>
</trkpt>
<trkpt lat="36.83842086791992" lon="-118.5815200805664">
<ele>2623</ele>
<time>2016-10-21T12:01:27Z</time>
</trkpt>
<trkpt lat="36.838417053222656" lon="-118.58145904541016">
<ele>2623</ele>
<time>2016-10-21T12:01:34Z</time>
</trkpt>
<trkpt lat="36.83842849731445" lon="-118.58133697509766">
<ele>2630</ele>
<time>2016-10-21T12:01:44Z</time>
</trkpt>
<trkpt lat="36.838470458984375" lon="-118.58137512207031">
<ele>2626</ele>
<time>2016-10-21T12:01:53Z</time>
</trkpt>
<trkpt lat="36.838497161865234" lon="-118.58143615722656">
<ele>2628</ele>
<time>2016-10-21T12:01:59Z</time>
</trkpt>
<trkpt lat="36.838565826416016" lon="-118.58153533935547">
<ele>2628</ele>
<time>2016-10-21T12:02:09Z</time>
</trkpt>
<trkpt lat="36.8386116027832" lon="-118.5816421508789">
<ele>2632</ele>
<time>2016-10-21T12:02:19Z</time>
</trkpt>
<trkpt lat="36.83868408203125" lon="-118.58174896240234">
<ele>2633</ele>
<time>2016-10-21T12:02:28Z</time>
</trkpt>
<trkpt lat="36.83873748779297" lon="-118.58184814453125">
<ele>2639</ele>
<time>2016-10-21T12:02:37Z</time>
</trkpt>
<trkpt lat="36.83876037597656" lon="-118.58197021484375">
<ele>2642</ele>
<time>2016-10-21T12:02:46Z</time>
</trkpt>
<trkpt lat="36.83877944946289" lon="-118.58202362060547">
<ele>2646</ele>
<time>2016-10-21T12:02:52Z</time>
</trkpt>
<trkpt lat="36.83883285522461" lon="-118.5821304321289">
<ele>2646</ele>
<time>2016-10-21T12:03:02Z</time>
</trkpt>
<trkpt lat="36.83891296386719" lon="-118.58219909667969">
<ele>2646</ele>
<time>2016-10-21T12:03:10Z</time>
</trkpt>
<trkpt lat="36.83899688720703" lon="-118.58226013183594">
<ele>2649</ele>
<time>2016-10-21T12:03:20Z</time>
</trkpt>
<trkpt lat="36.83905029296875" lon="-118.58236694335938">
<ele>2653</ele>
<time>2016-10-21T12:03:30Z</time>
</trkpt>
<trkpt lat="36.839088439941406" lon="-118.58247375488281">
<ele>2651</ele>
<time>2016-10-21T12:03:38Z</time>
</trkpt>
<trkpt lat="36.83912658691406" lon="-118.58258819580078">
<ele>2655</ele>
<time>2016-10-21T12:03:47Z</time>
</trkpt>
<trkpt lat="36.83921813964844" lon="-118.5826416015625">
<ele>2656</ele>
<time>2016-10-21T12:03:57Z</time>
</trkpt>
<trkpt lat="36.83928298950195" lon="-118.5827407836914">
<ele>2659</ele>
<time>2016-10-21T12:04:05Z</time>
</trkpt>
<trkpt lat="36.83934783935547" lon="-118.58282470703125">
<ele>2659</ele>
<time>2016-10-21T12:04:14Z</time>
</trkpt>
<trkpt lat="36.839393615722656" lon="-118.58293151855469">
<ele>2656</ele>
<time>2016-10-21T12:04:24Z</time>
</trkpt>
<trkpt lat="36.839454650878906" lon="-118.58302307128906">
<ele>2653</ele>
<time>2016-10-21T12:04:32Z</time>
</trkpt>
<trkpt lat="36.8394775390625" lon="-118.58307647705078">
<ele>2657</ele>
<time>2016-10-21T12:04:46Z</time>
</trkpt>
<trkpt lat="36.839481353759766" lon="-118.58313751220703">
<ele>2658</ele>
<time>2016-10-21T12:04:53Z</time>
</trkpt>
<trkpt lat="36.83949279785156" lon="-118.58325958251953">
<ele>2665</ele>
<time>2016-10-21T12:05:03Z</time>
</trkpt>
<trkpt lat="36.83951187133789" lon="-118.5833740234375">
<ele>2666</ele>
<time>2016-10-21T12:05:12Z</time>
</trkpt>
<trkpt lat="36.83955001831055" lon="-118.5834732055664">
<ele>2669</ele>
<time>2016-10-21T12:05:20Z</time>
</trkpt>
<trkpt lat="36.83958053588867" lon="-118.58352661132813">
<ele>2670</ele>
<time>2016-10-21T12:05:27Z</time>
</trkpt>
<trkpt lat="36.839595794677734" lon="-118.58358001708984">
<ele>2671</ele>
<time>2016-10-21T12:05:33Z</time>
</trkpt>
<trkpt lat="36.839622497558594" lon="-118.58369445800781">
<ele>2674</ele>
<time>2016-10-21T12:05:44Z</time>
</trkpt>
<trkpt lat="36.83967590332031" lon="-118.58379364013672">
<ele>2673</ele>
<time>2016-10-21T12:05:53Z</time>
</trkpt>
<trkpt lat="36.8397331237793" lon="-118.58390045166016">
<ele>2671</ele>
<time>2016-10-21T12:06:01Z</time>
</trkpt>
<trkpt lat="36.83979034423828" lon="-118.5840072631836">
<ele>2677</ele>
<time>2016-10-21T12:06:14Z</time>
</trkpt>
<trkpt lat="36.83980941772461" lon="-118.58407592773438">
<ele>2680</ele>
<time>2016-10-21T12:06:20Z</time>
</trkpt>
<trkpt lat="36.83980941772461" lon="-118.5841293334961">
<ele>2687</ele>
<time>2016-10-21T12:06:30Z</time>
</trkpt>
<trkpt lat="36.8398551940918" lon="-118.58418273925781">
<ele>2684</ele>
<time>2016-10-21T12:06:37Z</time>
</trkpt>
<trkpt lat="36.83993911743164" lon="-118.58424377441406">
<ele>2680</ele>
<time>2016-10-21T12:06:48Z</time>
</trkpt>
<trkpt lat="36.83995056152344" lon="-118.58431243896484">
<ele>2681</ele>
<time>2016-10-21T12:06:58Z</time>
</trkpt>
<trkpt lat="36.84000015258789" lon="-118.58442687988281">
<ele>2681</ele>
<time>2016-10-21T12:07:06Z</time>
</trkpt>
<trkpt lat="36.840023040771484" lon="-118.58447265625">
<ele>2686</ele>
<time>2016-10-21T12:07:17Z</time>
</trkpt>
<trkpt lat="36.840049743652344" lon="-118.58454895019531">
<ele>2690</ele>
<time>2016-10-21T12:07:25Z</time>
</trkpt>
<trkpt lat="36.840065002441406" lon="-118.58466339111328">
<ele>2692</ele>
<time>2016-10-21T12:07:33Z</time>
</trkpt>
<trkpt lat="36.840084075927734" lon="-118.58477020263672">
<ele>2688</ele>
<time>2016-10-21T12:07:43Z</time>
</trkpt>
<trkpt lat="36.84010696411133" lon="-118.58487701416016">
<ele>2686</ele>
<time>2016-10-21T12:09:07Z</time>
</trkpt>
<trkpt lat="36.84014892578125" lon="-118.5849838256836">
<ele>2686</ele>
<time>2016-10-21T12:09:15Z</time>
</trkpt>
<trkpt lat="36.84019088745117" lon="-118.58509063720703">
<ele>2686</ele>
<time>2016-10-21T12:09:25Z</time>
</trkpt>
<trkpt lat="36.8402099609375" lon="-118.585205078125">
<ele>2688</ele>
<time>2016-10-21T12:09:34Z</time>
</trkpt>
<trkpt lat="36.840232849121094" lon="-118.58526611328125">
<ele>2689</ele>
<time>2016-10-21T12:09:40Z</time>
</trkpt>
<trkpt lat="36.84023666381836" lon="-118.5853271484375">
<ele>2694</ele>
<time>2016-10-21T12:09:47Z</time>
</trkpt>
<trkpt lat="36.840232849121094" lon="-118.58544921875">
<ele>2693</ele>
<time>2016-10-21T12:09:56Z</time>
</trkpt>
<trkpt lat="36.84021759033203" lon="-118.58556365966797">
<ele>2698</ele>
<time>2016-10-21T12:10:04Z</time>
</trkpt>
<trkpt lat="36.840187072753906" lon="-118.58567810058594">
<ele>2700</ele>
<time>2016-10-21T12:10:15Z</time>
</trkpt>
<trkpt lat="36.84019088745117" lon="-118.58578491210938">
<ele>2699</ele>
<time>2016-10-21T12:10:26Z</time>
</trkpt>
<trkpt lat="36.84018325805664" lon="-118.5859146118164">
<ele>2699</ele>
<time>2016-10-21T12:10:36Z</time>
</trkpt>
<trkpt lat="36.84017562866211" lon="-118.58604431152344">
<ele>2702</ele>
<time>2016-10-21T12:10:46Z</time>
</trkpt>
<trkpt lat="36.84014129638672" lon="-118.58616638183594">
<ele>2704</ele>
<time>2016-10-21T12:10:56Z</time>
</trkpt>
<trkpt lat="36.84010696411133" lon="-118.58628845214844">
<ele>2706</ele>
<time>2016-10-21T12:11:05Z</time>
</trkpt>
<trkpt lat="36.840065002441406" lon="-118.58639526367188">
<ele>2707</ele>
<time>2016-10-21T12:11:15Z</time>
</trkpt>
<trkpt lat="36.84001159667969" lon="-118.58650207519531">
<ele>2710</ele>
<time>2016-10-21T12:11:25Z</time>
</trkpt>
<trkpt lat="36.83995056152344" lon="-118.58660125732422">
<ele>2715</ele>
<time>2016-10-21T12:11:41Z</time>
</trkpt>
<trkpt lat="36.83993911743164" lon="-118.58671569824219">
<ele>2714</ele>
<time>2016-10-21T12:11:49Z</time>
</trkpt>
<trkpt lat="36.83991241455078" lon="-118.5867691040039">
<ele>2716</ele>
<time>2016-10-21T12:11:55Z</time>
</trkpt>
<trkpt lat="36.83984375" lon="-118.58686828613281">
<ele>2717</ele>
<time>2016-10-21T12:12:05Z</time>
</trkpt>
<trkpt lat="36.83979797363281" lon="-118.58695220947266">
<ele>2716</ele>
<time>2016-10-21T12:12:15Z</time>
</trkpt>
<trkpt lat="36.839866638183594" lon="-118.58698272705078">
<ele>2714</ele>
<time>2016-10-21T12:12:27Z</time>
</trkpt>
<trkpt lat="36.83991241455078" lon="-118.5870132446289">
<ele>2714</ele>
<time>2016-10-21T12:12:33Z</time>
</trkpt>
<trkpt lat="36.84001541137695" lon="-118.58702850341797">
<ele>2709</ele>
<time>2016-10-21T12:12:40Z</time>
</trkpt>
<trkpt lat="36.840087890625" lon="-118.5869369506836">
<ele>2713</ele>
<time>2016-10-21T12:12:50Z</time>
</trkpt>
<trkpt lat="36.84008026123047" lon="-118.5868148803711">
<ele>2720</ele>
<time>2016-10-21T12:13:05Z</time>
</trkpt>
<trkpt lat="36.84004211425781" lon="-118.58677673339844">
<ele>2726</ele>
<time>2016-10-21T12:13:20Z</time>
</trkpt>
<trkpt lat="36.8400764465332" lon="-118.58673858642578">
<ele>2728</ele>
<time>2016-10-21T12:13:35Z</time>
</trkpt>
<trkpt lat="36.84017562866211" lon="-118.58675384521484">
<ele>2726</ele>
<time>2016-10-21T12:13:44Z</time>
</trkpt>
<trkpt lat="36.840274810791016" lon="-118.58671569824219">
<ele>2729</ele>
<time>2016-10-21T12:13:54Z</time>
</trkpt>
<trkpt lat="36.84034729003906" lon="-118.58663940429688">
<ele>2727</ele>
<time>2016-10-21T12:14:03Z</time>
</trkpt>
<trkpt lat="36.84044647216797" lon="-118.58659362792969">
<ele>2727</ele>
<time>2016-10-21T12:14:11Z</time>
</trkpt>
<trkpt lat="36.84051513671875" lon="-118.58651733398438">
<ele>2729</ele>
<time>2016-10-21T12:14:20Z</time>
</trkpt>
<trkpt lat="36.840576171875" lon="-118.58641052246094">
<ele>2735</ele>
<time>2016-10-21T12:14:31Z</time>
</trkpt>
<trkpt lat="36.84067916870117" lon="-118.58639526367188">
<ele>2729</ele>
<time>2016-10-21T12:14:39Z</time>
</trkpt>
<trkpt lat="36.84072494506836" lon="-118.58637237548828">
<ele>2729</ele>
<time>2016-10-21T12:14:45Z</time>
</trkpt>
<trkpt lat="36.84077453613281" lon="-118.58635711669922">
<ele>2730</ele>
<time>2016-10-21T12:14:52Z</time>
</trkpt>
<trkpt lat="36.840816497802734" lon="-118.58631896972656">
<ele>2730</ele>
<time>2016-10-21T12:14:58Z</time>
</trkpt>
<trkpt lat="36.840904235839844" lon="-118.58625793457031">
<ele>2730</ele>
<time>2016-10-21T12:15:08Z</time>
</trkpt>
<trkpt lat="36.84095001220703" lon="-118.58621978759766">
<ele>2726</ele>
<time>2016-10-21T12:15:14Z</time>
</trkpt>
<trkpt lat="36.84097671508789" lon="-118.58612823486328">
<ele>2726</ele>
<time>2016-10-21T12:15:20Z</time>
</trkpt>
<trkpt lat="36.84099197387695" lon="-118.58607482910156">
<ele>2728</ele>
<time>2016-10-21T12:15:26Z</time>
</trkpt>
<trkpt lat="36.84101486206055" lon="-118.58602142333984">
<ele>2731</ele>
<time>2016-10-21T12:15:33Z</time>
</trkpt>
<trkpt lat="36.84109878540039" lon="-118.5859375">
<ele>2730</ele>
<time>2016-10-21T12:15:43Z</time>
</trkpt>
<trkpt lat="36.84113693237305" lon="-118.58588409423828">
<ele>2731</ele>
<time>2016-10-21T12:15:57Z</time>
</trkpt>
<trkpt lat="36.8411979675293" lon="-118.58578491210938">
<ele>2732</ele>
<time>2016-10-21T12:16:06Z</time>
</trkpt>
<trkpt lat="36.84128952026367" lon="-118.58573150634766">
<ele>2730</ele>
<time>2016-10-21T12:16:15Z</time>
</trkpt>
<trkpt lat="36.84138107299805" lon="-118.58564758300781">
<ele>2730</ele>
<time>2016-10-21T12:16:25Z</time>
</trkpt>
<trkpt lat="36.84138870239258" lon="-118.58553314208984">
<ele>2731</ele>
<time>2016-10-21T12:16:33Z</time>
</trkpt>
<trkpt lat="36.84145736694336" lon="-118.58544158935547">
<ele>2732</ele>
<time>2016-10-21T12:16:41Z</time>
</trkpt>
<trkpt lat="36.841529846191406" lon="-118.58535766601563">
<ele>2731</ele>
<time>2016-10-21T12:16:51Z</time>
</trkpt>
<trkpt lat="36.841514587402344" lon="-118.58541107177734">
<ele>2734</ele>
<time>2016-10-21T12:17:37Z</time>
</trkpt>
<trkpt lat="36.84149932861328" lon="-118.5854721069336">
<ele>2734</ele>
<time>2016-10-21T12:17:43Z</time>
</trkpt>
<trkpt lat="36.841495513916016" lon="-118.5855941772461">
<ele>2740</ele>
<time>2016-10-21T12:17:52Z</time>
</trkpt>
<trkpt lat="36.841487884521484" lon="-118.58573150634766">
<ele>2744</ele>
<time>2016-10-21T12:18:01Z</time>
</trkpt>
<trkpt lat="36.84145736694336" lon="-118.58585357666016">
<ele>2751</ele>
<time>2016-10-21T12:18:09Z</time>
</trkpt>
<trkpt lat="36.8414306640625" lon="-118.58599090576172">
<ele>2754</ele>
<time>2016-10-21T12:18:18Z</time>
</trkpt>
<trkpt lat="36.841400146484375" lon="-118.5860824584961">
<ele>2756</ele>
<time>2016-10-21T12:18:24Z</time>
</trkpt>
<trkpt lat="36.84138488769531" lon="-118.58614349365234">
<ele>2760</ele>
<time>2016-10-21T12:18:35Z</time>
</trkpt>
<trkpt lat="36.84135055541992" lon="-118.5862045288086">
<ele>2760</ele>
<time>2016-10-21T12:18:41Z</time>
</trkpt>
<trkpt lat="36.84130096435547" lon="-118.58631134033203">
<ele>2757</ele>
<time>2016-10-21T12:18:51Z</time>
</trkpt>
<trkpt lat="36.84128189086914" lon="-118.58636474609375">
<ele>2759</ele>
<time>2016-10-21T12:18:57Z</time>
</trkpt>
<trkpt lat="36.84125518798828" lon="-118.58649444580078">
<ele>2759</ele>
<time>2016-10-21T12:19:07Z</time>
</trkpt>
<trkpt lat="36.84122085571289" lon="-118.58661651611328">
<ele>2757</ele>
<time>2016-10-21T12:19:17Z</time>
</trkpt>
<trkpt lat="36.84115982055664" lon="-118.5866928100586">
<ele>2758</ele>
<time>2016-10-21T12:19:25Z</time>
</trkpt>
<trkpt lat="36.841121673583984" lon="-118.58673858642578">
<ele>2759</ele>
<time>2016-10-21T12:19:31Z</time>
</trkpt>
<trkpt lat="36.841087341308594" lon="-118.58686828613281">
<ele>2764</ele>
<time>2016-10-21T12:19:41Z</time>
</trkpt>
<trkpt lat="36.8410758972168" lon="-118.58692932128906">
<ele>2766</ele>
<time>2016-10-21T12:19:49Z</time>
</trkpt>
<trkpt lat="36.84102249145508" lon="-118.5870361328125">
<ele>2765</ele>
<time>2016-10-21T12:19:57Z</time>
</trkpt>
<trkpt lat="36.84097671508789" lon="-118.58714294433594">
<ele>2766</ele>
<time>2016-10-21T12:20:05Z</time>
</trkpt>
<trkpt lat="36.84092712402344" lon="-118.58724212646484">
<ele>2765</ele>
<time>2016-10-21T12:20:14Z</time>
</trkpt>
<trkpt lat="36.840904235839844" lon="-118.58731842041016">
<ele>2769</ele>
<time>2016-10-21T12:20:20Z</time>
</trkpt>
<trkpt lat="36.84095764160156" lon="-118.58731079101563">
<ele>2770</ele>
<time>2016-10-21T12:20:34Z</time>
</trkpt>
<trkpt lat="36.841026306152344" lon="-118.58722686767578">
<ele>2769</ele>
<time>2016-10-21T12:20:42Z</time>
</trkpt>
<trkpt lat="36.84111022949219" lon="-118.58716583251953">
<ele>2767</ele>
<time>2016-10-21T12:20:49Z</time>
</trkpt>
<trkpt lat="36.841190338134766" lon="-118.58707427978516">
<ele>2768</ele>
<time>2016-10-21T12:20:59Z</time>
</trkpt>
<trkpt lat="36.84127426147461" lon="-118.5870132446289">
<ele>2773</ele>
<time>2016-10-21T12:21:09Z</time>
</trkpt>
<trkpt lat="36.8413200378418" lon="-118.5869140625">
<ele>2779</ele>
<time>2016-10-21T12:21:18Z</time>
</trkpt>
<trkpt lat="36.841365814208984" lon="-118.58686065673828">
<ele>2781</ele>
<time>2016-10-21T12:21:26Z</time>
</trkpt>
<trkpt lat="36.84141540527344" lon="-118.58684539794922">
<ele>2779</ele>
<time>2016-10-21T12:21:32Z</time>
</trkpt>
<trkpt lat="36.841514587402344" lon="-118.58683776855469">
<ele>2774</ele>
<time>2016-10-21T12:21:41Z</time>
</trkpt>
<trkpt lat="36.8415641784668" lon="-118.58679962158203">
<ele>2776</ele>
<time>2016-10-21T12:21:49Z</time>
</trkpt>
<trkpt lat="36.841651916503906" lon="-118.58673095703125">
<ele>2774</ele>
<time>2016-10-21T12:21:59Z</time>
</trkpt>
<trkpt lat="36.84174346923828" lon="-118.58668518066406">
<ele>2769</ele>
<time>2016-10-21T12:22:09Z</time>
</trkpt>
<trkpt lat="36.84181213378906" lon="-118.58670043945313">
<ele>2771</ele>
<time>2016-10-21T12:22:20Z</time>
</trkpt>
<trkpt lat="36.841854095458984" lon="-118.58666229248047">
<ele>2774</ele>
<time>2016-10-21T12:22:29Z</time>
</trkpt>
<trkpt lat="36.84193801879883" lon="-118.58660125732422">
<ele>2773</ele>
<time>2016-10-21T12:22:35Z</time>
</trkpt>
<trkpt lat="36.842041015625" lon="-118.58659362792969">
<ele>2773</ele>
<time>2016-10-21T12:22:46Z</time>
</trkpt>
<trkpt lat="36.84208297729492" lon="-118.5865707397461">
<ele>2775</ele>
<time>2016-10-21T12:22:52Z</time>
</trkpt>
<trkpt lat="36.8421745300293" lon="-118.58651733398438">
<ele>2776</ele>
<time>2016-10-21T12:23:03Z</time>
</trkpt>
<trkpt lat="36.84225845336914" lon="-118.58647155761719">
<ele>2784</ele>
<time>2016-10-21T12:23:16Z</time>
</trkpt>
<trkpt lat="36.842323303222656" lon="-118.58646392822266">
<ele>2789</ele>
<time>2016-10-21T12:23:29Z</time>
</trkpt>
<trkpt lat="36.842369079589844" lon="-118.58648681640625">
<ele>2791</ele>
<time>2016-10-21T12:23:35Z</time>
</trkpt>
<trkpt lat="36.84242248535156" lon="-118.58647918701172">
<ele>2793</ele>
<time>2016-10-21T12:23:41Z</time>
</trkpt>
<trkpt lat="36.842506408691406" lon="-118.58650970458984">
<ele>2793</ele>
<time>2016-10-21T12:23:52Z</time>
</trkpt>
<trkpt lat="36.84260177612305" lon="-118.58648681640625">
<ele>2795</ele>
<time>2016-10-21T12:24:02Z</time>
</trkpt>
<trkpt lat="36.842708587646484" lon="-118.58648681640625">
<ele>2791</ele>
<time>2016-10-21T12:24:09Z</time>
</trkpt>
<trkpt lat="36.84278869628906" lon="-118.58658599853516">
<ele>2790</ele>
<time>2016-10-21T12:24:16Z</time>
</trkpt>
<trkpt lat="36.84288024902344" lon="-118.58659362792969">
<ele>2793</ele>
<time>2016-10-21T12:24:26Z</time>
</trkpt>
<trkpt lat="36.84296798706055" lon="-118.58660888671875">
<ele>2793</ele>
<time>2016-10-21T12:24:38Z</time>
</trkpt>
<trkpt lat="36.843017578125" lon="-118.58662414550781">
<ele>2797</ele>
<time>2016-10-21T12:24:46Z</time>
</trkpt>
<trkpt lat="36.84306716918945" lon="-118.58662414550781">
<ele>2800</ele>
<time>2016-10-21T12:24:52Z</time>
</trkpt>
<trkpt lat="36.843109130859375" lon="-118.58660888671875">
<ele>2800</ele>
<time>2016-10-21T12:24:59Z</time>
</trkpt>
<trkpt lat="36.843204498291016" lon="-118.58663177490234">
<ele>2800</ele>
<time>2016-10-21T12:25:08Z</time>
</trkpt>
<trkpt lat="36.843284606933594" lon="-118.58666229248047">
<ele>2797</ele>
<time>2016-10-21T12:25:31Z</time>
</trkpt>
<trkpt lat="36.843387603759766" lon="-118.586669921875">
<ele>2795</ele>
<time>2016-10-21T12:25:38Z</time>
</trkpt>
<trkpt lat="36.843441009521484" lon="-118.58670043945313">
<ele>2801</ele>
<time>2016-10-21T12:25:52Z</time>
</trkpt>
<trkpt lat="36.84340286254883" lon="-118.58673095703125">
<ele>2804</ele>
<time>2016-10-21T12:25:58Z</time>
</trkpt>
<trkpt lat="36.84335708618164" lon="-118.58674621582031">
<ele>2808</ele>
<time>2016-10-21T12:26:05Z</time>
</trkpt>
<trkpt lat="36.84331512451172" lon="-118.5867691040039">
<ele>2808</ele>
<time>2016-10-21T12:26:13Z</time>
</trkpt>
<trkpt lat="36.8432502746582" lon="-118.58683776855469">
<ele>2806</ele>
<time>2016-10-21T12:26:26Z</time>
</trkpt>
<trkpt lat="36.84314727783203" lon="-118.5868148803711">
<ele>2814</ele>
<time>2016-10-21T12:26:39Z</time>
</trkpt>
<trkpt lat="36.84309768676758" lon="-118.5868148803711">
<ele>2818</ele>
<time>2016-10-21T12:26:46Z</time>
</trkpt>
<trkpt lat="36.84305191040039" lon="-118.58683013916016">
<ele>2825</ele>
<time>2016-10-21T12:26:53Z</time>
</trkpt>
<trkpt lat="36.842952728271484" lon="-118.58685302734375">
<ele>2827</ele>
<time>2016-10-21T12:27:03Z</time>
</trkpt>
<trkpt lat="36.84287643432617" lon="-118.5869369506836">
<ele>2826</ele>
<time>2016-10-21T12:27:13Z</time>
</trkpt>
<trkpt lat="36.84282302856445" lon="-118.58694458007813">
<ele>2823</ele>
<time>2016-10-21T12:27:19Z</time>
</trkpt>
<trkpt lat="36.84276580810547" lon="-118.58696746826172">
<ele>2826</ele>
<time>2016-10-21T12:27:27Z</time>
</trkpt>
<trkpt lat="36.842689514160156" lon="-118.58702850341797">
<ele>2824</ele>
<time>2016-10-21T12:27:36Z</time>
</trkpt>
<trkpt lat="36.84262466430664" lon="-118.58712768554688">
<ele>2824</ele>
<time>2016-10-21T12:27:46Z</time>
</trkpt>
<trkpt lat="36.842586517333984" lon="-118.58717346191406">
<ele>2823</ele>
<time>2016-10-21T12:27:53Z</time>
</trkpt>
<trkpt lat="36.8425407409668" lon="-118.58719635009766">
<ele>2825</ele>
<time>2016-10-21T12:27:59Z</time>
</trkpt>
<trkpt lat="36.84250259399414" lon="-118.58723449707031">
<ele>2824</ele>
<time>2016-10-21T12:28:06Z</time>
</trkpt>
<trkpt lat="36.84245681762695" lon="-118.58723449707031">
<ele>2827</ele>
<time>2016-10-21T12:28:17Z</time>
</trkpt>
<trkpt lat="36.842411041259766" lon="-118.58726501464844">
<ele>2834</ele>
<time>2016-10-21T12:28:49Z</time>
</trkpt>
<trkpt lat="36.84242248535156" lon="-118.58732604980469">
<ele>2834</ele>
<time>2016-10-21T12:29:09Z</time>
</trkpt>
<trkpt lat="36.8425178527832" lon="-118.58736419677734">
<ele>2834</ele>
<time>2016-10-21T12:29:16Z</time>
</trkpt>
<trkpt lat="36.84259033203125" lon="-118.58736419677734">
<ele>2837</ele>
<time>2016-10-21T12:29:26Z</time>
</trkpt>
<trkpt lat="36.84264373779297" lon="-118.58734893798828">
<ele>2840</ele>
<time>2016-10-21T12:29:33Z</time>
</trkpt>
<trkpt lat="36.84273147583008" lon="-118.58737182617188">
<ele>2844</ele>
<time>2016-10-21T12:29:44Z</time>
</trkpt>
<trkpt lat="36.84282302856445" lon="-118.58738708496094">
<ele>2844</ele>
<time>2016-10-21T12:29:54Z</time>
</trkpt>
<trkpt lat="36.842872619628906" lon="-118.58740234375">
<ele>2845</ele>
<time>2016-10-21T12:30:00Z</time>
</trkpt>
<trkpt lat="36.842926025390625" lon="-118.58740997314453">
<ele>2842</ele>
<time>2016-10-21T12:30:13Z</time>
</trkpt>
<trkpt lat="36.84300231933594" lon="-118.58745574951172">
<ele>2839</ele>
<time>2016-10-21T12:30:20Z</time>
</trkpt>
<trkpt lat="36.84305191040039" lon="-118.58745574951172">
<ele>2842</ele>
<time>2016-10-21T12:30:26Z</time>
</trkpt>
<trkpt lat="36.843143463134766" lon="-118.58748626708984">
<ele>2844</ele>
<time>2016-10-21T12:30:36Z</time>
</trkpt>
<trkpt lat="36.84319305419922" lon="-118.58750915527344">
<ele>2846</ele>
<time>2016-10-21T12:30:43Z</time>
</trkpt>
<trkpt lat="36.84328842163086" lon="-118.58755493164063">
<ele>2844</ele>
<time>2016-10-21T12:30:52Z</time>
</trkpt>
<trkpt lat="36.843379974365234" lon="-118.58756256103516">
<ele>2843</ele>
<time>2016-10-21T12:31:01Z</time>
</trkpt>
<trkpt lat="36.84342956542969" lon="-118.58753967285156">
<ele>2844</ele>
<time>2016-10-21T12:31:12Z</time>
</trkpt>
<trkpt lat="36.84352111816406" lon="-118.58759307861328">
<ele>2843</ele>
<time>2016-10-21T12:31:19Z</time>
</trkpt>
<trkpt lat="36.84362030029297" lon="-118.58765411376953">
<ele>2850</ele>
<time>2016-10-21T12:31:30Z</time>
</trkpt>
<trkpt lat="36.84366989135742" lon="-118.587646484375">
<ele>2844</ele>
<time>2016-10-21T12:31:36Z</time>
</trkpt>
<trkpt lat="36.84376907348633" lon="-118.5876693725586">
<ele>2849</ele>
<time>2016-10-21T12:31:44Z</time>
</trkpt>
<trkpt lat="36.84381103515625" lon="-118.58769989013672">
<ele>2846</ele>
<time>2016-10-21T12:31:51Z</time>
</trkpt>
<trkpt lat="36.84385299682617" lon="-118.58772277832031">
<ele>2850</ele>
<time>2016-10-21T12:32:00Z</time>
</trkpt>
<trkpt lat="36.843955993652344" lon="-118.58768463134766">
<ele>2849</ele>
<time>2016-10-21T12:32:10Z</time>
</trkpt>
<trkpt lat="36.8440055847168" lon="-118.58767700195313">
<ele>2853</ele>
<time>2016-10-21T12:32:17Z</time>
</trkpt>
<trkpt lat="36.84394836425781" lon="-118.58773040771484">
<ele>2866</ele>
<time>2016-10-21T12:32:47Z</time>
</trkpt>
<trkpt lat="36.84385681152344" lon="-118.5877685546875">
<ele>2865</ele>
<time>2016-10-21T12:32:57Z</time>
</trkpt>
<trkpt lat="36.84376907348633" lon="-118.58778381347656">
<ele>2869</ele>
<time>2016-10-21T12:33:07Z</time>
</trkpt>
<trkpt lat="36.84368896484375" lon="-118.58784484863281">
<ele>2864</ele>
<time>2016-10-21T12:33:19Z</time>
</trkpt>
<trkpt lat="36.843589782714844" lon="-118.58785247802734">
<ele>2868</ele>
<time>2016-10-21T12:33:29Z</time>
</trkpt>
<trkpt lat="36.84354019165039" lon="-118.58786010742188">
<ele>2867</ele>
<time>2016-10-21T12:33:37Z</time>
</trkpt>
<trkpt lat="36.84349822998047" lon="-118.58782196044922">
<ele>2871</ele>
<time>2016-10-21T12:33:43Z</time>
</trkpt>
<trkpt lat="36.84339904785156" lon="-118.58782958984375">
<ele>2870</ele>
<time>2016-10-21T12:33:53Z</time>
</trkpt>
<trkpt lat="36.843353271484375" lon="-118.58783721923828">
<ele>2873</ele>
<time>2016-10-21T12:33:59Z</time>
</trkpt>
<trkpt lat="36.843318939208984" lon="-118.5878677368164">
<ele>2871</ele>
<time>2016-10-21T12:34:07Z</time>
</trkpt>
<trkpt lat="36.84322738647461" lon="-118.5879135131836">
<ele>2873</ele>
<time>2016-10-21T12:34:17Z</time>
</trkpt>
<trkpt lat="36.84315490722656" lon="-118.58793640136719">
<ele>2877</ele>
<time>2016-10-21T12:34:27Z</time>
</trkpt>
<trkpt lat="36.843109130859375" lon="-118.58795166015625">
<ele>2877</ele>
<time>2016-10-21T12:34:33Z</time>
</trkpt>
<trkpt lat="36.84306335449219" lon="-118.58795928955078">
<ele>2879</ele>
<time>2016-10-21T12:34:39Z</time>
</trkpt>
<trkpt lat="36.843021392822266" lon="-118.58795166015625">
<ele>2878</ele>
<time>2016-10-21T12:34:45Z</time>
</trkpt>
<trkpt lat="36.84307098388672" lon="-118.58797454833984">
<ele>2876</ele>
<time>2016-10-21T12:35:09Z</time>
</trkpt>
<trkpt lat="36.84318161010742" lon="-118.58802032470703">
<ele>2873</ele>
<time>2016-10-21T12:35:17Z</time>
</trkpt>
<trkpt lat="36.84325408935547" lon="-118.58808898925781">
<ele>2878</ele>
<time>2016-10-21T12:35:24Z</time>
</trkpt>
<trkpt lat="36.843326568603516" lon="-118.58818054199219">
<ele>2880</ele>
<time>2016-10-21T12:35:34Z</time>
</trkpt>
<trkpt lat="36.84336853027344" lon="-118.58821868896484">
<ele>2875</ele>
<time>2016-10-21T12:35:42Z</time>
</trkpt>
<trkpt lat="36.84345245361328" lon="-118.5882797241211">
<ele>2869</ele>
<time>2016-10-21T12:35:54Z</time>
</trkpt>
<trkpt lat="36.84354782104492" lon="-118.58831024169922">
<ele>2871</ele>
<time>2016-10-21T12:36:03Z</time>
</trkpt>
<trkpt lat="36.84363555908203" lon="-118.58836364746094">
<ele>2873</ele>
<time>2016-10-21T12:36:16Z</time>
</trkpt>
<trkpt lat="36.843692779541016" lon="-118.58839416503906">
<ele>2880</ele>
<time>2016-10-21T12:36:28Z</time>
</trkpt>
<trkpt lat="36.843780517578125" lon="-118.58842468261719">
<ele>2882</ele>
<time>2016-10-21T12:36:38Z</time>
</trkpt>
<trkpt lat="36.8438720703125" lon="-118.58843231201172">
<ele>2883</ele>
<time>2016-10-21T12:36:48Z</time>
</trkpt>
<trkpt lat="36.84391403198242" lon="-118.58845520019531">
<ele>2886</ele>
<time>2016-10-21T12:36:56Z</time>
</trkpt>
<trkpt lat="36.84400177001953" lon="-118.58848571777344">
<ele>2889</ele>
<time>2016-10-21T12:37:07Z</time>
</trkpt>
<trkpt lat="36.84408950805664" lon="-118.58854675292969">
<ele>2890</ele>
<time>2016-10-21T12:37:19Z</time>
</trkpt>
<trkpt lat="36.84418869018555" lon="-118.58859252929688">
<ele>2891</ele>
<time>2016-10-21T12:37:30Z</time>
</trkpt>
<trkpt lat="36.84423065185547" lon="-118.588623046875">
<ele>2893</ele>
<time>2016-10-21T12:37:38Z</time>
</trkpt>
<trkpt lat="36.84426498413086" lon="-118.58866119384766">
<ele>2894</ele>
<time>2016-10-21T12:37:45Z</time>
</trkpt>
<trkpt lat="36.84430694580078" lon="-118.58868408203125">
<ele>2895</ele>
<time>2016-10-21T12:37:52Z</time>
</trkpt>
<trkpt lat="36.844356536865234" lon="-118.58870697021484">
<ele>2896</ele>
<time>2016-10-21T12:38:01Z</time>
</trkpt>
<trkpt lat="36.844398498535156" lon="-118.58872985839844">
<ele>2897</ele>
<time>2016-10-21T12:38:08Z</time>
</trkpt>
<trkpt lat="36.844451904296875" lon="-118.58876037597656">
<ele>2897</ele>
<time>2016-10-21T12:38:19Z</time>
</trkpt>
<trkpt lat="36.84451675415039" lon="-118.58876037597656">
<ele>2896</ele>
<time>2016-10-21T12:38:25Z</time>
</trkpt>
<trkpt lat="36.84461212158203" lon="-118.58876037597656">
<ele>2893</ele>
<time>2016-10-21T12:38:36Z</time>
</trkpt>
<trkpt lat="36.84465026855469" lon="-118.58879852294922">
<ele>2890</ele>
<time>2016-10-21T12:38:42Z</time>
</trkpt>
<trkpt lat="36.84469985961914" lon="-118.58879089355469">
<ele>2890</ele>
<time>2016-10-21T12:38:48Z</time>
</trkpt>
<trkpt lat="36.84475326538086" lon="-118.58879089355469">
<ele>2891</ele>
<time>2016-10-21T12:38:54Z</time>
</trkpt>
<trkpt lat="36.84475326538086" lon="-118.58885192871094">
<ele>2892</ele>
<time>2016-10-21T12:39:03Z</time>
</trkpt>
<trkpt lat="36.84467315673828" lon="-118.58890533447266">
<ele>2894</ele>
<time>2016-10-21T12:39:12Z</time>
</trkpt>
<trkpt lat="36.844600677490234" lon="-118.58891296386719">
<ele>2901</ele>
<time>2016-10-21T12:39:20Z</time>
</trkpt>
<trkpt lat="36.84455108642578" lon="-118.58892822265625">
<ele>2903</ele>
<time>2016-10-21T12:39:28Z</time>
</trkpt>
<trkpt lat="36.84450149536133" lon="-118.58895111083984">
<ele>2906</ele>
<time>2016-10-21T12:39:34Z</time>
</trkpt>
<trkpt lat="36.84440231323242" lon="-118.5889663696289">
<ele>2907</ele>
<time>2016-10-21T12:39:46Z</time>
</trkpt>
<trkpt lat="36.844356536865234" lon="-118.58897399902344">
<ele>2908</ele>
<time>2016-10-21T12:39:54Z</time>
</trkpt>
<trkpt lat="36.84431457519531" lon="-118.58899688720703">
<ele>2908</ele>
<time>2016-10-21T12:40:00Z</time>
</trkpt>
<trkpt lat="36.844276428222656" lon="-118.58903503417969">
<ele>2909</ele>
<time>2016-10-21T12:40:14Z</time>
</trkpt>
<trkpt lat="36.844234466552734" lon="-118.58906555175781">
<ele>2906</ele>
<time>2016-10-21T12:40:34Z</time>
</trkpt>
<trkpt lat="36.844139099121094" lon="-118.58905792236328">
<ele>2914</ele>
<time>2016-10-21T12:40:44Z</time>
</trkpt>
<trkpt lat="36.844051361083984" lon="-118.58906555175781">
<ele>2914</ele>
<time>2016-10-21T12:41:01Z</time>
</trkpt>
<trkpt lat="36.84410095214844" lon="-118.58907318115234">
<ele>2913</ele>
<time>2016-10-21T12:41:07Z</time>
</trkpt>
<trkpt lat="36.84414291381836" lon="-118.58909606933594">
<ele>2910</ele>
<time>2016-10-21T12:41:14Z</time>
</trkpt>
<trkpt lat="36.844207763671875" lon="-118.58916473388672">
<ele>2908</ele>
<time>2016-10-21T12:41:20Z</time>
</trkpt>
<trkpt lat="36.84428787231445" lon="-118.58919525146484">
<ele>2909</ele>
<time>2016-10-21T12:41:34Z</time>
</trkpt>
<trkpt lat="36.84436798095703" lon="-118.58926391601563">
<ele>2912</ele>
<time>2016-10-21T12:41:44Z</time>
</trkpt>
<trkpt lat="36.84440612792969" lon="-118.58930206298828">
<ele>2910</ele>
<time>2016-10-21T12:41:50Z</time>
</trkpt>
<trkpt lat="36.84449768066406" lon="-118.58934783935547">
<ele>2913</ele>
<time>2016-10-21T12:42:01Z</time>
</trkpt>
<trkpt lat="36.84453582763672" lon="-118.58938598632813">
<ele>2914</ele>
<time>2016-10-21T12:42:07Z</time>
</trkpt>
<trkpt lat="36.84461975097656" lon="-118.58946228027344">
<ele>2920</ele>
<time>2016-10-21T12:42:18Z</time>
</trkpt>
<trkpt lat="36.84467697143555" lon="-118.58951568603516">
<ele>2922</ele>
<time>2016-10-21T12:42:26Z</time>
</trkpt>
<trkpt lat="36.84471893310547" lon="-118.58954620361328">
<ele>2922</ele>
<time>2016-10-21T12:42:32Z</time>
</trkpt>
<trkpt lat="36.84476852416992" lon="-118.58955383300781">
<ele>2924</ele>
<time>2016-10-21T12:42:39Z</time>
</trkpt>
<trkpt lat="36.844844818115234" lon="-118.58965301513672">
<ele>2922</ele>
<time>2016-10-21T12:42:47Z</time>
</trkpt>
<trkpt lat="36.84487533569336" lon="-118.5896987915039">
<ele>2922</ele>
<time>2016-10-21T12:42:53Z</time>
</trkpt>
<trkpt lat="36.84491729736328" lon="-118.58973693847656">
<ele>2928</ele>
<time>2016-10-21T12:43:03Z</time>
</trkpt>
<trkpt lat="36.8449592590332" lon="-118.58976745605469">
<ele>2928</ele>
<time>2016-10-21T12:43:09Z</time>
</trkpt>
<trkpt lat="36.845008850097656" lon="-118.58979034423828">
<ele>2933</ele>
<time>2016-10-21T12:43:16Z</time>
</trkpt>
<trkpt lat="36.845062255859375" lon="-118.58982849121094">
<ele>2932</ele>
<time>2016-10-21T12:43:29Z</time>
</trkpt>
<trkpt lat="36.845149993896484" lon="-118.58985900878906">
<ele>2933</ele>
<time>2016-10-21T12:43:39Z</time>
</trkpt>
<trkpt lat="36.845184326171875" lon="-118.58990478515625">
<ele>2937</ele>
<time>2016-10-21T12:43:45Z</time>
</trkpt>
<trkpt lat="36.845218658447266" lon="-118.58993530273438">
<ele>2938</ele>
<time>2016-10-21T12:43:52Z</time>
</trkpt>
<trkpt lat="36.845272064208984" lon="-118.58992004394531">
<ele>2941</ele>
<time>2016-10-21T12:44:00Z</time>
</trkpt>
<trkpt lat="36.8453254699707" lon="-118.58989715576172">
<ele>2942</ele>
<time>2016-10-21T12:44:06Z</time>
</trkpt>
<trkpt lat="36.84537887573242" lon="-118.58987426757813">
<ele>2939</ele>
<time>2016-10-21T12:44:13Z</time>
</trkpt>
<trkpt lat="36.84543228149414" lon="-118.58980560302734">
<ele>2936</ele>
<time>2016-10-21T12:44:20Z</time>
</trkpt>
<trkpt lat="36.84550857543945" lon="-118.58973693847656">
<ele>2938</ele>
<time>2016-10-21T12:44:34Z</time>
</trkpt>
<trkpt lat="36.845481872558594" lon="-118.58978271484375">
<ele>2939</ele>
<time>2016-10-21T12:44:43Z</time>
</trkpt>
<trkpt lat="36.8454475402832" lon="-118.58991241455078">
<ele>2939</ele>
<time>2016-10-21T12:44:58Z</time>
</trkpt>
<trkpt lat="36.845428466796875" lon="-118.5899658203125">
<ele>2947</ele>
<time>2016-10-21T12:45:07Z</time>
</trkpt>
<trkpt lat="36.84538269042969" lon="-118.5899887084961">
<ele>2950</ele>
<time>2016-10-21T12:45:14Z</time>
</trkpt>
<trkpt lat="36.84536361694336" lon="-118.59005737304688">
<ele>2950</ele>
<time>2016-10-21T12:45:20Z</time>
</trkpt>
<trkpt lat="36.84532928466797" lon="-118.5901870727539">
<ele>2952</ele>
<time>2016-10-21T12:45:30Z</time>
</trkpt>
<trkpt lat="36.8453254699707" lon="-118.5903091430664">
<ele>2955</ele>
<time>2016-10-21T12:45:40Z</time>
</trkpt>
<trkpt lat="36.845306396484375" lon="-118.59036254882813">
<ele>2957</ele>
<time>2016-10-21T12:45:46Z</time>
</trkpt>
<trkpt lat="36.84529113769531" lon="-118.59041595458984">
<ele>2958</ele>
<time>2016-10-21T12:45:52Z</time>
</trkpt>
<trkpt lat="36.845237731933594" lon="-118.59040069580078">
<ele>2963</ele>
<time>2016-10-21T12:45:58Z</time>
</trkpt>
<trkpt lat="36.84514236450195" lon="-118.59037780761719">
<ele>2959</ele>
<time>2016-10-21T12:46:06Z</time>
</trkpt>
<trkpt lat="36.8451042175293" lon="-118.59034729003906">
<ele>2957</ele>
<time>2016-10-21T12:46:15Z</time>
</trkpt>
<trkpt lat="36.84502410888672" lon="-118.59039306640625">
<ele>2950</ele>
<time>2016-10-21T12:46:29Z</time>
</trkpt>
<trkpt lat="36.84492111206055" lon="-118.59042358398438">
<ele>2950</ele>
<time>2016-10-21T12:46:38Z</time>
</trkpt>
<trkpt lat="36.844871520996094" lon="-118.59041595458984">
<ele>2956</ele>
<time>2016-10-21T12:46:45Z</time>
</trkpt>
<trkpt lat="36.844825744628906" lon="-118.59040832519531">
<ele>2957</ele>
<time>2016-10-21T12:46:53Z</time>
</trkpt>
<trkpt lat="36.84473419189453" lon="-118.5904541015625">
<ele>2957</ele>
<time>2016-10-21T12:47:03Z</time>
</trkpt>
<trkpt lat="36.84468460083008" lon="-118.59044647216797">
<ele>2957</ele>
<time>2016-10-21T12:47:09Z</time>
</trkpt>
<trkpt lat="36.84463119506836" lon="-118.5904312133789">
<ele>2958</ele>
<time>2016-10-21T12:47:15Z</time>
</trkpt>
<trkpt lat="36.84453582763672" lon="-118.59039306640625">
<ele>2960</ele>
<time>2016-10-21T12:47:27Z</time>
</trkpt>
<trkpt lat="36.844482421875" lon="-118.59039306640625">
<ele>2961</ele>
<time>2016-10-21T12:47:34Z</time>
</trkpt>
<trkpt lat="36.84443283081055" lon="-118.59038543701172">
<ele>2964</ele>
<time>2016-10-21T12:47:41Z</time>
</trkpt>
<trkpt lat="36.84433364868164" lon="-118.59038543701172">
<ele>2965</ele>
<time>2016-10-21T12:47:51Z</time>
</trkpt>
<trkpt lat="36.84428405761719" lon="-118.59039306640625">
<ele>2963</ele>
<time>2016-10-21T12:47:57Z</time>
</trkpt>
<trkpt lat="36.84421157836914" lon="-118.59032440185547">
<ele>2964</ele>
<time>2016-10-21T12:48:06Z</time>
</trkpt>
<trkpt lat="36.84412384033203" lon="-118.59025573730469">
<ele>2964</ele>
<time>2016-10-21T12:48:20Z</time>
</trkpt>
<trkpt lat="36.844078063964844" lon="-118.59025573730469">
<ele>2963</ele>
<time>2016-10-21T12:48:28Z</time>
</trkpt>
<trkpt lat="36.844032287597656" lon="-118.59027099609375">
<ele>2958</ele>
<time>2016-10-21T12:48:39Z</time>
</trkpt>
<trkpt lat="36.84398651123047" lon="-118.59025573730469">
<ele>2965</ele>
<time>2016-10-21T12:50:15Z</time>
</trkpt>
<trkpt lat="36.843902587890625" lon="-118.59022521972656">
<ele>2977</ele>
<time>2016-10-21T12:50:30Z</time>
</trkpt>
<trkpt lat="36.84381103515625" lon="-118.59017181396484">
<ele>2976</ele>
<time>2016-10-21T12:50:38Z</time>
</trkpt>
<trkpt lat="36.84376525878906" lon="-118.5901870727539">
<ele>2978</ele>
<time>2016-10-21T12:50:44Z</time>
</trkpt>
<trkpt lat="36.84372329711914" lon="-118.59014892578125">
<ele>2977</ele>
<time>2016-10-21T12:50:51Z</time>
</trkpt>
<trkpt lat="36.843631744384766" lon="-118.59016418457031">
<ele>2975</ele>
<time>2016-10-21T12:51:00Z</time>
</trkpt>
<trkpt lat="36.84358215332031" lon="-118.5902099609375">
<ele>2977</ele>
<time>2016-10-21T12:51:06Z</time>
</trkpt>
<trkpt lat="36.8434944152832" lon="-118.59027099609375">
<ele>2979</ele>
<time>2016-10-21T12:51:18Z</time>
</trkpt>
<trkpt lat="36.843441009521484" lon="-118.59030151367188">
<ele>2985</ele>
<time>2016-10-21T12:51:26Z</time>
</trkpt>
<trkpt lat="36.84339904785156" lon="-118.59033203125">
<ele>2982</ele>
<time>2016-10-21T12:51:33Z</time>
</trkpt>
<trkpt lat="36.84336853027344" lon="-118.59037780761719">
<ele>2979</ele>
<time>2016-10-21T12:51:39Z</time>
</trkpt>
<trkpt lat="36.84332275390625" lon="-118.59040069580078">
<ele>2974</ele>
<time>2016-10-21T12:51:50Z</time>
</trkpt>
<trkpt lat="36.84328842163086" lon="-118.59051513671875">
<ele>2982</ele>
<time>2016-10-21T12:52:00Z</time>
</trkpt>
<trkpt lat="36.84326934814453" lon="-118.59056854248047">
<ele>2976</ele>
<time>2016-10-21T12:52:11Z</time>
</trkpt>
<trkpt lat="36.84324264526367" lon="-118.59065246582031">
<ele>2975</ele>
<time>2016-10-21T12:52:20Z</time>
</trkpt>
<trkpt lat="36.843196868896484" lon="-118.5906753540039">
<ele>2978</ele>
<time>2016-10-21T12:52:26Z</time>
</trkpt>
<trkpt lat="36.84314727783203" lon="-118.59078979492188">
<ele>2989</ele>
<time>2016-10-21T12:52:36Z</time>
</trkpt>
<trkpt lat="36.8431510925293" lon="-118.5909194946289">
<ele>2993</ele>
<time>2016-10-21T12:52:42Z</time>
</trkpt>
<trkpt lat="36.84313201904297" lon="-118.5909652709961">
<ele>2993</ele>
<time>2016-10-21T12:52:50Z</time>
</trkpt>
<trkpt lat="36.84316635131836" lon="-118.59101104736328">
<ele>2994</ele>
<time>2016-10-21T12:52:57Z</time>
</trkpt>
<trkpt lat="36.84318542480469" lon="-118.59107208251953">
<ele>2994</ele>
<time>2016-10-21T12:53:03Z</time>
</trkpt>
<trkpt lat="36.84318161010742" lon="-118.5911865234375">
<ele>2991</ele>
<time>2016-10-21T12:53:13Z</time>
</trkpt>
<trkpt lat="36.84315490722656" lon="-118.59129333496094">
<ele>2995</ele>
<time>2016-10-21T12:53:20Z</time>
</trkpt>
<trkpt lat="36.843135833740234" lon="-118.59134674072266">
<ele>2992</ele>
<time>2016-10-21T12:53:26Z</time>
</trkpt>
<trkpt lat="36.84313201904297" lon="-118.59142303466797">
<ele>2993</ele>
<time>2016-10-21T12:53:33Z</time>
</trkpt>
<trkpt lat="36.8431282043457" lon="-118.59148406982422">
<ele>2995</ele>
<time>2016-10-21T12:53:40Z</time>
</trkpt>
<trkpt lat="36.843116760253906" lon="-118.591552734375">
<ele>2989</ele>
<time>2016-10-21T12:53:51Z</time>
</trkpt>
<trkpt lat="36.84312438964844" lon="-118.59166717529297">
<ele>2989</ele>
<time>2016-10-21T12:54:07Z</time>
</trkpt>
<trkpt lat="36.843170166015625" lon="-118.59164428710938">
<ele>2991</ele>
<time>2016-10-21T12:54:14Z</time>
</trkpt>
<trkpt lat="36.84323501586914" lon="-118.59156799316406">
<ele>2990</ele>
<time>2016-10-21T12:54:26Z</time>
</trkpt>
<trkpt lat="36.84325408935547" lon="-118.59151458740234">
<ele>2995</ele>
<time>2016-10-21T12:54:33Z</time>
</trkpt>
<trkpt lat="36.843284606933594" lon="-118.59146118164063">
<ele>2998</ele>
<time>2016-10-21T12:54:39Z</time>
</trkpt>
<trkpt lat="36.84337615966797" lon="-118.59142303466797">
<ele>3001</ele>
<time>2016-10-21T12:54:48Z</time>
</trkpt>
<trkpt lat="36.84340286254883" lon="-118.59136199951172">
<ele>3004</ele>
<time>2016-10-21T12:54:55Z</time>
</trkpt>
<trkpt lat="36.84340286254883" lon="-118.59130859375">
<ele>3005</ele>
<time>2016-10-21T12:55:01Z</time>
</trkpt>
<trkpt lat="36.84345245361328" lon="-118.5912857055664">
<ele>3004</ele>
<time>2016-10-21T12:55:09Z</time>
</trkpt>
<trkpt lat="36.84349060058594" lon="-118.59125518798828">
<ele>3006</ele>
<time>2016-10-21T12:55:19Z</time>
</trkpt>
<trkpt lat="36.843536376953125" lon="-118.59120178222656">
<ele>3005</ele>
<time>2016-10-21T12:55:25Z</time>
</trkpt>
<trkpt lat="36.84363555908203" lon="-118.59115600585938">
<ele>3006</ele>
<time>2016-10-21T12:55:35Z</time>
</trkpt>
<trkpt lat="36.84360122680664" lon="-118.59123992919922">
<ele>3019</ele>
<time>2016-10-21T12:56:28Z</time>
</trkpt>
<trkpt lat="36.84357833862305" lon="-118.59135437011719">
<ele>3024</ele>
<time>2016-10-21T12:56:39Z</time>
</trkpt>
<trkpt lat="36.84354782104492" lon="-118.59146881103516">
<ele>3021</ele>
<time>2016-10-21T12:56:47Z</time>
</trkpt>
<trkpt lat="36.843528747558594" lon="-118.5915298461914">
<ele>3020</ele>
<time>2016-10-21T12:56:53Z</time>
</trkpt>
<trkpt lat="36.843528747558594" lon="-118.59159851074219">
<ele>3022</ele>
<time>2016-10-21T12:56:59Z</time>
</trkpt>
<trkpt lat="36.84353256225586" lon="-118.5916519165039">
<ele>3026</ele>
<time>2016-10-21T12:57:05Z</time>
</trkpt>
<trkpt lat="36.8434944152832" lon="-118.59175109863281">
<ele>3030</ele>
<time>2016-10-21T12:57:16Z</time>
</trkpt>
<trkpt lat="36.84345245361328" lon="-118.59184265136719">
<ele>3034</ele>
<time>2016-10-21T12:57:27Z</time>
</trkpt>
<trkpt lat="36.843421936035156" lon="-118.59188079833984">
<ele>3034</ele>
<time>2016-10-21T12:57:35Z</time>
</trkpt>
<trkpt lat="36.843414306640625" lon="-118.5919418334961">
<ele>3031</ele>
<time>2016-10-21T12:57:41Z</time>
</trkpt>
<trkpt lat="36.84346389770508" lon="-118.5919418334961">
<ele>3027</ele>
<time>2016-10-21T12:57:57Z</time>
</trkpt>
<trkpt lat="36.843509674072266" lon="-118.59195709228516">
<ele>3028</ele>
<time>2016-10-21T12:58:04Z</time>
</trkpt>
<trkpt lat="36.843605041503906" lon="-118.59192657470703">
<ele>3031</ele>
<time>2016-10-21T12:58:15Z</time>
</trkpt>
<trkpt lat="36.843685150146484" lon="-118.5919189453125">
<ele>3034</ele>
<time>2016-10-21T12:58:25Z</time>
</trkpt>
<trkpt lat="36.84377670288086" lon="-118.59186553955078">
<ele>3034</ele>
<time>2016-10-21T12:58:37Z</time>
</trkpt>
<trkpt lat="36.84385681152344" lon="-118.59181213378906">
<ele>3036</ele>
<time>2016-10-21T12:58:48Z</time>
</trkpt>
<trkpt lat="36.84395217895508" lon="-118.59181213378906">
<ele>3030</ele>
<time>2016-10-21T12:58:58Z</time>
</trkpt>
<trkpt lat="36.844058990478516" lon="-118.59181213378906">
<ele>3025</ele>
<time>2016-10-21T12:59:10Z</time>
</trkpt>
<trkpt lat="36.8441162109375" lon="-118.59185028076172">
<ele>3031</ele>
<time>2016-10-21T12:59:31Z</time>
</trkpt>
<trkpt lat="36.84416198730469" lon="-118.59186553955078">
<ele>3033</ele>
<time>2016-10-21T12:59:40Z</time>
</trkpt>
<trkpt lat="36.844200134277344" lon="-118.59191131591797">
<ele>3036</ele>
<time>2016-10-21T12:59:47Z</time>
</trkpt>
<trkpt lat="36.84424591064453" lon="-118.5919189453125">
<ele>3036</ele>
<time>2016-10-21T12:59:54Z</time>
</trkpt>
<trkpt lat="36.84428405761719" lon="-118.59195709228516">
<ele>3031</ele>
<time>2016-10-21T13:00:01Z</time>
</trkpt>
<trkpt lat="36.84431838989258" lon="-118.59200286865234">
<ele>3031</ele>
<time>2016-10-21T13:00:08Z</time>
</trkpt>
<trkpt lat="36.844337463378906" lon="-118.59210968017578">
<ele>3032</ele>
<time>2016-10-21T13:00:20Z</time>
</trkpt>
<trkpt lat="36.844356536865234" lon="-118.59219360351563">
<ele>3037</ele>
<time>2016-10-21T13:00:29Z</time>
</trkpt>
<trkpt lat="36.8443603515625" lon="-118.59225463867188">
<ele>3038</ele>
<time>2016-10-21T13:00:41Z</time>
</trkpt>
<trkpt lat="36.844383239746094" lon="-118.5923080444336">
<ele>3044</ele>
<time>2016-10-21T13:00:47Z</time>
</trkpt>
<trkpt lat="36.8444709777832" lon="-118.59236907958984">
<ele>3049</ele>
<time>2016-10-21T13:00:58Z</time>
</trkpt>
<trkpt lat="36.844539642333984" lon="-118.59245300292969">
<ele>3047</ele>
<time>2016-10-21T13:01:10Z</time>
</trkpt>
<trkpt lat="36.844566345214844" lon="-118.59256744384766">
<ele>3046</ele>
<time>2016-10-21T13:01:19Z</time>
</trkpt>
<trkpt lat="36.844573974609375" lon="-118.59263610839844">
<ele>3046</ele>
<time>2016-10-21T13:01:28Z</time>
</trkpt>
<trkpt lat="36.84458541870117" lon="-118.59268951416016">
<ele>3042</ele>
<time>2016-10-21T13:01:38Z</time>
</trkpt>
<trkpt lat="36.844669342041016" lon="-118.5927505493164">
<ele>3053</ele>
<time>2016-10-21T13:01:47Z</time>
</trkpt>
<trkpt lat="36.84469985961914" lon="-118.5927963256836">
<ele>3052</ele>
<time>2016-10-21T13:01:55Z</time>
</trkpt>
<trkpt lat="36.84476852416992" lon="-118.59288787841797">
<ele>3053</ele>
<time>2016-10-21T13:02:09Z</time>
</trkpt>
<trkpt lat="36.8448486328125" lon="-118.59296417236328">
<ele>3053</ele>
<time>2016-10-21T13:02:18Z</time>
</trkpt>
<trkpt lat="36.844905853271484" lon="-118.5930404663086">
<ele>3057</ele>
<time>2016-10-21T13:02:25Z</time>
</trkpt>
<trkpt lat="36.84493637084961" lon="-118.59307861328125">
<ele>3056</ele>
<time>2016-10-21T13:02:31Z</time>
</trkpt>
<trkpt lat="36.84502029418945" lon="-118.5931396484375">
<ele>3058</ele>
<time>2016-10-21T13:02:42Z</time>
</trkpt>
<trkpt lat="36.84506607055664" lon="-118.59317016601563">
<ele>3056</ele>
<time>2016-10-21T13:02:49Z</time>
</trkpt>
<trkpt lat="36.8451042175293" lon="-118.59320831298828">
<ele>3056</ele>
<time>2016-10-21T13:02:58Z</time>
</trkpt>
<trkpt lat="36.84516525268555" lon="-118.59329223632813">
<ele>3057</ele>
<time>2016-10-21T13:03:07Z</time>
</trkpt>
<trkpt lat="36.84520721435547" lon="-118.59332275390625">
<ele>3058</ele>
<time>2016-10-21T13:03:13Z</time>
</trkpt>
<trkpt lat="36.84526062011719" lon="-118.5933609008789">
<ele>3050</ele>
<time>2016-10-21T13:03:20Z</time>
</trkpt>
<trkpt lat="36.845340728759766" lon="-118.59341430664063">
<ele>3052</ele>
<time>2016-10-21T13:03:30Z</time>
</trkpt>
</trkseg>
</trk>
<trk>
<name><![CDATA[10210604]]></name>
<number>54</number>
<extensions><topografix:color>ff000066</topografix:color></extensions>
<trkseg>
<trkpt lat="36.84550476074219" lon="-118.59361267089844">
<ele>3087</ele>
<time>2016-10-21T13:04:39Z</time>
</trkpt>
<trkpt lat="36.84555435180664" lon="-118.5936050415039">
<ele>3084</ele>
<time>2016-10-21T13:04:47Z</time>
</trkpt>
<trkpt lat="36.8455924987793" lon="-118.59364318847656">
<ele>3089</ele>
<time>2016-10-21T13:05:13Z</time>
</trkpt>
<trkpt lat="36.84563064575195" lon="-118.59368133544922">
<ele>3083</ele>
<time>2016-10-21T13:05:20Z</time>
</trkpt>
<trkpt lat="36.845680236816406" lon="-118.59369659423828">
<ele>3079</ele>
<time>2016-10-21T13:05:27Z</time>
</trkpt>
<trkpt lat="36.84572982788086" lon="-118.59371948242188">
<ele>3077</ele>
<time>2016-10-21T13:05:38Z</time>
</trkpt>
<trkpt lat="36.84577560424805" lon="-118.59374237060547">
<ele>3067</ele>
<time>2016-10-21T13:05:45Z</time>
</trkpt>
<trkpt lat="36.84587478637695" lon="-118.5937271118164">
<ele>3073</ele>
<time>2016-10-21T13:05:52Z</time>
</trkpt>
<trkpt lat="36.845947265625" lon="-118.59380340576172">
<ele>3079</ele>
<time>2016-10-21T13:06:01Z</time>
</trkpt>
<trkpt lat="36.84599304199219" lon="-118.59384155273438">
<ele>3082</ele>
<time>2016-10-21T13:06:07Z</time>
</trkpt>
<trkpt lat="36.846038818359375" lon="-118.5938491821289">
<ele>3080</ele>
<time>2016-10-21T13:06:14Z</time>
</trkpt>
<trkpt lat="36.84608840942383" lon="-118.5938720703125">
<ele>3086</ele>
<time>2016-10-21T13:06:20Z</time>
</trkpt>
<trkpt lat="36.846187591552734" lon="-118.59390258789063">
<ele>3082</ele>
<time>2016-10-21T13:06:30Z</time>
</trkpt>
<trkpt lat="36.84623718261719" lon="-118.5938949584961">
<ele>3086</ele>
<time>2016-10-21T13:06:38Z</time>
</trkpt>
<trkpt lat="36.846195220947266" lon="-118.59391784667969">
<ele>3086</ele>
<time>2016-10-21T13:06:57Z</time>
</trkpt>
<trkpt lat="36.846153259277344" lon="-118.59394836425781">
<ele>3086</ele>
<time>2016-10-21T13:07:03Z</time>
</trkpt>
<trkpt lat="36.84611892700195" lon="-118.593994140625">
<ele>3087</ele>
<time>2016-10-21T13:07:10Z</time>
</trkpt>
<trkpt lat="36.84607696533203" lon="-118.59403228759766">
<ele>3089</ele>
<time>2016-10-21T13:07:16Z</time>
</trkpt>
<trkpt lat="36.84603500366211" lon="-118.59407043457031">
<ele>3089</ele>
<time>2016-10-21T13:07:22Z</time>
</trkpt>
<trkpt lat="36.846012115478516" lon="-118.59413146972656">
<ele>3091</ele>
<time>2016-10-21T13:07:29Z</time>
</trkpt>
<trkpt lat="36.84598922729492" lon="-118.5942611694336">
<ele>3088</ele>
<time>2016-10-21T13:07:41Z</time>
</trkpt>
<trkpt lat="36.84597396850586" lon="-118.59437561035156">
<ele>3090</ele>
<time>2016-10-21T13:07:54Z</time>
</trkpt>
<trkpt lat="36.8459358215332" lon="-118.59442138671875">
<ele>3089</ele>
<time>2016-10-21T13:08:03Z</time>
</trkpt>
<trkpt lat="36.84592056274414" lon="-118.594482421875">
<ele>3089</ele>
<time>2016-10-21T13:08:12Z</time>
</trkpt>
<trkpt lat="36.845863342285156" lon="-118.59458923339844">
<ele>3093</ele>
<time>2016-10-21T13:08:20Z</time>
</trkpt>
<trkpt lat="36.845855712890625" lon="-118.59471130371094">
<ele>3089</ele>
<time>2016-10-21T13:08:31Z</time>
</trkpt>
<trkpt lat="36.84590148925781" lon="-118.5948257446289">
<ele>3092</ele>
<time>2016-10-21T13:08:41Z</time>
</trkpt>
<trkpt lat="36.84588623046875" lon="-118.59495544433594">
<ele>3091</ele>
<time>2016-10-21T13:08:50Z</time>
</trkpt>
<trkpt lat="36.84588623046875" lon="-118.59501647949219">
<ele>3093</ele>
<time>2016-10-21T13:08:56Z</time>
</trkpt>
<trkpt lat="36.84587860107422" lon="-118.59508514404297">
<ele>3093</ele>
<time>2016-10-21T13:09:02Z</time>
</trkpt>
<trkpt lat="36.84589385986328" lon="-118.59519958496094">
<ele>3098</ele>
<time>2016-10-21T13:09:12Z</time>
</trkpt>
<trkpt lat="36.84585189819336" lon="-118.59532165527344">
<ele>3104</ele>
<time>2016-10-21T13:09:26Z</time>
</trkpt>
<trkpt lat="36.845802307128906" lon="-118.59540557861328">
<ele>3107</ele>
<time>2016-10-21T13:09:37Z</time>
</trkpt>
<trkpt lat="36.845802307128906" lon="-118.59549713134766">
<ele>3111</ele>
<time>2016-10-21T13:09:44Z</time>
</trkpt>
<trkpt lat="36.84585189819336" lon="-118.59551239013672">
<ele>3116</ele>
<time>2016-10-21T13:09:51Z</time>
</trkpt>
<trkpt lat="36.84589767456055" lon="-118.59554290771484">
<ele>3115</ele>
<time>2016-10-21T13:09:57Z</time>
</trkpt>
<trkpt lat="36.84598159790039" lon="-118.59561157226563">
<ele>3116</ele>
<time>2016-10-21T13:10:09Z</time>
</trkpt>
<trkpt lat="36.84597396850586" lon="-118.59567260742188">
<ele>3111</ele>
<time>2016-10-21T13:10:18Z</time>
</trkpt>
<trkpt lat="36.84602355957031" lon="-118.59577178955078">
<ele>3117</ele>
<time>2016-10-21T13:10:29Z</time>
</trkpt>
<trkpt lat="36.846073150634766" lon="-118.59587097167969">
<ele>3116</ele>
<time>2016-10-21T13:10:39Z</time>
</trkpt>
<trkpt lat="36.84611892700195" lon="-118.59590148925781">
<ele>3118</ele>
<time>2016-10-21T13:10:51Z</time>
</trkpt>
<trkpt lat="36.84621810913086" lon="-118.59590148925781">
<ele>3117</ele>
<time>2016-10-21T13:11:02Z</time>
</trkpt>
<trkpt lat="36.84626388549805" lon="-118.59590148925781">
<ele>3121</ele>
<time>2016-10-21T13:11:10Z</time>
</trkpt>
<trkpt lat="36.8463134765625" lon="-118.59590148925781">
<ele>3122</ele>
<time>2016-10-21T13:11:16Z</time>
</trkpt>
<trkpt lat="36.846412658691406" lon="-118.59590148925781">
<ele>3126</ele>
<time>2016-10-21T13:11:27Z</time>
</trkpt>
<trkpt lat="36.84651184082031" lon="-118.59588623046875">
<ele>3123</ele>
<time>2016-10-21T13:11:38Z</time>
</trkpt>
<trkpt lat="36.8465690612793" lon="-118.59583282470703">
<ele>3122</ele>
<time>2016-10-21T13:11:44Z</time>
</trkpt>
<trkpt lat="36.84660339355469" lon="-118.59578704833984">
<ele>3122</ele>
<time>2016-10-21T13:11:51Z</time>
</trkpt>
<trkpt lat="36.84666061401367" lon="-118.59579467773438">
<ele>3127</ele>
<time>2016-10-21T13:11:59Z</time>
</trkpt>
<trkpt lat="36.846641540527344" lon="-118.5958480834961">
<ele>3108</ele>
<time>2016-10-21T13:15:39Z</time>
</trkpt>
<trkpt lat="36.846649169921875" lon="-118.59575653076172">
<ele>3130</ele>
<time>2016-10-21T13:23:32Z</time>
</trkpt>
<trkpt lat="36.84664535522461" lon="-118.5958251953125">
<ele>3120</ele>
<time>2016-10-21T13:23:39Z</time>
</trkpt>
<trkpt lat="36.8466911315918" lon="-118.5958480834961">
<ele>3139</ele>
<time>2016-10-21T13:24:28Z</time>
</trkpt>
<trkpt lat="36.846649169921875" lon="-118.5958251953125">
<ele>3132</ele>
<time>2016-10-21T13:25:10Z</time>
</trkpt>
<trkpt lat="36.84665298461914" lon="-118.59576416015625">
<ele>3131</ele>
<time>2016-10-21T13:25:29Z</time>
</trkpt>
<trkpt lat="36.84674072265625" lon="-118.59576416015625">
<ele>3133</ele>
<time>2016-10-21T13:25:36Z</time>
</trkpt>
<trkpt lat="36.8468132019043" lon="-118.59581756591797">
<ele>3132</ele>
<time>2016-10-21T13:25:42Z</time>
</trkpt>
<trkpt lat="36.846927642822266" lon="-118.59580993652344">
<ele>3121</ele>
<time>2016-10-21T13:25:48Z</time>
</trkpt>
<trkpt lat="36.8470344543457" lon="-118.59584045410156">
<ele>3129</ele>
<time>2016-10-21T13:25:57Z</time>
</trkpt>
<trkpt lat="36.84710693359375" lon="-118.59590148925781">
<ele>3138</ele>
<time>2016-10-21T13:26:06Z</time>
</trkpt>
<trkpt lat="36.84720993041992" lon="-118.59589385986328">
<ele>3141</ele>
<time>2016-10-21T13:26:14Z</time>
</trkpt>
<trkpt lat="36.84730529785156" lon="-118.59593200683594">
<ele>3141</ele>
<time>2016-10-21T13:26:22Z</time>
</trkpt>
<trkpt lat="36.847354888916016" lon="-118.59593200683594">
<ele>3140</ele>
<time>2016-10-21T13:26:30Z</time>
</trkpt>
<trkpt lat="36.847469329833984" lon="-118.5959243774414">
<ele>3136</ele>
<time>2016-10-21T13:26:36Z</time>
</trkpt>
<trkpt lat="36.84756088256836" lon="-118.59593200683594">
<ele>3138</ele>
<time>2016-10-21T13:26:42Z</time>
</trkpt>
<trkpt lat="36.84764862060547" lon="-118.59600067138672">
<ele>3140</ele>
<time>2016-10-21T13:26:51Z</time>
</trkpt>
<trkpt lat="36.84770202636719" lon="-118.59602355957031">
<ele>3137</ele>
<time>2016-10-21T13:26:57Z</time>
</trkpt>
<trkpt lat="36.847774505615234" lon="-118.59613800048828">
<ele>3136</ele>
<time>2016-10-21T13:27:06Z</time>
</trkpt>
<trkpt lat="36.84784698486328" lon="-118.59622955322266">
<ele>3137</ele>
<time>2016-10-21T13:27:12Z</time>
</trkpt>
<trkpt lat="36.84785842895508" lon="-118.59628295898438">
<ele>3134</ele>
<time>2016-10-21T13:27:19Z</time>
</trkpt>
<trkpt lat="36.84788131713867" lon="-118.5963363647461">
<ele>3132</ele>
<time>2016-10-21T13:27:30Z</time>
</trkpt>
<trkpt lat="36.847869873046875" lon="-118.59640502929688">
<ele>3133</ele>
<time>2016-10-21T13:27:36Z</time>
</trkpt>
<trkpt lat="36.847900390625" lon="-118.59648895263672">
<ele>3133</ele>
<time>2016-10-21T13:27:44Z</time>
</trkpt>
<trkpt lat="36.84798049926758" lon="-118.5965576171875">
<ele>3137</ele>
<time>2016-10-21T13:27:52Z</time>
</trkpt>
<trkpt lat="36.84804153442383" lon="-118.59664916992188">
<ele>3138</ele>
<time>2016-10-21T13:28:00Z</time>
</trkpt>
<trkpt lat="36.848045349121094" lon="-118.59677124023438">
<ele>3136</ele>
<time>2016-10-21T13:28:13Z</time>
</trkpt>
<trkpt lat="36.84801483154297" lon="-118.59688568115234">
<ele>3140</ele>
<time>2016-10-21T13:28:19Z</time>
</trkpt>
<trkpt lat="36.84800338745117" lon="-118.59700775146484">
<ele>3138</ele>
<time>2016-10-21T13:28:26Z</time>
</trkpt>
<trkpt lat="36.84794998168945" lon="-118.59709167480469">
<ele>3130</ele>
<time>2016-10-21T13:28:35Z</time>
</trkpt>
<trkpt lat="36.847896575927734" lon="-118.5971450805664">
<ele>3126</ele>
<time>2016-10-21T13:28:43Z</time>
</trkpt>
<trkpt lat="36.847896575927734" lon="-118.59724426269531">
<ele>3128</ele>
<time>2016-10-21T13:28:54Z</time>
</trkpt>
<trkpt lat="36.84798812866211" lon="-118.59732055664063">
<ele>3131</ele>
<time>2016-10-21T13:29:00Z</time>
</trkpt>
<trkpt lat="36.84803009033203" lon="-118.59729766845703">
<ele>3121</ele>
<time>2016-10-21T13:29:08Z</time>
</trkpt>
<trkpt lat="36.848121643066406" lon="-118.59727478027344">
<ele>3119</ele>
<time>2016-10-21T13:29:19Z</time>
</trkpt>
<trkpt lat="36.84822082519531" lon="-118.59724426269531">
<ele>3125</ele>
<time>2016-10-21T13:29:26Z</time>
</trkpt>
<trkpt lat="36.84831237792969" lon="-118.59722900390625">
<ele>3130</ele>
<time>2016-10-21T13:29:32Z</time>
</trkpt>
<trkpt lat="36.848392486572266" lon="-118.59724426269531">
<ele>3122</ele>
<time>2016-10-21T13:29:47Z</time>
</trkpt>
<trkpt lat="36.8484992980957" lon="-118.59725189208984">
<ele>3122</ele>
<time>2016-10-21T13:29:56Z</time>
</trkpt>
<trkpt lat="36.848594665527344" lon="-118.59725952148438">
<ele>3122</ele>
<time>2016-10-21T13:30:04Z</time>
</trkpt>
<trkpt lat="36.8486442565918" lon="-118.5972671508789">
<ele>3125</ele>
<time>2016-10-21T13:30:11Z</time>
</trkpt>
<trkpt lat="36.848697662353516" lon="-118.59725952148438">
<ele>3120</ele>
<time>2016-10-21T13:30:17Z</time>
</trkpt>
<trkpt lat="36.84880447387695" lon="-118.59728240966797">
<ele>3119</ele>
<time>2016-10-21T13:30:27Z</time>
</trkpt>
<trkpt lat="36.848819732666016" lon="-118.59737396240234">
<ele>3109</ele>
<time>2016-10-21T13:30:38Z</time>
</trkpt>
<trkpt lat="36.84877014160156" lon="-118.59748077392578">
<ele>3114</ele>
<time>2016-10-21T13:30:47Z</time>
</trkpt>
<trkpt lat="36.84872817993164" lon="-118.5975112915039">
<ele>3117</ele>
<time>2016-10-21T13:30:54Z</time>
</trkpt>
<trkpt lat="36.84864807128906" lon="-118.59758758544922">
<ele>3113</ele>
<time>2016-10-21T13:31:01Z</time>
</trkpt>
<trkpt lat="36.84854507446289" lon="-118.59757995605469">
<ele>3113</ele>
<time>2016-10-21T13:31:08Z</time>
</trkpt>
<trkpt lat="36.848445892333984" lon="-118.59761810302734">
<ele>3113</ele>
<time>2016-10-21T13:31:16Z</time>
</trkpt>
<trkpt lat="36.84840774536133" lon="-118.59764862060547">
<ele>3113</ele>
<time>2016-10-21T13:31:22Z</time>
</trkpt>
<trkpt lat="36.8485221862793" lon="-118.59762573242188">
<ele>3104</ele>
<time>2016-10-21T13:31:30Z</time>
</trkpt>
<trkpt lat="36.848602294921875" lon="-118.59766387939453">
<ele>3104</ele>
<time>2016-10-21T13:31:39Z</time>
</trkpt>
<trkpt lat="36.84870147705078" lon="-118.5976333618164">
<ele>3097</ele>
<time>2016-10-21T13:31:47Z</time>
</trkpt>
<trkpt lat="36.848793029785156" lon="-118.59767150878906">
<ele>3102</ele>
<time>2016-10-21T13:31:56Z</time>
</trkpt>
<trkpt lat="36.84884262084961" lon="-118.59774780273438">
<ele>3102</ele>
<time>2016-10-21T13:32:06Z</time>
</trkpt>
<trkpt lat="36.84877014160156" lon="-118.59783935546875">
<ele>3101</ele>
<time>2016-10-21T13:32:16Z</time>
</trkpt>
<trkpt lat="36.84873580932617" lon="-118.59788513183594">
<ele>3102</ele>
<time>2016-10-21T13:32:28Z</time>
</trkpt>
<trkpt lat="36.84868240356445" lon="-118.59798431396484">
<ele>3100</ele>
<time>2016-10-21T13:32:39Z</time>
</trkpt>
<trkpt lat="36.84868240356445" lon="-118.59805297851563">
<ele>3099</ele>
<time>2016-10-21T13:32:45Z</time>
</trkpt>
<trkpt lat="36.8487548828125" lon="-118.59813690185547">
<ele>3100</ele>
<time>2016-10-21T13:32:54Z</time>
</trkpt>
<trkpt lat="36.848697662353516" lon="-118.59823608398438">
<ele>3101</ele>
<time>2016-10-21T13:33:03Z</time>
</trkpt>
<trkpt lat="36.84858322143555" lon="-118.5982437133789">
<ele>3091</ele>
<time>2016-10-21T13:33:10Z</time>
</trkpt>
<trkpt lat="36.8484992980957" lon="-118.59827423095703">
<ele>3090</ele>
<time>2016-10-21T13:33:23Z</time>
</trkpt>
<trkpt lat="36.848506927490234" lon="-118.59833526611328">
<ele>3089</ele>
<time>2016-10-21T13:33:33Z</time>
</trkpt>
<trkpt lat="36.848567962646484" lon="-118.59833526611328">
<ele>3085</ele>
<time>2016-10-21T13:33:39Z</time>
</trkpt>
<trkpt lat="36.848609924316406" lon="-118.59830474853516">
<ele>3085</ele>
<time>2016-10-21T13:33:45Z</time>
</trkpt>
<trkpt lat="36.848655700683594" lon="-118.59832763671875">
<ele>3083</ele>
<time>2016-10-21T13:33:52Z</time>
</trkpt>
<trkpt lat="36.848751068115234" lon="-118.59837341308594">
<ele>3083</ele>
<time>2016-10-21T13:34:00Z</time>
</trkpt>
<trkpt lat="36.84885787963867" lon="-118.59838104248047">
<ele>3082</ele>
<time>2016-10-21T13:34:09Z</time>
</trkpt>
<trkpt lat="36.848941802978516" lon="-118.59848022460938">
<ele>3076</ele>
<time>2016-10-21T13:34:19Z</time>
</trkpt>
<trkpt lat="36.848934173583984" lon="-118.59858703613281">
<ele>3076</ele>
<time>2016-10-21T13:34:27Z</time>
</trkpt>
<trkpt lat="36.84886169433594" lon="-118.59868621826172">
<ele>3078</ele>
<time>2016-10-21T13:34:34Z</time>
</trkpt>
<trkpt lat="36.848793029785156" lon="-118.59878540039063">
<ele>3078</ele>
<time>2016-10-21T13:34:44Z</time>
</trkpt>
<trkpt lat="36.848854064941406" lon="-118.59888458251953">
<ele>3075</ele>
<time>2016-10-21T13:34:53Z</time>
</trkpt>
<trkpt lat="36.84886169433594" lon="-118.59894561767578">
<ele>3073</ele>
<time>2016-10-21T13:35:00Z</time>
</trkpt>
<trkpt lat="36.848812103271484" lon="-118.59904479980469">
<ele>3073</ele>
<time>2016-10-21T13:35:11Z</time>
</trkpt>
<trkpt lat="36.84889602661133" lon="-118.5990982055664">
<ele>3071</ele>
<time>2016-10-21T13:35:18Z</time>
</trkpt>
<trkpt lat="36.84894561767578" lon="-118.59912109375">
<ele>3068</ele>
<time>2016-10-21T13:35:25Z</time>
</trkpt>
<trkpt lat="36.84903335571289" lon="-118.59907531738281">
<ele>3064</ele>
<time>2016-10-21T13:35:32Z</time>
</trkpt>
<trkpt lat="36.8491096496582" lon="-118.59903717041016">
<ele>3066</ele>
<time>2016-10-21T13:35:39Z</time>
</trkpt>
<trkpt lat="36.849220275878906" lon="-118.59896087646484">
<ele>3070</ele>
<time>2016-10-21T13:35:47Z</time>
</trkpt>
<trkpt lat="36.84926986694336" lon="-118.59901428222656">
<ele>3078</ele>
<time>2016-10-21T13:35:54Z</time>
</trkpt>
<trkpt lat="36.849327087402344" lon="-118.5989990234375">
<ele>3075</ele>
<time>2016-10-21T13:36:05Z</time>
</trkpt>
<trkpt lat="36.849365234375" lon="-118.5990219116211">
<ele>3073</ele>
<time>2016-10-21T13:36:11Z</time>
</trkpt>
<trkpt lat="36.84931182861328" lon="-118.59913635253906">
<ele>3074</ele>
<time>2016-10-21T13:36:19Z</time>
</trkpt>
<trkpt lat="36.84921646118164" lon="-118.59918212890625">
<ele>3075</ele>
<time>2016-10-21T13:36:26Z</time>
</trkpt>
<trkpt lat="36.849124908447266" lon="-118.59923553466797">
<ele>3063</ele>
<time>2016-10-21T13:36:34Z</time>
</trkpt>
<trkpt lat="36.849029541015625" lon="-118.59931182861328">
<ele>3058</ele>
<time>2016-10-21T13:36:43Z</time>
</trkpt>
<trkpt lat="36.848976135253906" lon="-118.59942626953125">
<ele>3062</ele>
<time>2016-10-21T13:36:51Z</time>
</trkpt>
<trkpt lat="36.84901809692383" lon="-118.59945678710938">
<ele>3060</ele>
<time>2016-10-21T13:37:03Z</time>
</trkpt>
<trkpt lat="36.849124908447266" lon="-118.59945678710938">
<ele>3058</ele>
<time>2016-10-21T13:37:11Z</time>
</trkpt>
<trkpt lat="36.84921646118164" lon="-118.59947204589844">
<ele>3063</ele>
<time>2016-10-21T13:37:17Z</time>
</trkpt>
<trkpt lat="36.84931182861328" lon="-118.5995101928711">
<ele>3059</ele>
<time>2016-10-21T13:37:23Z</time>
</trkpt>
<trkpt lat="36.849281311035156" lon="-118.59955596923828">
<ele>3053</ele>
<time>2016-10-21T13:37:29Z</time>
</trkpt>
<trkpt lat="36.84920883178711" lon="-118.59966278076172">
<ele>3056</ele>
<time>2016-10-21T13:37:38Z</time>
</trkpt>
<trkpt lat="36.84912872314453" lon="-118.59974670410156">
<ele>3062</ele>
<time>2016-10-21T13:37:48Z</time>
</trkpt>
<trkpt lat="36.84902572631836" lon="-118.5997314453125">
<ele>3057</ele>
<time>2016-10-21T13:37:55Z</time>
</trkpt>
<trkpt lat="36.84896469116211" lon="-118.59979248046875">
<ele>3051</ele>
<time>2016-10-21T13:38:13Z</time>
</trkpt>
<trkpt lat="36.84892654418945" lon="-118.59976196289063">
<ele>3049</ele>
<time>2016-10-21T13:38:38Z</time>
</trkpt>
<trkpt lat="36.84891128540039" lon="-118.5998764038086">
<ele>3044</ele>
<time>2016-10-21T13:38:49Z</time>
</trkpt>
<trkpt lat="36.848873138427734" lon="-118.59999084472656">
<ele>3041</ele>
<time>2016-10-21T13:38:56Z</time>
</trkpt>
<trkpt lat="36.84883499145508" lon="-118.60001373291016">
<ele>3042</ele>
<time>2016-10-21T13:39:02Z</time>
</trkpt>
<trkpt lat="36.84885787963867" lon="-118.60006713867188">
<ele>3051</ele>
<time>2016-10-21T13:39:11Z</time>
</trkpt>
<trkpt lat="36.84895324707031" lon="-118.60009002685547">
<ele>3045</ele>
<time>2016-10-21T13:39:20Z</time>
</trkpt>
<trkpt lat="36.848995208740234" lon="-118.6001205444336">
<ele>3042</ele>
<time>2016-10-21T13:39:26Z</time>
</trkpt>
<trkpt lat="36.84909439086914" lon="-118.60014343261719">
<ele>3040</ele>
<time>2016-10-21T13:39:35Z</time>
</trkpt>
<trkpt lat="36.849178314208984" lon="-118.60011291503906">
<ele>3040</ele>
<time>2016-10-21T13:39:43Z</time>
</trkpt>
<trkpt lat="36.84929275512695" lon="-118.60011291503906">
<ele>3041</ele>
<time>2016-10-21T13:39:50Z</time>
</trkpt>
<trkpt lat="36.84938430786133" lon="-118.60005950927734">
<ele>3040</ele>
<time>2016-10-21T13:40:00Z</time>
</trkpt>
<trkpt lat="36.8494873046875" lon="-118.5999984741211">
<ele>3048</ele>
<time>2016-10-21T13:40:10Z</time>
</trkpt>
<trkpt lat="36.84956359863281" lon="-118.59992980957031">
<ele>3045</ele>
<time>2016-10-21T13:40:18Z</time>
</trkpt>
<trkpt lat="36.84967041015625" lon="-118.5999755859375">
<ele>3043</ele>
<time>2016-10-21T13:40:27Z</time>
</trkpt>
<trkpt lat="36.849761962890625" lon="-118.60003662109375">
<ele>3042</ele>
<time>2016-10-21T13:40:34Z</time>
</trkpt>
<trkpt lat="36.849822998046875" lon="-118.60018920898438">
<ele>3045</ele>
<time>2016-10-21T13:40:42Z</time>
</trkpt>
<trkpt lat="36.84980773925781" lon="-118.60029602050781">
<ele>3052</ele>
<time>2016-10-21T13:40:48Z</time>
</trkpt>
<trkpt lat="36.84971237182617" lon="-118.600341796875">
<ele>3040</ele>
<time>2016-10-21T13:40:59Z</time>
</trkpt>
<trkpt lat="36.84976577758789" lon="-118.60025024414063">
<ele>3038</ele>
<time>2016-10-21T13:41:08Z</time>
</trkpt>
<trkpt lat="36.8498649597168" lon="-118.60027313232422">
<ele>3044</ele>
<time>2016-10-21T13:41:14Z</time>
</trkpt>
<trkpt lat="36.84996795654297" lon="-118.60028076171875">
<ele>3044</ele>
<time>2016-10-21T13:41:20Z</time>
</trkpt>
<trkpt lat="36.85006332397461" lon="-118.60028839111328">
<ele>3044</ele>
<time>2016-10-21T13:41:32Z</time>
</trkpt>
<trkpt lat="36.85012435913086" lon="-118.60025787353516">
<ele>3049</ele>
<time>2016-10-21T13:41:39Z</time>
</trkpt>
<trkpt lat="36.85017395019531" lon="-118.60022735595703">
<ele>3048</ele>
<time>2016-10-21T13:41:46Z</time>
</trkpt>
<trkpt lat="36.85027313232422" lon="-118.60020446777344">
<ele>3049</ele>
<time>2016-10-21T13:41:53Z</time>
</trkpt>
<trkpt lat="36.85035705566406" lon="-118.60025787353516">
<ele>3046</ele>
<time>2016-10-21T13:42:01Z</time>
</trkpt>
<trkpt lat="36.850399017333984" lon="-118.60028076171875">
<ele>3051</ele>
<time>2016-10-21T13:42:13Z</time>
</trkpt>
<trkpt lat="36.850440979003906" lon="-118.60031127929688">
<ele>3047</ele>
<time>2016-10-21T13:42:21Z</time>
</trkpt>
<trkpt lat="36.850528717041016" lon="-118.60025024414063">
<ele>3042</ele>
<time>2016-10-21T13:42:30Z</time>
</trkpt>
<trkpt lat="36.8505973815918" lon="-118.60020446777344">
<ele>3041</ele>
<time>2016-10-21T13:42:39Z</time>
</trkpt>
<trkpt lat="36.850643157958984" lon="-118.60017395019531">
<ele>3036</ele>
<time>2016-10-21T13:42:45Z</time>
</trkpt>
<trkpt lat="36.8506965637207" lon="-118.60015869140625">
<ele>3040</ele>
<time>2016-10-21T13:42:54Z</time>
</trkpt>
<trkpt lat="36.850791931152344" lon="-118.6001205444336">
<ele>3043</ele>
<time>2016-10-21T13:43:02Z</time>
</trkpt>
<trkpt lat="36.85088348388672" lon="-118.6000747680664">
<ele>3042</ele>
<time>2016-10-21T13:43:14Z</time>
</trkpt>
<trkpt lat="36.850982666015625" lon="-118.60002899169922">
<ele>3045</ele>
<time>2016-10-21T13:43:22Z</time>
</trkpt>
<trkpt lat="36.85109329223633" lon="-118.60002899169922">
<ele>3046</ele>
<time>2016-10-21T13:43:29Z</time>
</trkpt>
<trkpt lat="36.851192474365234" lon="-118.60002899169922">
<ele>3043</ele>
<time>2016-10-21T13:43:38Z</time>
</trkpt>
<trkpt lat="36.85125732421875" lon="-118.60001373291016">
<ele>3038</ele>
<time>2016-10-21T13:43:44Z</time>
</trkpt>
<trkpt lat="36.85128402709961" lon="-118.60009002685547">
<ele>3044</ele>
<time>2016-10-21T13:44:00Z</time>
</trkpt>
<trkpt lat="36.851295471191406" lon="-118.6001968383789">
<ele>3044</ele>
<time>2016-10-21T13:44:07Z</time>
</trkpt>
<trkpt lat="36.8513069152832" lon="-118.60025787353516">
<ele>3042</ele>
<time>2016-10-21T13:44:13Z</time>
</trkpt>
<trkpt lat="36.85139465332031" lon="-118.60032653808594">
<ele>3042</ele>
<time>2016-10-21T13:44:21Z</time>
</trkpt>
<trkpt lat="36.85147476196289" lon="-118.60039520263672">
<ele>3043</ele>
<time>2016-10-21T13:44:29Z</time>
</trkpt>
<trkpt lat="36.851524353027344" lon="-118.60051727294922">
<ele>3046</ele>
<time>2016-10-21T13:44:38Z</time>
</trkpt>
<trkpt lat="36.85153579711914" lon="-118.60059356689453">
<ele>3046</ele>
<time>2016-10-21T13:44:45Z</time>
</trkpt>
<trkpt lat="36.85146713256836" lon="-118.60067749023438">
<ele>3040</ele>
<time>2016-10-21T13:44:53Z</time>
</trkpt>
<trkpt lat="36.851444244384766" lon="-118.60072326660156">
<ele>3038</ele>
<time>2016-10-21T13:45:00Z</time>
</trkpt>
<trkpt lat="36.85146713256836" lon="-118.60083770751953">
<ele>3034</ele>
<time>2016-10-21T13:45:19Z</time>
</trkpt>
<trkpt lat="36.851531982421875" lon="-118.6009521484375">
<ele>3032</ele>
<time>2016-10-21T13:45:28Z</time>
</trkpt>
<trkpt lat="36.85157012939453" lon="-118.60105895996094">
<ele>3027</ele>
<time>2016-10-21T13:45:34Z</time>
</trkpt>
<trkpt lat="36.851646423339844" lon="-118.60104370117188">
<ele>3026</ele>
<time>2016-10-21T13:45:45Z</time>
</trkpt>
<trkpt lat="36.85174560546875" lon="-118.60105895996094">
<ele>3022</ele>
<time>2016-10-21T13:45:52Z</time>
</trkpt>
<trkpt lat="36.85185241699219" lon="-118.60106658935547">
<ele>3029</ele>
<time>2016-10-21T13:45:59Z</time>
</trkpt>
<trkpt lat="36.851959228515625" lon="-118.60103607177734">
<ele>3024</ele>
<time>2016-10-21T13:46:06Z</time>
</trkpt>
<trkpt lat="36.85205841064453" lon="-118.60101318359375">
<ele>3025</ele>
<time>2016-10-21T13:46:18Z</time>
</trkpt>
<trkpt lat="36.85215377807617" lon="-118.6009521484375">
<ele>3033</ele>
<time>2016-10-21T13:46:28Z</time>
</trkpt>
<trkpt lat="36.852203369140625" lon="-118.60094451904297">
<ele>3034</ele>
<time>2016-10-21T13:46:35Z</time>
</trkpt>
<trkpt lat="36.85224151611328" lon="-118.6010513305664">
<ele>3035</ele>
<time>2016-10-21T13:46:43Z</time>
</trkpt>
<trkpt lat="36.852237701416016" lon="-118.60111236572266">
<ele>3032</ele>
<time>2016-10-21T13:46:49Z</time>
</trkpt>
<trkpt lat="36.852230072021484" lon="-118.60118103027344">
<ele>3036</ele>
<time>2016-10-21T13:46:55Z</time>
</trkpt>
<trkpt lat="36.85232162475586" lon="-118.60121154785156">
<ele>3043</ele>
<time>2016-10-21T13:47:05Z</time>
</trkpt>
<trkpt lat="36.85235595703125" lon="-118.6011734008789">
<ele>3045</ele>
<time>2016-10-21T13:47:11Z</time>
</trkpt>
<trkpt lat="36.852455139160156" lon="-118.6011962890625">
<ele>3043</ele>
<time>2016-10-21T13:47:19Z</time>
</trkpt>
<trkpt lat="36.85254669189453" lon="-118.60123443603516">
<ele>3039</ele>
<time>2016-10-21T13:47:29Z</time>
</trkpt>
<trkpt lat="36.8526496887207" lon="-118.60124969482422">
<ele>3040</ele>
<time>2016-10-21T13:47:38Z</time>
</trkpt>
<trkpt lat="36.85275650024414" lon="-118.60131072998047">
<ele>3042</ele>
<time>2016-10-21T13:47:48Z</time>
</trkpt>
<trkpt lat="36.852867126464844" lon="-118.60134887695313">
<ele>3034</ele>
<time>2016-10-21T13:47:57Z</time>
</trkpt>
<trkpt lat="36.852970123291016" lon="-118.60140991210938">
<ele>3030</ele>
<time>2016-10-21T13:48:03Z</time>
</trkpt>
<trkpt lat="36.8530387878418" lon="-118.60147857666016">
<ele>3025</ele>
<time>2016-10-21T13:48:11Z</time>
</trkpt>
<trkpt lat="36.85306930541992" lon="-118.6015396118164">
<ele>3025</ele>
<time>2016-10-21T13:48:18Z</time>
</trkpt>
<trkpt lat="36.85310745239258" lon="-118.60165405273438">
<ele>3028</ele>
<time>2016-10-21T13:48:28Z</time>
</trkpt>
<trkpt lat="36.853153228759766" lon="-118.60176849365234">
<ele>3029</ele>
<time>2016-10-21T13:48:38Z</time>
</trkpt>
<trkpt lat="36.853214263916016" lon="-118.6017837524414">
<ele>3030</ele>
<time>2016-10-21T13:48:44Z</time>
</trkpt>
<trkpt lat="36.85326385498047" lon="-118.60177612304688">
<ele>3024</ele>
<time>2016-10-21T13:48:50Z</time>
</trkpt>
<trkpt lat="36.85334014892578" lon="-118.60174560546875">
<ele>3019</ele>
<time>2016-10-21T13:49:00Z</time>
</trkpt>
<trkpt lat="36.853416442871094" lon="-118.60174560546875">
<ele>3018</ele>
<time>2016-10-21T13:49:09Z</time>
</trkpt>
<trkpt lat="36.853477478027344" lon="-118.60182189941406">
<ele>3020</ele>
<time>2016-10-21T13:49:19Z</time>
</trkpt>
<trkpt lat="36.8535270690918" lon="-118.60183715820313">
<ele>3029</ele>
<time>2016-10-21T13:49:25Z</time>
</trkpt>
<trkpt lat="36.85356140136719" lon="-118.60179138183594">
<ele>3032</ele>
<time>2016-10-21T13:49:34Z</time>
</trkpt>
<trkpt lat="36.853607177734375" lon="-118.60183715820313">
<ele>3034</ele>
<time>2016-10-21T13:49:44Z</time>
</trkpt>
<trkpt lat="36.8536376953125" lon="-118.60188293457031">
<ele>3027</ele>
<time>2016-10-21T13:50:16Z</time>
</trkpt>
<trkpt lat="36.853675842285156" lon="-118.6019287109375">
<ele>3032</ele>
<time>2016-10-21T13:50:22Z</time>
</trkpt>
<trkpt lat="36.85376739501953" lon="-118.6019515991211">
<ele>3033</ele>
<time>2016-10-21T13:50:32Z</time>
</trkpt>
<trkpt lat="36.85383605957031" lon="-118.6019287109375">
<ele>3029</ele>
<time>2016-10-21T13:50:39Z</time>
</trkpt>
<trkpt lat="36.853858947753906" lon="-118.60198211669922">
<ele>3030</ele>
<time>2016-10-21T13:50:46Z</time>
</trkpt>
<trkpt lat="36.85394287109375" lon="-118.60205841064453">
<ele>3030</ele>
<time>2016-10-21T13:50:53Z</time>
</trkpt>
<trkpt lat="36.85398483276367" lon="-118.6020736694336">
<ele>3035</ele>
<time>2016-10-21T13:51:00Z</time>
</trkpt>
<trkpt lat="36.85408020019531" lon="-118.60211181640625">
<ele>3036</ele>
<time>2016-10-21T13:51:10Z</time>
</trkpt>
<trkpt lat="36.8541145324707" lon="-118.60223388671875">
<ele>3033</ele>
<time>2016-10-21T13:51:20Z</time>
</trkpt>
<trkpt lat="36.854095458984375" lon="-118.60237121582031">
<ele>3027</ele>
<time>2016-10-21T13:51:28Z</time>
</trkpt>
<trkpt lat="36.854190826416016" lon="-118.6023941040039">
<ele>3033</ele>
<time>2016-10-21T13:51:37Z</time>
</trkpt>
<trkpt lat="36.85420608520508" lon="-118.60247039794922">
<ele>3031</ele>
<time>2016-10-21T13:51:43Z</time>
</trkpt>
<trkpt lat="36.85422134399414" lon="-118.60253143310547">
<ele>3023</ele>
<time>2016-10-21T13:51:49Z</time>
</trkpt>
<trkpt lat="36.85421371459961" lon="-118.60259246826172">
<ele>3023</ele>
<time>2016-10-21T13:51:55Z</time>
</trkpt>
<trkpt lat="36.85429000854492" lon="-118.60266876220703">
<ele>3021</ele>
<time>2016-10-21T13:52:05Z</time>
</trkpt>
<trkpt lat="36.854339599609375" lon="-118.60273742675781">
<ele>3022</ele>
<time>2016-10-21T13:52:16Z</time>
</trkpt>
<trkpt lat="36.85444259643555" lon="-118.6027603149414">
<ele>3024</ele>
<time>2016-10-21T13:52:28Z</time>
</trkpt>
<trkpt lat="36.85454177856445" lon="-118.602783203125">
<ele>3030</ele>
<time>2016-10-21T13:52:34Z</time>
</trkpt>
<trkpt lat="36.85466384887695" lon="-118.60284423828125">
<ele>3034</ele>
<time>2016-10-21T13:52:42Z</time>
</trkpt>
<trkpt lat="36.854759216308594" lon="-118.6029052734375">
<ele>3030</ele>
<time>2016-10-21T13:52:51Z</time>
</trkpt>
<trkpt lat="36.85476303100586" lon="-118.60303497314453">
<ele>3032</ele>
<time>2016-10-21T13:52:59Z</time>
</trkpt>
<trkpt lat="36.85484313964844" lon="-118.60310363769531">
<ele>3028</ele>
<time>2016-10-21T13:53:09Z</time>
</trkpt>
<trkpt lat="36.85493087768555" lon="-118.60315704345703">
<ele>3029</ele>
<time>2016-10-21T13:53:17Z</time>
</trkpt>
<trkpt lat="36.854984283447266" lon="-118.603271484375">
<ele>3032</ele>
<time>2016-10-21T13:53:27Z</time>
</trkpt>
<trkpt lat="36.855003356933594" lon="-118.60332489013672">
<ele>3017</ele>
<time>2016-10-21T13:53:37Z</time>
</trkpt>
<trkpt lat="36.85507583618164" lon="-118.60334014892578">
<ele>3008</ele>
<time>2016-10-21T13:53:43Z</time>
</trkpt>
<trkpt lat="36.85506057739258" lon="-118.60340118408203">
<ele>3011</ele>
<time>2016-10-21T13:53:50Z</time>
</trkpt>
<trkpt lat="36.855106353759766" lon="-118.60350036621094">
<ele>3012</ele>
<time>2016-10-21T13:54:01Z</time>
</trkpt>
<trkpt lat="36.85511779785156" lon="-118.60356140136719">
<ele>3012</ele>
<time>2016-10-21T13:54:07Z</time>
</trkpt>
<trkpt lat="36.85520553588867" lon="-118.60362243652344">
<ele>3010</ele>
<time>2016-10-21T13:54:19Z</time>
</trkpt>
<trkpt lat="36.855281829833984" lon="-118.60369873046875">
<ele>3014</ele>
<time>2016-10-21T13:54:29Z</time>
</trkpt>
<trkpt lat="36.8553466796875" lon="-118.60379791259766">
<ele>3017</ele>
<time>2016-10-21T13:54:38Z</time>
</trkpt>
<trkpt lat="36.85535430908203" lon="-118.6038818359375">
<ele>3015</ele>
<time>2016-10-21T13:54:44Z</time>
</trkpt>
<trkpt lat="36.85542297363281" lon="-118.60397338867188">
<ele>3011</ele>
<time>2016-10-21T13:54:54Z</time>
</trkpt>
<trkpt lat="36.85546875" lon="-118.60408782958984">
<ele>3011</ele>
<time>2016-10-21T13:55:03Z</time>
</trkpt>
<trkpt lat="36.85552215576172" lon="-118.60411834716797">
<ele>3004</ele>
<time>2016-10-21T13:55:10Z</time>
</trkpt>
<trkpt lat="36.85562515258789" lon="-118.6041488647461">
<ele>3000</ele>
<time>2016-10-21T13:55:16Z</time>
</trkpt>
<trkpt lat="36.855716705322266" lon="-118.60415649414063">
<ele>2997</ele>
<time>2016-10-21T13:55:26Z</time>
</trkpt>
<trkpt lat="36.85576248168945" lon="-118.60418701171875">
<ele>2999</ele>
<time>2016-10-21T13:55:33Z</time>
</trkpt>
<trkpt lat="36.85584259033203" lon="-118.60424041748047">
<ele>3001</ele>
<time>2016-10-21T13:55:39Z</time>
</trkpt>
<trkpt lat="36.855934143066406" lon="-118.60430145263672">
<ele>3000</ele>
<time>2016-10-21T13:55:46Z</time>
</trkpt>
<trkpt lat="36.85601806640625" lon="-118.60438537597656">
<ele>3005</ele>
<time>2016-10-21T13:55:54Z</time>
</trkpt>
<trkpt lat="36.856117248535156" lon="-118.60442352294922">
<ele>3006</ele>
<time>2016-10-21T13:56:03Z</time>
</trkpt>
<trkpt lat="36.85619354248047" lon="-118.60449981689453">
<ele>3010</ele>
<time>2016-10-21T13:56:12Z</time>
</trkpt>
<trkpt lat="36.856300354003906" lon="-118.60449981689453">
<ele>3008</ele>
<time>2016-10-21T13:56:20Z</time>
</trkpt>
<trkpt lat="36.85634994506836" lon="-118.6045150756836">
<ele>3012</ele>
<time>2016-10-21T13:56:26Z</time>
</trkpt>
<trkpt lat="36.85646057128906" lon="-118.60453796386719">
<ele>3014</ele>
<time>2016-10-21T13:56:34Z</time>
</trkpt>
<trkpt lat="36.856529235839844" lon="-118.6046142578125">
<ele>3012</ele>
<time>2016-10-21T13:56:43Z</time>
</trkpt>
<trkpt lat="36.85660934448242" lon="-118.60468292236328">
<ele>3010</ele>
<time>2016-10-21T13:56:52Z</time>
</trkpt>
<trkpt lat="36.8567008972168" lon="-118.60469818115234">
<ele>3009</ele>
<time>2016-10-21T13:56:58Z</time>
</trkpt>
<trkpt lat="36.85679626464844" lon="-118.6047592163086">
<ele>3009</ele>
<time>2016-10-21T13:57:06Z</time>
</trkpt>
<trkpt lat="36.856876373291016" lon="-118.60482025146484">
<ele>3008</ele>
<time>2016-10-21T13:57:16Z</time>
</trkpt>
<trkpt lat="36.85698318481445" lon="-118.60485076904297">
<ele>3005</ele>
<time>2016-10-21T13:57:23Z</time>
</trkpt>
<trkpt lat="36.85707473754883" lon="-118.60491943359375">
<ele>3006</ele>
<time>2016-10-21T13:57:30Z</time>
</trkpt>
<trkpt lat="36.8571662902832" lon="-118.60494995117188">
<ele>3008</ele>
<time>2016-10-21T13:57:37Z</time>
</trkpt>
<trkpt lat="36.85728073120117" lon="-118.60494995117188">
<ele>3012</ele>
<time>2016-10-21T13:57:45Z</time>
</trkpt>
<trkpt lat="36.85737991333008" lon="-118.60497283935547">
<ele>3017</ele>
<time>2016-10-21T13:57:54Z</time>
</trkpt>
<trkpt lat="36.857486724853516" lon="-118.60498809814453">
<ele>3017</ele>
<time>2016-10-21T13:58:04Z</time>
</trkpt>
<trkpt lat="36.857582092285156" lon="-118.60498046875">
<ele>3016</ele>
<time>2016-10-21T13:58:14Z</time>
</trkpt>
<trkpt lat="36.857608795166016" lon="-118.60502624511719">
<ele>3018</ele>
<time>2016-10-21T13:58:20Z</time>
</trkpt>
<trkpt lat="36.85768508911133" lon="-118.60509490966797">
<ele>3015</ele>
<time>2016-10-21T13:58:29Z</time>
</trkpt>
<trkpt lat="36.85775375366211" lon="-118.6052017211914">
<ele>3017</ele>
<time>2016-10-21T13:58:36Z</time>
</trkpt>
<trkpt lat="36.8577995300293" lon="-118.60526275634766">
<ele>3016</ele>
<time>2016-10-21T13:58:46Z</time>
</trkpt>
<trkpt lat="36.85787582397461" lon="-118.6053237915039">
<ele>3016</ele>
<time>2016-10-21T13:58:54Z</time>
</trkpt>
<trkpt lat="36.85792922973633" lon="-118.60542297363281">
<ele>3017</ele>
<time>2016-10-21T13:59:00Z</time>
</trkpt>
<trkpt lat="36.85799789428711" lon="-118.60550689697266">
<ele>3015</ele>
<time>2016-10-21T13:59:08Z</time>
</trkpt>
<trkpt lat="36.858036041259766" lon="-118.60562896728516">
<ele>3017</ele>
<time>2016-10-21T13:59:17Z</time>
</trkpt>
<trkpt lat="36.858097076416016" lon="-118.60572052001953">
<ele>3017</ele>
<time>2016-10-21T13:59:26Z</time>
</trkpt>
<trkpt lat="36.858177185058594" lon="-118.60578155517578">
<ele>3013</ele>
<time>2016-10-21T13:59:36Z</time>
</trkpt>
<trkpt lat="36.85824966430664" lon="-118.60578155517578">
<ele>3010</ele>
<time>2016-10-21T13:59:44Z</time>
</trkpt>
<trkpt lat="36.85834884643555" lon="-118.6058120727539">
<ele>3011</ele>
<time>2016-10-21T13:59:53Z</time>
</trkpt>
<trkpt lat="36.85837936401367" lon="-118.60586547851563">
<ele>3012</ele>
<time>2016-10-21T14:00:01Z</time>
</trkpt>
<trkpt lat="36.858421325683594" lon="-118.60589599609375">
<ele>3011</ele>
<time>2016-10-21T14:00:09Z</time>
</trkpt>
<trkpt lat="36.858463287353516" lon="-118.60592651367188">
<ele>3013</ele>
<time>2016-10-21T14:00:15Z</time>
</trkpt>
<trkpt lat="36.85856628417969" lon="-118.60594177246094">
<ele>3011</ele>
<time>2016-10-21T14:00:26Z</time>
</trkpt>
<trkpt lat="36.8586311340332" lon="-118.60601043701172">
<ele>3011</ele>
<time>2016-10-21T14:00:36Z</time>
</trkpt>
<trkpt lat="36.858726501464844" lon="-118.60597229003906">
<ele>3014</ele>
<time>2016-10-21T14:00:43Z</time>
</trkpt>
<trkpt lat="36.858821868896484" lon="-118.60599517822266">
<ele>3020</ele>
<time>2016-10-21T14:00:53Z</time>
</trkpt>
<trkpt lat="36.85890197753906" lon="-118.60607147216797">
<ele>3018</ele>
<time>2016-10-21T14:01:02Z</time>
</trkpt>
<trkpt lat="36.85897445678711" lon="-118.60604095458984">
<ele>3016</ele>
<time>2016-10-21T14:01:16Z</time>
</trkpt>
<trkpt lat="36.85895538330078" lon="-118.60592651367188">
<ele>3016</ele>
<time>2016-10-21T14:01:26Z</time>
</trkpt>
<trkpt lat="36.85899353027344" lon="-118.60590362548828">
<ele>3015</ele>
<time>2016-10-21T14:01:32Z</time>
</trkpt>
<trkpt lat="36.85904312133789" lon="-118.6058349609375">
<ele>3016</ele>
<time>2016-10-21T14:01:39Z</time>
</trkpt>
<trkpt lat="36.859134674072266" lon="-118.60585021972656">
<ele>3016</ele>
<time>2016-10-21T14:01:47Z</time>
</trkpt>
<trkpt lat="36.85922622680664" lon="-118.60586547851563">
<ele>3016</ele>
<time>2016-10-21T14:01:57Z</time>
</trkpt>
<trkpt lat="36.859275817871094" lon="-118.60587310791016">
<ele>3020</ele>
<time>2016-10-21T14:02:04Z</time>
</trkpt>
<trkpt lat="36.8593635559082" lon="-118.60591888427734">
<ele>3026</ele>
<time>2016-10-21T14:02:12Z</time>
</trkpt>
<trkpt lat="36.85940933227539" lon="-118.60589599609375">
<ele>3023</ele>
<time>2016-10-21T14:02:20Z</time>
</trkpt>
<trkpt lat="36.85945129394531" lon="-118.6058578491211">
<ele>3023</ele>
<time>2016-10-21T14:02:26Z</time>
</trkpt>
<trkpt lat="36.85953140258789" lon="-118.60585021972656">
<ele>3029</ele>
<time>2016-10-21T14:02:39Z</time>
</trkpt>
<trkpt lat="36.859554290771484" lon="-118.60590362548828">
<ele>3030</ele>
<time>2016-10-21T14:02:49Z</time>
</trkpt>
<trkpt lat="36.859596252441406" lon="-118.60591888427734">
<ele>3027</ele>
<time>2016-10-21T14:02:55Z</time>
</trkpt>
<trkpt lat="36.85968780517578" lon="-118.60597229003906">
<ele>3026</ele>
<time>2016-10-21T14:03:06Z</time>
</trkpt>
<trkpt lat="36.85978317260742" lon="-118.60598754882813">
<ele>3026</ele>
<time>2016-10-21T14:03:16Z</time>
</trkpt>
<trkpt lat="36.85983657836914" lon="-118.6059799194336">
<ele>3026</ele>
<time>2016-10-21T14:03:22Z</time>
</trkpt>
<trkpt lat="36.859867095947266" lon="-118.6059341430664">
<ele>3031</ele>
<time>2016-10-21T14:03:28Z</time>
</trkpt>
<trkpt lat="36.85991668701172" lon="-118.60591888427734">
<ele>3027</ele>
<time>2016-10-21T14:03:37Z</time>
</trkpt>
<trkpt lat="36.85997009277344" lon="-118.60591888427734">
<ele>3032</ele>
<time>2016-10-21T14:03:49Z</time>
</trkpt>
<trkpt lat="36.86003875732422" lon="-118.60601806640625">
<ele>3029</ele>
<time>2016-10-21T14:04:11Z</time>
</trkpt>
<trkpt lat="36.86004638671875" lon="-118.6060791015625">
<ele>3022</ele>
<time>2016-10-21T14:04:33Z</time>
</trkpt>
<trkpt lat="36.860008239746094" lon="-118.60601806640625">
<ele>3023</ele>
<time>2016-10-21T14:06:28Z</time>
</trkpt>
<trkpt lat="36.86001205444336" lon="-118.6061019897461">
<ele>3019</ele>
<time>2016-10-21T14:06:37Z</time>
</trkpt>
<trkpt lat="36.860069274902344" lon="-118.60623931884766">
<ele>3022</ele>
<time>2016-10-21T14:06:47Z</time>
</trkpt>
<trkpt lat="36.86008071899414" lon="-118.6063003540039">
<ele>3021</ele>
<time>2016-10-21T14:06:55Z</time>
</trkpt>
<trkpt lat="36.860084533691406" lon="-118.6064224243164">
<ele>3022</ele>
<time>2016-10-21T14:07:02Z</time>
</trkpt>
<trkpt lat="36.86005783081055" lon="-118.60653686523438">
<ele>3024</ele>
<time>2016-10-21T14:07:11Z</time>
</trkpt>
<trkpt lat="36.859981536865234" lon="-118.60661315917969">
<ele>3025</ele>
<time>2016-10-21T14:07:20Z</time>
</trkpt>
<trkpt lat="36.859981536865234" lon="-118.60673522949219">
<ele>3030</ele>
<time>2016-10-21T14:07:29Z</time>
</trkpt>
<trkpt lat="36.85997772216797" lon="-118.60679626464844">
<ele>3030</ele>
<time>2016-10-21T14:07:36Z</time>
</trkpt>
<trkpt lat="36.86002731323242" lon="-118.60686492919922">
<ele>3033</ele>
<time>2016-10-21T14:07:43Z</time>
</trkpt>
<trkpt lat="36.860111236572266" lon="-118.60689544677734">
<ele>3021</ele>
<time>2016-10-21T14:07:55Z</time>
</trkpt>
<trkpt lat="36.86021041870117" lon="-118.6069107055664">
<ele>3020</ele>
<time>2016-10-21T14:08:05Z</time>
</trkpt>
<trkpt lat="36.86032485961914" lon="-118.60694885253906">
<ele>3020</ele>
<time>2016-10-21T14:08:11Z</time>
</trkpt>
<trkpt lat="36.86042022705078" lon="-118.60697174072266">
<ele>3021</ele>
<time>2016-10-21T14:08:20Z</time>
</trkpt>
<trkpt lat="36.86052322387695" lon="-118.60700225830078">
<ele>3019</ele>
<time>2016-10-21T14:08:31Z</time>
</trkpt>
<trkpt lat="36.86056137084961" lon="-118.6069564819336">
<ele>3024</ele>
<time>2016-10-21T14:08:38Z</time>
</trkpt>
<trkpt lat="36.860595703125" lon="-118.60690307617188">
<ele>3021</ele>
<time>2016-10-21T14:08:47Z</time>
</trkpt>
<trkpt lat="36.860694885253906" lon="-118.60687255859375">
<ele>3026</ele>
<time>2016-10-21T14:09:04Z</time>
</trkpt>
<trkpt lat="36.860782623291016" lon="-118.60692596435547">
<ele>3026</ele>
<time>2016-10-21T14:09:14Z</time>
</trkpt>
<trkpt lat="36.86080551147461" lon="-118.60697937011719">
<ele>3026</ele>
<time>2016-10-21T14:09:21Z</time>
</trkpt>
<trkpt lat="36.86084747314453" lon="-118.60700988769531">
<ele>3026</ele>
<time>2016-10-21T14:09:27Z</time>
</trkpt>
<trkpt lat="36.8609504699707" lon="-118.6070556640625">
<ele>3023</ele>
<time>2016-10-21T14:09:37Z</time>
</trkpt>
<trkpt lat="36.86098861694336" lon="-118.60713195800781">
<ele>3022</ele>
<time>2016-10-21T14:09:43Z</time>
</trkpt>
<trkpt lat="36.86104202270508" lon="-118.60723876953125">
<ele>3025</ele>
<time>2016-10-21T14:09:50Z</time>
</trkpt>
<trkpt lat="36.86111831665039" lon="-118.60731506347656">
<ele>3025</ele>
<time>2016-10-21T14:10:01Z</time>
</trkpt>
<trkpt lat="36.861167907714844" lon="-118.6073226928711">
<ele>3029</ele>
<time>2016-10-21T14:10:07Z</time>
</trkpt>
<trkpt lat="36.86127471923828" lon="-118.6072998046875">
<ele>3031</ele>
<time>2016-10-21T14:10:15Z</time>
</trkpt>
<trkpt lat="36.861366271972656" lon="-118.6072769165039">
<ele>3032</ele>
<time>2016-10-21T14:10:25Z</time>
</trkpt>
<trkpt lat="36.8614501953125" lon="-118.60733795166016">
<ele>3032</ele>
<time>2016-10-21T14:10:32Z</time>
</trkpt>
<trkpt lat="36.86152267456055" lon="-118.60736846923828">
<ele>3035</ele>
<time>2016-10-21T14:10:39Z</time>
</trkpt>
<trkpt lat="36.861568450927734" lon="-118.60746765136719">
<ele>3032</ele>
<time>2016-10-21T14:10:48Z</time>
</trkpt>
<trkpt lat="36.86162567138672" lon="-118.6075668334961">
<ele>3034</ele>
<time>2016-10-21T14:10:56Z</time>
</trkpt>
<trkpt lat="36.86172103881836" lon="-118.60755920410156">
<ele>3033</ele>
<time>2016-10-21T14:11:03Z</time>
</trkpt>
<trkpt lat="36.86177444458008" lon="-118.60753631591797">
<ele>3019</ele>
<time>2016-10-21T14:11:39Z</time>
</trkpt>
</trkseg>
</trk>
<trk>
<name><![CDATA[10210711]]></name>
<number>55</number>
<extensions><topografix:color>ff000066</topografix:color></extensions>
<trkseg>
<trkpt lat="36.86178207397461" lon="-118.60751342773438">
<ele>3022</ele>
<time>2016-10-21T14:11:58Z</time>
</trkpt>
<trkpt lat="36.861778259277344" lon="-118.60746002197266">
<ele>3029</ele>
<time>2016-10-21T14:12:20Z</time>
</trkpt>
<trkpt lat="36.86186218261719" lon="-118.60738372802734">
<ele>3030</ele>
<time>2016-10-21T14:12:30Z</time>
</trkpt>
<trkpt lat="36.86184310913086" lon="-118.60731506347656">
<ele>3031</ele>
<time>2016-10-21T14:12:37Z</time>
</trkpt>
<trkpt lat="36.86191940307617" lon="-118.60723876953125">
<ele>3033</ele>
<time>2016-10-21T14:12:44Z</time>
</trkpt>
<trkpt lat="36.86202621459961" lon="-118.60726165771484">
<ele>3029</ele>
<time>2016-10-21T14:12:51Z</time>
</trkpt>
<trkpt lat="36.86212158203125" lon="-118.60721588134766">
<ele>3030</ele>
<time>2016-10-21T14:13:01Z</time>
</trkpt>
<trkpt lat="36.862220764160156" lon="-118.60721588134766">
<ele>3030</ele>
<time>2016-10-21T14:13:09Z</time>
</trkpt>
<trkpt lat="36.8623161315918" lon="-118.60723114013672">
<ele>3029</ele>
<time>2016-10-21T14:13:17Z</time>
</trkpt>
<trkpt lat="36.86240768432617" lon="-118.60728454589844">
<ele>3027</ele>
<time>2016-10-21T14:13:27Z</time>
</trkpt>
<trkpt lat="36.86250305175781" lon="-118.60735321044922">
<ele>3027</ele>
<time>2016-10-21T14:13:38Z</time>
</trkpt>
<trkpt lat="36.86260223388672" lon="-118.6073989868164">
<ele>3032</ele>
<time>2016-10-21T14:13:45Z</time>
</trkpt>
<trkpt lat="36.86269760131836" lon="-118.60742950439453">
<ele>3032</ele>
<time>2016-10-21T14:13:59Z</time>
</trkpt>
<trkpt lat="36.86273956298828" lon="-118.60745239257813">
<ele>3031</ele>
<time>2016-10-21T14:14:06Z</time>
</trkpt>
<trkpt lat="36.86275863647461" lon="-118.60749816894531">
<ele>3027</ele>
<time>2016-10-21T14:14:14Z</time>
</trkpt>
<trkpt lat="36.862850189208984" lon="-118.60755920410156">
<ele>3024</ele>
<time>2016-10-21T14:14:25Z</time>
</trkpt>
<trkpt lat="36.862945556640625" lon="-118.60758209228516">
<ele>3030</ele>
<time>2016-10-21T14:14:33Z</time>
</trkpt>
<trkpt lat="36.86305236816406" lon="-118.60759735107422">
<ele>3030</ele>
<time>2016-10-21T14:14:39Z</time>
</trkpt>
<trkpt lat="36.86315155029297" lon="-118.60758972167969">
<ele>3028</ele>
<time>2016-10-21T14:14:48Z</time>
</trkpt>
<trkpt lat="36.863243103027344" lon="-118.60752868652344">
<ele>3030</ele>
<time>2016-10-21T14:14:55Z</time>
</trkpt>
<trkpt lat="36.863346099853516" lon="-118.6075210571289">
<ele>3035</ele>
<time>2016-10-21T14:15:08Z</time>
</trkpt>
<trkpt lat="36.8633918762207" lon="-118.6075439453125">
<ele>3035</ele>
<time>2016-10-21T14:15:14Z</time>
</trkpt>
<trkpt lat="36.86349105834961" lon="-118.60757446289063">
<ele>3028</ele>
<time>2016-10-21T14:15:23Z</time>
</trkpt>
<trkpt lat="36.86358642578125" lon="-118.60763549804688">
<ele>3037</ele>
<time>2016-10-21T14:15:33Z</time>
</trkpt>
<trkpt lat="36.863609313964844" lon="-118.6076889038086">
<ele>3025</ele>
<time>2016-10-21T14:15:40Z</time>
</trkpt>
<trkpt lat="36.8636360168457" lon="-118.60774993896484">
<ele>3027</ele>
<time>2016-10-21T14:15:46Z</time>
</trkpt>
<trkpt lat="36.863712310791016" lon="-118.60781860351563">
<ele>3029</ele>
<time>2016-10-21T14:15:53Z</time>
</trkpt>
<trkpt lat="36.86379623413086" lon="-118.6078872680664">
<ele>3030</ele>
<time>2016-10-21T14:16:01Z</time>
</trkpt>
<trkpt lat="36.86384201049805" lon="-118.60791778564453">
<ele>3032</ele>
<time>2016-10-21T14:16:08Z</time>
</trkpt>
<trkpt lat="36.8638801574707" lon="-118.60801696777344">
<ele>3031</ele>
<time>2016-10-21T14:16:17Z</time>
</trkpt>
<trkpt lat="36.863956451416016" lon="-118.60812377929688">
<ele>3029</ele>
<time>2016-10-21T14:16:23Z</time>
</trkpt>
<trkpt lat="36.86404800415039" lon="-118.60816955566406">
<ele>3031</ele>
<time>2016-10-21T14:16:33Z</time>
</trkpt>
<trkpt lat="36.864139556884766" lon="-118.60823822021484">
<ele>3029</ele>
<time>2016-10-21T14:16:41Z</time>
</trkpt>
<trkpt lat="36.86423110961914" lon="-118.60828399658203">
<ele>3031</ele>
<time>2016-10-21T14:16:48Z</time>
</trkpt>
<trkpt lat="36.86431884765625" lon="-118.60832214355469">
<ele>3034</ele>
<time>2016-10-21T14:16:58Z</time>
</trkpt>
<trkpt lat="36.86436462402344" lon="-118.60831451416016">
<ele>3032</ele>
<time>2016-10-21T14:17:06Z</time>
</trkpt>
<trkpt lat="36.86439514160156" lon="-118.60843658447266">
<ele>3026</ele>
<time>2016-10-21T14:17:14Z</time>
</trkpt>
<trkpt lat="36.864437103271484" lon="-118.60847473144531">
<ele>3024</ele>
<time>2016-10-21T14:17:21Z</time>
</trkpt>
<trkpt lat="36.86452102661133" lon="-118.60855102539063">
<ele>3028</ele>
<time>2016-10-21T14:17:30Z</time>
</trkpt>
<trkpt lat="36.86460876464844" lon="-118.60861206054688">
<ele>3027</ele>
<time>2016-10-21T14:17:38Z</time>
</trkpt>
<trkpt lat="36.86470413208008" lon="-118.608642578125">
<ele>3028</ele>
<time>2016-10-21T14:17:47Z</time>
</trkpt>
<trkpt lat="36.864803314208984" lon="-118.60868072509766">
<ele>3025</ele>
<time>2016-10-21T14:17:53Z</time>
</trkpt>
<trkpt lat="36.864925384521484" lon="-118.6087646484375">
<ele>3025</ele>
<time>2016-10-21T14:18:02Z</time>
</trkpt>
<trkpt lat="36.86500930786133" lon="-118.60884094238281">
<ele>3025</ele>
<time>2016-10-21T14:18:09Z</time>
</trkpt>
<trkpt lat="36.865089416503906" lon="-118.60890197753906">
<ele>3028</ele>
<time>2016-10-21T14:18:16Z</time>
</trkpt>
<trkpt lat="36.865177154541016" lon="-118.60897827148438">
<ele>3026</ele>
<time>2016-10-21T14:18:24Z</time>
</trkpt>
<trkpt lat="36.86521530151367" lon="-118.6090316772461">
<ele>3027</ele>
<time>2016-10-21T14:18:30Z</time>
</trkpt>
<trkpt lat="36.86528396606445" lon="-118.609130859375">
<ele>3023</ele>
<time>2016-10-21T14:18:40Z</time>
</trkpt>
<trkpt lat="36.86534118652344" lon="-118.6092300415039">
<ele>3023</ele>
<time>2016-10-21T14:18:47Z</time>
</trkpt>
<trkpt lat="36.86539840698242" lon="-118.6092300415039">
<ele>3028</ele>
<time>2016-10-21T14:18:53Z</time>
</trkpt>
<trkpt lat="36.86550521850586" lon="-118.60921478271484">
<ele>3020</ele>
<time>2016-10-21T14:19:04Z</time>
</trkpt>
<trkpt lat="36.86555099487305" lon="-118.60920715332031">
<ele>3022</ele>
<time>2016-10-21T14:19:11Z</time>
</trkpt>
<trkpt lat="36.865596771240234" lon="-118.60922241210938">
<ele>3022</ele>
<time>2016-10-21T14:19:17Z</time>
</trkpt>
<trkpt lat="36.86563491821289" lon="-118.60926818847656">
<ele>3026</ele>
<time>2016-10-21T14:19:24Z</time>
</trkpt>
<trkpt lat="36.865692138671875" lon="-118.60938262939453">
<ele>3026</ele>
<time>2016-10-21T14:19:31Z</time>
</trkpt>
<trkpt lat="36.86576461791992" lon="-118.60946655273438">
<ele>3032</ele>
<time>2016-10-21T14:19:41Z</time>
</trkpt>
<trkpt lat="36.865848541259766" lon="-118.60951232910156">
<ele>3034</ele>
<time>2016-10-21T14:19:47Z</time>
</trkpt>
<trkpt lat="36.86594009399414" lon="-118.60954284667969">
<ele>3035</ele>
<time>2016-10-21T14:19:56Z</time>
</trkpt>
<trkpt lat="36.865997314453125" lon="-118.60958862304688">
<ele>3034</ele>
<time>2016-10-21T14:20:05Z</time>
</trkpt>
<trkpt lat="36.86606216430664" lon="-118.60969543457031">
<ele>3032</ele>
<time>2016-10-21T14:20:12Z</time>
</trkpt>
<trkpt lat="36.86613845825195" lon="-118.60979461669922">
<ele>3032</ele>
<time>2016-10-21T14:20:19Z</time>
</trkpt>
<trkpt lat="36.8662223815918" lon="-118.60987854003906">
<ele>3030</ele>
<time>2016-10-21T14:20:27Z</time>
</trkpt>
<trkpt lat="36.866302490234375" lon="-118.60993957519531">
<ele>3027</ele>
<time>2016-10-21T14:20:36Z</time>
</trkpt>
<trkpt lat="36.866355895996094" lon="-118.61005401611328">
<ele>3034</ele>
<time>2016-10-21T14:20:46Z</time>
</trkpt>
<trkpt lat="36.866390228271484" lon="-118.61009979248047">
<ele>3038</ele>
<time>2016-10-21T14:20:53Z</time>
</trkpt>
<trkpt lat="36.866477966308594" lon="-118.610107421875">
<ele>3042</ele>
<time>2016-10-21T14:21:02Z</time>
</trkpt>
<trkpt lat="36.866580963134766" lon="-118.61007690429688">
<ele>3037</ele>
<time>2016-10-21T14:21:10Z</time>
</trkpt>
<trkpt lat="36.866676330566406" lon="-118.61006927490234">
<ele>3040</ele>
<time>2016-10-21T14:21:22Z</time>
</trkpt>
<trkpt lat="36.86671447753906" lon="-118.61002349853516">
<ele>3038</ele>
<time>2016-10-21T14:21:29Z</time>
</trkpt>
<trkpt lat="36.86680221557617" lon="-118.6099853515625">
<ele>3034</ele>
<time>2016-10-21T14:21:39Z</time>
</trkpt>
<trkpt lat="36.866905212402344" lon="-118.60997772216797">
<ele>3030</ele>
<time>2016-10-21T14:21:49Z</time>
</trkpt>
<trkpt lat="36.867008209228516" lon="-118.6099853515625">
<ele>3033</ele>
<time>2016-10-21T14:21:57Z</time>
</trkpt>
<trkpt lat="36.86708068847656" lon="-118.60997772216797">
<ele>3037</ele>
<time>2016-10-21T14:22:05Z</time>
</trkpt>
<trkpt lat="36.86713409423828" lon="-118.6099624633789">
<ele>3039</ele>
<time>2016-10-21T14:22:11Z</time>
</trkpt>
<trkpt lat="36.867225646972656" lon="-118.60994720458984">
<ele>3046</ele>
<time>2016-10-21T14:22:22Z</time>
</trkpt>
<trkpt lat="36.86726760864258" lon="-118.60992431640625">
<ele>3043</ele>
<time>2016-10-21T14:22:29Z</time>
</trkpt>
<trkpt lat="36.867366790771484" lon="-118.60997009277344">
<ele>3041</ele>
<time>2016-10-21T14:22:38Z</time>
</trkpt>
<trkpt lat="36.867462158203125" lon="-118.61001586914063">
<ele>3044</ele>
<time>2016-10-21T14:22:48Z</time>
</trkpt>
<trkpt lat="36.86753845214844" lon="-118.60993957519531">
<ele>3040</ele>
<time>2016-10-21T14:22:57Z</time>
</trkpt>
<trkpt lat="36.86758804321289" lon="-118.60990905761719">
<ele>3040</ele>
<time>2016-10-21T14:23:03Z</time>
</trkpt>
<trkpt lat="36.867637634277344" lon="-118.60992431640625">
<ele>3041</ele>
<time>2016-10-21T14:23:09Z</time>
</trkpt>
<trkpt lat="36.86773681640625" lon="-118.60999298095703">
<ele>3044</ele>
<time>2016-10-21T14:23:17Z</time>
</trkpt>
<trkpt lat="36.86779022216797" lon="-118.6100082397461">
<ele>3039</ele>
<time>2016-10-21T14:23:25Z</time>
</trkpt>
<trkpt lat="36.86788558959961" lon="-118.61003875732422">
<ele>3048</ele>
<time>2016-10-21T14:23:35Z</time>
</trkpt>
<trkpt lat="36.86798095703125" lon="-118.61006927490234">
<ele>3045</ele>
<time>2016-10-21T14:23:44Z</time>
</trkpt>
<trkpt lat="36.868064880371094" lon="-118.6101303100586">
<ele>3052</ele>
<time>2016-10-21T14:23:56Z</time>
</trkpt>
<trkpt lat="36.86811447143555" lon="-118.61006927490234">
<ele>3057</ele>
<time>2016-10-21T14:24:03Z</time>
</trkpt>
<trkpt lat="36.8681526184082" lon="-118.61003112792969">
<ele>3058</ele>
<time>2016-10-21T14:24:16Z</time>
</trkpt>
<trkpt lat="36.86819076538086" lon="-118.61000061035156">
<ele>3056</ele>
<time>2016-10-21T14:24:22Z</time>
</trkpt>
<trkpt lat="36.86823272705078" lon="-118.60997009277344">
<ele>3055</ele>
<time>2016-10-21T14:24:29Z</time>
</trkpt>
<trkpt lat="36.86827850341797" lon="-118.60995483398438">
<ele>3057</ele>
<time>2016-10-21T14:24:36Z</time>
</trkpt>
<trkpt lat="36.86837387084961" lon="-118.60991668701172">
<ele>3059</ele>
<time>2016-10-21T14:24:45Z</time>
</trkpt>
<trkpt lat="36.8684196472168" lon="-118.60992431640625">
<ele>3057</ele>
<time>2016-10-21T14:24:52Z</time>
</trkpt>
<trkpt lat="36.86846923828125" lon="-118.60994720458984">
<ele>3058</ele>
<time>2016-10-21T14:24:58Z</time>
</trkpt>
<trkpt lat="36.86856460571289" lon="-118.60990905761719">
<ele>3057</ele>
<time>2016-10-21T14:25:09Z</time>
</trkpt>
<trkpt lat="36.8686408996582" lon="-118.60997009277344">
<ele>3061</ele>
<time>2016-10-21T14:25:17Z</time>
</trkpt>
<trkpt lat="36.868690490722656" lon="-118.60997009277344">
<ele>3059</ele>
<time>2016-10-21T14:25:23Z</time>
</trkpt>
<trkpt lat="36.86873245239258" lon="-118.60991668701172">
<ele>3053</ele>
<time>2016-10-21T14:25:31Z</time>
</trkpt>
<trkpt lat="36.86882400512695" lon="-118.60992431640625">
<ele>3062</ele>
<time>2016-10-21T14:25:40Z</time>
</trkpt>
<trkpt lat="36.868873596191406" lon="-118.60990905761719">
<ele>3064</ele>
<time>2016-10-21T14:25:47Z</time>
</trkpt>
<trkpt lat="36.868919372558594" lon="-118.60989379882813">
<ele>3064</ele>
<time>2016-10-21T14:25:56Z</time>
</trkpt>
<trkpt lat="36.86899185180664" lon="-118.6098861694336">
<ele>3063</ele>
<time>2016-10-21T14:26:04Z</time>
</trkpt>
<trkpt lat="36.869110107421875" lon="-118.60987091064453">
<ele>3065</ele>
<time>2016-10-21T14:26:12Z</time>
</trkpt>
<trkpt lat="36.86919403076172" lon="-118.60981750488281">
<ele>3068</ele>
<time>2016-10-21T14:26:21Z</time>
</trkpt>
<trkpt lat="36.869293212890625" lon="-118.60977935791016">
<ele>3069</ele>
<time>2016-10-21T14:26:33Z</time>
</trkpt>
<trkpt lat="36.86934280395508" lon="-118.60977935791016">
<ele>3071</ele>
<time>2016-10-21T14:26:39Z</time>
</trkpt>
<trkpt lat="36.869449615478516" lon="-118.60979461669922">
<ele>3073</ele>
<time>2016-10-21T14:26:48Z</time>
</trkpt>
<trkpt lat="36.869537353515625" lon="-118.6097640991211">
<ele>3070</ele>
<time>2016-10-21T14:26:58Z</time>
</trkpt>
<trkpt lat="36.86961364746094" lon="-118.60985565185547">
<ele>3080</ele>
<time>2016-10-21T14:27:09Z</time>
</trkpt>
<trkpt lat="36.86970901489258" lon="-118.60987854003906">
<ele>3081</ele>
<time>2016-10-21T14:27:19Z</time>
</trkpt>
<trkpt lat="36.869754791259766" lon="-118.60987091064453">
<ele>3084</ele>
<time>2016-10-21T14:27:25Z</time>
</trkpt>
<trkpt lat="36.869842529296875" lon="-118.60982513427734">
<ele>3079</ele>
<time>2016-10-21T14:27:37Z</time>
</trkpt>
<trkpt lat="36.86994552612305" lon="-118.60982513427734">
<ele>3085</ele>
<time>2016-10-21T14:27:45Z</time>
</trkpt>
<trkpt lat="36.869991302490234" lon="-118.60983276367188">
<ele>3080</ele>
<time>2016-10-21T14:27:53Z</time>
</trkpt>
<trkpt lat="36.870113372802734" lon="-118.6098403930664">
<ele>3077</ele>
<time>2016-10-21T14:28:02Z</time>
</trkpt>
<trkpt lat="36.870216369628906" lon="-118.60983276367188">
<ele>3072</ele>
<time>2016-10-21T14:28:11Z</time>
</trkpt>
<trkpt lat="36.87031555175781" lon="-118.60982513427734">
<ele>3081</ele>
<time>2016-10-21T14:28:26Z</time>
</trkpt>
<trkpt lat="36.87040710449219" lon="-118.60981750488281">
<ele>3078</ele>
<time>2016-10-21T14:28:33Z</time>
</trkpt>
<trkpt lat="36.8704833984375" lon="-118.6097412109375">
<ele>3077</ele>
<time>2016-10-21T14:28:41Z</time>
</trkpt>
<trkpt lat="36.870540618896484" lon="-118.60974884033203">
<ele>3076</ele>
<time>2016-10-21T14:28:48Z</time>
</trkpt>
<trkpt lat="36.870643615722656" lon="-118.60977172851563">
<ele>3077</ele>
<time>2016-10-21T14:28:58Z</time>
</trkpt>
<trkpt lat="36.87076187133789" lon="-118.60978698730469">
<ele>3082</ele>
<time>2016-10-21T14:29:05Z</time>
</trkpt>
<trkpt lat="36.87085723876953" lon="-118.60984802246094">
<ele>3086</ele>
<time>2016-10-21T14:29:12Z</time>
</trkpt>
<trkpt lat="36.870826721191406" lon="-118.60990142822266">
<ele>3093</ele>
<time>2016-10-21T14:29:20Z</time>
</trkpt>
<trkpt lat="36.8708610534668" lon="-118.60994720458984">
<ele>3090</ele>
<time>2016-10-21T14:29:32Z</time>
</trkpt>
<trkpt lat="36.870933532714844" lon="-118.61003875732422">
<ele>3087</ele>
<time>2016-10-21T14:29:41Z</time>
</trkpt>
<trkpt lat="36.871009826660156" lon="-118.61012268066406">
<ele>3081</ele>
<time>2016-10-21T14:29:48Z</time>
</trkpt>
<trkpt lat="36.871055603027344" lon="-118.61016082763672">
<ele>3079</ele>
<time>2016-10-21T14:29:56Z</time>
</trkpt>
<trkpt lat="36.87112808227539" lon="-118.61021423339844">
<ele>3075</ele>
<time>2016-10-21T14:30:02Z</time>
</trkpt>
<trkpt lat="36.8712158203125" lon="-118.61029815673828">
<ele>3082</ele>
<time>2016-10-21T14:30:11Z</time>
</trkpt>
<trkpt lat="36.87129592895508" lon="-118.61038208007813">
<ele>3087</ele>
<time>2016-10-21T14:30:21Z</time>
</trkpt>
<trkpt lat="36.87135314941406" lon="-118.61048889160156">
<ele>3097</ele>
<time>2016-10-21T14:30:30Z</time>
</trkpt>
<trkpt lat="36.87136459350586" lon="-118.61061096191406">
<ele>3095</ele>
<time>2016-10-21T14:30:43Z</time>
</trkpt>
<trkpt lat="36.87144088745117" lon="-118.61070251464844">
<ele>3093</ele>
<time>2016-10-21T14:30:55Z</time>
</trkpt>
<trkpt lat="36.871490478515625" lon="-118.61076354980469">
<ele>3095</ele>
<time>2016-10-21T14:31:02Z</time>
</trkpt>
<trkpt lat="36.871524810791016" lon="-118.61080932617188">
<ele>3096</ele>
<time>2016-10-21T14:31:09Z</time>
</trkpt>
<trkpt lat="36.871620178222656" lon="-118.61084747314453">
<ele>3093</ele>
<time>2016-10-21T14:31:18Z</time>
</trkpt>
<trkpt lat="36.871700286865234" lon="-118.61080169677734">
<ele>3099</ele>
<time>2016-10-21T14:31:28Z</time>
</trkpt>
<trkpt lat="36.87179946899414" lon="-118.61080932617188">
<ele>3097</ele>
<time>2016-10-21T14:31:37Z</time>
</trkpt>
<trkpt lat="36.87184143066406" lon="-118.61083221435547">
<ele>3099</ele>
<time>2016-10-21T14:31:43Z</time>
</trkpt>
<trkpt lat="36.8719367980957" lon="-118.61084747314453">
<ele>3101</ele>
<time>2016-10-21T14:31:53Z</time>
</trkpt>
<trkpt lat="36.871986389160156" lon="-118.61087036132813">
<ele>3100</ele>
<time>2016-10-21T14:31:59Z</time>
</trkpt>
<trkpt lat="36.872032165527344" lon="-118.61090087890625">
<ele>3103</ele>
<time>2016-10-21T14:32:06Z</time>
</trkpt>
<trkpt lat="36.87213134765625" lon="-118.61095428466797">
<ele>3106</ele>
<time>2016-10-21T14:32:17Z</time>
</trkpt>
<trkpt lat="36.87221145629883" lon="-118.61104583740234">
<ele>3105</ele>
<time>2016-10-21T14:32:24Z</time>
</trkpt>
<trkpt lat="36.872314453125" lon="-118.61109924316406">
<ele>3104</ele>
<time>2016-10-21T14:32:31Z</time>
</trkpt>
<trkpt lat="36.872413635253906" lon="-118.611083984375">
<ele>3102</ele>
<time>2016-10-21T14:32:53Z</time>
</trkpt>
<trkpt lat="36.87251663208008" lon="-118.61111450195313">
<ele>3103</ele>
<time>2016-10-21T14:32:59Z</time>
</trkpt>
<trkpt lat="36.87260818481445" lon="-118.61116790771484">
<ele>3108</ele>
<time>2016-10-21T14:33:07Z</time>
</trkpt>
<trkpt lat="36.87270736694336" lon="-118.61115264892578">
<ele>3109</ele>
<time>2016-10-21T14:33:16Z</time>
</trkpt>
<trkpt lat="36.872798919677734" lon="-118.61109924316406">
<ele>3109</ele>
<time>2016-10-21T14:33:25Z</time>
</trkpt>
<trkpt lat="36.872894287109375" lon="-118.611083984375">
<ele>3095</ele>
<time>2016-10-21T14:33:35Z</time>
</trkpt>
<trkpt lat="36.872982025146484" lon="-118.61103820800781">
<ele>3097</ele>
<time>2016-10-21T14:33:45Z</time>
</trkpt>
<trkpt lat="36.873023986816406" lon="-118.61101531982422">
<ele>3100</ele>
<time>2016-10-21T14:33:51Z</time>
</trkpt>
<trkpt lat="36.87307357788086" lon="-118.61097717285156">
<ele>3097</ele>
<time>2016-10-21T14:33:59Z</time>
</trkpt>
<trkpt lat="36.87316131591797" lon="-118.61104583740234">
<ele>3096</ele>
<time>2016-10-21T14:34:05Z</time>
</trkpt>
<trkpt lat="36.87325668334961" lon="-118.61107635498047">
<ele>3103</ele>
<time>2016-10-21T14:34:16Z</time>
</trkpt>
<trkpt lat="36.87330627441406" lon="-118.61109161376953">
<ele>3109</ele>
<time>2016-10-21T14:34:27Z</time>
</trkpt>
<trkpt lat="36.87331771850586" lon="-118.6111831665039">
<ele>3108</ele>
<time>2016-10-21T14:34:38Z</time>
</trkpt>
<trkpt lat="36.87336349487305" lon="-118.61119842529297">
<ele>3108</ele>
<time>2016-10-21T14:34:53Z</time>
</trkpt>
<trkpt lat="36.8734245300293" lon="-118.61116790771484">
<ele>3107</ele>
<time>2016-10-21T14:34:59Z</time>
</trkpt>
<trkpt lat="36.87347412109375" lon="-118.61116790771484">
<ele>3101</ele>
<time>2016-10-21T14:35:05Z</time>
</trkpt>
<trkpt lat="36.87351989746094" lon="-118.61116027832031">
<ele>3104</ele>
<time>2016-10-21T14:35:11Z</time>
</trkpt>
<trkpt lat="36.873573303222656" lon="-118.61116027832031">
<ele>3104</ele>
<time>2016-10-21T14:35:19Z</time>
</trkpt>
<trkpt lat="36.87361526489258" lon="-118.61114501953125">
<ele>3114</ele>
<time>2016-10-21T14:35:27Z</time>
</trkpt>
<trkpt lat="36.873661041259766" lon="-118.61103820800781">
<ele>3114</ele>
<time>2016-10-21T14:35:38Z</time>
</trkpt>
<trkpt lat="36.87372589111328" lon="-118.61094665527344">
<ele>3117</ele>
<time>2016-10-21T14:35:48Z</time>
</trkpt>
<trkpt lat="36.87368392944336" lon="-118.61083984375">
<ele>3116</ele>
<time>2016-10-21T14:35:59Z</time>
</trkpt>
<trkpt lat="36.87372970581055" lon="-118.61085510253906">
<ele>3118</ele>
<time>2016-10-21T14:36:08Z</time>
</trkpt>
<trkpt lat="36.873779296875" lon="-118.61083984375">
<ele>3115</ele>
<time>2016-10-21T14:36:44Z</time>
</trkpt>
<trkpt lat="36.87382507324219" lon="-118.61084747314453">
<ele>3123</ele>
<time>2016-10-21T14:36:52Z</time>
</trkpt>
<trkpt lat="36.87385559082031" lon="-118.61089324951172">
<ele>3127</ele>
<time>2016-10-21T14:36:58Z</time>
</trkpt>
<trkpt lat="36.873844146728516" lon="-118.61083984375">
<ele>3122</ele>
<time>2016-10-21T14:37:09Z</time>
</trkpt>
<trkpt lat="36.8738899230957" lon="-118.61087036132813">
<ele>3129</ele>
<time>2016-10-21T14:37:29Z</time>
</trkpt>
<trkpt lat="36.873939514160156" lon="-118.61087036132813">
<ele>3131</ele>
<time>2016-10-21T14:37:35Z</time>
</trkpt>
<trkpt lat="36.873985290527344" lon="-118.61087799072266">
<ele>3134</ele>
<time>2016-10-21T14:37:44Z</time>
</trkpt>
<trkpt lat="36.87401580810547" lon="-118.61092376708984">
<ele>3139</ele>
<time>2016-10-21T14:37:57Z</time>
</trkpt>
<trkpt lat="36.87406539916992" lon="-118.61093139648438">
<ele>3143</ele>
<time>2016-10-21T14:38:12Z</time>
</trkpt>
<trkpt lat="36.874046325683594" lon="-118.6108169555664">
<ele>3141</ele>
<time>2016-10-21T14:38:24Z</time>
</trkpt>
<trkpt lat="36.87403869628906" lon="-118.61075592041016">
<ele>3140</ele>
<time>2016-10-21T14:38:32Z</time>
</trkpt>
<trkpt lat="36.87407684326172" lon="-118.61078643798828">
<ele>3148</ele>
<time>2016-10-21T14:38:57Z</time>
</trkpt>
<trkpt lat="36.874122619628906" lon="-118.61083984375">
<ele>3155</ele>
<time>2016-10-21T14:39:06Z</time>
</trkpt>
<trkpt lat="36.87416458129883" lon="-118.61087799072266">
<ele>3154</ele>
<time>2016-10-21T14:39:12Z</time>
</trkpt>
<trkpt lat="36.874210357666016" lon="-118.61089324951172">
<ele>3153</ele>
<time>2016-10-21T14:39:18Z</time>
</trkpt>
<trkpt lat="36.8742561340332" lon="-118.61091613769531">
<ele>3157</ele>
<time>2016-10-21T14:39:24Z</time>
</trkpt>
<trkpt lat="36.87430191040039" lon="-118.61093139648438">
<ele>3157</ele>
<time>2016-10-21T14:39:31Z</time>
</trkpt>
<trkpt lat="36.874267578125" lon="-118.61088562011719">
<ele>3153</ele>
<time>2016-10-21T14:39:43Z</time>
</trkpt>
<trkpt lat="36.874244689941406" lon="-118.61083984375">
<ele>3151</ele>
<time>2016-10-21T14:39:49Z</time>
</trkpt>
<trkpt lat="36.87428665161133" lon="-118.61080169677734">
<ele>3151</ele>
<time>2016-10-21T14:39:56Z</time>
</trkpt>
<trkpt lat="36.87433624267578" lon="-118.61083984375">
<ele>3150</ele>
<time>2016-10-21T14:40:05Z</time>
</trkpt>
<trkpt lat="36.87438201904297" lon="-118.61087036132813">
<ele>3141</ele>
<time>2016-10-21T14:40:12Z</time>
</trkpt>
<trkpt lat="36.87442398071289" lon="-118.61090087890625">
<ele>3143</ele>
<time>2016-10-21T14:40:18Z</time>
</trkpt>
<trkpt lat="36.87446975708008" lon="-118.61091613769531">
<ele>3150</ele>
<time>2016-10-21T14:40:26Z</time>
</trkpt>
<trkpt lat="36.874549865722656" lon="-118.61100769042969">
<ele>3156</ele>
<time>2016-10-21T14:40:37Z</time>
</trkpt>
<trkpt lat="36.87459945678711" lon="-118.61100006103516">
<ele>3155</ele>
<time>2016-10-21T14:40:47Z</time>
</trkpt>
<trkpt lat="36.8746452331543" lon="-118.61100769042969">
<ele>3152</ele>
<time>2016-10-21T14:40:55Z</time>
</trkpt>
<trkpt lat="36.874717712402344" lon="-118.61095428466797">
<ele>3154</ele>
<time>2016-10-21T14:41:15Z</time>
</trkpt>
<trkpt lat="36.87480926513672" lon="-118.61100006103516">
<ele>3154</ele>
<time>2016-10-21T14:41:39Z</time>
</trkpt>
<trkpt lat="36.87485885620117" lon="-118.61099243164063">
<ele>3151</ele>
<time>2016-10-21T14:41:45Z</time>
</trkpt>
<trkpt lat="36.874916076660156" lon="-118.6109848022461">
<ele>3161</ele>
<time>2016-10-21T14:42:08Z</time>
</trkpt>
<trkpt lat="36.874961853027344" lon="-118.61100006103516">
<ele>3162</ele>
<time>2016-10-21T14:42:15Z</time>
</trkpt>
<trkpt lat="36.8750114440918" lon="-118.61102294921875">
<ele>3165</ele>
<time>2016-10-21T14:42:26Z</time>
</trkpt>
<trkpt lat="36.875057220458984" lon="-118.61103820800781">
<ele>3161</ele>
<time>2016-10-21T14:42:33Z</time>
</trkpt>
<trkpt lat="36.87510299682617" lon="-118.61101531982422">
<ele>3163</ele>
<time>2016-10-21T14:42:41Z</time>
</trkpt>
<trkpt lat="36.8751335144043" lon="-118.6110610961914">
<ele>3171</ele>
<time>2016-10-21T14:42:53Z</time>
</trkpt>
<trkpt lat="36.87514877319336" lon="-118.61114501953125">
<ele>3183</ele>
<time>2016-10-21T14:43:11Z</time>
</trkpt>
<trkpt lat="36.87519073486328" lon="-118.61112213134766">
<ele>3177</ele>
<time>2016-10-21T14:43:27Z</time>
</trkpt>
<trkpt lat="36.875240325927734" lon="-118.61112213134766">
<ele>3171</ele>
<time>2016-10-21T14:43:34Z</time>
</trkpt>
<trkpt lat="36.87527084350586" lon="-118.61106872558594">
<ele>3168</ele>
<time>2016-10-21T14:43:41Z</time>
</trkpt>
<trkpt lat="36.87531280517578" lon="-118.61117553710938">
<ele>3183</ele>
<time>2016-10-21T14:44:09Z</time>
</trkpt>
<trkpt lat="36.875362396240234" lon="-118.61128997802734">
<ele>3181</ele>
<time>2016-10-21T14:44:22Z</time>
</trkpt>
<trkpt lat="36.87538528442383" lon="-118.61134338378906">
<ele>3183</ele>
<time>2016-10-21T14:44:31Z</time>
</trkpt>
<trkpt lat="36.875389099121094" lon="-118.61141204833984">
<ele>3185</ele>
<time>2016-10-21T14:44:37Z</time>
</trkpt>
<trkpt lat="36.87544250488281" lon="-118.61138153076172">
<ele>3187</ele>
<time>2016-10-21T14:45:03Z</time>
</trkpt>
<trkpt lat="36.875492095947266" lon="-118.61128234863281">
<ele>3186</ele>
<time>2016-10-21T14:45:13Z</time>
</trkpt>
<trkpt lat="36.875526428222656" lon="-118.61124420166016">
<ele>3190</ele>
<time>2016-10-21T14:45:21Z</time>
</trkpt>
<trkpt lat="36.87556838989258" lon="-118.61126708984375">
<ele>3186</ele>
<time>2016-10-21T14:45:33Z</time>
</trkpt>
<trkpt lat="36.8756103515625" lon="-118.61129760742188">
<ele>3190</ele>
<time>2016-10-21T14:45:39Z</time>
</trkpt>
<trkpt lat="36.87565612792969" lon="-118.611328125">
<ele>3191</ele>
<time>2016-10-21T14:45:47Z</time>
</trkpt>
<trkpt lat="36.875701904296875" lon="-118.61135864257813">
<ele>3193</ele>
<time>2016-10-21T14:45:53Z</time>
</trkpt>
<trkpt lat="36.875770568847656" lon="-118.61131286621094">
<ele>3191</ele>
<time>2016-10-21T14:46:04Z</time>
</trkpt>
<trkpt lat="36.87580108642578" lon="-118.61127471923828">
<ele>3194</ele>
<time>2016-10-21T14:46:10Z</time>
</trkpt>
<trkpt lat="36.875850677490234" lon="-118.61126708984375">
<ele>3196</ele>
<time>2016-10-21T14:46:18Z</time>
</trkpt>
<trkpt lat="36.87590026855469" lon="-118.61125183105469">
<ele>3197</ele>
<time>2016-10-21T14:46:27Z</time>
</trkpt>
<trkpt lat="36.87593078613281" lon="-118.61121368408203">
<ele>3195</ele>
<time>2016-10-21T14:46:48Z</time>
</trkpt>
<trkpt lat="36.876033782958984" lon="-118.61116790771484">
<ele>3196</ele>
<time>2016-10-21T14:46:57Z</time>
</trkpt>
<trkpt lat="36.87609100341797" lon="-118.61113739013672">
<ele>3201</ele>
<time>2016-10-21T14:47:08Z</time>
</trkpt>
<trkpt lat="36.87614822387695" lon="-118.61112976074219">
<ele>3201</ele>
<time>2016-10-21T14:47:15Z</time>
</trkpt>
<trkpt lat="36.876197814941406" lon="-118.61112213134766">
<ele>3203</ele>
<time>2016-10-21T14:47:22Z</time>
</trkpt>
<trkpt lat="36.876251220703125" lon="-118.61112976074219">
<ele>3205</ele>
<time>2016-10-21T14:47:28Z</time>
</trkpt>
<trkpt lat="36.876346588134766" lon="-118.61116027832031">
<ele>3212</ele>
<time>2016-10-21T14:47:40Z</time>
</trkpt>
<trkpt lat="36.87644577026367" lon="-118.61117553710938">
<ele>3214</ele>
<time>2016-10-21T14:47:51Z</time>
</trkpt>
<trkpt lat="36.876502990722656" lon="-118.6111831665039">
<ele>3216</ele>
<time>2016-10-21T14:47:58Z</time>
</trkpt>
<trkpt lat="36.876548767089844" lon="-118.61117553710938">
<ele>3214</ele>
<time>2016-10-21T14:48:04Z</time>
</trkpt>
<trkpt lat="36.876644134521484" lon="-118.61116790771484">
<ele>3212</ele>
<time>2016-10-21T14:48:16Z</time>
</trkpt>
<trkpt lat="36.8766975402832" lon="-118.61115264892578">
<ele>3210</ele>
<time>2016-10-21T14:48:22Z</time>
</trkpt>
<trkpt lat="36.876739501953125" lon="-118.61112976074219">
<ele>3213</ele>
<time>2016-10-21T14:48:31Z</time>
</trkpt>
<trkpt lat="36.87678527832031" lon="-118.6111068725586">
<ele>3213</ele>
<time>2016-10-21T14:48:39Z</time>
</trkpt>
<trkpt lat="36.8768196105957" lon="-118.61106872558594">
<ele>3214</ele>
<time>2016-10-21T14:48:46Z</time>
</trkpt>
<trkpt lat="36.87688446044922" lon="-118.61105346679688">
<ele>3214</ele>
<time>2016-10-21T14:49:09Z</time>
</trkpt>
<trkpt lat="36.87697219848633" lon="-118.61103057861328">
<ele>3217</ele>
<time>2016-10-21T14:49:21Z</time>
</trkpt>
<trkpt lat="36.87701416015625" lon="-118.61099243164063">
<ele>3217</ele>
<time>2016-10-21T14:49:29Z</time>
</trkpt>
<trkpt lat="36.877113342285156" lon="-118.61103057861328">
<ele>3220</ele>
<time>2016-10-21T14:49:40Z</time>
</trkpt>
<trkpt lat="36.877166748046875" lon="-118.61103057861328">
<ele>3220</ele>
<time>2016-10-21T14:49:46Z</time>
</trkpt>
<trkpt lat="36.877262115478516" lon="-118.61103820800781">
<ele>3218</ele>
<time>2016-10-21T14:49:58Z</time>
</trkpt>
<trkpt lat="36.87735366821289" lon="-118.61107635498047">
<ele>3221</ele>
<time>2016-10-21T14:50:08Z</time>
</trkpt>
<trkpt lat="36.87744140625" lon="-118.611083984375">
<ele>3224</ele>
<time>2016-10-21T14:50:16Z</time>
</trkpt>
<trkpt lat="36.87749099731445" lon="-118.611083984375">
<ele>3223</ele>
<time>2016-10-21T14:50:23Z</time>
</trkpt>
<trkpt lat="36.877540588378906" lon="-118.61105346679688">
<ele>3222</ele>
<time>2016-10-21T14:50:29Z</time>
</trkpt>
<trkpt lat="36.87764358520508" lon="-118.6110610961914">
<ele>3225</ele>
<time>2016-10-21T14:50:42Z</time>
</trkpt>
<trkpt lat="36.87774658203125" lon="-118.6110610961914">
<ele>3227</ele>
<time>2016-10-21T14:50:50Z</time>
</trkpt>
<trkpt lat="36.8777961730957" lon="-118.61105346679688">
<ele>3227</ele>
<time>2016-10-21T14:50:56Z</time>
</trkpt>
<trkpt lat="36.877864837646484" lon="-118.61102294921875">
<ele>3227</ele>
<time>2016-10-21T14:51:03Z</time>
</trkpt>
<trkpt lat="36.877960205078125" lon="-118.61100006103516">
<ele>3228</ele>
<time>2016-10-21T14:51:11Z</time>
</trkpt>
<trkpt lat="36.8780632019043" lon="-118.61099243164063">
<ele>3229</ele>
<time>2016-10-21T14:51:49Z</time>
</trkpt>
<trkpt lat="36.87810516357422" lon="-118.6109619140625">
<ele>3225</ele>
<time>2016-10-21T14:51:55Z</time>
</trkpt>
<trkpt lat="36.87815856933594" lon="-118.61089324951172">
<ele>3226</ele>
<time>2016-10-21T14:52:03Z</time>
</trkpt>
<trkpt lat="36.87823486328125" lon="-118.61080932617188">
<ele>3227</ele>
<time>2016-10-21T14:52:11Z</time>
</trkpt>
<trkpt lat="36.87828063964844" lon="-118.61071014404297">
<ele>3227</ele>
<time>2016-10-21T14:52:18Z</time>
</trkpt>
<trkpt lat="36.87831115722656" lon="-118.61060333251953">
<ele>3224</ele>
<time>2016-10-21T14:52:27Z</time>
</trkpt>
<trkpt lat="36.87833786010742" lon="-118.61054229736328">
<ele>3221</ele>
<time>2016-10-21T14:52:37Z</time>
</trkpt>
<trkpt lat="36.87842559814453" lon="-118.6104736328125">
<ele>3224</ele>
<time>2016-10-21T14:52:44Z</time>
</trkpt>
<trkpt lat="36.87850570678711" lon="-118.61042022705078">
<ele>3228</ele>
<time>2016-10-21T14:52:51Z</time>
</trkpt>
<trkpt lat="36.878543853759766" lon="-118.6103515625">
<ele>3226</ele>
<time>2016-10-21T14:52:58Z</time>
</trkpt>
<trkpt lat="36.878597259521484" lon="-118.6103515625">
<ele>3226</ele>
<time>2016-10-21T14:53:05Z</time>
</trkpt>
<trkpt lat="36.87864303588867" lon="-118.6103286743164">
<ele>3223</ele>
<time>2016-10-21T14:53:11Z</time>
</trkpt>
<trkpt lat="36.878746032714844" lon="-118.61026763916016">
<ele>3225</ele>
<time>2016-10-21T14:53:19Z</time>
</trkpt>
<trkpt lat="36.87883377075195" lon="-118.61019134521484">
<ele>3227</ele>
<time>2016-10-21T14:53:27Z</time>
</trkpt>
<trkpt lat="36.87887191772461" lon="-118.61016082763672">
<ele>3223</ele>
<time>2016-10-21T14:53:33Z</time>
</trkpt>
<trkpt lat="36.87895965576172" lon="-118.61009979248047">
<ele>3218</ele>
<time>2016-10-21T14:53:41Z</time>
</trkpt>
<trkpt lat="36.87893295288086" lon="-118.60999298095703">
<ele>3213</ele>
<time>2016-10-21T14:53:48Z</time>
</trkpt>
<trkpt lat="36.87896728515625" lon="-118.6098861694336">
<ele>3212</ele>
<time>2016-10-21T14:53:54Z</time>
</trkpt>
<trkpt lat="36.87903594970703" lon="-118.60981750488281">
<ele>3208</ele>
<time>2016-10-21T14:54:07Z</time>
</trkpt>
<trkpt lat="36.87913131713867" lon="-118.6097640991211">
<ele>3208</ele>
<time>2016-10-21T14:54:15Z</time>
</trkpt>
<trkpt lat="36.87919616699219" lon="-118.60967254638672">
<ele>3206</ele>
<time>2016-10-21T14:54:24Z</time>
</trkpt>
<trkpt lat="36.87921142578125" lon="-118.60956573486328">
<ele>3205</ele>
<time>2016-10-21T14:54:33Z</time>
</trkpt>
<trkpt lat="36.879329681396484" lon="-118.60955047607422">
<ele>3206</ele>
<time>2016-10-21T14:54:41Z</time>
</trkpt>
<trkpt lat="36.87937545776367" lon="-118.60955047607422">
<ele>3205</ele>
<time>2016-10-21T14:54:48Z</time>
</trkpt>
<trkpt lat="36.879417419433594" lon="-118.60952758789063">
<ele>3200</ele>
<time>2016-10-21T14:54:57Z</time>
</trkpt>
<trkpt lat="36.8794059753418" lon="-118.60945129394531">
<ele>3199</ele>
<time>2016-10-21T14:55:03Z</time>
</trkpt>
<trkpt lat="36.87939453125" lon="-118.60933685302734">
<ele>3196</ele>
<time>2016-10-21T14:55:12Z</time>
</trkpt>
<trkpt lat="36.879486083984375" lon="-118.60929870605469">
<ele>3199</ele>
<time>2016-10-21T14:55:18Z</time>
</trkpt>
<trkpt lat="36.87957763671875" lon="-118.60934448242188">
<ele>3194</ele>
<time>2016-10-21T14:55:34Z</time>
</trkpt>
<trkpt lat="36.87967300415039" lon="-118.6093521118164">
<ele>3195</ele>
<time>2016-10-21T14:55:43Z</time>
</trkpt>
<trkpt lat="36.87971496582031" lon="-118.60942077636719">
<ele>3194</ele>
<time>2016-10-21T14:56:59Z</time>
</trkpt>
<trkpt lat="36.879703521728516" lon="-118.60936737060547">
<ele>3191</ele>
<time>2016-10-21T14:57:35Z</time>
</trkpt>
<trkpt lat="36.87968826293945" lon="-118.60945129394531">
<ele>3195</ele>
<time>2016-10-21T14:58:34Z</time>
</trkpt>
<trkpt lat="36.87975311279297" lon="-118.60945892333984">
<ele>3198</ele>
<time>2016-10-21T14:59:34Z</time>
</trkpt>
<trkpt lat="36.879798889160156" lon="-118.60944366455078">
<ele>3195</ele>
<time>2016-10-21T14:59:42Z</time>
</trkpt>
<trkpt lat="36.87989807128906" lon="-118.60942077636719">
<ele>3193</ele>
<time>2016-10-21T14:59:50Z</time>
</trkpt>
<trkpt lat="36.879947662353516" lon="-118.60943603515625">
<ele>3196</ele>
<time>2016-10-21T14:59:56Z</time>
</trkpt>
<trkpt lat="36.87994384765625" lon="-118.609375">
<ele>3193</ele>
<time>2016-10-21T15:00:02Z</time>
</trkpt>
<trkpt lat="36.87992858886719" lon="-118.60931396484375">
<ele>3188</ele>
<time>2016-10-21T15:00:13Z</time>
</trkpt>
<trkpt lat="36.87990951538086" lon="-118.60920715332031">
<ele>3182</ele>
<time>2016-10-21T15:00:22Z</time>
</trkpt>
<trkpt lat="36.8800048828125" lon="-118.6091537475586">
<ele>3183</ele>
<time>2016-10-21T15:00:28Z</time>
</trkpt>
<trkpt lat="36.87997817993164" lon="-118.60904693603516">
<ele>3182</ele>
<time>2016-10-21T15:00:35Z</time>
</trkpt>
<trkpt lat="36.88003158569336" lon="-118.60904693603516">
<ele>3179</ele>
<time>2016-10-21T15:00:45Z</time>
</trkpt>
<trkpt lat="36.880104064941406" lon="-118.60913848876953">
<ele>3179</ele>
<time>2016-10-21T15:00:55Z</time>
</trkpt>
<trkpt lat="36.88017272949219" lon="-118.60920715332031">
<ele>3174</ele>
<time>2016-10-21T15:01:02Z</time>
</trkpt>
<trkpt lat="36.8802604675293" lon="-118.60923767089844">
<ele>3170</ele>
<time>2016-10-21T15:01:12Z</time>
</trkpt>
<trkpt lat="36.88024139404297" lon="-118.60918426513672">
<ele>3170</ele>
<time>2016-10-21T15:01:20Z</time>
</trkpt>
<trkpt lat="36.880287170410156" lon="-118.60917663574219">
<ele>3170</ele>
<time>2016-10-21T15:01:27Z</time>
</trkpt>
<trkpt lat="36.88032913208008" lon="-118.60914611816406">
<ele>3166</ele>
<time>2016-10-21T15:01:36Z</time>
</trkpt>
<trkpt lat="36.880367279052734" lon="-118.60910034179688">
<ele>3162</ele>
<time>2016-10-21T15:01:43Z</time>
</trkpt>
<trkpt lat="36.880409240722656" lon="-118.6089859008789">
<ele>3162</ele>
<time>2016-10-21T15:01:53Z</time>
</trkpt>
<trkpt lat="36.88043975830078" lon="-118.60888671875">
<ele>3159</ele>
<time>2016-10-21T15:02:06Z</time>
</trkpt>
<trkpt lat="36.880435943603516" lon="-118.60882568359375">
<ele>3158</ele>
<time>2016-10-21T15:02:13Z</time>
</trkpt>
<trkpt lat="36.880401611328125" lon="-118.60877990722656">
<ele>3158</ele>
<time>2016-10-21T15:02:19Z</time>
</trkpt>
<trkpt lat="36.880435943603516" lon="-118.60867309570313">
<ele>3159</ele>
<time>2016-10-21T15:02:27Z</time>
</trkpt>
<trkpt lat="36.88050842285156" lon="-118.60856628417969">
<ele>3165</ele>
<time>2016-10-21T15:02:36Z</time>
</trkpt>
<trkpt lat="36.88059997558594" lon="-118.60855102539063">
<ele>3161</ele>
<time>2016-10-21T15:02:47Z</time>
</trkpt>
<trkpt lat="36.880653381347656" lon="-118.60852813720703">
<ele>3161</ele>
<time>2016-10-21T15:02:53Z</time>
</trkpt>
<trkpt lat="36.88070297241211" lon="-118.60843658447266">
<ele>3157</ele>
<time>2016-10-21T15:02:59Z</time>
</trkpt>
<trkpt lat="36.8807373046875" lon="-118.60832214355469">
<ele>3154</ele>
<time>2016-10-21T15:03:08Z</time>
</trkpt>
<trkpt lat="36.88077163696289" lon="-118.6082763671875">
<ele>3151</ele>
<time>2016-10-21T15:03:14Z</time>
</trkpt>
<trkpt lat="36.880794525146484" lon="-118.60832977294922">
<ele>3150</ele>
<time>2016-10-21T15:03:25Z</time>
</trkpt>
<trkpt lat="36.880802154541016" lon="-118.60845184326172">
<ele>3150</ele>
<time>2016-10-21T15:03:34Z</time>
</trkpt>
<trkpt lat="36.88081741333008" lon="-118.60856628417969">
<ele>3149</ele>
<time>2016-10-21T15:03:43Z</time>
</trkpt>
<trkpt lat="36.880859375" lon="-118.60858917236328">
<ele>3147</ele>
<time>2016-10-21T15:03:56Z</time>
</trkpt>
<trkpt lat="36.88092041015625" lon="-118.60857391357422">
<ele>3143</ele>
<time>2016-10-21T15:04:04Z</time>
</trkpt>
<trkpt lat="36.88093185424805" lon="-118.60863494873047">
<ele>3143</ele>
<time>2016-10-21T15:04:10Z</time>
</trkpt>
<trkpt lat="36.880950927734375" lon="-118.60869598388672">
<ele>3140</ele>
<time>2016-10-21T15:04:16Z</time>
</trkpt>
<trkpt lat="36.88101577758789" lon="-118.6087875366211">
<ele>3138</ele>
<time>2016-10-21T15:04:24Z</time>
</trkpt>
<trkpt lat="36.8810920715332" lon="-118.60887908935547">
<ele>3138</ele>
<time>2016-10-21T15:04:33Z</time>
</trkpt>
<trkpt lat="36.881187438964844" lon="-118.6089096069336">
<ele>3137</ele>
<time>2016-10-21T15:04:40Z</time>
</trkpt>
<trkpt lat="36.88127517700195" lon="-118.60885620117188">
<ele>3138</ele>
<time>2016-10-21T15:04:51Z</time>
</trkpt>
<trkpt lat="36.88125991821289" lon="-118.6087646484375">
<ele>3139</ele>
<time>2016-10-21T15:04:58Z</time>
</trkpt>
<trkpt lat="36.881282806396484" lon="-118.60867309570313">
<ele>3135</ele>
<time>2016-10-21T15:05:11Z</time>
</trkpt>
<trkpt lat="36.88132858276367" lon="-118.60870361328125">
<ele>3135</ele>
<time>2016-10-21T15:05:17Z</time>
</trkpt>
<trkpt lat="36.88134765625" lon="-118.60881805419922">
<ele>3135</ele>
<time>2016-10-21T15:05:29Z</time>
</trkpt>
<trkpt lat="36.88137435913086" lon="-118.60893249511719">
<ele>3133</ele>
<time>2016-10-21T15:05:38Z</time>
</trkpt>
<trkpt lat="36.88144302368164" lon="-118.6089096069336">
<ele>3130</ele>
<time>2016-10-21T15:05:46Z</time>
</trkpt>
<trkpt lat="36.881507873535156" lon="-118.60881042480469">
<ele>3131</ele>
<time>2016-10-21T15:05:54Z</time>
</trkpt>
<trkpt lat="36.88159942626953" lon="-118.6087875366211">
<ele>3130</ele>
<time>2016-10-21T15:06:21Z</time>
</trkpt>
<trkpt lat="36.881649017333984" lon="-118.60879516601563">
<ele>3129</ele>
<time>2016-10-21T15:06:27Z</time>
</trkpt>
<trkpt lat="36.88168716430664" lon="-118.60884094238281">
<ele>3127</ele>
<time>2016-10-21T15:06:33Z</time>
</trkpt>
<trkpt lat="36.88177490234375" lon="-118.60882568359375">
<ele>3119</ele>
<time>2016-10-21T15:06:57Z</time>
</trkpt>
<trkpt lat="36.88179397583008" lon="-118.6087417602539">
<ele>3120</ele>
<time>2016-10-21T15:07:05Z</time>
</trkpt>
<trkpt lat="36.881813049316406" lon="-118.60868835449219">
<ele>3118</ele>
<time>2016-10-21T15:07:14Z</time>
</trkpt>
<trkpt lat="36.88190460205078" lon="-118.60872650146484">
<ele>3123</ele>
<time>2016-10-21T15:07:21Z</time>
</trkpt>
<trkpt lat="36.88200378417969" lon="-118.6087417602539">
<ele>3127</ele>
<time>2016-10-21T15:07:29Z</time>
</trkpt>
<trkpt lat="36.88201904296875" lon="-118.60868835449219">
<ele>3128</ele>
<time>2016-10-21T15:07:35Z</time>
</trkpt>
<trkpt lat="36.8820686340332" lon="-118.60868072509766">
<ele>3128</ele>
<time>2016-10-21T15:07:41Z</time>
</trkpt>
<trkpt lat="36.882164001464844" lon="-118.60865783691406">
<ele>3124</ele>
<time>2016-10-21T15:07:52Z</time>
</trkpt>
<trkpt lat="36.88223648071289" lon="-118.6086654663086">
<ele>3124</ele>
<time>2016-10-21T15:07:58Z</time>
</trkpt>
<trkpt lat="36.88233947753906" lon="-118.60868072509766">
<ele>3121</ele>
<time>2016-10-21T15:08:05Z</time>
</trkpt>
<trkpt lat="36.882442474365234" lon="-118.60871887207031">
<ele>3117</ele>
<time>2016-10-21T15:08:16Z</time>
</trkpt>
<trkpt lat="36.88252639770508" lon="-118.60879516601563">
<ele>3116</ele>
<time>2016-10-21T15:08:25Z</time>
</trkpt>
<trkpt lat="36.88262176513672" lon="-118.60883331298828">
<ele>3112</ele>
<time>2016-10-21T15:08:32Z</time>
</trkpt>
<trkpt lat="36.88272476196289" lon="-118.60881805419922">
<ele>3113</ele>
<time>2016-10-21T15:08:38Z</time>
</trkpt>
<trkpt lat="36.882808685302734" lon="-118.60885620117188">
<ele>3116</ele>
<time>2016-10-21T15:08:45Z</time>
</trkpt>
<trkpt lat="36.88285827636719" lon="-118.60887145996094">
<ele>3123</ele>
<time>2016-10-21T15:08:51Z</time>
</trkpt>
<trkpt lat="36.882938385009766" lon="-118.6089096069336">
<ele>3117</ele>
<time>2016-10-21T15:08:58Z</time>
</trkpt>
<trkpt lat="36.883026123046875" lon="-118.60894775390625">
<ele>3116</ele>
<time>2016-10-21T15:09:06Z</time>
</trkpt>
<trkpt lat="36.88309097290039" lon="-118.6090316772461">
<ele>3119</ele>
<time>2016-10-21T15:09:14Z</time>
</trkpt>
<trkpt lat="36.88317108154297" lon="-118.60911560058594">
<ele>3122</ele>
<time>2016-10-21T15:09:24Z</time>
</trkpt>
<trkpt lat="36.88325500488281" lon="-118.60919189453125">
<ele>3124</ele>
<time>2016-10-21T15:09:33Z</time>
</trkpt>
<trkpt lat="36.88330078125" lon="-118.60920715332031">
<ele>3119</ele>
<time>2016-10-21T15:09:39Z</time>
</trkpt>
<trkpt lat="36.88340377807617" lon="-118.60922241210938">
<ele>3115</ele>
<time>2016-10-21T15:09:49Z</time>
</trkpt>
<trkpt lat="36.88348388671875" lon="-118.6092529296875">
<ele>3116</ele>
<time>2016-10-21T15:09:59Z</time>
</trkpt>
<trkpt lat="36.88345718383789" lon="-118.60930633544922">
<ele>3121</ele>
<time>2016-10-21T15:10:42Z</time>
</trkpt>
<trkpt lat="36.88349151611328" lon="-118.6093521118164">
<ele>3119</ele>
<time>2016-10-21T15:10:49Z</time>
</trkpt>
<trkpt lat="36.88347244262695" lon="-118.60948181152344">
<ele>3121</ele>
<time>2016-10-21T15:10:58Z</time>
</trkpt>
<trkpt lat="36.88351058959961" lon="-118.60956573486328">
<ele>3126</ele>
<time>2016-10-21T15:11:11Z</time>
</trkpt>
<trkpt lat="36.88355255126953" lon="-118.60960388183594">
<ele>3125</ele>
<time>2016-10-21T15:11:17Z</time>
</trkpt>
<trkpt lat="36.88355255126953" lon="-118.60966491699219">
<ele>3122</ele>
<time>2016-10-21T15:11:23Z</time>
</trkpt>
<trkpt lat="36.883644104003906" lon="-118.60971069335938">
<ele>3117</ele>
<time>2016-10-21T15:11:32Z</time>
</trkpt>
<trkpt lat="36.883705139160156" lon="-118.60977935791016">
<ele>3115</ele>
<time>2016-10-21T15:11:43Z</time>
</trkpt>
<trkpt lat="36.883731842041016" lon="-118.60983276367188">
<ele>3117</ele>
<time>2016-10-21T15:11:51Z</time>
</trkpt>
<trkpt lat="36.88376998901367" lon="-118.60991668701172">
<ele>3117</ele>
<time>2016-10-21T15:11:59Z</time>
</trkpt>
<trkpt lat="36.8837776184082" lon="-118.60997772216797">
<ele>3117</ele>
<time>2016-10-21T15:12:05Z</time>
</trkpt>
<trkpt lat="36.88376235961914" lon="-118.61003112792969">
<ele>3119</ele>
<time>2016-10-21T15:12:13Z</time>
</trkpt>
<trkpt lat="36.8837776184082" lon="-118.61009216308594">
<ele>3119</ele>
<time>2016-10-21T15:12:19Z</time>
</trkpt>
<trkpt lat="36.883811950683594" lon="-118.6101303100586">
<ele>3119</ele>
<time>2016-10-21T15:12:25Z</time>
</trkpt>
<trkpt lat="36.883819580078125" lon="-118.61019134521484">
<ele>3120</ele>
<time>2016-10-21T15:12:33Z</time>
</trkpt>
<trkpt lat="36.88387680053711" lon="-118.61027526855469">
<ele>3118</ele>
<time>2016-10-21T15:12:47Z</time>
</trkpt>
<trkpt lat="36.88395690917969" lon="-118.61032104492188">
<ele>3119</ele>
<time>2016-10-21T15:12:56Z</time>
</trkpt>
<trkpt lat="36.884010314941406" lon="-118.61038208007813">
<ele>3117</ele>
<time>2016-10-21T15:13:05Z</time>
</trkpt>
<trkpt lat="36.88408279418945" lon="-118.6103286743164">
<ele>3118</ele>
<time>2016-10-21T15:13:14Z</time>
</trkpt>
<trkpt lat="36.884151458740234" lon="-118.61030578613281">
<ele>3114</ele>
<time>2016-10-21T15:13:31Z</time>
</trkpt>
<trkpt lat="36.884254455566406" lon="-118.61031341552734">
<ele>3112</ele>
<time>2016-10-21T15:13:39Z</time>
</trkpt>
<trkpt lat="36.88435363769531" lon="-118.61026763916016">
<ele>3111</ele>
<time>2016-10-21T15:13:47Z</time>
</trkpt>
<trkpt lat="36.88446044921875" lon="-118.61028289794922">
<ele>3108</ele>
<time>2016-10-21T15:13:56Z</time>
</trkpt>
<trkpt lat="36.8845329284668" lon="-118.61029815673828">
<ele>3108</ele>
<time>2016-10-21T15:14:06Z</time>
</trkpt>
<trkpt lat="36.88459014892578" lon="-118.61029052734375">
<ele>3107</ele>
<time>2016-10-21T15:14:13Z</time>
</trkpt>
<trkpt lat="36.884681701660156" lon="-118.61028289794922">
<ele>3103</ele>
<time>2016-10-21T15:14:22Z</time>
</trkpt>
<trkpt lat="36.88477325439453" lon="-118.61028289794922">
<ele>3098</ele>
<time>2016-10-21T15:14:33Z</time>
</trkpt>
<trkpt lat="36.884864807128906" lon="-118.61030578613281">
<ele>3102</ele>
<time>2016-10-21T15:14:42Z</time>
</trkpt>
<trkpt lat="36.88496017456055" lon="-118.61033630371094">
<ele>3098</ele>
<time>2016-10-21T15:14:49Z</time>
</trkpt>
<trkpt lat="36.88506317138672" lon="-118.61033630371094">
<ele>3100</ele>
<time>2016-10-21T15:14:55Z</time>
</trkpt>
<trkpt lat="36.88515853881836" lon="-118.61035919189453">
<ele>3096</ele>
<time>2016-10-21T15:15:05Z</time>
</trkpt>
<trkpt lat="36.88520431518555" lon="-118.6103515625">
<ele>3094</ele>
<time>2016-10-21T15:15:12Z</time>
</trkpt>
<trkpt lat="36.88529968261719" lon="-118.61038970947266">
<ele>3100</ele>
<time>2016-10-21T15:15:19Z</time>
</trkpt>
<trkpt lat="36.88539505004883" lon="-118.61042785644531">
<ele>3094</ele>
<time>2016-10-21T15:15:28Z</time>
</trkpt>
<trkpt lat="36.88549041748047" lon="-118.61038208007813">
<ele>3097</ele>
<time>2016-10-21T15:15:36Z</time>
</trkpt>
<trkpt lat="36.88559341430664" lon="-118.61040496826172">
<ele>3099</ele>
<time>2016-10-21T15:15:45Z</time>
</trkpt>
<trkpt lat="36.88566970825195" lon="-118.6103515625">
<ele>3097</ele>
<time>2016-10-21T15:15:56Z</time>
</trkpt>
<trkpt lat="36.8857421875" lon="-118.61034393310547">
<ele>3096</ele>
<time>2016-10-21T15:16:04Z</time>
</trkpt>
<trkpt lat="36.885826110839844" lon="-118.61023712158203">
<ele>3099</ele>
<time>2016-10-21T15:16:13Z</time>
</trkpt>
<trkpt lat="36.885929107666016" lon="-118.6102066040039">
<ele>3098</ele>
<time>2016-10-21T15:16:21Z</time>
</trkpt>
<trkpt lat="36.88604736328125" lon="-118.61016845703125">
<ele>3099</ele>
<time>2016-10-21T15:16:27Z</time>
</trkpt>
<trkpt lat="36.886146545410156" lon="-118.61013793945313">
<ele>3099</ele>
<time>2016-10-21T15:16:37Z</time>
</trkpt>
<trkpt lat="36.88620376586914" lon="-118.61015319824219">
<ele>3098</ele>
<time>2016-10-21T15:16:43Z</time>
</trkpt>
<trkpt lat="36.88630294799805" lon="-118.61016845703125">
<ele>3094</ele>
<time>2016-10-21T15:16:51Z</time>
</trkpt>
<trkpt lat="36.88636779785156" lon="-118.61014556884766">
<ele>3092</ele>
<time>2016-10-21T15:16:59Z</time>
</trkpt>
<trkpt lat="36.886390686035156" lon="-118.61019897460938">
<ele>3092</ele>
<time>2016-10-21T15:17:06Z</time>
</trkpt>
<trkpt lat="36.88644027709961" lon="-118.6102066040039">
<ele>3092</ele>
<time>2016-10-21T15:17:14Z</time>
</trkpt>
</trkseg>
</trk>
<trk>
<name><![CDATA[10210837]]></name>
<number>56</number>
<extensions><topografix:color>ff000066</topografix:color></extensions>
<trkseg>
<trkpt lat="36.89247131347656" lon="-118.61033630371094">
<ele>2969</ele>
<time>2016-10-21T15:37:50Z</time>
</trkpt>
<trkpt lat="36.892452239990234" lon="-118.61039733886719">
<ele>2975</ele>
<time>2016-10-21T15:39:03Z</time>
</trkpt>
<trkpt lat="36.89237976074219" lon="-118.61048126220703">
<ele>2975</ele>
<time>2016-10-21T15:39:13Z</time>
</trkpt>
<trkpt lat="36.89230728149414" lon="-118.6105728149414">
<ele>2974</ele>
<time>2016-10-21T15:39:20Z</time>
</trkpt>
<trkpt lat="36.89226531982422" lon="-118.61067962646484">
<ele>2970</ele>
<time>2016-10-21T15:39:29Z</time>
</trkpt>
<trkpt lat="36.892208099365234" lon="-118.61077117919922">
<ele>2970</ele>
<time>2016-10-21T15:39:38Z</time>
</trkpt>
<trkpt lat="36.89219665527344" lon="-118.61083221435547">
<ele>2968</ele>
<time>2016-10-21T15:39:50Z</time>
</trkpt>
<trkpt lat="36.89222717285156" lon="-118.61088562011719">
<ele>2968</ele>
<time>2016-10-21T15:39:56Z</time>
</trkpt>
<trkpt lat="36.89224624633789" lon="-118.6109390258789">
<ele>2967</ele>
<time>2016-10-21T15:40:05Z</time>
</trkpt>
<trkpt lat="36.892337799072266" lon="-118.61100006103516">
<ele>2968</ele>
<time>2016-10-21T15:40:13Z</time>
</trkpt>
<trkpt lat="36.89241027832031" lon="-118.61107635498047">
<ele>2968</ele>
<time>2016-10-21T15:40:21Z</time>
</trkpt>
<trkpt lat="36.89244842529297" lon="-118.6111068725586">
<ele>2964</ele>
<time>2016-10-21T15:40:28Z</time>
</trkpt>
<trkpt lat="36.892494201660156" lon="-118.61112213134766">
<ele>2964</ele>
<time>2016-10-21T15:40:35Z</time>
</trkpt>
<trkpt lat="36.89254379272461" lon="-118.61112976074219">
<ele>2962</ele>
<time>2016-10-21T15:40:41Z</time>
</trkpt>
<trkpt lat="36.892642974853516" lon="-118.61115264892578">
<ele>2960</ele>
<time>2016-10-21T15:40:49Z</time>
</trkpt>
<trkpt lat="36.892669677734375" lon="-118.61121368408203">
<ele>2954</ele>
<time>2016-10-21T15:40:55Z</time>
</trkpt>
<trkpt lat="36.89265441894531" lon="-118.61126708984375">
<ele>2956</ele>
<time>2016-10-21T15:41:01Z</time>
</trkpt>
<trkpt lat="36.8927001953125" lon="-118.61128234863281">
<ele>2958</ele>
<time>2016-10-21T15:41:09Z</time>
</trkpt>
<trkpt lat="36.8928108215332" lon="-118.61127471923828">
<ele>2957</ele>
<time>2016-10-21T15:41:17Z</time>
</trkpt>
<trkpt lat="36.892906188964844" lon="-118.61128234863281">
<ele>2960</ele>
<time>2016-10-21T15:41:24Z</time>
</trkpt>
<trkpt lat="36.8929443359375" lon="-118.61132049560547">
<ele>2960</ele>
<time>2016-10-21T15:41:34Z</time>
</trkpt>
<trkpt lat="36.89299011230469" lon="-118.61134338378906">
<ele>2955</ele>
<time>2016-10-21T15:41:40Z</time>
</trkpt>
<trkpt lat="36.8930778503418" lon="-118.61138153076172">
<ele>2954</ele>
<time>2016-10-21T15:41:49Z</time>
</trkpt>
<trkpt lat="36.89308166503906" lon="-118.61144256591797">
<ele>2957</ele>
<time>2016-10-21T15:41:55Z</time>
</trkpt>
<trkpt lat="36.89309310913086" lon="-118.61151123046875">
<ele>2961</ele>
<time>2016-10-21T15:42:01Z</time>
</trkpt>
<trkpt lat="36.89316177368164" lon="-118.61156463623047">
<ele>2955</ele>
<time>2016-10-21T15:42:11Z</time>
</trkpt>
<trkpt lat="36.89319610595703" lon="-118.61161041259766">
<ele>2953</ele>
<time>2016-10-21T15:42:21Z</time>
</trkpt>
<trkpt lat="36.893287658691406" lon="-118.61164855957031">
<ele>2945</ele>
<time>2016-10-21T15:42:31Z</time>
</trkpt>
<trkpt lat="36.89332580566406" lon="-118.6116943359375">
<ele>2944</ele>
<time>2016-10-21T15:42:37Z</time>
</trkpt>
<trkpt lat="36.893333435058594" lon="-118.61175537109375">
<ele>2942</ele>
<time>2016-10-21T15:42:44Z</time>
</trkpt>
<trkpt lat="36.893348693847656" lon="-118.61184692382813">
<ele>2945</ele>
<time>2016-10-21T15:42:50Z</time>
</trkpt>
<trkpt lat="36.893394470214844" lon="-118.61195373535156">
<ele>2948</ele>
<time>2016-10-21T15:42:59Z</time>
</trkpt>
<trkpt lat="36.893428802490234" lon="-118.61199188232422">
<ele>2941</ele>
<time>2016-10-21T15:43:10Z</time>
</trkpt>
<trkpt lat="36.8934440612793" lon="-118.61204528808594">
<ele>2944</ele>
<time>2016-10-21T15:43:16Z</time>
</trkpt>
<trkpt lat="36.89348602294922" lon="-118.61209106445313">
<ele>2943</ele>
<time>2016-10-21T15:43:28Z</time>
</trkpt>
<trkpt lat="36.89358139038086" lon="-118.61213684082031">
<ele>2946</ele>
<time>2016-10-21T15:43:37Z</time>
</trkpt>
<trkpt lat="36.893653869628906" lon="-118.61221313476563">
<ele>2946</ele>
<time>2016-10-21T15:43:45Z</time>
</trkpt>
<trkpt lat="36.89372634887695" lon="-118.61212921142578">
<ele>2943</ele>
<time>2016-10-21T15:43:55Z</time>
</trkpt>
<trkpt lat="36.89377975463867" lon="-118.61213684082031">
<ele>2942</ele>
<time>2016-10-21T15:44:01Z</time>
</trkpt>
<trkpt lat="36.8938102722168" lon="-118.6121826171875">
<ele>2939</ele>
<time>2016-10-21T15:44:07Z</time>
</trkpt>
<trkpt lat="36.893898010253906" lon="-118.61224365234375">
<ele>2939</ele>
<time>2016-10-21T15:44:20Z</time>
</trkpt>
<trkpt lat="36.89398956298828" lon="-118.61225128173828">
<ele>2934</ele>
<time>2016-10-21T15:44:31Z</time>
</trkpt>
<trkpt lat="36.89401626586914" lon="-118.6123046875">
<ele>2937</ele>
<time>2016-10-21T15:44:46Z</time>
</trkpt>
<trkpt lat="36.894046783447266" lon="-118.61235046386719">
<ele>2930</ele>
<time>2016-10-21T15:45:13Z</time>
</trkpt>
<trkpt lat="36.894012451171875" lon="-118.61238861083984">
<ele>2934</ele>
<time>2016-10-21T15:45:47Z</time>
</trkpt>
<trkpt lat="36.893951416015625" lon="-118.6124267578125">
<ele>2929</ele>
<time>2016-10-21T15:46:06Z</time>
</trkpt>
<trkpt lat="36.893978118896484" lon="-118.61238098144531">
<ele>2932</ele>
<time>2016-10-21T15:46:30Z</time>
</trkpt>
<trkpt lat="36.89399719238281" lon="-118.61243438720703">
<ele>2933</ele>
<time>2016-10-21T15:46:48Z</time>
</trkpt>
<trkpt lat="36.89400863647461" lon="-118.61237335205078">
<ele>2931</ele>
<time>2016-10-21T15:47:02Z</time>
</trkpt>
<trkpt lat="36.894039154052734" lon="-118.61233520507813">
<ele>2928</ele>
<time>2016-10-21T15:47:20Z</time>
</trkpt>
<trkpt lat="36.89408493041992" lon="-118.61236572265625">
<ele>2933</ele>
<time>2016-10-21T15:47:27Z</time>
</trkpt>
<trkpt lat="36.89415740966797" lon="-118.6124496459961">
<ele>2936</ele>
<time>2016-10-21T15:47:36Z</time>
</trkpt>
<trkpt lat="36.89420700073242" lon="-118.61244201660156">
<ele>2931</ele>
<time>2016-10-21T15:47:42Z</time>
</trkpt>
<trkpt lat="36.89425277709961" lon="-118.61245727539063">
<ele>2933</ele>
<time>2016-10-21T15:47:50Z</time>
</trkpt>
<trkpt lat="36.894256591796875" lon="-118.61251831054688">
<ele>2932</ele>
<time>2016-10-21T15:47:58Z</time>
</trkpt>
<trkpt lat="36.89429473876953" lon="-118.61256408691406">
<ele>2934</ele>
<time>2016-10-21T15:48:08Z</time>
</trkpt>
<trkpt lat="36.894378662109375" lon="-118.6126480102539">
<ele>2923</ele>
<time>2016-10-21T15:48:30Z</time>
</trkpt>
<trkpt lat="36.89448547363281" lon="-118.61264038085938">
<ele>2923</ele>
<time>2016-10-21T15:48:37Z</time>
</trkpt>
<trkpt lat="36.89453125" lon="-118.61268615722656">
<ele>2922</ele>
<time>2016-10-21T15:48:44Z</time>
</trkpt>
<trkpt lat="36.89457321166992" lon="-118.61278533935547">
<ele>2924</ele>
<time>2016-10-21T15:48:55Z</time>
</trkpt>
<trkpt lat="36.89461135864258" lon="-118.61283111572266">
<ele>2921</ele>
<time>2016-10-21T15:49:01Z</time>
</trkpt>
<trkpt lat="36.89470672607422" lon="-118.61285400390625">
<ele>2916</ele>
<time>2016-10-21T15:49:10Z</time>
</trkpt>
<trkpt lat="36.894813537597656" lon="-118.6128158569336">
<ele>2916</ele>
<time>2016-10-21T15:49:19Z</time>
</trkpt>
<trkpt lat="36.89491653442383" lon="-118.6128158569336">
<ele>2919</ele>
<time>2016-10-21T15:49:28Z</time>
</trkpt>
<trkpt lat="36.89501953125" lon="-118.61280822753906">
<ele>2917</ele>
<time>2016-10-21T15:49:36Z</time>
</trkpt>
<trkpt lat="36.89511489868164" lon="-118.61280059814453">
<ele>2914</ele>
<time>2016-10-21T15:49:46Z</time>
</trkpt>
<trkpt lat="36.89521026611328" lon="-118.61277770996094">
<ele>2914</ele>
<time>2016-10-21T15:49:56Z</time>
</trkpt>
<trkpt lat="36.8952522277832" lon="-118.61276245117188">
<ele>2913</ele>
<time>2016-10-21T15:50:03Z</time>
</trkpt>
<trkpt lat="36.89533615112305" lon="-118.61270141601563">
<ele>2908</ele>
<time>2016-10-21T15:50:11Z</time>
</trkpt>
<trkpt lat="36.89543151855469" lon="-118.6126480102539">
<ele>2907</ele>
<time>2016-10-21T15:50:22Z</time>
</trkpt>
<trkpt lat="36.89552688598633" lon="-118.61263275146484">
<ele>2907</ele>
<time>2016-10-21T15:50:35Z</time>
</trkpt>
<trkpt lat="36.895572662353516" lon="-118.6126480102539">
<ele>2909</ele>
<time>2016-10-21T15:50:41Z</time>
</trkpt>
<trkpt lat="36.89560317993164" lon="-118.6126937866211">
<ele>2907</ele>
<time>2016-10-21T15:50:47Z</time>
</trkpt>
<trkpt lat="36.89567947387695" lon="-118.61273193359375">
<ele>2904</ele>
<time>2016-10-21T15:50:54Z</time>
</trkpt>
<trkpt lat="36.895729064941406" lon="-118.61272430419922">
<ele>2910</ele>
<time>2016-10-21T15:51:00Z</time>
</trkpt>
<trkpt lat="36.89580535888672" lon="-118.61279296875">
<ele>2910</ele>
<time>2016-10-21T15:51:10Z</time>
</trkpt>
<trkpt lat="36.895816802978516" lon="-118.61273193359375">
<ele>2903</ele>
<time>2016-10-21T15:51:25Z</time>
</trkpt>
<trkpt lat="36.895835876464844" lon="-118.61261749267578">
<ele>2900</ele>
<time>2016-10-21T15:51:33Z</time>
</trkpt>
<trkpt lat="36.895870208740234" lon="-118.61249542236328">
<ele>2903</ele>
<time>2016-10-21T15:51:42Z</time>
</trkpt>
<trkpt lat="36.89588928222656" lon="-118.61241912841797">
<ele>2903</ele>
<time>2016-10-21T15:51:50Z</time>
</trkpt>
<trkpt lat="36.89593505859375" lon="-118.61241149902344">
<ele>2902</ele>
<time>2016-10-21T15:51:56Z</time>
</trkpt>
<trkpt lat="36.89604568481445" lon="-118.61241912841797">
<ele>2901</ele>
<time>2016-10-21T15:52:05Z</time>
</trkpt>
<trkpt lat="36.89614486694336" lon="-118.61238861083984">
<ele>2906</ele>
<time>2016-10-21T15:52:12Z</time>
</trkpt>
<trkpt lat="36.89624786376953" lon="-118.61239624023438">
<ele>2907</ele>
<time>2016-10-21T15:52:21Z</time>
</trkpt>
<trkpt lat="36.8963508605957" lon="-118.6124038696289">
<ele>2906</ele>
<time>2016-10-21T15:52:31Z</time>
</trkpt>
<trkpt lat="36.89644241333008" lon="-118.61234283447266">
<ele>2905</ele>
<time>2016-10-21T15:52:40Z</time>
</trkpt>
<trkpt lat="36.89654541015625" lon="-118.61235046386719">
<ele>2908</ele>
<time>2016-10-21T15:52:49Z</time>
</trkpt>
<trkpt lat="36.896663665771484" lon="-118.61235809326172">
<ele>2906</ele>
<time>2016-10-21T15:52:59Z</time>
</trkpt>
<trkpt lat="36.89671325683594" lon="-118.61223602294922">
<ele>2908</ele>
<time>2016-10-21T15:53:07Z</time>
</trkpt>
<trkpt lat="36.896732330322266" lon="-118.61213684082031">
<ele>2906</ele>
<time>2016-10-21T15:53:50Z</time>
</trkpt>
<trkpt lat="36.89676284790039" lon="-118.61209106445313">
<ele>2906</ele>
<time>2016-10-21T15:54:24Z</time>
</trkpt>
<trkpt lat="36.89679718017578" lon="-118.61196899414063">
<ele>2908</ele>
<time>2016-10-21T15:54:32Z</time>
</trkpt>
<trkpt lat="36.89683151245117" lon="-118.61193084716797">
<ele>2902</ele>
<time>2016-10-21T15:54:39Z</time>
</trkpt>
<trkpt lat="36.896888732910156" lon="-118.61194610595703">
<ele>2901</ele>
<time>2016-10-21T15:54:47Z</time>
</trkpt>
<trkpt lat="36.896934509277344" lon="-118.61187744140625">
<ele>2899</ele>
<time>2016-10-21T15:54:54Z</time>
</trkpt>
<trkpt lat="36.89698791503906" lon="-118.61176300048828">
<ele>2899</ele>
<time>2016-10-21T15:55:00Z</time>
</trkpt>
<trkpt lat="36.89705276489258" lon="-118.6116714477539">
<ele>2901</ele>
<time>2016-10-21T15:55:11Z</time>
</trkpt>
<trkpt lat="36.89714431762695" lon="-118.61164855957031">
<ele>2901</ele>
<time>2016-10-21T15:55:19Z</time>
</trkpt>
<trkpt lat="36.89720153808594" lon="-118.61154174804688">
<ele>2902</ele>
<time>2016-10-21T15:55:26Z</time>
</trkpt>
<trkpt lat="36.89724349975586" lon="-118.6114273071289">
<ele>2905</ele>
<time>2016-10-21T15:55:34Z</time>
</trkpt>
<trkpt lat="36.89727020263672" lon="-118.611328125">
<ele>2904</ele>
<time>2016-10-21T15:55:42Z</time>
</trkpt>
<trkpt lat="36.89735794067383" lon="-118.61127471923828">
<ele>2907</ele>
<time>2016-10-21T15:55:50Z</time>
</trkpt>
<trkpt lat="36.897457122802734" lon="-118.61132049560547">
<ele>2908</ele>
<time>2016-10-21T15:55:57Z</time>
</trkpt>
<trkpt lat="36.89750289916992" lon="-118.61131286621094">
<ele>2903</ele>
<time>2016-10-21T15:56:04Z</time>
</trkpt>
<trkpt lat="36.89760208129883" lon="-118.6113052368164">
<ele>2900</ele>
<time>2016-10-21T15:56:13Z</time>
</trkpt>
<trkpt lat="36.897701263427734" lon="-118.61128234863281">
<ele>2904</ele>
<time>2016-10-21T15:56:21Z</time>
</trkpt>
<trkpt lat="36.897804260253906" lon="-118.61125183105469">
<ele>2902</ele>
<time>2016-10-21T15:56:28Z</time>
</trkpt>
<trkpt lat="36.89789581298828" lon="-118.61124420166016">
<ele>2898</ele>
<time>2016-10-21T15:56:38Z</time>
</trkpt>
<trkpt lat="36.89799880981445" lon="-118.61127471923828">
<ele>2896</ele>
<time>2016-10-21T15:56:46Z</time>
</trkpt>
<trkpt lat="36.8980712890625" lon="-118.61132049560547">
<ele>2893</ele>
<time>2016-10-21T15:56:53Z</time>
</trkpt>
<trkpt lat="36.898155212402344" lon="-118.6113510131836">
<ele>2892</ele>
<time>2016-10-21T15:57:04Z</time>
</trkpt>
<trkpt lat="36.898250579833984" lon="-118.61126708984375">
<ele>2894</ele>
<time>2016-10-21T15:57:11Z</time>
</trkpt>
<trkpt lat="36.898338317871094" lon="-118.61119842529297">
<ele>2893</ele>
<time>2016-10-21T15:57:17Z</time>
</trkpt>
<trkpt lat="36.89841079711914" lon="-118.61111450195313">
<ele>2895</ele>
<time>2016-10-21T15:57:29Z</time>
</trkpt>
<trkpt lat="36.8984489440918" lon="-118.611083984375">
<ele>2893</ele>
<time>2016-10-21T15:57:35Z</time>
</trkpt>
<trkpt lat="36.89850997924805" lon="-118.6109848022461">
<ele>2891</ele>
<time>2016-10-21T15:57:45Z</time>
</trkpt>
<trkpt lat="36.89860534667969" lon="-118.61094665527344">
<ele>2888</ele>
<time>2016-10-21T15:57:55Z</time>
</trkpt>
<trkpt lat="36.89870071411133" lon="-118.61093139648438">
<ele>2890</ele>
<time>2016-10-21T15:58:04Z</time>
</trkpt>
<trkpt lat="36.898780822753906" lon="-118.61084747314453">
<ele>2890</ele>
<time>2016-10-21T15:58:11Z</time>
</trkpt>
<trkpt lat="36.89888381958008" lon="-118.61085510253906">
<ele>2888</ele>
<time>2016-10-21T15:58:21Z</time>
</trkpt>
<trkpt lat="36.89899444580078" lon="-118.61087036132813">
<ele>2889</ele>
<time>2016-10-21T15:58:30Z</time>
</trkpt>
<trkpt lat="36.899044036865234" lon="-118.61090087890625">
<ele>2889</ele>
<time>2016-10-21T15:58:36Z</time>
</trkpt>
<trkpt lat="36.89906311035156" lon="-118.61101531982422">
<ele>2898</ele>
<time>2016-10-21T15:58:44Z</time>
</trkpt>
<trkpt lat="36.89909362792969" lon="-118.611083984375">
<ele>2897</ele>
<time>2016-10-21T15:58:50Z</time>
</trkpt>
<trkpt lat="36.89915466308594" lon="-118.61119842529297">
<ele>2896</ele>
<time>2016-10-21T15:58:59Z</time>
</trkpt>
<trkpt lat="36.899173736572266" lon="-118.61125946044922">
<ele>2897</ele>
<time>2016-10-21T15:59:07Z</time>
</trkpt>
<trkpt lat="36.89921569824219" lon="-118.61128997802734">
<ele>2895</ele>
<time>2016-10-21T15:59:13Z</time>
</trkpt>
<trkpt lat="36.899261474609375" lon="-118.61126708984375">
<ele>2890</ele>
<time>2016-10-21T15:59:21Z</time>
</trkpt>
<trkpt lat="36.89931106567383" lon="-118.61125183105469">
<ele>2887</ele>
<time>2016-10-21T15:59:29Z</time>
</trkpt>
<trkpt lat="36.899417877197266" lon="-118.61125183105469">
<ele>2887</ele>
<time>2016-10-21T15:59:41Z</time>
</trkpt>
<trkpt lat="36.899505615234375" lon="-118.61119079589844">
<ele>2891</ele>
<time>2016-10-21T15:59:49Z</time>
</trkpt>
<trkpt lat="36.899559020996094" lon="-118.61114501953125">
<ele>2886</ele>
<time>2016-10-21T15:59:56Z</time>
</trkpt>
<trkpt lat="36.89967346191406" lon="-118.61112976074219">
<ele>2888</ele>
<time>2016-10-21T16:00:09Z</time>
</trkpt>
<trkpt lat="36.8997802734375" lon="-118.6111068725586">
<ele>2889</ele>
<time>2016-10-21T16:00:15Z</time>
</trkpt>
<trkpt lat="36.89988327026367" lon="-118.61105346679688">
<ele>2893</ele>
<time>2016-10-21T16:00:23Z</time>
</trkpt>
<trkpt lat="36.89998245239258" lon="-118.611083984375">
<ele>2895</ele>
<time>2016-10-21T16:00:29Z</time>
</trkpt>
<trkpt lat="36.90007019042969" lon="-118.61112976074219">
<ele>2893</ele>
<time>2016-10-21T16:00:38Z</time>
</trkpt>
<trkpt lat="36.9001579284668" lon="-118.61117553710938">
<ele>2894</ele>
<time>2016-10-21T16:00:47Z</time>
</trkpt>
<trkpt lat="36.900245666503906" lon="-118.61115264892578">
<ele>2890</ele>
<time>2016-10-21T16:00:53Z</time>
</trkpt>
<trkpt lat="36.900333404541016" lon="-118.61109161376953">
<ele>2887</ele>
<time>2016-10-21T16:01:00Z</time>
</trkpt>
<trkpt lat="36.90044021606445" lon="-118.61104583740234">
<ele>2890</ele>
<time>2016-10-21T16:01:09Z</time>
</trkpt>
<trkpt lat="36.900543212890625" lon="-118.61103057861328">
<ele>2886</ele>
<time>2016-10-21T16:01:19Z</time>
</trkpt>
<trkpt lat="36.90058898925781" lon="-118.61103820800781">
<ele>2884</ele>
<time>2016-10-21T16:01:26Z</time>
</trkpt>
<trkpt lat="36.900699615478516" lon="-118.61101531982422">
<ele>2883</ele>
<time>2016-10-21T16:01:34Z</time>
</trkpt>
<trkpt lat="36.90079879760742" lon="-118.6109619140625">
<ele>2878</ele>
<time>2016-10-21T16:01:41Z</time>
</trkpt>
<trkpt lat="36.90089797973633" lon="-118.61099243164063">
<ele>2881</ele>
<time>2016-10-21T16:01:49Z</time>
</trkpt>
<trkpt lat="36.900997161865234" lon="-118.6109848022461">
<ele>2882</ele>
<time>2016-10-21T16:01:57Z</time>
</trkpt>
<trkpt lat="36.90108108520508" lon="-118.61094665527344">
<ele>2884</ele>
<time>2016-10-21T16:02:05Z</time>
</trkpt>
<trkpt lat="36.90116882324219" lon="-118.61102294921875">
<ele>2884</ele>
<time>2016-10-21T16:02:11Z</time>
</trkpt>
<trkpt lat="36.90126037597656" lon="-118.61109924316406">
<ele>2884</ele>
<time>2016-10-21T16:02:18Z</time>
</trkpt>
<trkpt lat="36.901329040527344" lon="-118.61119079589844">
<ele>2885</ele>
<time>2016-10-21T16:02:28Z</time>
</trkpt>
<trkpt lat="36.90142822265625" lon="-118.6112060546875">
<ele>2888</ele>
<time>2016-10-21T16:02:39Z</time>
</trkpt>
<trkpt lat="36.90148162841797" lon="-118.61117553710938">
<ele>2884</ele>
<time>2016-10-21T16:02:45Z</time>
</trkpt>
<trkpt lat="36.90156936645508" lon="-118.61112976074219">
<ele>2880</ele>
<time>2016-10-21T16:02:55Z</time>
</trkpt>
<trkpt lat="36.90166091918945" lon="-118.61113739013672">
<ele>2879</ele>
<time>2016-10-21T16:03:06Z</time>
</trkpt>
<trkpt lat="36.901763916015625" lon="-118.61109161376953">
<ele>2877</ele>
<time>2016-10-21T16:03:15Z</time>
</trkpt>
<trkpt lat="36.9018669128418" lon="-118.61109924316406">
<ele>2880</ele>
<time>2016-10-21T16:03:24Z</time>
</trkpt>
<trkpt lat="36.9019660949707" lon="-118.611083984375">
<ele>2880</ele>
<time>2016-10-21T16:03:37Z</time>
</trkpt>
<trkpt lat="36.90202331542969" lon="-118.61109161376953">
<ele>2878</ele>
<time>2016-10-21T16:03:43Z</time>
</trkpt>
<trkpt lat="36.902069091796875" lon="-118.6111831665039">
<ele>2874</ele>
<time>2016-10-21T16:03:50Z</time>
</trkpt>
<trkpt lat="36.902130126953125" lon="-118.61128997802734">
<ele>2873</ele>
<time>2016-10-21T16:04:03Z</time>
</trkpt>
<trkpt lat="36.90209197998047" lon="-118.61141204833984">
<ele>2874</ele>
<time>2016-10-21T16:04:11Z</time>
</trkpt>
<trkpt lat="36.90205383300781" lon="-118.61152648925781">
<ele>2874</ele>
<time>2016-10-21T16:04:21Z</time>
</trkpt>
<trkpt lat="36.90211868286133" lon="-118.61161804199219">
<ele>2868</ele>
<time>2016-10-21T16:04:35Z</time>
</trkpt>
<trkpt lat="36.902191162109375" lon="-118.61164855957031">
<ele>2870</ele>
<time>2016-10-21T16:04:55Z</time>
</trkpt>
<trkpt lat="36.902225494384766" lon="-118.6116943359375">
<ele>2871</ele>
<time>2016-10-21T16:05:01Z</time>
</trkpt>
<trkpt lat="36.90230941772461" lon="-118.61176300048828">
<ele>2871</ele>
<time>2016-10-21T16:05:11Z</time>
</trkpt>
<trkpt lat="36.90242004394531" lon="-118.6117935180664">
<ele>2872</ele>
<time>2016-10-21T16:05:20Z</time>
</trkpt>
<trkpt lat="36.90248107910156" lon="-118.61188507080078">
<ele>2871</ele>
<time>2016-10-21T16:05:29Z</time>
</trkpt>
<trkpt lat="36.902530670166016" lon="-118.61186981201172">
<ele>2871</ele>
<time>2016-10-21T16:05:38Z</time>
</trkpt>
<trkpt lat="36.902626037597656" lon="-118.61181640625">
<ele>2874</ele>
<time>2016-10-21T16:05:45Z</time>
</trkpt>
<trkpt lat="36.90272903442383" lon="-118.61176300048828">
<ele>2866</ele>
<time>2016-10-21T16:05:56Z</time>
</trkpt>
<trkpt lat="36.90277862548828" lon="-118.61174774169922">
<ele>2861</ele>
<time>2016-10-21T16:06:15Z</time>
</trkpt>
<trkpt lat="36.902862548828125" lon="-118.6116714477539">
<ele>2858</ele>
<time>2016-10-21T16:06:24Z</time>
</trkpt>
<trkpt lat="36.9029426574707" lon="-118.6115951538086">
<ele>2852</ele>
<time>2016-10-21T16:06:33Z</time>
</trkpt>
<trkpt lat="36.902992248535156" lon="-118.61160278320313">
<ele>2856</ele>
<time>2016-10-21T16:06:42Z</time>
</trkpt>
<trkpt lat="36.903038024902344" lon="-118.61162567138672">
<ele>2862</ele>
<time>2016-10-21T16:06:49Z</time>
</trkpt>
<trkpt lat="36.90314483642578" lon="-118.61160278320313">
<ele>2862</ele>
<time>2016-10-21T16:06:56Z</time>
</trkpt>
<trkpt lat="36.90324783325195" lon="-118.61161041259766">
<ele>2864</ele>
<time>2016-10-21T16:07:05Z</time>
</trkpt>
<trkpt lat="36.90333557128906" lon="-118.61158752441406">
<ele>2864</ele>
<time>2016-10-21T16:07:13Z</time>
</trkpt>
<trkpt lat="36.90338897705078" lon="-118.61157989501953">
<ele>2861</ele>
<time>2016-10-21T16:07:21Z</time>
</trkpt>
<trkpt lat="36.903465270996094" lon="-118.61150360107422">
<ele>2856</ele>
<time>2016-10-21T16:07:29Z</time>
</trkpt>
<trkpt lat="36.903560638427734" lon="-118.61150360107422">
<ele>2858</ele>
<time>2016-10-21T16:07:37Z</time>
</trkpt>
<trkpt lat="36.90361022949219" lon="-118.61151885986328">
<ele>2852</ele>
<time>2016-10-21T16:07:43Z</time>
</trkpt>
<trkpt lat="36.90367126464844" lon="-118.61144256591797">
<ele>2858</ele>
<time>2016-10-21T16:07:58Z</time>
</trkpt>
<trkpt lat="36.90373611450195" lon="-118.61135864257813">
<ele>2853</ele>
<time>2016-10-21T16:08:10Z</time>
</trkpt>
<trkpt lat="36.90378952026367" lon="-118.61133575439453">
<ele>2855</ele>
<time>2016-10-21T16:08:16Z</time>
</trkpt>
<trkpt lat="36.90382766723633" lon="-118.61136627197266">
<ele>2858</ele>
<time>2016-10-21T16:08:22Z</time>
</trkpt>
<trkpt lat="36.9039306640625" lon="-118.61138153076172">
<ele>2865</ele>
<time>2016-10-21T16:08:31Z</time>
</trkpt>
<trkpt lat="36.90403747558594" lon="-118.61136627197266">
<ele>2869</ele>
<time>2016-10-21T16:08:41Z</time>
</trkpt>
<trkpt lat="36.904090881347656" lon="-118.61138153076172">
<ele>2869</ele>
<time>2016-10-21T16:08:49Z</time>
</trkpt>
<trkpt lat="36.90420150756836" lon="-118.61138153076172">
<ele>2869</ele>
<time>2016-10-21T16:08:56Z</time>
</trkpt>
<trkpt lat="36.90430450439453" lon="-118.61135864257813">
<ele>2871</ele>
<time>2016-10-21T16:09:03Z</time>
</trkpt>
<trkpt lat="36.90440368652344" lon="-118.61138153076172">
<ele>2869</ele>
<time>2016-10-21T16:09:12Z</time>
</trkpt>
<trkpt lat="36.90449905395508" lon="-118.6114273071289">
<ele>2867</ele>
<time>2016-10-21T16:09:19Z</time>
</trkpt>
<trkpt lat="36.90457534790039" lon="-118.61135864257813">
<ele>2864</ele>
<time>2016-10-21T16:09:26Z</time>
</trkpt>
<trkpt lat="36.904659271240234" lon="-118.61131286621094">
<ele>2861</ele>
<time>2016-10-21T16:09:36Z</time>
</trkpt>
<trkpt lat="36.904701232910156" lon="-118.61134338378906">
<ele>2862</ele>
<time>2016-10-21T16:09:42Z</time>
</trkpt>
<trkpt lat="36.90476608276367" lon="-118.61138153076172">
<ele>2862</ele>
<time>2016-10-21T16:09:50Z</time>
</trkpt>
<trkpt lat="36.90481948852539" lon="-118.61138916015625">
<ele>2859</ele>
<time>2016-10-21T16:09:59Z</time>
</trkpt>
<trkpt lat="36.904869079589844" lon="-118.61139678955078">
<ele>2863</ele>
<time>2016-10-21T16:10:05Z</time>
</trkpt>
<trkpt lat="36.904964447021484" lon="-118.61141967773438">
<ele>2867</ele>
<time>2016-10-21T16:10:11Z</time>
</trkpt>
<trkpt lat="36.90501022338867" lon="-118.61144256591797">
<ele>2861</ele>
<time>2016-10-21T16:10:19Z</time>
</trkpt>
<trkpt lat="36.90495681762695" lon="-118.61137390136719">
<ele>2855</ele>
<time>2016-10-21T16:11:01Z</time>
</trkpt>
<trkpt lat="36.90497970581055" lon="-118.61143493652344">
<ele>2859</ele>
<time>2016-10-21T16:11:29Z</time>
</trkpt>
<trkpt lat="36.90507888793945" lon="-118.61140441894531">
<ele>2860</ele>
<time>2016-10-21T16:11:36Z</time>
</trkpt>
<trkpt lat="36.905174255371094" lon="-118.61139678955078">
<ele>2861</ele>
<time>2016-10-21T16:11:44Z</time>
</trkpt>
<trkpt lat="36.90526580810547" lon="-118.61139678955078">
<ele>2859</ele>
<time>2016-10-21T16:11:50Z</time>
</trkpt>
<trkpt lat="36.905364990234375" lon="-118.61136627197266">
<ele>2859</ele>
<time>2016-10-21T16:11:58Z</time>
</trkpt>
<trkpt lat="36.905460357666016" lon="-118.61135864257813">
<ele>2859</ele>
<time>2016-10-21T16:12:04Z</time>
</trkpt>
<trkpt lat="36.905574798583984" lon="-118.61137390136719">
<ele>2860</ele>
<time>2016-10-21T16:12:12Z</time>
</trkpt>
<trkpt lat="36.90567398071289" lon="-118.61136627197266">
<ele>2860</ele>
<time>2016-10-21T16:12:21Z</time>
</trkpt>
<trkpt lat="36.905765533447266" lon="-118.6113052368164">
<ele>2860</ele>
<time>2016-10-21T16:12:27Z</time>
</trkpt>
<trkpt lat="36.90580368041992" lon="-118.61125946044922">
<ele>2858</ele>
<time>2016-10-21T16:12:40Z</time>
</trkpt>
<trkpt lat="36.90589904785156" lon="-118.61125946044922">
<ele>2860</ele>
<time>2016-10-21T16:12:48Z</time>
</trkpt>
<trkpt lat="36.906009674072266" lon="-118.6112289428711">
<ele>2862</ele>
<time>2016-10-21T16:12:57Z</time>
</trkpt>
<trkpt lat="36.90616226196289" lon="-118.61131286621094">
<ele>2868</ele>
<time>2016-10-21T16:13:05Z</time>
</trkpt>
<trkpt lat="36.90626525878906" lon="-118.61132049560547">
<ele>2869</ele>
<time>2016-10-21T16:13:11Z</time>
</trkpt>
<trkpt lat="36.906314849853516" lon="-118.61132049560547">
<ele>2869</ele>
<time>2016-10-21T16:13:17Z</time>
</trkpt>
<trkpt lat="36.906368255615234" lon="-118.61128234863281">
<ele>2866</ele>
<time>2016-10-21T16:13:23Z</time>
</trkpt>
<trkpt lat="36.90645980834961" lon="-118.61124420166016">
<ele>2861</ele>
<time>2016-10-21T16:13:32Z</time>
</trkpt>
<trkpt lat="36.906551361083984" lon="-118.61119842529297">
<ele>2861</ele>
<time>2016-10-21T16:13:41Z</time>
</trkpt>
<trkpt lat="36.90664291381836" lon="-118.61116027832031">
<ele>2860</ele>
<time>2016-10-21T16:13:50Z</time>
</trkpt>
<trkpt lat="36.906742095947266" lon="-118.61111450195313">
<ele>2866</ele>
<time>2016-10-21T16:14:03Z</time>
</trkpt>
<trkpt lat="36.90682601928711" lon="-118.61104583740234">
<ele>2870</ele>
<time>2016-10-21T16:14:09Z</time>
</trkpt>
<trkpt lat="36.90692138671875" lon="-118.6109848022461">
<ele>2866</ele>
<time>2016-10-21T16:14:17Z</time>
</trkpt>
<trkpt lat="36.90701675415039" lon="-118.61099243164063">
<ele>2866</ele>
<time>2016-10-21T16:14:29Z</time>
</trkpt>
<trkpt lat="36.9070930480957" lon="-118.61093139648438">
<ele>2871</ele>
<time>2016-10-21T16:14:38Z</time>
</trkpt>
<trkpt lat="36.90719985961914" lon="-118.61094665527344">
<ele>2873</ele>
<time>2016-10-21T16:14:47Z</time>
</trkpt>
<trkpt lat="36.90727996826172" lon="-118.61094665527344">
<ele>2870</ele>
<time>2016-10-21T16:14:56Z</time>
</trkpt>
<trkpt lat="36.9073600769043" lon="-118.6108627319336">
<ele>2869</ele>
<time>2016-10-21T16:15:06Z</time>
</trkpt>
<trkpt lat="36.907413482666016" lon="-118.61077880859375">
<ele>2865</ele>
<time>2016-10-21T16:15:14Z</time>
</trkpt>
<trkpt lat="36.90742874145508" lon="-118.6107177734375">
<ele>2866</ele>
<time>2016-10-21T16:15:20Z</time>
</trkpt>
<trkpt lat="36.907470703125" lon="-118.61068725585938">
<ele>2863</ele>
<time>2016-10-21T16:15:30Z</time>
</trkpt>
<trkpt lat="36.907508850097656" lon="-118.61064910888672">
<ele>2867</ele>
<time>2016-10-21T16:15:36Z</time>
</trkpt>
<trkpt lat="36.90761947631836" lon="-118.61064147949219">
<ele>2877</ele>
<time>2016-10-21T16:15:45Z</time>
</trkpt>
<trkpt lat="36.90768814086914" lon="-118.61054992675781">
<ele>2871</ele>
<time>2016-10-21T16:15:55Z</time>
</trkpt>
<trkpt lat="36.90776062011719" lon="-118.61044311523438">
<ele>2878</ele>
<time>2016-10-21T16:16:02Z</time>
</trkpt>
<trkpt lat="36.90776824951172" lon="-118.61032104492188">
<ele>2866</ele>
<time>2016-10-21T16:16:12Z</time>
</trkpt>
<trkpt lat="36.90784454345703" lon="-118.6102294921875">
<ele>2865</ele>
<time>2016-10-21T16:16:22Z</time>
</trkpt>
<trkpt lat="36.90793228149414" lon="-118.61016845703125">
<ele>2865</ele>
<time>2016-10-21T16:16:31Z</time>
</trkpt>
<trkpt lat="36.90798568725586" lon="-118.61015319824219">
<ele>2861</ele>
<time>2016-10-21T16:16:37Z</time>
</trkpt>
<trkpt lat="36.9080810546875" lon="-118.61011505126953">
<ele>2865</ele>
<time>2016-10-21T16:16:46Z</time>
</trkpt>
<trkpt lat="36.90814971923828" lon="-118.61006927490234">
<ele>2862</ele>
<time>2016-10-21T16:16:55Z</time>
</trkpt>
<trkpt lat="36.90824508666992" lon="-118.6100082397461">
<ele>2857</ele>
<time>2016-10-21T16:17:04Z</time>
</trkpt>
<trkpt lat="36.9083366394043" lon="-118.60995483398438">
<ele>2858</ele>
<time>2016-10-21T16:17:14Z</time>
</trkpt>
<trkpt lat="36.90849685668945" lon="-118.60997009277344">
<ele>2861</ele>
<time>2016-10-21T16:17:22Z</time>
</trkpt>
<trkpt lat="36.908546447753906" lon="-118.6099853515625">
<ele>2862</ele>
<time>2016-10-21T16:17:31Z</time>
</trkpt>
<trkpt lat="36.908653259277344" lon="-118.61001586914063">
<ele>2861</ele>
<time>2016-10-21T16:17:39Z</time>
</trkpt>
<trkpt lat="36.90873718261719" lon="-118.60997772216797">
<ele>2865</ele>
<time>2016-10-21T16:17:47Z</time>
</trkpt>
<trkpt lat="36.9088020324707" lon="-118.60989379882813">
<ele>2864</ele>
<time>2016-10-21T16:17:54Z</time>
</trkpt>
<trkpt lat="36.90890121459961" lon="-118.60990142822266">
<ele>2865</ele>
<time>2016-10-21T16:18:02Z</time>
</trkpt>
<trkpt lat="36.90894317626953" lon="-118.60990142822266">
<ele>2861</ele>
<time>2016-10-21T16:18:08Z</time>
</trkpt>
<trkpt lat="36.90903854370117" lon="-118.60987091064453">
<ele>2861</ele>
<time>2016-10-21T16:18:15Z</time>
</trkpt>
<trkpt lat="36.90909957885742" lon="-118.60977172851563">
<ele>2852</ele>
<time>2016-10-21T16:18:24Z</time>
</trkpt>
<trkpt lat="36.90914535522461" lon="-118.60975646972656">
<ele>2851</ele>
<time>2016-10-21T16:18:30Z</time>
</trkpt>
<trkpt lat="36.909244537353516" lon="-118.6097640991211">
<ele>2853</ele>
<time>2016-10-21T16:18:39Z</time>
</trkpt>
<trkpt lat="36.90928649902344" lon="-118.6097412109375">
<ele>2852</ele>
<time>2016-10-21T16:18:47Z</time>
</trkpt>
<trkpt lat="36.90935516357422" lon="-118.60971069335938">
<ele>2849</ele>
<time>2016-10-21T16:18:54Z</time>
</trkpt>
<trkpt lat="36.909423828125" lon="-118.60964965820313">
<ele>2846</ele>
<time>2016-10-21T16:19:01Z</time>
</trkpt>
<trkpt lat="36.90947723388672" lon="-118.60954284667969">
<ele>2841</ele>
<time>2016-10-21T16:19:08Z</time>
</trkpt>
<trkpt lat="36.90956115722656" lon="-118.60948944091797">
<ele>2846</ele>
<time>2016-10-21T16:19:18Z</time>
</trkpt>
<trkpt lat="36.90964126586914" lon="-118.60941314697266">
<ele>2843</ele>
<time>2016-10-21T16:19:25Z</time>
</trkpt>
<trkpt lat="36.90969467163086" lon="-118.60942077636719">
<ele>2842</ele>
<time>2016-10-21T16:19:31Z</time>
</trkpt>
<trkpt lat="36.9097900390625" lon="-118.60936737060547">
<ele>2839</ele>
<time>2016-10-21T16:19:39Z</time>
</trkpt>
<trkpt lat="36.909881591796875" lon="-118.60930633544922">
<ele>2842</ele>
<time>2016-10-21T16:19:45Z</time>
</trkpt>
<trkpt lat="36.90999984741211" lon="-118.60930633544922">
<ele>2848</ele>
<time>2016-10-21T16:19:52Z</time>
</trkpt>
<trkpt lat="36.91011047363281" lon="-118.60929870605469">
<ele>2847</ele>
<time>2016-10-21T16:19:59Z</time>
</trkpt>
<trkpt lat="36.910152435302734" lon="-118.6092758178711">
<ele>2847</ele>
<time>2016-10-21T16:20:06Z</time>
</trkpt>
<trkpt lat="36.91019058227539" lon="-118.60922241210938">
<ele>2846</ele>
<time>2016-10-21T16:20:12Z</time>
</trkpt>
<trkpt lat="36.910247802734375" lon="-118.60914611816406">
<ele>2849</ele>
<time>2016-10-21T16:20:22Z</time>
</trkpt>
<trkpt lat="36.910316467285156" lon="-118.60906982421875">
<ele>2850</ele>
<time>2016-10-21T16:20:30Z</time>
</trkpt>
<trkpt lat="36.910404205322266" lon="-118.60900115966797">
<ele>2849</ele>
<time>2016-10-21T16:20:38Z</time>
</trkpt>
<trkpt lat="36.91042709350586" lon="-118.60895538330078">
<ele>2850</ele>
<time>2016-10-21T16:20:44Z</time>
</trkpt>
<trkpt lat="36.910465240478516" lon="-118.60888671875">
<ele>2851</ele>
<time>2016-10-21T16:20:50Z</time>
</trkpt>
<trkpt lat="36.910499572753906" lon="-118.60875701904297">
<ele>2851</ele>
<time>2016-10-21T16:20:57Z</time>
</trkpt>
<trkpt lat="36.91056442260742" lon="-118.60865020751953">
<ele>2850</ele>
<time>2016-10-21T16:21:03Z</time>
</trkpt>
<trkpt lat="36.91059494018555" lon="-118.60860443115234">
<ele>2844</ele>
<time>2016-10-21T16:21:09Z</time>
</trkpt>
<trkpt lat="36.91065979003906" lon="-118.6085205078125">
<ele>2848</ele>
<time>2016-10-21T16:21:18Z</time>
</trkpt>
<trkpt lat="36.91071319580078" lon="-118.60841369628906">
<ele>2848</ele>
<time>2016-10-21T16:21:26Z</time>
</trkpt>
<trkpt lat="36.910743713378906" lon="-118.60829162597656">
<ele>2844</ele>
<time>2016-10-21T16:21:39Z</time>
</trkpt>
<trkpt lat="36.91078186035156" lon="-118.60824584960938">
<ele>2843</ele>
<time>2016-10-21T16:21:46Z</time>
</trkpt>
<trkpt lat="36.91090393066406" lon="-118.60820770263672">
<ele>2845</ele>
<time>2016-10-21T16:21:54Z</time>
</trkpt>
<trkpt lat="36.9109992980957" lon="-118.60818481445313">
<ele>2847</ele>
<time>2016-10-21T16:22:01Z</time>
</trkpt>
<trkpt lat="36.911102294921875" lon="-118.60814666748047">
<ele>2849</ele>
<time>2016-10-21T16:22:09Z</time>
</trkpt>
<trkpt lat="36.91118621826172" lon="-118.60807800292969">
<ele>2850</ele>
<time>2016-10-21T16:22:18Z</time>
</trkpt>
<trkpt lat="36.911285400390625" lon="-118.60803985595703">
<ele>2850</ele>
<time>2016-10-21T16:22:27Z</time>
</trkpt>
<trkpt lat="36.91136169433594" lon="-118.60794830322266">
<ele>2853</ele>
<time>2016-10-21T16:22:35Z</time>
</trkpt>
<trkpt lat="36.91136169433594" lon="-118.60781860351563">
<ele>2843</ele>
<time>2016-10-21T16:22:46Z</time>
</trkpt>
<trkpt lat="36.911373138427734" lon="-118.60770416259766">
<ele>2840</ele>
<time>2016-10-21T16:22:56Z</time>
</trkpt>
<trkpt lat="36.911460876464844" lon="-118.60758972167969">
<ele>2843</ele>
<time>2016-10-21T16:23:02Z</time>
</trkpt>
<trkpt lat="36.91156005859375" lon="-118.60753631591797">
<ele>2845</ele>
<time>2016-10-21T16:23:11Z</time>
</trkpt>
<trkpt lat="36.91165542602539" lon="-118.60752868652344">
<ele>2849</ele>
<time>2016-10-21T16:23:18Z</time>
</trkpt>
<trkpt lat="36.91169357299805" lon="-118.60748291015625">
<ele>2852</ele>
<time>2016-10-21T16:23:26Z</time>
</trkpt>
<trkpt lat="36.91178512573242" lon="-118.6074447631836">
<ele>2855</ele>
<time>2016-10-21T16:23:34Z</time>
</trkpt>
<trkpt lat="36.91188049316406" lon="-118.60742950439453">
<ele>2853</ele>
<time>2016-10-21T16:23:41Z</time>
</trkpt>
<trkpt lat="36.91201400756836" lon="-118.607421875">
<ele>2857</ele>
<time>2016-10-21T16:23:49Z</time>
</trkpt>
<trkpt lat="36.91206741333008" lon="-118.60745239257813">
<ele>2857</ele>
<time>2016-10-21T16:23:57Z</time>
</trkpt>
<trkpt lat="36.91217041015625" lon="-118.6074447631836">
<ele>2859</ele>
<time>2016-10-21T16:24:06Z</time>
</trkpt>
<trkpt lat="36.91225814819336" lon="-118.60746002197266">
<ele>2859</ele>
<time>2016-10-21T16:24:16Z</time>
</trkpt>
<trkpt lat="36.912349700927734" lon="-118.60746765136719">
<ele>2859</ele>
<time>2016-10-21T16:24:22Z</time>
</trkpt>
<trkpt lat="36.912437438964844" lon="-118.60751342773438">
<ele>2860</ele>
<time>2016-10-21T16:24:29Z</time>
</trkpt>
<trkpt lat="36.912540435791016" lon="-118.60755920410156">
<ele>2866</ele>
<time>2016-10-21T16:24:37Z</time>
</trkpt>
<trkpt lat="36.91264343261719" lon="-118.60759735107422">
<ele>2868</ele>
<time>2016-10-21T16:24:46Z</time>
</trkpt>
<trkpt lat="36.9127311706543" lon="-118.60763549804688">
<ele>2870</ele>
<time>2016-10-21T16:24:55Z</time>
</trkpt>
<trkpt lat="36.91282653808594" lon="-118.60762023925781">
<ele>2868</ele>
<time>2016-10-21T16:25:03Z</time>
</trkpt>
<trkpt lat="36.91291046142578" lon="-118.60755157470703">
<ele>2865</ele>
<time>2016-10-21T16:25:14Z</time>
</trkpt>
<trkpt lat="36.91294860839844" lon="-118.6075210571289">
<ele>2866</ele>
<time>2016-10-21T16:25:22Z</time>
</trkpt>
<trkpt lat="36.913002014160156" lon="-118.60752868652344">
<ele>2865</ele>
<time>2016-10-21T16:25:29Z</time>
</trkpt>
<trkpt lat="36.913082122802734" lon="-118.60742950439453">
<ele>2866</ele>
<time>2016-10-21T16:25:35Z</time>
</trkpt>
<trkpt lat="36.91316223144531" lon="-118.60736846923828">
<ele>2864</ele>
<time>2016-10-21T16:25:49Z</time>
</trkpt>
<trkpt lat="36.91325759887695" lon="-118.60733795166016">
<ele>2862</ele>
<time>2016-10-21T16:25:58Z</time>
</trkpt>
<trkpt lat="36.91334915161133" lon="-118.60728454589844">
<ele>2866</ele>
<time>2016-10-21T16:26:05Z</time>
</trkpt>
<trkpt lat="36.91344451904297" lon="-118.60722351074219">
<ele>2862</ele>
<time>2016-10-21T16:26:16Z</time>
</trkpt>
<trkpt lat="36.91353988647461" lon="-118.60719299316406">
<ele>2862</ele>
<time>2016-10-21T16:26:24Z</time>
</trkpt>
<trkpt lat="36.91365051269531" lon="-118.60720825195313">
<ele>2866</ele>
<time>2016-10-21T16:26:31Z</time>
</trkpt>
<trkpt lat="36.913726806640625" lon="-118.6072769165039">
<ele>2870</ele>
<time>2016-10-21T16:26:38Z</time>
</trkpt>
<trkpt lat="36.913780212402344" lon="-118.60728454589844">
<ele>2869</ele>
<time>2016-10-21T16:26:44Z</time>
</trkpt>
<trkpt lat="36.91383361816406" lon="-118.60722351074219">
<ele>2869</ele>
<time>2016-10-21T16:26:59Z</time>
</trkpt>
<trkpt lat="36.913875579833984" lon="-118.60712432861328">
<ele>2870</ele>
<time>2016-10-21T16:27:09Z</time>
</trkpt>
<trkpt lat="36.91398239135742" lon="-118.60710906982422">
<ele>2872</ele>
<time>2016-10-21T16:27:16Z</time>
</trkpt>
<trkpt lat="36.9140739440918" lon="-118.60710906982422">
<ele>2862</ele>
<time>2016-10-21T16:27:29Z</time>
</trkpt>
<trkpt lat="36.91411590576172" lon="-118.60709381103516">
<ele>2860</ele>
<time>2016-10-21T16:27:36Z</time>
</trkpt>
<trkpt lat="36.914161682128906" lon="-118.60707092285156">
<ele>2859</ele>
<time>2016-10-21T16:27:45Z</time>
</trkpt>
<trkpt lat="36.91423034667969" lon="-118.60699462890625">
<ele>2859</ele>
<time>2016-10-21T16:27:57Z</time>
</trkpt>
<trkpt lat="36.9143180847168" lon="-118.60701751708984">
<ele>2860</ele>
<time>2016-10-21T16:28:16Z</time>
</trkpt>
<trkpt lat="36.91436004638672" lon="-118.60699462890625">
<ele>2861</ele>
<time>2016-10-21T16:28:37Z</time>
</trkpt>
<trkpt lat="36.914466857910156" lon="-118.60697937011719">
<ele>2869</ele>
<time>2016-10-21T16:28:46Z</time>
</trkpt>
<trkpt lat="36.91458511352539" lon="-118.60698699951172">
<ele>2877</ele>
<time>2016-10-21T16:28:55Z</time>
</trkpt>
<trkpt lat="36.91460037231445" lon="-118.60691833496094">
<ele>2876</ele>
<time>2016-10-21T16:29:06Z</time>
</trkpt>
<trkpt lat="36.914581298828125" lon="-118.60687255859375">
<ele>2873</ele>
<time>2016-10-21T16:29:14Z</time>
</trkpt>
<trkpt lat="36.914546966552734" lon="-118.60682678222656">
<ele>2870</ele>
<time>2016-10-21T16:29:22Z</time>
</trkpt>
<trkpt lat="36.91450500488281" lon="-118.60679626464844">
<ele>2866</ele>
<time>2016-10-21T16:29:28Z</time>
</trkpt>
<trkpt lat="36.91445541381836" lon="-118.60676574707031">
<ele>2861</ele>
<time>2016-10-21T16:29:34Z</time>
</trkpt>
<trkpt lat="36.91438293457031" lon="-118.606689453125">
<ele>2863</ele>
<time>2016-10-21T16:29:44Z</time>
</trkpt>
<trkpt lat="36.91433334350586" lon="-118.60665893554688">
<ele>2862</ele>
<time>2016-10-21T16:29:50Z</time>
</trkpt>
<trkpt lat="36.9142951965332" lon="-118.60655212402344">
<ele>2867</ele>
<time>2016-10-21T16:30:01Z</time>
</trkpt>
<trkpt lat="36.91428756713867" lon="-118.60647583007813">
<ele>2876</ele>
<time>2016-10-21T16:30:07Z</time>
</trkpt>
<trkpt lat="36.91426467895508" lon="-118.60636138916016">
<ele>2882</ele>
<time>2016-10-21T16:30:18Z</time>
</trkpt>
<trkpt lat="36.91425323486328" lon="-118.60629272460938">
<ele>2885</ele>
<time>2016-10-21T16:30:24Z</time>
</trkpt>
<trkpt lat="36.91424560546875" lon="-118.60623168945313">
<ele>2886</ele>
<time>2016-10-21T16:30:32Z</time>
</trkpt>
<trkpt lat="36.9143180847168" lon="-118.60619354248047">
<ele>2888</ele>
<time>2016-10-21T16:31:03Z</time>
</trkpt>
<trkpt lat="36.91427230834961" lon="-118.60615539550781">
<ele>2886</ele>
<time>2016-10-21T16:31:49Z</time>
</trkpt>
<trkpt lat="36.914276123046875" lon="-118.60608673095703">
<ele>2871</ele>
<time>2016-10-21T16:32:00Z</time>
</trkpt>
<trkpt lat="36.914329528808594" lon="-118.60609436035156">
<ele>2874</ele>
<time>2016-10-21T16:32:14Z</time>
</trkpt>
<trkpt lat="36.9143180847168" lon="-118.60604095458984">
<ele>2888</ele>
<time>2016-10-21T16:33:50Z</time>
</trkpt>
</trkseg>
</trk>
<trk>
<name><![CDATA[10210938]]></name>
<number>57</number>
<extensions><topografix:color>ff000066</topografix:color></extensions>
<trkseg>
<trkpt lat="36.9143180847168" lon="-118.60613250732422">
<ele>2886</ele>
<time>2016-10-21T16:38:44Z</time>
</trkpt>
<trkpt lat="36.91427230834961" lon="-118.60615539550781">
<ele>2910</ele>
<time>2016-10-21T16:41:47Z</time>
</trkpt>
<trkpt lat="36.91431427001953" lon="-118.60613250732422">
<ele>2901</ele>
<time>2016-10-21T16:42:19Z</time>
</trkpt>
<trkpt lat="36.914337158203125" lon="-118.6060791015625">
<ele>2901</ele>
<time>2016-10-21T16:42:25Z</time>
</trkpt>
<trkpt lat="36.914363861083984" lon="-118.60603332519531">
<ele>2901</ele>
<time>2016-10-21T16:42:48Z</time>
</trkpt>
<trkpt lat="36.91434097290039" lon="-118.60608673095703">
<ele>2904</ele>
<time>2016-10-21T16:43:40Z</time>
</trkpt>
<trkpt lat="36.91428756713867" lon="-118.60612487792969">
<ele>2905</ele>
<time>2016-10-21T16:43:57Z</time>
</trkpt>
<trkpt lat="36.91431427001953" lon="-118.60604858398438">
<ele>2893</ele>
<time>2016-10-21T16:45:00Z</time>
</trkpt>
<trkpt lat="36.914329528808594" lon="-118.60599517822266">
<ele>2896</ele>
<time>2016-10-21T16:45:06Z</time>
</trkpt>
<trkpt lat="36.91432189941406" lon="-118.60594177246094">
<ele>2894</ele>
<time>2016-10-21T16:45:12Z</time>
</trkpt>
<trkpt lat="36.9143180847168" lon="-118.60588073730469">
<ele>2894</ele>
<time>2016-10-21T16:45:18Z</time>
</trkpt>
<trkpt lat="36.91428756713867" lon="-118.60575866699219">
<ele>2896</ele>
<time>2016-10-21T16:45:28Z</time>
</trkpt>
<trkpt lat="36.914249420166016" lon="-118.60572052001953">
<ele>2898</ele>
<time>2016-10-21T16:45:34Z</time>
</trkpt>
<trkpt lat="36.914207458496094" lon="-118.60569763183594">
<ele>2901</ele>
<time>2016-10-21T16:45:40Z</time>
</trkpt>
<trkpt lat="36.914161682128906" lon="-118.60560607910156">
<ele>2898</ele>
<time>2016-10-21T16:45:51Z</time>
</trkpt>
<trkpt lat="36.914119720458984" lon="-118.6055679321289">
<ele>2905</ele>
<time>2016-10-21T16:46:03Z</time>
</trkpt>
<trkpt lat="36.914161682128906" lon="-118.6055908203125">
<ele>2909</ele>
<time>2016-10-21T16:46:09Z</time>
</trkpt>
<trkpt lat="36.91420364379883" lon="-118.60562133789063">
<ele>2909</ele>
<time>2016-10-21T16:46:15Z</time>
</trkpt>
<trkpt lat="36.91416549682617" lon="-118.6055908203125">
<ele>2909</ele>
<time>2016-10-21T16:46:27Z</time>
</trkpt>
<trkpt lat="36.91413497924805" lon="-118.60549926757813">
<ele>2911</ele>
<time>2016-10-21T16:46:38Z</time>
</trkpt>
<trkpt lat="36.91422653198242" lon="-118.6054916381836">
<ele>2910</ele>
<time>2016-10-21T16:46:49Z</time>
</trkpt>
<trkpt lat="36.914302825927734" lon="-118.60556030273438">
<ele>2914</ele>
<time>2016-10-21T16:47:00Z</time>
</trkpt>
<trkpt lat="36.91435241699219" lon="-118.6055679321289">
<ele>2916</ele>
<time>2016-10-21T16:47:06Z</time>
</trkpt>
<trkpt lat="36.914451599121094" lon="-118.60558319091797">
<ele>2917</ele>
<time>2016-10-21T16:47:18Z</time>
</trkpt>
<trkpt lat="36.914493560791016" lon="-118.60562896728516">
<ele>2918</ele>
<time>2016-10-21T16:47:24Z</time>
</trkpt>
<trkpt lat="36.91453170776367" lon="-118.60565948486328">
<ele>2917</ele>
<time>2016-10-21T16:47:30Z</time>
</trkpt>
<trkpt lat="36.914581298828125" lon="-118.60564422607422">
<ele>2919</ele>
<time>2016-10-21T16:47:36Z</time>
</trkpt>
<trkpt lat="36.91463088989258" lon="-118.60565185546875">
<ele>2919</ele>
<time>2016-10-21T16:47:44Z</time>
</trkpt>
<trkpt lat="36.91468048095703" lon="-118.60565948486328">
<ele>2921</ele>
<time>2016-10-21T16:47:51Z</time>
</trkpt>
<trkpt lat="36.91472625732422" lon="-118.60568237304688">
<ele>2918</ele>
<time>2016-10-21T16:48:08Z</time>
</trkpt>
<trkpt lat="36.91482162475586" lon="-118.605712890625">
<ele>2922</ele>
<time>2016-10-21T16:48:24Z</time>
</trkpt>
<trkpt lat="36.91486358642578" lon="-118.60574340820313">
<ele>2922</ele>
<time>2016-10-21T16:48:30Z</time>
</trkpt>
<trkpt lat="36.91490173339844" lon="-118.60578918457031">
<ele>2922</ele>
<time>2016-10-21T16:48:36Z</time>
</trkpt>
<trkpt lat="36.91497802734375" lon="-118.60582733154297">
<ele>2923</ele>
<time>2016-10-21T16:48:44Z</time>
</trkpt>
<trkpt lat="36.91502380371094" lon="-118.6058349609375">
<ele>2921</ele>
<time>2016-10-21T16:48:50Z</time>
</trkpt>
<trkpt lat="36.915069580078125" lon="-118.60587310791016">
<ele>2928</ele>
<time>2016-10-21T16:48:57Z</time>
</trkpt>
<trkpt lat="36.915157318115234" lon="-118.60590362548828">
<ele>2930</ele>
<time>2016-10-21T16:49:13Z</time>
</trkpt>
<trkpt lat="36.915199279785156" lon="-118.60591125488281">
<ele>2935</ele>
<time>2016-10-21T16:49:19Z</time>
</trkpt>
<trkpt lat="36.915252685546875" lon="-118.6059341430664">
<ele>2937</ele>
<time>2016-10-21T16:49:25Z</time>
</trkpt>
<trkpt lat="36.91533660888672" lon="-118.60599517822266">
<ele>2940</ele>
<time>2016-10-21T16:49:44Z</time>
</trkpt>
<trkpt lat="36.91538619995117" lon="-118.60598754882813">
<ele>2934</ele>
<time>2016-10-21T16:49:57Z</time>
</trkpt>
<trkpt lat="36.915428161621094" lon="-118.60601806640625">
<ele>2935</ele>
<time>2016-10-21T16:50:04Z</time>
</trkpt>
<trkpt lat="36.9155387878418" lon="-118.60601043701172">
<ele>2929</ele>
<time>2016-10-21T16:50:14Z</time>
</trkpt>
<trkpt lat="36.91563415527344" lon="-118.6059799194336">
<ele>2931</ele>
<time>2016-10-21T16:50:25Z</time>
</trkpt>
<trkpt lat="36.91573715209961" lon="-118.60597229003906">
<ele>2933</ele>
<time>2016-10-21T16:50:33Z</time>
</trkpt>
<trkpt lat="36.91584014892578" lon="-118.60597229003906">
<ele>2930</ele>
<time>2016-10-21T16:50:40Z</time>
</trkpt>
<trkpt lat="36.91598129272461" lon="-118.60598754882813">
<ele>2935</ele>
<time>2016-10-21T16:50:54Z</time>
</trkpt>
<trkpt lat="36.91606903076172" lon="-118.60601806640625">
<ele>2931</ele>
<time>2016-10-21T16:51:04Z</time>
</trkpt>
<trkpt lat="36.916175842285156" lon="-118.60601806640625">
<ele>2932</ele>
<time>2016-10-21T16:51:12Z</time>
</trkpt>
<trkpt lat="36.9162712097168" lon="-118.60600280761719">
<ele>2931</ele>
<time>2016-10-21T16:51:24Z</time>
</trkpt>
<trkpt lat="36.91637420654297" lon="-118.60604858398438">
<ele>2931</ele>
<time>2016-10-21T16:51:32Z</time>
</trkpt>
<trkpt lat="36.91646957397461" lon="-118.60609436035156">
<ele>2930</ele>
<time>2016-10-21T16:51:40Z</time>
</trkpt>
<trkpt lat="36.91655349731445" lon="-118.6061019897461">
<ele>2934</ele>
<time>2016-10-21T16:51:50Z</time>
</trkpt>
<trkpt lat="36.91665267944336" lon="-118.60608673095703">
<ele>2934</ele>
<time>2016-10-21T16:52:01Z</time>
</trkpt>
<trkpt lat="36.916717529296875" lon="-118.6061019897461">
<ele>2935</ele>
<time>2016-10-21T16:52:12Z</time>
</trkpt>
<trkpt lat="36.91682815551758" lon="-118.60612487792969">
<ele>2930</ele>
<time>2016-10-21T16:52:18Z</time>
</trkpt>
<trkpt lat="36.916934967041016" lon="-118.60612487792969">
<ele>2931</ele>
<time>2016-10-21T16:52:26Z</time>
</trkpt>
<trkpt lat="36.91703414916992" lon="-118.6061019897461">
<ele>2930</ele>
<time>2016-10-21T16:52:33Z</time>
</trkpt>
<trkpt lat="36.91712188720703" lon="-118.6060791015625">
<ele>2929</ele>
<time>2016-10-21T16:52:43Z</time>
</trkpt>
<trkpt lat="36.91716766357422" lon="-118.60602569580078">
<ele>2929</ele>
<time>2016-10-21T16:52:49Z</time>
</trkpt>
<trkpt lat="36.91715621948242" lon="-118.60588836669922">
<ele>2923</ele>
<time>2016-10-21T16:52:58Z</time>
</trkpt>
<trkpt lat="36.91720962524414" lon="-118.60587310791016">
<ele>2924</ele>
<time>2016-10-21T16:53:04Z</time>
</trkpt>
<trkpt lat="36.917301177978516" lon="-118.60594177246094">
<ele>2929</ele>
<time>2016-10-21T16:53:10Z</time>
</trkpt>
<trkpt lat="36.91740417480469" lon="-118.60596466064453">
<ele>2929</ele>
<time>2016-10-21T16:53:17Z</time>
</trkpt>
<trkpt lat="36.917449951171875" lon="-118.60595703125">
<ele>2927</ele>
<time>2016-10-21T16:53:23Z</time>
</trkpt>
<trkpt lat="36.91749954223633" lon="-118.60596466064453">
<ele>2928</ele>
<time>2016-10-21T16:53:29Z</time>
</trkpt>
<trkpt lat="36.917545318603516" lon="-118.60595703125">
<ele>2932</ele>
<time>2016-10-21T16:53:36Z</time>
</trkpt>
<trkpt lat="36.91761779785156" lon="-118.60598754882813">
<ele>2936</ele>
<time>2016-10-21T16:53:44Z</time>
</trkpt>
<trkpt lat="36.917724609375" lon="-118.60600280761719">
<ele>2935</ele>
<time>2016-10-21T16:53:50Z</time>
</trkpt>
<trkpt lat="36.91782760620117" lon="-118.60601043701172">
<ele>2938</ele>
<time>2016-10-21T16:53:58Z</time>
</trkpt>
<trkpt lat="36.91792678833008" lon="-118.6059799194336">
<ele>2936</ele>
<time>2016-10-21T16:54:05Z</time>
</trkpt>
<trkpt lat="36.91802215576172" lon="-118.60594177246094">
<ele>2934</ele>
<time>2016-10-21T16:54:14Z</time>
</trkpt>
<trkpt lat="36.91812515258789" lon="-118.60594177246094">
<ele>2934</ele>
<time>2016-10-21T16:54:22Z</time>
</trkpt>
<trkpt lat="36.91820526123047" lon="-118.60588073730469">
<ele>2930</ele>
<time>2016-10-21T16:54:33Z</time>
</trkpt>
<trkpt lat="36.91823196411133" lon="-118.60582733154297">
<ele>2932</ele>
<time>2016-10-21T16:54:39Z</time>
</trkpt>
<trkpt lat="36.91835021972656" lon="-118.60578918457031">
<ele>2934</ele>
<time>2016-10-21T16:54:47Z</time>
</trkpt>
<trkpt lat="36.91839599609375" lon="-118.60575103759766">
<ele>2932</ele>
<time>2016-10-21T16:54:54Z</time>
</trkpt>
<trkpt lat="36.91844940185547" lon="-118.60574340820313">
<ele>2930</ele>
<time>2016-10-21T16:55:00Z</time>
</trkpt>
<trkpt lat="36.91849899291992" lon="-118.60575866699219">
<ele>2927</ele>
<time>2016-10-21T16:55:07Z</time>
</trkpt>
<trkpt lat="36.91853332519531" lon="-118.60565185546875">
<ele>2927</ele>
<time>2016-10-21T16:55:16Z</time>
</trkpt>
<trkpt lat="36.91857147216797" lon="-118.60553741455078">
<ele>2926</ele>
<time>2016-10-21T16:55:23Z</time>
</trkpt>
<trkpt lat="36.91864013671875" lon="-118.60546112060547">
<ele>2931</ele>
<time>2016-10-21T16:55:33Z</time>
</trkpt>
<trkpt lat="36.918697357177734" lon="-118.60535430908203">
<ele>2926</ele>
<time>2016-10-21T16:55:42Z</time>
</trkpt>
<trkpt lat="36.91875457763672" lon="-118.60533142089844">
<ele>2928</ele>
<time>2016-10-21T16:55:48Z</time>
</trkpt>
<trkpt lat="36.91885757446289" lon="-118.60530090332031">
<ele>2929</ele>
<time>2016-10-21T16:55:55Z</time>
</trkpt>
<trkpt lat="36.9189567565918" lon="-118.60527801513672">
<ele>2932</ele>
<time>2016-10-21T16:56:04Z</time>
</trkpt>
<trkpt lat="36.91899490356445" lon="-118.6052474975586">
<ele>2934</ele>
<time>2016-10-21T16:56:10Z</time>
</trkpt>
<trkpt lat="36.919044494628906" lon="-118.60523223876953">
<ele>2930</ele>
<time>2016-10-21T16:56:18Z</time>
</trkpt>
<trkpt lat="36.91904067993164" lon="-118.60511779785156">
<ele>2923</ele>
<time>2016-10-21T16:56:31Z</time>
</trkpt>
<trkpt lat="36.919063568115234" lon="-118.60499572753906">
<ele>2925</ele>
<time>2016-10-21T16:56:39Z</time>
</trkpt>
<trkpt lat="36.919097900390625" lon="-118.6048355102539">
<ele>2917</ele>
<time>2016-10-21T16:56:48Z</time>
</trkpt>
<trkpt lat="36.91910171508789" lon="-118.6047134399414">
<ele>2919</ele>
<time>2016-10-21T16:56:55Z</time>
</trkpt>
<trkpt lat="36.91913604736328" lon="-118.6046142578125">
<ele>2915</ele>
<time>2016-10-21T16:57:05Z</time>
</trkpt>
<trkpt lat="36.91914367675781" lon="-118.60455322265625">
<ele>2912</ele>
<time>2016-10-21T16:57:11Z</time>
</trkpt>
<trkpt lat="36.91918182373047" lon="-118.60444641113281">
<ele>2908</ele>
<time>2016-10-21T16:57:22Z</time>
</trkpt>
<trkpt lat="36.919185638427734" lon="-118.60433197021484">
<ele>2904</ele>
<time>2016-10-21T16:57:32Z</time>
</trkpt>
<trkpt lat="36.919158935546875" lon="-118.60420989990234">
<ele>2900</ele>
<time>2016-10-21T16:57:41Z</time>
</trkpt>
<trkpt lat="36.919158935546875" lon="-118.60406494140625">
<ele>2903</ele>
<time>2016-10-21T16:57:47Z</time>
</trkpt>
<trkpt lat="36.919212341308594" lon="-118.60394287109375">
<ele>2902</ele>
<time>2016-10-21T16:57:53Z</time>
</trkpt>
<trkpt lat="36.91925048828125" lon="-118.60382843017578">
<ele>2908</ele>
<time>2016-10-21T16:58:00Z</time>
</trkpt>
<trkpt lat="36.919212341308594" lon="-118.60369873046875">
<ele>2903</ele>
<time>2016-10-21T16:58:08Z</time>
</trkpt>
<trkpt lat="36.91923141479492" lon="-118.60357666015625">
<ele>2903</ele>
<time>2016-10-21T16:58:18Z</time>
</trkpt>
<trkpt lat="36.919227600097656" lon="-118.60352325439453">
<ele>2907</ele>
<time>2016-10-21T16:58:24Z</time>
</trkpt>
<trkpt lat="36.91924285888672" lon="-118.60338592529297">
<ele>2910</ele>
<time>2016-10-21T16:58:31Z</time>
</trkpt>
<trkpt lat="36.919246673583984" lon="-118.60326385498047">
<ele>2909</ele>
<time>2016-10-21T16:58:38Z</time>
</trkpt>
<trkpt lat="36.91923904418945" lon="-118.60314178466797">
<ele>2911</ele>
<time>2016-10-21T16:58:44Z</time>
</trkpt>
<trkpt lat="36.919219970703125" lon="-118.60299682617188">
<ele>2912</ele>
<time>2016-10-21T16:58:50Z</time>
</trkpt>
<trkpt lat="36.919219970703125" lon="-118.60293579101563">
<ele>2909</ele>
<time>2016-10-21T16:58:57Z</time>
</trkpt>
<trkpt lat="36.91923141479492" lon="-118.60281372070313">
<ele>2903</ele>
<time>2016-10-21T16:59:05Z</time>
</trkpt>
<trkpt lat="36.919254302978516" lon="-118.60269165039063">
<ele>2902</ele>
<time>2016-10-21T16:59:13Z</time>
</trkpt>
<trkpt lat="36.919212341308594" lon="-118.6025619506836">
<ele>2896</ele>
<time>2016-10-21T16:59:21Z</time>
</trkpt>
<trkpt lat="36.91917037963867" lon="-118.6024398803711">
<ele>2900</ele>
<time>2016-10-21T16:59:30Z</time>
</trkpt>
<trkpt lat="36.91915512084961" lon="-118.60230255126953">
<ele>2901</ele>
<time>2016-10-21T16:59:37Z</time>
</trkpt>
<trkpt lat="36.91913986206055" lon="-118.60221099853516">
<ele>2901</ele>
<time>2016-10-21T16:59:44Z</time>
</trkpt>
<trkpt lat="36.91914367675781" lon="-118.6021499633789">
<ele>2901</ele>
<time>2016-10-21T16:59:50Z</time>
</trkpt>
<trkpt lat="36.91912078857422" lon="-118.60208892822266">
<ele>2900</ele>
<time>2016-10-21T16:59:57Z</time>
</trkpt>
<trkpt lat="36.919044494628906" lon="-118.60198974609375">
<ele>2900</ele>
<time>2016-10-21T17:00:05Z</time>
</trkpt>
<trkpt lat="36.91901779174805" lon="-118.60187530517578">
<ele>2900</ele>
<time>2016-10-21T17:00:13Z</time>
</trkpt>
<trkpt lat="36.91896057128906" lon="-118.6017837524414">
<ele>2904</ele>
<time>2016-10-21T17:00:22Z</time>
</trkpt>
<trkpt lat="36.91897964477539" lon="-118.60165405273438">
<ele>2908</ele>
<time>2016-10-21T17:00:29Z</time>
</trkpt>
<trkpt lat="36.919002532958984" lon="-118.6015396118164">
<ele>2907</ele>
<time>2016-10-21T17:00:38Z</time>
</trkpt>
<trkpt lat="36.91899490356445" lon="-118.6014633178711">
<ele>2899</ele>
<time>2016-10-21T17:00:44Z</time>
</trkpt>
<trkpt lat="36.91897964477539" lon="-118.601318359375">
<ele>2898</ele>
<time>2016-10-21T17:00:51Z</time>
</trkpt>
<trkpt lat="36.918949127197266" lon="-118.60118865966797">
<ele>2904</ele>
<time>2016-10-21T17:00:59Z</time>
</trkpt>
<trkpt lat="36.9189453125" lon="-118.60106658935547">
<ele>2905</ele>
<time>2016-10-21T17:01:11Z</time>
</trkpt>
<trkpt lat="36.91897201538086" lon="-118.60094451904297">
<ele>2908</ele>
<time>2016-10-21T17:01:20Z</time>
</trkpt>
<trkpt lat="36.919071197509766" lon="-118.60095977783203">
<ele>2902</ele>
<time>2016-10-21T17:01:29Z</time>
</trkpt>
<trkpt lat="36.91914367675781" lon="-118.60087585449219">
<ele>2913</ele>
<time>2016-10-21T17:01:39Z</time>
</trkpt>
<trkpt lat="36.919219970703125" lon="-118.60075378417969">
<ele>2915</ele>
<time>2016-10-21T17:01:47Z</time>
</trkpt>
<trkpt lat="36.919281005859375" lon="-118.60066223144531">
<ele>2912</ele>
<time>2016-10-21T17:01:56Z</time>
</trkpt>
<trkpt lat="36.91934585571289" lon="-118.6005859375">
<ele>2914</ele>
<time>2016-10-21T17:02:04Z</time>
</trkpt>
<trkpt lat="36.91937255859375" lon="-118.60053253173828">
<ele>2914</ele>
<time>2016-10-21T17:02:10Z</time>
</trkpt>
<trkpt lat="36.91942596435547" lon="-118.6004409790039">
<ele>2911</ele>
<time>2016-10-21T17:02:17Z</time>
</trkpt>
<trkpt lat="36.9194221496582" lon="-118.6003189086914">
<ele>2907</ele>
<time>2016-10-21T17:02:26Z</time>
</trkpt>
<trkpt lat="36.91944122314453" lon="-118.60026550292969">
<ele>2908</ele>
<time>2016-10-21T17:02:32Z</time>
</trkpt>
<trkpt lat="36.919471740722656" lon="-118.60016632080078">
<ele>2914</ele>
<time>2016-10-21T17:02:44Z</time>
</trkpt>
<trkpt lat="36.919471740722656" lon="-118.60011291503906">
<ele>2915</ele>
<time>2016-10-21T17:03:17Z</time>
</trkpt>
<trkpt lat="36.91944122314453" lon="-118.60015869140625">
<ele>2925</ele>
<time>2016-10-21T17:03:37Z</time>
</trkpt>
<trkpt lat="36.919368743896484" lon="-118.60009002685547">
<ele>2922</ele>
<time>2016-10-21T17:03:44Z</time>
</trkpt>
<trkpt lat="36.919349670410156" lon="-118.59996795654297">
<ele>2925</ele>
<time>2016-10-21T17:03:53Z</time>
</trkpt>
<trkpt lat="36.919288635253906" lon="-118.59986877441406">
<ele>2925</ele>
<time>2016-10-21T17:03:59Z</time>
</trkpt>
<trkpt lat="36.91925048828125" lon="-118.59976196289063">
<ele>2926</ele>
<time>2016-10-21T17:04:09Z</time>
</trkpt>
<trkpt lat="36.91918182373047" lon="-118.59966278076172">
<ele>2931</ele>
<time>2016-10-21T17:04:17Z</time>
</trkpt>
<trkpt lat="36.91913986206055" lon="-118.59952545166016">
<ele>2925</ele>
<time>2016-10-21T17:04:26Z</time>
</trkpt>
<trkpt lat="36.919151306152344" lon="-118.5994644165039">
<ele>2928</ele>
<time>2016-10-21T17:04:33Z</time>
</trkpt>
<trkpt lat="36.91920471191406" lon="-118.599365234375">
<ele>2927</ele>
<time>2016-10-21T17:04:43Z</time>
</trkpt>
<trkpt lat="36.919219970703125" lon="-118.59923553466797">
<ele>2928</ele>
<time>2016-10-21T17:04:51Z</time>
</trkpt>
<trkpt lat="36.91923141479492" lon="-118.59911346435547">
<ele>2920</ele>
<time>2016-10-21T17:05:02Z</time>
</trkpt>
<trkpt lat="36.91923904418945" lon="-118.59903717041016">
<ele>2915</ele>
<time>2016-10-21T17:05:09Z</time>
</trkpt>
<trkpt lat="36.919281005859375" lon="-118.5988998413086">
<ele>2911</ele>
<time>2016-10-21T17:05:15Z</time>
</trkpt>
<trkpt lat="36.9193115234375" lon="-118.5987777709961">
<ele>2915</ele>
<time>2016-10-21T17:05:23Z</time>
</trkpt>
<trkpt lat="36.919349670410156" lon="-118.5986557006836">
<ele>2922</ele>
<time>2016-10-21T17:05:31Z</time>
</trkpt>
<trkpt lat="36.919334411621094" lon="-118.5985336303711">
<ele>2923</ele>
<time>2016-10-21T17:05:39Z</time>
</trkpt>
<trkpt lat="36.919315338134766" lon="-118.5984115600586">
<ele>2920</ele>
<time>2016-10-21T17:05:48Z</time>
</trkpt>
<trkpt lat="36.91930389404297" lon="-118.59834289550781">
<ele>2923</ele>
<time>2016-10-21T17:05:54Z</time>
</trkpt>
<trkpt lat="36.919281005859375" lon="-118.59828186035156">
<ele>2925</ele>
<time>2016-10-21T17:06:00Z</time>
</trkpt>
<trkpt lat="36.91929244995117" lon="-118.5981674194336">
<ele>2922</ele>
<time>2016-10-21T17:06:12Z</time>
</trkpt>
<trkpt lat="36.91929626464844" lon="-118.59803771972656">
<ele>2920</ele>
<time>2016-10-21T17:06:19Z</time>
</trkpt>
<trkpt lat="36.9193229675293" lon="-118.59791564941406">
<ele>2922</ele>
<time>2016-10-21T17:06:28Z</time>
</trkpt>
<trkpt lat="36.919334411621094" lon="-118.59785461425781">
<ele>2923</ele>
<time>2016-10-21T17:06:35Z</time>
</trkpt>
<trkpt lat="36.9193229675293" lon="-118.59773254394531">
<ele>2924</ele>
<time>2016-10-21T17:06:42Z</time>
</trkpt>
<trkpt lat="36.9193229675293" lon="-118.59764099121094">
<ele>2927</ele>
<time>2016-10-21T17:06:49Z</time>
</trkpt>
<trkpt lat="36.91938018798828" lon="-118.5975570678711">
<ele>2931</ele>
<time>2016-10-21T17:06:57Z</time>
</trkpt>
<trkpt lat="36.91939163208008" lon="-118.59748840332031">
<ele>2929</ele>
<time>2016-10-21T17:07:03Z</time>
</trkpt>
<trkpt lat="36.91941833496094" lon="-118.59737396240234">
<ele>2930</ele>
<time>2016-10-21T17:07:12Z</time>
</trkpt>
<trkpt lat="36.919437408447266" lon="-118.59723663330078">
<ele>2930</ele>
<time>2016-10-21T17:07:21Z</time>
</trkpt>
<trkpt lat="36.919437408447266" lon="-118.59712219238281">
<ele>2929</ele>
<time>2016-10-21T17:07:30Z</time>
</trkpt>
<trkpt lat="36.91953659057617" lon="-118.59703063964844">
<ele>2932</ele>
<time>2016-10-21T17:07:37Z</time>
</trkpt>
<trkpt lat="36.91958236694336" lon="-118.59701538085938">
<ele>2930</ele>
<time>2016-10-21T17:07:44Z</time>
</trkpt>
<trkpt lat="36.91962432861328" lon="-118.59697723388672">
<ele>2935</ele>
<time>2016-10-21T17:07:51Z</time>
</trkpt>
<trkpt lat="36.919700622558594" lon="-118.5969009399414">
<ele>2937</ele>
<time>2016-10-21T17:07:57Z</time>
</trkpt>
<trkpt lat="36.91978073120117" lon="-118.59681701660156">
<ele>2933</ele>
<time>2016-10-21T17:08:04Z</time>
</trkpt>
<trkpt lat="36.91981887817383" lon="-118.59677124023438">
<ele>2929</ele>
<time>2016-10-21T17:08:10Z</time>
</trkpt>
<trkpt lat="36.91989517211914" lon="-118.59671783447266">
<ele>2929</ele>
<time>2016-10-21T17:08:17Z</time>
</trkpt>
<trkpt lat="36.919979095458984" lon="-118.59668731689453">
<ele>2932</ele>
<time>2016-10-21T17:08:24Z</time>
</trkpt>
<trkpt lat="36.91995620727539" lon="-118.5965576171875">
<ele>2933</ele>
<time>2016-10-21T17:08:32Z</time>
</trkpt>
<trkpt lat="36.91994857788086" lon="-118.59642028808594">
<ele>2932</ele>
<time>2016-10-21T17:08:39Z</time>
</trkpt>
<trkpt lat="36.91997146606445" lon="-118.5963134765625">
<ele>2931</ele>
<time>2016-10-21T17:08:49Z</time>
</trkpt>
<trkpt lat="36.92001724243164" lon="-118.59629821777344">
<ele>2927</ele>
<time>2016-10-21T17:08:59Z</time>
</trkpt>
<trkpt lat="36.9200439453125" lon="-118.59623718261719">
<ele>2927</ele>
<time>2016-10-21T17:09:05Z</time>
</trkpt>
<trkpt lat="36.920066833496094" lon="-118.59612274169922">
<ele>2928</ele>
<time>2016-10-21T17:09:14Z</time>
</trkpt>
<trkpt lat="36.92008972167969" lon="-118.59599304199219">
<ele>2932</ele>
<time>2016-10-21T17:09:24Z</time>
</trkpt>
<trkpt lat="36.92009353637695" lon="-118.59593200683594">
<ele>2933</ele>
<time>2016-10-21T17:09:30Z</time>
</trkpt>
<trkpt lat="36.92007064819336" lon="-118.59587860107422">
<ele>2933</ele>
<time>2016-10-21T17:09:36Z</time>
</trkpt>
<trkpt lat="36.92001724243164" lon="-118.59577941894531">
<ele>2928</ele>
<time>2016-10-21T17:09:44Z</time>
</trkpt>
<trkpt lat="36.92002868652344" lon="-118.59566497802734">
<ele>2925</ele>
<time>2016-10-21T17:09:53Z</time>
</trkpt>
<trkpt lat="36.920021057128906" lon="-118.59554290771484">
<ele>2924</ele>
<time>2016-10-21T17:10:01Z</time>
</trkpt>
<trkpt lat="36.91998291015625" lon="-118.59542083740234">
<ele>2924</ele>
<time>2016-10-21T17:10:07Z</time>
</trkpt>
<trkpt lat="36.919944763183594" lon="-118.59530639648438">
<ele>2930</ele>
<time>2016-10-21T17:10:17Z</time>
</trkpt>
<trkpt lat="36.9199333190918" lon="-118.59518432617188">
<ele>2928</ele>
<time>2016-10-21T17:10:25Z</time>
</trkpt>
<trkpt lat="36.919918060302734" lon="-118.59505462646484">
<ele>2927</ele>
<time>2016-10-21T17:10:31Z</time>
</trkpt>
<trkpt lat="36.91992950439453" lon="-118.59492492675781">
<ele>2925</ele>
<time>2016-10-21T17:10:40Z</time>
</trkpt>
<trkpt lat="36.91991424560547" lon="-118.59479522705078">
<ele>2926</ele>
<time>2016-10-21T17:10:47Z</time>
</trkpt>
<trkpt lat="36.91987991333008" lon="-118.59467315673828">
<ele>2928</ele>
<time>2016-10-21T17:10:54Z</time>
</trkpt>
<trkpt lat="36.91989517211914" lon="-118.59455108642578">
<ele>2932</ele>
<time>2016-10-21T17:11:04Z</time>
</trkpt>
<trkpt lat="36.919952392578125" lon="-118.59445190429688">
<ele>2937</ele>
<time>2016-10-21T17:11:15Z</time>
</trkpt>
<trkpt lat="36.92001724243164" lon="-118.5943603515625">
<ele>2929</ele>
<time>2016-10-21T17:11:23Z</time>
</trkpt>
<trkpt lat="36.92012023925781" lon="-118.59432220458984">
<ele>2926</ele>
<time>2016-10-21T17:11:29Z</time>
</trkpt>
<trkpt lat="36.92015838623047" lon="-118.59419250488281">
<ele>2928</ele>
<time>2016-10-21T17:11:37Z</time>
</trkpt>
<trkpt lat="36.920196533203125" lon="-118.59407043457031">
<ele>2926</ele>
<time>2016-10-21T17:11:44Z</time>
</trkpt>
<trkpt lat="36.92021179199219" lon="-118.59400939941406">
<ele>2924</ele>
<time>2016-10-21T17:11:50Z</time>
</trkpt>
<trkpt lat="36.92018127441406" lon="-118.5938949584961">
<ele>2921</ele>
<time>2016-10-21T17:11:57Z</time>
</trkpt>
<trkpt lat="36.92018508911133" lon="-118.5937728881836">
<ele>2922</ele>
<time>2016-10-21T17:12:06Z</time>
</trkpt>
<trkpt lat="36.92022705078125" lon="-118.59365844726563">
<ele>2931</ele>
<time>2016-10-21T17:12:14Z</time>
</trkpt>
<trkpt lat="36.92020797729492" lon="-118.59358215332031">
<ele>2932</ele>
<time>2016-10-21T17:12:23Z</time>
</trkpt>
<trkpt lat="36.920230865478516" lon="-118.59346771240234">
<ele>2922</ele>
<time>2016-10-21T17:12:31Z</time>
</trkpt>
<trkpt lat="36.920318603515625" lon="-118.5934066772461">
<ele>2921</ele>
<time>2016-10-21T17:12:39Z</time>
</trkpt>
<trkpt lat="36.9203987121582" lon="-118.59332275390625">
<ele>2925</ele>
<time>2016-10-21T17:12:51Z</time>
</trkpt>
<trkpt lat="36.920448303222656" lon="-118.59320831298828">
<ele>2925</ele>
<time>2016-10-21T17:13:01Z</time>
</trkpt>
<trkpt lat="36.92048645019531" lon="-118.59309387207031">
<ele>2928</ele>
<time>2016-10-21T17:13:10Z</time>
</trkpt>
<trkpt lat="36.92050552368164" lon="-118.59297180175781">
<ele>2927</ele>
<time>2016-10-21T17:13:18Z</time>
</trkpt>
<trkpt lat="36.920528411865234" lon="-118.59285736083984">
<ele>2928</ele>
<time>2016-10-21T17:13:26Z</time>
</trkpt>
<trkpt lat="36.92049789428711" lon="-118.5927505493164">
<ele>2934</ele>
<time>2016-10-21T17:13:35Z</time>
</trkpt>
<trkpt lat="36.92047119140625" lon="-118.59263610839844">
<ele>2928</ele>
<time>2016-10-21T17:13:43Z</time>
</trkpt>
<trkpt lat="36.920528411865234" lon="-118.59252166748047">
<ele>2931</ele>
<time>2016-10-21T17:13:54Z</time>
</trkpt>
<trkpt lat="36.92057418823242" lon="-118.59249877929688">
<ele>2924</ele>
<time>2016-10-21T17:14:01Z</time>
</trkpt>
<trkpt lat="36.9206428527832" lon="-118.59242248535156">
<ele>2932</ele>
<time>2016-10-21T17:14:13Z</time>
</trkpt>
<trkpt lat="36.92063522338867" lon="-118.59236145019531">
<ele>2934</ele>
<time>2016-10-21T17:14:20Z</time>
</trkpt>
<trkpt lat="36.92063522338867" lon="-118.59229278564453">
<ele>2935</ele>
<time>2016-10-21T17:14:31Z</time>
</trkpt>
<trkpt lat="36.920658111572266" lon="-118.59217071533203">
<ele>2936</ele>
<time>2016-10-21T17:14:42Z</time>
</trkpt>
<trkpt lat="36.920623779296875" lon="-118.59210205078125">
<ele>2941</ele>
<time>2016-10-21T17:14:49Z</time>
</trkpt>
<trkpt lat="36.92061233520508" lon="-118.59204864501953">
<ele>2945</ele>
<time>2016-10-21T17:14:57Z</time>
</trkpt>
<trkpt lat="36.92060852050781" lon="-118.59198760986328">
<ele>2943</ele>
<time>2016-10-21T17:15:04Z</time>
</trkpt>
<trkpt lat="36.920654296875" lon="-118.59197235107422">
<ele>2942</ele>
<time>2016-10-21T17:15:10Z</time>
</trkpt>
<trkpt lat="36.92066192626953" lon="-118.59191131591797">
<ele>2944</ele>
<time>2016-10-21T17:15:20Z</time>
</trkpt>
<trkpt lat="36.920654296875" lon="-118.59178924560547">
<ele>2939</ele>
<time>2016-10-21T17:15:30Z</time>
</trkpt>
<trkpt lat="36.9206657409668" lon="-118.59172821044922">
<ele>2944</ele>
<time>2016-10-21T17:15:37Z</time>
</trkpt>
<trkpt lat="36.920692443847656" lon="-118.59166717529297">
<ele>2948</ele>
<time>2016-10-21T17:15:44Z</time>
</trkpt>
<trkpt lat="36.92071533203125" lon="-118.59153747558594">
<ele>2950</ele>
<time>2016-10-21T17:15:56Z</time>
</trkpt>
<trkpt lat="36.92079162597656" lon="-118.59146118164063">
<ele>2947</ele>
<time>2016-10-21T17:16:06Z</time>
</trkpt>
<trkpt lat="36.92079544067383" lon="-118.59139251708984">
<ele>2947</ele>
<time>2016-10-21T17:16:12Z</time>
</trkpt>
<trkpt lat="36.920833587646484" lon="-118.59127807617188">
<ele>2946</ele>
<time>2016-10-21T17:16:23Z</time>
</trkpt>
<trkpt lat="36.92085647583008" lon="-118.59122467041016">
<ele>2948</ele>
<time>2016-10-21T17:16:29Z</time>
</trkpt>
<trkpt lat="36.92080307006836" lon="-118.59111785888672">
<ele>2945</ele>
<time>2016-10-21T17:16:39Z</time>
</trkpt>
<trkpt lat="36.92084503173828" lon="-118.5910415649414">
<ele>2946</ele>
<time>2016-10-21T17:16:49Z</time>
</trkpt>
<trkpt lat="36.92082595825195" lon="-118.59092712402344">
<ele>2947</ele>
<time>2016-10-21T17:16:59Z</time>
</trkpt>
<trkpt lat="36.92081832885742" lon="-118.59087371826172">
<ele>2949</ele>
<time>2016-10-21T17:17:06Z</time>
</trkpt>
<trkpt lat="36.92080307006836" lon="-118.59081268310547">
<ele>2949</ele>
<time>2016-10-21T17:17:14Z</time>
</trkpt>
<trkpt lat="36.92079544067383" lon="-118.59075164794922">
<ele>2953</ele>
<time>2016-10-21T17:17:21Z</time>
</trkpt>
<trkpt lat="36.9207878112793" lon="-118.59069061279297">
<ele>2959</ele>
<time>2016-10-21T17:17:27Z</time>
</trkpt>
<trkpt lat="36.92081832885742" lon="-118.59056854248047">
<ele>2961</ele>
<time>2016-10-21T17:17:39Z</time>
</trkpt>
<trkpt lat="36.9207878112793" lon="-118.59049224853516">
<ele>2961</ele>
<time>2016-10-21T17:17:49Z</time>
</trkpt>
<trkpt lat="36.92076110839844" lon="-118.59038543701172">
<ele>2962</ele>
<time>2016-10-21T17:18:04Z</time>
</trkpt>
<trkpt lat="36.920780181884766" lon="-118.59033203125">
<ele>2960</ele>
<time>2016-10-21T17:18:11Z</time>
</trkpt>
<trkpt lat="36.920780181884766" lon="-118.59021759033203">
<ele>2957</ele>
<time>2016-10-21T17:18:21Z</time>
</trkpt>
<trkpt lat="36.920780181884766" lon="-118.5901107788086">
<ele>2963</ele>
<time>2016-10-21T17:18:33Z</time>
</trkpt>
<trkpt lat="36.92079162597656" lon="-118.59003448486328">
<ele>2964</ele>
<time>2016-10-21T17:18:52Z</time>
</trkpt>
<trkpt lat="36.920780181884766" lon="-118.58998107910156">
<ele>2961</ele>
<time>2016-10-21T17:18:59Z</time>
</trkpt>
<trkpt lat="36.92086410522461" lon="-118.58992004394531">
<ele>2967</ele>
<time>2016-10-21T17:19:21Z</time>
</trkpt>
<trkpt lat="36.92084884643555" lon="-118.5898666381836">
<ele>2972</ele>
<time>2016-10-21T17:19:31Z</time>
</trkpt>
<trkpt lat="36.92082977294922" lon="-118.58980560302734">
<ele>2973</ele>
<time>2016-10-21T17:19:39Z</time>
</trkpt>
<trkpt lat="36.9207878112793" lon="-118.58972930908203">
<ele>2976</ele>
<time>2016-10-21T17:19:51Z</time>
</trkpt>
<trkpt lat="36.9207763671875" lon="-118.58966064453125">
<ele>2979</ele>
<time>2016-10-21T17:19:57Z</time>
</trkpt>
<trkpt lat="36.920806884765625" lon="-118.5896224975586">
<ele>2971</ele>
<time>2016-10-21T17:20:06Z</time>
</trkpt>
<trkpt lat="36.92085266113281" lon="-118.58958435058594">
<ele>2972</ele>
<time>2016-10-21T17:20:17Z</time>
</trkpt>
<trkpt lat="36.920841217041016" lon="-118.58953094482422">
<ele>2971</ele>
<time>2016-10-21T17:20:23Z</time>
</trkpt>
<trkpt lat="36.92086410522461" lon="-118.58943176269531">
<ele>2975</ele>
<time>2016-10-21T17:20:37Z</time>
</trkpt>
<trkpt lat="36.920867919921875" lon="-118.58934783935547">
<ele>2975</ele>
<time>2016-10-21T17:20:51Z</time>
</trkpt>
<trkpt lat="36.92084503173828" lon="-118.58929443359375">
<ele>2978</ele>
<time>2016-10-21T17:20:57Z</time>
</trkpt>
<trkpt lat="36.92085266113281" lon="-118.5892333984375">
<ele>2980</ele>
<time>2016-10-21T17:21:06Z</time>
</trkpt>
<trkpt lat="36.92085266113281" lon="-118.58917236328125">
<ele>2984</ele>
<time>2016-10-21T17:21:16Z</time>
</trkpt>
<trkpt lat="36.92086410522461" lon="-118.589111328125">
<ele>2983</ele>
<time>2016-10-21T17:21:22Z</time>
</trkpt>
<trkpt lat="36.92086410522461" lon="-118.58899688720703">
<ele>2986</ele>
<time>2016-10-21T17:21:30Z</time>
</trkpt>
<trkpt lat="36.92086410522461" lon="-118.5888671875">
<ele>2988</ele>
<time>2016-10-21T17:21:38Z</time>
</trkpt>
<trkpt lat="36.920867919921875" lon="-118.58875274658203">
<ele>2988</ele>
<time>2016-10-21T17:21:44Z</time>
</trkpt>
<trkpt lat="36.920894622802734" lon="-118.58863830566406">
<ele>2989</ele>
<time>2016-10-21T17:21:53Z</time>
</trkpt>
<trkpt lat="36.92086410522461" lon="-118.58853149414063">
<ele>2989</ele>
<time>2016-10-21T17:22:01Z</time>
</trkpt>
<trkpt lat="36.92085266113281" lon="-118.58846282958984">
<ele>2991</ele>
<time>2016-10-21T17:22:10Z</time>
</trkpt>
<trkpt lat="36.920833587646484" lon="-118.5884017944336">
<ele>2991</ele>
<time>2016-10-21T17:22:16Z</time>
</trkpt>
<trkpt lat="36.92079162597656" lon="-118.58827209472656">
<ele>2995</ele>
<time>2016-10-21T17:22:24Z</time>
</trkpt>
<trkpt lat="36.92083740234375" lon="-118.58815002441406">
<ele>2997</ele>
<time>2016-10-21T17:22:34Z</time>
</trkpt>
<trkpt lat="36.92084884643555" lon="-118.58802795410156">
<ele>2999</ele>
<time>2016-10-21T17:22:42Z</time>
</trkpt>
<trkpt lat="36.92083740234375" lon="-118.58792114257813">
<ele>2997</ele>
<time>2016-10-21T17:22:49Z</time>
</trkpt>
<trkpt lat="36.92078399658203" lon="-118.58782958984375">
<ele>2994</ele>
<time>2016-10-21T17:22:58Z</time>
</trkpt>
<trkpt lat="36.92073059082031" lon="-118.58773040771484">
<ele>2995</ele>
<time>2016-10-21T17:23:07Z</time>
</trkpt>
<trkpt lat="36.92073440551758" lon="-118.58760070800781">
<ele>2987</ele>
<time>2016-10-21T17:23:17Z</time>
</trkpt>
<trkpt lat="36.920692443847656" lon="-118.58749389648438">
<ele>2989</ele>
<time>2016-10-21T17:23:27Z</time>
</trkpt>
<trkpt lat="36.920677185058594" lon="-118.58736419677734">
<ele>2991</ele>
<time>2016-10-21T17:23:35Z</time>
</trkpt>
<trkpt lat="36.920650482177734" lon="-118.58724212646484">
<ele>2995</ele>
<time>2016-10-21T17:23:41Z</time>
</trkpt>
<trkpt lat="36.92063522338867" lon="-118.58714294433594">
<ele>2999</ele>
<time>2016-10-21T17:23:48Z</time>
</trkpt>
<trkpt lat="36.92061996459961" lon="-118.58699035644531">
<ele>2999</ele>
<time>2016-10-21T17:23:54Z</time>
</trkpt>
<trkpt lat="36.92060470581055" lon="-118.58686065673828">
<ele>2998</ele>
<time>2016-10-21T17:24:02Z</time>
</trkpt>
<trkpt lat="36.920616149902344" lon="-118.58673858642578">
<ele>2988</ele>
<time>2016-10-21T17:24:12Z</time>
</trkpt>
<trkpt lat="36.9206428527832" lon="-118.58668518066406">
<ele>2989</ele>
<time>2016-10-21T17:24:18Z</time>
</trkpt>
<trkpt lat="36.92068862915039" lon="-118.58657836914063">
<ele>2987</ele>
<time>2016-10-21T17:24:27Z</time>
</trkpt>
<trkpt lat="36.92070388793945" lon="-118.58645629882813">
<ele>2984</ele>
<time>2016-10-21T17:24:36Z</time>
</trkpt>
<trkpt lat="36.92071533203125" lon="-118.58638000488281">
<ele>2981</ele>
<time>2016-10-21T17:24:44Z</time>
</trkpt>
<trkpt lat="36.920753479003906" lon="-118.58624267578125">
<ele>2980</ele>
<time>2016-10-21T17:24:53Z</time>
</trkpt>
<trkpt lat="36.920753479003906" lon="-118.58611297607422">
<ele>2983</ele>
<time>2016-10-21T17:25:00Z</time>
</trkpt>
<trkpt lat="36.92072677612305" lon="-118.58600616455078">
<ele>2979</ele>
<time>2016-10-21T17:25:07Z</time>
</trkpt>
<trkpt lat="36.92067337036133" lon="-118.58589172363281">
<ele>2982</ele>
<time>2016-10-21T17:25:16Z</time>
</trkpt>
<trkpt lat="36.92061233520508" lon="-118.58578491210938">
<ele>2982</ele>
<time>2016-10-21T17:25:25Z</time>
</trkpt>
<trkpt lat="36.9205322265625" lon="-118.585693359375">
<ele>2986</ele>
<time>2016-10-21T17:25:32Z</time>
</trkpt>
<trkpt lat="36.92048645019531" lon="-118.58556365966797">
<ele>2986</ele>
<time>2016-10-21T17:25:38Z</time>
</trkpt>
<trkpt lat="36.92045211791992" lon="-118.58548736572266">
<ele>2989</ele>
<time>2016-10-21T17:25:44Z</time>
</trkpt>
<trkpt lat="36.92042541503906" lon="-118.5854263305664">
<ele>2991</ele>
<time>2016-10-21T17:25:50Z</time>
</trkpt>
<trkpt lat="36.92036056518555" lon="-118.5853042602539">
<ele>2995</ele>
<time>2016-10-21T17:25:58Z</time>
</trkpt>
<trkpt lat="36.92032241821289" lon="-118.58526611328125">
<ele>2991</ele>
<time>2016-10-21T17:26:07Z</time>
</trkpt>
<trkpt lat="36.92026901245117" lon="-118.58516693115234">
<ele>2991</ele>
<time>2016-10-21T17:26:17Z</time>
</trkpt>
<trkpt lat="36.92024612426758" lon="-118.58503723144531">
<ele>2988</ele>
<time>2016-10-21T17:26:25Z</time>
</trkpt>
<trkpt lat="36.92023468017578" lon="-118.58490753173828">
<ele>2986</ele>
<time>2016-10-21T17:26:32Z</time>
</trkpt>
<trkpt lat="36.920188903808594" lon="-118.58477783203125">
<ele>2987</ele>
<time>2016-10-21T17:26:40Z</time>
</trkpt>
<trkpt lat="36.920108795166016" lon="-118.5846939086914">
<ele>2984</ele>
<time>2016-10-21T17:26:47Z</time>
</trkpt>
<trkpt lat="36.920040130615234" lon="-118.5846176147461">
<ele>2982</ele>
<time>2016-10-21T17:26:55Z</time>
</trkpt>
<trkpt lat="36.92000961303711" lon="-118.58456420898438">
<ele>2979</ele>
<time>2016-10-21T17:27:01Z</time>
</trkpt>
<trkpt lat="36.919960021972656" lon="-118.5844497680664">
<ele>2982</ele>
<time>2016-10-21T17:27:07Z</time>
</trkpt>
<trkpt lat="36.91993713378906" lon="-118.58439636230469">
<ele>2985</ele>
<time>2016-10-21T17:27:13Z</time>
</trkpt>
<trkpt lat="36.91987228393555" lon="-118.58428955078125">
<ele>2988</ele>
<time>2016-10-21T17:27:25Z</time>
</trkpt>
<trkpt lat="36.91984558105469" lon="-118.58417510986328">
<ele>2989</ele>
<time>2016-10-21T17:27:34Z</time>
</trkpt>
<trkpt lat="36.91986846923828" lon="-118.58404541015625">
<ele>2982</ele>
<time>2016-10-21T17:27:44Z</time>
</trkpt>
<trkpt lat="36.91990280151367" lon="-118.58392333984375">
<ele>2989</ele>
<time>2016-10-21T17:27:52Z</time>
</trkpt>
<trkpt lat="36.91993713378906" lon="-118.5838851928711">
<ele>2983</ele>
<time>2016-10-21T17:27:58Z</time>
</trkpt>
<trkpt lat="36.920021057128906" lon="-118.58380889892578">
<ele>2980</ele>
<time>2016-10-21T17:28:05Z</time>
</trkpt>
<trkpt lat="36.92012405395508" lon="-118.58377838134766">
<ele>2973</ele>
<time>2016-10-21T17:28:17Z</time>
</trkpt>
<trkpt lat="36.92018508911133" lon="-118.58369445800781">
<ele>2980</ele>
<time>2016-10-21T17:28:29Z</time>
</trkpt>
<trkpt lat="36.92023849487305" lon="-118.58358001708984">
<ele>2979</ele>
<time>2016-10-21T17:28:37Z</time>
</trkpt>
<trkpt lat="36.92032241821289" lon="-118.5835189819336">
<ele>2976</ele>
<time>2016-10-21T17:28:43Z</time>
</trkpt>
<trkpt lat="36.92037582397461" lon="-118.58348083496094">
<ele>2979</ele>
<time>2016-10-21T17:28:50Z</time>
</trkpt>
<trkpt lat="36.920448303222656" lon="-118.58338928222656">
<ele>2981</ele>
<time>2016-10-21T17:29:00Z</time>
</trkpt>
<trkpt lat="36.92053985595703" lon="-118.58333587646484">
<ele>2982</ele>
<time>2016-10-21T17:29:10Z</time>
</trkpt>
<trkpt lat="36.92063522338867" lon="-118.58330535888672">
<ele>2978</ele>
<time>2016-10-21T17:29:20Z</time>
</trkpt>
<trkpt lat="36.920745849609375" lon="-118.58331298828125">
<ele>2981</ele>
<time>2016-10-21T17:29:27Z</time>
</trkpt>
<trkpt lat="36.92085266113281" lon="-118.58332061767578">
<ele>2979</ele>
<time>2016-10-21T17:29:34Z</time>
</trkpt>
<trkpt lat="36.92095184326172" lon="-118.58326721191406">
<ele>2975</ele>
<time>2016-10-21T17:29:42Z</time>
</trkpt>
<trkpt lat="36.92102813720703" lon="-118.58323669433594">
<ele>2974</ele>
<time>2016-10-21T17:29:49Z</time>
</trkpt>
<trkpt lat="36.921112060546875" lon="-118.58328247070313">
<ele>2973</ele>
<time>2016-10-21T17:29:57Z</time>
</trkpt>
<trkpt lat="36.921165466308594" lon="-118.5833740234375">
<ele>2972</ele>
<time>2016-10-21T17:30:07Z</time>
</trkpt>
<trkpt lat="36.92121124267578" lon="-118.58338928222656">
<ele>2974</ele>
<time>2016-10-21T17:30:15Z</time>
</trkpt>
<trkpt lat="36.92125701904297" lon="-118.58336639404297">
<ele>2972</ele>
<time>2016-10-21T17:30:21Z</time>
</trkpt>
<trkpt lat="36.92124938964844" lon="-118.58330535888672">
<ele>2970</ele>
<time>2016-10-21T17:30:27Z</time>
</trkpt>
<trkpt lat="36.921321868896484" lon="-118.5832290649414">
<ele>2972</ele>
<time>2016-10-21T17:30:35Z</time>
</trkpt>
<trkpt lat="36.92129898071289" lon="-118.58316802978516">
<ele>2971</ele>
<time>2016-10-21T17:30:42Z</time>
</trkpt>
<trkpt lat="36.921321868896484" lon="-118.58309936523438">
<ele>2972</ele>
<time>2016-10-21T17:30:49Z</time>
</trkpt>
<trkpt lat="36.92137145996094" lon="-118.58309173583984">
<ele>2971</ele>
<time>2016-10-21T17:30:56Z</time>
</trkpt>
<trkpt lat="36.92140197753906" lon="-118.58297729492188">
<ele>2968</ele>
<time>2016-10-21T17:31:07Z</time>
</trkpt>
<trkpt lat="36.921451568603516" lon="-118.58294677734375">
<ele>2973</ele>
<time>2016-10-21T17:31:14Z</time>
</trkpt>
<trkpt lat="36.92152786254883" lon="-118.58287048339844">
<ele>2976</ele>
<time>2016-10-21T17:31:21Z</time>
</trkpt>
<trkpt lat="36.921573638916016" lon="-118.58287811279297">
<ele>2982</ele>
<time>2016-10-21T17:31:29Z</time>
</trkpt>
<trkpt lat="36.92165756225586" lon="-118.58287811279297">
<ele>2979</ele>
<time>2016-10-21T17:31:38Z</time>
</trkpt>
<trkpt lat="36.92169189453125" lon="-118.58282470703125">
<ele>2979</ele>
<time>2016-10-21T17:31:44Z</time>
</trkpt>
<trkpt lat="36.921756744384766" lon="-118.58274841308594">
<ele>2975</ele>
<time>2016-10-21T17:31:54Z</time>
</trkpt>
<trkpt lat="36.92180252075195" lon="-118.58275604248047">
<ele>2972</ele>
<time>2016-10-21T17:32:02Z</time>
</trkpt>
<trkpt lat="36.921852111816406" lon="-118.582763671875">
<ele>2976</ele>
<time>2016-10-21T17:32:12Z</time>
</trkpt>
<trkpt lat="36.92192840576172" lon="-118.58269500732422">
<ele>2980</ele>
<time>2016-10-21T17:32:24Z</time>
</trkpt>
<trkpt lat="36.92195510864258" lon="-118.58256530761719">
<ele>2983</ele>
<time>2016-10-21T17:32:36Z</time>
</trkpt>
<trkpt lat="36.92201232910156" lon="-118.58253479003906">
<ele>2990</ele>
<time>2016-10-21T17:32:42Z</time>
</trkpt>
<trkpt lat="36.92211151123047" lon="-118.58245086669922">
<ele>2990</ele>
<time>2016-10-21T17:32:51Z</time>
</trkpt>
<trkpt lat="36.92217254638672" lon="-118.58235931396484">
<ele>2988</ele>
<time>2016-10-21T17:33:02Z</time>
</trkpt>
<trkpt lat="36.922218322753906" lon="-118.58238220214844">
<ele>2987</ele>
<time>2016-10-21T17:33:09Z</time>
</trkpt>
<trkpt lat="36.922264099121094" lon="-118.58240509033203">
<ele>2989</ele>
<time>2016-10-21T17:33:16Z</time>
</trkpt>
<trkpt lat="36.92231369018555" lon="-118.58242797851563">
<ele>2989</ele>
<time>2016-10-21T17:33:23Z</time>
</trkpt>
<trkpt lat="36.92235565185547" lon="-118.58245086669922">
<ele>2989</ele>
<time>2016-10-21T17:33:30Z</time>
</trkpt>
<trkpt lat="36.92233657836914" lon="-118.5823974609375">
<ele>2990</ele>
<time>2016-10-21T17:33:43Z</time>
</trkpt>
<trkpt lat="36.922325134277344" lon="-118.58246612548828">
<ele>2997</ele>
<time>2016-10-21T17:33:52Z</time>
</trkpt>
<trkpt lat="36.92230987548828" lon="-118.58252716064453">
<ele>3006</ele>
<time>2016-10-21T17:34:10Z</time>
</trkpt>
<trkpt lat="36.92226791381836" lon="-118.5825424194336">
<ele>3013</ele>
<time>2016-10-21T17:34:17Z</time>
</trkpt>
<trkpt lat="36.92231750488281" lon="-118.58253479003906">
<ele>3012</ele>
<time>2016-10-21T17:34:35Z</time>
</trkpt>
<trkpt lat="36.922306060791016" lon="-118.58243560791016">
<ele>2994</ele>
<time>2016-10-21T17:35:29Z</time>
</trkpt>
<trkpt lat="36.92229080200195" lon="-118.58231353759766">
<ele>2998</ele>
<time>2016-10-21T17:35:39Z</time>
</trkpt>
<trkpt lat="36.922340393066406" lon="-118.58236694335938">
<ele>2994</ele>
<time>2016-10-21T17:35:51Z</time>
</trkpt>
<trkpt lat="36.9223518371582" lon="-118.5824203491211">
<ele>2991</ele>
<time>2016-10-21T17:35:58Z</time>
</trkpt>
<trkpt lat="36.922359466552734" lon="-118.58236694335938">
<ele>2998</ele>
<time>2016-10-21T17:36:22Z</time>
</trkpt>
<trkpt lat="36.922386169433594" lon="-118.58241271972656">
<ele>2993</ele>
<time>2016-10-21T17:36:36Z</time>
</trkpt>
<trkpt lat="36.92238998413086" lon="-118.58248138427734">
<ele>2997</ele>
<time>2016-10-21T17:37:00Z</time>
</trkpt>
<trkpt lat="36.92236328125" lon="-118.58253479003906">
<ele>2995</ele>
<time>2016-10-21T17:37:30Z</time>
</trkpt>
<trkpt lat="36.92232131958008" lon="-118.58256530761719">
<ele>2995</ele>
<time>2016-10-21T17:37:39Z</time>
</trkpt>
<trkpt lat="36.922420501708984" lon="-118.58255004882813">
<ele>3004</ele>
<time>2016-10-21T17:40:29Z</time>
</trkpt>
<trkpt lat="36.92249298095703" lon="-118.58248138427734">
<ele>3001</ele>
<time>2016-10-21T17:40:42Z</time>
</trkpt>
<trkpt lat="36.922523498535156" lon="-118.5823974609375">
<ele>3003</ele>
<time>2016-10-21T17:40:51Z</time>
</trkpt>
<trkpt lat="36.92261505126953" lon="-118.58236694335938">
<ele>3004</ele>
<time>2016-10-21T17:41:02Z</time>
</trkpt>
<trkpt lat="36.922691345214844" lon="-118.58231353759766">
<ele>2999</ele>
<time>2016-10-21T17:41:14Z</time>
</trkpt>
<trkpt lat="36.92270278930664" lon="-118.5822525024414">
<ele>3003</ele>
<time>2016-10-21T17:41:20Z</time>
</trkpt>
<trkpt lat="36.92272186279297" lon="-118.58219909667969">
<ele>3007</ele>
<time>2016-10-21T17:41:26Z</time>
</trkpt>
<trkpt lat="36.92271423339844" lon="-118.5821304321289">
<ele>3007</ele>
<time>2016-10-21T17:41:32Z</time>
</trkpt>
<trkpt lat="36.92270278930664" lon="-118.58207702636719">
<ele>3007</ele>
<time>2016-10-21T17:41:39Z</time>
</trkpt>
<trkpt lat="36.92276382446289" lon="-118.58204650878906">
<ele>3005</ele>
<time>2016-10-21T17:41:53Z</time>
</trkpt>
<trkpt lat="36.922813415527344" lon="-118.5820541381836">
<ele>3005</ele>
<time>2016-10-21T17:42:00Z</time>
</trkpt>
<trkpt lat="36.9228630065918" lon="-118.58204650878906">
<ele>3008</ele>
<time>2016-10-21T17:42:06Z</time>
</trkpt>
<trkpt lat="36.92287063598633" lon="-118.58197784423828">
<ele>3009</ele>
<time>2016-10-21T17:42:18Z</time>
</trkpt>
<trkpt lat="36.92291259765625" lon="-118.58193969726563">
<ele>3010</ele>
<time>2016-10-21T17:42:24Z</time>
</trkpt>
<trkpt lat="36.92293930053711" lon="-118.58187866210938">
<ele>3011</ele>
<time>2016-10-21T17:42:31Z</time>
</trkpt>
<trkpt lat="36.92292404174805" lon="-118.58182525634766">
<ele>3011</ele>
<time>2016-10-21T17:42:37Z</time>
</trkpt>
<trkpt lat="36.92295455932617" lon="-118.58177947998047">
<ele>3014</ele>
<time>2016-10-21T17:42:43Z</time>
</trkpt>
<trkpt lat="36.923004150390625" lon="-118.58177947998047">
<ele>3022</ele>
<time>2016-10-21T17:42:58Z</time>
</trkpt>
<trkpt lat="36.9229850769043" lon="-118.58171844482422">
<ele>3019</ele>
<time>2016-10-21T17:43:10Z</time>
</trkpt>
<trkpt lat="36.9229736328125" lon="-118.58165740966797">
<ele>3014</ele>
<time>2016-10-21T17:43:26Z</time>
</trkpt>
<trkpt lat="36.92298889160156" lon="-118.58160400390625">
<ele>3015</ele>
<time>2016-10-21T17:43:33Z</time>
</trkpt>
<trkpt lat="36.923030853271484" lon="-118.58158111572266">
<ele>3014</ele>
<time>2016-10-21T17:43:40Z</time>
</trkpt>
<trkpt lat="36.923030853271484" lon="-118.58149719238281">
<ele>3019</ele>
<time>2016-10-21T17:43:53Z</time>
</trkpt>
<trkpt lat="36.92306137084961" lon="-118.58145141601563">
<ele>3020</ele>
<time>2016-10-21T17:44:02Z</time>
</trkpt>
<trkpt lat="36.92310333251953" lon="-118.58141326904297">
<ele>3017</ele>
<time>2016-10-21T17:44:11Z</time>
</trkpt>
<trkpt lat="36.92315673828125" lon="-118.5813980102539">
<ele>3021</ele>
<time>2016-10-21T17:44:17Z</time>
</trkpt>
<trkpt lat="36.92321014404297" lon="-118.581298828125">
<ele>3019</ele>
<time>2016-10-21T17:44:28Z</time>
</trkpt>
<trkpt lat="36.92325973510742" lon="-118.58130645751953">
<ele>3026</ele>
<time>2016-10-21T17:44:42Z</time>
</trkpt>
<trkpt lat="36.923213958740234" lon="-118.58125305175781">
<ele>3019</ele>
<time>2016-10-21T17:44:51Z</time>
</trkpt>
<trkpt lat="36.92323303222656" lon="-118.5811996459961">
<ele>3026</ele>
<time>2016-10-21T17:45:00Z</time>
</trkpt>
<trkpt lat="36.92328643798828" lon="-118.58118438720703">
<ele>3028</ele>
<time>2016-10-21T17:45:15Z</time>
</trkpt>
<trkpt lat="36.923282623291016" lon="-118.58112335205078">
<ele>3032</ele>
<time>2016-10-21T17:45:31Z</time>
</trkpt>
</trkseg>
</trk>
<trk>
<name><![CDATA[10211102]]></name>
<number>58</number>
<extensions><topografix:color>ff000066</topografix:color></extensions>
<trkseg>
<trkpt lat="36.92518615722656" lon="-118.57311248779297">
<ele>3139</ele>
<time>2016-10-21T18:02:27Z</time>
</trkpt>
<trkpt lat="36.925228118896484" lon="-118.57307434082031">
<ele>3130</ele>
<time>2016-10-21T18:02:35Z</time>
</trkpt>
<trkpt lat="36.925235748291016" lon="-118.5730209350586">
<ele>3123</ele>
<time>2016-10-21T18:02:45Z</time>
</trkpt>
<trkpt lat="36.92528533935547" lon="-118.57301330566406">
<ele>3122</ele>
<time>2016-10-21T18:02:52Z</time>
</trkpt>
<trkpt lat="36.92538833618164" lon="-118.57295989990234">
<ele>3117</ele>
<time>2016-10-21T18:03:00Z</time>
</trkpt>
<trkpt lat="36.9254035949707" lon="-118.57289123535156">
<ele>3122</ele>
<time>2016-10-21T18:03:06Z</time>
</trkpt>
<trkpt lat="36.925418853759766" lon="-118.57283020019531">
<ele>3123</ele>
<time>2016-10-21T18:03:17Z</time>
</trkpt>
<trkpt lat="36.92551803588867" lon="-118.57282257080078">
<ele>3117</ele>
<time>2016-10-21T18:03:25Z</time>
</trkpt>
<trkpt lat="36.925567626953125" lon="-118.57280731201172">
<ele>3118</ele>
<time>2016-10-21T18:03:31Z</time>
</trkpt>
<trkpt lat="36.925594329833984" lon="-118.57276153564453">
<ele>3117</ele>
<time>2016-10-21T18:03:41Z</time>
</trkpt>
<trkpt lat="36.92564010620117" lon="-118.5726547241211">
<ele>3119</ele>
<time>2016-10-21T18:03:50Z</time>
</trkpt>
<trkpt lat="36.92566680908203" lon="-118.5725326538086">
<ele>3120</ele>
<time>2016-10-21T18:04:00Z</time>
</trkpt>
<trkpt lat="36.92571258544922" lon="-118.57249450683594">
<ele>3116</ele>
<time>2016-10-21T18:04:06Z</time>
</trkpt>
<trkpt lat="36.92577362060547" lon="-118.57239532470703">
<ele>3115</ele>
<time>2016-10-21T18:04:14Z</time>
</trkpt>
<trkpt lat="36.92585754394531" lon="-118.57234191894531">
<ele>3116</ele>
<time>2016-10-21T18:04:22Z</time>
</trkpt>
<trkpt lat="36.925933837890625" lon="-118.57227325439453">
<ele>3118</ele>
<time>2016-10-21T18:04:31Z</time>
</trkpt>
<trkpt lat="36.92593002319336" lon="-118.57221221923828">
<ele>3120</ele>
<time>2016-10-21T18:04:37Z</time>
</trkpt>
<trkpt lat="36.92595672607422" lon="-118.57208251953125">
<ele>3127</ele>
<time>2016-10-21T18:04:48Z</time>
</trkpt>
<trkpt lat="36.926002502441406" lon="-118.57205200195313">
<ele>3132</ele>
<time>2016-10-21T18:04:55Z</time>
</trkpt>
<trkpt lat="36.92604446411133" lon="-118.572021484375">
<ele>3132</ele>
<time>2016-10-21T18:05:01Z</time>
</trkpt>
<trkpt lat="36.926090240478516" lon="-118.5719223022461">
<ele>3134</ele>
<time>2016-10-21T18:05:12Z</time>
</trkpt>
<trkpt lat="36.926177978515625" lon="-118.57186126708984">
<ele>3130</ele>
<time>2016-10-21T18:05:21Z</time>
</trkpt>
<trkpt lat="36.926265716552734" lon="-118.57183837890625">
<ele>3129</ele>
<time>2016-10-21T18:05:31Z</time>
</trkpt>
<trkpt lat="36.92631912231445" lon="-118.57181549072266">
<ele>3131</ele>
<time>2016-10-21T18:05:37Z</time>
</trkpt>
<trkpt lat="36.92635726928711" lon="-118.57177734375">
<ele>3132</ele>
<time>2016-10-21T18:05:43Z</time>
</trkpt>
<trkpt lat="36.92638397216797" lon="-118.57173156738281">
<ele>3130</ele>
<time>2016-10-21T18:05:49Z</time>
</trkpt>
<trkpt lat="36.92647933959961" lon="-118.57167053222656">
<ele>3133</ele>
<time>2016-10-21T18:05:59Z</time>
</trkpt>
<trkpt lat="36.926578521728516" lon="-118.57162475585938">
<ele>3132</ele>
<time>2016-10-21T18:06:09Z</time>
</trkpt>
<trkpt lat="36.92658615112305" lon="-118.5715103149414">
<ele>3137</ele>
<time>2016-10-21T18:06:18Z</time>
</trkpt>
<trkpt lat="36.92667007446289" lon="-118.57146453857422">
<ele>3138</ele>
<time>2016-10-21T18:06:27Z</time>
</trkpt>
<trkpt lat="36.92670822143555" lon="-118.57142639160156">
<ele>3139</ele>
<time>2016-10-21T18:06:33Z</time>
</trkpt>
<trkpt lat="36.92678451538086" lon="-118.57135009765625">
<ele>3145</ele>
<time>2016-10-21T18:06:42Z</time>
</trkpt>
<trkpt lat="36.92684555053711" lon="-118.5712661743164">
<ele>3147</ele>
<time>2016-10-21T18:06:49Z</time>
</trkpt>
<trkpt lat="36.9268684387207" lon="-118.5711441040039">
<ele>3148</ele>
<time>2016-10-21T18:06:57Z</time>
</trkpt>
<trkpt lat="36.926918029785156" lon="-118.57102966308594">
<ele>3149</ele>
<time>2016-10-21T18:07:08Z</time>
</trkpt>
<trkpt lat="36.92691421508789" lon="-118.57096862792969">
<ele>3148</ele>
<time>2016-10-21T18:07:14Z</time>
</trkpt>
<trkpt lat="36.92692184448242" lon="-118.57084655761719">
<ele>3145</ele>
<time>2016-10-21T18:07:24Z</time>
</trkpt>
<trkpt lat="36.92689895629883" lon="-118.57073974609375">
<ele>3143</ele>
<time>2016-10-21T18:07:31Z</time>
</trkpt>
<trkpt lat="36.92689895629883" lon="-118.57061004638672">
<ele>3138</ele>
<time>2016-10-21T18:07:41Z</time>
</trkpt>
<trkpt lat="36.92692565917969" lon="-118.570556640625">
<ele>3137</ele>
<time>2016-10-21T18:07:48Z</time>
</trkpt>
<trkpt lat="36.926963806152344" lon="-118.57051849365234">
<ele>3141</ele>
<time>2016-10-21T18:07:54Z</time>
</trkpt>
<trkpt lat="36.927040100097656" lon="-118.5704116821289">
<ele>3142</ele>
<time>2016-10-21T18:08:02Z</time>
</trkpt>
<trkpt lat="36.927101135253906" lon="-118.57030487060547">
<ele>3144</ele>
<time>2016-10-21T18:08:13Z</time>
</trkpt>
<trkpt lat="36.92718505859375" lon="-118.57025909423828">
<ele>3149</ele>
<time>2016-10-21T18:08:19Z</time>
</trkpt>
<trkpt lat="36.92727279663086" lon="-118.57019805908203">
<ele>3152</ele>
<time>2016-10-21T18:08:25Z</time>
</trkpt>
<trkpt lat="36.92736053466797" lon="-118.5701904296875">
<ele>3150</ele>
<time>2016-10-21T18:08:31Z</time>
</trkpt>
<trkpt lat="36.92739486694336" lon="-118.57013702392578">
<ele>3151</ele>
<time>2016-10-21T18:08:37Z</time>
</trkpt>
<trkpt lat="36.9274787902832" lon="-118.5700454711914">
<ele>3151</ele>
<time>2016-10-21T18:08:45Z</time>
</trkpt>
<trkpt lat="36.92753601074219" lon="-118.56996154785156">
<ele>3152</ele>
<time>2016-10-21T18:08:53Z</time>
</trkpt>
<trkpt lat="36.92755889892578" lon="-118.56990814208984">
<ele>3156</ele>
<time>2016-10-21T18:09:00Z</time>
</trkpt>
<trkpt lat="36.92757034301758" lon="-118.56985473632813">
<ele>3156</ele>
<time>2016-10-21T18:09:08Z</time>
</trkpt>
<trkpt lat="36.92759704589844" lon="-118.56974029541016">
<ele>3159</ele>
<time>2016-10-21T18:09:19Z</time>
</trkpt>
<trkpt lat="36.92760467529297" lon="-118.5696792602539">
<ele>3160</ele>
<time>2016-10-21T18:09:26Z</time>
</trkpt>
<trkpt lat="36.92771911621094" lon="-118.56961059570313">
<ele>3159</ele>
<time>2016-10-21T18:09:33Z</time>
</trkpt>
<trkpt lat="36.92781066894531" lon="-118.56954956054688">
<ele>3161</ele>
<time>2016-10-21T18:09:40Z</time>
</trkpt>
<trkpt lat="36.92789840698242" lon="-118.56951904296875">
<ele>3161</ele>
<time>2016-10-21T18:09:48Z</time>
</trkpt>
<trkpt lat="36.927978515625" lon="-118.5694580078125">
<ele>3159</ele>
<time>2016-10-21T18:09:57Z</time>
</trkpt>
<trkpt lat="36.92807388305664" lon="-118.56940460205078">
<ele>3154</ele>
<time>2016-10-21T18:10:04Z</time>
</trkpt>
<trkpt lat="36.928165435791016" lon="-118.5693359375">
<ele>3159</ele>
<time>2016-10-21T18:10:13Z</time>
</trkpt>
<trkpt lat="36.928226470947266" lon="-118.56922912597656">
<ele>3157</ele>
<time>2016-10-21T18:10:22Z</time>
</trkpt>
<trkpt lat="36.92832946777344" lon="-118.56914520263672">
<ele>3160</ele>
<time>2016-10-21T18:10:33Z</time>
</trkpt>
<trkpt lat="36.92842102050781" lon="-118.56909942626953">
<ele>3158</ele>
<time>2016-10-21T18:10:42Z</time>
</trkpt>
<trkpt lat="36.928489685058594" lon="-118.56901550292969">
<ele>3157</ele>
<time>2016-10-21T18:10:53Z</time>
</trkpt>
<trkpt lat="36.928531646728516" lon="-118.56889343261719">
<ele>3160</ele>
<time>2016-10-21T18:11:02Z</time>
</trkpt>
<trkpt lat="36.92851638793945" lon="-118.56875610351563">
<ele>3159</ele>
<time>2016-10-21T18:11:11Z</time>
</trkpt>
<trkpt lat="36.92852783203125" lon="-118.5687026977539">
<ele>3157</ele>
<time>2016-10-21T18:11:17Z</time>
</trkpt>
<trkpt lat="36.928558349609375" lon="-118.5685806274414">
<ele>3157</ele>
<time>2016-10-21T18:11:26Z</time>
</trkpt>
<trkpt lat="36.92866516113281" lon="-118.56847381591797">
<ele>3155</ele>
<time>2016-10-21T18:11:34Z</time>
</trkpt>
<trkpt lat="36.928714752197266" lon="-118.56836700439453">
<ele>3158</ele>
<time>2016-10-21T18:11:45Z</time>
</trkpt>
<trkpt lat="36.92876052856445" lon="-118.56824493408203">
<ele>3163</ele>
<time>2016-10-21T18:11:52Z</time>
</trkpt>
<trkpt lat="36.92877960205078" lon="-118.568115234375">
<ele>3159</ele>
<time>2016-10-21T18:12:01Z</time>
</trkpt>
<trkpt lat="36.92886734008789" lon="-118.56804656982422">
<ele>3160</ele>
<time>2016-10-21T18:12:10Z</time>
</trkpt>
<trkpt lat="36.92894744873047" lon="-118.56796264648438">
<ele>3162</ele>
<time>2016-10-21T18:12:21Z</time>
</trkpt>
<trkpt lat="36.92893600463867" lon="-118.56788635253906">
<ele>3160</ele>
<time>2016-10-21T18:12:27Z</time>
</trkpt>
<trkpt lat="36.92893600463867" lon="-118.56781005859375">
<ele>3160</ele>
<time>2016-10-21T18:13:27Z</time>
</trkpt>
<trkpt lat="36.928916931152344" lon="-118.5677490234375">
<ele>3160</ele>
<time>2016-10-21T18:14:00Z</time>
</trkpt>
<trkpt lat="36.928871154785156" lon="-118.5677261352539">
<ele>3154</ele>
<time>2016-10-21T18:14:08Z</time>
</trkpt>
<trkpt lat="36.928794860839844" lon="-118.56765747070313">
<ele>3155</ele>
<time>2016-10-21T18:14:17Z</time>
</trkpt>
<trkpt lat="36.92869567871094" lon="-118.567626953125">
<ele>3158</ele>
<time>2016-10-21T18:14:24Z</time>
</trkpt>
<trkpt lat="36.92861557006836" lon="-118.567626953125">
<ele>3152</ele>
<time>2016-10-21T18:14:35Z</time>
</trkpt>
<trkpt lat="36.92851638793945" lon="-118.56757354736328">
<ele>3154</ele>
<time>2016-10-21T18:14:42Z</time>
</trkpt>
<trkpt lat="36.928428649902344" lon="-118.56748962402344">
<ele>3155</ele>
<time>2016-10-21T18:14:48Z</time>
</trkpt>
<trkpt lat="36.92835998535156" lon="-118.56739807128906">
<ele>3155</ele>
<time>2016-10-21T18:14:57Z</time>
</trkpt>
<trkpt lat="36.92829895019531" lon="-118.56734466552734">
<ele>3152</ele>
<time>2016-10-21T18:15:06Z</time>
</trkpt>
<trkpt lat="36.928226470947266" lon="-118.56726837158203">
<ele>3151</ele>
<time>2016-10-21T18:15:14Z</time>
</trkpt>
<trkpt lat="36.92818069458008" lon="-118.56714630126953">
<ele>3158</ele>
<time>2016-10-21T18:15:23Z</time>
</trkpt>
<trkpt lat="36.92814636230469" lon="-118.56704711914063">
<ele>3160</ele>
<time>2016-10-21T18:15:32Z</time>
</trkpt>
<trkpt lat="36.928123474121094" lon="-118.5669937133789">
<ele>3157</ele>
<time>2016-10-21T18:16:01Z</time>
</trkpt>
<trkpt lat="36.92804718017578" lon="-118.56690216064453">
<ele>3157</ele>
<time>2016-10-21T18:16:10Z</time>
</trkpt>
<trkpt lat="36.92798614501953" lon="-118.5667953491211">
<ele>3156</ele>
<time>2016-10-21T18:16:20Z</time>
</trkpt>
<trkpt lat="36.928035736083984" lon="-118.56670379638672">
<ele>3158</ele>
<time>2016-10-21T18:16:27Z</time>
</trkpt>
<trkpt lat="36.92803955078125" lon="-118.56657409667969">
<ele>3162</ele>
<time>2016-10-21T18:16:34Z</time>
</trkpt>
<trkpt lat="36.9280891418457" lon="-118.56647491455078">
<ele>3161</ele>
<time>2016-10-21T18:16:43Z</time>
</trkpt>
<trkpt lat="36.92812728881836" lon="-118.56636810302734">
<ele>3158</ele>
<time>2016-10-21T18:16:51Z</time>
</trkpt>
<trkpt lat="36.928184509277344" lon="-118.56627655029297">
<ele>3159</ele>
<time>2016-10-21T18:17:00Z</time>
</trkpt>
<trkpt lat="36.92818832397461" lon="-118.56614685058594">
<ele>3159</ele>
<time>2016-10-21T18:17:08Z</time>
</trkpt>
<trkpt lat="36.92818832397461" lon="-118.56603240966797">
<ele>3158</ele>
<time>2016-10-21T18:17:16Z</time>
</trkpt>
<trkpt lat="36.92820358276367" lon="-118.56590270996094">
<ele>3160</ele>
<time>2016-10-21T18:17:25Z</time>
</trkpt>
<trkpt lat="36.92818832397461" lon="-118.56580352783203">
<ele>3163</ele>
<time>2016-10-21T18:17:33Z</time>
</trkpt>
<trkpt lat="36.928192138671875" lon="-118.56566619873047">
<ele>3164</ele>
<time>2016-10-21T18:17:41Z</time>
</trkpt>
<trkpt lat="36.928184509277344" lon="-118.56560516357422">
<ele>3163</ele>
<time>2016-10-21T18:17:47Z</time>
</trkpt>
<trkpt lat="36.928226470947266" lon="-118.56552124023438">
<ele>3158</ele>
<time>2016-10-21T18:18:02Z</time>
</trkpt>
<trkpt lat="36.92829895019531" lon="-118.56544494628906">
<ele>3156</ele>
<time>2016-10-21T18:18:13Z</time>
</trkpt>
<trkpt lat="36.92830276489258" lon="-118.56537628173828">
<ele>3158</ele>
<time>2016-10-21T18:18:19Z</time>
</trkpt>
<trkpt lat="36.928279876708984" lon="-118.5652847290039">
<ele>3163</ele>
<time>2016-10-21T18:18:27Z</time>
</trkpt>
<trkpt lat="36.928226470947266" lon="-118.565185546875">
<ele>3163</ele>
<time>2016-10-21T18:18:35Z</time>
</trkpt>
<trkpt lat="36.928199768066406" lon="-118.56512451171875">
<ele>3163</ele>
<time>2016-10-21T18:18:42Z</time>
</trkpt>
<trkpt lat="36.928184509277344" lon="-118.5650634765625">
<ele>3168</ele>
<time>2016-10-21T18:18:48Z</time>
</trkpt>
<trkpt lat="36.928199768066406" lon="-118.56500244140625">
<ele>3167</ele>
<time>2016-10-21T18:18:58Z</time>
</trkpt>
<trkpt lat="36.928199768066406" lon="-118.56493377685547">
<ele>3166</ele>
<time>2016-10-21T18:19:04Z</time>
</trkpt>
<trkpt lat="36.92823028564453" lon="-118.56488800048828">
<ele>3166</ele>
<time>2016-10-21T18:19:12Z</time>
</trkpt>
<trkpt lat="36.92816925048828" lon="-118.5648422241211">
<ele>3160</ele>
<time>2016-10-21T18:19:27Z</time>
</trkpt>
<trkpt lat="36.92815017700195" lon="-118.56478881835938">
<ele>3164</ele>
<time>2016-10-21T18:19:34Z</time>
</trkpt>
<trkpt lat="36.92813491821289" lon="-118.56465911865234">
<ele>3169</ele>
<time>2016-10-21T18:19:44Z</time>
</trkpt>
<trkpt lat="36.928123474121094" lon="-118.56454467773438">
<ele>3172</ele>
<time>2016-10-21T18:19:52Z</time>
</trkpt>
<trkpt lat="36.92812728881836" lon="-118.56448364257813">
<ele>3172</ele>
<time>2016-10-21T18:19:59Z</time>
</trkpt>
<trkpt lat="36.9281120300293" lon="-118.5644302368164">
<ele>3176</ele>
<time>2016-10-21T18:20:05Z</time>
</trkpt>
<trkpt lat="36.928104400634766" lon="-118.56436920166016">
<ele>3173</ele>
<time>2016-10-21T18:20:16Z</time>
</trkpt>
<trkpt lat="36.92809295654297" lon="-118.56431579589844">
<ele>3176</ele>
<time>2016-10-21T18:20:22Z</time>
</trkpt>
<trkpt lat="36.92808151245117" lon="-118.56422424316406">
<ele>3181</ele>
<time>2016-10-21T18:20:53Z</time>
</trkpt>
<trkpt lat="36.92807388305664" lon="-118.56411743164063">
<ele>3182</ele>
<time>2016-10-21T18:21:04Z</time>
</trkpt>
<trkpt lat="36.92807388305664" lon="-118.56404876708984">
<ele>3174</ele>
<time>2016-10-21T18:21:10Z</time>
</trkpt>
<trkpt lat="36.928062438964844" lon="-118.5639877319336">
<ele>3173</ele>
<time>2016-10-21T18:21:17Z</time>
</trkpt>
<trkpt lat="36.92806625366211" lon="-118.56392669677734">
<ele>3178</ele>
<time>2016-10-21T18:21:26Z</time>
</trkpt>
<trkpt lat="36.92808532714844" lon="-118.5638656616211">
<ele>3181</ele>
<time>2016-10-21T18:21:37Z</time>
</trkpt>
<trkpt lat="36.9280891418457" lon="-118.5637435913086">
<ele>3177</ele>
<time>2016-10-21T18:21:54Z</time>
</trkpt>
<trkpt lat="36.92807388305664" lon="-118.56368255615234">
<ele>3178</ele>
<time>2016-10-21T18:22:00Z</time>
</trkpt>
<trkpt lat="36.92804718017578" lon="-118.5636215209961">
<ele>3179</ele>
<time>2016-10-21T18:22:06Z</time>
</trkpt>
<trkpt lat="36.928016662597656" lon="-118.5635757446289">
<ele>3177</ele>
<time>2016-10-21T18:22:14Z</time>
</trkpt>
<trkpt lat="36.92803192138672" lon="-118.56351470947266">
<ele>3188</ele>
<time>2016-10-21T18:22:23Z</time>
</trkpt>
<trkpt lat="36.92802429199219" lon="-118.56342315673828">
<ele>3185</ele>
<time>2016-10-21T18:22:36Z</time>
</trkpt>
<trkpt lat="36.928009033203125" lon="-118.56330108642578">
<ele>3187</ele>
<time>2016-10-21T18:22:49Z</time>
</trkpt>
<trkpt lat="36.92802047729492" lon="-118.56317138671875">
<ele>3189</ele>
<time>2016-10-21T18:23:05Z</time>
</trkpt>
<trkpt lat="36.92801284790039" lon="-118.5631103515625">
<ele>3193</ele>
<time>2016-10-21T18:23:12Z</time>
</trkpt>
<trkpt lat="36.92799377441406" lon="-118.56305694580078">
<ele>3190</ele>
<time>2016-10-21T18:23:20Z</time>
</trkpt>
<trkpt lat="36.927955627441406" lon="-118.56298065185547">
<ele>3187</ele>
<time>2016-10-21T18:23:36Z</time>
</trkpt>
<trkpt lat="36.92791748046875" lon="-118.56295013427734">
<ele>3188</ele>
<time>2016-10-21T18:23:43Z</time>
</trkpt>
<trkpt lat="36.92783737182617" lon="-118.56287384033203">
<ele>3190</ele>
<time>2016-10-21T18:23:53Z</time>
</trkpt>
<trkpt lat="36.92783737182617" lon="-118.56280517578125">
<ele>3187</ele>
<time>2016-10-21T18:24:00Z</time>
</trkpt>
<trkpt lat="36.92780685424805" lon="-118.5627670288086">
<ele>3185</ele>
<time>2016-10-21T18:24:10Z</time>
</trkpt>
<trkpt lat="36.927734375" lon="-118.56266021728516">
<ele>3188</ele>
<time>2016-10-21T18:24:18Z</time>
</trkpt>
<trkpt lat="36.92768859863281" lon="-118.56256103515625">
<ele>3185</ele>
<time>2016-10-21T18:24:27Z</time>
</trkpt>
<trkpt lat="36.92768478393555" lon="-118.56250762939453">
<ele>3188</ele>
<time>2016-10-21T18:24:33Z</time>
</trkpt>
<trkpt lat="36.92770004272461" lon="-118.56245422363281">
<ele>3191</ele>
<time>2016-10-21T18:24:39Z</time>
</trkpt>
<trkpt lat="36.92770004272461" lon="-118.56239318847656">
<ele>3192</ele>
<time>2016-10-21T18:24:46Z</time>
</trkpt>
<trkpt lat="36.927677154541016" lon="-118.562255859375">
<ele>3194</ele>
<time>2016-10-21T18:24:58Z</time>
</trkpt>
<trkpt lat="36.92763900756836" lon="-118.5621566772461">
<ele>3197</ele>
<time>2016-10-21T18:25:12Z</time>
</trkpt>
<trkpt lat="36.927574157714844" lon="-118.5621566772461">
<ele>3194</ele>
<time>2016-10-21T18:26:27Z</time>
</trkpt>
<trkpt lat="36.927589416503906" lon="-118.56209564208984">
<ele>3197</ele>
<time>2016-10-21T18:26:34Z</time>
</trkpt>
<trkpt lat="36.92757797241211" lon="-118.56196594238281">
<ele>3196</ele>
<time>2016-10-21T18:26:45Z</time>
</trkpt>
<trkpt lat="36.9276008605957" lon="-118.5619125366211">
<ele>3196</ele>
<time>2016-10-21T18:26:51Z</time>
</trkpt>
<trkpt lat="36.92758560180664" lon="-118.56185913085938">
<ele>3197</ele>
<time>2016-10-21T18:26:58Z</time>
</trkpt>
<trkpt lat="36.92757034301758" lon="-118.56172943115234">
<ele>3200</ele>
<time>2016-10-21T18:27:07Z</time>
</trkpt>
<trkpt lat="36.927555084228516" lon="-118.5616683959961">
<ele>3206</ele>
<time>2016-10-21T18:27:13Z</time>
</trkpt>
<trkpt lat="36.92753601074219" lon="-118.56161499023438">
<ele>3202</ele>
<time>2016-10-21T18:27:22Z</time>
</trkpt>
<trkpt lat="36.9275016784668" lon="-118.56153106689453">
<ele>3199</ele>
<time>2016-10-21T18:27:34Z</time>
</trkpt>
<trkpt lat="36.927528381347656" lon="-118.56148529052734">
<ele>3197</ele>
<time>2016-10-21T18:27:41Z</time>
</trkpt>
<trkpt lat="36.92756652832031" lon="-118.56145477294922">
<ele>3202</ele>
<time>2016-10-21T18:27:51Z</time>
</trkpt>
<trkpt lat="36.927574157714844" lon="-118.56139373779297">
<ele>3204</ele>
<time>2016-10-21T18:27:58Z</time>
</trkpt>
<trkpt lat="36.927589416503906" lon="-118.56133270263672">
<ele>3208</ele>
<time>2016-10-21T18:28:05Z</time>
</trkpt>
<trkpt lat="36.927581787109375" lon="-118.56127166748047">
<ele>3206</ele>
<time>2016-10-21T18:28:22Z</time>
</trkpt>
<trkpt lat="36.927547454833984" lon="-118.56117248535156">
<ele>3207</ele>
<time>2016-10-21T18:28:31Z</time>
</trkpt>
<trkpt lat="36.927528381347656" lon="-118.5610580444336">
<ele>3211</ele>
<time>2016-10-21T18:28:43Z</time>
</trkpt>
<trkpt lat="36.92756271362305" lon="-118.56094360351563">
<ele>3208</ele>
<time>2016-10-21T18:28:53Z</time>
</trkpt>
<trkpt lat="36.92760467529297" lon="-118.5609130859375">
<ele>3208</ele>
<time>2016-10-21T18:28:59Z</time>
</trkpt>
<trkpt lat="36.92762756347656" lon="-118.56086730957031">
<ele>3213</ele>
<time>2016-10-21T18:29:14Z</time>
</trkpt>
<trkpt lat="36.927635192871094" lon="-118.56075286865234">
<ele>3214</ele>
<time>2016-10-21T18:29:27Z</time>
</trkpt>
<trkpt lat="36.92763900756836" lon="-118.5606918334961">
<ele>3215</ele>
<time>2016-10-21T18:29:34Z</time>
</trkpt>
<trkpt lat="36.927616119384766" lon="-118.5606460571289">
<ele>3218</ele>
<time>2016-10-21T18:29:43Z</time>
</trkpt>
<trkpt lat="36.92760467529297" lon="-118.56059265136719">
<ele>3220</ele>
<time>2016-10-21T18:29:49Z</time>
</trkpt>
<trkpt lat="36.92757797241211" lon="-118.56046295166016">
<ele>3218</ele>
<time>2016-10-21T18:29:59Z</time>
</trkpt>
<trkpt lat="36.92758560180664" lon="-118.5604019165039">
<ele>3225</ele>
<time>2016-10-21T18:30:07Z</time>
</trkpt>
<trkpt lat="36.9276237487793" lon="-118.560302734375">
<ele>3223</ele>
<time>2016-10-21T18:30:17Z</time>
</trkpt>
<trkpt lat="36.92765808105469" lon="-118.56024169921875">
<ele>3219</ele>
<time>2016-10-21T18:30:49Z</time>
</trkpt>
<trkpt lat="36.92766571044922" lon="-118.5601806640625">
<ele>3223</ele>
<time>2016-10-21T18:31:02Z</time>
</trkpt>
<trkpt lat="36.92770004272461" lon="-118.56014251708984">
<ele>3230</ele>
<time>2016-10-21T18:31:15Z</time>
</trkpt>
<trkpt lat="36.92775344848633" lon="-118.56011962890625">
<ele>3236</ele>
<time>2016-10-21T18:31:27Z</time>
</trkpt>
<trkpt lat="36.927825927734375" lon="-118.56005096435547">
<ele>3235</ele>
<time>2016-10-21T18:31:39Z</time>
</trkpt>
<trkpt lat="36.927825927734375" lon="-118.5599365234375">
<ele>3233</ele>
<time>2016-10-21T18:31:51Z</time>
</trkpt>
<trkpt lat="36.92782974243164" lon="-118.559814453125">
<ele>3234</ele>
<time>2016-10-21T18:32:03Z</time>
</trkpt>
<trkpt lat="36.92783737182617" lon="-118.55970001220703">
<ele>3237</ele>
<time>2016-10-21T18:32:19Z</time>
</trkpt>
<trkpt lat="36.927879333496094" lon="-118.55961608886719">
<ele>3238</ele>
<time>2016-10-21T18:32:38Z</time>
</trkpt>
<trkpt lat="36.927879333496094" lon="-118.55955505371094">
<ele>3233</ele>
<time>2016-10-21T18:32:47Z</time>
</trkpt>
<trkpt lat="36.92792510986328" lon="-118.55953216552734">
<ele>3235</ele>
<time>2016-10-21T18:32:53Z</time>
</trkpt>
<trkpt lat="36.92796325683594" lon="-118.55950164794922">
<ele>3234</ele>
<time>2016-10-21T18:32:59Z</time>
</trkpt>
<trkpt lat="36.927974700927734" lon="-118.55937957763672">
<ele>3239</ele>
<time>2016-10-21T18:33:10Z</time>
</trkpt>
<trkpt lat="36.9279670715332" lon="-118.55931091308594">
<ele>3242</ele>
<time>2016-10-21T18:33:17Z</time>
</trkpt>
<trkpt lat="36.927982330322266" lon="-118.55924987792969">
<ele>3236</ele>
<time>2016-10-21T18:33:24Z</time>
</trkpt>
<trkpt lat="36.92798614501953" lon="-118.55916595458984">
<ele>3237</ele>
<time>2016-10-21T18:33:35Z</time>
</trkpt>
<trkpt lat="36.928016662597656" lon="-118.55912780761719">
<ele>3239</ele>
<time>2016-10-21T18:33:43Z</time>
</trkpt>
<trkpt lat="36.928035736083984" lon="-118.55906677246094">
<ele>3243</ele>
<time>2016-10-21T18:34:07Z</time>
</trkpt>
<trkpt lat="36.928077697753906" lon="-118.55903625488281">
<ele>3248</ele>
<time>2016-10-21T18:34:23Z</time>
</trkpt>
<trkpt lat="36.92811584472656" lon="-118.5589828491211">
<ele>3243</ele>
<time>2016-10-21T18:34:34Z</time>
</trkpt>
<trkpt lat="36.928199768066406" lon="-118.55895233154297">
<ele>3248</ele>
<time>2016-10-21T18:34:43Z</time>
</trkpt>
<trkpt lat="36.928245544433594" lon="-118.55895233154297">
<ele>3251</ele>
<time>2016-10-21T18:34:54Z</time>
</trkpt>
<trkpt lat="36.92832946777344" lon="-118.55890655517578">
<ele>3246</ele>
<time>2016-10-21T18:35:44Z</time>
</trkpt>
<trkpt lat="36.92837142944336" lon="-118.55886840820313">
<ele>3248</ele>
<time>2016-10-21T18:35:50Z</time>
</trkpt>
<trkpt lat="36.928462982177734" lon="-118.55885314941406">
<ele>3254</ele>
<time>2016-10-21T18:36:07Z</time>
</trkpt>
<trkpt lat="36.92853927612305" lon="-118.55879211425781">
<ele>3259</ele>
<time>2016-10-21T18:36:33Z</time>
</trkpt>
<trkpt lat="36.928531646728516" lon="-118.55873107910156">
<ele>3256</ele>
<time>2016-10-21T18:36:47Z</time>
</trkpt>
<trkpt lat="36.928565979003906" lon="-118.5586929321289">
<ele>3260</ele>
<time>2016-10-21T18:36:57Z</time>
</trkpt>
<trkpt lat="36.92860794067383" lon="-118.55867004394531">
<ele>3263</ele>
<time>2016-10-21T18:37:07Z</time>
</trkpt>
<trkpt lat="36.92869186401367" lon="-118.55859375">
<ele>3263</ele>
<time>2016-10-21T18:37:16Z</time>
</trkpt>
<trkpt lat="36.92873764038086" lon="-118.55860900878906">
<ele>3266</ele>
<time>2016-10-21T18:37:25Z</time>
</trkpt>
<trkpt lat="36.92879104614258" lon="-118.5586166381836">
<ele>3266</ele>
<time>2016-10-21T18:37:40Z</time>
</trkpt>
<trkpt lat="36.92881774902344" lon="-118.5585708618164">
<ele>3265</ele>
<time>2016-10-21T18:37:50Z</time>
</trkpt>
<trkpt lat="36.928855895996094" lon="-118.55853271484375">
<ele>3267</ele>
<time>2016-10-21T18:38:00Z</time>
</trkpt>
<trkpt lat="36.92890167236328" lon="-118.55856323242188">
<ele>3268</ele>
<time>2016-10-21T18:38:09Z</time>
</trkpt>
<trkpt lat="36.928932189941406" lon="-118.55860900878906">
<ele>3264</ele>
<time>2016-10-21T18:38:24Z</time>
</trkpt>
<trkpt lat="36.9289665222168" lon="-118.55868530273438">
<ele>3266</ele>
<time>2016-10-21T18:38:36Z</time>
</trkpt>
<trkpt lat="36.929012298583984" lon="-118.55867767333984">
<ele>3271</ele>
<time>2016-10-21T18:38:51Z</time>
</trkpt>
<trkpt lat="36.92906188964844" lon="-118.55868530273438">
<ele>3272</ele>
<time>2016-10-21T18:38:58Z</time>
</trkpt>
<trkpt lat="36.9290885925293" lon="-118.5587387084961">
<ele>3273</ele>
<time>2016-10-21T18:39:24Z</time>
</trkpt>
<trkpt lat="36.929176330566406" lon="-118.5587387084961">
<ele>3285</ele>
<time>2016-10-21T18:39:57Z</time>
</trkpt>
<trkpt lat="36.92921829223633" lon="-118.5587158203125">
<ele>3287</ele>
<time>2016-10-21T18:40:04Z</time>
</trkpt>
<trkpt lat="36.92924880981445" lon="-118.55867767333984">
<ele>3286</ele>
<time>2016-10-21T18:40:18Z</time>
</trkpt>
<trkpt lat="36.92929458618164" lon="-118.55863952636719">
<ele>3285</ele>
<time>2016-10-21T18:40:24Z</time>
</trkpt>
<trkpt lat="36.92930221557617" lon="-118.55855560302734">
<ele>3283</ele>
<time>2016-10-21T18:40:33Z</time>
</trkpt>
<trkpt lat="36.92934799194336" lon="-118.55853271484375">
<ele>3288</ele>
<time>2016-10-21T18:40:51Z</time>
</trkpt>
<trkpt lat="36.92936325073242" lon="-118.55847930908203">
<ele>3284</ele>
<time>2016-10-21T18:41:00Z</time>
</trkpt>
<trkpt lat="36.92938232421875" lon="-118.55841827392578">
<ele>3286</ele>
<time>2016-10-21T18:41:10Z</time>
</trkpt>
<trkpt lat="36.92942810058594" lon="-118.55839538574219">
<ele>3289</ele>
<time>2016-10-21T18:41:20Z</time>
</trkpt>
<trkpt lat="36.929466247558594" lon="-118.55836486816406">
<ele>3289</ele>
<time>2016-10-21T18:41:27Z</time>
</trkpt>
<trkpt lat="36.92943572998047" lon="-118.55831909179688">
<ele>3292</ele>
<time>2016-10-21T18:41:42Z</time>
</trkpt>
<trkpt lat="36.929439544677734" lon="-118.55825805664063">
<ele>3294</ele>
<time>2016-10-21T18:41:49Z</time>
</trkpt>
<trkpt lat="36.92945098876953" lon="-118.55818939208984">
<ele>3296</ele>
<time>2016-10-21T18:41:56Z</time>
</trkpt>
<trkpt lat="36.929481506347656" lon="-118.55806732177734">
<ele>3297</ele>
<time>2016-10-21T18:42:07Z</time>
</trkpt>
<trkpt lat="36.929500579833984" lon="-118.5580062866211">
<ele>3297</ele>
<time>2016-10-21T18:42:13Z</time>
</trkpt>
<trkpt lat="36.929542541503906" lon="-118.55796813964844">
<ele>3299</ele>
<time>2016-10-21T18:42:19Z</time>
</trkpt>
<trkpt lat="36.9295768737793" lon="-118.55791473388672">
<ele>3300</ele>
<time>2016-10-21T18:42:25Z</time>
</trkpt>
<trkpt lat="36.92958068847656" lon="-118.55783081054688">
<ele>3298</ele>
<time>2016-10-21T18:42:31Z</time>
</trkpt>
<trkpt lat="36.92959213256836" lon="-118.55776977539063">
<ele>3301</ele>
<time>2016-10-21T18:42:38Z</time>
</trkpt>
<trkpt lat="36.92958068847656" lon="-118.55770874023438">
<ele>3302</ele>
<time>2016-10-21T18:42:49Z</time>
</trkpt>
<trkpt lat="36.92959976196289" lon="-118.55765533447266">
<ele>3304</ele>
<time>2016-10-21T18:43:03Z</time>
</trkpt>
<trkpt lat="36.92958450317383" lon="-118.5575942993164">
<ele>3306</ele>
<time>2016-10-21T18:43:09Z</time>
</trkpt>
<trkpt lat="36.9295768737793" lon="-118.55748748779297">
<ele>3305</ele>
<time>2016-10-21T18:43:27Z</time>
</trkpt>
<trkpt lat="36.92964172363281" lon="-118.55741119384766">
<ele>3307</ele>
<time>2016-10-21T18:43:35Z</time>
</trkpt>
<trkpt lat="36.92974853515625" lon="-118.5573959350586">
<ele>3306</ele>
<time>2016-10-21T18:43:44Z</time>
</trkpt>
<trkpt lat="36.92984390258789" lon="-118.557373046875">
<ele>3304</ele>
<time>2016-10-21T18:43:52Z</time>
</trkpt>
<trkpt lat="36.9299201965332" lon="-118.55729675292969">
<ele>3305</ele>
<time>2016-10-21T18:44:01Z</time>
</trkpt>
<trkpt lat="36.92995071411133" lon="-118.5572509765625">
<ele>3303</ele>
<time>2016-10-21T18:44:07Z</time>
</trkpt>
<trkpt lat="36.929988861083984" lon="-118.55728912353516">
<ele>3303</ele>
<time>2016-10-21T18:44:16Z</time>
</trkpt>
<trkpt lat="36.93003463745117" lon="-118.55730438232422">
<ele>3303</ele>
<time>2016-10-21T18:44:22Z</time>
</trkpt>
<trkpt lat="36.93012619018555" lon="-118.55731201171875">
<ele>3306</ele>
<time>2016-10-21T18:44:33Z</time>
</trkpt>
<trkpt lat="36.93014144897461" lon="-118.5572509765625">
<ele>3304</ele>
<time>2016-10-21T18:44:44Z</time>
</trkpt>
<trkpt lat="36.93019104003906" lon="-118.55728149414063">
<ele>3310</ele>
<time>2016-10-21T18:45:55Z</time>
</trkpt>
<trkpt lat="36.93029022216797" lon="-118.55728149414063">
<ele>3307</ele>
<time>2016-10-21T18:46:02Z</time>
</trkpt>
<trkpt lat="36.930389404296875" lon="-118.5572738647461">
<ele>3311</ele>
<time>2016-10-21T18:46:10Z</time>
</trkpt>
<trkpt lat="36.930484771728516" lon="-118.55723571777344">
<ele>3313</ele>
<time>2016-10-21T18:46:19Z</time>
</trkpt>
<trkpt lat="36.93056869506836" lon="-118.5572280883789">
<ele>3316</ele>
<time>2016-10-21T18:46:27Z</time>
</trkpt>
<trkpt lat="36.93064880371094" lon="-118.5571517944336">
<ele>3318</ele>
<time>2016-10-21T18:46:42Z</time>
</trkpt>
<trkpt lat="36.93068313598633" lon="-118.55711364746094">
<ele>3315</ele>
<time>2016-10-21T18:46:48Z</time>
</trkpt>
<trkpt lat="36.93071365356445" lon="-118.55706787109375">
<ele>3319</ele>
<time>2016-10-21T18:46:54Z</time>
</trkpt>
<trkpt lat="36.930789947509766" lon="-118.55699920654297">
<ele>3317</ele>
<time>2016-10-21T18:47:02Z</time>
</trkpt>
<trkpt lat="36.93087387084961" lon="-118.55693817138672">
<ele>3313</ele>
<time>2016-10-21T18:47:14Z</time>
</trkpt>
<trkpt lat="36.93095779418945" lon="-118.55686950683594">
<ele>3314</ele>
<time>2016-10-21T18:47:25Z</time>
</trkpt>
<trkpt lat="36.93101501464844" lon="-118.55681610107422">
<ele>3313</ele>
<time>2016-10-21T18:47:31Z</time>
</trkpt>
<trkpt lat="36.93110275268555" lon="-118.55675506591797">
<ele>3316</ele>
<time>2016-10-21T18:47:38Z</time>
</trkpt>
<trkpt lat="36.931148529052734" lon="-118.5567398071289">
<ele>3313</ele>
<time>2016-10-21T18:47:45Z</time>
</trkpt>
<trkpt lat="36.93118667602539" lon="-118.55668640136719">
<ele>3313</ele>
<time>2016-10-21T18:47:51Z</time>
</trkpt>
<trkpt lat="36.931243896484375" lon="-118.55659484863281">
<ele>3313</ele>
<time>2016-10-21T18:48:02Z</time>
</trkpt>
<trkpt lat="36.9312744140625" lon="-118.5565414428711">
<ele>3315</ele>
<time>2016-10-21T18:48:08Z</time>
</trkpt>
<trkpt lat="36.93129348754883" lon="-118.55648803710938">
<ele>3314</ele>
<time>2016-10-21T18:48:14Z</time>
</trkpt>
<trkpt lat="36.931297302246094" lon="-118.55642700195313">
<ele>3314</ele>
<time>2016-10-21T18:48:20Z</time>
</trkpt>
<trkpt lat="36.93135452270508" lon="-118.55641174316406">
<ele>3318</ele>
<time>2016-10-21T18:48:27Z</time>
</trkpt>
<trkpt lat="36.93134689331055" lon="-118.55635070800781">
<ele>3321</ele>
<time>2016-10-21T18:48:36Z</time>
</trkpt>
<trkpt lat="36.93134307861328" lon="-118.55628967285156">
<ele>3319</ele>
<time>2016-10-21T18:48:42Z</time>
</trkpt>
</trkseg>
</trk>
<trk>
<name><![CDATA[10211150]]></name>
<number>59</number>
<extensions><topografix:color>ff000066</topografix:color></extensions>
<trkseg>
<trkpt lat="36.93130874633789" lon="-118.55628967285156">
<ele>3324</ele>
<time>2016-10-21T18:50:45Z</time>
</trkpt>
<trkpt lat="36.931270599365234" lon="-118.55625915527344">
<ele>3317</ele>
<time>2016-10-21T18:53:05Z</time>
</trkpt>
<trkpt lat="36.931251525878906" lon="-118.55620574951172">
<ele>3312</ele>
<time>2016-10-21T18:54:02Z</time>
</trkpt>
<trkpt lat="36.93125915527344" lon="-118.55614471435547">
<ele>3295</ele>
<time>2016-10-21T18:54:52Z</time>
</trkpt>
<trkpt lat="36.931304931640625" lon="-118.55616760253906">
<ele>3305</ele>
<time>2016-10-21T18:55:19Z</time>
</trkpt>
<trkpt lat="36.93135452270508" lon="-118.55616760253906">
<ele>3320</ele>
<time>2016-10-21T19:02:29Z</time>
</trkpt>
<trkpt lat="36.9312858581543" lon="-118.55616760253906">
<ele>3313</ele>
<time>2016-10-21T19:02:45Z</time>
</trkpt>
<trkpt lat="36.93132019042969" lon="-118.55612182617188">
<ele>3309</ele>
<time>2016-10-21T19:03:08Z</time>
</trkpt>
<trkpt lat="36.93132019042969" lon="-118.55599212646484">
<ele>3311</ele>
<time>2016-10-21T19:03:19Z</time>
</trkpt>
<trkpt lat="36.93136978149414" lon="-118.55589294433594">
<ele>3316</ele>
<time>2016-10-21T19:03:32Z</time>
</trkpt>
<trkpt lat="36.93138885498047" lon="-118.55583190917969">
<ele>3313</ele>
<time>2016-10-21T19:03:42Z</time>
</trkpt>
<trkpt lat="36.931373596191406" lon="-118.55575561523438">
<ele>3314</ele>
<time>2016-10-21T19:03:52Z</time>
</trkpt>
<trkpt lat="36.931396484375" lon="-118.55569458007813">
<ele>3313</ele>
<time>2016-10-21T19:04:01Z</time>
</trkpt>
<trkpt lat="36.93145751953125" lon="-118.55559539794922">
<ele>3315</ele>
<time>2016-10-21T19:04:12Z</time>
</trkpt>
<trkpt lat="36.931495666503906" lon="-118.5555648803711">
<ele>3319</ele>
<time>2016-10-21T19:04:25Z</time>
</trkpt>
<trkpt lat="36.93151092529297" lon="-118.55550384521484">
<ele>3317</ele>
<time>2016-10-21T19:04:31Z</time>
</trkpt>
<trkpt lat="36.9315299987793" lon="-118.55545043945313">
<ele>3314</ele>
<time>2016-10-21T19:04:45Z</time>
</trkpt>
<trkpt lat="36.931549072265625" lon="-118.5553970336914">
<ele>3315</ele>
<time>2016-10-21T19:04:53Z</time>
</trkpt>
<trkpt lat="36.93155288696289" lon="-118.55532836914063">
<ele>3312</ele>
<time>2016-10-21T19:05:33Z</time>
</trkpt>
<trkpt lat="36.93156814575195" lon="-118.5552749633789">
<ele>3311</ele>
<time>2016-10-21T19:05:40Z</time>
</trkpt>
<trkpt lat="36.931610107421875" lon="-118.5551986694336">
<ele>3316</ele>
<time>2016-10-21T19:05:53Z</time>
</trkpt>
<trkpt lat="36.93162536621094" lon="-118.55513000488281">
<ele>3316</ele>
<time>2016-10-21T19:06:01Z</time>
</trkpt>
<trkpt lat="36.931636810302734" lon="-118.55506896972656">
<ele>3319</ele>
<time>2016-10-21T19:06:13Z</time>
</trkpt>
<trkpt lat="36.93165588378906" lon="-118.55501556396484">
<ele>3318</ele>
<time>2016-10-21T19:06:29Z</time>
</trkpt>
<trkpt lat="36.931705474853516" lon="-118.5549087524414">
<ele>3318</ele>
<time>2016-10-21T19:06:39Z</time>
</trkpt>
<trkpt lat="36.931758880615234" lon="-118.55484008789063">
<ele>3325</ele>
<time>2016-10-21T19:07:01Z</time>
</trkpt>
<trkpt lat="36.93178176879883" lon="-118.55479431152344">
<ele>3325</ele>
<time>2016-10-21T19:07:08Z</time>
</trkpt>
<trkpt lat="36.93177032470703" lon="-118.55474090576172">
<ele>3327</ele>
<time>2016-10-21T19:07:24Z</time>
</trkpt>
<trkpt lat="36.931766510009766" lon="-118.55467987060547">
<ele>3328</ele>
<time>2016-10-21T19:07:34Z</time>
</trkpt>
<trkpt lat="36.93181610107422" lon="-118.55460357666016">
<ele>3329</ele>
<time>2016-10-21T19:07:50Z</time>
</trkpt>
<trkpt lat="36.93183135986328" lon="-118.5545425415039">
<ele>3331</ele>
<time>2016-10-21T19:07:58Z</time>
</trkpt>
<trkpt lat="36.93184280395508" lon="-118.55460357666016">
<ele>3338</ele>
<time>2016-10-21T19:08:10Z</time>
</trkpt>
</trkseg>
</trk>
<trk>
<name><![CDATA[10211216]]></name>
<number>60</number>
<extensions><topografix:color>ff000066</topografix:color></extensions>
<trkseg>
<trkpt lat="36.93205261230469" lon="-118.55322265625">
<ele>3378</ele>
<time>2016-10-21T19:16:35Z</time>
</trkpt>
<trkpt lat="36.932098388671875" lon="-118.5531997680664">
<ele>3385</ele>
<time>2016-10-21T19:18:37Z</time>
</trkpt>
<trkpt lat="36.93205261230469" lon="-118.5531997680664">
<ele>3392</ele>
<time>2016-10-21T19:19:14Z</time>
</trkpt>
<trkpt lat="36.932010650634766" lon="-118.55316925048828">
<ele>3394</ele>
<time>2016-10-21T19:19:24Z</time>
</trkpt>
<trkpt lat="36.93197250366211" lon="-118.55313110351563">
<ele>3396</ele>
<time>2016-10-21T19:19:34Z</time>
</trkpt>
<trkpt lat="36.931922912597656" lon="-118.55311584472656">
<ele>3396</ele>
<time>2016-10-21T19:20:06Z</time>
</trkpt>
<trkpt lat="36.931888580322266" lon="-118.55307006835938">
<ele>3393</ele>
<time>2016-10-21T19:20:16Z</time>
</trkpt>
<trkpt lat="36.931854248046875" lon="-118.55303192138672">
<ele>3402</ele>
<time>2016-10-21T19:20:28Z</time>
</trkpt>
<trkpt lat="36.93181610107422" lon="-118.5530014038086">
<ele>3406</ele>
<time>2016-10-21T19:20:48Z</time>
</trkpt>
<trkpt lat="36.93179702758789" lon="-118.55294799804688">
<ele>3404</ele>
<time>2016-10-21T19:21:05Z</time>
</trkpt>
<trkpt lat="36.9317512512207" lon="-118.55292510986328">
<ele>3403</ele>
<time>2016-10-21T19:21:21Z</time>
</trkpt>
<trkpt lat="36.931724548339844" lon="-118.55287170410156">
<ele>3403</ele>
<time>2016-10-21T19:21:29Z</time>
</trkpt>
<trkpt lat="36.93169021606445" lon="-118.5528335571289">
<ele>3407</ele>
<time>2016-10-21T19:21:58Z</time>
</trkpt>
<trkpt lat="36.93170928955078" lon="-118.55278015136719">
<ele>3407</ele>
<time>2016-10-21T19:22:18Z</time>
</trkpt>
<trkpt lat="36.931705474853516" lon="-118.55272674560547">
<ele>3407</ele>
<time>2016-10-21T19:22:24Z</time>
</trkpt>
<trkpt lat="36.93171691894531" lon="-118.55266571044922">
<ele>3417</ele>
<time>2016-10-21T19:22:51Z</time>
</trkpt>
<trkpt lat="36.93172073364258" lon="-118.55260467529297">
<ele>3413</ele>
<time>2016-10-21T19:23:06Z</time>
</trkpt>
<trkpt lat="36.931640625" lon="-118.55259704589844">
<ele>3414</ele>
<time>2016-10-21T19:23:48Z</time>
</trkpt>
<trkpt lat="36.93158721923828" lon="-118.5525894165039">
<ele>3413</ele>
<time>2016-10-21T19:23:56Z</time>
</trkpt>
<trkpt lat="36.93153762817383" lon="-118.55260467529297">
<ele>3418</ele>
<time>2016-10-21T19:24:16Z</time>
</trkpt>
<trkpt lat="36.931480407714844" lon="-118.55265808105469">
<ele>3423</ele>
<time>2016-10-21T19:24:49Z</time>
</trkpt>
<trkpt lat="36.931522369384766" lon="-118.55264282226563">
<ele>3429</ele>
<time>2016-10-21T19:25:28Z</time>
</trkpt>
<trkpt lat="36.931514739990234" lon="-118.55270385742188">
<ele>3431</ele>
<time>2016-10-21T19:26:35Z</time>
</trkpt>
<trkpt lat="36.9315071105957" lon="-118.5526351928711">
<ele>3431</ele>
<time>2016-10-21T19:28:50Z</time>
</trkpt>
<trkpt lat="36.93153381347656" lon="-118.5525894165039">
<ele>3438</ele>
<time>2016-10-21T19:29:25Z</time>
</trkpt>
<trkpt lat="36.9315185546875" lon="-118.55252838134766">
<ele>3445</ele>
<time>2016-10-21T19:34:08Z</time>
</trkpt>
<trkpt lat="36.93147277832031" lon="-118.5525131225586">
<ele>3451</ele>
<time>2016-10-21T19:34:24Z</time>
</trkpt>
<trkpt lat="36.93144989013672" lon="-118.55242156982422">
<ele>3451</ele>
<time>2016-10-21T19:35:58Z</time>
</trkpt>
<trkpt lat="36.93147659301758" lon="-118.55237579345703">
<ele>3455</ele>
<time>2016-10-21T19:36:24Z</time>
</trkpt>
<trkpt lat="36.931434631347656" lon="-118.5523452758789">
<ele>3456</ele>
<time>2016-10-21T19:36:34Z</time>
</trkpt>
<trkpt lat="36.93146514892578" lon="-118.55230712890625">
<ele>3460</ele>
<time>2016-10-21T19:37:03Z</time>
</trkpt>
<trkpt lat="36.93140411376953" lon="-118.55229949951172">
<ele>3464</ele>
<time>2016-10-21T19:38:32Z</time>
</trkpt>
<trkpt lat="36.93135070800781" lon="-118.55226135253906">
<ele>3465</ele>
<time>2016-10-21T19:39:35Z</time>
</trkpt>
<trkpt lat="36.93132400512695" lon="-118.55220794677734">
<ele>3474</ele>
<time>2016-10-21T19:40:23Z</time>
</trkpt>
<trkpt lat="36.93124008178711" lon="-118.55216979980469">
<ele>3479</ele>
<time>2016-10-21T19:41:06Z</time>
</trkpt>
<trkpt lat="36.931278228759766" lon="-118.55213165283203">
<ele>3482</ele>
<time>2016-10-21T19:41:52Z</time>
</trkpt>
<trkpt lat="36.931297302246094" lon="-118.55207824707031">
<ele>3484</ele>
<time>2016-10-21T19:42:05Z</time>
</trkpt>
<trkpt lat="36.93124771118164" lon="-118.55208587646484">
<ele>3490</ele>
<time>2016-10-21T19:42:30Z</time>
</trkpt>
<trkpt lat="36.931209564208984" lon="-118.55201721191406">
<ele>3496</ele>
<time>2016-10-21T19:43:03Z</time>
</trkpt>
<trkpt lat="36.9311637878418" lon="-118.55199432373047">
<ele>3497</ele>
<time>2016-10-21T19:43:10Z</time>
</trkpt>
<trkpt lat="36.93108367919922" lon="-118.5520248413086">
<ele>3501</ele>
<time>2016-10-21T19:43:43Z</time>
</trkpt>
<trkpt lat="36.93103790283203" lon="-118.55199432373047">
<ele>3504</ele>
<time>2016-10-21T19:44:16Z</time>
</trkpt>
<trkpt lat="36.930999755859375" lon="-118.55197143554688">
<ele>3504</ele>
<time>2016-10-21T19:44:27Z</time>
</trkpt>
<trkpt lat="36.93099594116211" lon="-118.55186462402344">
<ele>3503</ele>
<time>2016-10-21T19:44:51Z</time>
</trkpt>
<trkpt lat="36.93095779418945" lon="-118.55182647705078">
<ele>3501</ele>
<time>2016-10-21T19:45:17Z</time>
</trkpt>
<trkpt lat="36.93098068237305" lon="-118.55172729492188">
<ele>3510</ele>
<time>2016-10-21T19:45:49Z</time>
</trkpt>
<trkpt lat="36.930938720703125" lon="-118.55171203613281">
<ele>3509</ele>
<time>2016-10-21T19:45:56Z</time>
</trkpt>
<trkpt lat="36.930999755859375" lon="-118.55169677734375">
<ele>3507</ele>
<time>2016-10-21T19:47:35Z</time>
</trkpt>
<trkpt lat="36.93095016479492" lon="-118.55168151855469">
<ele>3512</ele>
<time>2016-10-21T19:47:49Z</time>
</trkpt>
<trkpt lat="36.93092727661133" lon="-118.55162811279297">
<ele>3520</ele>
<time>2016-10-21T19:48:16Z</time>
</trkpt>
<trkpt lat="36.93093490600586" lon="-118.55155944824219">
<ele>3522</ele>
<time>2016-10-21T19:48:48Z</time>
</trkpt>
<trkpt lat="36.930904388427734" lon="-118.551513671875">
<ele>3523</ele>
<time>2016-10-21T19:49:09Z</time>
</trkpt>
<trkpt lat="36.9308967590332" lon="-118.55146026611328">
<ele>3527</ele>
<time>2016-10-21T19:49:30Z</time>
</trkpt>
<trkpt lat="36.93088150024414" lon="-118.55137634277344">
<ele>3532</ele>
<time>2016-10-21T19:49:54Z</time>
</trkpt>
<trkpt lat="36.93084716796875" lon="-118.55133819580078">
<ele>3538</ele>
<time>2016-10-21T19:50:11Z</time>
</trkpt>
<trkpt lat="36.930816650390625" lon="-118.5512924194336">
<ele>3535</ele>
<time>2016-10-21T19:50:32Z</time>
</trkpt>
<trkpt lat="36.9307746887207" lon="-118.55125427246094">
<ele>3538</ele>
<time>2016-10-21T19:50:51Z</time>
</trkpt>
<trkpt lat="36.930782318115234" lon="-118.55119323730469">
<ele>3537</ele>
<time>2016-10-21T19:51:03Z</time>
</trkpt>
<trkpt lat="36.930755615234375" lon="-118.5511474609375">
<ele>3538</ele>
<time>2016-10-21T19:51:29Z</time>
</trkpt>
<trkpt lat="36.93070983886719" lon="-118.5511474609375">
<ele>3547</ele>
<time>2016-10-21T19:52:07Z</time>
</trkpt>
<trkpt lat="36.93064498901367" lon="-118.55107116699219">
<ele>3552</ele>
<time>2016-10-21T19:52:50Z</time>
</trkpt>
<trkpt lat="36.930667877197266" lon="-118.55097198486328">
<ele>3556</ele>
<time>2016-10-21T19:53:45Z</time>
</trkpt>
<trkpt lat="36.930702209472656" lon="-118.5509262084961">
<ele>3558</ele>
<time>2016-10-21T19:53:53Z</time>
</trkpt>
<trkpt lat="36.93070983886719" lon="-118.55086517333984">
<ele>3559</ele>
<time>2016-10-21T19:54:14Z</time>
</trkpt>
<trkpt lat="36.930721282958984" lon="-118.55077362060547">
<ele>3566</ele>
<time>2016-10-21T19:55:35Z</time>
</trkpt>
<trkpt lat="36.930667877197266" lon="-118.55072021484375">
<ele>3576</ele>
<time>2016-10-21T19:57:15Z</time>
</trkpt>
<trkpt lat="36.9306526184082" lon="-118.5506591796875">
<ele>3575</ele>
<time>2016-10-21T19:57:23Z</time>
</trkpt>
<trkpt lat="36.9306640625" lon="-118.55056762695313">
<ele>3576</ele>
<time>2016-10-21T19:57:49Z</time>
</trkpt>
<trkpt lat="36.93064498901367" lon="-118.5505142211914">
<ele>3579</ele>
<time>2016-10-21T19:58:06Z</time>
</trkpt>
<trkpt lat="36.930667877197266" lon="-118.55046081542969">
<ele>3583</ele>
<time>2016-10-21T19:58:21Z</time>
</trkpt>
<trkpt lat="36.930625915527344" lon="-118.5503921508789">
<ele>3588</ele>
<time>2016-10-21T19:59:00Z</time>
</trkpt>
<trkpt lat="36.93059158325195" lon="-118.55035400390625">
<ele>3591</ele>
<time>2016-10-21T19:59:23Z</time>
</trkpt>
<trkpt lat="36.930572509765625" lon="-118.55029296875">
<ele>3601</ele>
<time>2016-10-21T20:00:04Z</time>
</trkpt>
<trkpt lat="36.93058776855469" lon="-118.55020141601563">
<ele>3605</ele>
<time>2016-10-21T20:00:59Z</time>
</trkpt>
<trkpt lat="36.93062973022461" lon="-118.55017852783203">
<ele>3605</ele>
<time>2016-10-21T20:01:08Z</time>
</trkpt>
<trkpt lat="36.93059158325195" lon="-118.5501480102539">
<ele>3605</ele>
<time>2016-10-21T20:01:27Z</time>
</trkpt>
<trkpt lat="36.930606842041016" lon="-118.55005645751953">
<ele>3616</ele>
<time>2016-10-21T20:02:11Z</time>
</trkpt>
<trkpt lat="36.93062973022461" lon="-118.55000305175781">
<ele>3616</ele>
<time>2016-10-21T20:02:28Z</time>
</trkpt>
<trkpt lat="36.93061065673828" lon="-118.5499267578125">
<ele>3623</ele>
<time>2016-10-21T20:03:35Z</time>
</trkpt>
<trkpt lat="36.9306526184082" lon="-118.5499038696289">
<ele>3624</ele>
<time>2016-10-21T20:03:44Z</time>
</trkpt>
<trkpt lat="36.93061828613281" lon="-118.54985809326172">
<ele>3621</ele>
<time>2016-10-21T20:04:11Z</time>
</trkpt>
<trkpt lat="36.93062210083008" lon="-118.54979705810547">
<ele>3624</ele>
<time>2016-10-21T20:04:50Z</time>
</trkpt>
<trkpt lat="36.93062973022461" lon="-118.54973602294922">
<ele>3625</ele>
<time>2016-10-21T20:05:03Z</time>
</trkpt>
<trkpt lat="36.93068313598633" lon="-118.5496597290039">
<ele>3627</ele>
<time>2016-10-21T20:05:53Z</time>
</trkpt>
<trkpt lat="36.93069839477539" lon="-118.54959869384766">
<ele>3627</ele>
<time>2016-10-21T20:06:05Z</time>
</trkpt>
<trkpt lat="36.93077850341797" lon="-118.5495376586914">
<ele>3626</ele>
<time>2016-10-21T20:06:18Z</time>
</trkpt>
<trkpt lat="36.930809020996094" lon="-118.54944610595703">
<ele>3641</ele>
<time>2016-10-21T20:06:47Z</time>
</trkpt>
<trkpt lat="36.93082809448242" lon="-118.54939270019531">
<ele>3642</ele>
<time>2016-10-21T20:07:09Z</time>
</trkpt>
<trkpt lat="36.93082046508789" lon="-118.54932403564453">
<ele>3645</ele>
<time>2016-10-21T20:08:35Z</time>
</trkpt>
<trkpt lat="36.930809020996094" lon="-118.54927062988281">
<ele>3644</ele>
<time>2016-10-21T20:09:19Z</time>
</trkpt>
<trkpt lat="36.9307975769043" lon="-118.54917907714844">
<ele>3650</ele>
<time>2016-10-21T20:10:23Z</time>
</trkpt>
<trkpt lat="36.93082046508789" lon="-118.54912567138672">
<ele>3652</ele>
<time>2016-10-21T20:10:30Z</time>
</trkpt>
<trkpt lat="36.930816650390625" lon="-118.5490493774414">
<ele>3653</ele>
<time>2016-10-21T20:10:44Z</time>
</trkpt>
<trkpt lat="36.93085861206055" lon="-118.54901885986328">
<ele>3658</ele>
<time>2016-10-21T20:11:15Z</time>
</trkpt>
<trkpt lat="36.930850982666016" lon="-118.54896545410156">
<ele>3660</ele>
<time>2016-10-21T20:11:34Z</time>
</trkpt>
<trkpt lat="36.930816650390625" lon="-118.54891204833984">
<ele>3664</ele>
<time>2016-10-21T20:12:03Z</time>
</trkpt>
<trkpt lat="36.9307746887207" lon="-118.54888153076172">
<ele>3668</ele>
<time>2016-10-21T20:12:22Z</time>
</trkpt>
<trkpt lat="36.93074035644531" lon="-118.548828125">
<ele>3673</ele>
<time>2016-10-21T20:12:58Z</time>
</trkpt>
<trkpt lat="36.93077087402344" lon="-118.54876708984375">
<ele>3676</ele>
<time>2016-10-21T20:13:58Z</time>
</trkpt>
<trkpt lat="36.93072509765625" lon="-118.54877471923828">
<ele>3679</ele>
<time>2016-10-21T20:14:09Z</time>
</trkpt>
<trkpt lat="36.930747985839844" lon="-118.54869842529297">
<ele>3677</ele>
<time>2016-10-21T20:14:58Z</time>
</trkpt>
<trkpt lat="36.9307861328125" lon="-118.54866027832031">
<ele>3679</ele>
<time>2016-10-21T20:15:28Z</time>
</trkpt>
<trkpt lat="36.9307861328125" lon="-118.54859161376953">
<ele>3682</ele>
<time>2016-10-21T20:15:51Z</time>
</trkpt>
<trkpt lat="36.93077087402344" lon="-118.54853057861328">
<ele>3684</ele>
<time>2016-10-21T20:16:11Z</time>
</trkpt>
<trkpt lat="36.93080139160156" lon="-118.5484848022461">
<ele>3688</ele>
<time>2016-10-21T20:16:58Z</time>
</trkpt>
<trkpt lat="36.93082046508789" lon="-118.54843139648438">
<ele>3693</ele>
<time>2016-10-21T20:17:21Z</time>
</trkpt>
<trkpt lat="36.93082046508789" lon="-118.54837036132813">
<ele>3697</ele>
<time>2016-10-21T20:17:45Z</time>
</trkpt>
<trkpt lat="36.930789947509766" lon="-118.54833221435547">
<ele>3696</ele>
<time>2016-10-21T20:18:06Z</time>
</trkpt>
<trkpt lat="36.9307861328125" lon="-118.5482406616211">
<ele>3704</ele>
<time>2016-10-21T20:19:07Z</time>
</trkpt>
<trkpt lat="36.93075942993164" lon="-118.5481948852539">
<ele>3706</ele>
<time>2016-10-21T20:19:24Z</time>
</trkpt>
</trkseg>
</trk>
<trk>
<name><![CDATA[10211334]]></name>
<number>61</number>
<extensions><topografix:color>ff000066</topografix:color></extensions>
<trkseg>
<trkpt lat="36.93041229248047" lon="-118.54774475097656">
<ele>3756</ele>
<time>2016-10-21T20:34:10Z</time>
</trkpt>
<trkpt lat="36.930419921875" lon="-118.54768371582031">
<ele>3757</ele>
<time>2016-10-21T20:34:55Z</time>
</trkpt>
<trkpt lat="36.930442810058594" lon="-118.5476303100586">
<ele>3757</ele>
<time>2016-10-21T20:35:01Z</time>
</trkpt>
<trkpt lat="36.93047332763672" lon="-118.5475845336914">
<ele>3756</ele>
<time>2016-10-21T20:35:10Z</time>
</trkpt>
<trkpt lat="36.93051528930664" lon="-118.54754638671875">
<ele>3758</ele>
<time>2016-10-21T20:35:18Z</time>
</trkpt>
<trkpt lat="36.93053436279297" lon="-118.54749298095703">
<ele>3758</ele>
<time>2016-10-21T20:35:31Z</time>
</trkpt>
<trkpt lat="36.93057632446289" lon="-118.54747009277344">
<ele>3758</ele>
<time>2016-10-21T20:35:40Z</time>
</trkpt>
<trkpt lat="36.93061065673828" lon="-118.54743194580078">
<ele>3759</ele>
<time>2016-10-21T20:35:57Z</time>
</trkpt>
<trkpt lat="36.93064880371094" lon="-118.5473861694336">
<ele>3761</ele>
<time>2016-10-21T20:36:08Z</time>
</trkpt>
<trkpt lat="36.9306526184082" lon="-118.54733276367188">
<ele>3763</ele>
<time>2016-10-21T20:36:19Z</time>
</trkpt>
<trkpt lat="36.93068313598633" lon="-118.54728698730469">
<ele>3766</ele>
<time>2016-10-21T20:36:43Z</time>
</trkpt>
<trkpt lat="36.930728912353516" lon="-118.54727172851563">
<ele>3767</ele>
<time>2016-10-21T20:37:16Z</time>
</trkpt>
<trkpt lat="36.93079376220703" lon="-118.54719543457031">
<ele>3765</ele>
<time>2016-10-21T20:37:27Z</time>
</trkpt>
<trkpt lat="36.93082809448242" lon="-118.54714965820313">
<ele>3767</ele>
<time>2016-10-21T20:37:40Z</time>
</trkpt>
<trkpt lat="36.93085861206055" lon="-118.54710388183594">
<ele>3767</ele>
<time>2016-10-21T20:37:51Z</time>
</trkpt>
<trkpt lat="36.93088912963867" lon="-118.54705047607422">
<ele>3771</ele>
<time>2016-10-21T20:38:06Z</time>
</trkpt>
<trkpt lat="36.9309196472168" lon="-118.54701232910156">
<ele>3770</ele>
<time>2016-10-21T20:38:21Z</time>
</trkpt>
<trkpt lat="36.930931091308594" lon="-118.54695892333984">
<ele>3771</ele>
<time>2016-10-21T20:38:47Z</time>
</trkpt>
<trkpt lat="36.930965423583984" lon="-118.54690551757813">
<ele>3770</ele>
<time>2016-10-21T20:38:54Z</time>
</trkpt>
<trkpt lat="36.93100357055664" lon="-118.546875">
<ele>3769</ele>
<time>2016-10-21T20:39:00Z</time>
</trkpt>
<trkpt lat="36.9310188293457" lon="-118.54680633544922">
<ele>3769</ele>
<time>2016-10-21T20:39:18Z</time>
</trkpt>
<trkpt lat="36.93104553222656" lon="-118.5467529296875">
<ele>3774</ele>
<time>2016-10-21T20:39:41Z</time>
</trkpt>
<trkpt lat="36.93107986450195" lon="-118.54671478271484">
<ele>3773</ele>
<time>2016-10-21T20:40:09Z</time>
</trkpt>
<trkpt lat="36.93111038208008" lon="-118.54666137695313">
<ele>3775</ele>
<time>2016-10-21T20:40:21Z</time>
</trkpt>
<trkpt lat="36.93114471435547" lon="-118.546630859375">
<ele>3776</ele>
<time>2016-10-21T20:40:52Z</time>
</trkpt>
<trkpt lat="36.93120193481445" lon="-118.54659271240234">
<ele>3779</ele>
<time>2016-10-21T20:41:36Z</time>
</trkpt>
<trkpt lat="36.93122863769531" lon="-118.54653930664063">
<ele>3779</ele>
<time>2016-10-21T20:41:49Z</time>
</trkpt>
<trkpt lat="36.93129348754883" lon="-118.54647064208984">
<ele>3786</ele>
<time>2016-10-21T20:42:23Z</time>
</trkpt>
<trkpt lat="36.931312561035156" lon="-118.54641723632813">
<ele>3789</ele>
<time>2016-10-21T20:42:38Z</time>
</trkpt>
<trkpt lat="36.931331634521484" lon="-118.54635620117188">
<ele>3789</ele>
<time>2016-10-21T20:42:51Z</time>
</trkpt>
<trkpt lat="36.93138122558594" lon="-118.54631805419922">
<ele>3791</ele>
<time>2016-10-21T20:43:24Z</time>
</trkpt>
<trkpt lat="36.93141555786133" lon="-118.54622650146484">
<ele>3793</ele>
<time>2016-10-21T20:46:26Z</time>
</trkpt>
<trkpt lat="36.93143081665039" lon="-118.54615783691406">
<ele>3791</ele>
<time>2016-10-21T20:46:40Z</time>
</trkpt>
<trkpt lat="36.931453704833984" lon="-118.54610443115234">
<ele>3791</ele>
<time>2016-10-21T20:46:48Z</time>
</trkpt>
<trkpt lat="36.93147277832031" lon="-118.54605102539063">
<ele>3791</ele>
<time>2016-10-21T20:46:57Z</time>
</trkpt>
<trkpt lat="36.93151092529297" lon="-118.54600524902344">
<ele>3792</ele>
<time>2016-10-21T20:47:05Z</time>
</trkpt>
<trkpt lat="36.93156051635742" lon="-118.54598999023438">
<ele>3794</ele>
<time>2016-10-21T20:47:27Z</time>
</trkpt>
<trkpt lat="36.931617736816406" lon="-118.54593658447266">
<ele>3800</ele>
<time>2016-10-21T20:48:23Z</time>
</trkpt>
<trkpt lat="36.93164825439453" lon="-118.54589080810547">
<ele>3801</ele>
<time>2016-10-21T20:48:35Z</time>
</trkpt>
<trkpt lat="36.931671142578125" lon="-118.54583740234375">
<ele>3803</ele>
<time>2016-10-21T20:48:59Z</time>
</trkpt>
<trkpt lat="36.93172836303711" lon="-118.54582214355469">
<ele>3806</ele>
<time>2016-10-21T20:49:30Z</time>
</trkpt>
<trkpt lat="36.931766510009766" lon="-118.54578399658203">
<ele>3808</ele>
<time>2016-10-21T20:49:54Z</time>
</trkpt>
<trkpt lat="36.93179702758789" lon="-118.54568481445313">
<ele>3811</ele>
<time>2016-10-21T20:50:25Z</time>
</trkpt>
<trkpt lat="36.93184280395508" lon="-118.54568481445313">
<ele>3810</ele>
<time>2016-10-21T20:50:40Z</time>
</trkpt>
<trkpt lat="36.931884765625" lon="-118.545654296875">
<ele>3813</ele>
<time>2016-10-21T20:50:56Z</time>
</trkpt>
<trkpt lat="36.93189239501953" lon="-118.54559326171875">
<ele>3818</ele>
<time>2016-10-21T20:51:28Z</time>
</trkpt>
<trkpt lat="36.93193054199219" lon="-118.54556274414063">
<ele>3816</ele>
<time>2016-10-21T20:52:06Z</time>
</trkpt>
</trkseg>
</trk>
<trk>
<name><![CDATA[10211356]]></name>
<number>62</number>
<extensions><topografix:color>ff000066</topografix:color></extensions>
<trkseg>
<trkpt lat="36.931915283203125" lon="-118.54547882080078">
<ele>3823</ele>
<time>2016-10-21T20:56:08Z</time>
</trkpt>
<trkpt lat="36.931941986083984" lon="-118.54552459716797">
<ele>3820</ele>
<time>2016-10-21T20:57:11Z</time>
</trkpt>
<trkpt lat="36.931907653808594" lon="-118.54556274414063">
<ele>3822</ele>
<time>2016-10-21T20:57:26Z</time>
</trkpt>
<trkpt lat="36.9318962097168" lon="-118.54562377929688">
<ele>3818</ele>
<time>2016-10-21T20:57:38Z</time>
</trkpt>
<trkpt lat="36.93189239501953" lon="-118.54569244384766">
<ele>3816</ele>
<time>2016-10-21T20:57:46Z</time>
</trkpt>
<trkpt lat="36.93186569213867" lon="-118.54573822021484">
<ele>3813</ele>
<time>2016-10-21T20:57:53Z</time>
</trkpt>
<trkpt lat="36.93183517456055" lon="-118.54578399658203">
<ele>3813</ele>
<time>2016-10-21T20:58:15Z</time>
</trkpt>
<trkpt lat="36.93183135986328" lon="-118.54584503173828">
<ele>3809</ele>
<time>2016-10-21T20:58:37Z</time>
</trkpt>
<trkpt lat="36.931827545166016" lon="-118.54591369628906">
<ele>3804</ele>
<time>2016-10-21T20:58:48Z</time>
</trkpt>
<trkpt lat="36.931854248046875" lon="-118.54595947265625">
<ele>3801</ele>
<time>2016-10-21T20:59:07Z</time>
</trkpt>
<trkpt lat="36.931819915771484" lon="-118.5459976196289">
<ele>3799</ele>
<time>2016-10-21T20:59:23Z</time>
</trkpt>
<trkpt lat="36.931793212890625" lon="-118.54605102539063">
<ele>3799</ele>
<time>2016-10-21T20:59:37Z</time>
</trkpt>
<trkpt lat="36.931758880615234" lon="-118.54612731933594">
<ele>3801</ele>
<time>2016-10-21T21:00:26Z</time>
</trkpt>
<trkpt lat="36.931678771972656" lon="-118.54619598388672">
<ele>3803</ele>
<time>2016-10-21T21:00:55Z</time>
</trkpt>
<trkpt lat="36.931636810302734" lon="-118.54621887207031">
<ele>3803</ele>
<time>2016-10-21T21:01:07Z</time>
</trkpt>
<trkpt lat="36.93159484863281" lon="-118.54625701904297">
<ele>3801</ele>
<time>2016-10-21T21:01:20Z</time>
</trkpt>
<trkpt lat="36.931556701660156" lon="-118.54629516601563">
<ele>3801</ele>
<time>2016-10-21T21:01:27Z</time>
</trkpt>
<trkpt lat="36.931556701660156" lon="-118.54635620117188">
<ele>3795</ele>
<time>2016-10-21T21:01:44Z</time>
</trkpt>
<trkpt lat="36.93156051635742" lon="-118.54641723632813">
<ele>3794</ele>
<time>2016-10-21T21:02:07Z</time>
</trkpt>
<trkpt lat="36.9315299987793" lon="-118.54647827148438">
<ele>3793</ele>
<time>2016-10-21T21:02:16Z</time>
</trkpt>
<trkpt lat="36.931488037109375" lon="-118.54650115966797">
<ele>3792</ele>
<time>2016-10-21T21:02:36Z</time>
</trkpt>
<trkpt lat="36.93147659301758" lon="-118.54656219482422">
<ele>3788</ele>
<time>2016-10-21T21:02:45Z</time>
</trkpt>
<trkpt lat="36.931461334228516" lon="-118.54662322998047">
<ele>3787</ele>
<time>2016-10-21T21:03:39Z</time>
</trkpt>
<trkpt lat="36.93138885498047" lon="-118.54670715332031">
<ele>3788</ele>
<time>2016-10-21T21:03:49Z</time>
</trkpt>
<trkpt lat="36.93134689331055" lon="-118.54672241210938">
<ele>3789</ele>
<time>2016-10-21T21:04:48Z</time>
</trkpt>
<trkpt lat="36.93130111694336" lon="-118.54674530029297">
<ele>3791</ele>
<time>2016-10-21T21:04:55Z</time>
</trkpt>
<trkpt lat="36.931251525878906" lon="-118.54676055908203">
<ele>3787</ele>
<time>2016-10-21T21:05:04Z</time>
</trkpt>
<trkpt lat="36.93129348754883" lon="-118.54684448242188">
<ele>3785</ele>
<time>2016-10-21T21:05:21Z</time>
</trkpt>
<trkpt lat="36.93129348754883" lon="-118.5468978881836">
<ele>3781</ele>
<time>2016-10-21T21:05:29Z</time>
</trkpt>
<trkpt lat="36.931270599365234" lon="-118.54695892333984">
<ele>3786</ele>
<time>2016-10-21T21:05:46Z</time>
</trkpt>
<trkpt lat="36.931243896484375" lon="-118.54700469970703">
<ele>3785</ele>
<time>2016-10-21T21:05:52Z</time>
</trkpt>
<trkpt lat="36.93125534057617" lon="-118.54710388183594">
<ele>3780</ele>
<time>2016-10-21T21:07:22Z</time>
</trkpt>
<trkpt lat="36.931217193603516" lon="-118.54714965820313">
<ele>3781</ele>
<time>2016-10-21T21:07:31Z</time>
</trkpt>
<trkpt lat="36.93117141723633" lon="-118.54715728759766">
<ele>3778</ele>
<time>2016-10-21T21:08:03Z</time>
</trkpt>
<trkpt lat="36.93113708496094" lon="-118.54719543457031">
<ele>3778</ele>
<time>2016-10-21T21:08:52Z</time>
</trkpt>
<trkpt lat="36.93111801147461" lon="-118.54727172851563">
<ele>3779</ele>
<time>2016-10-21T21:09:29Z</time>
</trkpt>
<trkpt lat="36.93109130859375" lon="-118.54731750488281">
<ele>3776</ele>
<time>2016-10-21T21:09:54Z</time>
</trkpt>
<trkpt lat="36.9311637878418" lon="-118.5473403930664">
<ele>3773</ele>
<time>2016-10-21T21:11:08Z</time>
</trkpt>
<trkpt lat="36.93113327026367" lon="-118.5473861694336">
<ele>3768</ele>
<time>2016-10-21T21:11:28Z</time>
</trkpt>
<trkpt lat="36.931190490722656" lon="-118.54745483398438">
<ele>3763</ele>
<time>2016-10-21T21:12:17Z</time>
</trkpt>
<trkpt lat="36.93122100830078" lon="-118.54749298095703">
<ele>3756</ele>
<time>2016-10-21T21:12:33Z</time>
</trkpt>
<trkpt lat="36.931209564208984" lon="-118.54754638671875">
<ele>3755</ele>
<time>2016-10-21T21:12:52Z</time>
</trkpt>
<trkpt lat="36.9311637878418" lon="-118.54759979248047">
<ele>3754</ele>
<time>2016-10-21T21:13:42Z</time>
</trkpt>
<trkpt lat="36.931190490722656" lon="-118.54755401611328">
<ele>3749</ele>
<time>2016-10-21T21:13:56Z</time>
</trkpt>
<trkpt lat="36.931175231933594" lon="-118.54762268066406">
<ele>3755</ele>
<time>2016-10-21T21:14:26Z</time>
</trkpt>
<trkpt lat="36.93113327026367" lon="-118.54765319824219">
<ele>3754</ele>
<time>2016-10-21T21:14:39Z</time>
</trkpt>
<trkpt lat="36.931087493896484" lon="-118.54767608642578">
<ele>3755</ele>
<time>2016-10-21T21:14:49Z</time>
</trkpt>
<trkpt lat="36.931114196777344" lon="-118.5477523803711">
<ele>3728</ele>
<time>2016-10-21T21:16:21Z</time>
</trkpt>
<trkpt lat="36.93115997314453" lon="-118.54776763916016">
<ele>3726</ele>
<time>2016-10-21T21:16:28Z</time>
</trkpt>
<trkpt lat="36.9311637878418" lon="-118.5478286743164">
<ele>3726</ele>
<time>2016-10-21T21:16:36Z</time>
</trkpt>
<trkpt lat="36.93112564086914" lon="-118.54785919189453">
<ele>3726</ele>
<time>2016-10-21T21:16:51Z</time>
</trkpt>
<trkpt lat="36.931114196777344" lon="-118.54791259765625">
<ele>3719</ele>
<time>2016-10-21T21:17:23Z</time>
</trkpt>
<trkpt lat="36.9311408996582" lon="-118.54796600341797">
<ele>3711</ele>
<time>2016-10-21T21:17:50Z</time>
</trkpt>
<trkpt lat="36.93113327026367" lon="-118.54802703857422">
<ele>3712</ele>
<time>2016-10-21T21:18:04Z</time>
</trkpt>
<trkpt lat="36.93117141723633" lon="-118.5480728149414">
<ele>3710</ele>
<time>2016-10-21T21:18:20Z</time>
</trkpt>
<trkpt lat="36.93121337890625" lon="-118.54810333251953">
<ele>3705</ele>
<time>2016-10-21T21:18:37Z</time>
</trkpt>
<trkpt lat="36.93117904663086" lon="-118.54814910888672">
<ele>3697</ele>
<time>2016-10-21T21:18:54Z</time>
</trkpt>
<trkpt lat="36.93115234375" lon="-118.54825592041016">
<ele>3686</ele>
<time>2016-10-21T21:19:42Z</time>
</trkpt>
<trkpt lat="36.931148529052734" lon="-118.5483169555664">
<ele>3682</ele>
<time>2016-10-21T21:19:58Z</time>
</trkpt>
<trkpt lat="36.931087493896484" lon="-118.54830932617188">
<ele>3686</ele>
<time>2016-10-21T21:20:23Z</time>
</trkpt>
<trkpt lat="36.9310417175293" lon="-118.54833221435547">
<ele>3688</ele>
<time>2016-10-21T21:20:29Z</time>
</trkpt>
<trkpt lat="36.93100357055664" lon="-118.5483627319336">
<ele>3687</ele>
<time>2016-10-21T21:20:51Z</time>
</trkpt>
<trkpt lat="36.93094253540039" lon="-118.5484390258789">
<ele>3682</ele>
<time>2016-10-21T21:21:50Z</time>
</trkpt>
<trkpt lat="36.930973052978516" lon="-118.54850006103516">
<ele>3675</ele>
<time>2016-10-21T21:22:33Z</time>
</trkpt>
<trkpt lat="36.93101501464844" lon="-118.5484848022461">
<ele>3675</ele>
<time>2016-10-21T21:22:48Z</time>
</trkpt>
<trkpt lat="36.931026458740234" lon="-118.54854583740234">
<ele>3678</ele>
<time>2016-10-21T21:23:02Z</time>
</trkpt>
<trkpt lat="36.93099594116211" lon="-118.54861450195313">
<ele>3658</ele>
<time>2016-10-21T21:23:44Z</time>
</trkpt>
<trkpt lat="36.93096923828125" lon="-118.54872131347656">
<ele>3660</ele>
<time>2016-10-21T21:24:19Z</time>
</trkpt>
<trkpt lat="36.930946350097656" lon="-118.54877471923828">
<ele>3656</ele>
<time>2016-10-21T21:24:35Z</time>
</trkpt>
<trkpt lat="36.930946350097656" lon="-118.54883575439453">
<ele>3657</ele>
<time>2016-10-21T21:24:43Z</time>
</trkpt>
<trkpt lat="36.93095016479492" lon="-118.54888916015625">
<ele>3657</ele>
<time>2016-10-21T21:24:55Z</time>
</trkpt>
<trkpt lat="36.93096923828125" lon="-118.54898834228516">
<ele>3641</ele>
<time>2016-10-21T21:25:42Z</time>
</trkpt>
<trkpt lat="36.93098831176758" lon="-118.54905700683594">
<ele>3634</ele>
<time>2016-10-21T21:26:06Z</time>
</trkpt>
<trkpt lat="36.931007385253906" lon="-118.54912567138672">
<ele>3634</ele>
<time>2016-10-21T21:26:30Z</time>
</trkpt>
<trkpt lat="36.93101501464844" lon="-118.54917907714844">
<ele>3628</ele>
<time>2016-10-21T21:26:38Z</time>
</trkpt>
<trkpt lat="36.93103790283203" lon="-118.54922485351563">
<ele>3626</ele>
<time>2016-10-21T21:26:51Z</time>
</trkpt>
<trkpt lat="36.931053161621094" lon="-118.54927825927734">
<ele>3620</ele>
<time>2016-10-21T21:27:03Z</time>
</trkpt>
<trkpt lat="36.93110275268555" lon="-118.54930114746094">
<ele>3620</ele>
<time>2016-10-21T21:27:30Z</time>
</trkpt>
<trkpt lat="36.93113327026367" lon="-118.54934692382813">
<ele>3619</ele>
<time>2016-10-21T21:27:40Z</time>
</trkpt>
<trkpt lat="36.931129455566406" lon="-118.54940795898438">
<ele>3612</ele>
<time>2016-10-21T21:27:56Z</time>
</trkpt>
<trkpt lat="36.93115997314453" lon="-118.54950714111328">
<ele>3607</ele>
<time>2016-10-21T21:28:17Z</time>
</trkpt>
<trkpt lat="36.931175231933594" lon="-118.54956817626953">
<ele>3605</ele>
<time>2016-10-21T21:28:29Z</time>
</trkpt>
<trkpt lat="36.931182861328125" lon="-118.54962158203125">
<ele>3605</ele>
<time>2016-10-21T21:28:37Z</time>
</trkpt>
<trkpt lat="36.931209564208984" lon="-118.54972839355469">
<ele>3593</ele>
<time>2016-10-21T21:29:25Z</time>
</trkpt>
<trkpt lat="36.93125915527344" lon="-118.5497055053711">
<ele>3588</ele>
<time>2016-10-21T21:29:41Z</time>
</trkpt>
<trkpt lat="36.93132400512695" lon="-118.54971313476563">
<ele>3583</ele>
<time>2016-10-21T21:30:19Z</time>
</trkpt>
<trkpt lat="36.93135070800781" lon="-118.54976654052734">
<ele>3582</ele>
<time>2016-10-21T21:30:31Z</time>
</trkpt>
<trkpt lat="36.93141555786133" lon="-118.54983520507813">
<ele>3580</ele>
<time>2016-10-21T21:30:48Z</time>
</trkpt>
<trkpt lat="36.93137741088867" lon="-118.54987335205078">
<ele>3577</ele>
<time>2016-10-21T21:30:57Z</time>
</trkpt>
<trkpt lat="36.93144989013672" lon="-118.54986572265625">
<ele>3574</ele>
<time>2016-10-21T21:31:17Z</time>
</trkpt>
<trkpt lat="36.93146896362305" lon="-118.5499267578125">
<ele>3573</ele>
<time>2016-10-21T21:31:42Z</time>
</trkpt>
<trkpt lat="36.93146896362305" lon="-118.54998779296875">
<ele>3568</ele>
<time>2016-10-21T21:32:00Z</time>
</trkpt>
<trkpt lat="36.93149185180664" lon="-118.55006408691406">
<ele>3562</ele>
<time>2016-10-21T21:32:27Z</time>
</trkpt>
<trkpt lat="36.93153762817383" lon="-118.55006408691406">
<ele>3557</ele>
<time>2016-10-21T21:32:45Z</time>
</trkpt>
<trkpt lat="36.93157196044922" lon="-118.55011749267578">
<ele>3555</ele>
<time>2016-10-21T21:32:55Z</time>
</trkpt>
<trkpt lat="36.931610107421875" lon="-118.5501480102539">
<ele>3555</ele>
<time>2016-10-21T21:33:03Z</time>
</trkpt>
<trkpt lat="36.931678771972656" lon="-118.5501480102539">
<ele>3546</ele>
<time>2016-10-21T21:33:19Z</time>
</trkpt>
<trkpt lat="36.93171691894531" lon="-118.55018615722656">
<ele>3544</ele>
<time>2016-10-21T21:33:30Z</time>
</trkpt>
<trkpt lat="36.93170166015625" lon="-118.55023956298828">
<ele>3543</ele>
<time>2016-10-21T21:33:39Z</time>
</trkpt>
<trkpt lat="36.93168258666992" lon="-118.55029296875">
<ele>3542</ele>
<time>2016-10-21T21:33:45Z</time>
</trkpt>
<trkpt lat="36.93172073364258" lon="-118.55032348632813">
<ele>3543</ele>
<time>2016-10-21T21:33:53Z</time>
</trkpt>
<trkpt lat="36.931766510009766" lon="-118.55036163330078">
<ele>3540</ele>
<time>2016-10-21T21:34:23Z</time>
</trkpt>
<trkpt lat="36.93186950683594" lon="-118.55034637451172">
<ele>3536</ele>
<time>2016-10-21T21:34:37Z</time>
</trkpt>
<trkpt lat="36.93185806274414" lon="-118.55040740966797">
<ele>3535</ele>
<time>2016-10-21T21:34:50Z</time>
</trkpt>
<trkpt lat="36.93185806274414" lon="-118.55046844482422">
<ele>3536</ele>
<time>2016-10-21T21:35:00Z</time>
</trkpt>
<trkpt lat="36.93183517456055" lon="-118.55052185058594">
<ele>3537</ele>
<time>2016-10-21T21:35:08Z</time>
</trkpt>
<trkpt lat="36.931880950927734" lon="-118.5505142211914">
<ele>3530</ele>
<time>2016-10-21T21:35:25Z</time>
</trkpt>
<trkpt lat="36.931846618652344" lon="-118.5505599975586">
<ele>3528</ele>
<time>2016-10-21T21:35:55Z</time>
</trkpt>
<trkpt lat="36.93185806274414" lon="-118.55066680908203">
<ele>3528</ele>
<time>2016-10-21T21:36:08Z</time>
</trkpt>
<trkpt lat="36.931880950927734" lon="-118.55072021484375">
<ele>3521</ele>
<time>2016-10-21T21:36:31Z</time>
</trkpt>
<trkpt lat="36.93193054199219" lon="-118.55071258544922">
<ele>3516</ele>
<time>2016-10-21T21:36:48Z</time>
</trkpt>
<trkpt lat="36.931949615478516" lon="-118.55077362060547">
<ele>3513</ele>
<time>2016-10-21T21:36:58Z</time>
</trkpt>
<trkpt lat="36.9319953918457" lon="-118.55078887939453">
<ele>3512</ele>
<time>2016-10-21T21:37:15Z</time>
</trkpt>
<trkpt lat="36.932037353515625" lon="-118.5507583618164">
<ele>3506</ele>
<time>2016-10-21T21:37:31Z</time>
</trkpt>
<trkpt lat="36.93206024169922" lon="-118.55081176757813">
<ele>3509</ele>
<time>2016-10-21T21:37:44Z</time>
</trkpt>
<trkpt lat="36.93202209472656" lon="-118.5509262084961">
<ele>3510</ele>
<time>2016-10-21T21:38:05Z</time>
</trkpt>
<trkpt lat="36.932071685791016" lon="-118.55097198486328">
<ele>3500</ele>
<time>2016-10-21T21:38:44Z</time>
</trkpt>
<trkpt lat="36.932090759277344" lon="-118.55101776123047">
<ele>3490</ele>
<time>2016-10-21T21:39:29Z</time>
</trkpt>
<trkpt lat="36.9321174621582" lon="-118.55106353759766">
<ele>3489</ele>
<time>2016-10-21T21:39:46Z</time>
</trkpt>
<trkpt lat="36.93212127685547" lon="-118.5511245727539">
<ele>3489</ele>
<time>2016-10-21T21:39:59Z</time>
</trkpt>
<trkpt lat="36.93213653564453" lon="-118.55119323730469">
<ele>3491</ele>
<time>2016-10-21T21:40:54Z</time>
</trkpt>
<trkpt lat="36.932212829589844" lon="-118.55120086669922">
<ele>3483</ele>
<time>2016-10-21T21:44:00Z</time>
</trkpt>
<trkpt lat="36.932167053222656" lon="-118.55120086669922">
<ele>3482</ele>
<time>2016-10-21T21:44:38Z</time>
</trkpt>
<trkpt lat="36.93224334716797" lon="-118.55115509033203">
<ele>3476</ele>
<time>2016-10-21T21:45:55Z</time>
</trkpt>
<trkpt lat="36.93229293823242" lon="-118.5511474609375">
<ele>3481</ele>
<time>2016-10-21T21:46:07Z</time>
</trkpt>
<trkpt lat="36.93221664428711" lon="-118.55113220214844">
<ele>3465</ele>
<time>2016-10-21T21:46:25Z</time>
</trkpt>
<trkpt lat="36.9322624206543" lon="-118.55116271972656">
<ele>3469</ele>
<time>2016-10-21T21:46:54Z</time>
</trkpt>
<trkpt lat="36.932315826416016" lon="-118.5511703491211">
<ele>3468</ele>
<time>2016-10-21T21:47:26Z</time>
</trkpt>
<trkpt lat="36.93228530883789" lon="-118.5511245727539">
<ele>3469</ele>
<time>2016-10-21T21:47:50Z</time>
</trkpt>
<trkpt lat="36.93231964111328" lon="-118.55107879638672">
<ele>3461</ele>
<time>2016-10-21T21:48:16Z</time>
</trkpt>
<trkpt lat="36.93236541748047" lon="-118.55110168457031">
<ele>3456</ele>
<time>2016-10-21T21:48:24Z</time>
</trkpt>
<trkpt lat="36.93240737915039" lon="-118.5511245727539">
<ele>3458</ele>
<time>2016-10-21T21:48:41Z</time>
</trkpt>
<trkpt lat="36.93240737915039" lon="-118.55118560791016">
<ele>3457</ele>
<time>2016-10-21T21:48:53Z</time>
</trkpt>
<trkpt lat="36.932395935058594" lon="-118.55130004882813">
<ele>3458</ele>
<time>2016-10-21T21:49:01Z</time>
</trkpt>
<trkpt lat="36.93244171142578" lon="-118.5513687133789">
<ele>3456</ele>
<time>2016-10-21T21:49:08Z</time>
</trkpt>
<trkpt lat="36.932430267333984" lon="-118.55142974853516">
<ele>3449</ele>
<time>2016-10-21T21:49:14Z</time>
</trkpt>
<trkpt lat="36.93247604370117" lon="-118.55144500732422">
<ele>3447</ele>
<time>2016-10-21T21:49:27Z</time>
</trkpt>
<trkpt lat="36.93251037597656" lon="-118.5514907836914">
<ele>3444</ele>
<time>2016-10-21T21:49:38Z</time>
</trkpt>
<trkpt lat="36.932498931884766" lon="-118.55155181884766">
<ele>3439</ele>
<time>2016-10-21T21:49:45Z</time>
</trkpt>
<trkpt lat="36.93254852294922" lon="-118.55164337158203">
<ele>3439</ele>
<time>2016-10-21T21:49:54Z</time>
</trkpt>
<trkpt lat="36.932579040527344" lon="-118.55175018310547">
<ele>3424</ele>
<time>2016-10-21T21:50:20Z</time>
</trkpt>
<trkpt lat="36.93258285522461" lon="-118.55181121826172">
<ele>3426</ele>
<time>2016-10-21T21:50:26Z</time>
</trkpt>
<trkpt lat="36.932613372802734" lon="-118.5518569946289">
<ele>3426</ele>
<time>2016-10-21T21:50:32Z</time>
</trkpt>
<trkpt lat="36.932655334472656" lon="-118.55189514160156">
<ele>3419</ele>
<time>2016-10-21T21:50:42Z</time>
</trkpt>
<trkpt lat="36.93268585205078" lon="-118.55193328857422">
<ele>3418</ele>
<time>2016-10-21T21:50:48Z</time>
</trkpt>
<trkpt lat="36.9327507019043" lon="-118.55204010009766">
<ele>3418</ele>
<time>2016-10-21T21:51:04Z</time>
</trkpt>
<trkpt lat="36.93278503417969" lon="-118.5521240234375">
<ele>3415</ele>
<time>2016-10-21T21:51:26Z</time>
</trkpt>
<trkpt lat="36.932804107666016" lon="-118.55217742919922">
<ele>3411</ele>
<time>2016-10-21T21:51:33Z</time>
</trkpt>
<trkpt lat="36.93280029296875" lon="-118.55224609375">
<ele>3406</ele>
<time>2016-10-21T21:51:40Z</time>
</trkpt>
<trkpt lat="36.93281173706055" lon="-118.55229949951172">
<ele>3403</ele>
<time>2016-10-21T21:51:51Z</time>
</trkpt>
<trkpt lat="36.93279266357422" lon="-118.55236053466797">
<ele>3401</ele>
<time>2016-10-21T21:52:04Z</time>
</trkpt>
<trkpt lat="36.9327392578125" lon="-118.55240631103516">
<ele>3405</ele>
<time>2016-10-21T21:52:20Z</time>
</trkpt>
<trkpt lat="36.9327278137207" lon="-118.5524673461914">
<ele>3401</ele>
<time>2016-10-21T21:52:26Z</time>
</trkpt>
<trkpt lat="36.932708740234375" lon="-118.55252075195313">
<ele>3399</ele>
<time>2016-10-21T21:52:33Z</time>
</trkpt>
<trkpt lat="36.932716369628906" lon="-118.55258178710938">
<ele>3399</ele>
<time>2016-10-21T21:52:42Z</time>
</trkpt>
<trkpt lat="36.93270492553711" lon="-118.5526351928711">
<ele>3395</ele>
<time>2016-10-21T21:52:48Z</time>
</trkpt>
<trkpt lat="36.93269348144531" lon="-118.55270385742188">
<ele>3391</ele>
<time>2016-10-21T21:52:58Z</time>
</trkpt>
<trkpt lat="36.93267059326172" lon="-118.55274963378906">
<ele>3391</ele>
<time>2016-10-21T21:53:04Z</time>
</trkpt>
<trkpt lat="36.932655334472656" lon="-118.55281066894531">
<ele>3388</ele>
<time>2016-10-21T21:53:13Z</time>
</trkpt>
<trkpt lat="36.93265914916992" lon="-118.55287170410156">
<ele>3383</ele>
<time>2016-10-21T21:53:22Z</time>
</trkpt>
<trkpt lat="36.93263244628906" lon="-118.55291748046875">
<ele>3378</ele>
<time>2016-10-21T21:53:39Z</time>
</trkpt>
<trkpt lat="36.932594299316406" lon="-118.5529556274414">
<ele>3376</ele>
<time>2016-10-21T21:53:48Z</time>
</trkpt>
<trkpt lat="36.93251037597656" lon="-118.55301666259766">
<ele>3374</ele>
<time>2016-10-21T21:53:59Z</time>
</trkpt>
<trkpt lat="36.932464599609375" lon="-118.55309295654297">
<ele>3378</ele>
<time>2016-10-21T21:54:13Z</time>
</trkpt>
<trkpt lat="36.93243408203125" lon="-118.55321502685547">
<ele>3373</ele>
<time>2016-10-21T21:54:24Z</time>
</trkpt>
<trkpt lat="36.932403564453125" lon="-118.55325317382813">
<ele>3374</ele>
<time>2016-10-21T21:54:34Z</time>
</trkpt>
<trkpt lat="36.932376861572266" lon="-118.55329895019531">
<ele>3371</ele>
<time>2016-10-21T21:54:41Z</time>
</trkpt>
<trkpt lat="36.93239974975586" lon="-118.55341339111328">
<ele>3372</ele>
<time>2016-10-21T21:54:52Z</time>
</trkpt>
<trkpt lat="36.932437896728516" lon="-118.55352783203125">
<ele>3373</ele>
<time>2016-10-21T21:55:03Z</time>
</trkpt>
<trkpt lat="36.9324951171875" lon="-118.5536117553711">
<ele>3369</ele>
<time>2016-10-21T21:55:15Z</time>
</trkpt>
<trkpt lat="36.93253707885742" lon="-118.55364990234375">
<ele>3365</ele>
<time>2016-10-21T21:55:26Z</time>
</trkpt>
<trkpt lat="36.93256759643555" lon="-118.55370330810547">
<ele>3361</ele>
<time>2016-10-21T21:55:35Z</time>
</trkpt>
<trkpt lat="36.93259811401367" lon="-118.55375671386719">
<ele>3361</ele>
<time>2016-10-21T21:55:42Z</time>
</trkpt>
<trkpt lat="36.932613372802734" lon="-118.5538101196289">
<ele>3350</ele>
<time>2016-10-21T21:55:56Z</time>
</trkpt>
<trkpt lat="36.932579040527344" lon="-118.55384826660156">
<ele>3350</ele>
<time>2016-10-21T21:56:02Z</time>
</trkpt>
<trkpt lat="36.93253707885742" lon="-118.55391693115234">
<ele>3353</ele>
<time>2016-10-21T21:56:24Z</time>
</trkpt>
<trkpt lat="36.93252944946289" lon="-118.5539779663086">
<ele>3355</ele>
<time>2016-10-21T21:56:31Z</time>
</trkpt>
<trkpt lat="36.932518005371094" lon="-118.55403137207031">
<ele>3347</ele>
<time>2016-10-21T21:56:39Z</time>
</trkpt>
<trkpt lat="36.932498931884766" lon="-118.55408477783203">
<ele>3339</ele>
<time>2016-10-21T21:56:49Z</time>
</trkpt>
<trkpt lat="36.932464599609375" lon="-118.55413055419922">
<ele>3339</ele>
<time>2016-10-21T21:56:56Z</time>
</trkpt>
<trkpt lat="36.93244934082031" lon="-118.55419158935547">
<ele>3342</ele>
<time>2016-10-21T21:57:07Z</time>
</trkpt>
<trkpt lat="36.93243408203125" lon="-118.55425262451172">
<ele>3340</ele>
<time>2016-10-21T21:57:16Z</time>
</trkpt>
<trkpt lat="36.93243408203125" lon="-118.55430603027344">
<ele>3341</ele>
<time>2016-10-21T21:57:24Z</time>
</trkpt>
<trkpt lat="36.93244552612305" lon="-118.55436706542969">
<ele>3338</ele>
<time>2016-10-21T21:57:31Z</time>
</trkpt>
<trkpt lat="36.93245315551758" lon="-118.55443572998047">
<ele>3337</ele>
<time>2016-10-21T21:57:48Z</time>
</trkpt>
<trkpt lat="36.9324951171875" lon="-118.55445098876953">
<ele>3337</ele>
<time>2016-10-21T21:57:57Z</time>
</trkpt>
<trkpt lat="36.932525634765625" lon="-118.55457305908203">
<ele>3331</ele>
<time>2016-10-21T21:58:08Z</time>
</trkpt>
<trkpt lat="36.93254089355469" lon="-118.55467224121094">
<ele>3329</ele>
<time>2016-10-21T21:58:19Z</time>
</trkpt>
<trkpt lat="36.932533264160156" lon="-118.55473327636719">
<ele>3321</ele>
<time>2016-10-21T21:58:26Z</time>
</trkpt>
<trkpt lat="36.932525634765625" lon="-118.55480194091797">
<ele>3325</ele>
<time>2016-10-21T21:58:34Z</time>
</trkpt>
<trkpt lat="36.932464599609375" lon="-118.55486297607422">
<ele>3318</ele>
<time>2016-10-21T21:58:55Z</time>
</trkpt>
<trkpt lat="36.93238830566406" lon="-118.55492401123047">
<ele>3312</ele>
<time>2016-10-21T21:59:05Z</time>
</trkpt>
<trkpt lat="36.93230438232422" lon="-118.55498504638672">
<ele>3306</ele>
<time>2016-10-21T21:59:12Z</time>
</trkpt>
<trkpt lat="36.93220520019531" lon="-118.55502319335938">
<ele>3306</ele>
<time>2016-10-21T21:59:18Z</time>
</trkpt>
<trkpt lat="36.93214797973633" lon="-118.55511474609375">
<ele>3306</ele>
<time>2016-10-21T21:59:25Z</time>
</trkpt>
<trkpt lat="36.93210983276367" lon="-118.5551528930664">
<ele>3306</ele>
<time>2016-10-21T21:59:32Z</time>
</trkpt>
<trkpt lat="36.93206024169922" lon="-118.55518341064453">
<ele>3311</ele>
<time>2016-10-21T21:59:38Z</time>
</trkpt>
<trkpt lat="36.932010650634766" lon="-118.55528259277344">
<ele>3308</ele>
<time>2016-10-21T21:59:51Z</time>
</trkpt>
<trkpt lat="36.93198776245117" lon="-118.55533599853516">
<ele>3306</ele>
<time>2016-10-21T21:59:59Z</time>
</trkpt>
<trkpt lat="36.931941986083984" lon="-118.55537414550781">
<ele>3301</ele>
<time>2016-10-21T22:00:05Z</time>
</trkpt>
<trkpt lat="36.93186569213867" lon="-118.555419921875">
<ele>3302</ele>
<time>2016-10-21T22:00:12Z</time>
</trkpt>
<trkpt lat="36.93177795410156" lon="-118.55547332763672">
<ele>3300</ele>
<time>2016-10-21T22:00:21Z</time>
</trkpt>
<trkpt lat="36.93168640136719" lon="-118.5555191040039">
<ele>3301</ele>
<time>2016-10-21T22:00:33Z</time>
</trkpt>
<trkpt lat="36.93164825439453" lon="-118.55555725097656">
<ele>3302</ele>
<time>2016-10-21T22:00:41Z</time>
</trkpt>
<trkpt lat="36.931583404541016" lon="-118.55560302734375">
<ele>3299</ele>
<time>2016-10-21T22:00:54Z</time>
</trkpt>
<trkpt lat="36.931549072265625" lon="-118.55565643310547">
<ele>3300</ele>
<time>2016-10-21T22:01:03Z</time>
</trkpt>
<trkpt lat="36.93147277832031" lon="-118.55574035644531">
<ele>3299</ele>
<time>2016-10-21T22:01:13Z</time>
</trkpt>
<trkpt lat="36.931453704833984" lon="-118.55579376220703">
<ele>3302</ele>
<time>2016-10-21T22:01:21Z</time>
</trkpt>
<trkpt lat="36.93144989013672" lon="-118.55584716796875">
<ele>3307</ele>
<time>2016-10-21T22:01:35Z</time>
</trkpt>
<trkpt lat="36.93142318725586" lon="-118.55590057373047">
<ele>3307</ele>
<time>2016-10-21T22:01:42Z</time>
</trkpt>
<trkpt lat="36.931396484375" lon="-118.55594635009766">
<ele>3305</ele>
<time>2016-10-21T22:01:49Z</time>
</trkpt>
<trkpt lat="36.93135452270508" lon="-118.55596923828125">
<ele>3307</ele>
<time>2016-10-21T22:01:56Z</time>
</trkpt>
<trkpt lat="36.93132400512695" lon="-118.55606842041016">
<ele>3303</ele>
<time>2016-10-21T22:02:08Z</time>
</trkpt>
<trkpt lat="36.93132019042969" lon="-118.5561294555664">
<ele>3306</ele>
<time>2016-10-21T22:02:20Z</time>
</trkpt>
<trkpt lat="36.931304931640625" lon="-118.55619812011719">
<ele>3306</ele>
<time>2016-10-21T22:02:31Z</time>
</trkpt>
<trkpt lat="36.931297302246094" lon="-118.55625915527344">
<ele>3314</ele>
<time>2016-10-21T22:02:41Z</time>
</trkpt>
</trkseg>
</trk>
<trk>
<name><![CDATA[10211502]]></name>
<number>63</number>
<extensions><topografix:color>ff000066</topografix:color></extensions>
<trkseg>
<trkpt lat="36.931297302246094" lon="-118.5562515258789">
<ele>3315</ele>
<time>2016-10-21T22:03:03Z</time>
</trkpt>
<trkpt lat="36.93132781982422" lon="-118.55630493164063">
<ele>3315</ele>
<time>2016-10-21T22:03:10Z</time>
</trkpt>
<trkpt lat="36.931304931640625" lon="-118.55635833740234">
<ele>3311</ele>
<time>2016-10-21T22:03:17Z</time>
</trkpt>
<trkpt lat="36.93130111694336" lon="-118.5564193725586">
<ele>3308</ele>
<time>2016-10-21T22:03:23Z</time>
</trkpt>
<trkpt lat="36.93124008178711" lon="-118.55653381347656">
<ele>3307</ele>
<time>2016-10-21T22:03:33Z</time>
</trkpt>
<trkpt lat="36.931217193603516" lon="-118.55664825439453">
<ele>3311</ele>
<time>2016-10-21T22:03:40Z</time>
</trkpt>
<trkpt lat="36.93120574951172" lon="-118.5567626953125">
<ele>3308</ele>
<time>2016-10-21T22:03:50Z</time>
</trkpt>
<trkpt lat="36.931190490722656" lon="-118.556884765625">
<ele>3308</ele>
<time>2016-10-21T22:04:00Z</time>
</trkpt>
<trkpt lat="36.931156158447266" lon="-118.55693054199219">
<ele>3306</ele>
<time>2016-10-21T22:04:06Z</time>
</trkpt>
<trkpt lat="36.93109893798828" lon="-118.55703735351563">
<ele>3310</ele>
<time>2016-10-21T22:04:14Z</time>
</trkpt>
<trkpt lat="36.931087493896484" lon="-118.55715942382813">
<ele>3311</ele>
<time>2016-10-21T22:04:21Z</time>
</trkpt>
<trkpt lat="36.9310188293457" lon="-118.55723571777344">
<ele>3306</ele>
<time>2016-10-21T22:04:32Z</time>
</trkpt>
<trkpt lat="36.93092727661133" lon="-118.55726623535156">
<ele>3304</ele>
<time>2016-10-21T22:04:39Z</time>
</trkpt>
<trkpt lat="36.93083953857422" lon="-118.55729675292969">
<ele>3307</ele>
<time>2016-10-21T22:04:49Z</time>
</trkpt>
<trkpt lat="36.93079376220703" lon="-118.55728912353516">
<ele>3308</ele>
<time>2016-10-21T22:04:55Z</time>
</trkpt>
<trkpt lat="36.930755615234375" lon="-118.55732727050781">
<ele>3304</ele>
<time>2016-10-21T22:05:01Z</time>
</trkpt>
<trkpt lat="36.9306640625" lon="-118.55730438232422">
<ele>3305</ele>
<time>2016-10-21T22:05:09Z</time>
</trkpt>
<trkpt lat="36.930564880371094" lon="-118.55728912353516">
<ele>3308</ele>
<time>2016-10-21T22:05:17Z</time>
</trkpt>
<trkpt lat="36.93046569824219" lon="-118.55728149414063">
<ele>3306</ele>
<time>2016-10-21T22:05:23Z</time>
</trkpt>
<trkpt lat="36.93036651611328" lon="-118.55731201171875">
<ele>3298</ele>
<time>2016-10-21T22:05:33Z</time>
</trkpt>
<trkpt lat="36.93027114868164" lon="-118.55732727050781">
<ele>3299</ele>
<time>2016-10-21T22:05:41Z</time>
</trkpt>
<trkpt lat="36.93022155761719" lon="-118.55735778808594">
<ele>3297</ele>
<time>2016-10-21T22:05:47Z</time>
</trkpt>
<trkpt lat="36.93012619018555" lon="-118.55738830566406">
<ele>3293</ele>
<time>2016-10-21T22:05:56Z</time>
</trkpt>
<trkpt lat="36.930030822753906" lon="-118.557373046875">
<ele>3290</ele>
<time>2016-10-21T22:06:04Z</time>
</trkpt>
<trkpt lat="36.929935455322266" lon="-118.55736541748047">
<ele>3296</ele>
<time>2016-10-21T22:06:13Z</time>
</trkpt>
<trkpt lat="36.92985153198242" lon="-118.55746459960938">
<ele>3292</ele>
<time>2016-10-21T22:06:20Z</time>
</trkpt>
<trkpt lat="36.929744720458984" lon="-118.55747985839844">
<ele>3290</ele>
<time>2016-10-21T22:06:31Z</time>
</trkpt>
<trkpt lat="36.929656982421875" lon="-118.55753326416016">
<ele>3295</ele>
<time>2016-10-21T22:06:37Z</time>
</trkpt>
<trkpt lat="36.9295654296875" lon="-118.55757141113281">
<ele>3296</ele>
<time>2016-10-21T22:06:46Z</time>
</trkpt>
<trkpt lat="36.929527282714844" lon="-118.55760192871094">
<ele>3290</ele>
<time>2016-10-21T22:07:03Z</time>
</trkpt>
<trkpt lat="36.929569244384766" lon="-118.55762481689453">
<ele>3289</ele>
<time>2016-10-21T22:07:13Z</time>
</trkpt>
<trkpt lat="36.929588317871094" lon="-118.55767822265625">
<ele>3283</ele>
<time>2016-10-21T22:08:01Z</time>
</trkpt>
<trkpt lat="36.92948532104492" lon="-118.5577163696289">
<ele>3291</ele>
<time>2016-10-21T22:08:09Z</time>
</trkpt>
<trkpt lat="36.92942810058594" lon="-118.55780029296875">
<ele>3293</ele>
<time>2016-10-21T22:08:17Z</time>
</trkpt>
<trkpt lat="36.929378509521484" lon="-118.55790710449219">
<ele>3292</ele>
<time>2016-10-21T22:08:25Z</time>
</trkpt>
<trkpt lat="36.92934799194336" lon="-118.5579605102539">
<ele>3286</ele>
<time>2016-10-21T22:08:31Z</time>
</trkpt>
<trkpt lat="36.929283142089844" lon="-118.55805206298828">
<ele>3288</ele>
<time>2016-10-21T22:08:39Z</time>
</trkpt>
<trkpt lat="36.92924118041992" lon="-118.55815124511719">
<ele>3283</ele>
<time>2016-10-21T22:08:48Z</time>
</trkpt>
<trkpt lat="36.92926025390625" lon="-118.55821990966797">
<ele>3279</ele>
<time>2016-10-21T22:09:00Z</time>
</trkpt>
<trkpt lat="36.929290771484375" lon="-118.55828094482422">
<ele>3281</ele>
<time>2016-10-21T22:09:06Z</time>
</trkpt>
<trkpt lat="36.92930221557617" lon="-118.55834197998047">
<ele>3283</ele>
<time>2016-10-21T22:09:12Z</time>
</trkpt>
<trkpt lat="36.92926788330078" lon="-118.55845642089844">
<ele>3283</ele>
<time>2016-10-21T22:09:22Z</time>
</trkpt>
<trkpt lat="36.929203033447266" lon="-118.5585708618164">
<ele>3282</ele>
<time>2016-10-21T22:09:30Z</time>
</trkpt>
<trkpt lat="36.92918014526367" lon="-118.55862426757813">
<ele>3283</ele>
<time>2016-10-21T22:09:38Z</time>
</trkpt>
<trkpt lat="36.92915344238281" lon="-118.55867004394531">
<ele>3285</ele>
<time>2016-10-21T22:09:52Z</time>
</trkpt>
<trkpt lat="36.929141998291016" lon="-118.55873107910156">
<ele>3279</ele>
<time>2016-10-21T22:09:59Z</time>
</trkpt>
<trkpt lat="36.92911148071289" lon="-118.55877685546875">
<ele>3275</ele>
<time>2016-10-21T22:10:18Z</time>
</trkpt>
<trkpt lat="36.92911148071289" lon="-118.558837890625">
<ele>3275</ele>
<time>2016-10-21T22:10:24Z</time>
</trkpt>
<trkpt lat="36.92910385131836" lon="-118.55890655517578">
<ele>3274</ele>
<time>2016-10-21T22:10:30Z</time>
</trkpt>
<trkpt lat="36.92900085449219" lon="-118.55892944335938">
<ele>3271</ele>
<time>2016-10-21T22:10:38Z</time>
</trkpt>
<trkpt lat="36.928951263427734" lon="-118.55889892578125">
<ele>3271</ele>
<time>2016-10-21T22:10:44Z</time>
</trkpt>
<trkpt lat="36.928855895996094" lon="-118.558837890625">
<ele>3271</ele>
<time>2016-10-21T22:10:52Z</time>
</trkpt>
<trkpt lat="36.928775787353516" lon="-118.5587387084961">
<ele>3272</ele>
<time>2016-10-21T22:11:00Z</time>
</trkpt>
<trkpt lat="36.9287223815918" lon="-118.55870819091797">
<ele>3269</ele>
<time>2016-10-21T22:11:17Z</time>
</trkpt>
<trkpt lat="36.928680419921875" lon="-118.5587158203125">
<ele>3267</ele>
<time>2016-10-21T22:11:23Z</time>
</trkpt>
<trkpt lat="36.9285888671875" lon="-118.55876922607422">
<ele>3265</ele>
<time>2016-10-21T22:11:32Z</time>
</trkpt>
<trkpt lat="36.92852783203125" lon="-118.55886840820313">
<ele>3261</ele>
<time>2016-10-21T22:11:39Z</time>
</trkpt>
<trkpt lat="36.92844009399414" lon="-118.55895233154297">
<ele>3262</ele>
<time>2016-10-21T22:11:47Z</time>
</trkpt>
<trkpt lat="36.9283447265625" lon="-118.55895233154297">
<ele>3254</ele>
<time>2016-10-21T22:11:56Z</time>
</trkpt>
<trkpt lat="36.928279876708984" lon="-118.55899047851563">
<ele>3249</ele>
<time>2016-10-21T22:12:03Z</time>
</trkpt>
<trkpt lat="36.92823028564453" lon="-118.55899810791016">
<ele>3250</ele>
<time>2016-10-21T22:12:15Z</time>
</trkpt>
<trkpt lat="36.92817687988281" lon="-118.55901336669922">
<ele>3246</ele>
<time>2016-10-21T22:12:22Z</time>
</trkpt>
<trkpt lat="36.928123474121094" lon="-118.55902862548828">
<ele>3247</ele>
<time>2016-10-21T22:12:31Z</time>
</trkpt>
<trkpt lat="36.928043365478516" lon="-118.55908966064453">
<ele>3246</ele>
<time>2016-10-21T22:12:39Z</time>
</trkpt>
<trkpt lat="36.927955627441406" lon="-118.55915069580078">
<ele>3240</ele>
<time>2016-10-21T22:12:49Z</time>
</trkpt>
<trkpt lat="36.92789077758789" lon="-118.5592269897461">
<ele>3239</ele>
<time>2016-10-21T22:12:57Z</time>
</trkpt>
<trkpt lat="36.927825927734375" lon="-118.55928039550781">
<ele>3239</ele>
<time>2016-10-21T22:13:03Z</time>
</trkpt>
<trkpt lat="36.92778396606445" lon="-118.55931854248047">
<ele>3239</ele>
<time>2016-10-21T22:13:09Z</time>
</trkpt>
<trkpt lat="36.92776107788086" lon="-118.55937194824219">
<ele>3236</ele>
<time>2016-10-21T22:13:16Z</time>
</trkpt>
<trkpt lat="36.92771911621094" lon="-118.55941772460938">
<ele>3238</ele>
<time>2016-10-21T22:13:22Z</time>
</trkpt>
<trkpt lat="36.927703857421875" lon="-118.55952453613281">
<ele>3237</ele>
<time>2016-10-21T22:13:29Z</time>
</trkpt>
<trkpt lat="36.92765426635742" lon="-118.55963897705078">
<ele>3238</ele>
<time>2016-10-21T22:13:35Z</time>
</trkpt>
<trkpt lat="36.92759704589844" lon="-118.55974578857422">
<ele>3243</ele>
<time>2016-10-21T22:13:43Z</time>
</trkpt>
<trkpt lat="36.92756652832031" lon="-118.55985260009766">
<ele>3245</ele>
<time>2016-10-21T22:13:51Z</time>
</trkpt>
<trkpt lat="36.92753219604492" lon="-118.55989837646484">
<ele>3240</ele>
<time>2016-10-21T22:13:57Z</time>
</trkpt>
<trkpt lat="36.927555084228516" lon="-118.55998992919922">
<ele>3227</ele>
<time>2016-10-21T22:14:22Z</time>
</trkpt>
<trkpt lat="36.927520751953125" lon="-118.56005859375">
<ele>3221</ele>
<time>2016-10-21T22:14:28Z</time>
</trkpt>
<trkpt lat="36.92746353149414" lon="-118.5601577758789">
<ele>3220</ele>
<time>2016-10-21T22:14:43Z</time>
</trkpt>
<trkpt lat="36.92742156982422" lon="-118.56026458740234">
<ele>3220</ele>
<time>2016-10-21T22:14:51Z</time>
</trkpt>
<trkpt lat="36.927345275878906" lon="-118.56034851074219">
<ele>3219</ele>
<time>2016-10-21T22:15:01Z</time>
</trkpt>
<trkpt lat="36.92732238769531" lon="-118.56044006347656">
<ele>3214</ele>
<time>2016-10-21T22:15:09Z</time>
</trkpt>
<trkpt lat="36.92731857299805" lon="-118.5605697631836">
<ele>3211</ele>
<time>2016-10-21T22:15:19Z</time>
</trkpt>
<trkpt lat="36.92729949951172" lon="-118.56069946289063">
<ele>3211</ele>
<time>2016-10-21T22:15:30Z</time>
</trkpt>
<trkpt lat="36.927303314208984" lon="-118.56077575683594">
<ele>3208</ele>
<time>2016-10-21T22:15:36Z</time>
</trkpt>
<trkpt lat="36.92726135253906" lon="-118.5608901977539">
<ele>3206</ele>
<time>2016-10-21T22:15:42Z</time>
</trkpt>
<trkpt lat="36.92724609375" lon="-118.5610122680664">
<ele>3201</ele>
<time>2016-10-21T22:15:49Z</time>
</trkpt>
<trkpt lat="36.92723846435547" lon="-118.56112670898438">
<ele>3207</ele>
<time>2016-10-21T22:16:03Z</time>
</trkpt>
<trkpt lat="36.92728805541992" lon="-118.5612564086914">
<ele>3205</ele>
<time>2016-10-21T22:16:10Z</time>
</trkpt>
<trkpt lat="36.927310943603516" lon="-118.56137084960938">
<ele>3202</ele>
<time>2016-10-21T22:16:19Z</time>
</trkpt>
<trkpt lat="36.927330017089844" lon="-118.56143188476563">
<ele>3201</ele>
<time>2016-10-21T22:16:25Z</time>
</trkpt>
<trkpt lat="36.927391052246094" lon="-118.56153869628906">
<ele>3199</ele>
<time>2016-10-21T22:16:31Z</time>
</trkpt>
<trkpt lat="36.927452087402344" lon="-118.56165313720703">
<ele>3199</ele>
<time>2016-10-21T22:16:39Z</time>
</trkpt>
<trkpt lat="36.92750549316406" lon="-118.56175231933594">
<ele>3194</ele>
<time>2016-10-21T22:17:02Z</time>
</trkpt>
<trkpt lat="36.927547454833984" lon="-118.56188201904297">
<ele>3196</ele>
<time>2016-10-21T22:17:08Z</time>
</trkpt>
<trkpt lat="36.927547454833984" lon="-118.56193542480469">
<ele>3184</ele>
<time>2016-10-21T22:17:17Z</time>
</trkpt>
<trkpt lat="36.92763900756836" lon="-118.56199645996094">
<ele>3186</ele>
<time>2016-10-21T22:17:26Z</time>
</trkpt>
<trkpt lat="36.92766189575195" lon="-118.56212615966797">
<ele>3189</ele>
<time>2016-10-21T22:17:32Z</time>
</trkpt>
<trkpt lat="36.92768478393555" lon="-118.562255859375">
<ele>3191</ele>
<time>2016-10-21T22:17:38Z</time>
</trkpt>
<trkpt lat="36.927669525146484" lon="-118.56245422363281">
<ele>3197</ele>
<time>2016-10-21T22:17:46Z</time>
</trkpt>
<trkpt lat="36.92764663696289" lon="-118.56259155273438">
<ele>3199</ele>
<time>2016-10-21T22:17:52Z</time>
</trkpt>
<trkpt lat="36.927650451660156" lon="-118.56270599365234">
<ele>3192</ele>
<time>2016-10-21T22:18:03Z</time>
</trkpt>
<trkpt lat="36.92766571044922" lon="-118.56277465820313">
<ele>3189</ele>
<time>2016-10-21T22:18:14Z</time>
</trkpt>
<trkpt lat="36.927703857421875" lon="-118.56289672851563">
<ele>3186</ele>
<time>2016-10-21T22:18:23Z</time>
</trkpt>
<trkpt lat="36.92768096923828" lon="-118.56307983398438">
<ele>3184</ele>
<time>2016-10-21T22:18:30Z</time>
</trkpt>
<trkpt lat="36.92768096923828" lon="-118.5632553100586">
<ele>3183</ele>
<time>2016-10-21T22:18:40Z</time>
</trkpt>
<trkpt lat="36.92768859863281" lon="-118.56331634521484">
<ele>3181</ele>
<time>2016-10-21T22:18:51Z</time>
</trkpt>
<trkpt lat="36.92766571044922" lon="-118.56344604492188">
<ele>3178</ele>
<time>2016-10-21T22:18:59Z</time>
</trkpt>
<trkpt lat="36.927677154541016" lon="-118.56356048583984">
<ele>3173</ele>
<time>2016-10-21T22:19:07Z</time>
</trkpt>
<trkpt lat="36.92770767211914" lon="-118.56369018554688">
<ele>3171</ele>
<time>2016-10-21T22:19:14Z</time>
</trkpt>
<trkpt lat="36.927738189697266" lon="-118.56380462646484">
<ele>3176</ele>
<time>2016-10-21T22:19:20Z</time>
</trkpt>
<trkpt lat="36.92770004272461" lon="-118.56393432617188">
<ele>3175</ele>
<time>2016-10-21T22:19:26Z</time>
</trkpt>
<trkpt lat="36.927730560302734" lon="-118.5639877319336">
<ele>3171</ele>
<time>2016-10-21T22:19:34Z</time>
</trkpt>
<trkpt lat="36.92780303955078" lon="-118.56407928466797">
<ele>3176</ele>
<time>2016-10-21T22:19:45Z</time>
</trkpt>
<trkpt lat="36.92787170410156" lon="-118.56417846679688">
<ele>3178</ele>
<time>2016-10-21T22:19:53Z</time>
</trkpt>
<trkpt lat="36.92793273925781" lon="-118.56428527832031">
<ele>3179</ele>
<time>2016-10-21T22:20:00Z</time>
</trkpt>
<trkpt lat="36.92793273925781" lon="-118.56442260742188">
<ele>3182</ele>
<time>2016-10-21T22:20:07Z</time>
</trkpt>
<trkpt lat="36.92790985107422" lon="-118.56455993652344">
<ele>3178</ele>
<time>2016-10-21T22:20:13Z</time>
</trkpt>
<trkpt lat="36.92788314819336" lon="-118.56468200683594">
<ele>3173</ele>
<time>2016-10-21T22:20:21Z</time>
</trkpt>
<trkpt lat="36.927894592285156" lon="-118.5647964477539">
<ele>3173</ele>
<time>2016-10-21T22:20:30Z</time>
</trkpt>
<trkpt lat="36.92792510986328" lon="-118.56491088867188">
<ele>3172</ele>
<time>2016-10-21T22:20:37Z</time>
</trkpt>
<trkpt lat="36.92795944213867" lon="-118.56502532958984">
<ele>3168</ele>
<time>2016-10-21T22:20:44Z</time>
</trkpt>
<trkpt lat="36.92800521850586" lon="-118.56513977050781">
<ele>3167</ele>
<time>2016-10-21T22:20:50Z</time>
</trkpt>
<trkpt lat="36.92805480957031" lon="-118.56525421142578">
<ele>3166</ele>
<time>2016-10-21T22:20:58Z</time>
</trkpt>
<trkpt lat="36.928077697753906" lon="-118.56538391113281">
<ele>3172</ele>
<time>2016-10-21T22:21:07Z</time>
</trkpt>
<trkpt lat="36.92804718017578" lon="-118.5654296875">
<ele>3170</ele>
<time>2016-10-21T22:21:14Z</time>
</trkpt>
<trkpt lat="36.92799758911133" lon="-118.56553649902344">
<ele>3161</ele>
<time>2016-10-21T22:21:24Z</time>
</trkpt>
<trkpt lat="36.92798614501953" lon="-118.5656509399414">
<ele>3155</ele>
<time>2016-10-21T22:21:34Z</time>
</trkpt>
<trkpt lat="36.928062438964844" lon="-118.56575775146484">
<ele>3153</ele>
<time>2016-10-21T22:21:41Z</time>
</trkpt>
<trkpt lat="36.928077697753906" lon="-118.56595611572266">
<ele>3154</ele>
<time>2016-10-21T22:21:49Z</time>
</trkpt>
<trkpt lat="36.9281005859375" lon="-118.56607818603516">
<ele>3152</ele>
<time>2016-10-21T22:21:57Z</time>
</trkpt>
<trkpt lat="36.928104400634766" lon="-118.56617736816406">
<ele>3152</ele>
<time>2016-10-21T22:22:03Z</time>
</trkpt>
<trkpt lat="36.92813491821289" lon="-118.56629180908203">
<ele>3153</ele>
<time>2016-10-21T22:22:10Z</time>
</trkpt>
<trkpt lat="36.92808532714844" lon="-118.56639862060547">
<ele>3159</ele>
<time>2016-10-21T22:22:32Z</time>
</trkpt>
<trkpt lat="36.92805862426758" lon="-118.56653594970703">
<ele>3161</ele>
<time>2016-10-21T22:22:41Z</time>
</trkpt>
<trkpt lat="36.928035736083984" lon="-118.56665802001953">
<ele>3157</ele>
<time>2016-10-21T22:22:47Z</time>
</trkpt>
<trkpt lat="36.92802047729492" lon="-118.56678009033203">
<ele>3161</ele>
<time>2016-10-21T22:22:53Z</time>
</trkpt>
<trkpt lat="36.92801284790039" lon="-118.56690216064453">
<ele>3163</ele>
<time>2016-10-21T22:23:03Z</time>
</trkpt>
<trkpt lat="36.92803955078125" lon="-118.5670166015625">
<ele>3164</ele>
<time>2016-10-21T22:23:10Z</time>
</trkpt>
<trkpt lat="36.928123474121094" lon="-118.56710052490234">
<ele>3167</ele>
<time>2016-10-21T22:23:16Z</time>
</trkpt>
<trkpt lat="36.928165435791016" lon="-118.56722259521484">
<ele>3164</ele>
<time>2016-10-21T22:23:28Z</time>
</trkpt>
<trkpt lat="36.928199768066406" lon="-118.56732940673828">
<ele>3157</ele>
<time>2016-10-21T22:23:39Z</time>
</trkpt>
<trkpt lat="36.92827606201172" lon="-118.56741333007813">
<ele>3157</ele>
<time>2016-10-21T22:23:45Z</time>
</trkpt>
<trkpt lat="36.92837142944336" lon="-118.56742858886719">
<ele>3158</ele>
<time>2016-10-21T22:23:54Z</time>
</trkpt>
<trkpt lat="36.92835235595703" lon="-118.56751251220703">
<ele>3159</ele>
<time>2016-10-21T22:24:18Z</time>
</trkpt>
<trkpt lat="36.92844772338867" lon="-118.56754302978516">
<ele>3163</ele>
<time>2016-10-21T22:24:28Z</time>
</trkpt>
<trkpt lat="36.92853546142578" lon="-118.56758117675781">
<ele>3163</ele>
<time>2016-10-21T22:24:36Z</time>
</trkpt>
<trkpt lat="36.92863082885742" lon="-118.56757354736328">
<ele>3166</ele>
<time>2016-10-21T22:24:43Z</time>
</trkpt>
<trkpt lat="36.92873764038086" lon="-118.56763458251953">
<ele>3168</ele>
<time>2016-10-21T22:24:49Z</time>
</trkpt>
<trkpt lat="36.928829193115234" lon="-118.56771850585938">
<ele>3159</ele>
<time>2016-10-21T22:24:57Z</time>
</trkpt>
<trkpt lat="36.9288444519043" lon="-118.56779479980469">
<ele>3157</ele>
<time>2016-10-21T22:25:03Z</time>
</trkpt>
<trkpt lat="36.928871154785156" lon="-118.56791687011719">
<ele>3159</ele>
<time>2016-10-21T22:25:11Z</time>
</trkpt>
<trkpt lat="36.92885971069336" lon="-118.56805419921875">
<ele>3158</ele>
<time>2016-10-21T22:25:19Z</time>
</trkpt>
<trkpt lat="36.92884063720703" lon="-118.568115234375">
<ele>3156</ele>
<time>2016-10-21T22:25:25Z</time>
</trkpt>
<trkpt lat="36.92875289916992" lon="-118.56819152832031">
<ele>3159</ele>
<time>2016-10-21T22:25:36Z</time>
</trkpt>
<trkpt lat="36.928688049316406" lon="-118.56829833984375">
<ele>3155</ele>
<time>2016-10-21T22:25:45Z</time>
</trkpt>
<trkpt lat="36.92864227294922" lon="-118.56840515136719">
<ele>3158</ele>
<time>2016-10-21T22:25:52Z</time>
</trkpt>
<trkpt lat="36.9285774230957" lon="-118.56851196289063">
<ele>3159</ele>
<time>2016-10-21T22:26:03Z</time>
</trkpt>
<trkpt lat="36.92854690551758" lon="-118.56863403320313">
<ele>3156</ele>
<time>2016-10-21T22:26:11Z</time>
</trkpt>
<trkpt lat="36.92854690551758" lon="-118.56877136230469">
<ele>3154</ele>
<time>2016-10-21T22:26:17Z</time>
</trkpt>
<trkpt lat="36.92850112915039" lon="-118.56890106201172">
<ele>3156</ele>
<time>2016-10-21T22:26:24Z</time>
</trkpt>
<trkpt lat="36.928436279296875" lon="-118.5689926147461">
<ele>3155</ele>
<time>2016-10-21T22:26:32Z</time>
</trkpt>
<trkpt lat="36.928367614746094" lon="-118.56906127929688">
<ele>3155</ele>
<time>2016-10-21T22:26:42Z</time>
</trkpt>
<trkpt lat="36.92832946777344" lon="-118.569091796875">
<ele>3155</ele>
<time>2016-10-21T22:26:49Z</time>
</trkpt>
<trkpt lat="36.92829895019531" lon="-118.56914520263672">
<ele>3153</ele>
<time>2016-10-21T22:26:59Z</time>
</trkpt>
<trkpt lat="36.928260803222656" lon="-118.56926727294922">
<ele>3151</ele>
<time>2016-10-21T22:27:07Z</time>
</trkpt>
<trkpt lat="36.928165435791016" lon="-118.56936645507813">
<ele>3153</ele>
<time>2016-10-21T22:27:13Z</time>
</trkpt>
<trkpt lat="36.928070068359375" lon="-118.56941986083984">
<ele>3148</ele>
<time>2016-10-21T22:27:20Z</time>
</trkpt>
<trkpt lat="36.92797088623047" lon="-118.56946563720703">
<ele>3149</ele>
<time>2016-10-21T22:27:27Z</time>
</trkpt>
<trkpt lat="36.92786407470703" lon="-118.5694808959961">
<ele>3155</ele>
<time>2016-10-21T22:27:37Z</time>
</trkpt>
<trkpt lat="36.927764892578125" lon="-118.56953430175781">
<ele>3152</ele>
<time>2016-10-21T22:27:47Z</time>
</trkpt>
<trkpt lat="36.927738189697266" lon="-118.56958770751953">
<ele>3158</ele>
<time>2016-10-21T22:27:53Z</time>
</trkpt>
<trkpt lat="36.92768859863281" lon="-118.56968688964844">
<ele>3152</ele>
<time>2016-10-21T22:28:00Z</time>
</trkpt>
<trkpt lat="36.92759704589844" lon="-118.56977844238281">
<ele>3150</ele>
<time>2016-10-21T22:28:06Z</time>
</trkpt>
<trkpt lat="36.92753982543945" lon="-118.56989288330078">
<ele>3150</ele>
<time>2016-10-21T22:28:14Z</time>
</trkpt>
<trkpt lat="36.92749786376953" lon="-118.56999969482422">
<ele>3152</ele>
<time>2016-10-21T22:28:22Z</time>
</trkpt>
<trkpt lat="36.927425384521484" lon="-118.57009887695313">
<ele>3145</ele>
<time>2016-10-21T22:28:29Z</time>
</trkpt>
<trkpt lat="36.927345275878906" lon="-118.57011413574219">
<ele>3140</ele>
<time>2016-10-21T22:28:41Z</time>
</trkpt>
<trkpt lat="36.92729187011719" lon="-118.57013702392578">
<ele>3143</ele>
<time>2016-10-21T22:28:47Z</time>
</trkpt>
<trkpt lat="36.9272346496582" lon="-118.57024383544922">
<ele>3143</ele>
<time>2016-10-21T22:28:55Z</time>
</trkpt>
<trkpt lat="36.927162170410156" lon="-118.5703353881836">
<ele>3140</ele>
<time>2016-10-21T22:29:02Z</time>
</trkpt>
<trkpt lat="36.92708969116211" lon="-118.57046508789063">
<ele>3142</ele>
<time>2016-10-21T22:29:10Z</time>
</trkpt>
<trkpt lat="36.927024841308594" lon="-118.57056427001953">
<ele>3143</ele>
<time>2016-10-21T22:29:17Z</time>
</trkpt>
<trkpt lat="36.926971435546875" lon="-118.57067108154297">
<ele>3138</ele>
<time>2016-10-21T22:29:25Z</time>
</trkpt>
<trkpt lat="36.926963806152344" lon="-118.57080078125">
<ele>3138</ele>
<time>2016-10-21T22:29:31Z</time>
</trkpt>
<trkpt lat="36.926937103271484" lon="-118.57093048095703">
<ele>3137</ele>
<time>2016-10-21T22:29:37Z</time>
</trkpt>
<trkpt lat="36.9268913269043" lon="-118.57103729248047">
<ele>3136</ele>
<time>2016-10-21T22:29:44Z</time>
</trkpt>
<trkpt lat="36.926876068115234" lon="-118.5711669921875">
<ele>3138</ele>
<time>2016-10-21T22:29:51Z</time>
</trkpt>
<trkpt lat="36.92681121826172" lon="-118.5712890625">
<ele>3136</ele>
<time>2016-10-21T22:29:58Z</time>
</trkpt>
<trkpt lat="36.926719665527344" lon="-118.57142639160156">
<ele>3142</ele>
<time>2016-10-21T22:30:08Z</time>
</trkpt>
<trkpt lat="36.92668914794922" lon="-118.57147979736328">
<ele>3141</ele>
<time>2016-10-21T22:30:14Z</time>
</trkpt>
<trkpt lat="36.9266242980957" lon="-118.57157897949219">
<ele>3146</ele>
<time>2016-10-21T22:30:22Z</time>
</trkpt>
<trkpt lat="36.926517486572266" lon="-118.57160186767578">
<ele>3144</ele>
<time>2016-10-21T22:30:30Z</time>
</trkpt>
<trkpt lat="36.92643737792969" lon="-118.57168579101563">
<ele>3145</ele>
<time>2016-10-21T22:30:39Z</time>
</trkpt>
<trkpt lat="36.92630386352539" lon="-118.57174682617188">
<ele>3138</ele>
<time>2016-10-21T22:30:45Z</time>
</trkpt>
<trkpt lat="36.92625045776367" lon="-118.57184600830078">
<ele>3139</ele>
<time>2016-10-21T22:30:52Z</time>
</trkpt>
<trkpt lat="36.926151275634766" lon="-118.57186889648438">
<ele>3134</ele>
<time>2016-10-21T22:31:01Z</time>
</trkpt>
<trkpt lat="36.926116943359375" lon="-118.57193756103516">
<ele>3133</ele>
<time>2016-10-21T22:31:07Z</time>
</trkpt>
<trkpt lat="36.926048278808594" lon="-118.572021484375">
<ele>3127</ele>
<time>2016-10-21T22:31:14Z</time>
</trkpt>
<trkpt lat="36.926002502441406" lon="-118.57215118408203">
<ele>3122</ele>
<time>2016-10-21T22:31:22Z</time>
</trkpt>
<trkpt lat="36.92595672607422" lon="-118.57225036621094">
<ele>3121</ele>
<time>2016-10-21T22:31:30Z</time>
</trkpt>
<trkpt lat="36.925865173339844" lon="-118.57231903076172">
<ele>3121</ele>
<time>2016-10-21T22:31:39Z</time>
</trkpt>
<trkpt lat="36.92580032348633" lon="-118.57241821289063">
<ele>3119</ele>
<time>2016-10-21T22:31:48Z</time>
</trkpt>
<trkpt lat="36.92573165893555" lon="-118.5725326538086">
<ele>3118</ele>
<time>2016-10-21T22:31:56Z</time>
</trkpt>
<trkpt lat="36.9256477355957" lon="-118.5726318359375">
<ele>3118</ele>
<time>2016-10-21T22:32:02Z</time>
</trkpt>
<trkpt lat="36.92556381225586" lon="-118.57276916503906">
<ele>3117</ele>
<time>2016-10-21T22:32:09Z</time>
</trkpt>
<trkpt lat="36.925472259521484" lon="-118.57284545898438">
<ele>3120</ele>
<time>2016-10-21T22:32:17Z</time>
</trkpt>
<trkpt lat="36.92538070678711" lon="-118.57291412353516">
<ele>3119</ele>
<time>2016-10-21T22:32:23Z</time>
</trkpt>
<trkpt lat="36.925289154052734" lon="-118.57298278808594">
<ele>3118</ele>
<time>2016-10-21T22:32:30Z</time>
</trkpt>
<trkpt lat="36.9251823425293" lon="-118.57298278808594">
<ele>3119</ele>
<time>2016-10-21T22:32:37Z</time>
</trkpt>
<trkpt lat="36.92511749267578" lon="-118.57305145263672">
<ele>3113</ele>
<time>2016-10-21T22:32:45Z</time>
</trkpt>
<trkpt lat="36.9250602722168" lon="-118.57316589355469">
<ele>3107</ele>
<time>2016-10-21T22:32:52Z</time>
</trkpt>
<trkpt lat="36.925025939941406" lon="-118.57327270507813">
<ele>3103</ele>
<time>2016-10-21T22:32:59Z</time>
</trkpt>
<trkpt lat="36.924922943115234" lon="-118.57331848144531">
<ele>3102</ele>
<time>2016-10-21T22:33:06Z</time>
</trkpt>
<trkpt lat="36.924861907958984" lon="-118.57342529296875">
<ele>3103</ele>
<time>2016-10-21T22:33:15Z</time>
</trkpt>
<trkpt lat="36.92481231689453" lon="-118.57353210449219">
<ele>3103</ele>
<time>2016-10-21T22:33:25Z</time>
</trkpt>
<trkpt lat="36.92476272583008" lon="-118.57366180419922">
<ele>3104</ele>
<time>2016-10-21T22:33:32Z</time>
</trkpt>
<trkpt lat="36.92474365234375" lon="-118.57379150390625">
<ele>3109</ele>
<time>2016-10-21T22:33:39Z</time>
</trkpt>
<trkpt lat="36.92476272583008" lon="-118.5738525390625">
<ele>3107</ele>
<time>2016-10-21T22:33:45Z</time>
</trkpt>
<trkpt lat="36.92472457885742" lon="-118.57398223876953">
<ele>3109</ele>
<time>2016-10-21T22:33:54Z</time>
</trkpt>
<trkpt lat="36.92472839355469" lon="-118.57408905029297">
<ele>3106</ele>
<time>2016-10-21T22:34:03Z</time>
</trkpt>
<trkpt lat="36.924739837646484" lon="-118.57421875">
<ele>3100</ele>
<time>2016-10-21T22:34:11Z</time>
</trkpt>
<trkpt lat="36.924678802490234" lon="-118.57435607910156">
<ele>3103</ele>
<time>2016-10-21T22:34:18Z</time>
</trkpt>
<trkpt lat="36.924659729003906" lon="-118.5744857788086">
<ele>3101</ele>
<time>2016-10-21T22:34:24Z</time>
</trkpt>
<trkpt lat="36.92465591430664" lon="-118.57463073730469">
<ele>3099</ele>
<time>2016-10-21T22:34:30Z</time>
</trkpt>
<trkpt lat="36.92467498779297" lon="-118.57476806640625">
<ele>3100</ele>
<time>2016-10-21T22:34:37Z</time>
</trkpt>
<trkpt lat="36.92469024658203" lon="-118.57489013671875">
<ele>3091</ele>
<time>2016-10-21T22:34:47Z</time>
</trkpt>
<trkpt lat="36.924720764160156" lon="-118.57501220703125">
<ele>3087</ele>
<time>2016-10-21T22:34:56Z</time>
</trkpt>
<trkpt lat="36.924705505371094" lon="-118.57513427734375">
<ele>3089</ele>
<time>2016-10-21T22:35:03Z</time>
</trkpt>
<trkpt lat="36.92465591430664" lon="-118.57524871826172">
<ele>3087</ele>
<time>2016-10-21T22:35:10Z</time>
</trkpt>
<trkpt lat="36.924678802490234" lon="-118.57538604736328">
<ele>3081</ele>
<time>2016-10-21T22:35:18Z</time>
</trkpt>
<trkpt lat="36.92460250854492" lon="-118.57548522949219">
<ele>3085</ele>
<time>2016-10-21T22:35:25Z</time>
</trkpt>
<trkpt lat="36.92454528808594" lon="-118.57557678222656">
<ele>3087</ele>
<time>2016-10-21T22:35:33Z</time>
</trkpt>
<trkpt lat="36.92451477050781" lon="-118.57562255859375">
<ele>3087</ele>
<time>2016-10-21T22:35:39Z</time>
</trkpt>
<trkpt lat="36.92448806762695" lon="-118.57569122314453">
<ele>3090</ele>
<time>2016-10-21T22:35:46Z</time>
</trkpt>
<trkpt lat="36.92445373535156" lon="-118.57582092285156">
<ele>3093</ele>
<time>2016-10-21T22:35:53Z</time>
</trkpt>
<trkpt lat="36.92443084716797" lon="-118.5759506225586">
<ele>3089</ele>
<time>2016-10-21T22:36:00Z</time>
</trkpt>
<trkpt lat="36.92442321777344" lon="-118.5760726928711">
<ele>3088</ele>
<time>2016-10-21T22:36:06Z</time>
</trkpt>
<trkpt lat="36.924442291259766" lon="-118.57620239257813">
<ele>3089</ele>
<time>2016-10-21T22:36:15Z</time>
</trkpt>
<trkpt lat="36.92444610595703" lon="-118.5763168334961">
<ele>3091</ele>
<time>2016-10-21T22:36:21Z</time>
</trkpt>
<trkpt lat="36.92441940307617" lon="-118.5764389038086">
<ele>3092</ele>
<time>2016-10-21T22:36:28Z</time>
</trkpt>
<trkpt lat="36.9244270324707" lon="-118.57655334472656">
<ele>3088</ele>
<time>2016-10-21T22:36:34Z</time>
</trkpt>
<trkpt lat="36.924400329589844" lon="-118.57667541503906">
<ele>3082</ele>
<time>2016-10-21T22:36:42Z</time>
</trkpt>
<trkpt lat="36.92437744140625" lon="-118.5768051147461">
<ele>3085</ele>
<time>2016-10-21T22:36:48Z</time>
</trkpt>
<trkpt lat="36.92432403564453" lon="-118.57691955566406">
<ele>3087</ele>
<time>2016-10-21T22:36:54Z</time>
</trkpt>
<trkpt lat="36.924285888671875" lon="-118.5770263671875">
<ele>3088</ele>
<time>2016-10-21T22:37:00Z</time>
</trkpt>
<trkpt lat="36.92420959472656" lon="-118.57709503173828">
<ele>3090</ele>
<time>2016-10-21T22:37:07Z</time>
</trkpt>
<trkpt lat="36.92412185668945" lon="-118.57717895507813">
<ele>3086</ele>
<time>2016-10-21T22:37:13Z</time>
</trkpt>
<trkpt lat="36.92405700683594" lon="-118.5772705078125">
<ele>3087</ele>
<time>2016-10-21T22:37:21Z</time>
</trkpt>
<trkpt lat="36.92402648925781" lon="-118.57732391357422">
<ele>3089</ele>
<time>2016-10-21T22:37:27Z</time>
</trkpt>
<trkpt lat="36.92401885986328" lon="-118.57738494873047">
<ele>3086</ele>
<time>2016-10-21T22:37:34Z</time>
</trkpt>
<trkpt lat="36.92397689819336" lon="-118.57743835449219">
<ele>3088</ele>
<time>2016-10-21T22:37:40Z</time>
</trkpt>
<trkpt lat="36.9239387512207" lon="-118.57756042480469">
<ele>3087</ele>
<time>2016-10-21T22:37:48Z</time>
</trkpt>
<trkpt lat="36.92390823364258" lon="-118.57767486572266">
<ele>3076</ele>
<time>2016-10-21T22:37:57Z</time>
</trkpt>
<trkpt lat="36.92389678955078" lon="-118.57775115966797">
<ele>3074</ele>
<time>2016-10-21T22:38:03Z</time>
</trkpt>
<trkpt lat="36.923946380615234" lon="-118.57786560058594">
<ele>3076</ele>
<time>2016-10-21T22:38:10Z</time>
</trkpt>
<trkpt lat="36.923980712890625" lon="-118.57798767089844">
<ele>3073</ele>
<time>2016-10-21T22:38:17Z</time>
</trkpt>
<trkpt lat="36.923988342285156" lon="-118.57810974121094">
<ele>3074</ele>
<time>2016-10-21T22:38:27Z</time>
</trkpt>
<trkpt lat="36.9239616394043" lon="-118.57823944091797">
<ele>3074</ele>
<time>2016-10-21T22:38:35Z</time>
</trkpt>
<trkpt lat="36.92391586303711" lon="-118.578369140625">
<ele>3073</ele>
<time>2016-10-21T22:38:44Z</time>
</trkpt>
<trkpt lat="36.923927307128906" lon="-118.57849884033203">
<ele>3072</ele>
<time>2016-10-21T22:38:53Z</time>
</trkpt>
<trkpt lat="36.92389678955078" lon="-118.5786361694336">
<ele>3071</ele>
<time>2016-10-21T22:38:59Z</time>
</trkpt>
<trkpt lat="36.92388153076172" lon="-118.57879638671875">
<ele>3071</ele>
<time>2016-10-21T22:39:07Z</time>
</trkpt>
<trkpt lat="36.92392349243164" lon="-118.57892608642578">
<ele>3069</ele>
<time>2016-10-21T22:39:13Z</time>
</trkpt>
<trkpt lat="36.92388916015625" lon="-118.57902526855469">
<ele>3070</ele>
<time>2016-10-21T22:39:21Z</time>
</trkpt>
<trkpt lat="36.92387390136719" lon="-118.57914733886719">
<ele>3069</ele>
<time>2016-10-21T22:39:30Z</time>
</trkpt>
<trkpt lat="36.92385482788086" lon="-118.57920837402344">
<ele>3072</ele>
<time>2016-10-21T22:39:36Z</time>
</trkpt>
<trkpt lat="36.92379379272461" lon="-118.57930755615234">
<ele>3073</ele>
<time>2016-10-21T22:39:46Z</time>
</trkpt>
<trkpt lat="36.92375564575195" lon="-118.57942199707031">
<ele>3073</ele>
<time>2016-10-21T22:39:54Z</time>
</trkpt>
<trkpt lat="36.92375946044922" lon="-118.57953643798828">
<ele>3069</ele>
<time>2016-10-21T22:40:00Z</time>
</trkpt>
<trkpt lat="36.9237060546875" lon="-118.57962799072266">
<ele>3072</ele>
<time>2016-10-21T22:40:07Z</time>
</trkpt>
<trkpt lat="36.92367172241211" lon="-118.57967376708984">
<ele>3065</ele>
<time>2016-10-21T22:40:13Z</time>
</trkpt>
<trkpt lat="36.92366409301758" lon="-118.57979583740234">
<ele>3064</ele>
<time>2016-10-21T22:40:21Z</time>
</trkpt>
<trkpt lat="36.92365264892578" lon="-118.5799331665039">
<ele>3064</ele>
<time>2016-10-21T22:40:28Z</time>
</trkpt>
<trkpt lat="36.92359924316406" lon="-118.58003234863281">
<ele>3057</ele>
<time>2016-10-21T22:40:37Z</time>
</trkpt>
<trkpt lat="36.923580169677734" lon="-118.58008575439453">
<ele>3059</ele>
<time>2016-10-21T22:40:44Z</time>
</trkpt>
<trkpt lat="36.92353820800781" lon="-118.58011627197266">
<ele>3060</ele>
<time>2016-10-21T22:40:51Z</time>
</trkpt>
<trkpt lat="36.92347717285156" lon="-118.58020782470703">
<ele>3060</ele>
<time>2016-10-21T22:41:01Z</time>
</trkpt>
<trkpt lat="36.923397064208984" lon="-118.58024597167969">
<ele>3060</ele>
<time>2016-10-21T22:41:07Z</time>
</trkpt>
<trkpt lat="36.92329025268555" lon="-118.58028411865234">
<ele>3059</ele>
<time>2016-10-21T22:41:18Z</time>
</trkpt>
<trkpt lat="36.923213958740234" lon="-118.58037567138672">
<ele>3060</ele>
<time>2016-10-21T22:41:26Z</time>
</trkpt>
<trkpt lat="36.92327117919922" lon="-118.58049011230469">
<ele>3053</ele>
<time>2016-10-21T22:41:35Z</time>
</trkpt>
<trkpt lat="36.92333221435547" lon="-118.58057403564453">
<ele>3048</ele>
<time>2016-10-21T22:41:45Z</time>
</trkpt>
<trkpt lat="36.92335510253906" lon="-118.58068084716797">
<ele>3048</ele>
<time>2016-10-21T22:41:54Z</time>
</trkpt>
<trkpt lat="36.92329025268555" lon="-118.58071899414063">
<ele>3047</ele>
<time>2016-10-21T22:42:03Z</time>
</trkpt>
<trkpt lat="36.9232063293457" lon="-118.58075714111328">
<ele>3044</ele>
<time>2016-10-21T22:42:12Z</time>
</trkpt>
<trkpt lat="36.92313766479492" lon="-118.58081817626953">
<ele>3044</ele>
<time>2016-10-21T22:42:22Z</time>
</trkpt>
<trkpt lat="36.923133850097656" lon="-118.58094787597656">
<ele>3041</ele>
<time>2016-10-21T22:42:32Z</time>
</trkpt>
<trkpt lat="36.923118591308594" lon="-118.58106231689453">
<ele>3040</ele>
<time>2016-10-21T22:42:40Z</time>
</trkpt>
<trkpt lat="36.92304992675781" lon="-118.58116149902344">
<ele>3035</ele>
<time>2016-10-21T22:42:48Z</time>
</trkpt>
<trkpt lat="36.92304611206055" lon="-118.58122253417969">
<ele>3032</ele>
<time>2016-10-21T22:42:58Z</time>
</trkpt>
<trkpt lat="36.92311096191406" lon="-118.58130645751953">
<ele>3029</ele>
<time>2016-10-21T22:43:08Z</time>
</trkpt>
<trkpt lat="36.923133850097656" lon="-118.58135223388672">
<ele>3016</ele>
<time>2016-10-21T22:43:16Z</time>
</trkpt>
<trkpt lat="36.92306137084961" lon="-118.58142852783203">
<ele>3019</ele>
<time>2016-10-21T22:43:24Z</time>
</trkpt>
<trkpt lat="36.92298889160156" lon="-118.5815200805664">
<ele>3021</ele>
<time>2016-10-21T22:43:38Z</time>
</trkpt>
<trkpt lat="36.922943115234375" lon="-118.58152770996094">
<ele>3017</ele>
<time>2016-10-21T22:43:44Z</time>
</trkpt>
<trkpt lat="36.92294692993164" lon="-118.58159637451172">
<ele>3013</ele>
<time>2016-10-21T22:43:51Z</time>
</trkpt>
<trkpt lat="36.92292785644531" lon="-118.58164978027344">
<ele>3011</ele>
<time>2016-10-21T22:43:58Z</time>
</trkpt>
<trkpt lat="36.922889709472656" lon="-118.58174896240234">
<ele>3007</ele>
<time>2016-10-21T22:44:08Z</time>
</trkpt>
<trkpt lat="36.922874450683594" lon="-118.58187103271484">
<ele>3014</ele>
<time>2016-10-21T22:44:17Z</time>
</trkpt>
<trkpt lat="36.92282485961914" lon="-118.58195495605469">
<ele>3010</ele>
<time>2016-10-21T22:44:26Z</time>
</trkpt>
<trkpt lat="36.922733306884766" lon="-118.5820083618164">
<ele>3009</ele>
<time>2016-10-21T22:44:34Z</time>
</trkpt>
<trkpt lat="36.92265319824219" lon="-118.58209228515625">
<ele>3007</ele>
<time>2016-10-21T22:44:42Z</time>
</trkpt>
<trkpt lat="36.92259979248047" lon="-118.58219909667969">
<ele>3007</ele>
<time>2016-10-21T22:44:52Z</time>
</trkpt>
<trkpt lat="36.92257308959961" lon="-118.58233642578125">
<ele>3006</ele>
<time>2016-10-21T22:45:00Z</time>
</trkpt>
<trkpt lat="36.922508239746094" lon="-118.58238983154297">
<ele>3003</ele>
<time>2016-10-21T22:45:07Z</time>
</trkpt>
<trkpt lat="36.922428131103516" lon="-118.58245086669922">
<ele>3004</ele>
<time>2016-10-21T22:45:15Z</time>
</trkpt>
<trkpt lat="36.922393798828125" lon="-118.58248901367188">
<ele>3000</ele>
<time>2016-10-21T22:45:21Z</time>
</trkpt>
<trkpt lat="36.92237854003906" lon="-118.5823974609375">
<ele>2993</ele>
<time>2016-10-21T22:45:38Z</time>
</trkpt>
<trkpt lat="36.922340393066406" lon="-118.58235931396484">
<ele>2993</ele>
<time>2016-10-21T22:45:55Z</time>
</trkpt>
<trkpt lat="36.92236328125" lon="-118.58245849609375">
<ele>3005</ele>
<time>2016-10-21T22:46:15Z</time>
</trkpt>
<trkpt lat="36.922359466552734" lon="-118.5823745727539">
<ele>2999</ele>
<time>2016-10-21T22:48:18Z</time>
</trkpt>
<trkpt lat="36.92230987548828" lon="-118.58241271972656">
<ele>2994</ele>
<time>2016-10-21T22:49:48Z</time>
</trkpt>
<trkpt lat="36.92237854003906" lon="-118.58241271972656">
<ele>2991</ele>
<time>2016-10-21T22:50:46Z</time>
</trkpt>
<trkpt lat="36.92236328125" lon="-118.58248901367188">
<ele>2995</ele>
<time>2016-10-21T22:51:40Z</time>
</trkpt>
<trkpt lat="36.92238235473633" lon="-118.5825424194336">
<ele>3000</ele>
<time>2016-10-21T22:51:54Z</time>
</trkpt>
<trkpt lat="36.92234802246094" lon="-118.58248138427734">
<ele>2990</ele>
<time>2016-10-21T22:52:03Z</time>
</trkpt>
<trkpt lat="36.92234802246094" lon="-118.58242797851563">
<ele>2989</ele>
<time>2016-10-21T22:52:11Z</time>
</trkpt>
</trkseg>
</trk>
<trk>
<name><![CDATA[10211552]]></name>
<number>64</number>
<extensions><topografix:color>ff000066</topografix:color></extensions>
<trkseg>
<trkpt lat="36.92237854003906" lon="-118.58242797851563">
<ele>2992</ele>
<time>2016-10-21T22:52:57Z</time>
</trkpt>
<trkpt lat="36.92233657836914" lon="-118.5823974609375">
<ele>2994</ele>
<time>2016-10-21T22:53:11Z</time>
</trkpt>
<trkpt lat="36.9222412109375" lon="-118.58236694335938">
<ele>2994</ele>
<time>2016-10-21T22:53:23Z</time>
</trkpt>
<trkpt lat="36.92219543457031" lon="-118.58236694335938">
<ele>2997</ele>
<time>2016-10-21T22:53:30Z</time>
</trkpt>
<trkpt lat="36.922122955322266" lon="-118.58245849609375">
<ele>2998</ele>
<time>2016-10-21T22:53:38Z</time>
</trkpt>
<trkpt lat="36.922027587890625" lon="-118.58246612548828">
<ele>2997</ele>
<time>2016-10-21T22:53:45Z</time>
</trkpt>
<trkpt lat="36.921993255615234" lon="-118.58251190185547">
<ele>2999</ele>
<time>2016-10-21T22:53:51Z</time>
</trkpt>
<trkpt lat="36.92195129394531" lon="-118.5826187133789">
<ele>2999</ele>
<time>2016-10-21T22:53:57Z</time>
</trkpt>
<trkpt lat="36.92186737060547" lon="-118.58271026611328">
<ele>2997</ele>
<time>2016-10-21T22:54:06Z</time>
</trkpt>
<trkpt lat="36.92182159423828" lon="-118.58273315429688">
<ele>2994</ele>
<time>2016-10-21T22:54:15Z</time>
</trkpt>
<trkpt lat="36.92173385620117" lon="-118.58277893066406">
<ele>2990</ele>
<time>2016-10-21T22:54:23Z</time>
</trkpt>
<trkpt lat="36.921634674072266" lon="-118.58279418945313">
<ele>2989</ele>
<time>2016-10-21T22:54:31Z</time>
</trkpt>
<trkpt lat="36.921531677246094" lon="-118.58281707763672">
<ele>2989</ele>
<time>2016-10-21T22:54:37Z</time>
</trkpt>
<trkpt lat="36.92144775390625" lon="-118.58287811279297">
<ele>2987</ele>
<time>2016-10-21T22:54:43Z</time>
</trkpt>
<trkpt lat="36.92134475708008" lon="-118.58291625976563">
<ele>2988</ele>
<time>2016-10-21T22:54:50Z</time>
</trkpt>
<trkpt lat="36.92127227783203" lon="-118.58300018310547">
<ele>2986</ele>
<time>2016-10-21T22:54:58Z</time>
</trkpt>
<trkpt lat="36.921321868896484" lon="-118.5831069946289">
<ele>2980</ele>
<time>2016-10-21T22:55:06Z</time>
</trkpt>
<trkpt lat="36.92135238647461" lon="-118.58321380615234">
<ele>2982</ele>
<time>2016-10-21T22:55:15Z</time>
</trkpt>
<trkpt lat="36.921295166015625" lon="-118.5832748413086">
<ele>2979</ele>
<time>2016-10-21T22:55:27Z</time>
</trkpt>
<trkpt lat="36.921207427978516" lon="-118.58326721191406">
<ele>2979</ele>
<time>2016-10-21T22:55:42Z</time>
</trkpt>
<trkpt lat="36.9210319519043" lon="-118.58321380615234">
<ele>2981</ele>
<time>2016-10-21T22:55:49Z</time>
</trkpt>
<trkpt lat="36.92088317871094" lon="-118.58324432373047">
<ele>2980</ele>
<time>2016-10-21T22:55:57Z</time>
</trkpt>
<trkpt lat="36.92078399658203" lon="-118.58326721191406">
<ele>2984</ele>
<time>2016-10-21T22:56:03Z</time>
</trkpt>
<trkpt lat="36.92068099975586" lon="-118.583251953125">
<ele>2986</ele>
<time>2016-10-21T22:56:12Z</time>
</trkpt>
<trkpt lat="36.920589447021484" lon="-118.58326721191406">
<ele>2982</ele>
<time>2016-10-21T22:56:22Z</time>
</trkpt>
<trkpt lat="36.92053985595703" lon="-118.5832748413086">
<ele>2982</ele>
<time>2016-10-21T22:56:31Z</time>
</trkpt>
<trkpt lat="36.920475006103516" lon="-118.58338928222656">
<ele>2981</ele>
<time>2016-10-21T22:56:38Z</time>
</trkpt>
<trkpt lat="36.92038345336914" lon="-118.58344268798828">
<ele>2979</ele>
<time>2016-10-21T22:56:45Z</time>
</trkpt>
<trkpt lat="36.92030334472656" lon="-118.5835189819336">
<ele>2974</ele>
<time>2016-10-21T22:56:57Z</time>
</trkpt>
<trkpt lat="36.920230865478516" lon="-118.58360290527344">
<ele>2973</ele>
<time>2016-10-21T22:57:06Z</time>
</trkpt>
<trkpt lat="36.92014694213867" lon="-118.58367156982422">
<ele>2976</ele>
<time>2016-10-21T22:57:14Z</time>
</trkpt>
<trkpt lat="36.9200553894043" lon="-118.58372497558594">
<ele>2972</ele>
<time>2016-10-21T22:57:21Z</time>
</trkpt>
<trkpt lat="36.92000198364258" lon="-118.58374786376953">
<ele>2971</ele>
<time>2016-10-21T22:57:27Z</time>
</trkpt>
<trkpt lat="36.919921875" lon="-118.58383178710938">
<ele>2969</ele>
<time>2016-10-21T22:57:33Z</time>
</trkpt>
<trkpt lat="36.91987228393555" lon="-118.58395385742188">
<ele>2970</ele>
<time>2016-10-21T22:57:40Z</time>
</trkpt>
<trkpt lat="36.919837951660156" lon="-118.58407592773438">
<ele>2973</ele>
<time>2016-10-21T22:57:47Z</time>
</trkpt>
<trkpt lat="36.91981887817383" lon="-118.5841293334961">
<ele>2976</ele>
<time>2016-10-21T22:57:54Z</time>
</trkpt>
<trkpt lat="36.919837951660156" lon="-118.58421325683594">
<ele>2979</ele>
<time>2016-10-21T22:58:02Z</time>
</trkpt>
<trkpt lat="36.919891357421875" lon="-118.58432006835938">
<ele>2978</ele>
<time>2016-10-21T22:58:12Z</time>
</trkpt>
<trkpt lat="36.919921875" lon="-118.5843734741211">
<ele>2976</ele>
<time>2016-10-21T22:58:22Z</time>
</trkpt>
<trkpt lat="36.919960021972656" lon="-118.58441925048828">
<ele>2978</ele>
<time>2016-10-21T22:58:30Z</time>
</trkpt>
<trkpt lat="36.92002868652344" lon="-118.58452606201172">
<ele>2979</ele>
<time>2016-10-21T22:58:39Z</time>
</trkpt>
<trkpt lat="36.92010498046875" lon="-118.58462524414063">
<ele>2982</ele>
<time>2016-10-21T22:58:47Z</time>
</trkpt>
<trkpt lat="36.920169830322266" lon="-118.58470916748047">
<ele>2981</ele>
<time>2016-10-21T22:58:55Z</time>
</trkpt>
<trkpt lat="36.92021179199219" lon="-118.58478546142578">
<ele>2982</ele>
<time>2016-10-21T22:59:05Z</time>
</trkpt>
<trkpt lat="36.92021179199219" lon="-118.58484649658203">
<ele>2979</ele>
<time>2016-10-21T22:59:11Z</time>
</trkpt>
<trkpt lat="36.92021560668945" lon="-118.58490753173828">
<ele>2981</ele>
<time>2016-10-21T22:59:19Z</time>
</trkpt>
<trkpt lat="36.92024612426758" lon="-118.58502960205078">
<ele>2979</ele>
<time>2016-10-21T22:59:26Z</time>
</trkpt>
<trkpt lat="36.92029571533203" lon="-118.58513641357422">
<ele>2978</ele>
<time>2016-10-21T22:59:36Z</time>
</trkpt>
<trkpt lat="36.920345306396484" lon="-118.58524322509766">
<ele>2970</ele>
<time>2016-10-21T22:59:48Z</time>
</trkpt>
<trkpt lat="36.920372009277344" lon="-118.58535766601563">
<ele>2967</ele>
<time>2016-10-21T22:59:57Z</time>
</trkpt>
<trkpt lat="36.92039489746094" lon="-118.58541870117188">
<ele>2963</ele>
<time>2016-10-21T23:00:04Z</time>
</trkpt>
<trkpt lat="36.920475006103516" lon="-118.58551788330078">
<ele>2967</ele>
<time>2016-10-21T23:00:12Z</time>
</trkpt>
<trkpt lat="36.920562744140625" lon="-118.58562469482422">
<ele>2972</ele>
<time>2016-10-21T23:00:19Z</time>
</trkpt>
<trkpt lat="36.920623779296875" lon="-118.58573913574219">
<ele>2973</ele>
<time>2016-10-21T23:00:27Z</time>
</trkpt>
<trkpt lat="36.92067337036133" lon="-118.5858383178711">
<ele>2974</ele>
<time>2016-10-21T23:00:37Z</time>
</trkpt>
<trkpt lat="36.92070388793945" lon="-118.58594512939453">
<ele>2975</ele>
<time>2016-10-21T23:00:46Z</time>
</trkpt>
<trkpt lat="36.92070388793945" lon="-118.58606719970703">
<ele>2985</ele>
<time>2016-10-21T23:00:52Z</time>
</trkpt>
<trkpt lat="36.92073440551758" lon="-118.58619689941406">
<ele>2985</ele>
<time>2016-10-21T23:01:01Z</time>
</trkpt>
<trkpt lat="36.920738220214844" lon="-118.58631896972656">
<ele>2992</ele>
<time>2016-10-21T23:01:09Z</time>
</trkpt>
<trkpt lat="36.92072677612305" lon="-118.58637237548828">
<ele>2993</ele>
<time>2016-10-21T23:01:15Z</time>
</trkpt>
<trkpt lat="36.92070770263672" lon="-118.58650207519531">
<ele>2991</ele>
<time>2016-10-21T23:01:24Z</time>
</trkpt>
<trkpt lat="36.92068862915039" lon="-118.58663940429688">
<ele>2994</ele>
<time>2016-10-21T23:01:30Z</time>
</trkpt>
<trkpt lat="36.920654296875" lon="-118.58674621582031">
<ele>2998</ele>
<time>2016-10-21T23:01:40Z</time>
</trkpt>
<trkpt lat="36.92060852050781" lon="-118.58686065673828">
<ele>2995</ele>
<time>2016-10-21T23:01:52Z</time>
</trkpt>
<trkpt lat="36.920589447021484" lon="-118.58698272705078">
<ele>2997</ele>
<time>2016-10-21T23:02:16Z</time>
</trkpt>
<trkpt lat="36.920616149902344" lon="-118.58710479736328">
<ele>2988</ele>
<time>2016-10-21T23:02:25Z</time>
</trkpt>
<trkpt lat="36.92063903808594" lon="-118.58724212646484">
<ele>2992</ele>
<time>2016-10-21T23:02:33Z</time>
</trkpt>
<trkpt lat="36.920692443847656" lon="-118.58736419677734">
<ele>2992</ele>
<time>2016-10-21T23:02:40Z</time>
</trkpt>
<trkpt lat="36.92074966430664" lon="-118.58748626708984">
<ele>2992</ele>
<time>2016-10-21T23:02:47Z</time>
</trkpt>
<trkpt lat="36.920772552490234" lon="-118.58760833740234">
<ele>2996</ele>
<time>2016-10-21T23:02:54Z</time>
</trkpt>
<trkpt lat="36.920799255371094" lon="-118.58771514892578">
<ele>2996</ele>
<time>2016-10-21T23:03:03Z</time>
</trkpt>
<trkpt lat="36.92082595825195" lon="-118.58782958984375">
<ele>3000</ele>
<time>2016-10-21T23:03:15Z</time>
</trkpt>
<trkpt lat="36.92084884643555" lon="-118.58795928955078">
<ele>2996</ele>
<time>2016-10-21T23:03:22Z</time>
</trkpt>
<trkpt lat="36.92083740234375" lon="-118.58808135986328">
<ele>2998</ele>
<time>2016-10-21T23:03:29Z</time>
</trkpt>
<trkpt lat="36.92082977294922" lon="-118.58820343017578">
<ele>2998</ele>
<time>2016-10-21T23:03:39Z</time>
</trkpt>
<trkpt lat="36.92084503173828" lon="-118.58826446533203">
<ele>2995</ele>
<time>2016-10-21T23:03:45Z</time>
</trkpt>
<trkpt lat="36.92087936401367" lon="-118.58831024169922">
<ele>2984</ele>
<time>2016-10-21T23:03:54Z</time>
</trkpt>
<trkpt lat="36.9209098815918" lon="-118.58839416503906">
<ele>2981</ele>
<time>2016-10-21T23:04:01Z</time>
</trkpt>
<trkpt lat="36.920936584472656" lon="-118.58851623535156">
<ele>2981</ele>
<time>2016-10-21T23:04:11Z</time>
</trkpt>
<trkpt lat="36.92096710205078" lon="-118.58857727050781">
<ele>2980</ele>
<time>2016-10-21T23:04:18Z</time>
</trkpt>
<trkpt lat="36.920982360839844" lon="-118.58875274658203">
<ele>2985</ele>
<time>2016-10-21T23:04:25Z</time>
</trkpt>
<trkpt lat="36.920982360839844" lon="-118.58895874023438">
<ele>2987</ele>
<time>2016-10-21T23:04:33Z</time>
</trkpt>
<trkpt lat="36.920936584472656" lon="-118.58907318115234">
<ele>2988</ele>
<time>2016-10-21T23:04:40Z</time>
</trkpt>
<trkpt lat="36.920860290527344" lon="-118.58915710449219">
<ele>2989</ele>
<time>2016-10-21T23:04:48Z</time>
</trkpt>
<trkpt lat="36.92091751098633" lon="-118.58928680419922">
<ele>2984</ele>
<time>2016-10-21T23:04:57Z</time>
</trkpt>
<trkpt lat="36.92089080810547" lon="-118.58934020996094">
<ele>2985</ele>
<time>2016-10-21T23:05:07Z</time>
</trkpt>
<trkpt lat="36.9208869934082" lon="-118.58940887451172">
<ele>2982</ele>
<time>2016-10-21T23:05:13Z</time>
</trkpt>
<trkpt lat="36.92083740234375" lon="-118.58952331542969">
<ele>2974</ele>
<time>2016-10-21T23:05:22Z</time>
</trkpt>
<trkpt lat="36.92082214355469" lon="-118.5895767211914">
<ele>2972</ele>
<time>2016-10-21T23:05:28Z</time>
</trkpt>
<trkpt lat="36.92084884643555" lon="-118.5896987915039">
<ele>2973</ele>
<time>2016-10-21T23:05:37Z</time>
</trkpt>
<trkpt lat="36.92082977294922" lon="-118.58975219726563">
<ele>2973</ele>
<time>2016-10-21T23:05:47Z</time>
</trkpt>
<trkpt lat="36.920799255371094" lon="-118.58980560302734">
<ele>2969</ele>
<time>2016-10-21T23:05:53Z</time>
</trkpt>
<trkpt lat="36.92081069946289" lon="-118.58992767333984">
<ele>2968</ele>
<time>2016-10-21T23:06:01Z</time>
</trkpt>
<trkpt lat="36.920772552490234" lon="-118.59004974365234">
<ele>2960</ele>
<time>2016-10-21T23:06:12Z</time>
</trkpt>
<trkpt lat="36.9207763671875" lon="-118.59017181396484">
<ele>2960</ele>
<time>2016-10-21T23:06:20Z</time>
</trkpt>
<trkpt lat="36.920745849609375" lon="-118.59030151367188">
<ele>2963</ele>
<time>2016-10-21T23:06:27Z</time>
</trkpt>
<trkpt lat="36.92076873779297" lon="-118.59040832519531">
<ele>2964</ele>
<time>2016-10-21T23:06:34Z</time>
</trkpt>
<trkpt lat="36.920772552490234" lon="-118.59053039550781">
<ele>2960</ele>
<time>2016-10-21T23:06:43Z</time>
</trkpt>
<trkpt lat="36.920814514160156" lon="-118.59065246582031">
<ele>2957</ele>
<time>2016-10-21T23:06:50Z</time>
</trkpt>
<trkpt lat="36.92085266113281" lon="-118.59074401855469">
<ele>2958</ele>
<time>2016-10-21T23:06:57Z</time>
</trkpt>
<trkpt lat="36.920867919921875" lon="-118.59086608886719">
<ele>2955</ele>
<time>2016-10-21T23:07:03Z</time>
</trkpt>
<trkpt lat="36.92089080810547" lon="-118.59098815917969">
<ele>2955</ele>
<time>2016-10-21T23:07:12Z</time>
</trkpt>
<trkpt lat="36.920867919921875" lon="-118.59111785888672">
<ele>2951</ele>
<time>2016-10-21T23:07:20Z</time>
</trkpt>
<trkpt lat="36.92086410522461" lon="-118.59125518798828">
<ele>2955</ele>
<time>2016-10-21T23:07:27Z</time>
</trkpt>
<trkpt lat="36.92079162597656" lon="-118.59133911132813">
<ele>2952</ele>
<time>2016-10-21T23:07:35Z</time>
</trkpt>
<trkpt lat="36.92074203491211" lon="-118.59144592285156">
<ele>2947</ele>
<time>2016-10-21T23:07:41Z</time>
</trkpt>
<trkpt lat="36.92071533203125" lon="-118.59158325195313">
<ele>2943</ele>
<time>2016-10-21T23:07:50Z</time>
</trkpt>
<trkpt lat="36.92071533203125" lon="-118.59169006347656">
<ele>2943</ele>
<time>2016-10-21T23:07:57Z</time>
</trkpt>
<trkpt lat="36.92068862915039" lon="-118.59181213378906">
<ele>2941</ele>
<time>2016-10-21T23:08:06Z</time>
</trkpt>
<trkpt lat="36.920623779296875" lon="-118.59191131591797">
<ele>2938</ele>
<time>2016-10-21T23:08:14Z</time>
</trkpt>
<trkpt lat="36.920631408691406" lon="-118.5920181274414">
<ele>2935</ele>
<time>2016-10-21T23:08:22Z</time>
</trkpt>
<trkpt lat="36.920623779296875" lon="-118.5921401977539">
<ele>2931</ele>
<time>2016-10-21T23:08:30Z</time>
</trkpt>
<trkpt lat="36.92060852050781" lon="-118.59226989746094">
<ele>2929</ele>
<time>2016-10-21T23:08:37Z</time>
</trkpt>
<trkpt lat="36.920555114746094" lon="-118.59237670898438">
<ele>2931</ele>
<time>2016-10-21T23:08:43Z</time>
</trkpt>
<trkpt lat="36.9205207824707" lon="-118.59249114990234">
<ele>2928</ele>
<time>2016-10-21T23:08:51Z</time>
</trkpt>
<trkpt lat="36.9205322265625" lon="-118.59255981445313">
<ele>2928</ele>
<time>2016-10-21T23:08:57Z</time>
</trkpt>
<trkpt lat="36.920536041259766" lon="-118.59268188476563">
<ele>2922</ele>
<time>2016-10-21T23:09:05Z</time>
</trkpt>
<trkpt lat="36.92055892944336" lon="-118.5927963256836">
<ele>2920</ele>
<time>2016-10-21T23:09:11Z</time>
</trkpt>
<trkpt lat="36.92054748535156" lon="-118.59298706054688">
<ele>2927</ele>
<time>2016-10-21T23:09:18Z</time>
</trkpt>
<trkpt lat="36.920536041259766" lon="-118.59310913085938">
<ele>2925</ele>
<time>2016-10-21T23:09:25Z</time>
</trkpt>
<trkpt lat="36.92048645019531" lon="-118.59321594238281">
<ele>2929</ele>
<time>2016-10-21T23:09:34Z</time>
</trkpt>
<trkpt lat="36.92041778564453" lon="-118.59331512451172">
<ele>2933</ele>
<time>2016-10-21T23:09:43Z</time>
</trkpt>
<trkpt lat="36.92032241821289" lon="-118.59333801269531">
<ele>2931</ele>
<time>2016-10-21T23:09:53Z</time>
</trkpt>
<trkpt lat="36.920265197753906" lon="-118.59337615966797">
<ele>2931</ele>
<time>2016-10-21T23:10:03Z</time>
</trkpt>
<trkpt lat="36.92027282714844" lon="-118.59351348876953">
<ele>2930</ele>
<time>2016-10-21T23:10:12Z</time>
</trkpt>
<trkpt lat="36.9202995300293" lon="-118.5936279296875">
<ele>2928</ele>
<time>2016-10-21T23:10:20Z</time>
</trkpt>
<trkpt lat="36.9202766418457" lon="-118.59374237060547">
<ele>2924</ele>
<time>2016-10-21T23:10:27Z</time>
</trkpt>
<trkpt lat="36.92024230957031" lon="-118.5938720703125">
<ele>2919</ele>
<time>2016-10-21T23:10:35Z</time>
</trkpt>
<trkpt lat="36.920196533203125" lon="-118.5939712524414">
<ele>2922</ele>
<time>2016-10-21T23:10:42Z</time>
</trkpt>
<trkpt lat="36.920135498046875" lon="-118.59408569335938">
<ele>2922</ele>
<time>2016-10-21T23:10:50Z</time>
</trkpt>
<trkpt lat="36.92007827758789" lon="-118.59417724609375">
<ele>2925</ele>
<time>2016-10-21T23:10:57Z</time>
</trkpt>
<trkpt lat="36.92001724243164" lon="-118.59423828125">
<ele>2923</ele>
<time>2016-10-21T23:11:12Z</time>
</trkpt>
<trkpt lat="36.919960021972656" lon="-118.5943603515625">
<ele>2921</ele>
<time>2016-10-21T23:11:19Z</time>
</trkpt>
<trkpt lat="36.919898986816406" lon="-118.59444427490234">
<ele>2920</ele>
<time>2016-10-21T23:11:28Z</time>
</trkpt>
<trkpt lat="36.91995620727539" lon="-118.59455871582031">
<ele>2912</ele>
<time>2016-10-21T23:11:34Z</time>
</trkpt>
<trkpt lat="36.92007827758789" lon="-118.59469604492188">
<ele>2908</ele>
<time>2016-10-21T23:11:41Z</time>
</trkpt>
<trkpt lat="36.9200553894043" lon="-118.59475708007813">
<ele>2906</ele>
<time>2016-10-21T23:11:47Z</time>
</trkpt>
<trkpt lat="36.919986724853516" lon="-118.59483337402344">
<ele>2905</ele>
<time>2016-10-21T23:11:55Z</time>
</trkpt>
<trkpt lat="36.919944763183594" lon="-118.59490966796875">
<ele>2910</ele>
<time>2016-10-21T23:12:02Z</time>
</trkpt>
<trkpt lat="36.919944763183594" lon="-118.594970703125">
<ele>2908</ele>
<time>2016-10-21T23:12:08Z</time>
</trkpt>
<trkpt lat="36.92000961303711" lon="-118.59507751464844">
<ele>2909</ele>
<time>2016-10-21T23:12:15Z</time>
</trkpt>
<trkpt lat="36.9200325012207" lon="-118.59519958496094">
<ele>2912</ele>
<time>2016-10-21T23:12:21Z</time>
</trkpt>
<trkpt lat="36.920021057128906" lon="-118.59532165527344">
<ele>2915</ele>
<time>2016-10-21T23:12:27Z</time>
</trkpt>
<trkpt lat="36.92000961303711" lon="-118.59538269042969">
<ele>2916</ele>
<time>2016-10-21T23:12:35Z</time>
</trkpt>
<trkpt lat="36.92000961303711" lon="-118.59545135498047">
<ele>2915</ele>
<time>2016-10-21T23:12:41Z</time>
</trkpt>
<trkpt lat="36.920066833496094" lon="-118.5955581665039">
<ele>2917</ele>
<time>2016-10-21T23:12:47Z</time>
</trkpt>
<trkpt lat="36.920108795166016" lon="-118.59566497802734">
<ele>2921</ele>
<time>2016-10-21T23:12:54Z</time>
</trkpt>
<trkpt lat="36.9201545715332" lon="-118.59583282470703">
<ele>2921</ele>
<time>2016-10-21T23:13:02Z</time>
</trkpt>
<trkpt lat="36.92010498046875" lon="-118.59593200683594">
<ele>2923</ele>
<time>2016-10-21T23:13:09Z</time>
</trkpt>
<trkpt lat="36.92012023925781" lon="-118.59598541259766">
<ele>2922</ele>
<time>2016-10-21T23:13:16Z</time>
</trkpt>
<trkpt lat="36.92011260986328" lon="-118.5960464477539">
<ele>2919</ele>
<time>2016-10-21T23:13:22Z</time>
</trkpt>
<trkpt lat="36.92009735107422" lon="-118.59609985351563">
<ele>2918</ele>
<time>2016-10-21T23:13:28Z</time>
</trkpt>
<trkpt lat="36.920040130615234" lon="-118.59619903564453">
<ele>2923</ele>
<time>2016-10-21T23:13:36Z</time>
</trkpt>
<trkpt lat="36.91999816894531" lon="-118.59629821777344">
<ele>2919</ele>
<time>2016-10-21T23:13:47Z</time>
</trkpt>
<trkpt lat="36.92003631591797" lon="-118.59642791748047">
<ele>2920</ele>
<time>2016-10-21T23:13:57Z</time>
</trkpt>
<trkpt lat="36.92001724243164" lon="-118.59654235839844">
<ele>2917</ele>
<time>2016-10-21T23:14:06Z</time>
</trkpt>
<trkpt lat="36.9200439453125" lon="-118.5966567993164">
<ele>2924</ele>
<time>2016-10-21T23:14:21Z</time>
</trkpt>
<trkpt lat="36.91999816894531" lon="-118.59664916992188">
<ele>2917</ele>
<time>2016-10-21T23:14:35Z</time>
</trkpt>
<trkpt lat="36.91999053955078" lon="-118.59671020507813">
<ele>2926</ele>
<time>2016-10-21T23:14:42Z</time>
</trkpt>
<trkpt lat="36.919944763183594" lon="-118.59673309326172">
<ele>2924</ele>
<time>2016-10-21T23:14:49Z</time>
</trkpt>
<trkpt lat="36.919857025146484" lon="-118.59674072265625">
<ele>2923</ele>
<time>2016-10-21T23:14:57Z</time>
</trkpt>
<trkpt lat="36.91975784301758" lon="-118.59678649902344">
<ele>2928</ele>
<time>2016-10-21T23:15:06Z</time>
</trkpt>
<trkpt lat="36.91967010498047" lon="-118.59685516357422">
<ele>2927</ele>
<time>2016-10-21T23:15:13Z</time>
</trkpt>
<trkpt lat="36.919620513916016" lon="-118.59687805175781">
<ele>2929</ele>
<time>2016-10-21T23:15:19Z</time>
</trkpt>
<trkpt lat="36.919525146484375" lon="-118.5969467163086">
<ele>2921</ele>
<time>2016-10-21T23:15:27Z</time>
</trkpt>
<trkpt lat="36.91946029663086" lon="-118.5970458984375">
<ele>2922</ele>
<time>2016-10-21T23:15:36Z</time>
</trkpt>
<trkpt lat="36.919429779052734" lon="-118.59716033935547">
<ele>2925</ele>
<time>2016-10-21T23:15:44Z</time>
</trkpt>
<trkpt lat="36.919429779052734" lon="-118.59728240966797">
<ele>2924</ele>
<time>2016-10-21T23:15:52Z</time>
</trkpt>
<trkpt lat="36.91940689086914" lon="-118.59744262695313">
<ele>2924</ele>
<time>2016-10-21T23:16:01Z</time>
</trkpt>
<trkpt lat="36.91937255859375" lon="-118.59756469726563">
<ele>2927</ele>
<time>2016-10-21T23:16:07Z</time>
</trkpt>
<trkpt lat="36.91935729980469" lon="-118.59762573242188">
<ele>2926</ele>
<time>2016-10-21T23:16:15Z</time>
</trkpt>
<trkpt lat="36.91938400268555" lon="-118.59777069091797">
<ele>2930</ele>
<time>2016-10-21T23:16:22Z</time>
</trkpt>
<trkpt lat="36.91937255859375" lon="-118.59790802001953">
<ele>2931</ele>
<time>2016-10-21T23:16:30Z</time>
</trkpt>
<trkpt lat="36.91931915283203" lon="-118.5980224609375">
<ele>2933</ele>
<time>2016-10-21T23:16:37Z</time>
</trkpt>
<trkpt lat="36.91929626464844" lon="-118.59813690185547">
<ele>2929</ele>
<time>2016-10-21T23:16:47Z</time>
</trkpt>
<trkpt lat="36.91935729980469" lon="-118.5982666015625">
<ele>2926</ele>
<time>2016-10-21T23:16:54Z</time>
</trkpt>
<trkpt lat="36.919334411621094" lon="-118.5983657836914">
<ele>2924</ele>
<time>2016-10-21T23:17:01Z</time>
</trkpt>
<trkpt lat="36.91937255859375" lon="-118.59848022460938">
<ele>2920</ele>
<time>2016-10-21T23:17:11Z</time>
</trkpt>
<trkpt lat="36.9193115234375" lon="-118.59849548339844">
<ele>2925</ele>
<time>2016-10-21T23:17:32Z</time>
</trkpt>
<trkpt lat="36.91927719116211" lon="-118.59854125976563">
<ele>2928</ele>
<time>2016-10-21T23:17:42Z</time>
</trkpt>
<trkpt lat="36.919307708740234" lon="-118.5986557006836">
<ele>2928</ele>
<time>2016-10-21T23:17:48Z</time>
</trkpt>
<trkpt lat="36.91935348510742" lon="-118.59877014160156">
<ele>2926</ele>
<time>2016-10-21T23:17:56Z</time>
</trkpt>
<trkpt lat="36.91936492919922" lon="-118.59890747070313">
<ele>2928</ele>
<time>2016-10-21T23:18:04Z</time>
</trkpt>
<trkpt lat="36.91932678222656" lon="-118.59902954101563">
<ele>2923</ele>
<time>2016-10-21T23:18:11Z</time>
</trkpt>
<trkpt lat="36.919281005859375" lon="-118.5991439819336">
<ele>2918</ele>
<time>2016-10-21T23:18:18Z</time>
</trkpt>
<trkpt lat="36.91924285888672" lon="-118.59925842285156">
<ele>2919</ele>
<time>2016-10-21T23:18:28Z</time>
</trkpt>
<trkpt lat="36.91919708251953" lon="-118.59935760498047">
<ele>2916</ele>
<time>2016-10-21T23:18:37Z</time>
</trkpt>
<trkpt lat="36.91917419433594" lon="-118.59947204589844">
<ele>2916</ele>
<time>2016-10-21T23:18:47Z</time>
</trkpt>
<trkpt lat="36.91920852661133" lon="-118.59960174560547">
<ele>2916</ele>
<time>2016-10-21T23:18:54Z</time>
</trkpt>
<trkpt lat="36.919254302978516" lon="-118.5997085571289">
<ele>2910</ele>
<time>2016-10-21T23:19:02Z</time>
</trkpt>
<trkpt lat="36.91935348510742" lon="-118.59992980957031">
<ele>2919</ele>
<time>2016-10-21T23:19:10Z</time>
</trkpt>
<trkpt lat="36.91940689086914" lon="-118.60010528564453">
<ele>2915</ele>
<time>2016-10-21T23:19:20Z</time>
</trkpt>
<trkpt lat="36.91947937011719" lon="-118.60016632080078">
<ele>2917</ele>
<time>2016-10-21T23:19:29Z</time>
</trkpt>
<trkpt lat="36.919517517089844" lon="-118.60020446777344">
<ele>2910</ele>
<time>2016-10-21T23:20:01Z</time>
</trkpt>
<trkpt lat="36.91948318481445" lon="-118.60031127929688">
<ele>2908</ele>
<time>2016-10-21T23:20:15Z</time>
</trkpt>
<trkpt lat="36.91943359375" lon="-118.60042572021484">
<ele>2909</ele>
<time>2016-10-21T23:20:22Z</time>
</trkpt>
<trkpt lat="36.919376373291016" lon="-118.60053253173828">
<ele>2911</ele>
<time>2016-10-21T23:20:31Z</time>
</trkpt>
<trkpt lat="36.91929626464844" lon="-118.60061645507813">
<ele>2911</ele>
<time>2016-10-21T23:20:40Z</time>
</trkpt>
<trkpt lat="36.91922378540039" lon="-118.6007308959961">
<ele>2916</ele>
<time>2016-10-21T23:20:48Z</time>
</trkpt>
<trkpt lat="36.919151306152344" lon="-118.6008071899414">
<ele>2919</ele>
<time>2016-10-21T23:20:56Z</time>
</trkpt>
<trkpt lat="36.91908264160156" lon="-118.60089874267578">
<ele>2911</ele>
<time>2016-10-21T23:21:06Z</time>
</trkpt>
<trkpt lat="36.919002532958984" lon="-118.60095977783203">
<ele>2909</ele>
<time>2016-10-21T23:21:16Z</time>
</trkpt>
<trkpt lat="36.91898727416992" lon="-118.60108184814453">
<ele>2909</ele>
<time>2016-10-21T23:21:26Z</time>
</trkpt>
<trkpt lat="36.918983459472656" lon="-118.60122680664063">
<ele>2910</ele>
<time>2016-10-21T23:21:32Z</time>
</trkpt>
<trkpt lat="36.91901397705078" lon="-118.6013412475586">
<ele>2910</ele>
<time>2016-10-21T23:21:39Z</time>
</trkpt>
<trkpt lat="36.91904067993164" lon="-118.60147857666016">
<ele>2908</ele>
<time>2016-10-21T23:21:46Z</time>
</trkpt>
<trkpt lat="36.919036865234375" lon="-118.6015396118164">
<ele>2909</ele>
<time>2016-10-21T23:21:53Z</time>
</trkpt>
<trkpt lat="36.91901779174805" lon="-118.6016616821289">
<ele>2911</ele>
<time>2016-10-21T23:22:02Z</time>
</trkpt>
<trkpt lat="36.919044494628906" lon="-118.6017837524414">
<ele>2906</ele>
<time>2016-10-21T23:22:12Z</time>
</trkpt>
<trkpt lat="36.91910171508789" lon="-118.60188293457031">
<ele>2905</ele>
<time>2016-10-21T23:22:22Z</time>
</trkpt>
<trkpt lat="36.919158935546875" lon="-118.60198211669922">
<ele>2908</ele>
<time>2016-10-21T23:22:28Z</time>
</trkpt>
<trkpt lat="36.919212341308594" lon="-118.60208892822266">
<ele>2905</ele>
<time>2016-10-21T23:22:37Z</time>
</trkpt>
<trkpt lat="36.91923904418945" lon="-118.60221099853516">
<ele>2907</ele>
<time>2016-10-21T23:22:43Z</time>
</trkpt>
<trkpt lat="36.91923141479492" lon="-118.60234832763672">
<ele>2905</ele>
<time>2016-10-21T23:22:50Z</time>
</trkpt>
<trkpt lat="36.91923904418945" lon="-118.60245513916016">
<ele>2908</ele>
<time>2016-10-21T23:22:57Z</time>
</trkpt>
<trkpt lat="36.919246673583984" lon="-118.60258483886719">
<ele>2907</ele>
<time>2016-10-21T23:23:03Z</time>
</trkpt>
<trkpt lat="36.91923141479492" lon="-118.60269927978516">
<ele>2902</ele>
<time>2016-10-21T23:23:11Z</time>
</trkpt>
<trkpt lat="36.91920852661133" lon="-118.60282135009766">
<ele>2906</ele>
<time>2016-10-21T23:23:25Z</time>
</trkpt>
<trkpt lat="36.91920852661133" lon="-118.60294342041016">
<ele>2908</ele>
<time>2016-10-21T23:23:31Z</time>
</trkpt>
<trkpt lat="36.919219970703125" lon="-118.60306549072266">
<ele>2908</ele>
<time>2016-10-21T23:23:37Z</time>
</trkpt>
<trkpt lat="36.91926193237305" lon="-118.60317993164063">
<ele>2907</ele>
<time>2016-10-21T23:23:45Z</time>
</trkpt>
<trkpt lat="36.91926574707031" lon="-118.60330963134766">
<ele>2906</ele>
<time>2016-10-21T23:23:53Z</time>
</trkpt>
<trkpt lat="36.91923522949219" lon="-118.6034164428711">
<ele>2905</ele>
<time>2016-10-21T23:24:00Z</time>
</trkpt>
<trkpt lat="36.91920852661133" lon="-118.60352325439453">
<ele>2907</ele>
<time>2016-10-21T23:24:08Z</time>
</trkpt>
<trkpt lat="36.919246673583984" lon="-118.6036376953125">
<ele>2908</ele>
<time>2016-10-21T23:24:16Z</time>
</trkpt>
<trkpt lat="36.919288635253906" lon="-118.603759765625">
<ele>2908</ele>
<time>2016-10-21T23:24:24Z</time>
</trkpt>
<trkpt lat="36.91926956176758" lon="-118.60388946533203">
<ele>2912</ele>
<time>2016-10-21T23:24:34Z</time>
</trkpt>
<trkpt lat="36.91925811767578" lon="-118.60400390625">
<ele>2909</ele>
<time>2016-10-21T23:24:41Z</time>
</trkpt>
<trkpt lat="36.91926193237305" lon="-118.60406494140625">
<ele>2907</ele>
<time>2016-10-21T23:24:47Z</time>
</trkpt>
<trkpt lat="36.91925811767578" lon="-118.6041259765625">
<ele>2915</ele>
<time>2016-10-21T23:24:57Z</time>
</trkpt>
<trkpt lat="36.91919708251953" lon="-118.6042251586914">
<ele>2908</ele>
<time>2016-10-21T23:25:08Z</time>
</trkpt>
<trkpt lat="36.9192008972168" lon="-118.6043472290039">
<ele>2917</ele>
<time>2016-10-21T23:25:18Z</time>
</trkpt>
<trkpt lat="36.91918182373047" lon="-118.60440826416016">
<ele>2918</ele>
<time>2016-10-21T23:25:25Z</time>
</trkpt>
<trkpt lat="36.91919708251953" lon="-118.60452270507813">
<ele>2921</ele>
<time>2016-10-21T23:25:41Z</time>
</trkpt>
<trkpt lat="36.91923522949219" lon="-118.60456085205078">
<ele>2923</ele>
<time>2016-10-21T23:25:54Z</time>
</trkpt>
<trkpt lat="36.91917419433594" lon="-118.60462188720703">
<ele>2918</ele>
<time>2016-10-21T23:26:03Z</time>
</trkpt>
<trkpt lat="36.91916275024414" lon="-118.604736328125">
<ele>2919</ele>
<time>2016-10-21T23:26:15Z</time>
</trkpt>
<trkpt lat="36.91912841796875" lon="-118.60478973388672">
<ele>2919</ele>
<time>2016-10-21T23:26:24Z</time>
</trkpt>
<trkpt lat="36.91909408569336" lon="-118.60482788085938">
<ele>2916</ele>
<time>2016-10-21T23:26:33Z</time>
</trkpt>
<trkpt lat="36.9190788269043" lon="-118.60494232177734">
<ele>2914</ele>
<time>2016-10-21T23:26:45Z</time>
</trkpt>
<trkpt lat="36.919044494628906" lon="-118.60498809814453">
<ele>2916</ele>
<time>2016-10-21T23:26:53Z</time>
</trkpt>
<trkpt lat="36.919044494628906" lon="-118.6050796508789">
<ele>2919</ele>
<time>2016-10-21T23:27:04Z</time>
</trkpt>
<trkpt lat="36.919029235839844" lon="-118.60514068603516">
<ele>2917</ele>
<time>2016-10-21T23:27:14Z</time>
</trkpt>
<trkpt lat="36.91902160644531" lon="-118.60519409179688">
<ele>2917</ele>
<time>2016-10-21T23:27:22Z</time>
</trkpt>
<trkpt lat="36.91901397705078" lon="-118.60525512695313">
<ele>2918</ele>
<time>2016-10-21T23:27:29Z</time>
</trkpt>
<trkpt lat="36.91897201538086" lon="-118.60528564453125">
<ele>2923</ele>
<time>2016-10-21T23:27:37Z</time>
</trkpt>
<trkpt lat="36.9189453125" lon="-118.60533142089844">
<ele>2923</ele>
<time>2016-10-21T23:27:45Z</time>
</trkpt>
<trkpt lat="36.91889953613281" lon="-118.6053237915039">
<ele>2928</ele>
<time>2016-10-21T23:27:54Z</time>
</trkpt>
<trkpt lat="36.918827056884766" lon="-118.60527038574219">
<ele>2922</ele>
<time>2016-10-21T23:28:22Z</time>
</trkpt>
<trkpt lat="36.91877365112305" lon="-118.60530090332031">
<ele>2924</ele>
<time>2016-10-21T23:28:29Z</time>
</trkpt>
<trkpt lat="36.91872787475586" lon="-118.60531616210938">
<ele>2922</ele>
<time>2016-10-21T23:28:36Z</time>
</trkpt>
<trkpt lat="36.918701171875" lon="-118.60542297363281">
<ele>2924</ele>
<time>2016-10-21T23:28:47Z</time>
</trkpt>
<trkpt lat="36.918663024902344" lon="-118.60553741455078">
<ele>2928</ele>
<time>2016-10-21T23:28:55Z</time>
</trkpt>
<trkpt lat="36.918636322021484" lon="-118.60562133789063">
<ele>2935</ele>
<time>2016-10-21T23:29:03Z</time>
</trkpt>
<trkpt lat="36.918636322021484" lon="-118.60567474365234">
<ele>2938</ele>
<time>2016-10-21T23:29:12Z</time>
</trkpt>
<trkpt lat="36.918556213378906" lon="-118.60574340820313">
<ele>2933</ele>
<time>2016-10-21T23:29:21Z</time>
</trkpt>
<trkpt lat="36.9184455871582" lon="-118.60575103759766">
<ele>2934</ele>
<time>2016-10-21T23:29:29Z</time>
</trkpt>
<trkpt lat="36.91835021972656" lon="-118.60576629638672">
<ele>2936</ele>
<time>2016-10-21T23:29:36Z</time>
</trkpt>
<trkpt lat="36.918304443359375" lon="-118.60575866699219">
<ele>2927</ele>
<time>2016-10-21T23:29:42Z</time>
</trkpt>
<trkpt lat="36.91822814941406" lon="-118.6058349609375">
<ele>2930</ele>
<time>2016-10-21T23:29:52Z</time>
</trkpt>
<trkpt lat="36.918121337890625" lon="-118.60587310791016">
<ele>2931</ele>
<time>2016-10-21T23:30:02Z</time>
</trkpt>
<trkpt lat="36.91814422607422" lon="-118.6059341430664">
<ele>2934</ele>
<time>2016-10-21T23:30:10Z</time>
</trkpt>
<trkpt lat="36.91815948486328" lon="-118.60598754882813">
<ele>2934</ele>
<time>2016-10-21T23:30:17Z</time>
</trkpt>
<trkpt lat="36.9181022644043" lon="-118.60597229003906">
<ele>2935</ele>
<time>2016-10-21T23:30:40Z</time>
</trkpt>
<trkpt lat="36.91801452636719" lon="-118.60595703125">
<ele>2935</ele>
<time>2016-10-21T23:30:48Z</time>
</trkpt>
<trkpt lat="36.91791915893555" lon="-118.6059799194336">
<ele>2936</ele>
<time>2016-10-21T23:30:57Z</time>
</trkpt>
<trkpt lat="36.91787338256836" lon="-118.60594940185547">
<ele>2936</ele>
<time>2016-10-21T23:31:13Z</time>
</trkpt>
<trkpt lat="36.91777038574219" lon="-118.60594940185547">
<ele>2937</ele>
<time>2016-10-21T23:31:22Z</time>
</trkpt>
<trkpt lat="36.91767120361328" lon="-118.60594177246094">
<ele>2938</ele>
<time>2016-10-21T23:31:32Z</time>
</trkpt>
<trkpt lat="36.91755294799805" lon="-118.60592651367188">
<ele>2926</ele>
<time>2016-10-21T23:31:45Z</time>
</trkpt>
<trkpt lat="36.91746520996094" lon="-118.60597229003906">
<ele>2930</ele>
<time>2016-10-21T23:31:54Z</time>
</trkpt>
<trkpt lat="36.91738510131836" lon="-118.60591888427734">
<ele>2928</ele>
<time>2016-10-21T23:32:00Z</time>
</trkpt>
<trkpt lat="36.91733932495117" lon="-118.60588836669922">
<ele>2929</ele>
<time>2016-10-21T23:32:07Z</time>
</trkpt>
<trkpt lat="36.91727066040039" lon="-118.60596466064453">
<ele>2931</ele>
<time>2016-10-21T23:32:15Z</time>
</trkpt>
<trkpt lat="36.917198181152344" lon="-118.60603332519531">
<ele>2931</ele>
<time>2016-10-21T23:32:22Z</time>
</trkpt>
<trkpt lat="36.917110443115234" lon="-118.60609436035156">
<ele>2934</ele>
<time>2016-10-21T23:32:29Z</time>
</trkpt>
<trkpt lat="36.917015075683594" lon="-118.6060791015625">
<ele>2929</ele>
<time>2016-10-21T23:32:36Z</time>
</trkpt>
<trkpt lat="36.91692352294922" lon="-118.60604858398438">
<ele>2933</ele>
<time>2016-10-21T23:32:46Z</time>
</trkpt>
<trkpt lat="36.916831970214844" lon="-118.60603332519531">
<ele>2930</ele>
<time>2016-10-21T23:32:54Z</time>
</trkpt>
<trkpt lat="36.91673278808594" lon="-118.60604095458984">
<ele>2933</ele>
<time>2016-10-21T23:33:02Z</time>
</trkpt>
<trkpt lat="36.916629791259766" lon="-118.60606384277344">
<ele>2933</ele>
<time>2016-10-21T23:33:11Z</time>
</trkpt>
<trkpt lat="36.91653060913086" lon="-118.60606384277344">
<ele>2935</ele>
<time>2016-10-21T23:33:18Z</time>
</trkpt>
<trkpt lat="36.916439056396484" lon="-118.60602569580078">
<ele>2939</ele>
<time>2016-10-21T23:33:27Z</time>
</trkpt>
<trkpt lat="36.91633987426758" lon="-118.60601806640625">
<ele>2935</ele>
<time>2016-10-21T23:33:38Z</time>
</trkpt>
<trkpt lat="36.916236877441406" lon="-118.60601806640625">
<ele>2933</ele>
<time>2016-10-21T23:33:46Z</time>
</trkpt>
<trkpt lat="36.9161262512207" lon="-118.60601806640625">
<ele>2932</ele>
<time>2016-10-21T23:33:54Z</time>
</trkpt>
<trkpt lat="36.91604995727539" lon="-118.6059799194336">
<ele>2932</ele>
<time>2016-10-21T23:34:02Z</time>
</trkpt>
<trkpt lat="36.915985107421875" lon="-118.60589599609375">
<ele>2933</ele>
<time>2016-10-21T23:34:10Z</time>
</trkpt>
<trkpt lat="36.9158821105957" lon="-118.60592651367188">
<ele>2929</ele>
<time>2016-10-21T23:34:16Z</time>
</trkpt>
<trkpt lat="36.91578674316406" lon="-118.60595703125">
<ele>2932</ele>
<time>2016-10-21T23:34:22Z</time>
</trkpt>
<trkpt lat="36.91568374633789" lon="-118.6059341430664">
<ele>2929</ele>
<time>2016-10-21T23:34:33Z</time>
</trkpt>
<trkpt lat="36.91558837890625" lon="-118.60594177246094">
<ele>2923</ele>
<time>2016-10-21T23:34:42Z</time>
</trkpt>
<trkpt lat="36.915504455566406" lon="-118.60599517822266">
<ele>2926</ele>
<time>2016-10-21T23:34:48Z</time>
</trkpt>
<trkpt lat="36.91544723510742" lon="-118.60599517822266">
<ele>2924</ele>
<time>2016-10-21T23:34:54Z</time>
</trkpt>
<trkpt lat="36.915409088134766" lon="-118.60594940185547">
<ele>2923</ele>
<time>2016-10-21T23:35:02Z</time>
</trkpt>
<trkpt lat="36.91531753540039" lon="-118.60591888427734">
<ele>2926</ele>
<time>2016-10-21T23:35:10Z</time>
</trkpt>
<trkpt lat="36.91526794433594" lon="-118.60591888427734">
<ele>2926</ele>
<time>2016-10-21T23:35:16Z</time>
</trkpt>
<trkpt lat="36.915218353271484" lon="-118.60590362548828">
<ele>2923</ele>
<time>2016-10-21T23:35:23Z</time>
</trkpt>
<trkpt lat="36.91511154174805" lon="-118.6058578491211">
<ele>2923</ele>
<time>2016-10-21T23:35:32Z</time>
</trkpt>
<trkpt lat="36.915000915527344" lon="-118.60582733154297">
<ele>2919</ele>
<time>2016-10-21T23:35:39Z</time>
</trkpt>
<trkpt lat="36.91489791870117" lon="-118.60577392578125">
<ele>2920</ele>
<time>2016-10-21T23:35:45Z</time>
</trkpt>
<trkpt lat="36.914794921875" lon="-118.60572814941406">
<ele>2916</ele>
<time>2016-10-21T23:35:52Z</time>
</trkpt>
<trkpt lat="36.91468811035156" lon="-118.6057357788086">
<ele>2915</ele>
<time>2016-10-21T23:36:04Z</time>
</trkpt>
<trkpt lat="36.91465377807617" lon="-118.6056900024414">
<ele>2911</ele>
<time>2016-10-21T23:36:10Z</time>
</trkpt>
<trkpt lat="36.91461181640625" lon="-118.60565948486328">
<ele>2913</ele>
<time>2016-10-21T23:36:16Z</time>
</trkpt>
<trkpt lat="36.91452407836914" lon="-118.60557556152344">
<ele>2913</ele>
<time>2016-10-21T23:36:23Z</time>
</trkpt>
<trkpt lat="36.914493560791016" lon="-118.60552978515625">
<ele>2916</ele>
<time>2016-10-21T23:36:35Z</time>
</trkpt>
<trkpt lat="36.914459228515625" lon="-118.6054916381836">
<ele>2910</ele>
<time>2016-10-21T23:36:54Z</time>
</trkpt>
<trkpt lat="36.91436004638672" lon="-118.6054458618164">
<ele>2913</ele>
<time>2016-10-21T23:37:00Z</time>
</trkpt>
<trkpt lat="36.91425704956055" lon="-118.60543823242188">
<ele>2915</ele>
<time>2016-10-21T23:37:11Z</time>
</trkpt>
<trkpt lat="36.914207458496094" lon="-118.60542297363281">
<ele>2915</ele>
<time>2016-10-21T23:37:18Z</time>
</trkpt>
<trkpt lat="36.914188385009766" lon="-118.60549926757813">
<ele>2912</ele>
<time>2016-10-21T23:37:30Z</time>
</trkpt>
<trkpt lat="36.91423797607422" lon="-118.60555267333984">
<ele>2909</ele>
<time>2016-10-21T23:37:41Z</time>
</trkpt>
<trkpt lat="36.91415023803711" lon="-118.60558319091797">
<ele>2907</ele>
<time>2016-10-21T23:37:53Z</time>
</trkpt>
<trkpt lat="36.914241790771484" lon="-118.60568237304688">
<ele>2907</ele>
<time>2016-10-21T23:38:01Z</time>
</trkpt>
<trkpt lat="36.9143180847168" lon="-118.60576629638672">
<ele>2897</ele>
<time>2016-10-21T23:38:12Z</time>
</trkpt>
<trkpt lat="36.914344787597656" lon="-118.6058120727539">
<ele>2899</ele>
<time>2016-10-21T23:38:22Z</time>
</trkpt>
<trkpt lat="36.91437530517578" lon="-118.6058578491211">
<ele>2896</ele>
<time>2016-10-21T23:38:34Z</time>
</trkpt>
<trkpt lat="36.914329528808594" lon="-118.60594940185547">
<ele>2896</ele>
<time>2016-10-21T23:38:44Z</time>
</trkpt>
<trkpt lat="36.914329528808594" lon="-118.60601806640625">
<ele>2897</ele>
<time>2016-10-21T23:38:51Z</time>
</trkpt>
<trkpt lat="36.91429901123047" lon="-118.6061019897461">
<ele>2894</ele>
<time>2016-10-21T23:38:57Z</time>
</trkpt>
<trkpt lat="36.91424560546875" lon="-118.60621643066406">
<ele>2890</ele>
<time>2016-10-21T23:39:04Z</time>
</trkpt>
<trkpt lat="36.914268493652344" lon="-118.6063461303711">
<ele>2891</ele>
<time>2016-10-21T23:39:12Z</time>
</trkpt>
<trkpt lat="36.91429901123047" lon="-118.60639953613281">
<ele>2893</ele>
<time>2016-10-21T23:39:18Z</time>
</trkpt>
<trkpt lat="36.91435241699219" lon="-118.60650634765625">
<ele>2889</ele>
<time>2016-10-21T23:39:29Z</time>
</trkpt>
<trkpt lat="36.914398193359375" lon="-118.60662078857422">
<ele>2881</ele>
<time>2016-10-21T23:39:37Z</time>
</trkpt>
<trkpt lat="36.91443634033203" lon="-118.60672760009766">
<ele>2881</ele>
<time>2016-10-21T23:39:45Z</time>
</trkpt>
<trkpt lat="36.914512634277344" lon="-118.60678100585938">
<ele>2882</ele>
<time>2016-10-21T23:39:52Z</time>
</trkpt>
<trkpt lat="36.91445541381836" lon="-118.60684967041016">
<ele>2875</ele>
<time>2016-10-21T23:40:04Z</time>
</trkpt>
<trkpt lat="36.9143180847168" lon="-118.60688781738281">
<ele>2865</ele>
<time>2016-10-21T23:40:14Z</time>
</trkpt>
<trkpt lat="36.91422653198242" lon="-118.60694122314453">
<ele>2866</ele>
<time>2016-10-21T23:40:22Z</time>
</trkpt>
<trkpt lat="36.91412353515625" lon="-118.6069564819336">
<ele>2868</ele>
<time>2016-10-21T23:40:30Z</time>
</trkpt>
<trkpt lat="36.91408157348633" lon="-118.60697937011719">
<ele>2867</ele>
<time>2016-10-21T23:40:36Z</time>
</trkpt>
<trkpt lat="36.914039611816406" lon="-118.60702514648438">
<ele>2865</ele>
<time>2016-10-21T23:40:44Z</time>
</trkpt>
<trkpt lat="36.91396713256836" lon="-118.60711669921875">
<ele>2863</ele>
<time>2016-10-21T23:40:53Z</time>
</trkpt>
<trkpt lat="36.91387939453125" lon="-118.60719299316406">
<ele>2869</ele>
<time>2016-10-21T23:41:01Z</time>
</trkpt>
<trkpt lat="36.9138298034668" lon="-118.60720825195313">
<ele>2869</ele>
<time>2016-10-21T23:41:07Z</time>
</trkpt>
<trkpt lat="36.91377639770508" lon="-118.60719299316406">
<ele>2866</ele>
<time>2016-10-21T23:41:13Z</time>
</trkpt>
<trkpt lat="36.91368865966797" lon="-118.60714721679688">
<ele>2867</ele>
<time>2016-10-21T23:41:20Z</time>
</trkpt>
<trkpt lat="36.91358184814453" lon="-118.60718536376953">
<ele>2869</ele>
<time>2016-10-21T23:41:26Z</time>
</trkpt>
<trkpt lat="36.913475036621094" lon="-118.60722351074219">
<ele>2873</ele>
<time>2016-10-21T23:41:32Z</time>
</trkpt>
<trkpt lat="36.91336441040039" lon="-118.60725402832031">
<ele>2871</ele>
<time>2016-10-21T23:41:40Z</time>
</trkpt>
<trkpt lat="36.913333892822266" lon="-118.6072998046875">
<ele>2870</ele>
<time>2016-10-21T23:41:47Z</time>
</trkpt>
<trkpt lat="36.91329574584961" lon="-118.60734558105469">
<ele>2873</ele>
<time>2016-10-21T23:41:54Z</time>
</trkpt>
<trkpt lat="36.9132080078125" lon="-118.60738372802734">
<ele>2866</ele>
<time>2016-10-21T23:42:00Z</time>
</trkpt>
<trkpt lat="36.913116455078125" lon="-118.607421875">
<ele>2868</ele>
<time>2016-10-21T23:42:11Z</time>
</trkpt>
<trkpt lat="36.913021087646484" lon="-118.60743713378906">
<ele>2865</ele>
<time>2016-10-21T23:42:19Z</time>
</trkpt>
<trkpt lat="36.912925720214844" lon="-118.60747528076172">
<ele>2871</ele>
<time>2016-10-21T23:42:27Z</time>
</trkpt>
<trkpt lat="36.91282272338867" lon="-118.60749816894531">
<ele>2871</ele>
<time>2016-10-21T23:42:35Z</time>
</trkpt>
<trkpt lat="36.91277313232422" lon="-118.60750579833984">
<ele>2873</ele>
<time>2016-10-21T23:42:42Z</time>
</trkpt>
<trkpt lat="36.912681579589844" lon="-118.60746765136719">
<ele>2872</ele>
<time>2016-10-21T23:42:55Z</time>
</trkpt>
<trkpt lat="36.912620544433594" lon="-118.60745239257813">
<ele>2872</ele>
<time>2016-10-21T23:43:01Z</time>
</trkpt>
<trkpt lat="36.91251754760742" lon="-118.60742950439453">
<ele>2873</ele>
<time>2016-10-21T23:43:11Z</time>
</trkpt>
<trkpt lat="36.912418365478516" lon="-118.607421875">
<ele>2870</ele>
<time>2016-10-21T23:43:19Z</time>
</trkpt>
<trkpt lat="36.912315368652344" lon="-118.607421875">
<ele>2869</ele>
<time>2016-10-21T23:43:27Z</time>
</trkpt>
<trkpt lat="36.91220474243164" lon="-118.60743713378906">
<ele>2863</ele>
<time>2016-10-21T23:43:34Z</time>
</trkpt>
<trkpt lat="36.9120979309082" lon="-118.60740661621094">
<ele>2862</ele>
<time>2016-10-21T23:43:42Z</time>
</trkpt>
<trkpt lat="36.91200256347656" lon="-118.60736083984375">
<ele>2861</ele>
<time>2016-10-21T23:43:48Z</time>
</trkpt>
<trkpt lat="36.91191482543945" lon="-118.60738372802734">
<ele>2861</ele>
<time>2016-10-21T23:43:57Z</time>
</trkpt>
<trkpt lat="36.911800384521484" lon="-118.60741424560547">
<ele>2862</ele>
<time>2016-10-21T23:44:05Z</time>
</trkpt>
<trkpt lat="36.91170120239258" lon="-118.60745239257813">
<ele>2866</ele>
<time>2016-10-21T23:44:11Z</time>
</trkpt>
<trkpt lat="36.911617279052734" lon="-118.60751342773438">
<ele>2862</ele>
<time>2016-10-21T23:44:17Z</time>
</trkpt>
<trkpt lat="36.91154861450195" lon="-118.60758972167969">
<ele>2857</ele>
<time>2016-10-21T23:44:26Z</time>
</trkpt>
<trkpt lat="36.9115104675293" lon="-118.6076889038086">
<ele>2856</ele>
<time>2016-10-21T23:44:35Z</time>
</trkpt>
<trkpt lat="36.91145324707031" lon="-118.60779571533203">
<ele>2860</ele>
<time>2016-10-21T23:44:46Z</time>
</trkpt>
<trkpt lat="36.91138458251953" lon="-118.6078872680664">
<ele>2861</ele>
<time>2016-10-21T23:44:53Z</time>
</trkpt>
<trkpt lat="36.911285400390625" lon="-118.60797119140625">
<ele>2863</ele>
<time>2016-10-21T23:45:00Z</time>
</trkpt>
<trkpt lat="36.911190032958984" lon="-118.60802459716797">
<ele>2863</ele>
<time>2016-10-21T23:45:08Z</time>
</trkpt>
<trkpt lat="36.91110610961914" lon="-118.60808563232422">
<ele>2865</ele>
<time>2016-10-21T23:45:16Z</time>
</trkpt>
<trkpt lat="36.911006927490234" lon="-118.6081314086914">
<ele>2865</ele>
<time>2016-10-21T23:45:22Z</time>
</trkpt>
<trkpt lat="36.91095733642578" lon="-118.60816192626953">
<ele>2866</ele>
<time>2016-10-21T23:45:29Z</time>
</trkpt>
<trkpt lat="36.9108772277832" lon="-118.60822296142578">
<ele>2867</ele>
<time>2016-10-21T23:45:37Z</time>
</trkpt>
<trkpt lat="36.91082763671875" lon="-118.60834503173828">
<ele>2864</ele>
<time>2016-10-21T23:45:44Z</time>
</trkpt>
<trkpt lat="36.910770416259766" lon="-118.60845184326172">
<ele>2869</ele>
<time>2016-10-21T23:45:50Z</time>
</trkpt>
<trkpt lat="36.91071319580078" lon="-118.60852813720703">
<ele>2867</ele>
<time>2016-10-21T23:45:57Z</time>
</trkpt>
<trkpt lat="36.910640716552734" lon="-118.6086196899414">
<ele>2873</ele>
<time>2016-10-21T23:46:05Z</time>
</trkpt>
<trkpt lat="36.91057205200195" lon="-118.60871124267578">
<ele>2870</ele>
<time>2016-10-21T23:46:13Z</time>
</trkpt>
<trkpt lat="36.910484313964844" lon="-118.6087646484375">
<ele>2867</ele>
<time>2016-10-21T23:46:20Z</time>
</trkpt>
<trkpt lat="36.91047286987305" lon="-118.60883331298828">
<ele>2865</ele>
<time>2016-10-21T23:46:26Z</time>
</trkpt>
<trkpt lat="36.91041564941406" lon="-118.60892486572266">
<ele>2860</ele>
<time>2016-10-21T23:46:35Z</time>
</trkpt>
<trkpt lat="36.910377502441406" lon="-118.60895538330078">
<ele>2862</ele>
<time>2016-10-21T23:46:44Z</time>
</trkpt>
<trkpt lat="36.910308837890625" lon="-118.60905456542969">
<ele>2858</ele>
<time>2016-10-21T23:46:53Z</time>
</trkpt>
<trkpt lat="36.910247802734375" lon="-118.609130859375">
<ele>2860</ele>
<time>2016-10-21T23:47:04Z</time>
</trkpt>
<trkpt lat="36.910160064697266" lon="-118.60917663574219">
<ele>2865</ele>
<time>2016-10-21T23:47:12Z</time>
</trkpt>
<trkpt lat="36.91010665893555" lon="-118.60919952392578">
<ele>2867</ele>
<time>2016-10-21T23:47:18Z</time>
</trkpt>
<trkpt lat="36.910011291503906" lon="-118.60922241210938">
<ele>2866</ele>
<time>2016-10-21T23:47:26Z</time>
</trkpt>
<trkpt lat="36.90990447998047" lon="-118.60926818847656">
<ele>2866</ele>
<time>2016-10-21T23:47:34Z</time>
</trkpt>
<trkpt lat="36.9098014831543" lon="-118.60929870605469">
<ele>2864</ele>
<time>2016-10-21T23:47:41Z</time>
</trkpt>
<trkpt lat="36.90976333618164" lon="-118.60941314697266">
<ele>2859</ele>
<time>2016-10-21T23:47:49Z</time>
</trkpt>
<trkpt lat="36.909671783447266" lon="-118.60948944091797">
<ele>2863</ele>
<time>2016-10-21T23:47:57Z</time>
</trkpt>
<trkpt lat="36.90958023071289" lon="-118.60955047607422">
<ele>2859</ele>
<time>2016-10-21T23:48:04Z</time>
</trkpt>
<trkpt lat="36.90951156616211" lon="-118.60962677001953">
<ele>2862</ele>
<time>2016-10-21T23:48:14Z</time>
</trkpt>
<trkpt lat="36.909423828125" lon="-118.60965728759766">
<ele>2862</ele>
<time>2016-10-21T23:48:26Z</time>
</trkpt>
<trkpt lat="36.909324645996094" lon="-118.60971069335938">
<ele>2871</ele>
<time>2016-10-21T23:48:36Z</time>
</trkpt>
<trkpt lat="36.909217834472656" lon="-118.60973358154297">
<ele>2872</ele>
<time>2016-10-21T23:48:50Z</time>
</trkpt>
<trkpt lat="36.909149169921875" lon="-118.60977935791016">
<ele>2865</ele>
<time>2016-10-21T23:48:57Z</time>
</trkpt>
<trkpt lat="36.90910720825195" lon="-118.60980987548828">
<ele>2869</ele>
<time>2016-10-21T23:49:03Z</time>
</trkpt>
<trkpt lat="36.909019470214844" lon="-118.60984802246094">
<ele>2872</ele>
<time>2016-10-21T23:49:10Z</time>
</trkpt>
<trkpt lat="36.90892028808594" lon="-118.60987091064453">
<ele>2873</ele>
<time>2016-10-21T23:49:24Z</time>
</trkpt>
<trkpt lat="36.90888214111328" lon="-118.60989379882813">
<ele>2870</ele>
<time>2016-10-21T23:49:30Z</time>
</trkpt>
<trkpt lat="36.90884017944336" lon="-118.60993194580078">
<ele>2869</ele>
<time>2016-10-21T23:49:38Z</time>
</trkpt>
<trkpt lat="36.908748626708984" lon="-118.6099624633789">
<ele>2875</ele>
<time>2016-10-21T23:49:51Z</time>
</trkpt>
<trkpt lat="36.908668518066406" lon="-118.60993194580078">
<ele>2876</ele>
<time>2016-10-21T23:49:57Z</time>
</trkpt>
<trkpt lat="36.908573150634766" lon="-118.60990142822266">
<ele>2875</ele>
<time>2016-10-21T23:50:06Z</time>
</trkpt>
<trkpt lat="36.90851593017578" lon="-118.60990142822266">
<ele>2876</ele>
<time>2016-10-21T23:50:13Z</time>
</trkpt>
<trkpt lat="36.90839767456055" lon="-118.60991668701172">
<ele>2877</ele>
<time>2016-10-21T23:50:19Z</time>
</trkpt>
<trkpt lat="36.90828323364258" lon="-118.60995483398438">
<ele>2876</ele>
<time>2016-10-21T23:50:26Z</time>
</trkpt>
<trkpt lat="36.90818405151367" lon="-118.6099853515625">
<ele>2879</ele>
<time>2016-10-21T23:50:37Z</time>
</trkpt>
<trkpt lat="36.908138275146484" lon="-118.6100082397461">
<ele>2885</ele>
<time>2016-10-21T23:50:44Z</time>
</trkpt>
<trkpt lat="36.90803909301758" lon="-118.61001586914063">
<ele>2880</ele>
<time>2016-10-21T23:50:52Z</time>
</trkpt>
<trkpt lat="36.907936096191406" lon="-118.61009979248047">
<ele>2879</ele>
<time>2016-10-21T23:51:01Z</time>
</trkpt>
<trkpt lat="36.907875061035156" lon="-118.61018371582031">
<ele>2880</ele>
<time>2016-10-21T23:51:10Z</time>
</trkpt>
<trkpt lat="36.90781021118164" lon="-118.61027526855469">
<ele>2882</ele>
<time>2016-10-21T23:51:19Z</time>
</trkpt>
<trkpt lat="36.90779113769531" lon="-118.61039733886719">
<ele>2882</ele>
<time>2016-10-21T23:51:29Z</time>
</trkpt>
<trkpt lat="36.90775680541992" lon="-118.61044311523438">
<ele>2882</ele>
<time>2016-10-21T23:51:36Z</time>
</trkpt>
<trkpt lat="36.90766143798828" lon="-118.61052703857422">
<ele>2882</ele>
<time>2016-10-21T23:51:43Z</time>
</trkpt>
<trkpt lat="36.90755081176758" lon="-118.61055755615234">
<ele>2885</ele>
<time>2016-10-21T23:51:49Z</time>
</trkpt>
<trkpt lat="36.90747833251953" lon="-118.61062622070313">
<ele>2879</ele>
<time>2016-10-21T23:51:57Z</time>
</trkpt>
<trkpt lat="36.90742874145508" lon="-118.61063385009766">
<ele>2879</ele>
<time>2016-10-21T23:52:03Z</time>
</trkpt>
<trkpt lat="36.90742492675781" lon="-118.6106948852539">
<ele>2878</ele>
<time>2016-10-21T23:52:09Z</time>
</trkpt>
<trkpt lat="36.907440185546875" lon="-118.61074829101563">
<ele>2882</ele>
<time>2016-10-21T23:52:15Z</time>
</trkpt>
<trkpt lat="36.9073371887207" lon="-118.61080169677734">
<ele>2880</ele>
<time>2016-10-21T23:52:22Z</time>
</trkpt>
<trkpt lat="36.90725326538086" lon="-118.61088562011719">
<ele>2880</ele>
<time>2016-10-21T23:52:29Z</time>
</trkpt>
<trkpt lat="36.90715789794922" lon="-118.61089324951172">
<ele>2881</ele>
<time>2016-10-21T23:52:40Z</time>
</trkpt>
<trkpt lat="36.90705108642578" lon="-118.61090087890625">
<ele>2875</ele>
<time>2016-10-21T23:52:51Z</time>
</trkpt>
<trkpt lat="36.90699005126953" lon="-118.61090087890625">
<ele>2877</ele>
<time>2016-10-21T23:52:57Z</time>
</trkpt>
<trkpt lat="36.906944274902344" lon="-118.61090850830078">
<ele>2874</ele>
<time>2016-10-21T23:53:03Z</time>
</trkpt>
<trkpt lat="36.90684509277344" lon="-118.61093139648438">
<ele>2873</ele>
<time>2016-10-21T23:53:11Z</time>
</trkpt>
<trkpt lat="36.906761169433594" lon="-118.61099243164063">
<ele>2870</ele>
<time>2016-10-21T23:53:20Z</time>
</trkpt>
<trkpt lat="36.906681060791016" lon="-118.61105346679688">
<ele>2868</ele>
<time>2016-10-21T23:53:27Z</time>
</trkpt>
<trkpt lat="36.906612396240234" lon="-118.61116027832031">
<ele>2866</ele>
<time>2016-10-21T23:53:33Z</time>
</trkpt>
<trkpt lat="36.9065055847168" lon="-118.61116790771484">
<ele>2866</ele>
<time>2016-10-21T23:53:41Z</time>
</trkpt>
<trkpt lat="36.906410217285156" lon="-118.61119842529297">
<ele>2868</ele>
<time>2016-10-21T23:53:48Z</time>
</trkpt>
<trkpt lat="36.90632247924805" lon="-118.61124420166016">
<ele>2867</ele>
<time>2016-10-21T23:53:55Z</time>
</trkpt>
<trkpt lat="36.90625" lon="-118.61127471923828">
<ele>2866</ele>
<time>2016-10-21T23:54:02Z</time>
</trkpt>
<trkpt lat="36.90619659423828" lon="-118.61126708984375">
<ele>2864</ele>
<time>2016-10-21T23:54:08Z</time>
</trkpt>
<trkpt lat="36.906150817871094" lon="-118.61123657226563">
<ele>2865</ele>
<time>2016-10-21T23:54:14Z</time>
</trkpt>
<trkpt lat="36.90605163574219" lon="-118.61121368408203">
<ele>2867</ele>
<time>2016-10-21T23:54:22Z</time>
</trkpt>
<trkpt lat="36.90596008300781" lon="-118.61123657226563">
<ele>2872</ele>
<time>2016-10-21T23:54:28Z</time>
</trkpt>
<trkpt lat="36.905853271484375" lon="-118.61125946044922">
<ele>2879</ele>
<time>2016-10-21T23:54:35Z</time>
</trkpt>
<trkpt lat="36.90581130981445" lon="-118.61127471923828">
<ele>2877</ele>
<time>2016-10-21T23:54:44Z</time>
</trkpt>
<trkpt lat="36.905765533447266" lon="-118.6113052368164">
<ele>2876</ele>
<time>2016-10-21T23:54:51Z</time>
</trkpt>
<trkpt lat="36.90568923950195" lon="-118.61129760742188">
<ele>2876</ele>
<time>2016-10-21T23:54:57Z</time>
</trkpt>
<trkpt lat="36.905582427978516" lon="-118.61131286621094">
<ele>2873</ele>
<time>2016-10-21T23:55:04Z</time>
</trkpt>
<trkpt lat="36.90548324584961" lon="-118.6113510131836">
<ele>2868</ele>
<time>2016-10-21T23:55:13Z</time>
</trkpt>
<trkpt lat="36.90542984008789" lon="-118.61135864257813">
<ele>2867</ele>
<time>2016-10-21T23:55:19Z</time>
</trkpt>
<trkpt lat="36.905311584472656" lon="-118.61136627197266">
<ele>2866</ele>
<time>2016-10-21T23:55:25Z</time>
</trkpt>
<trkpt lat="36.90522384643555" lon="-118.61141204833984">
<ele>2864</ele>
<time>2016-10-21T23:55:31Z</time>
</trkpt>
<trkpt lat="36.90517807006836" lon="-118.61141967773438">
<ele>2863</ele>
<time>2016-10-21T23:55:38Z</time>
</trkpt>
<trkpt lat="36.905113220214844" lon="-118.61138916015625">
<ele>2873</ele>
<time>2016-10-21T23:56:12Z</time>
</trkpt>
<trkpt lat="36.90506362915039" lon="-118.61136627197266">
<ele>2874</ele>
<time>2016-10-21T23:56:26Z</time>
</trkpt>
<trkpt lat="36.9048957824707" lon="-118.61137390136719">
<ele>2873</ele>
<time>2016-10-21T23:56:34Z</time>
</trkpt>
<trkpt lat="36.90480041503906" lon="-118.61140441894531">
<ele>2869</ele>
<time>2016-10-21T23:56:40Z</time>
</trkpt>
<trkpt lat="36.90469741821289" lon="-118.61137390136719">
<ele>2868</ele>
<time>2016-10-21T23:56:48Z</time>
</trkpt>
<trkpt lat="36.90460205078125" lon="-118.6113052368164">
<ele>2869</ele>
<time>2016-10-21T23:56:57Z</time>
</trkpt>
<trkpt lat="36.90450668334961" lon="-118.61135864257813">
<ele>2865</ele>
<time>2016-10-21T23:57:08Z</time>
</trkpt>
<trkpt lat="36.90440368652344" lon="-118.61134338378906">
<ele>2865</ele>
<time>2016-10-21T23:57:15Z</time>
</trkpt>
<trkpt lat="36.90430450439453" lon="-118.61136627197266">
<ele>2866</ele>
<time>2016-10-21T23:57:22Z</time>
</trkpt>
<trkpt lat="36.904197692871094" lon="-118.61138153076172">
<ele>2864</ele>
<time>2016-10-21T23:57:30Z</time>
</trkpt>
<trkpt lat="36.90410232543945" lon="-118.61138153076172">
<ele>2865</ele>
<time>2016-10-21T23:57:38Z</time>
</trkpt>
<trkpt lat="36.904056549072266" lon="-118.61138153076172">
<ele>2868</ele>
<time>2016-10-21T23:57:44Z</time>
</trkpt>
<trkpt lat="36.90400695800781" lon="-118.61137390136719">
<ele>2872</ele>
<time>2016-10-21T23:57:51Z</time>
</trkpt>
<trkpt lat="36.903934478759766" lon="-118.61135864257813">
<ele>2875</ele>
<time>2016-10-21T23:57:57Z</time>
</trkpt>
<trkpt lat="36.90383529663086" lon="-118.6113510131836">
<ele>2872</ele>
<time>2016-10-21T23:58:08Z</time>
</trkpt>
<trkpt lat="36.90383529663086" lon="-118.61140441894531">
<ele>2874</ele>
<time>2016-10-21T23:58:19Z</time>
</trkpt>
<trkpt lat="36.90378952026367" lon="-118.6114273071289">
<ele>2876</ele>
<time>2016-10-21T23:58:27Z</time>
</trkpt>
<trkpt lat="36.90374755859375" lon="-118.61144256591797">
<ele>2875</ele>
<time>2016-10-21T23:58:35Z</time>
</trkpt>
<trkpt lat="36.9036979675293" lon="-118.61144256591797">
<ele>2875</ele>
<time>2016-10-21T23:58:41Z</time>
</trkpt>
<trkpt lat="36.903594970703125" lon="-118.6114501953125">
<ele>2878</ele>
<time>2016-10-21T23:58:48Z</time>
</trkpt>
<trkpt lat="36.90350341796875" lon="-118.61148071289063">
<ele>2875</ele>
<time>2016-10-21T23:58:56Z</time>
</trkpt>
<trkpt lat="36.903404235839844" lon="-118.61155700683594">
<ele>2874</ele>
<time>2016-10-21T23:59:03Z</time>
</trkpt>
<trkpt lat="36.90331268310547" lon="-118.61162567138672">
<ele>2868</ele>
<time>2016-10-21T23:59:11Z</time>
</trkpt>
<trkpt lat="36.903263092041016" lon="-118.6115951538086">
<ele>2869</ele>
<time>2016-10-21T23:59:19Z</time>
</trkpt>
<trkpt lat="36.90316390991211" lon="-118.6115951538086">
<ele>2873</ele>
<time>2016-10-21T23:59:29Z</time>
</trkpt>
<trkpt lat="36.90305709838867" lon="-118.61160278320313">
<ele>2873</ele>
<time>2016-10-21T23:59:40Z</time>
</trkpt>
<trkpt lat="36.9029655456543" lon="-118.61164093017578">
<ele>2875</ele>
<time>2016-10-21T23:59:49Z</time>
</trkpt>
<trkpt lat="36.90286636352539" lon="-118.6116714477539">
<ele>2881</ele>
<time>2016-10-22T00:00:01Z</time>
</trkpt>
<trkpt lat="36.902774810791016" lon="-118.6117172241211">
<ele>2878</ele>
<time>2016-10-22T00:00:10Z</time>
</trkpt>
<trkpt lat="36.902679443359375" lon="-118.61176300048828">
<ele>2885</ele>
<time>2016-10-22T00:00:18Z</time>
</trkpt>
<trkpt lat="36.902591705322266" lon="-118.61183166503906">
<ele>2879</ele>
<time>2016-10-22T00:00:26Z</time>
</trkpt>
<trkpt lat="36.90254211425781" lon="-118.6118392944336">
<ele>2876</ele>
<time>2016-10-22T00:00:32Z</time>
</trkpt>
<trkpt lat="36.902523040771484" lon="-118.6117935180664">
<ele>2879</ele>
<time>2016-10-22T00:00:43Z</time>
</trkpt>
<trkpt lat="36.902469635009766" lon="-118.61177825927734">
<ele>2875</ele>
<time>2016-10-22T00:00:52Z</time>
</trkpt>
<trkpt lat="36.902339935302734" lon="-118.61182403564453">
<ele>2870</ele>
<time>2016-10-22T00:01:01Z</time>
</trkpt>
<trkpt lat="36.90226364135742" lon="-118.61177062988281">
<ele>2871</ele>
<time>2016-10-22T00:01:11Z</time>
</trkpt>
<trkpt lat="36.90222930908203" lon="-118.61173248291016">
<ele>2867</ele>
<time>2016-10-22T00:01:19Z</time>
</trkpt>
<trkpt lat="36.90217590332031" lon="-118.6116943359375">
<ele>2869</ele>
<time>2016-10-22T00:01:25Z</time>
</trkpt>
<trkpt lat="36.902095794677734" lon="-118.61164855957031">
<ele>2870</ele>
<time>2016-10-22T00:01:38Z</time>
</trkpt>
<trkpt lat="36.90208053588867" lon="-118.6115951538086">
<ele>2874</ele>
<time>2016-10-22T00:01:50Z</time>
</trkpt>
<trkpt lat="36.902122497558594" lon="-118.61150360107422">
<ele>2876</ele>
<time>2016-10-22T00:02:04Z</time>
</trkpt>
<trkpt lat="36.902130126953125" lon="-118.61139678955078">
<ele>2878</ele>
<time>2016-10-22T00:02:12Z</time>
</trkpt>
<trkpt lat="36.90211868286133" lon="-118.61127471923828">
<ele>2878</ele>
<time>2016-10-22T00:02:21Z</time>
</trkpt>
<trkpt lat="36.90214157104492" lon="-118.61121368408203">
<ele>2877</ele>
<time>2016-10-22T00:02:28Z</time>
</trkpt>
<trkpt lat="36.90217590332031" lon="-118.61117553710938">
<ele>2879</ele>
<time>2016-10-22T00:02:38Z</time>
</trkpt>
<trkpt lat="36.90221405029297" lon="-118.61114501953125">
<ele>2878</ele>
<time>2016-10-22T00:02:47Z</time>
</trkpt>
<trkpt lat="36.90226745605469" lon="-118.61117553710938">
<ele>2881</ele>
<time>2016-10-22T00:03:13Z</time>
</trkpt>
<trkpt lat="36.902225494384766" lon="-118.61119842529297">
<ele>2880</ele>
<time>2016-10-22T00:03:35Z</time>
</trkpt>
<trkpt lat="36.90213394165039" lon="-118.61119079589844">
<ele>2876</ele>
<time>2016-10-22T00:04:28Z</time>
</trkpt>
<trkpt lat="36.90205764770508" lon="-118.61112213134766">
<ele>2872</ele>
<time>2016-10-22T00:04:36Z</time>
</trkpt>
<trkpt lat="36.90201950073242" lon="-118.611083984375">
<ele>2877</ele>
<time>2016-10-22T00:04:44Z</time>
</trkpt>
<trkpt lat="36.90190887451172" lon="-118.61107635498047">
<ele>2882</ele>
<time>2016-10-22T00:04:52Z</time>
</trkpt>
<trkpt lat="36.90182113647461" lon="-118.61107635498047">
<ele>2883</ele>
<time>2016-10-22T00:05:00Z</time>
</trkpt>
<trkpt lat="36.901729583740234" lon="-118.61111450195313">
<ele>2886</ele>
<time>2016-10-22T00:05:10Z</time>
</trkpt>
<trkpt lat="36.901634216308594" lon="-118.61112213134766">
<ele>2889</ele>
<time>2016-10-22T00:05:20Z</time>
</trkpt>
<trkpt lat="36.90154266357422" lon="-118.61117553710938">
<ele>2887</ele>
<time>2016-10-22T00:05:29Z</time>
</trkpt>
<trkpt lat="36.90143966674805" lon="-118.61115264892578">
<ele>2889</ele>
<time>2016-10-22T00:05:38Z</time>
</trkpt>
<trkpt lat="36.901336669921875" lon="-118.6112060546875">
<ele>2893</ele>
<time>2016-10-22T00:05:47Z</time>
</trkpt>
<trkpt lat="36.90127944946289" lon="-118.61112976074219">
<ele>2887</ele>
<time>2016-10-22T00:05:57Z</time>
</trkpt>
<trkpt lat="36.901187896728516" lon="-118.61104583740234">
<ele>2889</ele>
<time>2016-10-22T00:06:20Z</time>
</trkpt>
<trkpt lat="36.90109634399414" lon="-118.61100006103516">
<ele>2889</ele>
<time>2016-10-22T00:06:29Z</time>
</trkpt>
<trkpt lat="36.9010009765625" lon="-118.6109619140625">
<ele>2893</ele>
<time>2016-10-22T00:06:40Z</time>
</trkpt>
<trkpt lat="36.900901794433594" lon="-118.61094665527344">
<ele>2894</ele>
<time>2016-10-22T00:06:47Z</time>
</trkpt>
<trkpt lat="36.900821685791016" lon="-118.61094665527344">
<ele>2893</ele>
<time>2016-10-22T00:06:56Z</time>
</trkpt>
<trkpt lat="36.90076446533203" lon="-118.61097717285156">
<ele>2897</ele>
<time>2016-10-22T00:07:02Z</time>
</trkpt>
<trkpt lat="36.90066146850586" lon="-118.61096954345703">
<ele>2895</ele>
<time>2016-10-22T00:07:11Z</time>
</trkpt>
<trkpt lat="36.90055847167969" lon="-118.61100006103516">
<ele>2894</ele>
<time>2016-10-22T00:07:19Z</time>
</trkpt>
<trkpt lat="36.90046310424805" lon="-118.6109848022461">
<ele>2893</ele>
<time>2016-10-22T00:07:28Z</time>
</trkpt>
<trkpt lat="36.90036392211914" lon="-118.61099243164063">
<ele>2897</ele>
<time>2016-10-22T00:07:35Z</time>
</trkpt>
<trkpt lat="36.90031051635742" lon="-118.61100769042969">
<ele>2897</ele>
<time>2016-10-22T00:07:41Z</time>
</trkpt>
<trkpt lat="36.900272369384766" lon="-118.61105346679688">
<ele>2897</ele>
<time>2016-10-22T00:07:49Z</time>
</trkpt>
<trkpt lat="36.90018844604492" lon="-118.61109161376953">
<ele>2898</ele>
<time>2016-10-22T00:07:57Z</time>
</trkpt>
<trkpt lat="36.9001350402832" lon="-118.611083984375">
<ele>2903</ele>
<time>2016-10-22T00:08:03Z</time>
</trkpt>
<trkpt lat="36.9000358581543" lon="-118.61107635498047">
<ele>2906</ele>
<time>2016-10-22T00:08:12Z</time>
</trkpt>
<trkpt lat="36.89994812011719" lon="-118.61103057861328">
<ele>2899</ele>
<time>2016-10-22T00:08:21Z</time>
</trkpt>
<trkpt lat="36.89985275268555" lon="-118.6110610961914">
<ele>2902</ele>
<time>2016-10-22T00:08:29Z</time>
</trkpt>
<trkpt lat="36.89979934692383" lon="-118.61109161376953">
<ele>2897</ele>
<time>2016-10-22T00:08:35Z</time>
</trkpt>
<trkpt lat="36.89972686767578" lon="-118.61115264892578">
<ele>2897</ele>
<time>2016-10-22T00:08:41Z</time>
</trkpt>
<trkpt lat="36.899627685546875" lon="-118.61117553710938">
<ele>2893</ele>
<time>2016-10-22T00:08:49Z</time>
</trkpt>
<trkpt lat="36.8995361328125" lon="-118.6111831665039">
<ele>2896</ele>
<time>2016-10-22T00:08:56Z</time>
</trkpt>
<trkpt lat="36.89948272705078" lon="-118.61119079589844">
<ele>2899</ele>
<time>2016-10-22T00:09:04Z</time>
</trkpt>
<trkpt lat="36.8994026184082" lon="-118.61127471923828">
<ele>2899</ele>
<time>2016-10-22T00:09:42Z</time>
</trkpt>
<trkpt lat="36.899295806884766" lon="-118.61126708984375">
<ele>2898</ele>
<time>2016-10-22T00:09:50Z</time>
</trkpt>
<trkpt lat="36.89921188354492" lon="-118.61132049560547">
<ele>2899</ele>
<time>2016-10-22T00:09:57Z</time>
</trkpt>
<trkpt lat="36.89912414550781" lon="-118.61133575439453">
<ele>2901</ele>
<time>2016-10-22T00:10:06Z</time>
</trkpt>
<trkpt lat="36.899112701416016" lon="-118.61122131347656">
<ele>2894</ele>
<time>2016-10-22T00:10:16Z</time>
</trkpt>
<trkpt lat="36.89908218383789" lon="-118.61109924316406">
<ele>2894</ele>
<time>2016-10-22T00:10:25Z</time>
</trkpt>
<trkpt lat="36.89903259277344" lon="-118.61099243164063">
<ele>2890</ele>
<time>2016-10-22T00:10:32Z</time>
</trkpt>
<trkpt lat="36.89897918701172" lon="-118.61090087890625">
<ele>2893</ele>
<time>2016-10-22T00:10:38Z</time>
</trkpt>
<trkpt lat="36.89887619018555" lon="-118.61089324951172">
<ele>2892</ele>
<time>2016-10-22T00:10:46Z</time>
</trkpt>
<trkpt lat="36.8987922668457" lon="-118.61083984375">
<ele>2897</ele>
<time>2016-10-22T00:10:55Z</time>
</trkpt>
<trkpt lat="36.89872741699219" lon="-118.61088562011719">
<ele>2901</ele>
<time>2016-10-22T00:11:04Z</time>
</trkpt>
<trkpt lat="36.89863586425781" lon="-118.61092376708984">
<ele>2899</ele>
<time>2016-10-22T00:11:15Z</time>
</trkpt>
<trkpt lat="36.898536682128906" lon="-118.61095428466797">
<ele>2902</ele>
<time>2016-10-22T00:11:23Z</time>
</trkpt>
<trkpt lat="36.898494720458984" lon="-118.61099243164063">
<ele>2902</ele>
<time>2016-10-22T00:11:31Z</time>
</trkpt>
<trkpt lat="36.89839172363281" lon="-118.61103057861328">
<ele>2904</ele>
<time>2016-10-22T00:11:41Z</time>
</trkpt>
<trkpt lat="36.89833068847656" lon="-118.61112976074219">
<ele>2907</ele>
<time>2016-10-22T00:11:50Z</time>
</trkpt>
<trkpt lat="36.898284912109375" lon="-118.61119842529297">
<ele>2908</ele>
<time>2016-10-22T00:11:57Z</time>
</trkpt>
<trkpt lat="36.89820861816406" lon="-118.61127471923828">
<ele>2907</ele>
<time>2016-10-22T00:12:04Z</time>
</trkpt>
<trkpt lat="36.89812469482422" lon="-118.61132049560547">
<ele>2904</ele>
<time>2016-10-22T00:12:13Z</time>
</trkpt>
<trkpt lat="36.8980712890625" lon="-118.61133575439453">
<ele>2901</ele>
<time>2016-10-22T00:12:19Z</time>
</trkpt>
<trkpt lat="36.89799499511719" lon="-118.61128234863281">
<ele>2897</ele>
<time>2016-10-22T00:12:30Z</time>
</trkpt>
<trkpt lat="36.8979377746582" lon="-118.61126708984375">
<ele>2899</ele>
<time>2016-10-22T00:12:36Z</time>
</trkpt>
<trkpt lat="36.897891998291016" lon="-118.61126708984375">
<ele>2901</ele>
<time>2016-10-22T00:12:44Z</time>
</trkpt>
<trkpt lat="36.8978385925293" lon="-118.61125183105469">
<ele>2906</ele>
<time>2016-10-22T00:12:53Z</time>
</trkpt>
<trkpt lat="36.897735595703125" lon="-118.61125946044922">
<ele>2906</ele>
<time>2016-10-22T00:13:02Z</time>
</trkpt>
<trkpt lat="36.89763641357422" lon="-118.61128234863281">
<ele>2904</ele>
<time>2016-10-22T00:13:10Z</time>
</trkpt>
<trkpt lat="36.89754104614258" lon="-118.61134338378906">
<ele>2908</ele>
<time>2016-10-22T00:13:18Z</time>
</trkpt>
<trkpt lat="36.8974494934082" lon="-118.61133575439453">
<ele>2911</ele>
<time>2016-10-22T00:13:26Z</time>
</trkpt>
<trkpt lat="36.897403717041016" lon="-118.61134338378906">
<ele>2905</ele>
<time>2016-10-22T00:13:32Z</time>
</trkpt>
<trkpt lat="36.897361755371094" lon="-118.61131286621094">
<ele>2905</ele>
<time>2016-10-22T00:13:38Z</time>
</trkpt>
<trkpt lat="36.897308349609375" lon="-118.6113052368164">
<ele>2905</ele>
<time>2016-10-22T00:13:44Z</time>
</trkpt>
<trkpt lat="36.89723587036133" lon="-118.61139678955078">
<ele>2904</ele>
<time>2016-10-22T00:13:51Z</time>
</trkpt>
<trkpt lat="36.89718246459961" lon="-118.61145782470703">
<ele>2905</ele>
<time>2016-10-22T00:13:57Z</time>
</trkpt>
<trkpt lat="36.897159576416016" lon="-118.61151885986328">
<ele>2905</ele>
<time>2016-10-22T00:14:03Z</time>
</trkpt>
<trkpt lat="36.897090911865234" lon="-118.61160278320313">
<ele>2907</ele>
<time>2016-10-22T00:14:09Z</time>
</trkpt>
<trkpt lat="36.89701461791992" lon="-118.61166381835938">
<ele>2909</ele>
<time>2016-10-22T00:14:17Z</time>
</trkpt>
<trkpt lat="36.89697265625" lon="-118.6116943359375">
<ele>2909</ele>
<time>2016-10-22T00:14:24Z</time>
</trkpt>
<trkpt lat="36.8969841003418" lon="-118.61175537109375">
<ele>2902</ele>
<time>2016-10-22T00:14:31Z</time>
</trkpt>
<trkpt lat="36.89694595336914" lon="-118.61189270019531">
<ele>2905</ele>
<time>2016-10-22T00:14:37Z</time>
</trkpt>
<trkpt lat="36.89690399169922" lon="-118.61200714111328">
<ele>2906</ele>
<time>2016-10-22T00:14:44Z</time>
</trkpt>
<trkpt lat="36.89683151245117" lon="-118.61195373535156">
<ele>2898</ele>
<time>2016-10-22T00:14:54Z</time>
</trkpt>
<trkpt lat="36.89679718017578" lon="-118.61203002929688">
<ele>2904</ele>
<time>2016-10-22T00:15:02Z</time>
</trkpt>
<trkpt lat="36.89674377441406" lon="-118.61215209960938">
<ele>2901</ele>
<time>2016-10-22T00:15:10Z</time>
</trkpt>
<trkpt lat="36.8967170715332" lon="-118.61219787597656">
<ele>2901</ele>
<time>2016-10-22T00:15:16Z</time>
</trkpt>
<trkpt lat="36.896690368652344" lon="-118.61225128173828">
<ele>2901</ele>
<time>2016-10-22T00:15:22Z</time>
</trkpt>
<trkpt lat="36.89659118652344" lon="-118.61229705810547">
<ele>2901</ele>
<time>2016-10-22T00:15:29Z</time>
</trkpt>
<trkpt lat="36.89649963378906" lon="-118.61234283447266">
<ele>2901</ele>
<time>2016-10-22T00:15:38Z</time>
</trkpt>
<trkpt lat="36.89639663696289" lon="-118.61238098144531">
<ele>2900</ele>
<time>2016-10-22T00:15:49Z</time>
</trkpt>
<trkpt lat="36.89629364013672" lon="-118.61241149902344">
<ele>2902</ele>
<time>2016-10-22T00:15:56Z</time>
</trkpt>
<trkpt lat="36.89615249633789" lon="-118.61241912841797">
<ele>2906</ele>
<time>2016-10-22T00:16:03Z</time>
</trkpt>
<trkpt lat="36.896080017089844" lon="-118.61248779296875">
<ele>2898</ele>
<time>2016-10-22T00:16:13Z</time>
</trkpt>
<trkpt lat="36.89603042602539" lon="-118.61247253417969">
<ele>2898</ele>
<time>2016-10-22T00:16:19Z</time>
</trkpt>
<trkpt lat="36.895931243896484" lon="-118.61246490478516">
<ele>2897</ele>
<time>2016-10-22T00:16:31Z</time>
</trkpt>
<trkpt lat="36.8958854675293" lon="-118.61248016357422">
<ele>2902</ele>
<time>2016-10-22T00:16:39Z</time>
</trkpt>
<trkpt lat="36.89590835571289" lon="-118.61254119873047">
<ele>2900</ele>
<time>2016-10-22T00:16:54Z</time>
</trkpt>
<trkpt lat="36.895877838134766" lon="-118.61262512207031">
<ele>2900</ele>
<time>2016-10-22T00:17:04Z</time>
</trkpt>
<trkpt lat="36.895843505859375" lon="-118.6126708984375">
<ele>2900</ele>
<time>2016-10-22T00:17:11Z</time>
</trkpt>
<trkpt lat="36.89580535888672" lon="-118.61270141601563">
<ele>2905</ele>
<time>2016-10-22T00:17:17Z</time>
</trkpt>
<trkpt lat="36.895755767822266" lon="-118.6126937866211">
<ele>2907</ele>
<time>2016-10-22T00:17:24Z</time>
</trkpt>
<trkpt lat="36.89567184448242" lon="-118.61273956298828">
<ele>2909</ele>
<time>2016-10-22T00:17:32Z</time>
</trkpt>
<trkpt lat="36.8956184387207" lon="-118.61272430419922">
<ele>2904</ele>
<time>2016-10-22T00:17:41Z</time>
</trkpt>
<trkpt lat="36.89553451538086" lon="-118.61265563964844">
<ele>2902</ele>
<time>2016-10-22T00:17:49Z</time>
</trkpt>
<trkpt lat="36.89548110961914" lon="-118.6126708984375">
<ele>2903</ele>
<time>2016-10-22T00:17:55Z</time>
</trkpt>
<trkpt lat="36.895408630371094" lon="-118.6126937866211">
<ele>2906</ele>
<time>2016-10-22T00:18:04Z</time>
</trkpt>
<trkpt lat="36.895355224609375" lon="-118.61267852783203">
<ele>2905</ele>
<time>2016-10-22T00:18:10Z</time>
</trkpt>
<trkpt lat="36.89525604248047" lon="-118.61271667480469">
<ele>2906</ele>
<time>2016-10-22T00:18:20Z</time>
</trkpt>
<trkpt lat="36.89516067504883" lon="-118.61273956298828">
<ele>2908</ele>
<time>2016-10-22T00:18:32Z</time>
</trkpt>
<trkpt lat="36.895111083984375" lon="-118.61276245117188">
<ele>2909</ele>
<time>2016-10-22T00:18:39Z</time>
</trkpt>
<trkpt lat="36.89506149291992" lon="-118.61276245117188">
<ele>2912</ele>
<time>2016-10-22T00:18:45Z</time>
</trkpt>
<trkpt lat="36.895015716552734" lon="-118.61275482177734">
<ele>2913</ele>
<time>2016-10-22T00:18:51Z</time>
</trkpt>
<trkpt lat="36.894962310791016" lon="-118.6127700805664">
<ele>2915</ele>
<time>2016-10-22T00:18:57Z</time>
</trkpt>
<trkpt lat="36.89491271972656" lon="-118.61279296875">
<ele>2921</ele>
<time>2016-10-22T00:19:04Z</time>
</trkpt>
<trkpt lat="36.89482116699219" lon="-118.61278533935547">
<ele>2919</ele>
<time>2016-10-22T00:19:13Z</time>
</trkpt>
<trkpt lat="36.89476776123047" lon="-118.61279296875">
<ele>2923</ele>
<time>2016-10-22T00:19:21Z</time>
</trkpt>
<trkpt lat="36.89466857910156" lon="-118.61280822753906">
<ele>2928</ele>
<time>2016-10-22T00:19:31Z</time>
</trkpt>
<trkpt lat="36.894622802734375" lon="-118.61282348632813">
<ele>2925</ele>
<time>2016-10-22T00:19:38Z</time>
</trkpt>
<trkpt lat="36.89457321166992" lon="-118.61282348632813">
<ele>2926</ele>
<time>2016-10-22T00:19:44Z</time>
</trkpt>
<trkpt lat="36.894527435302734" lon="-118.61278533935547">
<ele>2927</ele>
<time>2016-10-22T00:19:51Z</time>
</trkpt>
<trkpt lat="36.894466400146484" lon="-118.61272430419922">
<ele>2938</ele>
<time>2016-10-22T00:20:03Z</time>
</trkpt>
<trkpt lat="36.8944206237793" lon="-118.61271667480469">
<ele>2939</ele>
<time>2016-10-22T00:20:12Z</time>
</trkpt>
<trkpt lat="36.89432144165039" lon="-118.61268615722656">
<ele>2936</ele>
<time>2016-10-22T00:20:25Z</time>
</trkpt>
<trkpt lat="36.894229888916016" lon="-118.61263275146484">
<ele>2933</ele>
<time>2016-10-22T00:20:36Z</time>
</trkpt>
<trkpt lat="36.89420700073242" lon="-118.61258697509766">
<ele>2934</ele>
<time>2016-10-22T00:20:42Z</time>
</trkpt>
<trkpt lat="36.894256591796875" lon="-118.61251831054688">
<ele>2932</ele>
<time>2016-10-22T00:21:08Z</time>
</trkpt>
<trkpt lat="36.89421081542969" lon="-118.6125259399414">
<ele>2935</ele>
<time>2016-10-22T00:21:19Z</time>
</trkpt>
<trkpt lat="36.89412307739258" lon="-118.61248016357422">
<ele>2938</ele>
<time>2016-10-22T00:21:30Z</time>
</trkpt>
<trkpt lat="36.894100189208984" lon="-118.6124267578125">
<ele>2939</ele>
<time>2016-10-22T00:21:36Z</time>
</trkpt>
<trkpt lat="36.89406967163086" lon="-118.61231994628906">
<ele>2934</ele>
<time>2016-10-22T00:21:46Z</time>
</trkpt>
<trkpt lat="36.894004821777344" lon="-118.6122055053711">
<ele>2936</ele>
<time>2016-10-22T00:21:55Z</time>
</trkpt>
<trkpt lat="36.89393997192383" lon="-118.61217498779297">
<ele>2942</ele>
<time>2016-10-22T00:22:02Z</time>
</trkpt>
<trkpt lat="36.89390182495117" lon="-118.61213684082031">
<ele>2942</ele>
<time>2016-10-22T00:22:08Z</time>
</trkpt>
<trkpt lat="36.893829345703125" lon="-118.612060546875">
<ele>2944</ele>
<time>2016-10-22T00:22:17Z</time>
</trkpt>
<trkpt lat="36.89378356933594" lon="-118.61202239990234">
<ele>2944</ele>
<time>2016-10-22T00:22:24Z</time>
</trkpt>
<trkpt lat="36.893707275390625" lon="-118.61197662353516">
<ele>2946</ele>
<time>2016-10-22T00:22:40Z</time>
</trkpt>
<trkpt lat="36.893699645996094" lon="-118.6119155883789">
<ele>2949</ele>
<time>2016-10-22T00:22:46Z</time>
</trkpt>
<trkpt lat="36.893707275390625" lon="-118.61185455322266">
<ele>2953</ele>
<time>2016-10-22T00:22:52Z</time>
</trkpt>
<trkpt lat="36.89369583129883" lon="-118.61174774169922">
<ele>2959</ele>
<time>2016-10-22T00:23:12Z</time>
</trkpt>
<trkpt lat="36.89368438720703" lon="-118.61168670654297">
<ele>2961</ele>
<time>2016-10-22T00:23:27Z</time>
</trkpt>
<trkpt lat="36.89358901977539" lon="-118.61164855957031">
<ele>2962</ele>
<time>2016-10-22T00:23:42Z</time>
</trkpt>
<trkpt lat="36.89353942871094" lon="-118.6115493774414">
<ele>2958</ele>
<time>2016-10-22T00:23:52Z</time>
</trkpt>
<trkpt lat="36.893489837646484" lon="-118.6114501953125">
<ele>2954</ele>
<time>2016-10-22T00:24:05Z</time>
</trkpt>
<trkpt lat="36.893497467041016" lon="-118.61138916015625">
<ele>2967</ele>
<time>2016-10-22T00:24:32Z</time>
</trkpt>
<trkpt lat="36.893455505371094" lon="-118.61135864257813">
<ele>2967</ele>
<time>2016-10-22T00:24:41Z</time>
</trkpt>
<trkpt lat="36.89347839355469" lon="-118.6113052368164">
<ele>2967</ele>
<time>2016-10-22T00:24:47Z</time>
</trkpt>
<trkpt lat="36.89350128173828" lon="-118.61125183105469">
<ele>2964</ele>
<time>2016-10-22T00:24:57Z</time>
</trkpt>
<trkpt lat="36.89350128173828" lon="-118.61119079589844">
<ele>2961</ele>
<time>2016-10-22T00:25:20Z</time>
</trkpt>
<trkpt lat="36.89344787597656" lon="-118.61109161376953">
<ele>2962</ele>
<time>2016-10-22T00:25:32Z</time>
</trkpt>
<trkpt lat="36.893436431884766" lon="-118.61103057861328">
<ele>2966</ele>
<time>2016-10-22T00:25:45Z</time>
</trkpt>
<trkpt lat="36.893402099609375" lon="-118.61099243164063">
<ele>2965</ele>
<time>2016-10-22T00:25:54Z</time>
</trkpt>
<trkpt lat="36.89338302612305" lon="-118.61092376708984">
<ele>2965</ele>
<time>2016-10-22T00:26:12Z</time>
</trkpt>
<trkpt lat="36.89338684082031" lon="-118.61087036132813">
<ele>2966</ele>
<time>2016-10-22T00:26:33Z</time>
</trkpt>
<trkpt lat="36.89338684082031" lon="-118.61080932617188">
<ele>2961</ele>
<time>2016-10-22T00:26:47Z</time>
</trkpt>
<trkpt lat="36.89336013793945" lon="-118.61076354980469">
<ele>2964</ele>
<time>2016-10-22T00:26:56Z</time>
</trkpt>
<trkpt lat="36.89331817626953" lon="-118.6107177734375">
<ele>2965</ele>
<time>2016-10-22T00:27:05Z</time>
</trkpt>
<trkpt lat="36.893272399902344" lon="-118.61067962646484">
<ele>2964</ele>
<time>2016-10-22T00:27:13Z</time>
</trkpt>
<trkpt lat="36.89323806762695" lon="-118.61064147949219">
<ele>2963</ele>
<time>2016-10-22T00:27:20Z</time>
</trkpt>
<trkpt lat="36.8931884765625" lon="-118.61062622070313">
<ele>2964</ele>
<time>2016-10-22T00:27:28Z</time>
</trkpt>
<trkpt lat="36.89314651489258" lon="-118.6105728149414">
<ele>2966</ele>
<time>2016-10-22T00:27:34Z</time>
</trkpt>
<trkpt lat="36.89311218261719" lon="-118.61053466796875">
<ele>2970</ele>
<time>2016-10-22T00:27:41Z</time>
</trkpt>
<trkpt lat="36.89307403564453" lon="-118.61050415039063">
<ele>2971</ele>
<time>2016-10-22T00:27:47Z</time>
</trkpt>
<trkpt lat="36.89302444458008" lon="-118.6104965209961">
<ele>2972</ele>
<time>2016-10-22T00:27:53Z</time>
</trkpt>
<trkpt lat="36.89297103881836" lon="-118.6104507446289">
<ele>2973</ele>
<time>2016-10-22T00:28:21Z</time>
</trkpt>
<trkpt lat="36.89292526245117" lon="-118.61044311523438">
<ele>2978</ele>
<time>2016-10-22T00:28:27Z</time>
</trkpt>
<trkpt lat="36.89287567138672" lon="-118.61044311523438">
<ele>2978</ele>
<time>2016-10-22T00:28:36Z</time>
</trkpt>
<trkpt lat="36.89284133911133" lon="-118.61040496826172">
<ele>2983</ele>
<time>2016-10-22T00:28:49Z</time>
</trkpt>
<trkpt lat="36.892757415771484" lon="-118.61039733886719">
<ele>2975</ele>
<time>2016-10-22T00:29:07Z</time>
</trkpt>
<trkpt lat="36.892738342285156" lon="-118.61033630371094">
<ele>2975</ele>
<time>2016-10-22T00:29:16Z</time>
</trkpt>
<trkpt lat="36.8926887512207" lon="-118.6103515625">
<ele>2978</ele>
<time>2016-10-22T00:29:22Z</time>
</trkpt>
<trkpt lat="36.89265060424805" lon="-118.61031341552734">
<ele>2977</ele>
<time>2016-10-22T00:29:29Z</time>
</trkpt>
<trkpt lat="36.89268112182617" lon="-118.61026763916016">
<ele>2986</ele>
<time>2016-10-22T00:29:54Z</time>
</trkpt>
<trkpt lat="36.892601013183594" lon="-118.61024475097656">
<ele>2994</ele>
<time>2016-10-22T00:30:13Z</time>
</trkpt>
<trkpt lat="36.89256286621094" lon="-118.6102066040039">
<ele>2992</ele>
<time>2016-10-22T00:30:21Z</time>
</trkpt>
<trkpt lat="36.892601013183594" lon="-118.61016082763672">
<ele>2997</ele>
<time>2016-10-22T00:30:34Z</time>
</trkpt>
<trkpt lat="36.89264678955078" lon="-118.61013793945313">
<ele>3000</ele>
<time>2016-10-22T00:30:41Z</time>
</trkpt>
<trkpt lat="36.8926887512207" lon="-118.61011505126953">
<ele>3004</ele>
<time>2016-10-22T00:30:49Z</time>
</trkpt>
<trkpt lat="36.892662048339844" lon="-118.61006164550781">
<ele>3004</ele>
<time>2016-10-22T00:30:57Z</time>
</trkpt>
<trkpt lat="36.8927001953125" lon="-118.61003112792969">
<ele>3004</ele>
<time>2016-10-22T00:31:12Z</time>
</trkpt>
<trkpt lat="36.89274978637695" lon="-118.61003875732422">
<ele>3012</ele>
<time>2016-10-22T00:31:22Z</time>
</trkpt>
<trkpt lat="36.89271545410156" lon="-118.60995483398438">
<ele>3010</ele>
<time>2016-10-22T00:31:43Z</time>
</trkpt>
<trkpt lat="36.89267349243164" lon="-118.60992431640625">
<ele>3011</ele>
<time>2016-10-22T00:31:49Z</time>
</trkpt>
<trkpt lat="36.892616271972656" lon="-118.6098861694336">
<ele>3013</ele>
<time>2016-10-22T00:32:05Z</time>
</trkpt>
<trkpt lat="36.89253234863281" lon="-118.60982513427734">
<ele>3014</ele>
<time>2016-10-22T00:32:16Z</time>
</trkpt>
<trkpt lat="36.89250183105469" lon="-118.60977935791016">
<ele>3002</ele>
<time>2016-10-22T00:32:24Z</time>
</trkpt>
<trkpt lat="36.89253616333008" lon="-118.60974884033203">
<ele>2998</ele>
<time>2016-10-22T00:32:50Z</time>
</trkpt>
<trkpt lat="36.8925666809082" lon="-118.60967254638672">
<ele>3009</ele>
<time>2016-10-22T00:33:13Z</time>
</trkpt>
<trkpt lat="36.89262771606445" lon="-118.60968780517578">
<ele>3008</ele>
<time>2016-10-22T00:33:22Z</time>
</trkpt>
<trkpt lat="36.89263916015625" lon="-118.60962677001953">
<ele>3010</ele>
<time>2016-10-22T00:33:29Z</time>
</trkpt>
<trkpt lat="36.89254379272461" lon="-118.6095962524414">
<ele>3017</ele>
<time>2016-10-22T00:33:48Z</time>
</trkpt>
<trkpt lat="36.89250946044922" lon="-118.60955047607422">
<ele>3008</ele>
<time>2016-10-22T00:34:06Z</time>
</trkpt>
<trkpt lat="36.892459869384766" lon="-118.60955810546875">
<ele>3010</ele>
<time>2016-10-22T00:34:13Z</time>
</trkpt>
<trkpt lat="36.89241027832031" lon="-118.60953521728516">
<ele>3014</ele>
<time>2016-10-22T00:34:21Z</time>
</trkpt>
<trkpt lat="36.8924560546875" lon="-118.60951232910156">
<ele>3025</ele>
<time>2016-10-22T00:34:35Z</time>
</trkpt>
<trkpt lat="36.89255142211914" lon="-118.60951232910156">
<ele>3025</ele>
<time>2016-10-22T00:34:45Z</time>
</trkpt>
<trkpt lat="36.89262771606445" lon="-118.60948181152344">
<ele>3029</ele>
<time>2016-10-22T00:34:57Z</time>
</trkpt>
<trkpt lat="36.89268112182617" lon="-118.6094741821289">
<ele>3029</ele>
<time>2016-10-22T00:35:04Z</time>
</trkpt>
<trkpt lat="36.892757415771484" lon="-118.60943603515625">
<ele>3027</ele>
<time>2016-10-22T00:35:16Z</time>
</trkpt>
<trkpt lat="36.892730712890625" lon="-118.60939025878906">
<ele>3028</ele>
<time>2016-10-22T00:35:22Z</time>
</trkpt>
<trkpt lat="36.89263916015625" lon="-118.60936737060547">
<ele>3025</ele>
<time>2016-10-22T00:35:32Z</time>
</trkpt>
<trkpt lat="36.892555236816406" lon="-118.60932159423828">
<ele>3033</ele>
<time>2016-10-22T00:35:44Z</time>
</trkpt>
<trkpt lat="36.89250183105469" lon="-118.60929107666016">
<ele>3032</ele>
<time>2016-10-22T00:35:50Z</time>
</trkpt>
<trkpt lat="36.89242935180664" lon="-118.60929870605469">
<ele>3035</ele>
<time>2016-10-22T00:35:57Z</time>
</trkpt>
<trkpt lat="36.89234161376953" lon="-118.60922241210938">
<ele>3036</ele>
<time>2016-10-22T00:36:06Z</time>
</trkpt>
<trkpt lat="36.89237594604492" lon="-118.60918426513672">
<ele>3042</ele>
<time>2016-10-22T00:36:18Z</time>
</trkpt>
<trkpt lat="36.89242935180664" lon="-118.60917663574219">
<ele>3044</ele>
<time>2016-10-22T00:36:24Z</time>
</trkpt>
<trkpt lat="36.892520904541016" lon="-118.60914611816406">
<ele>3044</ele>
<time>2016-10-22T00:36:35Z</time>
</trkpt>
<trkpt lat="36.892578125" lon="-118.60916137695313">
<ele>3042</ele>
<time>2016-10-22T00:36:41Z</time>
</trkpt>
<trkpt lat="36.8927001953125" lon="-118.60919952392578">
<ele>3046</ele>
<time>2016-10-22T00:36:48Z</time>
</trkpt>
<trkpt lat="36.89277267456055" lon="-118.60919952392578">
<ele>3049</ele>
<time>2016-10-22T00:36:57Z</time>
</trkpt>
<trkpt lat="36.892826080322266" lon="-118.60909271240234">
<ele>3043</ele>
<time>2016-10-22T00:37:07Z</time>
</trkpt>
<trkpt lat="36.89285659790039" lon="-118.60903930664063">
<ele>3044</ele>
<time>2016-10-22T00:37:13Z</time>
</trkpt>
<trkpt lat="36.89284133911133" lon="-118.60891723632813">
<ele>3046</ele>
<time>2016-10-22T00:37:23Z</time>
</trkpt>
<trkpt lat="36.89277648925781" lon="-118.60882568359375">
<ele>3041</ele>
<time>2016-10-22T00:37:34Z</time>
</trkpt>
<trkpt lat="36.8926887512207" lon="-118.6087646484375">
<ele>3039</ele>
<time>2016-10-22T00:37:42Z</time>
</trkpt>
<trkpt lat="36.89270782470703" lon="-118.60863494873047">
<ele>3038</ele>
<time>2016-10-22T00:37:50Z</time>
</trkpt>
<trkpt lat="36.892696380615234" lon="-118.60856628417969">
<ele>3041</ele>
<time>2016-10-22T00:37:56Z</time>
</trkpt>
<trkpt lat="36.892642974853516" lon="-118.60846710205078">
<ele>3033</ele>
<time>2016-10-22T00:38:05Z</time>
</trkpt>
<trkpt lat="36.892555236816406" lon="-118.60842895507813">
<ele>3030</ele>
<time>2016-10-22T00:38:13Z</time>
</trkpt>
<trkpt lat="36.89246368408203" lon="-118.60836791992188">
<ele>3030</ele>
<time>2016-10-22T00:38:24Z</time>
</trkpt>
<trkpt lat="36.892364501953125" lon="-118.60836029052734">
<ele>3031</ele>
<time>2016-10-22T00:38:33Z</time>
</trkpt>
<trkpt lat="36.892337799072266" lon="-118.60830688476563">
<ele>3027</ele>
<time>2016-10-22T00:38:41Z</time>
</trkpt>
<trkpt lat="36.892303466796875" lon="-118.60826110839844">
<ele>3032</ele>
<time>2016-10-22T00:38:48Z</time>
</trkpt>
</trkseg>
</trk>
<trk>
<name><![CDATA[10211738]]></name>
<number>65</number>
<extensions><topografix:color>ff000066</topografix:color></extensions>
<trkseg>
<trkpt lat="36.89225769042969" lon="-118.6082763671875">
<ele>3031</ele>
<time>2016-10-22T00:39:01Z</time>
</trkpt>
<trkpt lat="36.89223861694336" lon="-118.60832977294922">
<ele>3037</ele>
<time>2016-10-22T00:39:36Z</time>
</trkpt>
<trkpt lat="36.89218521118164" lon="-118.60832977294922">
<ele>3038</ele>
<time>2016-10-22T00:39:42Z</time>
</trkpt>
<trkpt lat="36.89208984375" lon="-118.60826873779297">
<ele>3034</ele>
<time>2016-10-22T00:39:50Z</time>
</trkpt>
<trkpt lat="36.891998291015625" lon="-118.60828399658203">
<ele>3035</ele>
<time>2016-10-22T00:40:00Z</time>
</trkpt>
<trkpt lat="36.89195251464844" lon="-118.6082992553711">
<ele>3040</ele>
<time>2016-10-22T00:40:06Z</time>
</trkpt>
<trkpt lat="36.891902923583984" lon="-118.60829162597656">
<ele>3039</ele>
<time>2016-10-22T00:40:12Z</time>
</trkpt>
<trkpt lat="36.891815185546875" lon="-118.60823059082031">
<ele>3041</ele>
<time>2016-10-22T00:40:20Z</time>
</trkpt>
<trkpt lat="36.89174270629883" lon="-118.60814666748047">
<ele>3030</ele>
<time>2016-10-22T00:40:29Z</time>
</trkpt>
<trkpt lat="36.891639709472656" lon="-118.6081314086914">
<ele>3031</ele>
<time>2016-10-22T00:40:35Z</time>
</trkpt>
<trkpt lat="36.891597747802734" lon="-118.6081314086914">
<ele>3044</ele>
<time>2016-10-22T00:40:41Z</time>
</trkpt>
<trkpt lat="36.89149475097656" lon="-118.6080551147461">
<ele>3046</ele>
<time>2016-10-22T00:40:50Z</time>
</trkpt>
<trkpt lat="36.89140319824219" lon="-118.60802459716797">
<ele>3045</ele>
<time>2016-10-22T00:40:56Z</time>
</trkpt>
<trkpt lat="36.89130783081055" lon="-118.60802459716797">
<ele>3040</ele>
<time>2016-10-22T00:41:03Z</time>
</trkpt>
<trkpt lat="36.891212463378906" lon="-118.60799407958984">
<ele>3042</ele>
<time>2016-10-22T00:41:12Z</time>
</trkpt>
<trkpt lat="36.89112091064453" lon="-118.60797882080078">
<ele>3041</ele>
<time>2016-10-22T00:41:21Z</time>
</trkpt>
<trkpt lat="36.89102554321289" lon="-118.60794830322266">
<ele>3037</ele>
<time>2016-10-22T00:41:28Z</time>
</trkpt>
<trkpt lat="36.89094161987305" lon="-118.60787963867188">
<ele>3038</ele>
<time>2016-10-22T00:41:38Z</time>
</trkpt>
<trkpt lat="36.890830993652344" lon="-118.60786437988281">
<ele>3037</ele>
<time>2016-10-22T00:41:46Z</time>
</trkpt>
<trkpt lat="36.89072799682617" lon="-118.60787963867188">
<ele>3034</ele>
<time>2016-10-22T00:41:54Z</time>
</trkpt>
<trkpt lat="36.89070129394531" lon="-118.60798645019531">
<ele>3024</ele>
<time>2016-10-22T00:42:02Z</time>
</trkpt>
<trkpt lat="36.8906135559082" lon="-118.60802459716797">
<ele>3029</ele>
<time>2016-10-22T00:42:13Z</time>
</trkpt>
<trkpt lat="36.89065170288086" lon="-118.60798645019531">
<ele>3030</ele>
<time>2016-10-22T00:45:01Z</time>
</trkpt>
<trkpt lat="36.89060592651367" lon="-118.60798645019531">
<ele>3033</ele>
<time>2016-10-22T00:48:01Z</time>
</trkpt>
<trkpt lat="36.8906364440918" lon="-118.6080322265625">
<ele>3031</ele>
<time>2016-10-22T00:48:35Z</time>
</trkpt>
<trkpt lat="36.89057922363281" lon="-118.60799407958984">
<ele>3038</ele>
<time>2016-10-22T00:49:07Z</time>
</trkpt>
<trkpt lat="36.89052963256836" lon="-118.6080093383789">
<ele>3040</ele>
<time>2016-10-22T00:49:14Z</time>
</trkpt>
<trkpt lat="36.890506744384766" lon="-118.60806274414063">
<ele>3044</ele>
<time>2016-10-22T00:49:20Z</time>
</trkpt>
<trkpt lat="36.890438079833984" lon="-118.60814666748047">
<ele>3043</ele>
<time>2016-10-22T00:49:30Z</time>
</trkpt>
<trkpt lat="36.89033889770508" lon="-118.60813903808594">
<ele>3035</ele>
<time>2016-10-22T00:49:41Z</time>
</trkpt>
<trkpt lat="36.89029312133789" lon="-118.60816192626953">
<ele>3042</ele>
<time>2016-10-22T00:49:51Z</time>
</trkpt>
<trkpt lat="36.89027786254883" lon="-118.60823059082031">
<ele>3046</ele>
<time>2016-10-22T00:50:00Z</time>
</trkpt>
<trkpt lat="36.890316009521484" lon="-118.6082763671875">
<ele>3041</ele>
<time>2016-10-22T00:50:13Z</time>
</trkpt>
<trkpt lat="36.89036178588867" lon="-118.6082992553711">
<ele>3044</ele>
<time>2016-10-22T00:50:19Z</time>
</trkpt>
<trkpt lat="36.89039611816406" lon="-118.60833740234375">
<ele>3040</ele>
<time>2016-10-22T00:50:27Z</time>
</trkpt>
<trkpt lat="36.89045333862305" lon="-118.60834503173828">
<ele>3041</ele>
<time>2016-10-22T00:50:34Z</time>
</trkpt>
<trkpt lat="36.89048767089844" lon="-118.6083755493164">
<ele>3035</ele>
<time>2016-10-22T00:50:40Z</time>
</trkpt>
<trkpt lat="36.89044952392578" lon="-118.6084213256836">
<ele>3036</ele>
<time>2016-10-22T00:50:47Z</time>
</trkpt>
<trkpt lat="36.890380859375" lon="-118.60850524902344">
<ele>3038</ele>
<time>2016-10-22T00:50:57Z</time>
</trkpt>
<trkpt lat="36.890323638916016" lon="-118.60845947265625">
<ele>3051</ele>
<time>2016-10-22T00:51:07Z</time>
</trkpt>
<trkpt lat="36.890289306640625" lon="-118.60842895507813">
<ele>3056</ele>
<time>2016-10-22T00:51:19Z</time>
</trkpt>
<trkpt lat="36.89023971557617" lon="-118.60845184326172">
<ele>3062</ele>
<time>2016-10-22T00:51:26Z</time>
</trkpt>
<trkpt lat="36.89015579223633" lon="-118.60850524902344">
<ele>3059</ele>
<time>2016-10-22T00:51:36Z</time>
</trkpt>
<trkpt lat="36.89011764526367" lon="-118.60855102539063">
<ele>3052</ele>
<time>2016-10-22T00:51:42Z</time>
</trkpt>
<trkpt lat="36.89006805419922" lon="-118.60856628417969">
<ele>3053</ele>
<time>2016-10-22T00:51:48Z</time>
</trkpt>
<trkpt lat="36.89011001586914" lon="-118.60858917236328">
<ele>3056</ele>
<time>2016-10-22T00:52:00Z</time>
</trkpt>
<trkpt lat="36.890174865722656" lon="-118.6086196899414">
<ele>3053</ele>
<time>2016-10-22T00:52:06Z</time>
</trkpt>
<trkpt lat="36.89021301269531" lon="-118.60865783691406">
<ele>3055</ele>
<time>2016-10-22T00:52:13Z</time>
</trkpt>
<trkpt lat="36.89017868041992" lon="-118.60870361328125">
<ele>3057</ele>
<time>2016-10-22T00:52:23Z</time>
</trkpt>
<trkpt lat="36.890079498291016" lon="-118.6086654663086">
<ele>3066</ele>
<time>2016-10-22T00:52:37Z</time>
</trkpt>
<trkpt lat="36.89002990722656" lon="-118.60867309570313">
<ele>3064</ele>
<time>2016-10-22T00:52:43Z</time>
</trkpt>
<trkpt lat="36.88993453979492" lon="-118.60865020751953">
<ele>3063</ele>
<time>2016-10-22T00:52:51Z</time>
</trkpt>
<trkpt lat="36.889827728271484" lon="-118.608642578125">
<ele>3065</ele>
<time>2016-10-22T00:53:00Z</time>
</trkpt>
<trkpt lat="36.889801025390625" lon="-118.60875701904297">
<ele>3064</ele>
<time>2016-10-22T00:53:21Z</time>
</trkpt>
<trkpt lat="36.88970947265625" lon="-118.6087875366211">
<ele>3062</ele>
<time>2016-10-22T00:53:32Z</time>
</trkpt>
<trkpt lat="36.8896598815918" lon="-118.60877990722656">
<ele>3062</ele>
<time>2016-10-22T00:53:38Z</time>
</trkpt>
<trkpt lat="36.88961410522461" lon="-118.60877227783203">
<ele>3064</ele>
<time>2016-10-22T00:53:44Z</time>
</trkpt>
<trkpt lat="36.88957214355469" lon="-118.60877990722656">
<ele>3065</ele>
<time>2016-10-22T00:53:50Z</time>
</trkpt>
<trkpt lat="36.88947677612305" lon="-118.60880279541016">
<ele>3069</ele>
<time>2016-10-22T00:54:18Z</time>
</trkpt>
<trkpt lat="36.889381408691406" lon="-118.6087875366211">
<ele>3075</ele>
<time>2016-10-22T00:54:29Z</time>
</trkpt>
<trkpt lat="36.889339447021484" lon="-118.60882568359375">
<ele>3073</ele>
<time>2016-10-22T00:54:38Z</time>
</trkpt>
<trkpt lat="36.889312744140625" lon="-118.60887145996094">
<ele>3076</ele>
<time>2016-10-22T00:54:45Z</time>
</trkpt>
<trkpt lat="36.88926696777344" lon="-118.60884857177734">
<ele>3076</ele>
<time>2016-10-22T00:54:51Z</time>
</trkpt>
<trkpt lat="36.88917922973633" lon="-118.60877227783203">
<ele>3077</ele>
<time>2016-10-22T00:55:00Z</time>
</trkpt>
<trkpt lat="36.889122009277344" lon="-118.60879516601563">
<ele>3076</ele>
<time>2016-10-22T00:55:08Z</time>
</trkpt>
<trkpt lat="36.88902282714844" lon="-118.60883331298828">
<ele>3077</ele>
<time>2016-10-22T00:55:20Z</time>
</trkpt>
<trkpt lat="36.8889274597168" lon="-118.60881805419922">
<ele>3079</ele>
<time>2016-10-22T00:55:29Z</time>
</trkpt>
<trkpt lat="36.88882827758789" lon="-118.60884094238281">
<ele>3077</ele>
<time>2016-10-22T00:55:40Z</time>
</trkpt>
<trkpt lat="36.8887939453125" lon="-118.60887908935547">
<ele>3080</ele>
<time>2016-10-22T00:55:46Z</time>
</trkpt>
<trkpt lat="36.88878631591797" lon="-118.60894775390625">
<ele>3076</ele>
<time>2016-10-22T00:55:52Z</time>
</trkpt>
<trkpt lat="36.888824462890625" lon="-118.6089859008789">
<ele>3077</ele>
<time>2016-10-22T00:55:58Z</time>
</trkpt>
<trkpt lat="36.88886642456055" lon="-118.60904693603516">
<ele>3078</ele>
<time>2016-10-22T00:56:06Z</time>
</trkpt>
<trkpt lat="36.888816833496094" lon="-118.60914611816406">
<ele>3079</ele>
<time>2016-10-22T00:56:16Z</time>
</trkpt>
<trkpt lat="36.888729095458984" lon="-118.6091079711914">
<ele>3076</ele>
<time>2016-10-22T00:56:24Z</time>
</trkpt>
<trkpt lat="36.888633728027344" lon="-118.60908508300781">
<ele>3076</ele>
<time>2016-10-22T00:56:32Z</time>
</trkpt>
<trkpt lat="36.888526916503906" lon="-118.60911560058594">
<ele>3076</ele>
<time>2016-10-22T00:56:40Z</time>
</trkpt>
<trkpt lat="36.888427734375" lon="-118.60913848876953">
<ele>3073</ele>
<time>2016-10-22T00:56:49Z</time>
</trkpt>
<trkpt lat="36.88843536376953" lon="-118.60926818847656">
<ele>3071</ele>
<time>2016-10-22T00:56:55Z</time>
</trkpt>
<trkpt lat="36.888458251953125" lon="-118.60934448242188">
<ele>3074</ele>
<time>2016-10-22T00:57:01Z</time>
</trkpt>
<trkpt lat="36.88842010498047" lon="-118.60938262939453">
<ele>3078</ele>
<time>2016-10-22T00:57:07Z</time>
</trkpt>
<trkpt lat="36.88832473754883" lon="-118.60945129394531">
<ele>3074</ele>
<time>2016-10-22T00:57:13Z</time>
</trkpt>
<trkpt lat="36.88823699951172" lon="-118.6095199584961">
<ele>3075</ele>
<time>2016-10-22T00:57:21Z</time>
</trkpt>
<trkpt lat="36.88817596435547" lon="-118.609619140625">
<ele>3079</ele>
<time>2016-10-22T00:57:31Z</time>
</trkpt>
<trkpt lat="36.88813400268555" lon="-118.60964965820313">
<ele>3078</ele>
<time>2016-10-22T00:57:38Z</time>
</trkpt>
<trkpt lat="36.88812255859375" lon="-118.60971069335938">
<ele>3078</ele>
<time>2016-10-22T00:57:47Z</time>
</trkpt>
<trkpt lat="36.88807678222656" lon="-118.60973358154297">
<ele>3079</ele>
<time>2016-10-22T00:57:56Z</time>
</trkpt>
<trkpt lat="36.887996673583984" lon="-118.60979461669922">
<ele>3085</ele>
<time>2016-10-22T00:58:08Z</time>
</trkpt>
<trkpt lat="36.887943267822266" lon="-118.60979461669922">
<ele>3088</ele>
<time>2016-10-22T00:58:19Z</time>
</trkpt>
<trkpt lat="36.88785171508789" lon="-118.60981750488281">
<ele>3082</ele>
<time>2016-10-22T00:58:28Z</time>
</trkpt>
<trkpt lat="36.88776779174805" lon="-118.60986328125">
<ele>3084</ele>
<time>2016-10-22T00:58:37Z</time>
</trkpt>
<trkpt lat="36.887813568115234" lon="-118.60987854003906">
<ele>3082</ele>
<time>2016-10-22T00:58:43Z</time>
</trkpt>
<trkpt lat="36.887794494628906" lon="-118.60993957519531">
<ele>3086</ele>
<time>2016-10-22T00:58:57Z</time>
</trkpt>
<trkpt lat="36.887699127197266" lon="-118.6099624633789">
<ele>3094</ele>
<time>2016-10-22T00:59:08Z</time>
</trkpt>
<trkpt lat="36.88764953613281" lon="-118.60999298095703">
<ele>3096</ele>
<time>2016-10-22T00:59:17Z</time>
</trkpt>
<trkpt lat="36.887630462646484" lon="-118.61004638671875">
<ele>3089</ele>
<time>2016-10-22T00:59:56Z</time>
</trkpt>
<trkpt lat="36.88753128051758" lon="-118.61016082763672">
<ele>3085</ele>
<time>2016-10-22T01:00:06Z</time>
</trkpt>
<trkpt lat="36.88743209838867" lon="-118.61018371582031">
<ele>3090</ele>
<time>2016-10-22T01:00:16Z</time>
</trkpt>
<trkpt lat="36.8873405456543" lon="-118.61018371582031">
<ele>3093</ele>
<time>2016-10-22T01:00:23Z</time>
</trkpt>
<trkpt lat="36.88724136352539" lon="-118.61018371582031">
<ele>3093</ele>
<time>2016-10-22T01:00:33Z</time>
</trkpt>
<trkpt lat="36.88713836669922" lon="-118.61015319824219">
<ele>3095</ele>
<time>2016-10-22T01:00:40Z</time>
</trkpt>
<trkpt lat="36.88709259033203" lon="-118.61018371582031">
<ele>3094</ele>
<time>2016-10-22T01:00:46Z</time>
</trkpt>
<trkpt lat="36.887001037597656" lon="-118.61019897460938">
<ele>3099</ele>
<time>2016-10-22T01:00:53Z</time>
</trkpt>
<trkpt lat="36.88699722290039" lon="-118.61028289794922">
<ele>3099</ele>
<time>2016-10-22T01:01:01Z</time>
</trkpt>
<trkpt lat="36.8869514465332" lon="-118.61026000976563">
<ele>3094</ele>
<time>2016-10-22T01:01:07Z</time>
</trkpt>
<trkpt lat="36.8868408203125" lon="-118.6102523803711">
<ele>3092</ele>
<time>2016-10-22T01:01:16Z</time>
</trkpt>
<trkpt lat="36.88673400878906" lon="-118.61026763916016">
<ele>3090</ele>
<time>2016-10-22T01:01:22Z</time>
</trkpt>
<trkpt lat="36.88665008544922" lon="-118.61029815673828">
<ele>3092</ele>
<time>2016-10-22T01:01:30Z</time>
</trkpt>
<trkpt lat="36.88654708862305" lon="-118.61033630371094">
<ele>3093</ele>
<time>2016-10-22T01:01:36Z</time>
</trkpt>
<trkpt lat="36.88646697998047" lon="-118.61027526855469">
<ele>3093</ele>
<time>2016-10-22T01:01:46Z</time>
</trkpt>
<trkpt lat="36.88637924194336" lon="-118.61023712158203">
<ele>3097</ele>
<time>2016-10-22T01:01:55Z</time>
</trkpt>
<trkpt lat="36.88633728027344" lon="-118.61019897460938">
<ele>3098</ele>
<time>2016-10-22T01:02:01Z</time>
</trkpt>
<trkpt lat="36.88624572753906" lon="-118.61016082763672">
<ele>3103</ele>
<time>2016-10-22T01:02:11Z</time>
</trkpt>
<trkpt lat="36.886146545410156" lon="-118.61018371582031">
<ele>3102</ele>
<time>2016-10-22T01:02:19Z</time>
</trkpt>
<trkpt lat="36.88603210449219" lon="-118.6102066040039">
<ele>3099</ele>
<time>2016-10-22T01:02:27Z</time>
</trkpt>
<trkpt lat="36.88592529296875" lon="-118.61022186279297">
<ele>3102</ele>
<time>2016-10-22T01:02:38Z</time>
</trkpt>
<trkpt lat="36.88587188720703" lon="-118.6102294921875">
<ele>3100</ele>
<time>2016-10-22T01:02:44Z</time>
</trkpt>
<trkpt lat="36.885807037353516" lon="-118.61031341552734">
<ele>3092</ele>
<time>2016-10-22T01:02:52Z</time>
</trkpt>
<trkpt lat="36.88572311401367" lon="-118.61038208007813">
<ele>3094</ele>
<time>2016-10-22T01:03:00Z</time>
</trkpt>
<trkpt lat="36.885616302490234" lon="-118.6103744506836">
<ele>3096</ele>
<time>2016-10-22T01:03:09Z</time>
</trkpt>
<trkpt lat="36.88557052612305" lon="-118.61035919189453">
<ele>3102</ele>
<time>2016-10-22T01:03:29Z</time>
</trkpt>
<trkpt lat="36.88547134399414" lon="-118.61040496826172">
<ele>3099</ele>
<time>2016-10-22T01:03:37Z</time>
</trkpt>
<trkpt lat="36.885353088378906" lon="-118.61042785644531">
<ele>3096</ele>
<time>2016-10-22T01:03:44Z</time>
</trkpt>
<trkpt lat="36.8852424621582" lon="-118.61042785644531">
<ele>3089</ele>
<time>2016-10-22T01:03:50Z</time>
</trkpt>
<trkpt lat="36.88513946533203" lon="-118.61042022705078">
<ele>3089</ele>
<time>2016-10-22T01:03:57Z</time>
</trkpt>
<trkpt lat="36.88504409790039" lon="-118.61042785644531">
<ele>3099</ele>
<time>2016-10-22T01:04:08Z</time>
</trkpt>
<trkpt lat="36.884944915771484" lon="-118.61038970947266">
<ele>3098</ele>
<time>2016-10-22T01:04:19Z</time>
</trkpt>
<trkpt lat="36.88485336303711" lon="-118.61034393310547">
<ele>3098</ele>
<time>2016-10-22T01:04:29Z</time>
</trkpt>
</trkseg>
</trk>
<trk>
<name><![CDATA[10211817]]></name>
<number>66</number>
<extensions><topografix:color>ff000066</topografix:color></extensions>
<trkseg>
<trkpt lat="36.8804817199707" lon="-118.60859680175781">
<ele>3159</ele>
<time>2016-10-22T01:17:37Z</time>
</trkpt>
<trkpt lat="36.88044738769531" lon="-118.608642578125">
<ele>3164</ele>
<time>2016-10-22T01:17:58Z</time>
</trkpt>
<trkpt lat="36.88036346435547" lon="-118.60868835449219">
<ele>3165</ele>
<time>2016-10-22T01:18:08Z</time>
</trkpt>
<trkpt lat="36.88035583496094" lon="-118.60856628417969">
<ele>3159</ele>
<time>2016-10-22T01:18:18Z</time>
</trkpt>
<trkpt lat="36.88036346435547" lon="-118.60850524902344">
<ele>3157</ele>
<time>2016-10-22T01:18:27Z</time>
</trkpt>
<trkpt lat="36.88035583496094" lon="-118.60838317871094">
<ele>3161</ele>
<time>2016-10-22T01:18:35Z</time>
</trkpt>
<trkpt lat="36.880313873291016" lon="-118.6083984375">
<ele>3161</ele>
<time>2016-10-22T01:18:41Z</time>
</trkpt>
<trkpt lat="36.88028335571289" lon="-118.60844421386719">
<ele>3162</ele>
<time>2016-10-22T01:18:48Z</time>
</trkpt>
<trkpt lat="36.8802375793457" lon="-118.60855865478516">
<ele>3163</ele>
<time>2016-10-22T01:18:58Z</time>
</trkpt>
<trkpt lat="36.88017272949219" lon="-118.60865783691406">
<ele>3167</ele>
<time>2016-10-22T01:19:07Z</time>
</trkpt>
<trkpt lat="36.880096435546875" lon="-118.60874938964844">
<ele>3167</ele>
<time>2016-10-22T01:19:17Z</time>
</trkpt>
<trkpt lat="36.8801155090332" lon="-118.60880279541016">
<ele>3168</ele>
<time>2016-10-22T01:19:23Z</time>
</trkpt>
<trkpt lat="36.8801155090332" lon="-118.6088638305664">
<ele>3171</ele>
<time>2016-10-22T01:19:29Z</time>
</trkpt>
<trkpt lat="36.880096435546875" lon="-118.60891723632813">
<ele>3174</ele>
<time>2016-10-22T01:19:35Z</time>
</trkpt>
<trkpt lat="36.88007736206055" lon="-118.60897827148438">
<ele>3179</ele>
<time>2016-10-22T01:19:52Z</time>
</trkpt>
<trkpt lat="36.8800163269043" lon="-118.60906982421875">
<ele>3179</ele>
<time>2016-10-22T01:20:01Z</time>
</trkpt>
<trkpt lat="36.87994384765625" lon="-118.6091537475586">
<ele>3174</ele>
<time>2016-10-22T01:20:15Z</time>
</trkpt>
<trkpt lat="36.87995147705078" lon="-118.60921478271484">
<ele>3175</ele>
<time>2016-10-22T01:20:25Z</time>
</trkpt>
<trkpt lat="36.879913330078125" lon="-118.60926055908203">
<ele>3181</ele>
<time>2016-10-22T01:20:36Z</time>
</trkpt>
<trkpt lat="36.87987518310547" lon="-118.60931396484375">
<ele>3179</ele>
<time>2016-10-22T01:20:42Z</time>
</trkpt>
<trkpt lat="36.8798713684082" lon="-118.60938262939453">
<ele>3183</ele>
<time>2016-10-22T01:20:48Z</time>
</trkpt>
<trkpt lat="36.87987518310547" lon="-118.60944366455078">
<ele>3184</ele>
<time>2016-10-22T01:20:55Z</time>
</trkpt>
<trkpt lat="36.87986755371094" lon="-118.60950469970703">
<ele>3184</ele>
<time>2016-10-22T01:21:01Z</time>
</trkpt>
<trkpt lat="36.8798713684082" lon="-118.60956573486328">
<ele>3187</ele>
<time>2016-10-22T01:21:10Z</time>
</trkpt>
<trkpt lat="36.87982940673828" lon="-118.60952758789063">
<ele>3190</ele>
<time>2016-10-22T01:21:17Z</time>
</trkpt>
<trkpt lat="36.87979507446289" lon="-118.60948944091797">
<ele>3188</ele>
<time>2016-10-22T01:21:34Z</time>
</trkpt>
<trkpt lat="36.879756927490234" lon="-118.60952758789063">
<ele>3187</ele>
<time>2016-10-22T01:21:40Z</time>
</trkpt>
<trkpt lat="36.87971115112305" lon="-118.6095199584961">
<ele>3191</ele>
<time>2016-10-22T01:21:47Z</time>
</trkpt>
<trkpt lat="36.879669189453125" lon="-118.6094741821289">
<ele>3192</ele>
<time>2016-10-22T01:21:53Z</time>
</trkpt>
<trkpt lat="36.87958908081055" lon="-118.60940551757813">
<ele>3196</ele>
<time>2016-10-22T01:21:59Z</time>
</trkpt>
<trkpt lat="36.879539489746094" lon="-118.60939025878906">
<ele>3194</ele>
<time>2016-10-22T01:22:05Z</time>
</trkpt>
<trkpt lat="36.87949752807617" lon="-118.60936737060547">
<ele>3197</ele>
<time>2016-10-22T01:22:11Z</time>
</trkpt>
<trkpt lat="36.879451751708984" lon="-118.60939025878906">
<ele>3197</ele>
<time>2016-10-22T01:22:18Z</time>
</trkpt>
<trkpt lat="36.8794059753418" lon="-118.60935974121094">
<ele>3202</ele>
<time>2016-10-22T01:22:24Z</time>
</trkpt>
<trkpt lat="36.87936782836914" lon="-118.6093978881836">
<ele>3202</ele>
<time>2016-10-22T01:22:31Z</time>
</trkpt>
<trkpt lat="36.8793830871582" lon="-118.60948944091797">
<ele>3198</ele>
<time>2016-10-22T01:22:37Z</time>
</trkpt>
<trkpt lat="36.879356384277344" lon="-118.60960388183594">
<ele>3196</ele>
<time>2016-10-22T01:22:46Z</time>
</trkpt>
<trkpt lat="36.87931823730469" lon="-118.6096420288086">
<ele>3202</ele>
<time>2016-10-22T01:22:53Z</time>
</trkpt>
<trkpt lat="36.87929916381836" lon="-118.60969543457031">
<ele>3198</ele>
<time>2016-10-22T01:23:02Z</time>
</trkpt>
<trkpt lat="36.87919235229492" lon="-118.6097183227539">
<ele>3199</ele>
<time>2016-10-22T01:23:14Z</time>
</trkpt>
<trkpt lat="36.87910842895508" lon="-118.60972595214844">
<ele>3202</ele>
<time>2016-10-22T01:23:29Z</time>
</trkpt>
<trkpt lat="36.87911605834961" lon="-118.60978698730469">
<ele>3200</ele>
<time>2016-10-22T01:23:36Z</time>
</trkpt>
<trkpt lat="36.87908935546875" lon="-118.60985565185547">
<ele>3198</ele>
<time>2016-10-22T01:23:47Z</time>
</trkpt>
<trkpt lat="36.87905502319336" lon="-118.60989379882813">
<ele>3200</ele>
<time>2016-10-22T01:23:54Z</time>
</trkpt>
<trkpt lat="36.87901306152344" lon="-118.60992431640625">
<ele>3202</ele>
<time>2016-10-22T01:24:06Z</time>
</trkpt>
<trkpt lat="36.87896728515625" lon="-118.60993957519531">
<ele>3206</ele>
<time>2016-10-22T01:24:15Z</time>
</trkpt>
<trkpt lat="36.87895202636719" lon="-118.61000061035156">
<ele>3207</ele>
<time>2016-10-22T01:24:21Z</time>
</trkpt>
<trkpt lat="36.87890625" lon="-118.61011505126953">
<ele>3214</ele>
<time>2016-10-22T01:24:32Z</time>
</trkpt>
<trkpt lat="36.878814697265625" lon="-118.61018371582031">
<ele>3217</ele>
<time>2016-10-22T01:24:43Z</time>
</trkpt>
<trkpt lat="36.87874221801758" lon="-118.61026000976563">
<ele>3216</ele>
<time>2016-10-22T01:24:53Z</time>
</trkpt>
<trkpt lat="36.87865447998047" lon="-118.6103515625">
<ele>3218</ele>
<time>2016-10-22T01:25:02Z</time>
</trkpt>
<trkpt lat="36.87855911254883" lon="-118.61038208007813">
<ele>3214</ele>
<time>2016-10-22T01:25:11Z</time>
</trkpt>
<trkpt lat="36.87850570678711" lon="-118.61038970947266">
<ele>3221</ele>
<time>2016-10-22T01:25:19Z</time>
</trkpt>
<trkpt lat="36.87846755981445" lon="-118.61043548583984">
<ele>3222</ele>
<time>2016-10-22T01:25:27Z</time>
</trkpt>
<trkpt lat="36.8784294128418" lon="-118.6104736328125">
<ele>3221</ele>
<time>2016-10-22T01:25:34Z</time>
</trkpt>
<trkpt lat="36.878379821777344" lon="-118.61052703857422">
<ele>3224</ele>
<time>2016-10-22T01:25:41Z</time>
</trkpt>
<trkpt lat="36.87833786010742" lon="-118.61055755615234">
<ele>3221</ele>
<time>2016-10-22T01:25:47Z</time>
</trkpt>
<trkpt lat="36.87827682495117" lon="-118.61066436767578">
<ele>3218</ele>
<time>2016-10-22T01:25:58Z</time>
</trkpt>
<trkpt lat="36.878238677978516" lon="-118.61077880859375">
<ele>3216</ele>
<time>2016-10-22T01:26:06Z</time>
</trkpt>
<trkpt lat="36.87818145751953" lon="-118.61087799072266">
<ele>3220</ele>
<time>2016-10-22T01:26:12Z</time>
</trkpt>
<trkpt lat="36.87810516357422" lon="-118.61097717285156">
<ele>3222</ele>
<time>2016-10-22T01:26:18Z</time>
</trkpt>
<trkpt lat="36.87804412841797" lon="-118.6110610961914">
<ele>3223</ele>
<time>2016-10-22T01:26:24Z</time>
</trkpt>
<trkpt lat="36.87799072265625" lon="-118.61107635498047">
<ele>3221</ele>
<time>2016-10-22T01:26:37Z</time>
</trkpt>
<trkpt lat="36.87794494628906" lon="-118.6110610961914">
<ele>3224</ele>
<time>2016-10-22T01:27:04Z</time>
</trkpt>
<trkpt lat="36.877830505371094" lon="-118.61109924316406">
<ele>3223</ele>
<time>2016-10-22T01:27:11Z</time>
</trkpt>
<trkpt lat="36.87773132324219" lon="-118.61116027832031">
<ele>3225</ele>
<time>2016-10-22T01:27:18Z</time>
</trkpt>
<trkpt lat="36.877628326416016" lon="-118.61114501953125">
<ele>3221</ele>
<time>2016-10-22T01:27:26Z</time>
</trkpt>
<trkpt lat="36.87752914428711" lon="-118.61112976074219">
<ele>3216</ele>
<time>2016-10-22T01:27:35Z</time>
</trkpt>
<trkpt lat="36.87746047973633" lon="-118.6111068725586">
<ele>3215</ele>
<time>2016-10-22T01:27:42Z</time>
</trkpt>
<trkpt lat="36.87736129760742" lon="-118.6111068725586">
<ele>3214</ele>
<time>2016-10-22T01:27:48Z</time>
</trkpt>
<trkpt lat="36.87725830078125" lon="-118.611083984375">
<ele>3214</ele>
<time>2016-10-22T01:27:57Z</time>
</trkpt>
<trkpt lat="36.87716293334961" lon="-118.61104583740234">
<ele>3214</ele>
<time>2016-10-22T01:28:06Z</time>
</trkpt>
<trkpt lat="36.87704849243164" lon="-118.61107635498047">
<ele>3216</ele>
<time>2016-10-22T01:28:13Z</time>
</trkpt>
<trkpt lat="36.87699508666992" lon="-118.61107635498047">
<ele>3214</ele>
<time>2016-10-22T01:28:21Z</time>
</trkpt>
<trkpt lat="36.87689971923828" lon="-118.61106872558594">
<ele>3213</ele>
<time>2016-10-22T01:28:29Z</time>
</trkpt>
<trkpt lat="36.87679672241211" lon="-118.61111450195313">
<ele>3209</ele>
<time>2016-10-22T01:28:35Z</time>
</trkpt>
<trkpt lat="36.876731872558594" lon="-118.61117553710938">
<ele>3203</ele>
<time>2016-10-22T01:28:41Z</time>
</trkpt>
<trkpt lat="36.87663650512695" lon="-118.61121368408203">
<ele>3201</ele>
<time>2016-10-22T01:28:50Z</time>
</trkpt>
<trkpt lat="36.87653732299805" lon="-118.61126708984375">
<ele>3200</ele>
<time>2016-10-22T01:28:58Z</time>
</trkpt>
<trkpt lat="36.876399993896484" lon="-118.61122131347656">
<ele>3200</ele>
<time>2016-10-22T01:29:07Z</time>
</trkpt>
<trkpt lat="36.87629318237305" lon="-118.61117553710938">
<ele>3199</ele>
<time>2016-10-22T01:29:16Z</time>
</trkpt>
<trkpt lat="36.87614822387695" lon="-118.61115264892578">
<ele>3198</ele>
<time>2016-10-22T01:29:25Z</time>
</trkpt>
<trkpt lat="36.87602615356445" lon="-118.61117553710938">
<ele>3193</ele>
<time>2016-10-22T01:29:33Z</time>
</trkpt>
<trkpt lat="36.87593078613281" lon="-118.61124420166016">
<ele>3193</ele>
<time>2016-10-22T01:29:41Z</time>
</trkpt>
<trkpt lat="36.8758430480957" lon="-118.61129760742188">
<ele>3190</ele>
<time>2016-10-22T01:29:49Z</time>
</trkpt>
<trkpt lat="36.87575149536133" lon="-118.61134338378906">
<ele>3188</ele>
<time>2016-10-22T01:29:57Z</time>
</trkpt>
<trkpt lat="36.87566375732422" lon="-118.61138153076172">
<ele>3185</ele>
<time>2016-10-22T01:30:07Z</time>
</trkpt>
<trkpt lat="36.87557601928711" lon="-118.61134338378906">
<ele>3184</ele>
<time>2016-10-22T01:30:14Z</time>
</trkpt>
<trkpt lat="36.875511169433594" lon="-118.61125946044922">
<ele>3181</ele>
<time>2016-10-22T01:30:25Z</time>
</trkpt>
<trkpt lat="36.87547302246094" lon="-118.61136627197266">
<ele>3183</ele>
<time>2016-10-22T01:30:34Z</time>
</trkpt>
<trkpt lat="36.87541961669922" lon="-118.61144256591797">
<ele>3176</ele>
<time>2016-10-22T01:30:44Z</time>
</trkpt>
<trkpt lat="36.875370025634766" lon="-118.611328125">
<ele>3172</ele>
<time>2016-10-22T01:30:52Z</time>
</trkpt>
<trkpt lat="36.87532043457031" lon="-118.6112289428711">
<ele>3171</ele>
<time>2016-10-22T01:31:03Z</time>
</trkpt>
<trkpt lat="36.87528991699219" lon="-118.6111068725586">
<ele>3169</ele>
<time>2016-10-22T01:31:13Z</time>
</trkpt>
<trkpt lat="36.8752326965332" lon="-118.611083984375">
<ele>3166</ele>
<time>2016-10-22T01:31:20Z</time>
</trkpt>
<trkpt lat="36.87520217895508" lon="-118.61119079589844">
<ele>3164</ele>
<time>2016-10-22T01:31:29Z</time>
</trkpt>
<trkpt lat="36.875118255615234" lon="-118.61116790771484">
<ele>3166</ele>
<time>2016-10-22T01:31:37Z</time>
</trkpt>
<trkpt lat="36.87510299682617" lon="-118.6111068725586">
<ele>3164</ele>
<time>2016-10-22T01:31:43Z</time>
</trkpt>
<trkpt lat="36.87504577636719" lon="-118.61100769042969">
<ele>3161</ele>
<time>2016-10-22T01:31:53Z</time>
</trkpt>
<trkpt lat="36.875003814697266" lon="-118.6109848022461">
<ele>3162</ele>
<time>2016-10-22T01:31:59Z</time>
</trkpt>
<trkpt lat="36.87495422363281" lon="-118.61099243164063">
<ele>3162</ele>
<time>2016-10-22T01:32:06Z</time>
</trkpt>
<trkpt lat="36.874908447265625" lon="-118.61100006103516">
<ele>3159</ele>
<time>2016-10-22T01:32:13Z</time>
</trkpt>
<trkpt lat="36.874874114990234" lon="-118.61106872558594">
<ele>3157</ele>
<time>2016-10-22T01:32:21Z</time>
</trkpt>
<trkpt lat="36.87479019165039" lon="-118.61106872558594">
<ele>3157</ele>
<time>2016-10-22T01:32:30Z</time>
</trkpt>
<trkpt lat="36.874725341796875" lon="-118.61101531982422">
<ele>3157</ele>
<time>2016-10-22T01:32:37Z</time>
</trkpt>
<trkpt lat="36.8746452331543" lon="-118.61104583740234">
<ele>3152</ele>
<time>2016-10-22T01:32:50Z</time>
</trkpt>
<trkpt lat="36.87458419799805" lon="-118.61104583740234">
<ele>3152</ele>
<time>2016-10-22T01:32:56Z</time>
</trkpt>
<trkpt lat="36.874534606933594" lon="-118.61102294921875">
<ele>3148</ele>
<time>2016-10-22T01:33:02Z</time>
</trkpt>
<trkpt lat="36.87444305419922" lon="-118.61097717285156">
<ele>3146</ele>
<time>2016-10-22T01:33:09Z</time>
</trkpt>
<trkpt lat="36.874351501464844" lon="-118.61094665527344">
<ele>3141</ele>
<time>2016-10-22T01:33:22Z</time>
</trkpt>
<trkpt lat="36.87430191040039" lon="-118.61093139648438">
<ele>3136</ele>
<time>2016-10-22T01:33:28Z</time>
</trkpt>
<trkpt lat="36.87437057495117" lon="-118.61103057861328">
<ele>3130</ele>
<time>2016-10-22T01:33:35Z</time>
</trkpt>
<trkpt lat="36.874298095703125" lon="-118.61097717285156">
<ele>3129</ele>
<time>2016-10-22T01:33:54Z</time>
</trkpt>
<trkpt lat="36.87419891357422" lon="-118.61091613769531">
<ele>3132</ele>
<time>2016-10-22T01:34:02Z</time>
</trkpt>
<trkpt lat="36.87411880493164" lon="-118.61085510253906">
<ele>3132</ele>
<time>2016-10-22T01:34:08Z</time>
</trkpt>
<trkpt lat="36.874019622802734" lon="-118.6108169555664">
<ele>3128</ele>
<time>2016-10-22T01:34:16Z</time>
</trkpt>
<trkpt lat="36.87406921386719" lon="-118.61092376708984">
<ele>3123</ele>
<time>2016-10-22T01:34:24Z</time>
</trkpt>
<trkpt lat="36.87410354614258" lon="-118.61096954345703">
<ele>3122</ele>
<time>2016-10-22T01:34:31Z</time>
</trkpt>
<trkpt lat="36.87403869628906" lon="-118.6109848022461">
<ele>3123</ele>
<time>2016-10-22T01:34:45Z</time>
</trkpt>
<trkpt lat="36.87394714355469" lon="-118.6109390258789">
<ele>3124</ele>
<time>2016-10-22T01:34:56Z</time>
</trkpt>
<trkpt lat="36.87384796142578" lon="-118.61089324951172">
<ele>3124</ele>
<time>2016-10-22T01:35:05Z</time>
</trkpt>
<trkpt lat="36.873863220214844" lon="-118.61094665527344">
<ele>3121</ele>
<time>2016-10-22T01:35:22Z</time>
</trkpt>
<trkpt lat="36.87380599975586" lon="-118.6109390258789">
<ele>3117</ele>
<time>2016-10-22T01:35:28Z</time>
</trkpt>
<trkpt lat="36.87376022338867" lon="-118.61092376708984">
<ele>3112</ele>
<time>2016-10-22T01:35:34Z</time>
</trkpt>
<trkpt lat="36.87371063232422" lon="-118.6108627319336">
<ele>3106</ele>
<time>2016-10-22T01:35:43Z</time>
</trkpt>
<trkpt lat="36.87372589111328" lon="-118.61099243164063">
<ele>3104</ele>
<time>2016-10-22T01:35:51Z</time>
</trkpt>
<trkpt lat="36.873695373535156" lon="-118.61104583740234">
<ele>3105</ele>
<time>2016-10-22T01:35:59Z</time>
</trkpt>
<trkpt lat="36.873634338378906" lon="-118.61114501953125">
<ele>3099</ele>
<time>2016-10-22T01:36:07Z</time>
</trkpt>
<trkpt lat="36.87354278564453" lon="-118.61119842529297">
<ele>3102</ele>
<time>2016-10-22T01:36:19Z</time>
</trkpt>
<trkpt lat="36.87343978881836" lon="-118.6112289428711">
<ele>3101</ele>
<time>2016-10-22T01:36:28Z</time>
</trkpt>
<trkpt lat="36.87334060668945" lon="-118.61121368408203">
<ele>3104</ele>
<time>2016-10-22T01:36:37Z</time>
</trkpt>
<trkpt lat="36.87333679199219" lon="-118.61114501953125">
<ele>3102</ele>
<time>2016-10-22T01:36:45Z</time>
</trkpt>
<trkpt lat="36.87331771850586" lon="-118.61102294921875">
<ele>3101</ele>
<time>2016-10-22T01:36:54Z</time>
</trkpt>
<trkpt lat="36.87322998046875" lon="-118.6109619140625">
<ele>3098</ele>
<time>2016-10-22T01:37:03Z</time>
</trkpt>
<trkpt lat="36.87312698364258" lon="-118.61095428466797">
<ele>3095</ele>
<time>2016-10-22T01:37:13Z</time>
</trkpt>
<trkpt lat="36.873023986816406" lon="-118.61101531982422">
<ele>3094</ele>
<time>2016-10-22T01:37:21Z</time>
</trkpt>
<trkpt lat="36.87293243408203" lon="-118.61105346679688">
<ele>3093</ele>
<time>2016-10-22T01:37:29Z</time>
</trkpt>
<trkpt lat="36.87290954589844" lon="-118.61109924316406">
<ele>3085</ele>
<time>2016-10-22T01:37:35Z</time>
</trkpt>
<trkpt lat="36.872833251953125" lon="-118.61116027832031">
<ele>3083</ele>
<time>2016-10-22T01:37:41Z</time>
</trkpt>
<trkpt lat="36.8727912902832" lon="-118.6111831665039">
<ele>3087</ele>
<time>2016-10-22T01:37:47Z</time>
</trkpt>
<trkpt lat="36.8726806640625" lon="-118.61123657226563">
<ele>3089</ele>
<time>2016-10-22T01:37:54Z</time>
</trkpt>
<trkpt lat="36.872589111328125" lon="-118.6112060546875">
<ele>3088</ele>
<time>2016-10-22T01:38:01Z</time>
</trkpt>
<trkpt lat="36.87253189086914" lon="-118.61119842529297">
<ele>3087</ele>
<time>2016-10-22T01:38:08Z</time>
</trkpt>
<trkpt lat="36.872432708740234" lon="-118.61117553710938">
<ele>3087</ele>
<time>2016-10-22T01:38:15Z</time>
</trkpt>
<trkpt lat="36.872398376464844" lon="-118.61107635498047">
<ele>3090</ele>
<time>2016-10-22T01:38:25Z</time>
</trkpt>
<trkpt lat="36.872344970703125" lon="-118.61103057861328">
<ele>3085</ele>
<time>2016-10-22T01:39:17Z</time>
</trkpt>
<trkpt lat="36.872257232666016" lon="-118.61101531982422">
<ele>3088</ele>
<time>2016-10-22T01:39:41Z</time>
</trkpt>
<trkpt lat="36.87217712402344" lon="-118.6109619140625">
<ele>3085</ele>
<time>2016-10-22T01:39:51Z</time>
</trkpt>
<trkpt lat="36.87208938598633" lon="-118.61090850830078">
<ele>3086</ele>
<time>2016-10-22T01:40:05Z</time>
</trkpt>
<trkpt lat="36.87198257446289" lon="-118.61089324951172">
<ele>3082</ele>
<time>2016-10-22T01:40:14Z</time>
</trkpt>
<trkpt lat="36.87187194824219" lon="-118.61090087890625">
<ele>3083</ele>
<time>2016-10-22T01:40:21Z</time>
</trkpt>
<trkpt lat="36.87177276611328" lon="-118.61093139648438">
<ele>3080</ele>
<time>2016-10-22T01:40:28Z</time>
</trkpt>
<trkpt lat="36.871681213378906" lon="-118.61091613769531">
<ele>3076</ele>
<time>2016-10-22T01:40:37Z</time>
</trkpt>
<trkpt lat="36.871585845947266" lon="-118.6108627319336">
<ele>3075</ele>
<time>2016-10-22T01:40:45Z</time>
</trkpt>
<trkpt lat="36.87147521972656" lon="-118.61077880859375">
<ele>3077</ele>
<time>2016-10-22T01:40:51Z</time>
</trkpt>
<trkpt lat="36.871376037597656" lon="-118.61073303222656">
<ele>3078</ele>
<time>2016-10-22T01:40:57Z</time>
</trkpt>
<trkpt lat="36.871341705322266" lon="-118.6106185913086">
<ele>3075</ele>
<time>2016-10-22T01:41:05Z</time>
</trkpt>
<trkpt lat="36.87129211425781" lon="-118.61051940917969">
<ele>3076</ele>
<time>2016-10-22T01:41:12Z</time>
</trkpt>
<trkpt lat="36.87124252319336" lon="-118.61042022705078">
<ele>3075</ele>
<time>2016-10-22T01:41:20Z</time>
</trkpt>
<trkpt lat="36.87117385864258" lon="-118.61033630371094">
<ele>3076</ele>
<time>2016-10-22T01:41:29Z</time>
</trkpt>
<trkpt lat="36.87106704711914" lon="-118.61033630371094">
<ele>3073</ele>
<time>2016-10-22T01:41:36Z</time>
</trkpt>
<trkpt lat="36.87102127075195" lon="-118.61028289794922">
<ele>3070</ele>
<time>2016-10-22T01:41:42Z</time>
</trkpt>
<trkpt lat="36.87094497680664" lon="-118.61017608642578">
<ele>3072</ele>
<time>2016-10-22T01:41:51Z</time>
</trkpt>
<trkpt lat="36.87092208862305" lon="-118.61005401611328">
<ele>3076</ele>
<time>2016-10-22T01:42:00Z</time>
</trkpt>
<trkpt lat="36.87085723876953" lon="-118.60994720458984">
<ele>3073</ele>
<time>2016-10-22T01:42:07Z</time>
</trkpt>
<trkpt lat="36.87080764770508" lon="-118.60985565185547">
<ele>3071</ele>
<time>2016-10-22T01:42:13Z</time>
</trkpt>
<trkpt lat="36.87071228027344" lon="-118.60981750488281">
<ele>3071</ele>
<time>2016-10-22T01:42:20Z</time>
</trkpt>
<trkpt lat="36.87059783935547" lon="-118.60978698730469">
<ele>3070</ele>
<time>2016-10-22T01:42:27Z</time>
</trkpt>
<trkpt lat="36.87049102783203" lon="-118.6097412109375">
<ele>3061</ele>
<time>2016-10-22T01:42:37Z</time>
</trkpt>
<trkpt lat="36.87039566040039" lon="-118.60977172851563">
<ele>3060</ele>
<time>2016-10-22T01:42:45Z</time>
</trkpt>
<trkpt lat="36.870296478271484" lon="-118.60979461669922">
<ele>3062</ele>
<time>2016-10-22T01:42:54Z</time>
</trkpt>
<trkpt lat="36.87019729614258" lon="-118.60983276367188">
<ele>3058</ele>
<time>2016-10-22T01:43:02Z</time>
</trkpt>
<trkpt lat="36.87010955810547" lon="-118.60987854003906">
<ele>3060</ele>
<time>2016-10-22T01:43:10Z</time>
</trkpt>
<trkpt lat="36.87000274658203" lon="-118.6098861694336">
<ele>3062</ele>
<time>2016-10-22T01:43:20Z</time>
</trkpt>
<trkpt lat="36.869895935058594" lon="-118.60987091064453">
<ele>3062</ele>
<time>2016-10-22T01:43:29Z</time>
</trkpt>
<trkpt lat="36.869781494140625" lon="-118.60985565185547">
<ele>3060</ele>
<time>2016-10-22T01:43:37Z</time>
</trkpt>
<trkpt lat="36.86968994140625" lon="-118.60981750488281">
<ele>3060</ele>
<time>2016-10-22T01:43:50Z</time>
</trkpt>
<trkpt lat="36.8696403503418" lon="-118.60981750488281">
<ele>3063</ele>
<time>2016-10-22T01:44:03Z</time>
</trkpt>
<trkpt lat="36.86959457397461" lon="-118.60980987548828">
<ele>3061</ele>
<time>2016-10-22T01:44:10Z</time>
</trkpt>
<trkpt lat="36.86955642700195" lon="-118.6097640991211">
<ele>3062</ele>
<time>2016-10-22T01:44:16Z</time>
</trkpt>
<trkpt lat="36.869510650634766" lon="-118.60975646972656">
<ele>3060</ele>
<time>2016-10-22T01:44:22Z</time>
</trkpt>
<trkpt lat="36.86941909790039" lon="-118.6097640991211">
<ele>3056</ele>
<time>2016-10-22T01:44:31Z</time>
</trkpt>
<trkpt lat="36.86930465698242" lon="-118.6097640991211">
<ele>3058</ele>
<time>2016-10-22T01:44:37Z</time>
</trkpt>
<trkpt lat="36.86919021606445" lon="-118.6097640991211">
<ele>3054</ele>
<time>2016-10-22T01:44:44Z</time>
</trkpt>
<trkpt lat="36.869083404541016" lon="-118.6097640991211">
<ele>3055</ele>
<time>2016-10-22T01:44:51Z</time>
</trkpt>
<trkpt lat="36.86898422241211" lon="-118.60977935791016">
<ele>3058</ele>
<time>2016-10-22T01:44:58Z</time>
</trkpt>
<trkpt lat="36.86894989013672" lon="-118.60982513427734">
<ele>3052</ele>
<time>2016-10-22T01:45:04Z</time>
</trkpt>
<trkpt lat="36.868865966796875" lon="-118.60987854003906">
<ele>3055</ele>
<time>2016-10-22T01:45:12Z</time>
</trkpt>
<trkpt lat="36.86875915527344" lon="-118.60993194580078">
<ele>3057</ele>
<time>2016-10-22T01:45:20Z</time>
</trkpt>
<trkpt lat="36.868717193603516" lon="-118.60997009277344">
<ele>3057</ele>
<time>2016-10-22T01:45:26Z</time>
</trkpt>
<trkpt lat="36.868629455566406" lon="-118.60994720458984">
<ele>3053</ele>
<time>2016-10-22T01:45:33Z</time>
</trkpt>
<trkpt lat="36.868534088134766" lon="-118.60992431640625">
<ele>3053</ele>
<time>2016-10-22T01:45:41Z</time>
</trkpt>
<trkpt lat="36.86843490600586" lon="-118.60992431640625">
<ele>3051</ele>
<time>2016-10-22T01:45:48Z</time>
</trkpt>
<trkpt lat="36.86833572387695" lon="-118.60989379882813">
<ele>3052</ele>
<time>2016-10-22T01:45:56Z</time>
</trkpt>
<trkpt lat="36.868247985839844" lon="-118.60991668701172">
<ele>3052</ele>
<time>2016-10-22T01:46:02Z</time>
</trkpt>
<trkpt lat="36.8681640625" lon="-118.60997772216797">
<ele>3045</ele>
<time>2016-10-22T01:46:10Z</time>
</trkpt>
<trkpt lat="36.86811828613281" lon="-118.60999298095703">
<ele>3045</ele>
<time>2016-10-22T01:46:16Z</time>
</trkpt>
<trkpt lat="36.868080139160156" lon="-118.61003875732422">
<ele>3048</ele>
<time>2016-10-22T01:46:23Z</time>
</trkpt>
<trkpt lat="36.86799621582031" lon="-118.61009216308594">
<ele>3046</ele>
<time>2016-10-22T01:46:32Z</time>
</trkpt>
<trkpt lat="36.867923736572266" lon="-118.61006164550781">
<ele>3042</ele>
<time>2016-10-22T01:46:42Z</time>
</trkpt>
<trkpt lat="36.86783218383789" lon="-118.61002349853516">
<ele>3044</ele>
<time>2016-10-22T01:46:51Z</time>
</trkpt>
<trkpt lat="36.86772155761719" lon="-118.6099853515625">
<ele>3041</ele>
<time>2016-10-22T01:46:59Z</time>
</trkpt>
<trkpt lat="36.86760711669922" lon="-118.60995483398438">
<ele>3034</ele>
<time>2016-10-22T01:47:05Z</time>
</trkpt>
<trkpt lat="36.86751174926758" lon="-118.60993194580078">
<ele>3032</ele>
<time>2016-10-22T01:47:16Z</time>
</trkpt>
<trkpt lat="36.867435455322266" lon="-118.6100082397461">
<ele>3030</ele>
<time>2016-10-22T01:47:25Z</time>
</trkpt>
<trkpt lat="36.867347717285156" lon="-118.60997772216797">
<ele>3024</ele>
<time>2016-10-22T01:47:31Z</time>
</trkpt>
<trkpt lat="36.867279052734375" lon="-118.60994720458984">
<ele>3026</ele>
<time>2016-10-22T01:47:37Z</time>
</trkpt>
<trkpt lat="36.8671760559082" lon="-118.60993957519531">
<ele>3032</ele>
<time>2016-10-22T01:47:47Z</time>
</trkpt>
<trkpt lat="36.867061614990234" lon="-118.6099624633789">
<ele>3029</ele>
<time>2016-10-22T01:47:55Z</time>
</trkpt>
<trkpt lat="36.86701965332031" lon="-118.60999298095703">
<ele>3027</ele>
<time>2016-10-22T01:48:01Z</time>
</trkpt>
<trkpt lat="36.866973876953125" lon="-118.6099853515625">
<ele>3027</ele>
<time>2016-10-22T01:48:08Z</time>
</trkpt>
<trkpt lat="36.866859436035156" lon="-118.60997009277344">
<ele>3028</ele>
<time>2016-10-22T01:48:17Z</time>
</trkpt>
<trkpt lat="36.866764068603516" lon="-118.61000061035156">
<ele>3020</ele>
<time>2016-10-22T01:48:28Z</time>
</trkpt>
<trkpt lat="36.866661071777344" lon="-118.61002349853516">
<ele>3018</ele>
<time>2016-10-22T01:48:36Z</time>
</trkpt>
<trkpt lat="36.866539001464844" lon="-118.61004638671875">
<ele>3021</ele>
<time>2016-10-22T01:48:45Z</time>
</trkpt>
<trkpt lat="36.8664436340332" lon="-118.61004638671875">
<ele>3025</ele>
<time>2016-10-22T01:48:52Z</time>
</trkpt>
<trkpt lat="36.86635208129883" lon="-118.61004638671875">
<ele>3020</ele>
<time>2016-10-22T01:48:59Z</time>
</trkpt>
<trkpt lat="36.86627197265625" lon="-118.60997772216797">
<ele>3019</ele>
<time>2016-10-22T01:49:05Z</time>
</trkpt>
<trkpt lat="36.866172790527344" lon="-118.60992431640625">
<ele>3022</ele>
<time>2016-10-22T01:49:12Z</time>
</trkpt>
<trkpt lat="36.8660888671875" lon="-118.6098403930664">
<ele>3024</ele>
<time>2016-10-22T01:49:21Z</time>
</trkpt>
<trkpt lat="36.866024017333984" lon="-118.6097412109375">
<ele>3026</ele>
<time>2016-10-22T01:49:29Z</time>
</trkpt>
<trkpt lat="36.86599349975586" lon="-118.60962677001953">
<ele>3025</ele>
<time>2016-10-22T01:49:37Z</time>
</trkpt>
<trkpt lat="36.86593246459961" lon="-118.60953521728516">
<ele>3026</ele>
<time>2016-10-22T01:49:45Z</time>
</trkpt>
<trkpt lat="36.8658447265625" lon="-118.60948181152344">
<ele>3025</ele>
<time>2016-10-22T01:49:53Z</time>
</trkpt>
<trkpt lat="36.86574935913086" lon="-118.60943603515625">
<ele>3024</ele>
<time>2016-10-22T01:49:59Z</time>
</trkpt>
<trkpt lat="36.86565017700195" lon="-118.60940551757813">
<ele>3020</ele>
<time>2016-10-22T01:50:09Z</time>
</trkpt>
<trkpt lat="36.865631103515625" lon="-118.60934448242188">
<ele>3022</ele>
<time>2016-10-22T01:50:15Z</time>
</trkpt>
<trkpt lat="36.86556625366211" lon="-118.60926055908203">
<ele>3018</ele>
<time>2016-10-22T01:50:24Z</time>
</trkpt>
<trkpt lat="36.86546325683594" lon="-118.6092529296875">
<ele>3020</ele>
<time>2016-10-22T01:50:31Z</time>
</trkpt>
<trkpt lat="36.865394592285156" lon="-118.60926818847656">
<ele>3022</ele>
<time>2016-10-22T01:50:37Z</time>
</trkpt>
<trkpt lat="36.865299224853516" lon="-118.60924530029297">
<ele>3026</ele>
<time>2016-10-22T01:50:44Z</time>
</trkpt>
<trkpt lat="36.86524963378906" lon="-118.6092300415039">
<ele>3023</ele>
<time>2016-10-22T01:50:50Z</time>
</trkpt>
<trkpt lat="36.86519241333008" lon="-118.60913848876953">
<ele>3017</ele>
<time>2016-10-22T01:50:57Z</time>
</trkpt>
<trkpt lat="36.86511993408203" lon="-118.60904693603516">
<ele>3015</ele>
<time>2016-10-22T01:51:05Z</time>
</trkpt>
<trkpt lat="36.86502456665039" lon="-118.6089859008789">
<ele>3012</ele>
<time>2016-10-22T01:51:15Z</time>
</trkpt>
<trkpt lat="36.86500930786133" lon="-118.60892486572266">
<ele>3012</ele>
<time>2016-10-22T01:51:21Z</time>
</trkpt>
<trkpt lat="36.86492156982422" lon="-118.60887145996094">
<ele>3012</ele>
<time>2016-10-22T01:51:27Z</time>
</trkpt>
<trkpt lat="36.86486053466797" lon="-118.6087646484375">
<ele>3014</ele>
<time>2016-10-22T01:51:36Z</time>
</trkpt>
<trkpt lat="36.86483383178711" lon="-118.60870361328125">
<ele>3015</ele>
<time>2016-10-22T01:51:42Z</time>
</trkpt>
<trkpt lat="36.86478042602539" lon="-118.60868072509766">
<ele>3013</ele>
<time>2016-10-22T01:51:48Z</time>
</trkpt>
<trkpt lat="36.86472702026367" lon="-118.60867309570313">
<ele>3016</ele>
<time>2016-10-22T01:51:55Z</time>
</trkpt>
<trkpt lat="36.864627838134766" lon="-118.608642578125">
<ele>3011</ele>
<time>2016-10-22T01:52:05Z</time>
</trkpt>
<trkpt lat="36.86455535888672" lon="-118.60855102539063">
<ele>3016</ele>
<time>2016-10-22T01:52:15Z</time>
</trkpt>
<trkpt lat="36.86448287963867" lon="-118.60846710205078">
<ele>3018</ele>
<time>2016-10-22T01:52:24Z</time>
</trkpt>
<trkpt lat="36.86443328857422" lon="-118.60835266113281">
<ele>3018</ele>
<time>2016-10-22T01:52:34Z</time>
</trkpt>
<trkpt lat="36.864383697509766" lon="-118.60830688476563">
<ele>3015</ele>
<time>2016-10-22T01:52:42Z</time>
</trkpt>
<trkpt lat="36.86427688598633" lon="-118.6082534790039">
<ele>3018</ele>
<time>2016-10-22T01:52:49Z</time>
</trkpt>
<trkpt lat="36.86418914794922" lon="-118.60820770263672">
<ele>3019</ele>
<time>2016-10-22T01:53:00Z</time>
</trkpt>
<trkpt lat="36.8641471862793" lon="-118.60820007324219">
<ele>3019</ele>
<time>2016-10-22T01:53:07Z</time>
</trkpt>
<trkpt lat="36.864097595214844" lon="-118.60819244384766">
<ele>3023</ele>
<time>2016-10-22T01:53:16Z</time>
</trkpt>
<trkpt lat="36.86402130126953" lon="-118.60812377929688">
<ele>3029</ele>
<time>2016-10-22T01:53:23Z</time>
</trkpt>
<trkpt lat="36.86393356323242" lon="-118.60803985595703">
<ele>3024</ele>
<time>2016-10-22T01:53:31Z</time>
</trkpt>
<trkpt lat="36.86385726928711" lon="-118.6080093383789">
<ele>3024</ele>
<time>2016-10-22T01:53:37Z</time>
</trkpt>
<trkpt lat="36.86378860473633" lon="-118.60792541503906">
<ele>3025</ele>
<time>2016-10-22T01:53:49Z</time>
</trkpt>
<trkpt lat="36.863704681396484" lon="-118.60782623291016">
<ele>3024</ele>
<time>2016-10-22T01:53:57Z</time>
</trkpt>
<trkpt lat="36.863624572753906" lon="-118.60772705078125">
<ele>3024</ele>
<time>2016-10-22T01:54:05Z</time>
</trkpt>
<trkpt lat="36.86354064941406" lon="-118.60765838623047">
<ele>3023</ele>
<time>2016-10-22T01:54:15Z</time>
</trkpt>
<trkpt lat="36.86345672607422" lon="-118.60761260986328">
<ele>3021</ele>
<time>2016-10-22T01:54:23Z</time>
</trkpt>
<trkpt lat="36.86335372924805" lon="-118.6075668334961">
<ele>3019</ele>
<time>2016-10-22T01:54:31Z</time>
</trkpt>
<trkpt lat="36.86326217651367" lon="-118.60755920410156">
<ele>3019</ele>
<time>2016-10-22T01:54:37Z</time>
</trkpt>
<trkpt lat="36.86317443847656" lon="-118.60758972167969">
<ele>3020</ele>
<time>2016-10-22T01:54:45Z</time>
</trkpt>
<trkpt lat="36.86307144165039" lon="-118.60765838623047">
<ele>3018</ele>
<time>2016-10-22T01:54:54Z</time>
</trkpt>
<trkpt lat="36.862972259521484" lon="-118.60763549804688">
<ele>3024</ele>
<time>2016-10-22T01:55:03Z</time>
</trkpt>
<trkpt lat="36.86281204223633" lon="-118.60761260986328">
<ele>3021</ele>
<time>2016-10-22T01:55:12Z</time>
</trkpt>
<trkpt lat="36.86273193359375" lon="-118.6075439453125">
<ele>3019</ele>
<time>2016-10-22T01:55:19Z</time>
</trkpt>
<trkpt lat="36.862674713134766" lon="-118.60743713378906">
<ele>3020</ele>
<time>2016-10-22T01:55:27Z</time>
</trkpt>
<trkpt lat="36.862586975097656" lon="-118.60739135742188">
<ele>3021</ele>
<time>2016-10-22T01:55:35Z</time>
</trkpt>
<trkpt lat="36.86252212524414" lon="-118.60734558105469">
<ele>3021</ele>
<time>2016-10-22T01:55:42Z</time>
</trkpt>
<trkpt lat="36.86247253417969" lon="-118.60733032226563">
<ele>3016</ele>
<time>2016-10-22T01:55:48Z</time>
</trkpt>
<trkpt lat="36.86238479614258" lon="-118.6072769165039">
<ele>3016</ele>
<time>2016-10-22T01:55:57Z</time>
</trkpt>
<trkpt lat="36.86233901977539" lon="-118.60725402832031">
<ele>3019</ele>
<time>2016-10-22T01:56:05Z</time>
</trkpt>
<trkpt lat="36.8622932434082" lon="-118.60723114013672">
<ele>3023</ele>
<time>2016-10-22T01:56:13Z</time>
</trkpt>
<trkpt lat="36.8621940612793" lon="-118.6072006225586">
<ele>3027</ele>
<time>2016-10-22T01:56:22Z</time>
</trkpt>
<trkpt lat="36.86210632324219" lon="-118.60713958740234">
<ele>3030</ele>
<time>2016-10-22T01:56:32Z</time>
</trkpt>
<trkpt lat="36.86201477050781" lon="-118.607177734375">
<ele>3029</ele>
<time>2016-10-22T01:56:41Z</time>
</trkpt>
<trkpt lat="36.86191177368164" lon="-118.60719299316406">
<ele>3025</ele>
<time>2016-10-22T01:56:49Z</time>
</trkpt>
<trkpt lat="36.86183547973633" lon="-118.60729217529297">
<ele>3022</ele>
<time>2016-10-22T01:56:56Z</time>
</trkpt>
<trkpt lat="36.86182403564453" lon="-118.60740661621094">
<ele>3022</ele>
<time>2016-10-22T01:57:07Z</time>
</trkpt>
<trkpt lat="36.86182403564453" lon="-118.60746765136719">
<ele>3022</ele>
<time>2016-10-22T01:57:14Z</time>
</trkpt>
<trkpt lat="36.86183547973633" lon="-118.60753631591797">
<ele>3017</ele>
<time>2016-10-22T01:57:56Z</time>
</trkpt>
<trkpt lat="36.861846923828125" lon="-118.60758972167969">
<ele>3022</ele>
<time>2016-10-22T01:58:02Z</time>
</trkpt>
<trkpt lat="36.86185073852539" lon="-118.6076431274414">
<ele>3024</ele>
<time>2016-10-22T01:58:12Z</time>
</trkpt>
<trkpt lat="36.861854553222656" lon="-118.60757446289063">
<ele>3021</ele>
<time>2016-10-22T01:58:31Z</time>
</trkpt>
<trkpt lat="36.86180114746094" lon="-118.60757446289063">
<ele>3023</ele>
<time>2016-10-22T01:58:45Z</time>
</trkpt>
<trkpt lat="36.86170196533203" lon="-118.60760498046875">
<ele>3026</ele>
<time>2016-10-22T01:58:53Z</time>
</trkpt>
<trkpt lat="36.86159896850586" lon="-118.60755920410156">
<ele>3027</ele>
<time>2016-10-22T01:59:02Z</time>
</trkpt>
<trkpt lat="36.861515045166016" lon="-118.60746765136719">
<ele>3027</ele>
<time>2016-10-22T01:59:11Z</time>
</trkpt>
<trkpt lat="36.86144256591797" lon="-118.60738372802734">
<ele>3031</ele>
<time>2016-10-22T01:59:31Z</time>
</trkpt>
<trkpt lat="36.86139678955078" lon="-118.60735321044922">
<ele>3031</ele>
<time>2016-10-22T01:59:44Z</time>
</trkpt>
<trkpt lat="36.86136245727539" lon="-118.6072998046875">
<ele>3035</ele>
<time>2016-10-22T01:59:51Z</time>
</trkpt>
<trkpt lat="36.86127853393555" lon="-118.60735321044922">
<ele>3036</ele>
<time>2016-10-22T01:59:59Z</time>
</trkpt>
<trkpt lat="36.86112976074219" lon="-118.60736083984375">
<ele>3042</ele>
<time>2016-10-22T02:00:06Z</time>
</trkpt>
<trkpt lat="36.861026763916016" lon="-118.60736846923828">
<ele>3036</ele>
<time>2016-10-22T02:00:14Z</time>
</trkpt>
<trkpt lat="36.8609504699707" lon="-118.60730743408203">
<ele>3036</ele>
<time>2016-10-22T02:00:21Z</time>
</trkpt>
<trkpt lat="36.860897064208984" lon="-118.60720825195313">
<ele>3036</ele>
<time>2016-10-22T02:00:27Z</time>
</trkpt>
<trkpt lat="36.860862731933594" lon="-118.60709381103516">
<ele>3033</ele>
<time>2016-10-22T02:00:34Z</time>
</trkpt>
<trkpt lat="36.86080551147461" lon="-118.6070327758789">
<ele>3027</ele>
<time>2016-10-22T02:00:43Z</time>
</trkpt>
<trkpt lat="36.86074447631836" lon="-118.60694122314453">
<ele>3028</ele>
<time>2016-10-22T02:00:52Z</time>
</trkpt>
<trkpt lat="36.86064529418945" lon="-118.60687255859375">
<ele>3027</ele>
<time>2016-10-22T02:01:00Z</time>
</trkpt>
<trkpt lat="36.860599517822266" lon="-118.60687255859375">
<ele>3023</ele>
<time>2016-10-22T02:01:08Z</time>
</trkpt>
<trkpt lat="36.860565185546875" lon="-118.6069107055664">
<ele>3019</ele>
<time>2016-10-22T02:01:15Z</time>
</trkpt>
<trkpt lat="36.86054229736328" lon="-118.60696411132813">
<ele>3019</ele>
<time>2016-10-22T02:01:21Z</time>
</trkpt>
<trkpt lat="36.86042785644531" lon="-118.60697937011719">
<ele>3022</ele>
<time>2016-10-22T02:01:29Z</time>
</trkpt>
<trkpt lat="36.860328674316406" lon="-118.60697174072266">
<ele>3021</ele>
<time>2016-10-22T02:01:37Z</time>
</trkpt>
<trkpt lat="36.860225677490234" lon="-118.6069564819336">
<ele>3019</ele>
<time>2016-10-22T02:01:44Z</time>
</trkpt>
<trkpt lat="36.86012649536133" lon="-118.60694122314453">
<ele>3021</ele>
<time>2016-10-22T02:01:51Z</time>
</trkpt>
<trkpt lat="36.86003494262695" lon="-118.60691833496094">
<ele>3019</ele>
<time>2016-10-22T02:01:59Z</time>
</trkpt>
<trkpt lat="36.859954833984375" lon="-118.60685729980469">
<ele>3017</ele>
<time>2016-10-22T02:02:07Z</time>
</trkpt>
<trkpt lat="36.85987854003906" lon="-118.60676574707031">
<ele>3015</ele>
<time>2016-10-22T02:02:18Z</time>
</trkpt>
<trkpt lat="36.85991287231445" lon="-118.60664367675781">
<ele>3016</ele>
<time>2016-10-22T02:02:28Z</time>
</trkpt>
<trkpt lat="36.85997009277344" lon="-118.60658264160156">
<ele>3019</ele>
<time>2016-10-22T02:02:37Z</time>
</trkpt>
<trkpt lat="36.86005783081055" lon="-118.60650634765625">
<ele>3017</ele>
<time>2016-10-22T02:02:47Z</time>
</trkpt>
<trkpt lat="36.86003112792969" lon="-118.60638427734375">
<ele>3016</ele>
<time>2016-10-22T02:02:56Z</time>
</trkpt>
<trkpt lat="36.86001968383789" lon="-118.60626983642578">
<ele>3015</ele>
<time>2016-10-22T02:03:06Z</time>
</trkpt>
<trkpt lat="36.8599967956543" lon="-118.60614776611328">
<ele>3016</ele>
<time>2016-10-22T02:03:13Z</time>
</trkpt>
<trkpt lat="36.859901428222656" lon="-118.60603332519531">
<ele>3014</ele>
<time>2016-10-22T02:03:28Z</time>
</trkpt>
<trkpt lat="36.8598518371582" lon="-118.60601806640625">
<ele>3016</ele>
<time>2016-10-22T02:03:35Z</time>
</trkpt>
<trkpt lat="36.85979080200195" lon="-118.60599517822266">
<ele>3013</ele>
<time>2016-10-22T02:03:43Z</time>
</trkpt>
<trkpt lat="36.859745025634766" lon="-118.60601806640625">
<ele>3014</ele>
<time>2016-10-22T02:03:50Z</time>
</trkpt>
<trkpt lat="36.85965347290039" lon="-118.60604858398438">
<ele>3019</ele>
<time>2016-10-22T02:03:58Z</time>
</trkpt>
<trkpt lat="36.85956573486328" lon="-118.60599517822266">
<ele>3019</ele>
<time>2016-10-22T02:04:04Z</time>
</trkpt>
<trkpt lat="36.8594856262207" lon="-118.6059341430664">
<ele>3021</ele>
<time>2016-10-22T02:04:11Z</time>
</trkpt>
<trkpt lat="36.859466552734375" lon="-118.60588836669922">
<ele>3018</ele>
<time>2016-10-22T02:04:17Z</time>
</trkpt>
<trkpt lat="36.85938262939453" lon="-118.60589599609375">
<ele>3013</ele>
<time>2016-10-22T02:04:33Z</time>
</trkpt>
<trkpt lat="36.85929489135742" lon="-118.60590362548828">
<ele>3010</ele>
<time>2016-10-22T02:04:41Z</time>
</trkpt>
<trkpt lat="36.859195709228516" lon="-118.60588073730469">
<ele>3008</ele>
<time>2016-10-22T02:04:50Z</time>
</trkpt>
<trkpt lat="36.8591423034668" lon="-118.60588073730469">
<ele>3003</ele>
<time>2016-10-22T02:04:57Z</time>
</trkpt>
<trkpt lat="36.859046936035156" lon="-118.60585021972656">
<ele>3005</ele>
<time>2016-10-22T02:05:04Z</time>
</trkpt>
<trkpt lat="36.858951568603516" lon="-118.6058578491211">
<ele>3000</ele>
<time>2016-10-22T02:05:15Z</time>
</trkpt>
<trkpt lat="36.85888671875" lon="-118.60595703125">
<ele>2993</ele>
<time>2016-10-22T02:05:24Z</time>
</trkpt>
<trkpt lat="36.8588981628418" lon="-118.60601806640625">
<ele>2988</ele>
<time>2016-10-22T02:05:30Z</time>
</trkpt>
<trkpt lat="36.85882568359375" lon="-118.60604095458984">
<ele>2989</ele>
<time>2016-10-22T02:05:37Z</time>
</trkpt>
<trkpt lat="36.858768463134766" lon="-118.60602569580078">
<ele>2990</ele>
<time>2016-10-22T02:05:43Z</time>
</trkpt>
<trkpt lat="36.85865783691406" lon="-118.60597229003906">
<ele>2991</ele>
<time>2016-10-22T02:05:49Z</time>
</trkpt>
<trkpt lat="36.858612060546875" lon="-118.60596466064453">
<ele>2994</ele>
<time>2016-10-22T02:05:56Z</time>
</trkpt>
<trkpt lat="36.858558654785156" lon="-118.60598754882813">
<ele>3004</ele>
<time>2016-10-22T02:06:27Z</time>
</trkpt>
<trkpt lat="36.85849380493164" lon="-118.60595703125">
<ele>3005</ele>
<time>2016-10-22T02:06:37Z</time>
</trkpt>
<trkpt lat="36.85845184326172" lon="-118.6059341430664">
<ele>3002</ele>
<time>2016-10-22T02:06:47Z</time>
</trkpt>
<trkpt lat="36.8583984375" lon="-118.6059341430664">
<ele>2999</ele>
<time>2016-10-22T02:06:55Z</time>
</trkpt>
<trkpt lat="36.858360290527344" lon="-118.60588836669922">
<ele>3000</ele>
<time>2016-10-22T02:07:02Z</time>
</trkpt>
<trkpt lat="36.8582763671875" lon="-118.60585021972656">
<ele>3002</ele>
<time>2016-10-22T02:07:11Z</time>
</trkpt>
<trkpt lat="36.85811996459961" lon="-118.60582733154297">
<ele>2996</ele>
<time>2016-10-22T02:07:22Z</time>
</trkpt>
<trkpt lat="36.858028411865234" lon="-118.60578918457031">
<ele>3000</ele>
<time>2016-10-22T02:07:28Z</time>
</trkpt>
<trkpt lat="36.85797119140625" lon="-118.605712890625">
<ele>3000</ele>
<time>2016-10-22T02:07:36Z</time>
</trkpt>
<trkpt lat="36.85793685913086" lon="-118.60565185546875">
<ele>3000</ele>
<time>2016-10-22T02:07:42Z</time>
</trkpt>
<trkpt lat="36.8579216003418" lon="-118.6055908203125">
<ele>2999</ele>
<time>2016-10-22T02:07:48Z</time>
</trkpt>
<trkpt lat="36.857852935791016" lon="-118.60548400878906">
<ele>2998</ele>
<time>2016-10-22T02:07:57Z</time>
</trkpt>
<trkpt lat="36.8577880859375" lon="-118.60538482666016">
<ele>3000</ele>
<time>2016-10-22T02:08:05Z</time>
</trkpt>
<trkpt lat="36.85775375366211" lon="-118.6053466796875">
<ele>2999</ele>
<time>2016-10-22T02:08:14Z</time>
</trkpt>
<trkpt lat="36.857704162597656" lon="-118.6052474975586">
<ele>2999</ele>
<time>2016-10-22T02:08:24Z</time>
</trkpt>
<trkpt lat="36.857666015625" lon="-118.6052017211914">
<ele>2997</ele>
<time>2016-10-22T02:08:32Z</time>
</trkpt>
<trkpt lat="36.857540130615234" lon="-118.6050796508789">
<ele>2995</ele>
<time>2016-10-22T02:08:39Z</time>
</trkpt>
<trkpt lat="36.857452392578125" lon="-118.60501861572266">
<ele>2992</ele>
<time>2016-10-22T02:08:46Z</time>
</trkpt>
<trkpt lat="36.85735321044922" lon="-118.6050033569336">
<ele>2996</ele>
<time>2016-10-22T02:08:54Z</time>
</trkpt>
<trkpt lat="36.85725402832031" lon="-118.6050033569336">
<ele>2994</ele>
<time>2016-10-22T02:09:03Z</time>
</trkpt>
<trkpt lat="36.85720443725586" lon="-118.60498809814453">
<ele>2993</ele>
<time>2016-10-22T02:09:09Z</time>
</trkpt>
<trkpt lat="36.85710525512695" lon="-118.60494995117188">
<ele>2995</ele>
<time>2016-10-22T02:09:18Z</time>
</trkpt>
<trkpt lat="36.85700225830078" lon="-118.60491180419922">
<ele>2994</ele>
<time>2016-10-22T02:09:27Z</time>
</trkpt>
<trkpt lat="36.856910705566406" lon="-118.60488891601563">
<ele>2996</ele>
<time>2016-10-22T02:09:34Z</time>
</trkpt>
<trkpt lat="36.85682678222656" lon="-118.6048812866211">
<ele>2995</ele>
<time>2016-10-22T02:09:41Z</time>
</trkpt>
<trkpt lat="36.85680389404297" lon="-118.60477447509766">
<ele>2990</ele>
<time>2016-10-22T02:09:50Z</time>
</trkpt>
<trkpt lat="36.85676574707031" lon="-118.604736328125">
<ele>2987</ele>
<time>2016-10-22T02:09:56Z</time>
</trkpt>
<trkpt lat="36.856666564941406" lon="-118.60474395751953">
<ele>2986</ele>
<time>2016-10-22T02:10:04Z</time>
</trkpt>
<trkpt lat="36.856571197509766" lon="-118.60467529296875">
<ele>2987</ele>
<time>2016-10-22T02:10:10Z</time>
</trkpt>
<trkpt lat="36.85646438598633" lon="-118.60456085205078">
<ele>2989</ele>
<time>2016-10-22T02:10:18Z</time>
</trkpt>
<trkpt lat="36.856361389160156" lon="-118.60453796386719">
<ele>2989</ele>
<time>2016-10-22T02:10:27Z</time>
</trkpt>
<trkpt lat="36.85626983642578" lon="-118.60452270507813">
<ele>2990</ele>
<time>2016-10-22T02:10:37Z</time>
</trkpt>
<trkpt lat="36.856224060058594" lon="-118.6044921875">
<ele>2987</ele>
<time>2016-10-22T02:10:44Z</time>
</trkpt>
<trkpt lat="36.856136322021484" lon="-118.60442352294922">
<ele>2984</ele>
<time>2016-10-22T02:10:51Z</time>
</trkpt>
<trkpt lat="36.85608673095703" lon="-118.60440063476563">
<ele>2981</ele>
<time>2016-10-22T02:10:57Z</time>
</trkpt>
<trkpt lat="36.85601043701172" lon="-118.60431671142578">
<ele>2984</ele>
<time>2016-10-22T02:11:06Z</time>
</trkpt>
<trkpt lat="36.85590744018555" lon="-118.60428619384766">
<ele>2986</ele>
<time>2016-10-22T02:11:15Z</time>
</trkpt>
<trkpt lat="36.85581970214844" lon="-118.60426330566406">
<ele>2988</ele>
<time>2016-10-22T02:11:23Z</time>
</trkpt>
<trkpt lat="36.85576629638672" lon="-118.60420989990234">
<ele>2995</ele>
<time>2016-10-22T02:11:46Z</time>
</trkpt>
<trkpt lat="36.85567855834961" lon="-118.60417938232422">
<ele>2993</ele>
<time>2016-10-22T02:11:55Z</time>
</trkpt>
<trkpt lat="36.85563278198242" lon="-118.60416412353516">
<ele>2990</ele>
<time>2016-10-22T02:12:01Z</time>
</trkpt>
<trkpt lat="36.855587005615234" lon="-118.60416412353516">
<ele>2981</ele>
<time>2016-10-22T02:12:07Z</time>
</trkpt>
<trkpt lat="36.85548782348633" lon="-118.60417938232422">
<ele>2992</ele>
<time>2016-10-22T02:12:17Z</time>
</trkpt>
<trkpt lat="36.85540008544922" lon="-118.60413360595703">
<ele>2990</ele>
<time>2016-10-22T02:12:26Z</time>
</trkpt>
<trkpt lat="36.855377197265625" lon="-118.60407257080078">
<ele>2990</ele>
<time>2016-10-22T02:12:36Z</time>
</trkpt>
<trkpt lat="36.855350494384766" lon="-118.60401153564453">
<ele>2989</ele>
<time>2016-10-22T02:12:50Z</time>
</trkpt>
<trkpt lat="36.85529327392578" lon="-118.6039047241211">
<ele>2989</ele>
<time>2016-10-22T02:13:00Z</time>
</trkpt>
<trkpt lat="36.85527801513672" lon="-118.60385131835938">
<ele>2991</ele>
<time>2016-10-22T02:13:08Z</time>
</trkpt>
<trkpt lat="36.85519027709961" lon="-118.60379791259766">
<ele>2994</ele>
<time>2016-10-22T02:13:18Z</time>
</trkpt>
<trkpt lat="36.855106353759766" lon="-118.60372924804688">
<ele>2999</ele>
<time>2016-10-22T02:13:28Z</time>
</trkpt>
<trkpt lat="36.85505676269531" lon="-118.60371398925781">
<ele>3001</ele>
<time>2016-10-22T02:13:35Z</time>
</trkpt>
<trkpt lat="36.85501480102539" lon="-118.60365295410156">
<ele>2999</ele>
<time>2016-10-22T02:13:43Z</time>
</trkpt>
<trkpt lat="36.8549919128418" lon="-118.60354614257813">
<ele>3003</ele>
<time>2016-10-22T02:13:53Z</time>
</trkpt>
</trkseg>
</trk>
<trk>
<name><![CDATA[10211915]]></name>
<number>67</number>
<extensions><topografix:color>ff000066</topografix:color></extensions>
<trkseg>
<trkpt lat="36.85503387451172" lon="-118.60356140136719">
<ele>3002</ele>
<time>2016-10-22T02:15:31Z</time>
</trkpt>
<trkpt lat="36.85498809814453" lon="-118.6035385131836">
<ele>3009</ele>
<time>2016-10-22T02:15:59Z</time>
</trkpt>
<trkpt lat="36.85495376586914" lon="-118.6034927368164">
<ele>3009</ele>
<time>2016-10-22T02:16:16Z</time>
</trkpt>
<trkpt lat="36.85494613647461" lon="-118.6033706665039">
<ele>3006</ele>
<time>2016-10-22T02:16:26Z</time>
</trkpt>
<trkpt lat="36.854896545410156" lon="-118.6033706665039">
<ele>3008</ele>
<time>2016-10-22T02:16:33Z</time>
</trkpt>
<trkpt lat="36.85485076904297" lon="-118.60335540771484">
<ele>3003</ele>
<time>2016-10-22T02:16:42Z</time>
</trkpt>
<trkpt lat="36.85478973388672" lon="-118.60325622558594">
<ele>2999</ele>
<time>2016-10-22T02:16:51Z</time>
</trkpt>
<trkpt lat="36.85477066040039" lon="-118.6031494140625">
<ele>3001</ele>
<time>2016-10-22T02:16:59Z</time>
</trkpt>
<trkpt lat="36.854732513427734" lon="-118.60311126708984">
<ele>3004</ele>
<time>2016-10-22T02:17:11Z</time>
</trkpt>
<trkpt lat="36.854705810546875" lon="-118.60305786132813">
<ele>3005</ele>
<time>2016-10-22T02:17:20Z</time>
</trkpt>
<trkpt lat="36.854732513427734" lon="-118.6030044555664">
<ele>3004</ele>
<time>2016-10-22T02:17:26Z</time>
</trkpt>
<trkpt lat="36.85472106933594" lon="-118.60295104980469">
<ele>3002</ele>
<time>2016-10-22T02:17:33Z</time>
</trkpt>
</trkseg>
</trk>
<trk>
<name><![CDATA[10211923]]></name>
<number>68</number>
<extensions><topografix:color>ff000066</topografix:color></extensions>
<trkseg>
<trkpt lat="36.85210037231445" lon="-118.60103607177734">
<ele>3014</ele>
<time>2016-10-22T02:24:03Z</time>
</trkpt>
<trkpt lat="36.85205078125" lon="-118.60102844238281">
<ele>3012</ele>
<time>2016-10-22T02:24:19Z</time>
</trkpt>
<trkpt lat="36.85200119018555" lon="-118.60103607177734">
<ele>3011</ele>
<time>2016-10-22T02:24:25Z</time>
</trkpt>
<trkpt lat="36.851951599121094" lon="-118.6010513305664">
<ele>3013</ele>
<time>2016-10-22T02:24:31Z</time>
</trkpt>
<trkpt lat="36.851844787597656" lon="-118.6010513305664">
<ele>3010</ele>
<time>2016-10-22T02:24:39Z</time>
</trkpt>
<trkpt lat="36.85175323486328" lon="-118.60101318359375">
<ele>3011</ele>
<time>2016-10-22T02:24:45Z</time>
</trkpt>
<trkpt lat="36.851654052734375" lon="-118.60100555419922">
<ele>3016</ele>
<time>2016-10-22T02:24:55Z</time>
</trkpt>
<trkpt lat="36.851566314697266" lon="-118.60102844238281">
<ele>3013</ele>
<time>2016-10-22T02:25:07Z</time>
</trkpt>
<trkpt lat="36.85148620605469" lon="-118.6009750366211">
<ele>3019</ele>
<time>2016-10-22T02:25:19Z</time>
</trkpt>
<trkpt lat="36.851409912109375" lon="-118.60090637207031">
<ele>3018</ele>
<time>2016-10-22T02:25:30Z</time>
</trkpt>
<trkpt lat="36.851318359375" lon="-118.60087585449219">
<ele>3016</ele>
<time>2016-10-22T02:25:40Z</time>
</trkpt>
<trkpt lat="36.85134506225586" lon="-118.60082244873047">
<ele>3013</ele>
<time>2016-10-22T02:25:47Z</time>
</trkpt>
<trkpt lat="36.85139083862305" lon="-118.60079956054688">
<ele>3015</ele>
<time>2016-10-22T02:26:05Z</time>
</trkpt>
<trkpt lat="36.85142517089844" lon="-118.60075378417969">
<ele>3018</ele>
<time>2016-10-22T02:26:13Z</time>
</trkpt>
<trkpt lat="36.85146713256836" lon="-118.60064697265625">
<ele>3023</ele>
<time>2016-10-22T02:26:27Z</time>
</trkpt>
<trkpt lat="36.85147476196289" lon="-118.60059356689453">
<ele>3021</ele>
<time>2016-10-22T02:26:33Z</time>
</trkpt>
<trkpt lat="36.85144805908203" lon="-118.6004867553711">
<ele>3021</ele>
<time>2016-10-22T02:26:44Z</time>
</trkpt>
<trkpt lat="36.85139846801758" lon="-118.60045623779297">
<ele>3023</ele>
<time>2016-10-22T02:26:50Z</time>
</trkpt>
<trkpt lat="36.851314544677734" lon="-118.60039520263672">
<ele>3019</ele>
<time>2016-10-22T02:27:06Z</time>
</trkpt>
<trkpt lat="36.85126495361328" lon="-118.60037994384766">
<ele>3023</ele>
<time>2016-10-22T02:27:12Z</time>
</trkpt>
<trkpt lat="36.85124206542969" lon="-118.60032653808594">
<ele>3023</ele>
<time>2016-10-22T02:27:19Z</time>
</trkpt>
<trkpt lat="36.8512077331543" lon="-118.60022735595703">
<ele>3020</ele>
<time>2016-10-22T02:27:27Z</time>
</trkpt>
<trkpt lat="36.851192474365234" lon="-118.60014343261719">
<ele>3021</ele>
<time>2016-10-22T02:27:36Z</time>
</trkpt>
<trkpt lat="36.85118865966797" lon="-118.60005950927734">
<ele>3026</ele>
<time>2016-10-22T02:27:50Z</time>
</trkpt>
<trkpt lat="36.85114288330078" lon="-118.60002899169922">
<ele>3024</ele>
<time>2016-10-22T02:27:56Z</time>
</trkpt>
<trkpt lat="36.851097106933594" lon="-118.60004425048828">
<ele>3026</ele>
<time>2016-10-22T02:28:02Z</time>
</trkpt>
<trkpt lat="36.85099411010742" lon="-118.60005187988281">
<ele>3024</ele>
<time>2016-10-22T02:28:10Z</time>
</trkpt>
<trkpt lat="36.850948333740234" lon="-118.60004425048828">
<ele>3026</ele>
<time>2016-10-22T02:28:18Z</time>
</trkpt>
<trkpt lat="36.85089111328125" lon="-118.60005187988281">
<ele>3029</ele>
<time>2016-10-22T02:28:24Z</time>
</trkpt>
<trkpt lat="36.850791931152344" lon="-118.60009765625">
<ele>3032</ele>
<time>2016-10-22T02:28:31Z</time>
</trkpt>
<trkpt lat="36.85070037841797" lon="-118.60015106201172">
<ele>3035</ele>
<time>2016-10-22T02:28:37Z</time>
</trkpt>
<trkpt lat="36.85060119628906" lon="-118.60015869140625">
<ele>3033</ele>
<time>2016-10-22T02:28:44Z</time>
</trkpt>
<trkpt lat="36.85055923461914" lon="-118.6001968383789">
<ele>3026</ele>
<time>2016-10-22T02:28:54Z</time>
</trkpt>
<trkpt lat="36.85051727294922" lon="-118.6002426147461">
<ele>3029</ele>
<time>2016-10-22T02:29:00Z</time>
</trkpt>
<trkpt lat="36.850460052490234" lon="-118.60031127929688">
<ele>3033</ele>
<time>2016-10-22T02:29:09Z</time>
</trkpt>
<trkpt lat="36.85040283203125" lon="-118.60023498535156">
<ele>3033</ele>
<time>2016-10-22T02:29:20Z</time>
</trkpt>
<trkpt lat="36.850372314453125" lon="-118.6001968383789">
<ele>3029</ele>
<time>2016-10-22T02:29:26Z</time>
</trkpt>
<trkpt lat="36.85028076171875" lon="-118.60023498535156">
<ele>3032</ele>
<time>2016-10-22T02:29:35Z</time>
</trkpt>
<trkpt lat="36.850181579589844" lon="-118.60021209716797">
<ele>3037</ele>
<time>2016-10-22T02:29:44Z</time>
</trkpt>
<trkpt lat="36.85013961791992" lon="-118.6002197265625">
<ele>3033</ele>
<time>2016-10-22T02:29:50Z</time>
</trkpt>
<trkpt lat="36.85004425048828" lon="-118.60026550292969">
<ele>3030</ele>
<time>2016-10-22T02:29:59Z</time>
</trkpt>
<trkpt lat="36.84992599487305" lon="-118.60026550292969">
<ele>3031</ele>
<time>2016-10-22T02:30:07Z</time>
</trkpt>
<trkpt lat="36.84983444213867" lon="-118.60029602050781">
<ele>3031</ele>
<time>2016-10-22T02:30:17Z</time>
</trkpt>
<trkpt lat="36.84974670410156" lon="-118.60028839111328">
<ele>3036</ele>
<time>2016-10-22T02:30:24Z</time>
</trkpt>
<trkpt lat="36.849666595458984" lon="-118.6001968383789">
<ele>3033</ele>
<time>2016-10-22T02:30:30Z</time>
</trkpt>
<trkpt lat="36.84965133666992" lon="-118.6000747680664">
<ele>3025</ele>
<time>2016-10-22T02:30:40Z</time>
</trkpt>
<trkpt lat="36.849647521972656" lon="-118.60001373291016">
<ele>3028</ele>
<time>2016-10-22T02:30:46Z</time>
</trkpt>
<trkpt lat="36.84955978393555" lon="-118.59993743896484">
<ele>3026</ele>
<time>2016-10-22T02:30:55Z</time>
</trkpt>
<trkpt lat="36.849464416503906" lon="-118.5999755859375">
<ele>3026</ele>
<time>2016-10-22T02:31:03Z</time>
</trkpt>
<trkpt lat="36.8493766784668" lon="-118.60002136230469">
<ele>3030</ele>
<time>2016-10-22T02:31:13Z</time>
</trkpt>
<trkpt lat="36.849334716796875" lon="-118.60004425048828">
<ele>3023</ele>
<time>2016-10-22T02:31:23Z</time>
</trkpt>
<trkpt lat="36.84928512573242" lon="-118.60005950927734">
<ele>3027</ele>
<time>2016-10-22T02:31:30Z</time>
</trkpt>
<trkpt lat="36.849178314208984" lon="-118.60005950927734">
<ele>3033</ele>
<time>2016-10-22T02:31:38Z</time>
</trkpt>
<trkpt lat="36.849090576171875" lon="-118.60009002685547">
<ele>3030</ele>
<time>2016-10-22T02:31:48Z</time>
</trkpt>
<trkpt lat="36.84905242919922" lon="-118.6001205444336">
<ele>3029</ele>
<time>2016-10-22T02:31:54Z</time>
</trkpt>
<trkpt lat="36.8490104675293" lon="-118.60012817382813">
<ele>3029</ele>
<time>2016-10-22T02:32:00Z</time>
</trkpt>
<trkpt lat="36.84892654418945" lon="-118.6001205444336">
<ele>3035</ele>
<time>2016-10-22T02:32:10Z</time>
</trkpt>
<trkpt lat="36.848899841308594" lon="-118.6000747680664">
<ele>3035</ele>
<time>2016-10-22T02:32:17Z</time>
</trkpt>
<trkpt lat="36.84880065917969" lon="-118.60006713867188">
<ele>3036</ele>
<time>2016-10-22T02:32:28Z</time>
</trkpt>
<trkpt lat="36.8487548828125" lon="-118.6000747680664">
<ele>3036</ele>
<time>2016-10-22T02:32:34Z</time>
</trkpt>
<trkpt lat="36.84877014160156" lon="-118.60001373291016">
<ele>3030</ele>
<time>2016-10-22T02:33:02Z</time>
</trkpt>
<trkpt lat="36.84880065917969" lon="-118.59996032714844">
<ele>3031</ele>
<time>2016-10-22T02:33:11Z</time>
</trkpt>
<trkpt lat="36.84882736206055" lon="-118.59991455078125">
<ele>3032</ele>
<time>2016-10-22T02:33:18Z</time>
</trkpt>
<trkpt lat="36.8488655090332" lon="-118.59980773925781">
<ele>3037</ele>
<time>2016-10-22T02:33:29Z</time>
</trkpt>
<trkpt lat="36.848968505859375" lon="-118.59977722167969">
<ele>3032</ele>
<time>2016-10-22T02:33:39Z</time>
</trkpt>
<trkpt lat="36.849056243896484" lon="-118.59974670410156">
<ele>3032</ele>
<time>2016-10-22T02:33:49Z</time>
</trkpt>
<trkpt lat="36.84910583496094" lon="-118.59974670410156">
<ele>3032</ele>
<time>2016-10-22T02:33:55Z</time>
</trkpt>
<trkpt lat="36.84912872314453" lon="-118.59969329833984">
<ele>3033</ele>
<time>2016-10-22T02:34:01Z</time>
</trkpt>
<trkpt lat="36.849151611328125" lon="-118.59959411621094">
<ele>3033</ele>
<time>2016-10-22T02:34:08Z</time>
</trkpt>
<trkpt lat="36.849185943603516" lon="-118.59950256347656">
<ele>3037</ele>
<time>2016-10-22T02:34:21Z</time>
</trkpt>
<trkpt lat="36.84914016723633" lon="-118.59949493408203">
<ele>3039</ele>
<time>2016-10-22T02:34:27Z</time>
</trkpt>
<trkpt lat="36.84909439086914" lon="-118.59947967529297">
<ele>3043</ele>
<time>2016-10-22T02:34:35Z</time>
</trkpt>
<trkpt lat="36.84904479980469" lon="-118.5994644165039">
<ele>3043</ele>
<time>2016-10-22T02:34:41Z</time>
</trkpt>
<trkpt lat="36.8489990234375" lon="-118.5994873046875">
<ele>3045</ele>
<time>2016-10-22T02:34:52Z</time>
</trkpt>
<trkpt lat="36.84894943237305" lon="-118.59947204589844">
<ele>3051</ele>
<time>2016-10-22T02:34:58Z</time>
</trkpt>
<trkpt lat="36.848968505859375" lon="-118.59938049316406">
<ele>3048</ele>
<time>2016-10-22T02:35:09Z</time>
</trkpt>
<trkpt lat="36.84899139404297" lon="-118.59925842285156">
<ele>3047</ele>
<time>2016-10-22T02:35:19Z</time>
</trkpt>
<trkpt lat="36.849021911621094" lon="-118.59921264648438">
<ele>3046</ele>
<time>2016-10-22T02:35:25Z</time>
</trkpt>
<trkpt lat="36.849098205566406" lon="-118.59913635253906">
<ele>3045</ele>
<time>2016-10-22T02:35:35Z</time>
</trkpt>
<trkpt lat="36.849185943603516" lon="-118.59910583496094">
<ele>3046</ele>
<time>2016-10-22T02:35:43Z</time>
</trkpt>
<trkpt lat="36.84926986694336" lon="-118.59906768798828">
<ele>3050</ele>
<time>2016-10-22T02:35:53Z</time>
</trkpt>
<trkpt lat="36.849266052246094" lon="-118.59900665283203">
<ele>3049</ele>
<time>2016-10-22T02:36:03Z</time>
</trkpt>
<trkpt lat="36.84918975830078" lon="-118.59902954101563">
<ele>3053</ele>
<time>2016-10-22T02:36:16Z</time>
</trkpt>
<trkpt lat="36.84914779663086" lon="-118.59905242919922">
<ele>3060</ele>
<time>2016-10-22T02:36:22Z</time>
</trkpt>
<trkpt lat="36.849159240722656" lon="-118.5989990234375">
<ele>3053</ele>
<time>2016-10-22T02:36:40Z</time>
</trkpt>
<trkpt lat="36.849159240722656" lon="-118.59893798828125">
<ele>3047</ele>
<time>2016-10-22T02:36:47Z</time>
</trkpt>
<trkpt lat="36.84910583496094" lon="-118.59894561767578">
<ele>3050</ele>
<time>2016-10-22T02:36:54Z</time>
</trkpt>
<trkpt lat="36.84902572631836" lon="-118.59899139404297">
<ele>3056</ele>
<time>2016-10-22T02:37:03Z</time>
</trkpt>
<trkpt lat="36.84894561767578" lon="-118.59906768798828">
<ele>3057</ele>
<time>2016-10-22T02:37:12Z</time>
</trkpt>
<trkpt lat="36.848846435546875" lon="-118.59906005859375">
<ele>3057</ele>
<time>2016-10-22T02:37:23Z</time>
</trkpt>
<trkpt lat="36.8487548828125" lon="-118.59905242919922">
<ele>3061</ele>
<time>2016-10-22T02:37:32Z</time>
</trkpt>
<trkpt lat="36.84870910644531" lon="-118.59905242919922">
<ele>3061</ele>
<time>2016-10-22T02:37:39Z</time>
</trkpt>
<trkpt lat="36.84873962402344" lon="-118.5989990234375">
<ele>3059</ele>
<time>2016-10-22T02:37:45Z</time>
</trkpt>
<trkpt lat="36.84882354736328" lon="-118.59893798828125">
<ele>3060</ele>
<time>2016-10-22T02:37:54Z</time>
</trkpt>
<trkpt lat="36.84880447387695" lon="-118.5988540649414">
<ele>3063</ele>
<time>2016-10-22T02:38:03Z</time>
</trkpt>
<trkpt lat="36.84876251220703" lon="-118.59881591796875">
<ele>3066</ele>
<time>2016-10-22T02:38:09Z</time>
</trkpt>
<trkpt lat="36.84872817993164" lon="-118.59877014160156">
<ele>3068</ele>
<time>2016-10-22T02:38:15Z</time>
</trkpt>
<trkpt lat="36.84874725341797" lon="-118.59870910644531">
<ele>3066</ele>
<time>2016-10-22T02:38:22Z</time>
</trkpt>
<trkpt lat="36.84880065917969" lon="-118.59870910644531">
<ele>3063</ele>
<time>2016-10-22T02:38:32Z</time>
</trkpt>
<trkpt lat="36.84884262084961" lon="-118.59868621826172">
<ele>3063</ele>
<time>2016-10-22T02:38:38Z</time>
</trkpt>
<trkpt lat="36.84885787963867" lon="-118.59862518310547">
<ele>3064</ele>
<time>2016-10-22T02:38:44Z</time>
</trkpt>
<trkpt lat="36.84889602661133" lon="-118.59851837158203">
<ele>3069</ele>
<time>2016-10-22T02:38:55Z</time>
</trkpt>
<trkpt lat="36.84882354736328" lon="-118.59846496582031">
<ele>3071</ele>
<time>2016-10-22T02:39:03Z</time>
</trkpt>
<trkpt lat="36.848777770996094" lon="-118.59844207763672">
<ele>3071</ele>
<time>2016-10-22T02:39:09Z</time>
</trkpt>
<trkpt lat="36.84873580932617" lon="-118.59841918945313">
<ele>3073</ele>
<time>2016-10-22T02:39:21Z</time>
</trkpt>
<trkpt lat="36.848628997802734" lon="-118.5984115600586">
<ele>3074</ele>
<time>2016-10-22T02:39:31Z</time>
</trkpt>
<trkpt lat="36.848594665527344" lon="-118.5983657836914">
<ele>3078</ele>
<time>2016-10-22T02:39:38Z</time>
</trkpt>
<trkpt lat="36.8484992980957" lon="-118.59832763671875">
<ele>3076</ele>
<time>2016-10-22T02:39:50Z</time>
</trkpt>
<trkpt lat="36.84844970703125" lon="-118.59832763671875">
<ele>3074</ele>
<time>2016-10-22T02:39:56Z</time>
</trkpt>
<trkpt lat="36.848411560058594" lon="-118.5982894897461">
<ele>3073</ele>
<time>2016-10-22T02:40:02Z</time>
</trkpt>
<trkpt lat="36.84849548339844" lon="-118.59823608398438">
<ele>3076</ele>
<time>2016-10-22T02:40:23Z</time>
</trkpt>
<trkpt lat="36.848548889160156" lon="-118.59822082519531">
<ele>3076</ele>
<time>2016-10-22T02:40:30Z</time>
</trkpt>
<trkpt lat="36.848594665527344" lon="-118.59819793701172">
<ele>3078</ele>
<time>2016-10-22T02:40:37Z</time>
</trkpt>
<trkpt lat="36.8486442565918" lon="-118.59819030761719">
<ele>3078</ele>
<time>2016-10-22T02:40:43Z</time>
</trkpt>
<trkpt lat="36.84868240356445" lon="-118.59814453125">
<ele>3079</ele>
<time>2016-10-22T02:40:50Z</time>
</trkpt>
<trkpt lat="36.84868240356445" lon="-118.59805297851563">
<ele>3082</ele>
<time>2016-10-22T02:41:03Z</time>
</trkpt>
<trkpt lat="36.84864044189453" lon="-118.5980224609375">
<ele>3085</ele>
<time>2016-10-22T02:41:10Z</time>
</trkpt>
<trkpt lat="36.84860610961914" lon="-118.59798431396484">
<ele>3089</ele>
<time>2016-10-22T02:41:46Z</time>
</trkpt>
<trkpt lat="36.848609924316406" lon="-118.59793090820313">
<ele>3090</ele>
<time>2016-10-22T02:41:55Z</time>
</trkpt>
<trkpt lat="36.84865951538086" lon="-118.59791564941406">
<ele>3085</ele>
<time>2016-10-22T02:42:02Z</time>
</trkpt>
<trkpt lat="36.84871292114258" lon="-118.5978775024414">
<ele>3085</ele>
<time>2016-10-22T02:42:09Z</time>
</trkpt>
<trkpt lat="36.84872055053711" lon="-118.59781646728516">
<ele>3083</ele>
<time>2016-10-22T02:42:16Z</time>
</trkpt>
<trkpt lat="36.8487663269043" lon="-118.59780883789063">
<ele>3084</ele>
<time>2016-10-22T02:42:22Z</time>
</trkpt>
<trkpt lat="36.848793029785156" lon="-118.5977554321289">
<ele>3088</ele>
<time>2016-10-22T02:42:31Z</time>
</trkpt>
<trkpt lat="36.8487434387207" lon="-118.59776306152344">
<ele>3091</ele>
<time>2016-10-22T02:42:45Z</time>
</trkpt>
<trkpt lat="36.848655700683594" lon="-118.59773254394531">
<ele>3093</ele>
<time>2016-10-22T02:42:51Z</time>
</trkpt>
<trkpt lat="36.84855651855469" lon="-118.59772491455078">
<ele>3093</ele>
<time>2016-10-22T02:43:01Z</time>
</trkpt>
<trkpt lat="36.84842300415039" lon="-118.59773254394531">
<ele>3096</ele>
<time>2016-10-22T02:43:09Z</time>
</trkpt>
<trkpt lat="36.848384857177734" lon="-118.59770202636719">
<ele>3096</ele>
<time>2016-10-22T02:43:15Z</time>
</trkpt>
<trkpt lat="36.8484001159668" lon="-118.5976333618164">
<ele>3096</ele>
<time>2016-10-22T02:43:23Z</time>
</trkpt>
<trkpt lat="36.84847640991211" lon="-118.59757995605469">
<ele>3099</ele>
<time>2016-10-22T02:43:35Z</time>
</trkpt>
<trkpt lat="36.84858322143555" lon="-118.59759521484375">
<ele>3103</ele>
<time>2016-10-22T02:43:45Z</time>
</trkpt>
<trkpt lat="36.848628997802734" lon="-118.59758758544922">
<ele>3101</ele>
<time>2016-10-22T02:43:51Z</time>
</trkpt>
<trkpt lat="36.848670959472656" lon="-118.5975570678711">
<ele>3102</ele>
<time>2016-10-22T02:43:57Z</time>
</trkpt>
<trkpt lat="36.84870529174805" lon="-118.59751892089844">
<ele>3097</ele>
<time>2016-10-22T02:44:03Z</time>
</trkpt>
<trkpt lat="36.84873580932617" lon="-118.59748077392578">
<ele>3099</ele>
<time>2016-10-22T02:44:09Z</time>
</trkpt>
<trkpt lat="36.8487663269043" lon="-118.5974349975586">
<ele>3099</ele>
<time>2016-10-22T02:44:29Z</time>
</trkpt>
<trkpt lat="36.848751068115234" lon="-118.59737396240234">
<ele>3102</ele>
<time>2016-10-22T02:44:36Z</time>
</trkpt>
<trkpt lat="36.84867858886719" lon="-118.59730529785156">
<ele>3107</ele>
<time>2016-10-22T02:44:46Z</time>
</trkpt>
<trkpt lat="36.84858322143555" lon="-118.59730529785156">
<ele>3104</ele>
<time>2016-10-22T02:44:58Z</time>
</trkpt>
<trkpt lat="36.84850311279297" lon="-118.59729766845703">
<ele>3103</ele>
<time>2016-10-22T02:45:11Z</time>
</trkpt>
<trkpt lat="36.848453521728516" lon="-118.59729766845703">
<ele>3100</ele>
<time>2016-10-22T02:45:18Z</time>
</trkpt>
<trkpt lat="36.848350524902344" lon="-118.59725952148438">
<ele>3105</ele>
<time>2016-10-22T02:45:28Z</time>
</trkpt>
<trkpt lat="36.84825897216797" lon="-118.59722900390625">
<ele>3109</ele>
<time>2016-10-22T02:45:39Z</time>
</trkpt>
<trkpt lat="36.8481559753418" lon="-118.59719848632813">
<ele>3109</ele>
<time>2016-10-22T02:45:49Z</time>
</trkpt>
<trkpt lat="36.84806442260742" lon="-118.59723663330078">
<ele>3115</ele>
<time>2016-10-22T02:45:58Z</time>
</trkpt>
<trkpt lat="36.84796905517578" lon="-118.59724426269531">
<ele>3110</ele>
<time>2016-10-22T02:46:07Z</time>
</trkpt>
<trkpt lat="36.847923278808594" lon="-118.59725189208984">
<ele>3108</ele>
<time>2016-10-22T02:46:13Z</time>
</trkpt>
<trkpt lat="36.84783935546875" lon="-118.59718322753906">
<ele>3108</ele>
<time>2016-10-22T02:46:23Z</time>
</trkpt>
<trkpt lat="36.847862243652344" lon="-118.59712219238281">
<ele>3110</ele>
<time>2016-10-22T02:46:35Z</time>
</trkpt>
<trkpt lat="36.8478889465332" lon="-118.5970687866211">
<ele>3111</ele>
<time>2016-10-22T02:46:41Z</time>
</trkpt>
<trkpt lat="36.847896575927734" lon="-118.59700012207031">
<ele>3111</ele>
<time>2016-10-22T02:46:49Z</time>
</trkpt>
<trkpt lat="36.84793472290039" lon="-118.59696197509766">
<ele>3111</ele>
<time>2016-10-22T02:46:56Z</time>
</trkpt>
<trkpt lat="36.84794998168945" lon="-118.59686279296875">
<ele>3114</ele>
<time>2016-10-22T02:47:18Z</time>
</trkpt>
<trkpt lat="36.84795379638672" lon="-118.5968017578125">
<ele>3116</ele>
<time>2016-10-22T02:47:26Z</time>
</trkpt>
<trkpt lat="36.84797668457031" lon="-118.59674835205078">
<ele>3116</ele>
<time>2016-10-22T02:47:34Z</time>
</trkpt>
<trkpt lat="36.847999572753906" lon="-118.59669494628906">
<ele>3115</ele>
<time>2016-10-22T02:47:43Z</time>
</trkpt>
<trkpt lat="36.84798812866211" lon="-118.59664154052734">
<ele>3113</ele>
<time>2016-10-22T02:47:51Z</time>
</trkpt>
<trkpt lat="36.84790802001953" lon="-118.59657287597656">
<ele>3115</ele>
<time>2016-10-22T02:48:03Z</time>
</trkpt>
<trkpt lat="36.847862243652344" lon="-118.59654998779297">
<ele>3119</ele>
<time>2016-10-22T02:48:11Z</time>
</trkpt>
<trkpt lat="36.84782028198242" lon="-118.59650421142578">
<ele>3123</ele>
<time>2016-10-22T02:48:20Z</time>
</trkpt>
<trkpt lat="36.84783935546875" lon="-118.59645080566406">
<ele>3122</ele>
<time>2016-10-22T02:48:34Z</time>
</trkpt>
<trkpt lat="36.84782791137695" lon="-118.59638977050781">
<ele>3126</ele>
<time>2016-10-22T02:48:41Z</time>
</trkpt>
<trkpt lat="36.847843170166016" lon="-118.59628295898438">
<ele>3120</ele>
<time>2016-10-22T02:48:52Z</time>
</trkpt>
<trkpt lat="36.84779739379883" lon="-118.59623718261719">
<ele>3120</ele>
<time>2016-10-22T02:48:58Z</time>
</trkpt>
<trkpt lat="36.84770965576172" lon="-118.59613037109375">
<ele>3123</ele>
<time>2016-10-22T02:49:06Z</time>
</trkpt>
<trkpt lat="36.84763717651367" lon="-118.59606170654297">
<ele>3129</ele>
<time>2016-10-22T02:49:15Z</time>
</trkpt>
</trkseg>
</trk>
<trk>
<name><![CDATA[10211949]]></name>
<number>69</number>
<extensions><topografix:color>ff000066</topografix:color></extensions>
<trkseg>
<trkpt lat="36.84760665893555" lon="-118.59603881835938">
<ele>3122</ele>
<time>2016-10-22T02:49:49Z</time>
</trkpt>
<trkpt lat="36.84756088256836" lon="-118.59605407714844">
<ele>3125</ele>
<time>2016-10-22T02:50:23Z</time>
</trkpt>
<trkpt lat="36.84751892089844" lon="-118.59602355957031">
<ele>3126</ele>
<time>2016-10-22T02:50:29Z</time>
</trkpt>
<trkpt lat="36.847476959228516" lon="-118.59600830078125">
<ele>3128</ele>
<time>2016-10-22T02:50:37Z</time>
</trkpt>
<trkpt lat="36.84737777709961" lon="-118.59598541259766">
<ele>3127</ele>
<time>2016-10-22T02:50:44Z</time>
</trkpt>
<trkpt lat="36.847251892089844" lon="-118.59598541259766">
<ele>3132</ele>
<time>2016-10-22T02:50:50Z</time>
</trkpt>
<trkpt lat="36.84715270996094" lon="-118.59597778320313">
<ele>3136</ele>
<time>2016-10-22T02:50:58Z</time>
</trkpt>
<trkpt lat="36.84706497192383" lon="-118.59590911865234">
<ele>3138</ele>
<time>2016-10-22T02:51:04Z</time>
</trkpt>
<trkpt lat="36.84699249267578" lon="-118.59584045410156">
<ele>3139</ele>
<time>2016-10-22T02:51:10Z</time>
</trkpt>
<trkpt lat="36.846900939941406" lon="-118.5958480834961">
<ele>3136</ele>
<time>2016-10-22T02:51:18Z</time>
</trkpt>
<trkpt lat="36.8467903137207" lon="-118.59583282470703">
<ele>3134</ele>
<time>2016-10-22T02:51:26Z</time>
</trkpt>
<trkpt lat="36.84668731689453" lon="-118.5958251953125">
<ele>3134</ele>
<time>2016-10-22T02:51:36Z</time>
</trkpt>
<trkpt lat="36.84659957885742" lon="-118.59578704833984">
<ele>3130</ele>
<time>2016-10-22T02:51:43Z</time>
</trkpt>
<trkpt lat="36.846500396728516" lon="-118.5958480834961">
<ele>3121</ele>
<time>2016-10-22T02:51:54Z</time>
</trkpt>
<trkpt lat="36.846405029296875" lon="-118.59587097167969">
<ele>3119</ele>
<time>2016-10-22T02:52:04Z</time>
</trkpt>
<trkpt lat="36.846309661865234" lon="-118.59587860107422">
<ele>3122</ele>
<time>2016-10-22T02:52:11Z</time>
</trkpt>
<trkpt lat="36.846214294433594" lon="-118.59587860107422">
<ele>3124</ele>
<time>2016-10-22T02:52:17Z</time>
</trkpt>
<trkpt lat="36.84611892700195" lon="-118.59588623046875">
<ele>3123</ele>
<time>2016-10-22T02:52:25Z</time>
</trkpt>
<trkpt lat="36.84601974487305" lon="-118.59587860107422">
<ele>3126</ele>
<time>2016-10-22T02:52:33Z</time>
</trkpt>
<trkpt lat="36.84598159790039" lon="-118.59577941894531">
<ele>3119</ele>
<time>2016-10-22T02:52:41Z</time>
</trkpt>
<trkpt lat="36.845924377441406" lon="-118.5956802368164">
<ele>3115</ele>
<time>2016-10-22T02:52:49Z</time>
</trkpt>
<trkpt lat="36.84585189819336" lon="-118.5956039428711">
<ele>3113</ele>
<time>2016-10-22T02:52:57Z</time>
</trkpt>
<trkpt lat="36.84577941894531" lon="-118.59552764892578">
<ele>3111</ele>
<time>2016-10-22T02:53:06Z</time>
</trkpt>
<trkpt lat="36.8458251953125" lon="-118.59539031982422">
<ele>3113</ele>
<time>2016-10-22T02:53:12Z</time>
</trkpt>
<trkpt lat="36.84590530395508" lon="-118.5953140258789">
<ele>3108</ele>
<time>2016-10-22T02:53:18Z</time>
</trkpt>
<trkpt lat="36.84585952758789" lon="-118.59519958496094">
<ele>3109</ele>
<time>2016-10-22T02:53:26Z</time>
</trkpt>
<trkpt lat="36.84585189819336" lon="-118.59507751464844">
<ele>3104</ele>
<time>2016-10-22T02:53:32Z</time>
</trkpt>
<trkpt lat="36.84585189819336" lon="-118.5949478149414">
<ele>3102</ele>
<time>2016-10-22T02:53:41Z</time>
</trkpt>
<trkpt lat="36.84584045410156" lon="-118.59481811523438">
<ele>3100</ele>
<time>2016-10-22T02:53:49Z</time>
</trkpt>
<trkpt lat="36.84584045410156" lon="-118.59468841552734">
<ele>3099</ele>
<time>2016-10-22T02:53:55Z</time>
</trkpt>
<trkpt lat="36.84588623046875" lon="-118.59457397460938">
<ele>3100</ele>
<time>2016-10-22T02:54:02Z</time>
</trkpt>
<trkpt lat="36.845909118652344" lon="-118.59444427490234">
<ele>3097</ele>
<time>2016-10-22T02:54:09Z</time>
</trkpt>
<trkpt lat="36.845951080322266" lon="-118.59435272216797">
<ele>3097</ele>
<time>2016-10-22T02:54:17Z</time>
</trkpt>
<trkpt lat="36.84600830078125" lon="-118.59425354003906">
<ele>3095</ele>
<time>2016-10-22T02:54:23Z</time>
</trkpt>
<trkpt lat="36.84607696533203" lon="-118.59414672851563">
<ele>3093</ele>
<time>2016-10-22T02:54:30Z</time>
</trkpt>
<trkpt lat="36.84614944458008" lon="-118.59406280517578">
<ele>3087</ele>
<time>2016-10-22T02:54:39Z</time>
</trkpt>
<trkpt lat="36.84614562988281" lon="-118.59400939941406">
<ele>3092</ele>
<time>2016-10-22T02:54:47Z</time>
</trkpt>
<trkpt lat="36.84609603881836" lon="-118.59395599365234">
<ele>3093</ele>
<time>2016-10-22T02:54:55Z</time>
</trkpt>
<trkpt lat="36.84603500366211" lon="-118.59385681152344">
<ele>3092</ele>
<time>2016-10-22T02:55:04Z</time>
</trkpt>
<trkpt lat="36.84593963623047" lon="-118.59378814697266">
<ele>3093</ele>
<time>2016-10-22T02:55:12Z</time>
</trkpt>
<trkpt lat="36.845890045166016" lon="-118.5937728881836">
<ele>3091</ele>
<time>2016-10-22T02:55:18Z</time>
</trkpt>
<trkpt lat="36.845794677734375" lon="-118.59375762939453">
<ele>3093</ele>
<time>2016-10-22T02:55:27Z</time>
</trkpt>
<trkpt lat="36.845706939697266" lon="-118.59368896484375">
<ele>3092</ele>
<time>2016-10-22T02:55:34Z</time>
</trkpt>
<trkpt lat="36.84562301635742" lon="-118.59361267089844">
<ele>3089</ele>
<time>2016-10-22T02:55:40Z</time>
</trkpt>
<trkpt lat="36.84552001953125" lon="-118.59355926513672">
<ele>3088</ele>
<time>2016-10-22T02:55:48Z</time>
</trkpt>
<trkpt lat="36.84539031982422" lon="-118.59353637695313">
<ele>3082</ele>
<time>2016-10-22T02:55:56Z</time>
</trkpt>
<trkpt lat="36.845298767089844" lon="-118.59349060058594">
<ele>3081</ele>
<time>2016-10-22T02:56:03Z</time>
</trkpt>
<trkpt lat="36.84522247314453" lon="-118.59339904785156">
<ele>3078</ele>
<time>2016-10-22T02:56:12Z</time>
</trkpt>
<trkpt lat="36.84516143798828" lon="-118.59330749511719">
<ele>3078</ele>
<time>2016-10-22T02:56:22Z</time>
</trkpt>
<trkpt lat="36.84510803222656" lon="-118.59326934814453">
<ele>3075</ele>
<time>2016-10-22T02:56:28Z</time>
</trkpt>
<trkpt lat="36.844993591308594" lon="-118.59326171875">
<ele>3070</ele>
<time>2016-10-22T02:56:37Z</time>
</trkpt>
<trkpt lat="36.84490203857422" lon="-118.59320068359375">
<ele>3068</ele>
<time>2016-10-22T02:56:45Z</time>
</trkpt>
<trkpt lat="36.84486389160156" lon="-118.59313201904297">
<ele>3067</ele>
<time>2016-10-22T02:56:52Z</time>
</trkpt>
<trkpt lat="36.84480667114258" lon="-118.59300994873047">
<ele>3067</ele>
<time>2016-10-22T02:56:58Z</time>
</trkpt>
<trkpt lat="36.844764709472656" lon="-118.5928955078125">
<ele>3066</ele>
<time>2016-10-22T02:57:05Z</time>
</trkpt>
<trkpt lat="36.84470748901367" lon="-118.59280395507813">
<ele>3067</ele>
<time>2016-10-22T02:57:11Z</time>
</trkpt>
<trkpt lat="36.84464645385742" lon="-118.59269714355469">
<ele>3066</ele>
<time>2016-10-22T02:57:18Z</time>
</trkpt>
<trkpt lat="36.84455108642578" lon="-118.5926284790039">
<ele>3060</ele>
<time>2016-10-22T02:57:26Z</time>
</trkpt>
<trkpt lat="36.84447479248047" lon="-118.592529296875">
<ele>3062</ele>
<time>2016-10-22T02:57:32Z</time>
</trkpt>
<trkpt lat="36.84440231323242" lon="-118.59246063232422">
<ele>3062</ele>
<time>2016-10-22T02:57:39Z</time>
</trkpt>
<trkpt lat="36.844364166259766" lon="-118.59233856201172">
<ele>3059</ele>
<time>2016-10-22T02:57:48Z</time>
</trkpt>
<trkpt lat="36.844295501708984" lon="-118.59221649169922">
<ele>3054</ele>
<time>2016-10-22T02:57:56Z</time>
</trkpt>
<trkpt lat="36.8442497253418" lon="-118.59211730957031">
<ele>3055</ele>
<time>2016-10-22T02:58:02Z</time>
</trkpt>
<trkpt lat="36.844200134277344" lon="-118.59201049804688">
<ele>3054</ele>
<time>2016-10-22T02:58:11Z</time>
</trkpt>
<trkpt lat="36.8441047668457" lon="-118.59197235107422">
<ele>3048</ele>
<time>2016-10-22T02:58:21Z</time>
</trkpt>
<trkpt lat="36.84400177001953" lon="-118.59193420410156">
<ele>3042</ele>
<time>2016-10-22T02:58:29Z</time>
</trkpt>
<trkpt lat="36.843849182128906" lon="-118.59190368652344">
<ele>3042</ele>
<time>2016-10-22T02:58:36Z</time>
</trkpt>
<trkpt lat="36.843746185302734" lon="-118.5918960571289">
<ele>3041</ele>
<time>2016-10-22T02:58:44Z</time>
</trkpt>
<trkpt lat="36.8436279296875" lon="-118.59185028076172">
<ele>3039</ele>
<time>2016-10-22T02:58:54Z</time>
</trkpt>
<trkpt lat="36.84352111816406" lon="-118.59185028076172">
<ele>3039</ele>
<time>2016-10-22T02:59:00Z</time>
</trkpt>
<trkpt lat="36.84342956542969" lon="-118.5918960571289">
<ele>3039</ele>
<time>2016-10-22T02:59:09Z</time>
</trkpt>
<trkpt lat="36.843448638916016" lon="-118.59183502197266">
<ele>3031</ele>
<time>2016-10-22T02:59:40Z</time>
</trkpt>
<trkpt lat="36.843475341796875" lon="-118.59175872802734">
<ele>3031</ele>
<time>2016-10-22T02:59:49Z</time>
</trkpt>
<trkpt lat="36.843528747558594" lon="-118.59176635742188">
<ele>3027</ele>
<time>2016-10-22T02:59:56Z</time>
</trkpt>
<trkpt lat="36.84355926513672" lon="-118.5916976928711">
<ele>3025</ele>
<time>2016-10-22T03:00:12Z</time>
</trkpt>
<trkpt lat="36.84358215332031" lon="-118.59158325195313">
<ele>3021</ele>
<time>2016-10-22T03:00:18Z</time>
</trkpt>
<trkpt lat="36.843589782714844" lon="-118.5914535522461">
<ele>3016</ele>
<time>2016-10-22T03:00:25Z</time>
</trkpt>
<trkpt lat="36.84356689453125" lon="-118.59132385253906">
<ele>3018</ele>
<time>2016-10-22T03:00:35Z</time>
</trkpt>
<trkpt lat="36.843509674072266" lon="-118.59122467041016">
<ele>3016</ele>
<time>2016-10-22T03:00:45Z</time>
</trkpt>
<trkpt lat="36.843414306640625" lon="-118.59122467041016">
<ele>3015</ele>
<time>2016-10-22T03:00:53Z</time>
</trkpt>
<trkpt lat="36.84333801269531" lon="-118.59130096435547">
<ele>3015</ele>
<time>2016-10-22T03:01:03Z</time>
</trkpt>
<trkpt lat="36.84327697753906" lon="-118.59139251708984">
<ele>3016</ele>
<time>2016-10-22T03:01:12Z</time>
</trkpt>
<trkpt lat="36.843204498291016" lon="-118.59146881103516">
<ele>3014</ele>
<time>2016-10-22T03:01:21Z</time>
</trkpt>
<trkpt lat="36.843135833740234" lon="-118.59156799316406">
<ele>3011</ele>
<time>2016-10-22T03:01:32Z</time>
</trkpt>
<trkpt lat="36.843055725097656" lon="-118.59165954589844">
<ele>3012</ele>
<time>2016-10-22T03:01:39Z</time>
</trkpt>
<trkpt lat="36.843040466308594" lon="-118.59159851074219">
<ele>3009</ele>
<time>2016-10-22T03:01:47Z</time>
</trkpt>
<trkpt lat="36.843074798583984" lon="-118.59150695800781">
<ele>3009</ele>
<time>2016-10-22T03:01:53Z</time>
</trkpt>
<trkpt lat="36.84306716918945" lon="-118.59137725830078">
<ele>3010</ele>
<time>2016-10-22T03:02:02Z</time>
</trkpt>
<trkpt lat="36.843074798583984" lon="-118.59131622314453">
<ele>3014</ele>
<time>2016-10-22T03:02:13Z</time>
</trkpt>
<trkpt lat="36.843116760253906" lon="-118.59130859375">
<ele>3005</ele>
<time>2016-10-22T03:02:36Z</time>
</trkpt>
<trkpt lat="36.84310531616211" lon="-118.59122467041016">
<ele>2998</ele>
<time>2016-10-22T03:03:21Z</time>
</trkpt>
<trkpt lat="36.84309768676758" lon="-118.59110260009766">
<ele>2994</ele>
<time>2016-10-22T03:03:29Z</time>
</trkpt>
<trkpt lat="36.84309387207031" lon="-118.5910415649414">
<ele>2993</ele>
<time>2016-10-22T03:03:35Z</time>
</trkpt>
<trkpt lat="36.84311294555664" lon="-118.59091186523438">
<ele>2994</ele>
<time>2016-10-22T03:03:44Z</time>
</trkpt>
<trkpt lat="36.84315872192383" lon="-118.59078216552734">
<ele>2995</ele>
<time>2016-10-22T03:03:53Z</time>
</trkpt>
<trkpt lat="36.843170166015625" lon="-118.59066009521484">
<ele>2997</ele>
<time>2016-10-22T03:04:02Z</time>
</trkpt>
<trkpt lat="36.84324645996094" lon="-118.590576171875">
<ele>2994</ele>
<time>2016-10-22T03:04:19Z</time>
</trkpt>
<trkpt lat="36.843292236328125" lon="-118.59046936035156">
<ele>2994</ele>
<time>2016-10-22T03:04:27Z</time>
</trkpt>
<trkpt lat="36.84337615966797" lon="-118.59040069580078">
<ele>2993</ele>
<time>2016-10-22T03:04:33Z</time>
</trkpt>
<trkpt lat="36.84345245361328" lon="-118.59032440185547">
<ele>2986</ele>
<time>2016-10-22T03:04:40Z</time>
</trkpt>
<trkpt lat="36.84353256225586" lon="-118.59027099609375">
<ele>2984</ele>
<time>2016-10-22T03:04:48Z</time>
</trkpt>
<trkpt lat="36.84359359741211" lon="-118.59024047851563">
<ele>2982</ele>
<time>2016-10-22T03:04:54Z</time>
</trkpt>
<trkpt lat="36.84363555908203" lon="-118.59020233154297">
<ele>2984</ele>
<time>2016-10-22T03:05:02Z</time>
</trkpt>
<trkpt lat="36.8437385559082" lon="-118.5901870727539">
<ele>2979</ele>
<time>2016-10-22T03:05:09Z</time>
</trkpt>
<trkpt lat="36.84382629394531" lon="-118.59017944335938">
<ele>2972</ele>
<time>2016-10-22T03:05:25Z</time>
</trkpt>
<trkpt lat="36.84384536743164" lon="-118.5902328491211">
<ele>2977</ele>
<time>2016-10-22T03:05:45Z</time>
</trkpt>
<trkpt lat="36.84385299682617" lon="-118.59012603759766">
<ele>2975</ele>
<time>2016-10-22T03:05:53Z</time>
</trkpt>
<trkpt lat="36.843868255615234" lon="-118.5900650024414">
<ele>2970</ele>
<time>2016-10-22T03:05:59Z</time>
</trkpt>
<trkpt lat="36.843902587890625" lon="-118.59002685546875">
<ele>2973</ele>
<time>2016-10-22T03:06:13Z</time>
</trkpt>
<trkpt lat="36.84394454956055" lon="-118.59000396728516">
<ele>2970</ele>
<time>2016-10-22T03:06:20Z</time>
</trkpt>
<trkpt lat="36.844024658203125" lon="-118.5899429321289">
<ele>2963</ele>
<time>2016-10-22T03:06:38Z</time>
</trkpt>
<trkpt lat="36.84400177001953" lon="-118.58988189697266">
<ele>2962</ele>
<time>2016-10-22T03:06:44Z</time>
</trkpt>
<trkpt lat="36.84400939941406" lon="-118.58978271484375">
<ele>2966</ele>
<time>2016-10-22T03:06:58Z</time>
</trkpt>
<trkpt lat="36.84402847290039" lon="-118.5897216796875">
<ele>2962</ele>
<time>2016-10-22T03:07:05Z</time>
</trkpt>
<trkpt lat="36.844085693359375" lon="-118.58970642089844">
<ele>2958</ele>
<time>2016-10-22T03:07:16Z</time>
</trkpt>
<trkpt lat="36.844173431396484" lon="-118.58964538574219">
<ele>2953</ele>
<time>2016-10-22T03:07:25Z</time>
</trkpt>
<trkpt lat="36.84417724609375" lon="-118.58959197998047">
<ele>2946</ele>
<time>2016-10-22T03:07:32Z</time>
</trkpt>
<trkpt lat="36.844146728515625" lon="-118.58953857421875">
<ele>2940</ele>
<time>2016-10-22T03:07:40Z</time>
</trkpt>
<trkpt lat="36.84416580200195" lon="-118.58944702148438">
<ele>2934</ele>
<time>2016-10-22T03:08:01Z</time>
</trkpt>
<trkpt lat="36.844215393066406" lon="-118.58943939208984">
<ele>2934</ele>
<time>2016-10-22T03:08:14Z</time>
</trkpt>
<trkpt lat="36.84421920776367" lon="-118.5893783569336">
<ele>2933</ele>
<time>2016-10-22T03:08:20Z</time>
</trkpt>
<trkpt lat="36.84423065185547" lon="-118.58932495117188">
<ele>2934</ele>
<time>2016-10-22T03:08:26Z</time>
</trkpt>
<trkpt lat="36.84427261352539" lon="-118.58927917480469">
<ele>2931</ele>
<time>2016-10-22T03:08:32Z</time>
</trkpt>
<trkpt lat="36.844303131103516" lon="-118.5892333984375">
<ele>2929</ele>
<time>2016-10-22T03:08:42Z</time>
</trkpt>
<trkpt lat="36.84432601928711" lon="-118.58915710449219">
<ele>2927</ele>
<time>2016-10-22T03:08:49Z</time>
</trkpt>
<trkpt lat="36.844337463378906" lon="-118.58902740478516">
<ele>2925</ele>
<time>2016-10-22T03:08:57Z</time>
</trkpt>
<trkpt lat="36.84430694580078" lon="-118.58909606933594">
<ele>2919</ele>
<time>2016-10-22T03:09:04Z</time>
</trkpt>
<trkpt lat="36.844329833984375" lon="-118.58914184570313">
<ele>2915</ele>
<time>2016-10-22T03:09:10Z</time>
</trkpt>
<trkpt lat="36.84433364868164" lon="-118.58902740478516">
<ele>2919</ele>
<time>2016-10-22T03:09:18Z</time>
</trkpt>
<trkpt lat="36.8443489074707" lon="-118.58890533447266">
<ele>2908</ele>
<time>2016-10-22T03:09:31Z</time>
</trkpt>
<trkpt lat="36.84434509277344" lon="-118.58883666992188">
<ele>2900</ele>
<time>2016-10-22T03:09:50Z</time>
</trkpt>
<trkpt lat="36.84434127807617" lon="-118.58877563476563">
<ele>2894</ele>
<time>2016-10-22T03:09:57Z</time>
</trkpt>
<trkpt lat="36.84431076049805" lon="-118.58873748779297">
<ele>2890</ele>
<time>2016-10-22T03:10:04Z</time>
</trkpt>
<trkpt lat="36.844261169433594" lon="-118.58871459960938">
<ele>2892</ele>
<time>2016-10-22T03:10:18Z</time>
</trkpt>
<trkpt lat="36.844154357910156" lon="-118.58868408203125">
<ele>2892</ele>
<time>2016-10-22T03:10:25Z</time>
</trkpt>
<trkpt lat="36.84407043457031" lon="-118.58861541748047">
<ele>2888</ele>
<time>2016-10-22T03:10:35Z</time>
</trkpt>
<trkpt lat="36.84397506713867" lon="-118.58856201171875">
<ele>2887</ele>
<time>2016-10-22T03:10:44Z</time>
</trkpt>
<trkpt lat="36.843910217285156" lon="-118.58854675292969">
<ele>2884</ele>
<time>2016-10-22T03:10:50Z</time>
</trkpt>
<trkpt lat="36.843807220458984" lon="-118.58848571777344">
<ele>2883</ele>
<time>2016-10-22T03:11:01Z</time>
</trkpt>
<trkpt lat="36.84370422363281" lon="-118.58845520019531">
<ele>2888</ele>
<time>2016-10-22T03:11:08Z</time>
</trkpt>
<trkpt lat="36.84360122680664" lon="-118.58843994140625">
<ele>2884</ele>
<time>2016-10-22T03:11:15Z</time>
</trkpt>
<trkpt lat="36.843505859375" lon="-118.58836364746094">
<ele>2887</ele>
<time>2016-10-22T03:11:21Z</time>
</trkpt>
<trkpt lat="36.84341049194336" lon="-118.58831787109375">
<ele>2881</ele>
<time>2016-10-22T03:11:28Z</time>
</trkpt>
<trkpt lat="36.84333038330078" lon="-118.58821868896484">
<ele>2884</ele>
<time>2016-10-22T03:11:37Z</time>
</trkpt>
<trkpt lat="36.843223571777344" lon="-118.58817291259766">
<ele>2886</ele>
<time>2016-10-22T03:11:43Z</time>
</trkpt>
<trkpt lat="36.8431510925293" lon="-118.58816528320313">
<ele>2885</ele>
<time>2016-10-22T03:11:49Z</time>
</trkpt>
<trkpt lat="36.843055725097656" lon="-118.58817291259766">
<ele>2881</ele>
<time>2016-10-22T03:11:55Z</time>
</trkpt>
<trkpt lat="36.84297561645508" lon="-118.58811950683594">
<ele>2879</ele>
<time>2016-10-22T03:12:02Z</time>
</trkpt>
<trkpt lat="36.84297561645508" lon="-118.5880355834961">
<ele>2874</ele>
<time>2016-10-22T03:12:22Z</time>
</trkpt>
<trkpt lat="36.843082427978516" lon="-118.58800506591797">
<ele>2871</ele>
<time>2016-10-22T03:12:29Z</time>
</trkpt>
<trkpt lat="36.843177795410156" lon="-118.58794403076172">
<ele>2873</ele>
<time>2016-10-22T03:12:36Z</time>
</trkpt>
<trkpt lat="36.843231201171875" lon="-118.58790588378906">
<ele>2872</ele>
<time>2016-10-22T03:12:44Z</time>
</trkpt>
<trkpt lat="36.84333038330078" lon="-118.58790588378906">
<ele>2867</ele>
<time>2016-10-22T03:12:50Z</time>
</trkpt>
<trkpt lat="36.84344482421875" lon="-118.58792114257813">
<ele>2866</ele>
<time>2016-10-22T03:12:57Z</time>
</trkpt>
<trkpt lat="36.843544006347656" lon="-118.58795928955078">
<ele>2861</ele>
<time>2016-10-22T03:13:09Z</time>
</trkpt>
<trkpt lat="36.843631744384766" lon="-118.58788299560547">
<ele>2864</ele>
<time>2016-10-22T03:13:15Z</time>
</trkpt>
<trkpt lat="36.8436164855957" lon="-118.58782958984375">
<ele>2862</ele>
<time>2016-10-22T03:13:24Z</time>
</trkpt>
<trkpt lat="36.843650817871094" lon="-118.58778381347656">
<ele>2864</ele>
<time>2016-10-22T03:13:30Z</time>
</trkpt>
<trkpt lat="36.84367370605469" lon="-118.58773040771484">
<ele>2856</ele>
<time>2016-10-22T03:13:42Z</time>
</trkpt>
<trkpt lat="36.84370422363281" lon="-118.58768463134766">
<ele>2854</ele>
<time>2016-10-22T03:13:50Z</time>
</trkpt>
<trkpt lat="36.84362030029297" lon="-118.58766174316406">
<ele>2848</ele>
<time>2016-10-22T03:13:59Z</time>
</trkpt>
<trkpt lat="36.84352493286133" lon="-118.58760833740234">
<ele>2847</ele>
<time>2016-10-22T03:14:06Z</time>
</trkpt>
<trkpt lat="36.84342575073242" lon="-118.58757781982422">
<ele>2848</ele>
<time>2016-10-22T03:14:13Z</time>
</trkpt>
<trkpt lat="36.843326568603516" lon="-118.58758544921875">
<ele>2843</ele>
<time>2016-10-22T03:14:23Z</time>
</trkpt>
<trkpt lat="36.843223571777344" lon="-118.58759307861328">
<ele>2836</ele>
<time>2016-10-22T03:14:30Z</time>
</trkpt>
<trkpt lat="36.843143463134766" lon="-118.58753967285156">
<ele>2839</ele>
<time>2016-10-22T03:14:38Z</time>
</trkpt>
<trkpt lat="36.843048095703125" lon="-118.58747863769531">
<ele>2837</ele>
<time>2016-10-22T03:14:47Z</time>
</trkpt>
<trkpt lat="36.84297180175781" lon="-118.58740234375">
<ele>2843</ele>
<time>2016-10-22T03:14:53Z</time>
</trkpt>
<trkpt lat="36.842872619628906" lon="-118.58734130859375">
<ele>2847</ele>
<time>2016-10-22T03:15:00Z</time>
</trkpt>
<trkpt lat="36.8427734375" lon="-118.58735656738281">
<ele>2841</ele>
<time>2016-10-22T03:15:06Z</time>
</trkpt>
<trkpt lat="36.842689514160156" lon="-118.5874252319336">
<ele>2834</ele>
<time>2016-10-22T03:15:13Z</time>
</trkpt>
<trkpt lat="36.84259033203125" lon="-118.58737182617188">
<ele>2834</ele>
<time>2016-10-22T03:15:19Z</time>
</trkpt>
<trkpt lat="36.84253692626953" lon="-118.58738708496094">
<ele>2830</ele>
<time>2016-10-22T03:15:35Z</time>
</trkpt>
<trkpt lat="36.842445373535156" lon="-118.58734893798828">
<ele>2827</ele>
<time>2016-10-22T03:15:42Z</time>
</trkpt>
<trkpt lat="36.842350006103516" lon="-118.58734130859375">
<ele>2828</ele>
<time>2016-10-22T03:15:48Z</time>
</trkpt>
<trkpt lat="36.84232711791992" lon="-118.58728790283203">
<ele>2830</ele>
<time>2016-10-22T03:16:26Z</time>
</trkpt>
<trkpt lat="36.84225845336914" lon="-118.58721160888672">
<ele>2829</ele>
<time>2016-10-22T03:16:48Z</time>
</trkpt>
<trkpt lat="36.84224319458008" lon="-118.58714294433594">
<ele>2829</ele>
<time>2016-10-22T03:16:59Z</time>
</trkpt>
<trkpt lat="36.84224319458008" lon="-118.58708190917969">
<ele>2829</ele>
<time>2016-10-22T03:17:09Z</time>
</trkpt>
<trkpt lat="36.84223556518555" lon="-118.58702850341797">
<ele>2829</ele>
<time>2016-10-22T03:17:15Z</time>
</trkpt>
<trkpt lat="36.84223937988281" lon="-118.58696746826172">
<ele>2821</ele>
<time>2016-10-22T03:17:26Z</time>
</trkpt>
<trkpt lat="36.84227752685547" lon="-118.58692932128906">
<ele>2820</ele>
<time>2016-10-22T03:17:39Z</time>
</trkpt>
<trkpt lat="36.84226608276367" lon="-118.58687591552734">
<ele>2815</ele>
<time>2016-10-22T03:17:48Z</time>
</trkpt>
<trkpt lat="36.842262268066406" lon="-118.58680725097656">
<ele>2809</ele>
<time>2016-10-22T03:17:59Z</time>
</trkpt>
<trkpt lat="36.84220886230469" lon="-118.58670043945313">
<ele>2812</ele>
<time>2016-10-22T03:18:09Z</time>
</trkpt>
<trkpt lat="36.84217834472656" lon="-118.58665466308594">
<ele>2808</ele>
<time>2016-10-22T03:18:16Z</time>
</trkpt>
<trkpt lat="36.84215545654297" lon="-118.58659362792969">
<ele>2805</ele>
<time>2016-10-22T03:18:25Z</time>
</trkpt>
<trkpt lat="36.84212112426758" lon="-118.58649444580078">
<ele>2799</ele>
<time>2016-10-22T03:18:36Z</time>
</trkpt>
<trkpt lat="36.842037200927734" lon="-118.58645629882813">
<ele>2796</ele>
<time>2016-10-22T03:18:48Z</time>
</trkpt>
<trkpt lat="36.84197235107422" lon="-118.58647918701172">
<ele>2787</ele>
<time>2016-10-22T03:19:17Z</time>
</trkpt>
<trkpt lat="36.84186553955078" lon="-118.58650970458984">
<ele>2787</ele>
<time>2016-10-22T03:19:25Z</time>
</trkpt>
<trkpt lat="36.84177017211914" lon="-118.58655548095703">
<ele>2788</ele>
<time>2016-10-22T03:19:34Z</time>
</trkpt>
<trkpt lat="36.8416748046875" lon="-118.58657836914063">
<ele>2790</ele>
<time>2016-10-22T03:19:40Z</time>
</trkpt>
<trkpt lat="36.84157943725586" lon="-118.58665466308594">
<ele>2789</ele>
<time>2016-10-22T03:19:46Z</time>
</trkpt>
<trkpt lat="36.84150695800781" lon="-118.58670806884766">
<ele>2785</ele>
<time>2016-10-22T03:19:53Z</time>
</trkpt>
<trkpt lat="36.84142303466797" lon="-118.5867919921875">
<ele>2776</ele>
<time>2016-10-22T03:20:02Z</time>
</trkpt>
<trkpt lat="36.841346740722656" lon="-118.58686065673828">
<ele>2773</ele>
<time>2016-10-22T03:20:17Z</time>
</trkpt>
<trkpt lat="36.841270446777344" lon="-118.58695220947266">
<ele>2767</ele>
<time>2016-10-22T03:20:26Z</time>
</trkpt>
<trkpt lat="36.841182708740234" lon="-118.58702087402344">
<ele>2768</ele>
<time>2016-10-22T03:20:32Z</time>
</trkpt>
<trkpt lat="36.84111785888672" lon="-118.58712005615234">
<ele>2764</ele>
<time>2016-10-22T03:20:38Z</time>
</trkpt>
<trkpt lat="36.841068267822266" lon="-118.58721923828125">
<ele>2762</ele>
<time>2016-10-22T03:20:45Z</time>
</trkpt>
<trkpt lat="36.84097671508789" lon="-118.58733367919922">
<ele>2761</ele>
<time>2016-10-22T03:20:54Z</time>
</trkpt>
<trkpt lat="36.84099197387695" lon="-118.58727264404297">
<ele>2764</ele>
<time>2016-10-22T03:21:08Z</time>
</trkpt>
<trkpt lat="36.8409423828125" lon="-118.5872573852539">
<ele>2754</ele>
<time>2016-10-22T03:21:38Z</time>
</trkpt>
<trkpt lat="36.840843200683594" lon="-118.58724975585938">
<ele>2751</ele>
<time>2016-10-22T03:21:47Z</time>
</trkpt>
<trkpt lat="36.84076690673828" lon="-118.58726501464844">
<ele>2753</ele>
<time>2016-10-22T03:21:58Z</time>
</trkpt>
<trkpt lat="36.84071731567383" lon="-118.58726501464844">
<ele>2753</ele>
<time>2016-10-22T03:22:25Z</time>
</trkpt>
<trkpt lat="36.84068298339844" lon="-118.58722686767578">
<ele>2751</ele>
<time>2016-10-22T03:22:40Z</time>
</trkpt>
<trkpt lat="36.84059143066406" lon="-118.58718872070313">
<ele>2748</ele>
<time>2016-10-22T03:22:50Z</time>
</trkpt>
<trkpt lat="36.84056854248047" lon="-118.5871353149414">
<ele>2742</ele>
<time>2016-10-22T03:23:11Z</time>
</trkpt>
<trkpt lat="36.840518951416016" lon="-118.58712005615234">
<ele>2739</ele>
<time>2016-10-22T03:23:18Z</time>
</trkpt>
<trkpt lat="36.84043502807617" lon="-118.58717346191406">
<ele>2732</ele>
<time>2016-10-22T03:23:28Z</time>
</trkpt>
<trkpt lat="36.84036636352539" lon="-118.5871810913086">
<ele>2733</ele>
<time>2016-10-22T03:23:46Z</time>
</trkpt>
<trkpt lat="36.8403205871582" lon="-118.5871353149414">
<ele>2733</ele>
<time>2016-10-22T03:24:04Z</time>
</trkpt>
<trkpt lat="36.840274810791016" lon="-118.58712005615234">
<ele>2732</ele>
<time>2016-10-22T03:24:19Z</time>
</trkpt>
<trkpt lat="36.84030532836914" lon="-118.5870590209961">
<ele>2729</ele>
<time>2016-10-22T03:24:55Z</time>
</trkpt>
<trkpt lat="36.84032440185547" lon="-118.5870132446289">
<ele>2729</ele>
<time>2016-10-22T03:25:05Z</time>
</trkpt>
</trkseg>
</trk>
<trk>
<name><![CDATA[10212043]]></name>
<number>70</number>
<extensions><topografix:color>ff000066</topografix:color></extensions>
<trkseg>
<trkpt lat="36.83486557006836" lon="-118.57826232910156">
<ele>2495</ele>
<time>2016-10-22T03:44:03Z</time>
</trkpt>
<trkpt lat="36.83491134643555" lon="-118.57827758789063">
<ele>2493</ele>
<time>2016-10-22T03:44:10Z</time>
</trkpt>
<trkpt lat="36.83501052856445" lon="-118.5782470703125">
<ele>2492</ele>
<time>2016-10-22T03:44:16Z</time>
</trkpt>
<trkpt lat="36.83509826660156" lon="-118.57817840576172">
<ele>2499</ele>
<time>2016-10-22T03:44:22Z</time>
</trkpt>
<trkpt lat="36.83514404296875" lon="-118.57817077636719">
<ele>2494</ele>
<time>2016-10-22T03:44:33Z</time>
</trkpt>
<trkpt lat="36.83525085449219" lon="-118.57816314697266">
<ele>2493</ele>
<time>2016-10-22T03:44:41Z</time>
</trkpt>
<trkpt lat="36.83534622192383" lon="-118.57810974121094">
<ele>2490</ele>
<time>2016-10-22T03:44:47Z</time>
</trkpt>
<trkpt lat="36.83544921875" lon="-118.57805633544922">
<ele>2486</ele>
<time>2016-10-22T03:44:54Z</time>
</trkpt>
<trkpt lat="36.8355598449707" lon="-118.57801818847656">
<ele>2482</ele>
<time>2016-10-22T03:45:03Z</time>
</trkpt>
<trkpt lat="36.835655212402344" lon="-118.5779800415039">
<ele>2483</ele>
<time>2016-10-22T03:45:09Z</time>
</trkpt>
<trkpt lat="36.835750579833984" lon="-118.57791900634766">
<ele>2485</ele>
<time>2016-10-22T03:45:15Z</time>
</trkpt>
<trkpt lat="36.83583450317383" lon="-118.57784271240234">
<ele>2482</ele>
<time>2016-10-22T03:45:21Z</time>
</trkpt>
<trkpt lat="36.83592224121094" lon="-118.57779693603516">
<ele>2478</ele>
<time>2016-10-22T03:45:28Z</time>
</trkpt>
<trkpt lat="36.8359260559082" lon="-118.57770538330078">
<ele>2473</ele>
<time>2016-10-22T03:45:37Z</time>
</trkpt>
<trkpt lat="36.83583450317383" lon="-118.57771301269531">
<ele>2471</ele>
<time>2016-10-22T03:45:45Z</time>
</trkpt>
<trkpt lat="36.835731506347656" lon="-118.57771301269531">
<ele>2462</ele>
<time>2016-10-22T03:45:55Z</time>
</trkpt>
<trkpt lat="36.835636138916016" lon="-118.57772827148438">
<ele>2465</ele>
<time>2016-10-22T03:46:02Z</time>
</trkpt>
<trkpt lat="36.835540771484375" lon="-118.57772827148438">
<ele>2464</ele>
<time>2016-10-22T03:46:08Z</time>
</trkpt>
<trkpt lat="36.83544158935547" lon="-118.57770538330078">
<ele>2460</ele>
<time>2016-10-22T03:46:14Z</time>
</trkpt>
<trkpt lat="36.83534622192383" lon="-118.57772064208984">
<ele>2457</ele>
<time>2016-10-22T03:46:20Z</time>
</trkpt>
<trkpt lat="36.83522415161133" lon="-118.5777359008789">
<ele>2455</ele>
<time>2016-10-22T03:46:27Z</time>
</trkpt>
<trkpt lat="36.83512496948242" lon="-118.57775115966797">
<ele>2455</ele>
<time>2016-10-22T03:46:34Z</time>
</trkpt>
<trkpt lat="36.835025787353516" lon="-118.57769775390625">
<ele>2457</ele>
<time>2016-10-22T03:46:41Z</time>
</trkpt>
<trkpt lat="36.834930419921875" lon="-118.57769012451172">
<ele>2452</ele>
<time>2016-10-22T03:46:48Z</time>
</trkpt>
<trkpt lat="36.834835052490234" lon="-118.57767486572266">
<ele>2450</ele>
<time>2016-10-22T03:46:54Z</time>
</trkpt>
<trkpt lat="36.834739685058594" lon="-118.57764434814453">
<ele>2448</ele>
<time>2016-10-22T03:47:03Z</time>
</trkpt>
<trkpt lat="36.834625244140625" lon="-118.57762908935547">
<ele>2450</ele>
<time>2016-10-22T03:47:09Z</time>
</trkpt>
<trkpt lat="36.83452606201172" lon="-118.57760620117188">
<ele>2451</ele>
<time>2016-10-22T03:47:16Z</time>
</trkpt>
<trkpt lat="36.83443069458008" lon="-118.57762145996094">
<ele>2451</ele>
<time>2016-10-22T03:47:22Z</time>
</trkpt>
<trkpt lat="36.83433151245117" lon="-118.57762908935547">
<ele>2448</ele>
<time>2016-10-22T03:47:30Z</time>
</trkpt>
<trkpt lat="36.83428192138672" lon="-118.57763671875">
<ele>2447</ele>
<time>2016-10-22T03:47:36Z</time>
</trkpt>
<trkpt lat="36.83418273925781" lon="-118.57762145996094">
<ele>2446</ele>
<time>2016-10-22T03:47:42Z</time>
</trkpt>
<trkpt lat="36.834068298339844" lon="-118.57765197753906">
<ele>2446</ele>
<time>2016-10-22T03:47:49Z</time>
</trkpt>
<trkpt lat="36.8339729309082" lon="-118.57765197753906">
<ele>2447</ele>
<time>2016-10-22T03:47:58Z</time>
</trkpt>
<trkpt lat="36.83386993408203" lon="-118.57764434814453">
<ele>2450</ele>
<time>2016-10-22T03:48:04Z</time>
</trkpt>
<trkpt lat="36.83377456665039" lon="-118.57769012451172">
<ele>2447</ele>
<time>2016-10-22T03:48:10Z</time>
</trkpt>
<trkpt lat="36.83366775512695" lon="-118.57771301269531">
<ele>2443</ele>
<time>2016-10-22T03:48:19Z</time>
</trkpt>
<trkpt lat="36.83357238769531" lon="-118.57774353027344">
<ele>2439</ele>
<time>2016-10-22T03:48:25Z</time>
</trkpt>
<trkpt lat="36.83346176147461" lon="-118.5777359008789">
<ele>2437</ele>
<time>2016-10-22T03:48:33Z</time>
</trkpt>
<trkpt lat="36.8333625793457" lon="-118.5777587890625">
<ele>2444</ele>
<time>2016-10-22T03:48:41Z</time>
</trkpt>
<trkpt lat="36.83325958251953" lon="-118.57777404785156">
<ele>2443</ele>
<time>2016-10-22T03:48:48Z</time>
</trkpt>
<trkpt lat="36.833152770996094" lon="-118.57781982421875">
<ele>2442</ele>
<time>2016-10-22T03:48:56Z</time>
</trkpt>
<trkpt lat="36.83304977416992" lon="-118.57782745361328">
<ele>2443</ele>
<time>2016-10-22T03:49:03Z</time>
</trkpt>
<trkpt lat="36.83295822143555" lon="-118.57789611816406">
<ele>2442</ele>
<time>2016-10-22T03:49:11Z</time>
</trkpt>
<trkpt lat="36.83286666870117" lon="-118.57798767089844">
<ele>2443</ele>
<time>2016-10-22T03:49:17Z</time>
</trkpt>
<trkpt lat="36.83279037475586" lon="-118.57805633544922">
<ele>2436</ele>
<time>2016-10-22T03:49:26Z</time>
</trkpt>
<trkpt lat="36.83271026611328" lon="-118.57816314697266">
<ele>2435</ele>
<time>2016-10-22T03:49:35Z</time>
</trkpt>
<trkpt lat="36.8326301574707" lon="-118.57823181152344">
<ele>2433</ele>
<time>2016-10-22T03:49:42Z</time>
</trkpt>
<trkpt lat="36.832523345947266" lon="-118.57827758789063">
<ele>2433</ele>
<time>2016-10-22T03:49:50Z</time>
</trkpt>
<trkpt lat="36.8323974609375" lon="-118.57838439941406">
<ele>2431</ele>
<time>2016-10-22T03:49:58Z</time>
</trkpt>
<trkpt lat="36.83229064941406" lon="-118.57848358154297">
<ele>2425</ele>
<time>2016-10-22T03:50:08Z</time>
</trkpt>
<trkpt lat="36.832237243652344" lon="-118.57860565185547">
<ele>2425</ele>
<time>2016-10-22T03:50:15Z</time>
</trkpt>
<trkpt lat="36.832176208496094" lon="-118.57869720458984">
<ele>2423</ele>
<time>2016-10-22T03:50:24Z</time>
</trkpt>
<trkpt lat="36.83213806152344" lon="-118.57887268066406">
<ele>2418</ele>
<time>2016-10-22T03:50:32Z</time>
</trkpt>
<trkpt lat="36.83210372924805" lon="-118.57898712158203">
<ele>2413</ele>
<time>2016-10-22T03:50:38Z</time>
</trkpt>
<trkpt lat="36.83205032348633" lon="-118.57910919189453">
<ele>2412</ele>
<time>2016-10-22T03:50:45Z</time>
</trkpt>
<trkpt lat="36.83200454711914" lon="-118.5792236328125">
<ele>2411</ele>
<time>2016-10-22T03:50:52Z</time>
</trkpt>
<trkpt lat="36.831939697265625" lon="-118.5793228149414">
<ele>2407</ele>
<time>2016-10-22T03:51:01Z</time>
</trkpt>
<trkpt lat="36.83189392089844" lon="-118.5794906616211">
<ele>2410</ele>
<time>2016-10-22T03:51:09Z</time>
</trkpt>
<trkpt lat="36.83185577392578" lon="-118.57959747314453">
<ele>2411</ele>
<time>2016-10-22T03:51:16Z</time>
</trkpt>
<trkpt lat="36.83185577392578" lon="-118.57971954345703">
<ele>2407</ele>
<time>2016-10-22T03:51:22Z</time>
</trkpt>
<trkpt lat="36.83185958862305" lon="-118.57984161376953">
<ele>2409</ele>
<time>2016-10-22T03:51:31Z</time>
</trkpt>
<trkpt lat="36.83185577392578" lon="-118.57998657226563">
<ele>2407</ele>
<time>2016-10-22T03:51:39Z</time>
</trkpt>
<trkpt lat="36.831871032714844" lon="-118.58011627197266">
<ele>2403</ele>
<time>2016-10-22T03:51:45Z</time>
</trkpt>
<trkpt lat="36.83188247680664" lon="-118.5801773071289">
<ele>2400</ele>
<time>2016-10-22T03:51:51Z</time>
</trkpt>
<trkpt lat="36.83179473876953" lon="-118.58016204833984">
<ele>2398</ele>
<time>2016-10-22T03:52:06Z</time>
</trkpt>
<trkpt lat="36.83169937133789" lon="-118.58010864257813">
<ele>2399</ele>
<time>2016-10-22T03:52:12Z</time>
</trkpt>
<trkpt lat="36.831600189208984" lon="-118.58008575439453">
<ele>2400</ele>
<time>2016-10-22T03:52:18Z</time>
</trkpt>
<trkpt lat="36.831520080566406" lon="-118.58000946044922">
<ele>2398</ele>
<time>2016-10-22T03:52:25Z</time>
</trkpt>
<trkpt lat="36.831424713134766" lon="-118.57994079589844">
<ele>2397</ele>
<time>2016-10-22T03:52:32Z</time>
</trkpt>
<trkpt lat="36.831321716308594" lon="-118.57989501953125">
<ele>2396</ele>
<time>2016-10-22T03:52:39Z</time>
</trkpt>
<trkpt lat="36.831275939941406" lon="-118.57990264892578">
<ele>2397</ele>
<time>2016-10-22T03:52:48Z</time>
</trkpt>
<trkpt lat="36.83121871948242" lon="-118.57982635498047">
<ele>2408</ele>
<time>2016-10-22T03:53:08Z</time>
</trkpt>
<trkpt lat="36.83115005493164" lon="-118.57971954345703">
<ele>2407</ele>
<time>2016-10-22T03:53:15Z</time>
</trkpt>
<trkpt lat="36.83106994628906" lon="-118.57964324951172">
<ele>2406</ele>
<time>2016-10-22T03:53:24Z</time>
</trkpt>
<trkpt lat="36.830963134765625" lon="-118.57960510253906">
<ele>2403</ele>
<time>2016-10-22T03:53:32Z</time>
</trkpt>
<trkpt lat="36.83087921142578" lon="-118.57951354980469">
<ele>2397</ele>
<time>2016-10-22T03:53:38Z</time>
</trkpt>
<trkpt lat="36.83079528808594" lon="-118.57943725585938">
<ele>2389</ele>
<time>2016-10-22T03:53:44Z</time>
</trkpt>
<trkpt lat="36.830665588378906" lon="-118.57933807373047">
<ele>2380</ele>
<time>2016-10-22T03:53:51Z</time>
</trkpt>
<trkpt lat="36.83059310913086" lon="-118.57923889160156">
<ele>2386</ele>
<time>2016-10-22T03:53:59Z</time>
</trkpt>
<trkpt lat="36.83052062988281" lon="-118.57913208007813">
<ele>2387</ele>
<time>2016-10-22T03:54:06Z</time>
</trkpt>
<trkpt lat="36.8304443359375" lon="-118.57902526855469">
<ele>2386</ele>
<time>2016-10-22T03:54:13Z</time>
</trkpt>
<trkpt lat="36.83033752441406" lon="-118.57886505126953">
<ele>2386</ele>
<time>2016-10-22T03:54:19Z</time>
</trkpt>
<trkpt lat="36.83024978637695" lon="-118.57878875732422">
<ele>2383</ele>
<time>2016-10-22T03:54:25Z</time>
</trkpt>
<trkpt lat="36.83016586303711" lon="-118.57879638671875">
<ele>2375</ele>
<time>2016-10-22T03:54:32Z</time>
</trkpt>
<trkpt lat="36.830101013183594" lon="-118.57889556884766">
<ele>2374</ele>
<time>2016-10-22T03:54:39Z</time>
</trkpt>
<trkpt lat="36.830074310302734" lon="-118.5790023803711">
<ele>2370</ele>
<time>2016-10-22T03:54:49Z</time>
</trkpt>
<trkpt lat="36.8300666809082" lon="-118.5791244506836">
<ele>2367</ele>
<time>2016-10-22T03:54:58Z</time>
</trkpt>
<trkpt lat="36.83002471923828" lon="-118.57930755615234">
<ele>2362</ele>
<time>2016-10-22T03:55:08Z</time>
</trkpt>
<trkpt lat="36.830013275146484" lon="-118.57943725585938">
<ele>2361</ele>
<time>2016-10-22T03:55:14Z</time>
</trkpt>
<trkpt lat="36.82997131347656" lon="-118.57954406738281">
<ele>2373</ele>
<time>2016-10-22T03:55:48Z</time>
</trkpt>
<trkpt lat="36.82990264892578" lon="-118.57970428466797">
<ele>2370</ele>
<time>2016-10-22T03:55:55Z</time>
</trkpt>
<trkpt lat="36.82987976074219" lon="-118.57984924316406">
<ele>2370</ele>
<time>2016-10-22T03:56:01Z</time>
</trkpt>
<trkpt lat="36.829864501953125" lon="-118.57994842529297">
<ele>2368</ele>
<time>2016-10-22T03:56:13Z</time>
</trkpt>
<trkpt lat="36.829803466796875" lon="-118.58013916015625">
<ele>2367</ele>
<time>2016-10-22T03:56:20Z</time>
</trkpt>
<trkpt lat="36.82976150512695" lon="-118.58026123046875">
<ele>2367</ele>
<time>2016-10-22T03:56:26Z</time>
</trkpt>
<trkpt lat="36.82968521118164" lon="-118.5804214477539">
<ele>2357</ele>
<time>2016-10-22T03:56:34Z</time>
</trkpt>
<trkpt lat="36.829627990722656" lon="-118.5805435180664">
<ele>2355</ele>
<time>2016-10-22T03:56:40Z</time>
</trkpt>
<trkpt lat="36.82968521118164" lon="-118.58065795898438">
<ele>2354</ele>
<time>2016-10-22T03:56:49Z</time>
</trkpt>
<trkpt lat="36.82963180541992" lon="-118.58078002929688">
<ele>2355</ele>
<time>2016-10-22T03:56:56Z</time>
</trkpt>
<trkpt lat="36.82956314086914" lon="-118.58084869384766">
<ele>2355</ele>
<time>2016-10-22T03:57:03Z</time>
</trkpt>
<trkpt lat="36.8294563293457" lon="-118.58087158203125">
<ele>2351</ele>
<time>2016-10-22T03:57:10Z</time>
</trkpt>
<trkpt lat="36.82935333251953" lon="-118.58087158203125">
<ele>2349</ele>
<time>2016-10-22T03:57:17Z</time>
</trkpt>
<trkpt lat="36.82924270629883" lon="-118.58089447021484">
<ele>2344</ele>
<time>2016-10-22T03:57:25Z</time>
</trkpt>
<trkpt lat="36.82914352416992" lon="-118.58094787597656">
<ele>2346</ele>
<time>2016-10-22T03:57:33Z</time>
</trkpt>
<trkpt lat="36.829036712646484" lon="-118.5809097290039">
<ele>2348</ele>
<time>2016-10-22T03:57:41Z</time>
</trkpt>
<trkpt lat="36.82892990112305" lon="-118.58094787597656">
<ele>2345</ele>
<time>2016-10-22T03:57:47Z</time>
</trkpt>
<trkpt lat="36.82884216308594" lon="-118.58097839355469">
<ele>2342</ele>
<time>2016-10-22T03:57:53Z</time>
</trkpt>
<trkpt lat="36.82875061035156" lon="-118.58100891113281">
<ele>2344</ele>
<time>2016-10-22T03:57:59Z</time>
</trkpt>
<trkpt lat="36.828636169433594" lon="-118.58098602294922">
<ele>2344</ele>
<time>2016-10-22T03:58:06Z</time>
</trkpt>
<trkpt lat="36.82853317260742" lon="-118.58097076416016">
<ele>2342</ele>
<time>2016-10-22T03:58:13Z</time>
</trkpt>
<trkpt lat="36.828433990478516" lon="-118.58091735839844">
<ele>2343</ele>
<time>2016-10-22T03:58:20Z</time>
</trkpt>
<trkpt lat="36.828338623046875" lon="-118.5809326171875">
<ele>2342</ele>
<time>2016-10-22T03:58:30Z</time>
</trkpt>
<trkpt lat="36.828224182128906" lon="-118.58089447021484">
<ele>2340</ele>
<time>2016-10-22T03:58:38Z</time>
</trkpt>
<trkpt lat="36.828128814697266" lon="-118.58089447021484">
<ele>2341</ele>
<time>2016-10-22T03:58:45Z</time>
</trkpt>
<trkpt lat="36.828033447265625" lon="-118.58090209960938">
<ele>2337</ele>
<time>2016-10-22T03:58:52Z</time>
</trkpt>
<trkpt lat="36.82786178588867" lon="-118.5809097290039">
<ele>2335</ele>
<time>2016-10-22T03:59:00Z</time>
</trkpt>
<trkpt lat="36.827842712402344" lon="-118.58096313476563">
<ele>2331</ele>
<time>2016-10-22T03:59:16Z</time>
</trkpt>
<trkpt lat="36.82779312133789" lon="-118.58097076416016">
<ele>2331</ele>
<time>2016-10-22T04:03:02Z</time>
</trkpt>
<trkpt lat="36.82773208618164" lon="-118.58098602294922">
<ele>2331</ele>
<time>2016-10-22T04:03:08Z</time>
</trkpt>
<trkpt lat="36.8276252746582" lon="-118.58098602294922">
<ele>2332</ele>
<time>2016-10-22T04:03:17Z</time>
</trkpt>
<trkpt lat="36.82754135131836" lon="-118.58106231689453">
<ele>2318</ele>
<time>2016-10-22T04:03:24Z</time>
</trkpt>
<trkpt lat="36.82744598388672" lon="-118.58109283447266">
<ele>2318</ele>
<time>2016-10-22T04:03:33Z</time>
</trkpt>
<trkpt lat="36.82733917236328" lon="-118.58109283447266">
<ele>2319</ele>
<time>2016-10-22T04:03:41Z</time>
</trkpt>
<trkpt lat="36.82724380493164" lon="-118.58106231689453">
<ele>2316</ele>
<time>2016-10-22T04:03:48Z</time>
</trkpt>
<trkpt lat="36.8271484375" lon="-118.58102416992188">
<ele>2315</ele>
<time>2016-10-22T04:03:55Z</time>
</trkpt>
<trkpt lat="36.827049255371094" lon="-118.58096313476563">
<ele>2314</ele>
<time>2016-10-22T04:04:02Z</time>
</trkpt>
<trkpt lat="36.82691955566406" lon="-118.58091735839844">
<ele>2315</ele>
<time>2016-10-22T04:04:10Z</time>
</trkpt>
<trkpt lat="36.82681655883789" lon="-118.58086395263672">
<ele>2318</ele>
<time>2016-10-22T04:04:16Z</time>
</trkpt>
<trkpt lat="36.826717376708984" lon="-118.58084869384766">
<ele>2323</ele>
<time>2016-10-22T04:04:24Z</time>
</trkpt>
<trkpt lat="36.82659912109375" lon="-118.58084106445313">
<ele>2323</ele>
<time>2016-10-22T04:04:30Z</time>
</trkpt>
<trkpt lat="36.82649230957031" lon="-118.58082580566406">
<ele>2320</ele>
<time>2016-10-22T04:04:36Z</time>
</trkpt>
<trkpt lat="36.82639694213867" lon="-118.58086395263672">
<ele>2320</ele>
<time>2016-10-22T04:04:45Z</time>
</trkpt>
<trkpt lat="36.8262939453125" lon="-118.58086395263672">
<ele>2321</ele>
<time>2016-10-22T04:04:52Z</time>
</trkpt>
<trkpt lat="36.82615661621094" lon="-118.580810546875">
<ele>2319</ele>
<time>2016-10-22T04:04:59Z</time>
</trkpt>
<trkpt lat="36.82603073120117" lon="-118.58079528808594">
<ele>2320</ele>
<time>2016-10-22T04:05:08Z</time>
</trkpt>
<trkpt lat="36.825931549072266" lon="-118.58075714111328">
<ele>2310</ele>
<time>2016-10-22T04:05:16Z</time>
</trkpt>
<trkpt lat="36.8258171081543" lon="-118.58077239990234">
<ele>2307</ele>
<time>2016-10-22T04:05:23Z</time>
</trkpt>
<trkpt lat="36.82572555541992" lon="-118.58084869384766">
<ele>2301</ele>
<time>2016-10-22T04:05:30Z</time>
</trkpt>
<trkpt lat="36.825626373291016" lon="-118.580810546875">
<ele>2300</ele>
<time>2016-10-22T04:05:37Z</time>
</trkpt>
<trkpt lat="36.82554244995117" lon="-118.58075714111328">
<ele>2298</ele>
<time>2016-10-22T04:05:45Z</time>
</trkpt>
<trkpt lat="36.825523376464844" lon="-118.5808334350586">
<ele>2297</ele>
<time>2016-10-22T04:05:54Z</time>
</trkpt>
<trkpt lat="36.825462341308594" lon="-118.5809097290039">
<ele>2296</ele>
<time>2016-10-22T04:06:01Z</time>
</trkpt>
<trkpt lat="36.82539367675781" lon="-118.58091735839844">
<ele>2294</ele>
<time>2016-10-22T04:06:07Z</time>
</trkpt>
<trkpt lat="36.82528305053711" lon="-118.5809555053711">
<ele>2291</ele>
<time>2016-10-22T04:06:13Z</time>
</trkpt>
<trkpt lat="36.82517623901367" lon="-118.58097076416016">
<ele>2289</ele>
<time>2016-10-22T04:06:19Z</time>
</trkpt>
<trkpt lat="36.8250846862793" lon="-118.58100128173828">
<ele>2291</ele>
<time>2016-10-22T04:06:26Z</time>
</trkpt>
<trkpt lat="36.824989318847656" lon="-118.5810775756836">
<ele>2286</ele>
<time>2016-10-22T04:06:35Z</time>
</trkpt>
<trkpt lat="36.82490539550781" lon="-118.5811538696289">
<ele>2285</ele>
<time>2016-10-22T04:06:43Z</time>
</trkpt>
<trkpt lat="36.8248176574707" lon="-118.58121490478516">
<ele>2286</ele>
<time>2016-10-22T04:06:52Z</time>
</trkpt>
<trkpt lat="36.8247184753418" lon="-118.5812759399414">
<ele>2285</ele>
<time>2016-10-22T04:07:00Z</time>
</trkpt>
<trkpt lat="36.82464599609375" lon="-118.58134460449219">
<ele>2282</ele>
<time>2016-10-22T04:07:07Z</time>
</trkpt>
<trkpt lat="36.82453155517578" lon="-118.58130645751953">
<ele>2280</ele>
<time>2016-10-22T04:07:13Z</time>
</trkpt>
<trkpt lat="36.824440002441406" lon="-118.58128356933594">
<ele>2282</ele>
<time>2016-10-22T04:07:19Z</time>
</trkpt>
<trkpt lat="36.824337005615234" lon="-118.58126068115234">
<ele>2278</ele>
<time>2016-10-22T04:07:27Z</time>
</trkpt>
<trkpt lat="36.82422637939453" lon="-118.58126831054688">
<ele>2277</ele>
<time>2016-10-22T04:07:34Z</time>
</trkpt>
<trkpt lat="36.8241081237793" lon="-118.58124542236328">
<ele>2279</ele>
<time>2016-10-22T04:07:42Z</time>
</trkpt>
<trkpt lat="36.82400894165039" lon="-118.58126068115234">
<ele>2278</ele>
<time>2016-10-22T04:07:48Z</time>
</trkpt>
<trkpt lat="36.82392120361328" lon="-118.58130645751953">
<ele>2281</ele>
<time>2016-10-22T04:07:55Z</time>
</trkpt>
<trkpt lat="36.8238410949707" lon="-118.58139038085938">
<ele>2284</ele>
<time>2016-10-22T04:08:02Z</time>
</trkpt>
<trkpt lat="36.823726654052734" lon="-118.58142852783203">
<ele>2282</ele>
<time>2016-10-22T04:08:12Z</time>
</trkpt>
<trkpt lat="36.823646545410156" lon="-118.58149719238281">
<ele>2281</ele>
<time>2016-10-22T04:08:20Z</time>
</trkpt>
<trkpt lat="36.82352828979492" lon="-118.58161926269531">
<ele>2276</ele>
<time>2016-10-22T04:08:29Z</time>
</trkpt>
<trkpt lat="36.82345962524414" lon="-118.58170318603516">
<ele>2274</ele>
<time>2016-10-22T04:08:37Z</time>
</trkpt>
<trkpt lat="36.82339859008789" lon="-118.58182525634766">
<ele>2275</ele>
<time>2016-10-22T04:08:44Z</time>
</trkpt>
<trkpt lat="36.82332992553711" lon="-118.5819320678711">
<ele>2277</ele>
<time>2016-10-22T04:08:51Z</time>
</trkpt>
<trkpt lat="36.82326889038086" lon="-118.58203125">
<ele>2277</ele>
<time>2016-10-22T04:09:02Z</time>
</trkpt>
<trkpt lat="36.82324981689453" lon="-118.58210754394531">
<ele>2276</ele>
<time>2016-10-22T04:09:08Z</time>
</trkpt>
<trkpt lat="36.823238372802734" lon="-118.58222961425781">
<ele>2275</ele>
<time>2016-10-22T04:09:14Z</time>
</trkpt>
<trkpt lat="36.82323455810547" lon="-118.58236694335938">
<ele>2274</ele>
<time>2016-10-22T04:09:20Z</time>
</trkpt>
<trkpt lat="36.82320022583008" lon="-118.58248901367188">
<ele>2272</ele>
<time>2016-10-22T04:09:28Z</time>
</trkpt>
<trkpt lat="36.8231201171875" lon="-118.58257293701172">
<ele>2278</ele>
<time>2016-10-22T04:09:37Z</time>
</trkpt>
<trkpt lat="36.82303237915039" lon="-118.58264923095703">
<ele>2273</ele>
<time>2016-10-22T04:09:45Z</time>
</trkpt>
<trkpt lat="36.822998046875" lon="-118.582763671875">
<ele>2278</ele>
<time>2016-10-22T04:09:55Z</time>
</trkpt>
<trkpt lat="36.82295227050781" lon="-118.5827865600586">
<ele>2280</ele>
<time>2016-10-22T04:10:01Z</time>
</trkpt>
<trkpt lat="36.822872161865234" lon="-118.58280181884766">
<ele>2280</ele>
<time>2016-10-22T04:10:08Z</time>
</trkpt>
<trkpt lat="36.82272720336914" lon="-118.58279418945313">
<ele>2276</ele>
<time>2016-10-22T04:10:17Z</time>
</trkpt>
<trkpt lat="36.82256317138672" lon="-118.58284759521484">
<ele>2273</ele>
<time>2016-10-22T04:10:24Z</time>
</trkpt>
<trkpt lat="36.82246017456055" lon="-118.58280181884766">
<ele>2277</ele>
<time>2016-10-22T04:10:31Z</time>
</trkpt>
<trkpt lat="36.822364807128906" lon="-118.58280181884766">
<ele>2278</ele>
<time>2016-10-22T04:10:38Z</time>
</trkpt>
<trkpt lat="36.82227325439453" lon="-118.58284759521484">
<ele>2274</ele>
<time>2016-10-22T04:10:45Z</time>
</trkpt>
<trkpt lat="36.822181701660156" lon="-118.5828857421875">
<ele>2277</ele>
<time>2016-10-22T04:10:56Z</time>
</trkpt>
<trkpt lat="36.8221321105957" lon="-118.5829086303711">
<ele>2278</ele>
<time>2016-10-22T04:11:03Z</time>
</trkpt>
<trkpt lat="36.822139739990234" lon="-118.58296966552734">
<ele>2281</ele>
<time>2016-10-22T04:11:17Z</time>
</trkpt>
<trkpt lat="36.82202911376953" lon="-118.58300018310547">
<ele>2274</ele>
<time>2016-10-22T04:11:28Z</time>
</trkpt>
<trkpt lat="36.82190704345703" lon="-118.5831069946289">
<ele>2274</ele>
<time>2016-10-22T04:11:37Z</time>
</trkpt>
<trkpt lat="36.82185745239258" lon="-118.58307647705078">
<ele>2272</ele>
<time>2016-10-22T04:11:43Z</time>
</trkpt>
<trkpt lat="36.82181167602539" lon="-118.58306121826172">
<ele>2277</ele>
<time>2016-10-22T04:11:51Z</time>
</trkpt>
<trkpt lat="36.82170486450195" lon="-118.58306121826172">
<ele>2268</ele>
<time>2016-10-22T04:11:58Z</time>
</trkpt>
<trkpt lat="36.82158279418945" lon="-118.5830307006836">
<ele>2270</ele>
<time>2016-10-22T04:12:06Z</time>
</trkpt>
<trkpt lat="36.82148361206055" lon="-118.58306121826172">
<ele>2268</ele>
<time>2016-10-22T04:12:12Z</time>
</trkpt>
<trkpt lat="36.821380615234375" lon="-118.58301544189453">
<ele>2271</ele>
<time>2016-10-22T04:12:20Z</time>
</trkpt>
<trkpt lat="36.82127380371094" lon="-118.58295440673828">
<ele>2271</ele>
<time>2016-10-22T04:12:26Z</time>
</trkpt>
<trkpt lat="36.8211784362793" lon="-118.58292388916016">
<ele>2272</ele>
<time>2016-10-22T04:12:33Z</time>
</trkpt>
<trkpt lat="36.821102142333984" lon="-118.58285522460938">
<ele>2270</ele>
<time>2016-10-22T04:12:40Z</time>
</trkpt>
<trkpt lat="36.82101058959961" lon="-118.58282470703125">
<ele>2270</ele>
<time>2016-10-22T04:12:46Z</time>
</trkpt>
<trkpt lat="36.82087707519531" lon="-118.5827407836914">
<ele>2266</ele>
<time>2016-10-22T04:12:53Z</time>
</trkpt>
<trkpt lat="36.82078552246094" lon="-118.58267974853516">
<ele>2265</ele>
<time>2016-10-22T04:12:59Z</time>
</trkpt>
<trkpt lat="36.82066345214844" lon="-118.58264923095703">
<ele>2264</ele>
<time>2016-10-22T04:13:08Z</time>
</trkpt>
<trkpt lat="36.82057189941406" lon="-118.58258819580078">
<ele>2261</ele>
<time>2016-10-22T04:13:18Z</time>
</trkpt>
<trkpt lat="36.82048034667969" lon="-118.58255767822266">
<ele>2262</ele>
<time>2016-10-22T04:13:25Z</time>
</trkpt>
<trkpt lat="36.820377349853516" lon="-118.58251190185547">
<ele>2258</ele>
<time>2016-10-22T04:13:31Z</time>
</trkpt>
<trkpt lat="36.82023620605469" lon="-118.58245849609375">
<ele>2256</ele>
<time>2016-10-22T04:13:38Z</time>
</trkpt>
<trkpt lat="36.82009506225586" lon="-118.58235168457031">
<ele>2247</ele>
<time>2016-10-22T04:13:47Z</time>
</trkpt>
<trkpt lat="36.81998825073242" lon="-118.58234405517578">
<ele>2244</ele>
<time>2016-10-22T04:13:53Z</time>
</trkpt>
<trkpt lat="36.81990051269531" lon="-118.5822982788086">
<ele>2243</ele>
<time>2016-10-22T04:13:59Z</time>
</trkpt>
<trkpt lat="36.81978988647461" lon="-118.58218383789063">
<ele>2244</ele>
<time>2016-10-22T04:14:06Z</time>
</trkpt>
<trkpt lat="36.81975173950195" lon="-118.58206176757813">
<ele>2241</ele>
<time>2016-10-22T04:14:13Z</time>
</trkpt>
<trkpt lat="36.81972885131836" lon="-118.58194732666016">
<ele>2235</ele>
<time>2016-10-22T04:14:19Z</time>
</trkpt>
<trkpt lat="36.81970977783203" lon="-118.58182525634766">
<ele>2231</ele>
<time>2016-10-22T04:14:28Z</time>
</trkpt>
<trkpt lat="36.819679260253906" lon="-118.58169555664063">
<ele>2231</ele>
<time>2016-10-22T04:14:36Z</time>
</trkpt>
<trkpt lat="36.819618225097656" lon="-118.58151245117188">
<ele>2230</ele>
<time>2016-10-22T04:14:44Z</time>
</trkpt>
<trkpt lat="36.81962585449219" lon="-118.58138275146484">
<ele>2229</ele>
<time>2016-10-22T04:14:51Z</time>
</trkpt>
<trkpt lat="36.8195686340332" lon="-118.58126068115234">
<ele>2232</ele>
<time>2016-10-22T04:14:57Z</time>
</trkpt>
<trkpt lat="36.81951141357422" lon="-118.58116912841797">
<ele>2229</ele>
<time>2016-10-22T04:15:03Z</time>
</trkpt>
<trkpt lat="36.819461822509766" lon="-118.5810546875">
<ele>2231</ele>
<time>2016-10-22T04:15:09Z</time>
</trkpt>
<trkpt lat="36.81940841674805" lon="-118.58096313476563">
<ele>2228</ele>
<time>2016-10-22T04:15:17Z</time>
</trkpt>
<trkpt lat="36.8193473815918" lon="-118.58084869384766">
<ele>2229</ele>
<time>2016-10-22T04:15:23Z</time>
</trkpt>
<trkpt lat="36.81929397583008" lon="-118.58074188232422">
<ele>2229</ele>
<time>2016-10-22T04:15:31Z</time>
</trkpt>
<trkpt lat="36.81922912597656" lon="-118.58065032958984">
<ele>2225</ele>
<time>2016-10-22T04:15:37Z</time>
</trkpt>
<trkpt lat="36.819129943847656" lon="-118.58055877685547">
<ele>2220</ele>
<time>2016-10-22T04:15:45Z</time>
</trkpt>
<trkpt lat="36.81898498535156" lon="-118.58048248291016">
<ele>2223</ele>
<time>2016-10-22T04:15:55Z</time>
</trkpt>
<trkpt lat="36.81886291503906" lon="-118.58045959472656">
<ele>2221</ele>
<time>2016-10-22T04:16:02Z</time>
</trkpt>
<trkpt lat="36.81874465942383" lon="-118.58041381835938">
<ele>2220</ele>
<time>2016-10-22T04:16:10Z</time>
</trkpt>
<trkpt lat="36.818641662597656" lon="-118.5804214477539">
<ele>2219</ele>
<time>2016-10-22T04:16:16Z</time>
</trkpt>
<trkpt lat="36.81853103637695" lon="-118.58045959472656">
<ele>2215</ele>
<time>2016-10-22T04:16:25Z</time>
</trkpt>
<trkpt lat="36.81843948364258" lon="-118.5804672241211">
<ele>2213</ele>
<time>2016-10-22T04:16:33Z</time>
</trkpt>
<trkpt lat="36.81833267211914" lon="-118.58050537109375">
<ele>2210</ele>
<time>2016-10-22T04:16:40Z</time>
</trkpt>
<trkpt lat="36.8182487487793" lon="-118.58055877685547">
<ele>2202</ele>
<time>2016-10-22T04:16:47Z</time>
</trkpt>
<trkpt lat="36.81816482543945" lon="-118.58062744140625">
<ele>2198</ele>
<time>2016-10-22T04:16:54Z</time>
</trkpt>
<trkpt lat="36.81806945800781" lon="-118.58064270019531">
<ele>2195</ele>
<time>2016-10-22T04:17:01Z</time>
</trkpt>
<trkpt lat="36.81800079345703" lon="-118.58077239990234">
<ele>2196</ele>
<time>2016-10-22T04:17:09Z</time>
</trkpt>
<trkpt lat="36.81792068481445" lon="-118.58074951171875">
<ele>2196</ele>
<time>2016-10-22T04:17:21Z</time>
</trkpt>
<trkpt lat="36.81787109375" lon="-118.58061981201172">
<ele>2199</ele>
<time>2016-10-22T04:17:27Z</time>
</trkpt>
<trkpt lat="36.817867279052734" lon="-118.58048248291016">
<ele>2203</ele>
<time>2016-10-22T04:17:34Z</time>
</trkpt>
<trkpt lat="36.817813873291016" lon="-118.58038330078125">
<ele>2201</ele>
<time>2016-10-22T04:17:41Z</time>
</trkpt>
<trkpt lat="36.817752838134766" lon="-118.58045959472656">
<ele>2204</ele>
<time>2016-10-22T04:17:48Z</time>
</trkpt>
<trkpt lat="36.81766128540039" lon="-118.58042907714844">
<ele>2205</ele>
<time>2016-10-22T04:17:56Z</time>
</trkpt>
<trkpt lat="36.817596435546875" lon="-118.58031463623047">
<ele>2197</ele>
<time>2016-10-22T04:18:03Z</time>
</trkpt>
<trkpt lat="36.81755828857422" lon="-118.58040618896484">
<ele>2186</ele>
<time>2016-10-22T04:18:11Z</time>
</trkpt>
<trkpt lat="36.81752395629883" lon="-118.58053588867188">
<ele>2183</ele>
<time>2016-10-22T04:18:18Z</time>
</trkpt>
<trkpt lat="36.81746292114258" lon="-118.58065032958984">
<ele>2180</ele>
<time>2016-10-22T04:18:25Z</time>
</trkpt>
<trkpt lat="36.817405700683594" lon="-118.58073425292969">
<ele>2174</ele>
<time>2016-10-22T04:18:32Z</time>
</trkpt>
<trkpt lat="36.81732940673828" lon="-118.58081817626953">
<ele>2176</ele>
<time>2016-10-22T04:18:38Z</time>
</trkpt>
<trkpt lat="36.81724548339844" lon="-118.58091735839844">
<ele>2173</ele>
<time>2016-10-22T04:18:45Z</time>
</trkpt>
<trkpt lat="36.817161560058594" lon="-118.58100128173828">
<ele>2171</ele>
<time>2016-10-22T04:18:52Z</time>
</trkpt>
<trkpt lat="36.81707763671875" lon="-118.58108520507813">
<ele>2171</ele>
<time>2016-10-22T04:18:59Z</time>
</trkpt>
<trkpt lat="36.81698226928711" lon="-118.5811538696289">
<ele>2173</ele>
<time>2016-10-22T04:19:06Z</time>
</trkpt>
<trkpt lat="36.81691360473633" lon="-118.58123779296875">
<ele>2173</ele>
<time>2016-10-22T04:19:12Z</time>
</trkpt>
<trkpt lat="36.81683349609375" lon="-118.58133697509766">
<ele>2171</ele>
<time>2016-10-22T04:19:18Z</time>
</trkpt>
<trkpt lat="36.816749572753906" lon="-118.5813980102539">
<ele>2170</ele>
<time>2016-10-22T04:19:24Z</time>
</trkpt>
<trkpt lat="36.81666564941406" lon="-118.58148193359375">
<ele>2173</ele>
<time>2016-10-22T04:19:31Z</time>
</trkpt>
<trkpt lat="36.816566467285156" lon="-118.58153533935547">
<ele>2173</ele>
<time>2016-10-22T04:19:37Z</time>
</trkpt>
<trkpt lat="36.81647872924805" lon="-118.58160400390625">
<ele>2171</ele>
<time>2016-10-22T04:19:44Z</time>
</trkpt>
<trkpt lat="36.8163948059082" lon="-118.5816879272461">
<ele>2170</ele>
<time>2016-10-22T04:19:52Z</time>
</trkpt>
<trkpt lat="36.816314697265625" lon="-118.58173370361328">
<ele>2171</ele>
<time>2016-10-22T04:20:01Z</time>
</trkpt>
<trkpt lat="36.816253662109375" lon="-118.58177947998047">
<ele>2164</ele>
<time>2016-10-22T04:20:07Z</time>
</trkpt>
<trkpt lat="36.816200256347656" lon="-118.58187866210938">
<ele>2164</ele>
<time>2016-10-22T04:20:15Z</time>
</trkpt>
<trkpt lat="36.816097259521484" lon="-118.5818862915039">
<ele>2166</ele>
<time>2016-10-22T04:20:21Z</time>
</trkpt>
<trkpt lat="36.81600570678711" lon="-118.58196258544922">
<ele>2164</ele>
<time>2016-10-22T04:20:29Z</time>
</trkpt>
<trkpt lat="36.8159065246582" lon="-118.58197021484375">
<ele>2164</ele>
<time>2016-10-22T04:20:35Z</time>
</trkpt>
<trkpt lat="36.8158073425293" lon="-118.58201599121094">
<ele>2160</ele>
<time>2016-10-22T04:20:42Z</time>
</trkpt>
<trkpt lat="36.815704345703125" lon="-118.58203125">
<ele>2160</ele>
<time>2016-10-22T04:20:49Z</time>
</trkpt>
<trkpt lat="36.81562423706055" lon="-118.58208465576172">
<ele>2157</ele>
<time>2016-10-22T04:20:55Z</time>
</trkpt>
<trkpt lat="36.815494537353516" lon="-118.5821762084961">
<ele>2155</ele>
<time>2016-10-22T04:21:03Z</time>
</trkpt>
<trkpt lat="36.81541442871094" lon="-118.58226776123047">
<ele>2148</ele>
<time>2016-10-22T04:21:10Z</time>
</trkpt>
<trkpt lat="36.81532287597656" lon="-118.58222961425781">
<ele>2159</ele>
<time>2016-10-22T04:21:29Z</time>
</trkpt>
<trkpt lat="36.81527328491211" lon="-118.58224487304688">
<ele>2161</ele>
<time>2016-10-22T04:21:35Z</time>
</trkpt>
<trkpt lat="36.815185546875" lon="-118.58231353759766">
<ele>2160</ele>
<time>2016-10-22T04:21:42Z</time>
</trkpt>
<trkpt lat="36.81511306762695" lon="-118.58240509033203">
<ele>2156</ele>
<time>2016-10-22T04:21:49Z</time>
</trkpt>
<trkpt lat="36.81499099731445" lon="-118.58253479003906">
<ele>2157</ele>
<time>2016-10-22T04:21:57Z</time>
</trkpt>
<trkpt lat="36.814876556396484" lon="-118.58250427246094">
<ele>2156</ele>
<time>2016-10-22T04:22:03Z</time>
</trkpt>
<trkpt lat="36.814735412597656" lon="-118.58251953125">
<ele>2154</ele>
<time>2016-10-22T04:22:10Z</time>
</trkpt>
<trkpt lat="36.814666748046875" lon="-118.58259582519531">
<ele>2152</ele>
<time>2016-10-22T04:22:17Z</time>
</trkpt>
<trkpt lat="36.81452941894531" lon="-118.5826187133789">
<ele>2157</ele>
<time>2016-10-22T04:22:26Z</time>
</trkpt>
<trkpt lat="36.81452560424805" lon="-118.5824966430664">
<ele>2154</ele>
<time>2016-10-22T04:22:34Z</time>
</trkpt>
<trkpt lat="36.81455993652344" lon="-118.58238220214844">
<ele>2159</ele>
<time>2016-10-22T04:22:42Z</time>
</trkpt>
<trkpt lat="36.814632415771484" lon="-118.58228302001953">
<ele>2159</ele>
<time>2016-10-22T04:22:49Z</time>
</trkpt>
<trkpt lat="36.81458282470703" lon="-118.58229064941406">
<ele>2158</ele>
<time>2016-10-22T04:22:56Z</time>
</trkpt>
<trkpt lat="36.81448745727539" lon="-118.58232116699219">
<ele>2155</ele>
<time>2016-10-22T04:23:02Z</time>
</trkpt>
<trkpt lat="36.814395904541016" lon="-118.58236694335938">
<ele>2154</ele>
<time>2016-10-22T04:23:10Z</time>
</trkpt>
<trkpt lat="36.814327239990234" lon="-118.58248138427734">
<ele>2153</ele>
<time>2016-10-22T04:23:21Z</time>
</trkpt>
<trkpt lat="36.814247131347656" lon="-118.58251953125">
<ele>2156</ele>
<time>2016-10-22T04:23:30Z</time>
</trkpt>
<trkpt lat="36.814144134521484" lon="-118.5824966430664">
<ele>2157</ele>
<time>2016-10-22T04:23:37Z</time>
</trkpt>
<trkpt lat="36.814029693603516" lon="-118.58251190185547">
<ele>2150</ele>
<time>2016-10-22T04:23:45Z</time>
</trkpt>
<trkpt lat="36.813926696777344" lon="-118.58251190185547">
<ele>2150</ele>
<time>2016-10-22T04:23:52Z</time>
</trkpt>
<trkpt lat="36.81388473510742" lon="-118.58252716064453">
<ele>2142</ele>
<time>2016-10-22T04:23:58Z</time>
</trkpt>
<trkpt lat="36.813785552978516" lon="-118.58262634277344">
<ele>2138</ele>
<time>2016-10-22T04:24:06Z</time>
</trkpt>
<trkpt lat="36.813697814941406" lon="-118.58267211914063">
<ele>2134</ele>
<time>2016-10-22T04:24:12Z</time>
</trkpt>
<trkpt lat="36.8136100769043" lon="-118.5827407836914">
<ele>2128</ele>
<time>2016-10-22T04:24:20Z</time>
</trkpt>
<trkpt lat="36.81353759765625" lon="-118.58282470703125">
<ele>2126</ele>
<time>2016-10-22T04:24:27Z</time>
</trkpt>
<trkpt lat="36.81342697143555" lon="-118.5827865600586">
<ele>2122</ele>
<time>2016-10-22T04:24:34Z</time>
</trkpt>
<trkpt lat="36.813323974609375" lon="-118.5827407836914">
<ele>2125</ele>
<time>2016-10-22T04:24:42Z</time>
</trkpt>
<trkpt lat="36.813228607177734" lon="-118.58271026611328">
<ele>2125</ele>
<time>2016-10-22T04:24:51Z</time>
</trkpt>
<trkpt lat="36.813133239746094" lon="-118.58271789550781">
<ele>2121</ele>
<time>2016-10-22T04:24:58Z</time>
</trkpt>
<trkpt lat="36.8131217956543" lon="-118.58253479003906">
<ele>2122</ele>
<time>2016-10-22T04:25:07Z</time>
</trkpt>
<trkpt lat="36.81302261352539" lon="-118.58255767822266">
<ele>2119</ele>
<time>2016-10-22T04:25:13Z</time>
</trkpt>
<trkpt lat="36.812931060791016" lon="-118.58261108398438">
<ele>2115</ele>
<time>2016-10-22T04:25:20Z</time>
</trkpt>
<trkpt lat="36.81282424926758" lon="-118.58260345458984">
<ele>2114</ele>
<time>2016-10-22T04:25:28Z</time>
</trkpt>
<trkpt lat="36.81272888183594" lon="-118.58259582519531">
<ele>2117</ele>
<time>2016-10-22T04:25:34Z</time>
</trkpt>
<trkpt lat="36.812618255615234" lon="-118.58257293701172">
<ele>2114</ele>
<time>2016-10-22T04:25:40Z</time>
</trkpt>
<trkpt lat="36.81251907348633" lon="-118.58261108398438">
<ele>2108</ele>
<time>2016-10-22T04:25:47Z</time>
</trkpt>
<trkpt lat="36.812400817871094" lon="-118.58257293701172">
<ele>2099</ele>
<time>2016-10-22T04:25:54Z</time>
</trkpt>
<trkpt lat="36.81229782104492" lon="-118.58259582519531">
<ele>2099</ele>
<time>2016-10-22T04:26:00Z</time>
</trkpt>
<trkpt lat="36.81221389770508" lon="-118.58263397216797">
<ele>2098</ele>
<time>2016-10-22T04:26:07Z</time>
</trkpt>
<trkpt lat="36.81210708618164" lon="-118.58270263671875">
<ele>2095</ele>
<time>2016-10-22T04:26:13Z</time>
</trkpt>
<trkpt lat="36.81200408935547" lon="-118.58268737792969">
<ele>2096</ele>
<time>2016-10-22T04:26:21Z</time>
</trkpt>
<trkpt lat="36.81190872192383" lon="-118.58267974853516">
<ele>2092</ele>
<time>2016-10-22T04:26:27Z</time>
</trkpt>
<trkpt lat="36.811790466308594" lon="-118.58268737792969">
<ele>2091</ele>
<time>2016-10-22T04:26:34Z</time>
</trkpt>
<trkpt lat="36.81169891357422" lon="-118.58267211914063">
<ele>2090</ele>
<time>2016-10-22T04:26:41Z</time>
</trkpt>
<trkpt lat="36.811607360839844" lon="-118.58271789550781">
<ele>2085</ele>
<time>2016-10-22T04:26:48Z</time>
</trkpt>
<trkpt lat="36.81149673461914" lon="-118.58267211914063">
<ele>2083</ele>
<time>2016-10-22T04:26:55Z</time>
</trkpt>
<trkpt lat="36.811439514160156" lon="-118.58263397216797">
<ele>2083</ele>
<time>2016-10-22T04:27:03Z</time>
</trkpt>
<trkpt lat="36.811397552490234" lon="-118.58261108398438">
<ele>2081</ele>
<time>2016-10-22T04:27:23Z</time>
</trkpt>
<trkpt lat="36.81134796142578" lon="-118.58261108398438">
<ele>2077</ele>
<time>2016-10-22T04:27:49Z</time>
</trkpt>
</trkseg>
</trk>
<trk>
<name><![CDATA[10212128]]></name>
<number>71</number>
<extensions><topografix:color>ff000066</topografix:color></extensions>
<trkseg>
<trkpt lat="36.811370849609375" lon="-118.58261108398438">
<ele>2059</ele>
<time>2016-10-22T04:28:36Z</time>
</trkpt>
<trkpt lat="36.8114013671875" lon="-118.58265686035156">
<ele>2059</ele>
<time>2016-10-22T04:28:42Z</time>
</trkpt>
<trkpt lat="36.81138610839844" lon="-118.58273315429688">
<ele>2058</ele>
<time>2016-10-22T04:28:49Z</time>
</trkpt>
<trkpt lat="36.81136703491211" lon="-118.5827865600586">
<ele>2053</ele>
<time>2016-10-22T04:29:03Z</time>
</trkpt>
<trkpt lat="36.811302185058594" lon="-118.58287811279297">
<ele>2052</ele>
<time>2016-10-22T04:29:09Z</time>
</trkpt>
<trkpt lat="36.81120681762695" lon="-118.5828857421875">
<ele>2052</ele>
<time>2016-10-22T04:29:16Z</time>
</trkpt>
<trkpt lat="36.81110382080078" lon="-118.5828628540039">
<ele>2057</ele>
<time>2016-10-22T04:29:25Z</time>
</trkpt>
<trkpt lat="36.811004638671875" lon="-118.58284759521484">
<ele>2059</ele>
<time>2016-10-22T04:29:32Z</time>
</trkpt>
<trkpt lat="36.810855865478516" lon="-118.58290100097656">
<ele>2053</ele>
<time>2016-10-22T04:29:41Z</time>
</trkpt>
<trkpt lat="36.81074142456055" lon="-118.5829086303711">
<ele>2051</ele>
<time>2016-10-22T04:29:47Z</time>
</trkpt>
<trkpt lat="36.81064224243164" lon="-118.58292388916016">
<ele>2050</ele>
<time>2016-10-22T04:29:53Z</time>
</trkpt>
<trkpt lat="36.81053924560547" lon="-118.58293914794922">
<ele>2047</ele>
<time>2016-10-22T04:30:00Z</time>
</trkpt>
<trkpt lat="36.81044006347656" lon="-118.58296966552734">
<ele>2049</ele>
<time>2016-10-22T04:30:06Z</time>
</trkpt>
<trkpt lat="36.81034469604492" lon="-118.58300018310547">
<ele>2048</ele>
<time>2016-10-22T04:30:12Z</time>
</trkpt>
<trkpt lat="36.810245513916016" lon="-118.58302307128906">
<ele>2046</ele>
<time>2016-10-22T04:30:19Z</time>
</trkpt>
<trkpt lat="36.810142517089844" lon="-118.58300018310547">
<ele>2048</ele>
<time>2016-10-22T04:30:26Z</time>
</trkpt>
<trkpt lat="36.81010818481445" lon="-118.58290100097656">
<ele>2041</ele>
<time>2016-10-22T04:30:36Z</time>
</trkpt>
<trkpt lat="36.810062408447266" lon="-118.5828857421875">
<ele>2040</ele>
<time>2016-10-22T04:30:42Z</time>
</trkpt>
<trkpt lat="36.809967041015625" lon="-118.5828857421875">
<ele>2039</ele>
<time>2016-10-22T04:30:49Z</time>
</trkpt>
<trkpt lat="36.80988311767578" lon="-118.58295440673828">
<ele>2035</ele>
<time>2016-10-22T04:30:56Z</time>
</trkpt>
<trkpt lat="36.809810638427734" lon="-118.5830307006836">
<ele>2029</ele>
<time>2016-10-22T04:31:02Z</time>
</trkpt>
<trkpt lat="36.809749603271484" lon="-118.58311462402344">
<ele>2030</ele>
<time>2016-10-22T04:31:08Z</time>
</trkpt>
<trkpt lat="36.80967712402344" lon="-118.58319854736328">
<ele>2029</ele>
<time>2016-10-22T04:31:14Z</time>
</trkpt>
<trkpt lat="36.809600830078125" lon="-118.58329010009766">
<ele>2025</ele>
<time>2016-10-22T04:31:21Z</time>
</trkpt>
<trkpt lat="36.809505462646484" lon="-118.58332824707031">
<ele>2023</ele>
<time>2016-10-22T04:31:27Z</time>
</trkpt>
<trkpt lat="36.80940246582031" lon="-118.58335876464844">
<ele>2025</ele>
<time>2016-10-22T04:31:35Z</time>
</trkpt>
<trkpt lat="36.80930709838867" lon="-118.5833740234375">
<ele>2020</ele>
<time>2016-10-22T04:31:42Z</time>
</trkpt>
<trkpt lat="36.80921173095703" lon="-118.58341217041016">
<ele>2022</ele>
<time>2016-10-22T04:31:50Z</time>
</trkpt>
<trkpt lat="36.809120178222656" lon="-118.58345794677734">
<ele>2021</ele>
<time>2016-10-22T04:31:58Z</time>
</trkpt>
<trkpt lat="36.80900955200195" lon="-118.58345031738281">
<ele>2021</ele>
<time>2016-10-22T04:32:06Z</time>
</trkpt>
<trkpt lat="36.80891418457031" lon="-118.58340454101563">
<ele>2020</ele>
<time>2016-10-22T04:32:13Z</time>
</trkpt>
</trkseg>
</trk>
<trk>
<name><![CDATA[10212138]]></name>
<number>72</number>
<extensions><topografix:color>ff000066</topografix:color></extensions>
<trkseg>
<trkpt lat="36.80412292480469" lon="-118.5847396850586">
<ele>1947</ele>
<time>2016-10-22T04:38:20Z</time>
</trkpt>
<trkpt lat="36.804100036621094" lon="-118.58479309082031">
<ele>1950</ele>
<time>2016-10-22T04:38:34Z</time>
</trkpt>
<trkpt lat="36.804012298583984" lon="-118.58485412597656">
<ele>1952</ele>
<time>2016-10-22T04:38:40Z</time>
</trkpt>
<trkpt lat="36.80390930175781" lon="-118.58489227294922">
<ele>1950</ele>
<time>2016-10-22T04:38:46Z</time>
</trkpt>
<trkpt lat="36.80379867553711" lon="-118.58493041992188">
<ele>1948</ele>
<time>2016-10-22T04:38:53Z</time>
</trkpt>
<trkpt lat="36.80370330810547" lon="-118.58499145507813">
<ele>1946</ele>
<time>2016-10-22T04:39:00Z</time>
</trkpt>
<trkpt lat="36.80362319946289" lon="-118.58506774902344">
<ele>1943</ele>
<time>2016-10-22T04:39:06Z</time>
</trkpt>
<trkpt lat="36.8034782409668" lon="-118.58515167236328">
<ele>1943</ele>
<time>2016-10-22T04:39:15Z</time>
</trkpt>
<trkpt lat="36.80342102050781" lon="-118.58513641357422">
<ele>1941</ele>
<time>2016-10-22T04:39:25Z</time>
</trkpt>
<trkpt lat="36.80350112915039" lon="-118.58503723144531">
<ele>1936</ele>
<time>2016-10-22T04:39:32Z</time>
</trkpt>
<trkpt lat="36.80357360839844" lon="-118.58494567871094">
<ele>1935</ele>
<time>2016-10-22T04:39:39Z</time>
</trkpt>
<trkpt lat="36.80363845825195" lon="-118.5848388671875">
<ele>1937</ele>
<time>2016-10-22T04:39:45Z</time>
</trkpt>
<trkpt lat="36.8037223815918" lon="-118.58474731445313">
<ele>1933</ele>
<time>2016-10-22T04:39:53Z</time>
</trkpt>
<trkpt lat="36.80381393432617" lon="-118.58467102050781">
<ele>1934</ele>
<time>2016-10-22T04:39:59Z</time>
</trkpt>
<trkpt lat="36.80388641357422" lon="-118.5845947265625">
<ele>1931</ele>
<time>2016-10-22T04:40:07Z</time>
</trkpt>
<trkpt lat="36.803951263427734" lon="-118.58448028564453">
<ele>1935</ele>
<time>2016-10-22T04:40:14Z</time>
</trkpt>
<trkpt lat="36.80405044555664" lon="-118.58442687988281">
<ele>1930</ele>
<time>2016-10-22T04:40:21Z</time>
</trkpt>
<trkpt lat="36.8042106628418" lon="-118.58433532714844">
<ele>1927</ele>
<time>2016-10-22T04:40:29Z</time>
</trkpt>
<trkpt lat="36.804298400878906" lon="-118.58428955078125">
<ele>1925</ele>
<time>2016-10-22T04:40:35Z</time>
</trkpt>
<trkpt lat="36.80438995361328" lon="-118.584228515625">
<ele>1921</ele>
<time>2016-10-22T04:40:43Z</time>
</trkpt>
<trkpt lat="36.80446243286133" lon="-118.58413696289063">
<ele>1917</ele>
<time>2016-10-22T04:40:52Z</time>
</trkpt>
<trkpt lat="36.80453872680664" lon="-118.58405303955078">
<ele>1917</ele>
<time>2016-10-22T04:40:59Z</time>
</trkpt>
<trkpt lat="36.80460739135742" lon="-118.58397674560547">
<ele>1914</ele>
<time>2016-10-22T04:41:06Z</time>
</trkpt>
<trkpt lat="36.8046875" lon="-118.5838851928711">
<ele>1915</ele>
<time>2016-10-22T04:41:13Z</time>
</trkpt>
<trkpt lat="36.804744720458984" lon="-118.58377075195313">
<ele>1918</ele>
<time>2016-10-22T04:41:20Z</time>
</trkpt>
<trkpt lat="36.80482864379883" lon="-118.58369445800781">
<ele>1917</ele>
<time>2016-10-22T04:41:29Z</time>
</trkpt>
<trkpt lat="36.804901123046875" lon="-118.58360290527344">
<ele>1917</ele>
<time>2016-10-22T04:41:35Z</time>
</trkpt>
<trkpt lat="36.80502700805664" lon="-118.58349609375">
<ele>1915</ele>
<time>2016-10-22T04:41:44Z</time>
</trkpt>
<trkpt lat="36.805118560791016" lon="-118.58341217041016">
<ele>1914</ele>
<time>2016-10-22T04:41:50Z</time>
</trkpt>
<trkpt lat="36.80520248413086" lon="-118.58331298828125">
<ele>1914</ele>
<time>2016-10-22T04:41:57Z</time>
</trkpt>
<trkpt lat="36.805233001708984" lon="-118.58319854736328">
<ele>1913</ele>
<time>2016-10-22T04:42:03Z</time>
</trkpt>
<trkpt lat="36.80531692504883" lon="-118.58314514160156">
<ele>1911</ele>
<time>2016-10-22T04:42:12Z</time>
</trkpt>
<trkpt lat="36.80540466308594" lon="-118.58307647705078">
<ele>1912</ele>
<time>2016-10-22T04:42:19Z</time>
</trkpt>
<trkpt lat="36.80549621582031" lon="-118.5830078125">
<ele>1909</ele>
<time>2016-10-22T04:42:25Z</time>
</trkpt>
<trkpt lat="36.80562210083008" lon="-118.58289337158203">
<ele>1904</ele>
<time>2016-10-22T04:42:33Z</time>
</trkpt>
<trkpt lat="36.80575942993164" lon="-118.58282470703125">
<ele>1903</ele>
<time>2016-10-22T04:42:40Z</time>
</trkpt>
<trkpt lat="36.80582809448242" lon="-118.58272552490234">
<ele>1903</ele>
<time>2016-10-22T04:42:47Z</time>
</trkpt>
<trkpt lat="36.80591583251953" lon="-118.58265686035156">
<ele>1903</ele>
<time>2016-10-22T04:42:54Z</time>
</trkpt>
<trkpt lat="36.805912017822266" lon="-118.5825424194336">
<ele>1905</ele>
<time>2016-10-22T04:43:04Z</time>
</trkpt>
<trkpt lat="36.805824279785156" lon="-118.58260345458984">
<ele>1902</ele>
<time>2016-10-22T04:43:12Z</time>
</trkpt>
<trkpt lat="36.805721282958984" lon="-118.58262634277344">
<ele>1900</ele>
<time>2016-10-22T04:43:19Z</time>
</trkpt>
<trkpt lat="36.80558395385742" lon="-118.58262634277344">
<ele>1900</ele>
<time>2016-10-22T04:43:27Z</time>
</trkpt>
<trkpt lat="36.80548095703125" lon="-118.58259582519531">
<ele>1896</ele>
<time>2016-10-22T04:43:34Z</time>
</trkpt>
<trkpt lat="36.80538558959961" lon="-118.5826644897461">
<ele>1899</ele>
<time>2016-10-22T04:43:41Z</time>
</trkpt>
<trkpt lat="36.80527877807617" lon="-118.58267211914063">
<ele>1899</ele>
<time>2016-10-22T04:43:48Z</time>
</trkpt>
<trkpt lat="36.8051872253418" lon="-118.58271789550781">
<ele>1899</ele>
<time>2016-10-22T04:43:55Z</time>
</trkpt>
<trkpt lat="36.80509948730469" lon="-118.58277130126953">
<ele>1896</ele>
<time>2016-10-22T04:44:02Z</time>
</trkpt>
<trkpt lat="36.80500030517578" lon="-118.582763671875">
<ele>1895</ele>
<time>2016-10-22T04:44:09Z</time>
</trkpt>
<trkpt lat="36.80491256713867" lon="-118.58282470703125">
<ele>1894</ele>
<time>2016-10-22T04:44:16Z</time>
</trkpt>
<trkpt lat="36.8048095703125" lon="-118.58289337158203">
<ele>1889</ele>
<time>2016-10-22T04:44:24Z</time>
</trkpt>
<trkpt lat="36.804718017578125" lon="-118.58295440673828">
<ele>1890</ele>
<time>2016-10-22T04:44:30Z</time>
</trkpt>
<trkpt lat="36.80461883544922" lon="-118.58301544189453">
<ele>1887</ele>
<time>2016-10-22T04:44:36Z</time>
</trkpt>
<trkpt lat="36.80451965332031" lon="-118.58303833007813">
<ele>1888</ele>
<time>2016-10-22T04:44:42Z</time>
</trkpt>
<trkpt lat="36.80442810058594" lon="-118.58307647705078">
<ele>1888</ele>
<time>2016-10-22T04:44:48Z</time>
</trkpt>
<trkpt lat="36.80433654785156" lon="-118.58311462402344">
<ele>1889</ele>
<time>2016-10-22T04:44:54Z</time>
</trkpt>
<trkpt lat="36.80423355102539" lon="-118.5831527709961">
<ele>1886</ele>
<time>2016-10-22T04:45:01Z</time>
</trkpt>
<trkpt lat="36.80414962768555" lon="-118.58322143554688">
<ele>1884</ele>
<time>2016-10-22T04:45:09Z</time>
</trkpt>
<trkpt lat="36.804046630859375" lon="-118.583251953125">
<ele>1888</ele>
<time>2016-10-22T04:45:16Z</time>
</trkpt>
<trkpt lat="36.80393600463867" lon="-118.58330535888672">
<ele>1883</ele>
<time>2016-10-22T04:45:23Z</time>
</trkpt>
<trkpt lat="36.8038330078125" lon="-118.58331298828125">
<ele>1879</ele>
<time>2016-10-22T04:45:30Z</time>
</trkpt>
<trkpt lat="36.803749084472656" lon="-118.5833740234375">
<ele>1877</ele>
<time>2016-10-22T04:45:39Z</time>
</trkpt>
<trkpt lat="36.803653717041016" lon="-118.58344268798828">
<ele>1871</ele>
<time>2016-10-22T04:45:45Z</time>
</trkpt>
<trkpt lat="36.803550720214844" lon="-118.5834732055664">
<ele>1872</ele>
<time>2016-10-22T04:45:52Z</time>
</trkpt>
<trkpt lat="36.803443908691406" lon="-118.58351135253906">
<ele>1871</ele>
<time>2016-10-22T04:46:03Z</time>
</trkpt>
<trkpt lat="36.803367614746094" lon="-118.58360290527344">
<ele>1866</ele>
<time>2016-10-22T04:46:10Z</time>
</trkpt>
<trkpt lat="36.80326461791992" lon="-118.58361053466797">
<ele>1862</ele>
<time>2016-10-22T04:46:17Z</time>
</trkpt>
<trkpt lat="36.803184509277344" lon="-118.58361053466797">
<ele>1862</ele>
<time>2016-10-22T04:46:23Z</time>
</trkpt>
<trkpt lat="36.80303955078125" lon="-118.58370971679688">
<ele>1862</ele>
<time>2016-10-22T04:46:32Z</time>
</trkpt>
<trkpt lat="36.80295181274414" lon="-118.58377075195313">
<ele>1859</ele>
<time>2016-10-22T04:46:38Z</time>
</trkpt>
<trkpt lat="36.80284881591797" lon="-118.58381652832031">
<ele>1859</ele>
<time>2016-10-22T04:46:45Z</time>
</trkpt>
<trkpt lat="36.802757263183594" lon="-118.5838623046875">
<ele>1858</ele>
<time>2016-10-22T04:46:51Z</time>
</trkpt>
<trkpt lat="36.80267333984375" lon="-118.58391571044922">
<ele>1856</ele>
<time>2016-10-22T04:46:58Z</time>
</trkpt>
<trkpt lat="36.80260467529297" lon="-118.5840072631836">
<ele>1851</ele>
<time>2016-10-22T04:47:05Z</time>
</trkpt>
<trkpt lat="36.80253219604492" lon="-118.5841064453125">
<ele>1841</ele>
<time>2016-10-22T04:47:11Z</time>
</trkpt>
<trkpt lat="36.80243682861328" lon="-118.58416748046875">
<ele>1843</ele>
<time>2016-10-22T04:47:18Z</time>
</trkpt>
<trkpt lat="36.802310943603516" lon="-118.5842056274414">
<ele>1847</ele>
<time>2016-10-22T04:47:27Z</time>
</trkpt>
<trkpt lat="36.80227279663086" lon="-118.58433532714844">
<ele>1845</ele>
<time>2016-10-22T04:47:35Z</time>
</trkpt>
<trkpt lat="36.80223083496094" lon="-118.58430480957031">
<ele>1845</ele>
<time>2016-10-22T04:47:44Z</time>
</trkpt>
<trkpt lat="36.802242279052734" lon="-118.58423614501953">
<ele>1842</ele>
<time>2016-10-22T04:47:55Z</time>
</trkpt>
<trkpt lat="36.80223083496094" lon="-118.58411407470703">
<ele>1839</ele>
<time>2016-10-22T04:48:01Z</time>
</trkpt>
<trkpt lat="36.802268981933594" lon="-118.583984375">
<ele>1835</ele>
<time>2016-10-22T04:48:11Z</time>
</trkpt>
<trkpt lat="36.80229949951172" lon="-118.58385467529297">
<ele>1834</ele>
<time>2016-10-22T04:48:17Z</time>
</trkpt>
<trkpt lat="36.802371978759766" lon="-118.5837631225586">
<ele>1831</ele>
<time>2016-10-22T04:48:28Z</time>
</trkpt>
<trkpt lat="36.80244064331055" lon="-118.58365631103516">
<ele>1834</ele>
<time>2016-10-22T04:48:35Z</time>
</trkpt>
<trkpt lat="36.8025016784668" lon="-118.58354949951172">
<ele>1830</ele>
<time>2016-10-22T04:48:41Z</time>
</trkpt>
<trkpt lat="36.802581787109375" lon="-118.58344268798828">
<ele>1829</ele>
<time>2016-10-22T04:48:48Z</time>
</trkpt>
<trkpt lat="36.80264663696289" lon="-118.5833511352539">
<ele>1830</ele>
<time>2016-10-22T04:48:54Z</time>
</trkpt>
<trkpt lat="36.80269241333008" lon="-118.5832290649414">
<ele>1828</ele>
<time>2016-10-22T04:49:00Z</time>
</trkpt>
<trkpt lat="36.80275344848633" lon="-118.5831069946289">
<ele>1826</ele>
<time>2016-10-22T04:49:08Z</time>
</trkpt>
<trkpt lat="36.80282974243164" lon="-118.5830078125">
<ele>1825</ele>
<time>2016-10-22T04:49:15Z</time>
</trkpt>
<trkpt lat="36.80290985107422" lon="-118.58283233642578">
<ele>1826</ele>
<time>2016-10-22T04:49:23Z</time>
</trkpt>
<trkpt lat="36.80287170410156" lon="-118.5828628540039">
<ele>1823</ele>
<time>2016-10-22T04:49:30Z</time>
</trkpt>
<trkpt lat="36.802799224853516" lon="-118.58293914794922">
<ele>1822</ele>
<time>2016-10-22T04:49:36Z</time>
</trkpt>
<trkpt lat="36.802696228027344" lon="-118.58300018310547">
<ele>1818</ele>
<time>2016-10-22T04:49:43Z</time>
</trkpt>
<trkpt lat="36.80265426635742" lon="-118.58302307128906">
<ele>1814</ele>
<time>2016-10-22T04:50:12Z</time>
</trkpt>
<trkpt lat="36.80256652832031" lon="-118.58309173583984">
<ele>1813</ele>
<time>2016-10-22T04:50:20Z</time>
</trkpt>
<trkpt lat="36.80246353149414" lon="-118.5831298828125">
<ele>1816</ele>
<time>2016-10-22T04:50:27Z</time>
</trkpt>
<trkpt lat="36.802364349365234" lon="-118.58312225341797">
<ele>1814</ele>
<time>2016-10-22T04:50:33Z</time>
</trkpt>
<trkpt lat="36.80226135253906" lon="-118.58319854736328">
<ele>1817</ele>
<time>2016-10-22T04:50:39Z</time>
</trkpt>
<trkpt lat="36.8021240234375" lon="-118.58329772949219">
<ele>1812</ele>
<time>2016-10-22T04:50:47Z</time>
</trkpt>
<trkpt lat="36.80204772949219" lon="-118.58338165283203">
<ele>1810</ele>
<time>2016-10-22T04:50:55Z</time>
</trkpt>
<trkpt lat="36.801963806152344" lon="-118.58344268798828">
<ele>1809</ele>
<time>2016-10-22T04:51:01Z</time>
</trkpt>
<trkpt lat="36.8018684387207" lon="-118.5835189819336">
<ele>1802</ele>
<time>2016-10-22T04:51:08Z</time>
</trkpt>
<trkpt lat="36.801795959472656" lon="-118.58362579345703">
<ele>1799</ele>
<time>2016-10-22T04:51:15Z</time>
</trkpt>
<trkpt lat="36.80168914794922" lon="-118.5837631225586">
<ele>1793</ele>
<time>2016-10-22T04:51:23Z</time>
</trkpt>
<trkpt lat="36.80160140991211" lon="-118.5838394165039">
<ele>1788</ele>
<time>2016-10-22T04:51:31Z</time>
</trkpt>
<trkpt lat="36.80156707763672" lon="-118.583984375">
<ele>1790</ele>
<time>2016-10-22T04:51:37Z</time>
</trkpt>
<trkpt lat="36.801536560058594" lon="-118.58393096923828">
<ele>1786</ele>
<time>2016-10-22T04:51:50Z</time>
</trkpt>
<trkpt lat="36.80149459838867" lon="-118.58380126953125">
<ele>1784</ele>
<time>2016-10-22T04:51:56Z</time>
</trkpt>
<trkpt lat="36.801513671875" lon="-118.58368682861328">
<ele>1779</ele>
<time>2016-10-22T04:52:03Z</time>
</trkpt>
<trkpt lat="36.80155563354492" lon="-118.58355712890625">
<ele>1781</ele>
<time>2016-10-22T04:52:10Z</time>
</trkpt>
<trkpt lat="36.80160140991211" lon="-118.58344268798828">
<ele>1780</ele>
<time>2016-10-22T04:52:17Z</time>
</trkpt>
<trkpt lat="36.80166244506836" lon="-118.58335876464844">
<ele>1778</ele>
<time>2016-10-22T04:52:25Z</time>
</trkpt>
<trkpt lat="36.80171585083008" lon="-118.58324432373047">
<ele>1777</ele>
<time>2016-10-22T04:52:31Z</time>
</trkpt>
<trkpt lat="36.80175018310547" lon="-118.5831298828125">
<ele>1776</ele>
<time>2016-10-22T04:52:37Z</time>
</trkpt>
<trkpt lat="36.80183029174805" lon="-118.58301544189453">
<ele>1779</ele>
<time>2016-10-22T04:52:44Z</time>
</trkpt>
<trkpt lat="36.80186080932617" lon="-118.58290100097656">
<ele>1779</ele>
<time>2016-10-22T04:52:51Z</time>
</trkpt>
<trkpt lat="36.801876068115234" lon="-118.5827865600586">
<ele>1779</ele>
<time>2016-10-22T04:52:58Z</time>
</trkpt>
<trkpt lat="36.80194091796875" lon="-118.5826644897461">
<ele>1780</ele>
<time>2016-10-22T04:53:06Z</time>
</trkpt>
<trkpt lat="36.80199432373047" lon="-118.58256530761719">
<ele>1782</ele>
<time>2016-10-22T04:53:13Z</time>
</trkpt>
<trkpt lat="36.80202865600586" lon="-118.58245086669922">
<ele>1778</ele>
<time>2016-10-22T04:53:20Z</time>
</trkpt>
<trkpt lat="36.80207443237305" lon="-118.58233642578125">
<ele>1774</ele>
<time>2016-10-22T04:53:27Z</time>
</trkpt>
<trkpt lat="36.80204391479492" lon="-118.5823974609375">
<ele>1770</ele>
<time>2016-10-22T04:53:38Z</time>
</trkpt>
<trkpt lat="36.80198287963867" lon="-118.58248901367188">
<ele>1775</ele>
<time>2016-10-22T04:53:44Z</time>
</trkpt>
<trkpt lat="36.80189514160156" lon="-118.58253479003906">
<ele>1776</ele>
<time>2016-10-22T04:53:53Z</time>
</trkpt>
<trkpt lat="36.80180740356445" lon="-118.58260345458984">
<ele>1770</ele>
<time>2016-10-22T04:54:02Z</time>
</trkpt>
<trkpt lat="36.80171585083008" lon="-118.58265686035156">
<ele>1769</ele>
<time>2016-10-22T04:54:08Z</time>
</trkpt>
<trkpt lat="36.8016357421875" lon="-118.58275604248047">
<ele>1767</ele>
<time>2016-10-22T04:54:16Z</time>
</trkpt>
<trkpt lat="36.80154037475586" lon="-118.58281707763672">
<ele>1761</ele>
<time>2016-10-22T04:54:25Z</time>
</trkpt>
<trkpt lat="36.80148696899414" lon="-118.58293914794922">
<ele>1759</ele>
<time>2016-10-22T04:54:31Z</time>
</trkpt>
<trkpt lat="36.80138397216797" lon="-118.58306121826172">
<ele>1759</ele>
<time>2016-10-22T04:54:40Z</time>
</trkpt>
<trkpt lat="36.80128479003906" lon="-118.5831069946289">
<ele>1758</ele>
<time>2016-10-22T04:54:46Z</time>
</trkpt>
<trkpt lat="36.80120086669922" lon="-118.58319854736328">
<ele>1753</ele>
<time>2016-10-22T04:54:53Z</time>
</trkpt>
<trkpt lat="36.80110549926758" lon="-118.58325958251953">
<ele>1753</ele>
<time>2016-10-22T04:55:02Z</time>
</trkpt>
<trkpt lat="36.80101776123047" lon="-118.58323669433594">
<ele>1754</ele>
<time>2016-10-22T04:55:24Z</time>
</trkpt>
<trkpt lat="36.800968170166016" lon="-118.5833740234375">
<ele>1751</ele>
<time>2016-10-22T04:55:30Z</time>
</trkpt>
<trkpt lat="36.80091857910156" lon="-118.5834732055664">
<ele>1752</ele>
<time>2016-10-22T04:55:37Z</time>
</trkpt>
<trkpt lat="36.80088806152344" lon="-118.5836181640625">
<ele>1749</ele>
<time>2016-10-22T04:55:43Z</time>
</trkpt>
<trkpt lat="36.800872802734375" lon="-118.58374786376953">
<ele>1746</ele>
<time>2016-10-22T04:55:49Z</time>
</trkpt>
<trkpt lat="36.80085754394531" lon="-118.58382415771484">
<ele>1743</ele>
<time>2016-10-22T04:55:55Z</time>
</trkpt>
<trkpt lat="36.800838470458984" lon="-118.5839614868164">
<ele>1739</ele>
<time>2016-10-22T04:56:03Z</time>
</trkpt>
<trkpt lat="36.80079650878906" lon="-118.58391571044922">
<ele>1735</ele>
<time>2016-10-22T04:56:14Z</time>
</trkpt>
<trkpt lat="36.80078887939453" lon="-118.58381652832031">
<ele>1734</ele>
<time>2016-10-22T04:56:20Z</time>
</trkpt>
<trkpt lat="36.80080795288086" lon="-118.58369445800781">
<ele>1736</ele>
<time>2016-10-22T04:56:27Z</time>
</trkpt>
<trkpt lat="36.8007698059082" lon="-118.58356475830078">
<ele>1735</ele>
<time>2016-10-22T04:56:34Z</time>
</trkpt>
<trkpt lat="36.800785064697266" lon="-118.58345031738281">
<ele>1734</ele>
<time>2016-10-22T04:56:40Z</time>
</trkpt>
<trkpt lat="36.80078887939453" lon="-118.58330535888672">
<ele>1736</ele>
<time>2016-10-22T04:56:49Z</time>
</trkpt>
<trkpt lat="36.800785064697266" lon="-118.58318328857422">
<ele>1735</ele>
<time>2016-10-22T04:56:55Z</time>
</trkpt>
<trkpt lat="36.800804138183594" lon="-118.58306121826172">
<ele>1734</ele>
<time>2016-10-22T04:57:01Z</time>
</trkpt>
<trkpt lat="36.80083465576172" lon="-118.58293914794922">
<ele>1734</ele>
<time>2016-10-22T04:57:08Z</time>
</trkpt>
<trkpt lat="36.80088424682617" lon="-118.58280944824219">
<ele>1733</ele>
<time>2016-10-22T04:57:16Z</time>
</trkpt>
<trkpt lat="36.80091857910156" lon="-118.58268737792969">
<ele>1731</ele>
<time>2016-10-22T04:57:23Z</time>
</trkpt>
<trkpt lat="36.80094909667969" lon="-118.58258819580078">
<ele>1732</ele>
<time>2016-10-22T04:57:29Z</time>
</trkpt>
<trkpt lat="36.80097198486328" lon="-118.58247375488281">
<ele>1733</ele>
<time>2016-10-22T04:57:35Z</time>
</trkpt>
<trkpt lat="36.8010139465332" lon="-118.58235168457031">
<ele>1727</ele>
<time>2016-10-22T04:57:44Z</time>
</trkpt>
<trkpt lat="36.801048278808594" lon="-118.58222961425781">
<ele>1724</ele>
<time>2016-10-22T04:57:50Z</time>
</trkpt>
<trkpt lat="36.801048278808594" lon="-118.58209228515625">
<ele>1721</ele>
<time>2016-10-22T04:57:57Z</time>
</trkpt>
<trkpt lat="36.80105972290039" lon="-118.58197784423828">
<ele>1721</ele>
<time>2016-10-22T04:58:08Z</time>
</trkpt>
<trkpt lat="36.80101776123047" lon="-118.58186340332031">
<ele>1721</ele>
<time>2016-10-22T04:58:14Z</time>
</trkpt>
<trkpt lat="36.80105209350586" lon="-118.58179473876953">
<ele>1719</ele>
<time>2016-10-22T04:58:20Z</time>
</trkpt>
<trkpt lat="36.801124572753906" lon="-118.58170318603516">
<ele>1714</ele>
<time>2016-10-22T04:58:28Z</time>
</trkpt>
<trkpt lat="36.80116271972656" lon="-118.58158111572266">
<ele>1707</ele>
<time>2016-10-22T04:58:34Z</time>
</trkpt>
<trkpt lat="36.801231384277344" lon="-118.58145904541016">
<ele>1713</ele>
<time>2016-10-22T04:58:41Z</time>
</trkpt>
<trkpt lat="36.80131530761719" lon="-118.58137512207031">
<ele>1706</ele>
<time>2016-10-22T04:58:50Z</time>
</trkpt>
<trkpt lat="36.80141067504883" lon="-118.58128356933594">
<ele>1705</ele>
<time>2016-10-22T04:58:56Z</time>
</trkpt>
<trkpt lat="36.801353454589844" lon="-118.58125305175781">
<ele>1711</ele>
<time>2016-10-22T04:59:16Z</time>
</trkpt>
<trkpt lat="36.80122375488281" lon="-118.58123779296875">
<ele>1708</ele>
<time>2016-10-22T04:59:24Z</time>
</trkpt>
<trkpt lat="36.80111312866211" lon="-118.58124542236328">
<ele>1705</ele>
<time>2016-10-22T04:59:31Z</time>
</trkpt>
<trkpt lat="36.80100631713867" lon="-118.58128356933594">
<ele>1702</ele>
<time>2016-10-22T04:59:38Z</time>
</trkpt>
<trkpt lat="36.80092239379883" lon="-118.58131408691406">
<ele>1695</ele>
<time>2016-10-22T04:59:46Z</time>
</trkpt>
<trkpt lat="36.80084228515625" lon="-118.5813980102539">
<ele>1693</ele>
<time>2016-10-22T04:59:52Z</time>
</trkpt>
<trkpt lat="36.800743103027344" lon="-118.58143615722656">
<ele>1692</ele>
<time>2016-10-22T04:59:58Z</time>
</trkpt>
<trkpt lat="36.800662994384766" lon="-118.58149719238281">
<ele>1690</ele>
<time>2016-10-22T05:00:05Z</time>
</trkpt>
<trkpt lat="36.80059814453125" lon="-118.58159637451172">
<ele>1693</ele>
<time>2016-10-22T05:00:12Z</time>
</trkpt>
<trkpt lat="36.800533294677734" lon="-118.5816879272461">
<ele>1690</ele>
<time>2016-10-22T05:00:20Z</time>
</trkpt>
<trkpt lat="36.80051040649414" lon="-118.58174133300781">
<ele>1688</ele>
<time>2016-10-22T05:00:31Z</time>
</trkpt>
<trkpt lat="36.80048370361328" lon="-118.58187866210938">
<ele>1685</ele>
<time>2016-10-22T05:00:37Z</time>
</trkpt>
<trkpt lat="36.800472259521484" lon="-118.58200073242188">
<ele>1685</ele>
<time>2016-10-22T05:00:43Z</time>
</trkpt>
<trkpt lat="36.80042266845703" lon="-118.58210754394531">
<ele>1685</ele>
<time>2016-10-22T05:00:50Z</time>
</trkpt>
<trkpt lat="36.80036926269531" lon="-118.58221435546875">
<ele>1685</ele>
<time>2016-10-22T05:00:57Z</time>
</trkpt>
<trkpt lat="36.80031967163086" lon="-118.58232116699219">
<ele>1683</ele>
<time>2016-10-22T05:01:04Z</time>
</trkpt>
<trkpt lat="36.80025100708008" lon="-118.58240509033203">
<ele>1685</ele>
<time>2016-10-22T05:01:10Z</time>
</trkpt>
<trkpt lat="36.80017852783203" lon="-118.5824966430664">
<ele>1684</ele>
<time>2016-10-22T05:01:17Z</time>
</trkpt>
<trkpt lat="36.80013656616211" lon="-118.58260345458984">
<ele>1677</ele>
<time>2016-10-22T05:01:24Z</time>
</trkpt>
<trkpt lat="36.80006790161133" lon="-118.58270263671875">
<ele>1675</ele>
<time>2016-10-22T05:01:31Z</time>
</trkpt>
<trkpt lat="36.80001449584961" lon="-118.58280944824219">
<ele>1673</ele>
<time>2016-10-22T05:01:38Z</time>
</trkpt>
<trkpt lat="36.79997634887695" lon="-118.58292388916016">
<ele>1671</ele>
<time>2016-10-22T05:01:44Z</time>
</trkpt>
<trkpt lat="36.80000305175781" lon="-118.58309936523438">
<ele>1670</ele>
<time>2016-10-22T05:01:53Z</time>
</trkpt>
<trkpt lat="36.79994583129883" lon="-118.58302307128906">
<ele>1665</ele>
<time>2016-10-22T05:02:05Z</time>
</trkpt>
<trkpt lat="36.79991912841797" lon="-118.58289337158203">
<ele>1666</ele>
<time>2016-10-22T05:02:11Z</time>
</trkpt>
<trkpt lat="36.799896240234375" lon="-118.58277893066406">
<ele>1663</ele>
<time>2016-10-22T05:02:17Z</time>
</trkpt>
<trkpt lat="36.79991149902344" lon="-118.58264923095703">
<ele>1658</ele>
<time>2016-10-22T05:02:25Z</time>
</trkpt>
<trkpt lat="36.799922943115234" lon="-118.58247375488281">
<ele>1653</ele>
<time>2016-10-22T05:02:33Z</time>
</trkpt>
<trkpt lat="36.79993438720703" lon="-118.58235168457031">
<ele>1649</ele>
<time>2016-10-22T05:02:43Z</time>
</trkpt>
<trkpt lat="36.79993438720703" lon="-118.58220672607422">
<ele>1650</ele>
<time>2016-10-22T05:02:50Z</time>
</trkpt>
<trkpt lat="36.79990005493164" lon="-118.58207702636719">
<ele>1653</ele>
<time>2016-10-22T05:02:57Z</time>
</trkpt>
<trkpt lat="36.799922943115234" lon="-118.58195495605469">
<ele>1650</ele>
<time>2016-10-22T05:03:03Z</time>
</trkpt>
<trkpt lat="36.799930572509766" lon="-118.58183288574219">
<ele>1645</ele>
<time>2016-10-22T05:03:10Z</time>
</trkpt>
<trkpt lat="36.79993438720703" lon="-118.58169555664063">
<ele>1644</ele>
<time>2016-10-22T05:03:18Z</time>
</trkpt>
<trkpt lat="36.79994583129883" lon="-118.58161163330078">
<ele>1642</ele>
<time>2016-10-22T05:03:28Z</time>
</trkpt>
<trkpt lat="36.799896240234375" lon="-118.5816421508789">
<ele>1640</ele>
<time>2016-10-22T05:03:38Z</time>
</trkpt>
<trkpt lat="36.79986572265625" lon="-118.5817642211914">
<ele>1642</ele>
<time>2016-10-22T05:03:45Z</time>
</trkpt>
<trkpt lat="36.79982376098633" lon="-118.58187103271484">
<ele>1642</ele>
<time>2016-10-22T05:03:55Z</time>
</trkpt>
<trkpt lat="36.79973602294922" lon="-118.58193969726563">
<ele>1645</ele>
<time>2016-10-22T05:04:02Z</time>
</trkpt>
<trkpt lat="36.79966354370117" lon="-118.58203887939453">
<ele>1644</ele>
<time>2016-10-22T05:04:08Z</time>
</trkpt>
<trkpt lat="36.79962158203125" lon="-118.58214569091797">
<ele>1639</ele>
<time>2016-10-22T05:04:17Z</time>
</trkpt>
<trkpt lat="36.79957580566406" lon="-118.58224487304688">
<ele>1640</ele>
<time>2016-10-22T05:04:25Z</time>
</trkpt>
<trkpt lat="36.79951477050781" lon="-118.58235168457031">
<ele>1636</ele>
<time>2016-10-22T05:04:34Z</time>
</trkpt>
<trkpt lat="36.79946517944336" lon="-118.58248901367188">
<ele>1633</ele>
<time>2016-10-22T05:04:41Z</time>
</trkpt>
<trkpt lat="36.79941940307617" lon="-118.58259582519531">
<ele>1635</ele>
<time>2016-10-22T05:04:49Z</time>
</trkpt>
<trkpt lat="36.79940414428711" lon="-118.58273315429688">
<ele>1636</ele>
<time>2016-10-22T05:04:55Z</time>
</trkpt>
<trkpt lat="36.79939270019531" lon="-118.58284759521484">
<ele>1635</ele>
<time>2016-10-22T05:05:02Z</time>
</trkpt>
<trkpt lat="36.799400329589844" lon="-118.58297729492188">
<ele>1634</ele>
<time>2016-10-22T05:05:09Z</time>
</trkpt>
<trkpt lat="36.799400329589844" lon="-118.58312225341797">
<ele>1630</ele>
<time>2016-10-22T05:05:17Z</time>
</trkpt>
<trkpt lat="36.79940414428711" lon="-118.58324432373047">
<ele>1629</ele>
<time>2016-10-22T05:05:24Z</time>
</trkpt>
<trkpt lat="36.79933547973633" lon="-118.58332824707031">
<ele>1627</ele>
<time>2016-10-22T05:05:30Z</time>
</trkpt>
<trkpt lat="36.79924011230469" lon="-118.5833740234375">
<ele>1624</ele>
<time>2016-10-22T05:05:38Z</time>
</trkpt>
<trkpt lat="36.79914093017578" lon="-118.58342742919922">
<ele>1623</ele>
<time>2016-10-22T05:05:46Z</time>
</trkpt>
<trkpt lat="36.79905700683594" lon="-118.58351135253906">
<ele>1621</ele>
<time>2016-10-22T05:05:54Z</time>
</trkpt>
<trkpt lat="36.79901123046875" lon="-118.58363342285156">
<ele>1620</ele>
<time>2016-10-22T05:06:01Z</time>
</trkpt>
<trkpt lat="36.79895782470703" lon="-118.58373260498047">
<ele>1618</ele>
<time>2016-10-22T05:06:07Z</time>
</trkpt>
<trkpt lat="36.798892974853516" lon="-118.58382415771484">
<ele>1617</ele>
<time>2016-10-22T05:06:13Z</time>
</trkpt>
<trkpt lat="36.79890060424805" lon="-118.58375549316406">
<ele>1614</ele>
<time>2016-10-22T05:06:19Z</time>
</trkpt>
<trkpt lat="36.798946380615234" lon="-118.58361053466797">
<ele>1611</ele>
<time>2016-10-22T05:06:27Z</time>
</trkpt>
<trkpt lat="36.79897689819336" lon="-118.58349609375">
<ele>1610</ele>
<time>2016-10-22T05:06:35Z</time>
</trkpt>
<trkpt lat="36.799007415771484" lon="-118.5833740234375">
<ele>1606</ele>
<time>2016-10-22T05:06:43Z</time>
</trkpt>
<trkpt lat="36.799072265625" lon="-118.58326721191406">
<ele>1604</ele>
<time>2016-10-22T05:06:50Z</time>
</trkpt>
<trkpt lat="36.79911804199219" lon="-118.5831527709961">
<ele>1604</ele>
<time>2016-10-22T05:06:59Z</time>
</trkpt>
<trkpt lat="36.79907989501953" lon="-118.58296966552734">
<ele>1605</ele>
<time>2016-10-22T05:07:06Z</time>
</trkpt>
<trkpt lat="36.79903793334961" lon="-118.58284759521484">
<ele>1605</ele>
<time>2016-10-22T05:07:15Z</time>
</trkpt>
<trkpt lat="36.798954010009766" lon="-118.58267211914063">
<ele>1602</ele>
<time>2016-10-22T05:07:23Z</time>
</trkpt>
<trkpt lat="36.79894256591797" lon="-118.58255004882813">
<ele>1599</ele>
<time>2016-10-22T05:07:30Z</time>
</trkpt>
<trkpt lat="36.79898452758789" lon="-118.5824203491211">
<ele>1599</ele>
<time>2016-10-22T05:07:39Z</time>
</trkpt>
<trkpt lat="36.79898452758789" lon="-118.58229064941406">
<ele>1598</ele>
<time>2016-10-22T05:07:46Z</time>
</trkpt>
<trkpt lat="36.79891586303711" lon="-118.58236694335938">
<ele>1599</ele>
<time>2016-10-22T05:07:53Z</time>
</trkpt>
<trkpt lat="36.79886245727539" lon="-118.58248138427734">
<ele>1598</ele>
<time>2016-10-22T05:08:00Z</time>
</trkpt>
<trkpt lat="36.798824310302734" lon="-118.58260345458984">
<ele>1594</ele>
<time>2016-10-22T05:08:17Z</time>
</trkpt>
<trkpt lat="36.7988166809082" lon="-118.58272552490234">
<ele>1592</ele>
<time>2016-10-22T05:08:23Z</time>
</trkpt>
<trkpt lat="36.79882049560547" lon="-118.58284759521484">
<ele>1590</ele>
<time>2016-10-22T05:08:31Z</time>
</trkpt>
<trkpt lat="36.798789978027344" lon="-118.58296966552734">
<ele>1589</ele>
<time>2016-10-22T05:08:37Z</time>
</trkpt>
<trkpt lat="36.79873275756836" lon="-118.58307647705078">
<ele>1589</ele>
<time>2016-10-22T05:08:44Z</time>
</trkpt>
<trkpt lat="36.79867172241211" lon="-118.58318328857422">
<ele>1589</ele>
<time>2016-10-22T05:08:51Z</time>
</trkpt>
<trkpt lat="36.79860305786133" lon="-118.58328247070313">
<ele>1586</ele>
<time>2016-10-22T05:08:58Z</time>
</trkpt>
<trkpt lat="36.798553466796875" lon="-118.5833969116211">
<ele>1587</ele>
<time>2016-10-22T05:09:04Z</time>
</trkpt>
<trkpt lat="36.79850769042969" lon="-118.58351135253906">
<ele>1587</ele>
<time>2016-10-22T05:09:10Z</time>
</trkpt>
<trkpt lat="36.7984619140625" lon="-118.58363342285156">
<ele>1586</ele>
<time>2016-10-22T05:09:16Z</time>
</trkpt>
<trkpt lat="36.79840087890625" lon="-118.5837631225586">
<ele>1584</ele>
<time>2016-10-22T05:09:24Z</time>
</trkpt>
<trkpt lat="36.798343658447266" lon="-118.58386993408203">
<ele>1581</ele>
<time>2016-10-22T05:09:31Z</time>
</trkpt>
<trkpt lat="36.798301696777344" lon="-118.58384704589844">
<ele>1578</ele>
<time>2016-10-22T05:09:40Z</time>
</trkpt>
<trkpt lat="36.798309326171875" lon="-118.58372497558594">
<ele>1575</ele>
<time>2016-10-22T05:09:46Z</time>
</trkpt>
<trkpt lat="36.79831314086914" lon="-118.58360290527344">
<ele>1573</ele>
<time>2016-10-22T05:09:52Z</time>
</trkpt>
<trkpt lat="36.798301696777344" lon="-118.58346557617188">
<ele>1572</ele>
<time>2016-10-22T05:10:00Z</time>
</trkpt>
<trkpt lat="36.79829788208008" lon="-118.58332824707031">
<ele>1571</ele>
<time>2016-10-22T05:10:07Z</time>
</trkpt>
<trkpt lat="36.798301696777344" lon="-118.58319854736328">
<ele>1568</ele>
<time>2016-10-22T05:10:13Z</time>
</trkpt>
<trkpt lat="36.7983283996582" lon="-118.58306884765625">
<ele>1566</ele>
<time>2016-10-22T05:10:20Z</time>
</trkpt>
<trkpt lat="36.79829025268555" lon="-118.58293151855469">
<ele>1565</ele>
<time>2016-10-22T05:10:27Z</time>
</trkpt>
<trkpt lat="36.7982177734375" lon="-118.58281707763672">
<ele>1567</ele>
<time>2016-10-22T05:10:33Z</time>
</trkpt>
<trkpt lat="36.79825210571289" lon="-118.58270263671875">
<ele>1562</ele>
<time>2016-10-22T05:10:41Z</time>
</trkpt>
<trkpt lat="36.79826354980469" lon="-118.58256530761719">
<ele>1559</ele>
<time>2016-10-22T05:10:48Z</time>
</trkpt>
<trkpt lat="36.798282623291016" lon="-118.58245086669922">
<ele>1554</ele>
<time>2016-10-22T05:10:54Z</time>
</trkpt>
<trkpt lat="36.798255920410156" lon="-118.58251190185547">
<ele>1551</ele>
<time>2016-10-22T05:11:13Z</time>
</trkpt>
<trkpt lat="36.79819869995117" lon="-118.58262634277344">
<ele>1551</ele>
<time>2016-10-22T05:11:19Z</time>
</trkpt>
<trkpt lat="36.798126220703125" lon="-118.5827407836914">
<ele>1551</ele>
<time>2016-10-22T05:11:26Z</time>
</trkpt>
<trkpt lat="36.798057556152344" lon="-118.58283233642578">
<ele>1552</ele>
<time>2016-10-22T05:11:32Z</time>
</trkpt>
<trkpt lat="36.7979850769043" lon="-118.58293151855469">
<ele>1550</ele>
<time>2016-10-22T05:11:42Z</time>
</trkpt>
<trkpt lat="36.797916412353516" lon="-118.58309173583984">
<ele>1547</ele>
<time>2016-10-22T05:11:51Z</time>
</trkpt>
<trkpt lat="36.79790496826172" lon="-118.58322143554688">
<ele>1547</ele>
<time>2016-10-22T05:11:59Z</time>
</trkpt>
<trkpt lat="36.797889709472656" lon="-118.58334350585938">
<ele>1546</ele>
<time>2016-10-22T05:12:06Z</time>
</trkpt>
<trkpt lat="36.79783630371094" lon="-118.58332061767578">
<ele>1544</ele>
<time>2016-10-22T05:12:12Z</time>
</trkpt>
<trkpt lat="36.797786712646484" lon="-118.58321380615234">
<ele>1541</ele>
<time>2016-10-22T05:12:19Z</time>
</trkpt>
<trkpt lat="36.797725677490234" lon="-118.58309173583984">
<ele>1540</ele>
<time>2016-10-22T05:12:26Z</time>
</trkpt>
<trkpt lat="36.79765319824219" lon="-118.5829849243164">
<ele>1537</ele>
<time>2016-10-22T05:12:34Z</time>
</trkpt>
<trkpt lat="36.797550201416016" lon="-118.58282470703125">
<ele>1538</ele>
<time>2016-10-22T05:12:42Z</time>
</trkpt>
<trkpt lat="36.79749298095703" lon="-118.58271789550781">
<ele>1537</ele>
<time>2016-10-22T05:12:49Z</time>
</trkpt>
<trkpt lat="36.79743194580078" lon="-118.58259582519531">
<ele>1536</ele>
<time>2016-10-22T05:12:57Z</time>
</trkpt>
<trkpt lat="36.79734802246094" lon="-118.58259582519531">
<ele>1538</ele>
<time>2016-10-22T05:13:03Z</time>
</trkpt>
<trkpt lat="36.797306060791016" lon="-118.58270263671875">
<ele>1538</ele>
<time>2016-10-22T05:13:10Z</time>
</trkpt>
<trkpt lat="36.7972526550293" lon="-118.5828628540039">
<ele>1540</ele>
<time>2016-10-22T05:13:17Z</time>
</trkpt>
<trkpt lat="36.797203063964844" lon="-118.58295440673828">
<ele>1535</ele>
<time>2016-10-22T05:13:23Z</time>
</trkpt>
<trkpt lat="36.79715347290039" lon="-118.58307647705078">
<ele>1537</ele>
<time>2016-10-22T05:13:32Z</time>
</trkpt>
<trkpt lat="36.79710388183594" lon="-118.58317565917969">
<ele>1535</ele>
<time>2016-10-22T05:13:39Z</time>
</trkpt>
<trkpt lat="36.797027587890625" lon="-118.58326721191406">
<ele>1531</ele>
<time>2016-10-22T05:13:47Z</time>
</trkpt>
<trkpt lat="36.796958923339844" lon="-118.58338928222656">
<ele>1529</ele>
<time>2016-10-22T05:13:56Z</time>
</trkpt>
<trkpt lat="36.79690170288086" lon="-118.58350372314453">
<ele>1529</ele>
<time>2016-10-22T05:14:02Z</time>
</trkpt>
<trkpt lat="36.79682159423828" lon="-118.58358764648438">
<ele>1526</ele>
<time>2016-10-22T05:14:09Z</time>
</trkpt>
<trkpt lat="36.7967643737793" lon="-118.58368682861328">
<ele>1522</ele>
<time>2016-10-22T05:14:15Z</time>
</trkpt>
<trkpt lat="36.796714782714844" lon="-118.58385467529297">
<ele>1521</ele>
<time>2016-10-22T05:14:24Z</time>
</trkpt>
<trkpt lat="36.79667663574219" lon="-118.58397674560547">
<ele>1524</ele>
<time>2016-10-22T05:14:30Z</time>
</trkpt>
<trkpt lat="36.796630859375" lon="-118.58409118652344">
<ele>1527</ele>
<time>2016-10-22T05:14:36Z</time>
</trkpt>
<trkpt lat="36.79656219482422" lon="-118.58419799804688">
<ele>1527</ele>
<time>2016-10-22T05:14:44Z</time>
</trkpt>
<trkpt lat="36.79652786254883" lon="-118.58415222167969">
<ele>1518</ele>
<time>2016-10-22T05:14:54Z</time>
</trkpt>
<trkpt lat="36.79649353027344" lon="-118.58402252197266">
<ele>1518</ele>
<time>2016-10-22T05:15:02Z</time>
</trkpt>
<trkpt lat="36.79648971557617" lon="-118.58390045166016">
<ele>1514</ele>
<time>2016-10-22T05:15:08Z</time>
</trkpt>
<trkpt lat="36.79649353027344" lon="-118.58377075195313">
<ele>1512</ele>
<time>2016-10-22T05:15:15Z</time>
</trkpt>
<trkpt lat="36.79652404785156" lon="-118.58362579345703">
<ele>1514</ele>
<time>2016-10-22T05:15:24Z</time>
</trkpt>
</trkseg>
</trk>
</gpx>
